<?xml version="1.0" encoding="UTF-8"?>
<gpx version="1.1" creator="https://www.youtrack.es" xsi:schemaLocation="http://www.topografix.com/GPX/1/1 http://www.topografix.com/GPX/1/1/gpx.xsd http://www.garmin.com/xmlschemas/GpxExtensions/v3 http://www.garmin.com/xmlschemas/GpxExtensionsv3.xsd http://www.garmin.com/xmlschemas/TrackPointExtension/v1 http://www.garmin.com/xmlschemas/TrackPointExtensionv1.xsd" xmlns:gpxtpx="http://www.garmin.com/xmlschemas/TrackPointExtension/v1" xmlns:gpxx="http://www.garmin.com/xmlschemas/GpxExtensions/v3" xmlns:xsi="http://www.w3.org/2001/XMLSchema-instance">
  <metadata>
    <link href="https://www.youtrack.es">
      <text>YouTrack.es</text>
    </link>
    <time>2026-05-09T03:47:51Z</time>
  </metadata>
  <trk>
    <src>https://www.youtrack.es</src>
    <link href="https://www.youtrack.es/ruta/32090-palma--el-toro">
      <text>YouTrack.es</text>
    </link>
    <trkseg>
      <trkpt lat="39.58145333" lon="2.655725">
        <ele>107.0</ele>
        <time>2022-05-14T10:23:00.809Z</time>
      </trkpt>
      <trkpt lat="39.58145333" lon="2.655725">
        <ele>107.0</ele>
        <time>2022-05-14T10:23:01.810Z</time>
      </trkpt>
      <trkpt lat="39.58144833" lon="2.65573">
        <ele>107.0</ele>
        <time>2022-05-14T10:23:02.811Z</time>
      </trkpt>
      <trkpt lat="39.581445" lon="2.65572167">
        <ele>107.0</ele>
        <time>2022-05-14T10:23:03.810Z</time>
      </trkpt>
      <trkpt lat="39.58144667" lon="2.65571833">
        <ele>107.0</ele>
        <time>2022-05-14T10:23:04.810Z</time>
      </trkpt>
      <trkpt lat="39.581445" lon="2.65571833">
        <ele>107.0</ele>
        <time>2022-05-14T10:23:05.810Z</time>
      </trkpt>
      <trkpt lat="39.581465" lon="2.65580667">
        <ele>116.0</ele>
        <time>2022-05-14T10:23:59.526Z</time>
      </trkpt>
      <trkpt lat="39.58146333" lon="2.6558">
        <ele>116.0</ele>
        <time>2022-05-14T10:24:00.526Z</time>
      </trkpt>
      <trkpt lat="39.58146667" lon="2.65580167">
        <ele>116.0</ele>
        <time>2022-05-14T10:24:01.526Z</time>
      </trkpt>
      <trkpt lat="39.58147" lon="2.65579667">
        <ele>117.0</ele>
        <time>2022-05-14T10:24:02.525Z</time>
      </trkpt>
      <trkpt lat="39.58146667" lon="2.655795">
        <ele>117.0</ele>
        <time>2022-05-14T10:24:03.526Z</time>
      </trkpt>
      <trkpt lat="39.58146167" lon="2.65577833">
        <ele>118.0</ele>
        <time>2022-05-14T10:24:04.526Z</time>
      </trkpt>
      <trkpt lat="39.58146167" lon="2.65576833">
        <ele>118.0</ele>
        <time>2022-05-14T10:24:05.526Z</time>
      </trkpt>
      <trkpt lat="39.58146667" lon="2.655765">
        <ele>119.0</ele>
        <time>2022-05-14T10:24:06.526Z</time>
      </trkpt>
      <trkpt lat="39.58147333" lon="2.65577">
        <ele>119.0</ele>
        <time>2022-05-14T10:24:07.525Z</time>
      </trkpt>
      <trkpt lat="39.581485" lon="2.65577333">
        <ele>120.0</ele>
        <time>2022-05-14T10:24:08.526Z</time>
      </trkpt>
      <trkpt lat="39.581485" lon="2.65577167">
        <ele>120.0</ele>
        <time>2022-05-14T10:24:09.526Z</time>
      </trkpt>
      <trkpt lat="39.58148667" lon="2.65577">
        <ele>121.0</ele>
        <time>2022-05-14T10:24:10.526Z</time>
      </trkpt>
      <trkpt lat="39.58148" lon="2.65575167">
        <ele>121.0</ele>
        <time>2022-05-14T10:24:11.526Z</time>
      </trkpt>
      <trkpt lat="39.58148333" lon="2.655725">
        <ele>121.0</ele>
        <time>2022-05-14T10:24:12.526Z</time>
      </trkpt>
      <trkpt lat="39.58149167" lon="2.65568833">
        <ele>121.0</ele>
        <time>2022-05-14T10:24:13.526Z</time>
      </trkpt>
      <trkpt lat="39.5815" lon="2.65565">
        <ele>121.0</ele>
        <time>2022-05-14T10:24:14.526Z</time>
      </trkpt>
      <trkpt lat="39.58151167" lon="2.65561333">
        <ele>121.0</ele>
        <time>2022-05-14T10:24:15.525Z</time>
      </trkpt>
      <trkpt lat="39.581525" lon="2.65558">
        <ele>120.0</ele>
        <time>2022-05-14T10:24:16.526Z</time>
      </trkpt>
      <trkpt lat="39.58153167" lon="2.65554667">
        <ele>119.0</ele>
        <time>2022-05-14T10:24:17.526Z</time>
      </trkpt>
      <trkpt lat="39.58154333" lon="2.65551167">
        <ele>119.0</ele>
        <time>2022-05-14T10:24:18.525Z</time>
      </trkpt>
      <trkpt lat="39.58155833" lon="2.655475">
        <ele>118.0</ele>
        <time>2022-05-14T10:24:19.526Z</time>
      </trkpt>
      <trkpt lat="39.58156833" lon="2.65543333">
        <ele>117.0</ele>
        <time>2022-05-14T10:24:20.525Z</time>
      </trkpt>
      <trkpt lat="39.58157667" lon="2.65538833">
        <ele>117.0</ele>
        <time>2022-05-14T10:24:21.526Z</time>
      </trkpt>
      <trkpt lat="39.58158333" lon="2.65534167">
        <ele>116.0</ele>
        <time>2022-05-14T10:24:22.526Z</time>
      </trkpt>
      <trkpt lat="39.58159167" lon="2.65529">
        <ele>114.0</ele>
        <time>2022-05-14T10:24:23.526Z</time>
      </trkpt>
      <trkpt lat="39.581605" lon="2.65523833">
        <ele>113.0</ele>
        <time>2022-05-14T10:24:24.526Z</time>
      </trkpt>
      <trkpt lat="39.58161167" lon="2.655185">
        <ele>112.0</ele>
        <time>2022-05-14T10:24:25.526Z</time>
      </trkpt>
      <trkpt lat="39.58161333" lon="2.65513">
        <ele>110.0</ele>
        <time>2022-05-14T10:24:26.526Z</time>
      </trkpt>
      <trkpt lat="39.58161" lon="2.65507167">
        <ele>109.0</ele>
        <time>2022-05-14T10:24:27.525Z</time>
      </trkpt>
      <trkpt lat="39.58160167" lon="2.655">
        <ele>108.0</ele>
        <time>2022-05-14T10:24:28.526Z</time>
      </trkpt>
      <trkpt lat="39.58159167" lon="2.65491167">
        <ele>106.0</ele>
        <time>2022-05-14T10:24:29.526Z</time>
      </trkpt>
      <trkpt lat="39.58159" lon="2.65481833">
        <ele>105.0</ele>
        <time>2022-05-14T10:24:30.526Z</time>
      </trkpt>
      <trkpt lat="39.5816" lon="2.65476167">
        <ele>104.0</ele>
        <time>2022-05-14T10:24:31.525Z</time>
      </trkpt>
      <trkpt lat="39.58162" lon="2.65470667">
        <ele>103.0</ele>
        <time>2022-05-14T10:24:32.526Z</time>
      </trkpt>
      <trkpt lat="39.58163333" lon="2.65465">
        <ele>102.0</ele>
        <time>2022-05-14T10:24:33.526Z</time>
      </trkpt>
      <trkpt lat="39.58164333" lon="2.65459333">
        <ele>101.0</ele>
        <time>2022-05-14T10:24:34.526Z</time>
      </trkpt>
      <trkpt lat="39.58165333" lon="2.65453667">
        <ele>100.0</ele>
        <time>2022-05-14T10:24:35.526Z</time>
      </trkpt>
      <trkpt lat="39.58167" lon="2.65448167">
        <ele>99.0</ele>
        <time>2022-05-14T10:24:36.526Z</time>
      </trkpt>
      <trkpt lat="39.58168833" lon="2.65442667">
        <ele>98.0</ele>
        <time>2022-05-14T10:24:37.526Z</time>
      </trkpt>
      <trkpt lat="39.58170667" lon="2.65437333">
        <ele>97.0</ele>
        <time>2022-05-14T10:24:38.526Z</time>
      </trkpt>
      <trkpt lat="39.58172167" lon="2.65431833">
        <ele>97.0</ele>
        <time>2022-05-14T10:24:39.525Z</time>
      </trkpt>
      <trkpt lat="39.58172333" lon="2.65424">
        <ele>96.0</ele>
        <time>2022-05-14T10:24:40.526Z</time>
      </trkpt>
      <trkpt lat="39.58172333" lon="2.65416667">
        <ele>95.0</ele>
        <time>2022-05-14T10:24:41.526Z</time>
      </trkpt>
      <trkpt lat="39.58173333" lon="2.6541">
        <ele>94.0</ele>
        <time>2022-05-14T10:24:42.526Z</time>
      </trkpt>
      <trkpt lat="39.58174667" lon="2.654035">
        <ele>93.0</ele>
        <time>2022-05-14T10:24:43.526Z</time>
      </trkpt>
      <trkpt lat="39.58176667" lon="2.653975">
        <ele>92.0</ele>
        <time>2022-05-14T10:24:44.525Z</time>
      </trkpt>
      <trkpt lat="39.581785" lon="2.65391667">
        <ele>92.0</ele>
        <time>2022-05-14T10:24:45.525Z</time>
      </trkpt>
      <trkpt lat="39.58180667" lon="2.65386">
        <ele>91.0</ele>
        <time>2022-05-14T10:24:46.525Z</time>
      </trkpt>
      <trkpt lat="39.58182667" lon="2.65380833">
        <ele>90.0</ele>
        <time>2022-05-14T10:24:47.526Z</time>
      </trkpt>
      <trkpt lat="39.581835" lon="2.65376">
        <ele>90.0</ele>
        <time>2022-05-14T10:24:48.526Z</time>
      </trkpt>
      <trkpt lat="39.58184" lon="2.65371167">
        <ele>89.0</ele>
        <time>2022-05-14T10:24:49.526Z</time>
      </trkpt>
      <trkpt lat="39.58183833" lon="2.65365833">
        <ele>88.0</ele>
        <time>2022-05-14T10:24:50.526Z</time>
      </trkpt>
      <trkpt lat="39.58185" lon="2.65360667">
        <ele>88.0</ele>
        <time>2022-05-14T10:24:51.526Z</time>
      </trkpt>
      <trkpt lat="39.58186833" lon="2.65355667">
        <ele>87.0</ele>
        <time>2022-05-14T10:24:52.526Z</time>
      </trkpt>
      <trkpt lat="39.58189167" lon="2.6535">
        <ele>86.0</ele>
        <time>2022-05-14T10:24:53.525Z</time>
      </trkpt>
      <trkpt lat="39.5819" lon="2.653445">
        <ele>86.0</ele>
        <time>2022-05-14T10:24:54.525Z</time>
      </trkpt>
      <trkpt lat="39.58191167" lon="2.65339167">
        <ele>85.0</ele>
        <time>2022-05-14T10:24:55.526Z</time>
      </trkpt>
      <trkpt lat="39.58192667" lon="2.653335">
        <ele>85.0</ele>
        <time>2022-05-14T10:24:56.525Z</time>
      </trkpt>
      <trkpt lat="39.58194167" lon="2.65328167">
        <ele>84.0</ele>
        <time>2022-05-14T10:24:57.525Z</time>
      </trkpt>
      <trkpt lat="39.581955" lon="2.65323167">
        <ele>83.0</ele>
        <time>2022-05-14T10:24:58.525Z</time>
      </trkpt>
      <trkpt lat="39.581975" lon="2.65317667">
        <ele>83.0</ele>
        <time>2022-05-14T10:24:59.525Z</time>
      </trkpt>
      <trkpt lat="39.582" lon="2.653135">
        <ele>82.0</ele>
        <time>2022-05-14T10:25:00.525Z</time>
      </trkpt>
      <trkpt lat="39.58203167" lon="2.65310167">
        <ele>82.0</ele>
        <time>2022-05-14T10:25:01.525Z</time>
      </trkpt>
      <trkpt lat="39.58206667" lon="2.65305833">
        <ele>82.0</ele>
        <time>2022-05-14T10:25:02.525Z</time>
      </trkpt>
      <trkpt lat="39.582095" lon="2.65301667">
        <ele>81.0</ele>
        <time>2022-05-14T10:25:03.526Z</time>
      </trkpt>
      <trkpt lat="39.58212167" lon="2.652975">
        <ele>81.0</ele>
        <time>2022-05-14T10:25:04.525Z</time>
      </trkpt>
      <trkpt lat="39.582145" lon="2.65292833">
        <ele>80.0</ele>
        <time>2022-05-14T10:25:05.525Z</time>
      </trkpt>
      <trkpt lat="39.58216333" lon="2.65288333">
        <ele>80.0</ele>
        <time>2022-05-14T10:25:06.526Z</time>
      </trkpt>
      <trkpt lat="39.58216833" lon="2.65283833">
        <ele>79.0</ele>
        <time>2022-05-14T10:25:07.525Z</time>
      </trkpt>
      <trkpt lat="39.582165" lon="2.65279333">
        <ele>79.0</ele>
        <time>2022-05-14T10:25:08.525Z</time>
      </trkpt>
      <trkpt lat="39.58215833" lon="2.65275667">
        <ele>78.0</ele>
        <time>2022-05-14T10:25:09.526Z</time>
      </trkpt>
      <trkpt lat="39.58214333" lon="2.65273333">
        <ele>77.0</ele>
        <time>2022-05-14T10:25:10.526Z</time>
      </trkpt>
      <trkpt lat="39.58212" lon="2.65271667">
        <ele>77.0</ele>
        <time>2022-05-14T10:25:11.526Z</time>
      </trkpt>
      <trkpt lat="39.58209" lon="2.65270333">
        <ele>77.0</ele>
        <time>2022-05-14T10:25:12.526Z</time>
      </trkpt>
      <trkpt lat="39.58205167" lon="2.65269167">
        <ele>76.0</ele>
        <time>2022-05-14T10:25:13.526Z</time>
      </trkpt>
      <trkpt lat="39.582025" lon="2.65268833">
        <ele>76.0</ele>
        <time>2022-05-14T10:25:14.526Z</time>
      </trkpt>
      <trkpt lat="39.58199" lon="2.65268">
        <ele>76.0</ele>
        <time>2022-05-14T10:25:15.526Z</time>
      </trkpt>
      <trkpt lat="39.58195333" lon="2.65268">
        <ele>76.0</ele>
        <time>2022-05-14T10:25:16.526Z</time>
      </trkpt>
      <trkpt lat="39.58193167" lon="2.65268333">
        <ele>75.0</ele>
        <time>2022-05-14T10:25:17.526Z</time>
      </trkpt>
      <trkpt lat="39.5819" lon="2.65268667">
        <ele>75.0</ele>
        <time>2022-05-14T10:25:18.525Z</time>
      </trkpt>
      <trkpt lat="39.58187167" lon="2.65269333">
        <ele>75.0</ele>
        <time>2022-05-14T10:25:19.526Z</time>
      </trkpt>
      <trkpt lat="39.58184167" lon="2.65270333">
        <ele>75.0</ele>
        <time>2022-05-14T10:25:20.526Z</time>
      </trkpt>
      <trkpt lat="39.58181833" lon="2.65270833">
        <ele>75.0</ele>
        <time>2022-05-14T10:25:21.526Z</time>
      </trkpt>
      <trkpt lat="39.58179" lon="2.65271">
        <ele>75.0</ele>
        <time>2022-05-14T10:25:22.525Z</time>
      </trkpt>
      <trkpt lat="39.581765" lon="2.65270333">
        <ele>74.0</ele>
        <time>2022-05-14T10:25:23.525Z</time>
      </trkpt>
      <trkpt lat="39.58174" lon="2.65269333">
        <ele>74.0</ele>
        <time>2022-05-14T10:25:24.525Z</time>
      </trkpt>
      <trkpt lat="39.58171167" lon="2.652695">
        <ele>74.0</ele>
        <time>2022-05-14T10:25:25.525Z</time>
      </trkpt>
      <trkpt lat="39.58168667" lon="2.6527">
        <ele>74.0</ele>
        <time>2022-05-14T10:25:26.526Z</time>
      </trkpt>
      <trkpt lat="39.581665" lon="2.652705">
        <ele>73.0</ele>
        <time>2022-05-14T10:25:27.526Z</time>
      </trkpt>
      <trkpt lat="39.58164333" lon="2.65270167">
        <ele>73.0</ele>
        <time>2022-05-14T10:25:28.526Z</time>
      </trkpt>
      <trkpt lat="39.58162833" lon="2.652695">
        <ele>73.0</ele>
        <time>2022-05-14T10:25:29.525Z</time>
      </trkpt>
      <trkpt lat="39.58162333" lon="2.65269">
        <ele>72.0</ele>
        <time>2022-05-14T10:25:30.526Z</time>
      </trkpt>
      <trkpt lat="39.58162" lon="2.65268167">
        <ele>72.0</ele>
        <time>2022-05-14T10:25:31.526Z</time>
      </trkpt>
      <trkpt lat="39.58161833" lon="2.65267833">
        <ele>72.0</ele>
        <time>2022-05-14T10:25:32.525Z</time>
      </trkpt>
      <trkpt lat="39.58161333" lon="2.652675">
        <ele>72.0</ele>
        <time>2022-05-14T10:25:33.526Z</time>
      </trkpt>
      <trkpt lat="39.58161333" lon="2.65267333">
        <ele>72.0</ele>
        <time>2022-05-14T10:25:34.526Z</time>
      </trkpt>
      <trkpt lat="39.58161333" lon="2.65267">
        <ele>72.0</ele>
        <time>2022-05-14T10:25:35.526Z</time>
      </trkpt>
      <trkpt lat="39.58161167" lon="2.65266667">
        <ele>71.0</ele>
        <time>2022-05-14T10:25:36.525Z</time>
      </trkpt>
      <trkpt lat="39.58161167" lon="2.65266667">
        <ele>71.0</ele>
        <time>2022-05-14T10:25:37.526Z</time>
      </trkpt>
      <trkpt lat="39.58161333" lon="2.652665">
        <ele>71.0</ele>
        <time>2022-05-14T10:25:38.526Z</time>
      </trkpt>
      <trkpt lat="39.581625" lon="2.65266833">
        <ele>71.0</ele>
        <time>2022-05-14T10:25:39.526Z</time>
      </trkpt>
      <trkpt lat="39.58164167" lon="2.65267">
        <ele>71.0</ele>
        <time>2022-05-14T10:25:40.526Z</time>
      </trkpt>
      <trkpt lat="39.58164" lon="2.65267833">
        <ele>71.0</ele>
        <time>2022-05-14T10:25:41.525Z</time>
      </trkpt>
      <trkpt lat="39.58162667" lon="2.65268667">
        <ele>71.0</ele>
        <time>2022-05-14T10:25:42.526Z</time>
      </trkpt>
      <trkpt lat="39.58162333" lon="2.65268167">
        <ele>71.0</ele>
        <time>2022-05-14T10:25:43.526Z</time>
      </trkpt>
      <trkpt lat="39.58162333" lon="2.65268167">
        <ele>71.0</ele>
        <time>2022-05-14T10:25:44.525Z</time>
      </trkpt>
      <trkpt lat="39.58162333" lon="2.65268167">
        <ele>71.0</ele>
        <time>2022-05-14T10:25:45.526Z</time>
      </trkpt>
      <trkpt lat="39.58162333" lon="2.65268167">
        <ele>71.0</ele>
        <time>2022-05-14T10:25:46.526Z</time>
      </trkpt>
      <trkpt lat="39.58162333" lon="2.65268167">
        <ele>71.0</ele>
        <time>2022-05-14T10:25:47.526Z</time>
      </trkpt>
      <trkpt lat="39.58162333" lon="2.65268167">
        <ele>71.0</ele>
        <time>2022-05-14T10:25:48.526Z</time>
      </trkpt>
      <trkpt lat="39.58162333" lon="2.65268167">
        <ele>71.0</ele>
        <time>2022-05-14T10:25:49.525Z</time>
      </trkpt>
      <trkpt lat="39.58162333" lon="2.65268167">
        <ele>71.0</ele>
        <time>2022-05-14T10:25:50.526Z</time>
      </trkpt>
      <trkpt lat="39.58162333" lon="2.65268167">
        <ele>71.0</ele>
        <time>2022-05-14T10:25:51.526Z</time>
      </trkpt>
      <trkpt lat="39.58162333" lon="2.65268167">
        <ele>71.0</ele>
        <time>2022-05-14T10:25:52.525Z</time>
      </trkpt>
      <trkpt lat="39.58162333" lon="2.65268167">
        <ele>72.0</ele>
        <time>2022-05-14T10:25:53.525Z</time>
      </trkpt>
      <trkpt lat="39.58162333" lon="2.65268167">
        <ele>72.0</ele>
        <time>2022-05-14T10:25:54.525Z</time>
      </trkpt>
      <trkpt lat="39.58162333" lon="2.65267833">
        <ele>72.0</ele>
        <time>2022-05-14T10:25:55.525Z</time>
      </trkpt>
      <trkpt lat="39.58162333" lon="2.65267833">
        <ele>72.0</ele>
        <time>2022-05-14T10:25:56.526Z</time>
      </trkpt>
      <trkpt lat="39.58162333" lon="2.652675">
        <ele>72.0</ele>
        <time>2022-05-14T10:25:57.525Z</time>
      </trkpt>
      <trkpt lat="39.58162167" lon="2.65267167">
        <ele>72.0</ele>
        <time>2022-05-14T10:25:58.525Z</time>
      </trkpt>
      <trkpt lat="39.58162167" lon="2.65267">
        <ele>72.0</ele>
        <time>2022-05-14T10:25:59.526Z</time>
      </trkpt>
      <trkpt lat="39.58162" lon="2.65267">
        <ele>72.0</ele>
        <time>2022-05-14T10:26:00.526Z</time>
      </trkpt>
      <trkpt lat="39.581615" lon="2.65266833">
        <ele>72.0</ele>
        <time>2022-05-14T10:26:01.526Z</time>
      </trkpt>
      <trkpt lat="39.58161333" lon="2.65266667">
        <ele>72.0</ele>
        <time>2022-05-14T10:26:02.526Z</time>
      </trkpt>
      <trkpt lat="39.58161333" lon="2.65266667">
        <ele>72.0</ele>
        <time>2022-05-14T10:26:03.525Z</time>
      </trkpt>
      <trkpt lat="39.58161333" lon="2.65266667">
        <ele>72.0</ele>
        <time>2022-05-14T10:26:04.526Z</time>
      </trkpt>
      <trkpt lat="39.581615" lon="2.652665">
        <ele>72.0</ele>
        <time>2022-05-14T10:26:05.526Z</time>
      </trkpt>
      <trkpt lat="39.58161833" lon="2.652665">
        <ele>72.0</ele>
        <time>2022-05-14T10:26:06.525Z</time>
      </trkpt>
      <trkpt lat="39.58162" lon="2.652665">
        <ele>72.0</ele>
        <time>2022-05-14T10:26:07.525Z</time>
      </trkpt>
      <trkpt lat="39.58162" lon="2.65266333">
        <ele>72.0</ele>
        <time>2022-05-14T10:26:08.525Z</time>
      </trkpt>
      <trkpt lat="39.58162" lon="2.65266167">
        <ele>72.0</ele>
        <time>2022-05-14T10:26:09.525Z</time>
      </trkpt>
      <trkpt lat="39.58162" lon="2.65266167">
        <ele>72.0</ele>
        <time>2022-05-14T10:26:10.526Z</time>
      </trkpt>
      <trkpt lat="39.58162" lon="2.65266">
        <ele>72.0</ele>
        <time>2022-05-14T10:26:11.525Z</time>
      </trkpt>
      <trkpt lat="39.58162" lon="2.65265833">
        <ele>72.0</ele>
        <time>2022-05-14T10:26:12.526Z</time>
      </trkpt>
      <trkpt lat="39.58162" lon="2.65265833">
        <ele>72.0</ele>
        <time>2022-05-14T10:26:13.525Z</time>
      </trkpt>
      <trkpt lat="39.58162" lon="2.65265833">
        <ele>72.0</ele>
        <time>2022-05-14T10:26:14.526Z</time>
      </trkpt>
      <trkpt lat="39.58162" lon="2.652655">
        <ele>72.0</ele>
        <time>2022-05-14T10:26:15.526Z</time>
      </trkpt>
      <trkpt lat="39.58162" lon="2.652655">
        <ele>72.0</ele>
        <time>2022-05-14T10:26:16.526Z</time>
      </trkpt>
      <trkpt lat="39.58162" lon="2.65265333">
        <ele>72.0</ele>
        <time>2022-05-14T10:26:17.526Z</time>
      </trkpt>
      <trkpt lat="39.58162" lon="2.65265333">
        <ele>72.0</ele>
        <time>2022-05-14T10:26:18.525Z</time>
      </trkpt>
      <trkpt lat="39.58162" lon="2.65265167">
        <ele>72.0</ele>
        <time>2022-05-14T10:26:19.525Z</time>
      </trkpt>
      <trkpt lat="39.58162" lon="2.65265">
        <ele>72.0</ele>
        <time>2022-05-14T10:26:20.526Z</time>
      </trkpt>
      <trkpt lat="39.58162" lon="2.65264667">
        <ele>72.0</ele>
        <time>2022-05-14T10:26:21.525Z</time>
      </trkpt>
      <trkpt lat="39.58162" lon="2.65261667">
        <ele>72.0</ele>
        <time>2022-05-14T10:26:22.526Z</time>
      </trkpt>
      <trkpt lat="39.58162" lon="2.65258">
        <ele>72.0</ele>
        <time>2022-05-14T10:26:23.526Z</time>
      </trkpt>
      <trkpt lat="39.58161667" lon="2.65253167">
        <ele>72.0</ele>
        <time>2022-05-14T10:26:24.525Z</time>
      </trkpt>
      <trkpt lat="39.58161833" lon="2.65248">
        <ele>72.0</ele>
        <time>2022-05-14T10:26:25.525Z</time>
      </trkpt>
      <trkpt lat="39.58161833" lon="2.65242833">
        <ele>72.0</ele>
        <time>2022-05-14T10:26:26.525Z</time>
      </trkpt>
      <trkpt lat="39.58161833" lon="2.65237667">
        <ele>72.0</ele>
        <time>2022-05-14T10:26:27.525Z</time>
      </trkpt>
      <trkpt lat="39.58161167" lon="2.65232333">
        <ele>72.0</ele>
        <time>2022-05-14T10:26:28.526Z</time>
      </trkpt>
      <trkpt lat="39.5816" lon="2.65227">
        <ele>72.0</ele>
        <time>2022-05-14T10:26:29.526Z</time>
      </trkpt>
      <trkpt lat="39.581585" lon="2.65221833">
        <ele>72.0</ele>
        <time>2022-05-14T10:26:30.526Z</time>
      </trkpt>
      <trkpt lat="39.58156833" lon="2.65217">
        <ele>73.0</ele>
        <time>2022-05-14T10:26:31.525Z</time>
      </trkpt>
      <trkpt lat="39.58155" lon="2.65212667">
        <ele>73.0</ele>
        <time>2022-05-14T10:26:32.526Z</time>
      </trkpt>
      <trkpt lat="39.58153167" lon="2.65208">
        <ele>73.0</ele>
        <time>2022-05-14T10:26:33.525Z</time>
      </trkpt>
      <trkpt lat="39.581515" lon="2.65203">
        <ele>73.0</ele>
        <time>2022-05-14T10:26:34.526Z</time>
      </trkpt>
      <trkpt lat="39.5815" lon="2.651985">
        <ele>73.0</ele>
        <time>2022-05-14T10:26:35.525Z</time>
      </trkpt>
      <trkpt lat="39.58148667" lon="2.65194333">
        <ele>74.0</ele>
        <time>2022-05-14T10:26:36.525Z</time>
      </trkpt>
      <trkpt lat="39.58146667" lon="2.6519">
        <ele>74.0</ele>
        <time>2022-05-14T10:26:37.525Z</time>
      </trkpt>
      <trkpt lat="39.58144833" lon="2.65186167">
        <ele>74.0</ele>
        <time>2022-05-14T10:26:38.525Z</time>
      </trkpt>
      <trkpt lat="39.58142833" lon="2.65181667">
        <ele>75.0</ele>
        <time>2022-05-14T10:26:39.525Z</time>
      </trkpt>
      <trkpt lat="39.58141333" lon="2.65176333">
        <ele>75.0</ele>
        <time>2022-05-14T10:26:40.525Z</time>
      </trkpt>
      <trkpt lat="39.5814" lon="2.65170167">
        <ele>75.0</ele>
        <time>2022-05-14T10:26:41.526Z</time>
      </trkpt>
      <trkpt lat="39.58139" lon="2.651635">
        <ele>75.0</ele>
        <time>2022-05-14T10:26:42.525Z</time>
      </trkpt>
      <trkpt lat="39.58137667" lon="2.65157667">
        <ele>75.0</ele>
        <time>2022-05-14T10:26:43.526Z</time>
      </trkpt>
      <trkpt lat="39.58136667" lon="2.65152333">
        <ele>75.0</ele>
        <time>2022-05-14T10:26:44.526Z</time>
      </trkpt>
      <trkpt lat="39.58135667" lon="2.65146833">
        <ele>75.0</ele>
        <time>2022-05-14T10:26:45.526Z</time>
      </trkpt>
      <trkpt lat="39.58135" lon="2.6514">
        <ele>75.0</ele>
        <time>2022-05-14T10:26:46.526Z</time>
      </trkpt>
      <trkpt lat="39.58133833" lon="2.65133667">
        <ele>75.0</ele>
        <time>2022-05-14T10:26:47.525Z</time>
      </trkpt>
      <trkpt lat="39.58132167" lon="2.65127333">
        <ele>75.0</ele>
        <time>2022-05-14T10:26:48.526Z</time>
      </trkpt>
      <trkpt lat="39.58130833" lon="2.65122667">
        <ele>75.0</ele>
        <time>2022-05-14T10:26:49.525Z</time>
      </trkpt>
      <trkpt lat="39.58128833" lon="2.65118">
        <ele>74.0</ele>
        <time>2022-05-14T10:26:50.526Z</time>
      </trkpt>
      <trkpt lat="39.581265" lon="2.65112833">
        <ele>74.0</ele>
        <time>2022-05-14T10:26:51.525Z</time>
      </trkpt>
      <trkpt lat="39.58125167" lon="2.65106667">
        <ele>74.0</ele>
        <time>2022-05-14T10:26:52.526Z</time>
      </trkpt>
      <trkpt lat="39.58124" lon="2.65102333">
        <ele>74.0</ele>
        <time>2022-05-14T10:26:53.526Z</time>
      </trkpt>
      <trkpt lat="39.581225" lon="2.65098667">
        <ele>74.0</ele>
        <time>2022-05-14T10:26:54.526Z</time>
      </trkpt>
      <trkpt lat="39.58120667" lon="2.650945">
        <ele>73.0</ele>
        <time>2022-05-14T10:26:55.526Z</time>
      </trkpt>
      <trkpt lat="39.58119333" lon="2.650895">
        <ele>73.0</ele>
        <time>2022-05-14T10:26:56.525Z</time>
      </trkpt>
      <trkpt lat="39.58117833" lon="2.65084167">
        <ele>73.0</ele>
        <time>2022-05-14T10:26:57.526Z</time>
      </trkpt>
      <trkpt lat="39.58116333" lon="2.65079333">
        <ele>73.0</ele>
        <time>2022-05-14T10:26:58.525Z</time>
      </trkpt>
      <trkpt lat="39.58114833" lon="2.65074167">
        <ele>72.0</ele>
        <time>2022-05-14T10:26:59.526Z</time>
      </trkpt>
      <trkpt lat="39.58113333" lon="2.65069333">
        <ele>72.0</ele>
        <time>2022-05-14T10:27:00.525Z</time>
      </trkpt>
      <trkpt lat="39.58112167" lon="2.65063833">
        <ele>72.0</ele>
        <time>2022-05-14T10:27:01.526Z</time>
      </trkpt>
      <trkpt lat="39.58111" lon="2.65058">
        <ele>72.0</ele>
        <time>2022-05-14T10:27:02.525Z</time>
      </trkpt>
      <trkpt lat="39.58109667" lon="2.65051833">
        <ele>71.0</ele>
        <time>2022-05-14T10:27:03.526Z</time>
      </trkpt>
      <trkpt lat="39.58108" lon="2.65045333">
        <ele>71.0</ele>
        <time>2022-05-14T10:27:04.525Z</time>
      </trkpt>
      <trkpt lat="39.581065" lon="2.65039167">
        <ele>71.0</ele>
        <time>2022-05-14T10:27:05.525Z</time>
      </trkpt>
      <trkpt lat="39.58105167" lon="2.65033833">
        <ele>70.0</ele>
        <time>2022-05-14T10:27:06.526Z</time>
      </trkpt>
      <trkpt lat="39.58104333" lon="2.65029167">
        <ele>70.0</ele>
        <time>2022-05-14T10:27:07.525Z</time>
      </trkpt>
      <trkpt lat="39.581035" lon="2.65025167">
        <ele>69.0</ele>
        <time>2022-05-14T10:27:08.525Z</time>
      </trkpt>
      <trkpt lat="39.581025" lon="2.650205">
        <ele>69.0</ele>
        <time>2022-05-14T10:27:09.525Z</time>
      </trkpt>
      <trkpt lat="39.58100833" lon="2.65015167">
        <ele>69.0</ele>
        <time>2022-05-14T10:27:10.526Z</time>
      </trkpt>
      <trkpt lat="39.58098833" lon="2.65008333">
        <ele>68.0</ele>
        <time>2022-05-14T10:27:11.526Z</time>
      </trkpt>
      <trkpt lat="39.58098333" lon="2.65001667">
        <ele>68.0</ele>
        <time>2022-05-14T10:27:12.525Z</time>
      </trkpt>
      <trkpt lat="39.58096667" lon="2.64995833">
        <ele>68.0</ele>
        <time>2022-05-14T10:27:13.526Z</time>
      </trkpt>
      <trkpt lat="39.58095667" lon="2.64990667">
        <ele>67.0</ele>
        <time>2022-05-14T10:27:14.526Z</time>
      </trkpt>
      <trkpt lat="39.58094667" lon="2.64985333">
        <ele>67.0</ele>
        <time>2022-05-14T10:27:15.526Z</time>
      </trkpt>
      <trkpt lat="39.58093167" lon="2.64979333">
        <ele>67.0</ele>
        <time>2022-05-14T10:27:16.525Z</time>
      </trkpt>
      <trkpt lat="39.580925" lon="2.64972333">
        <ele>66.0</ele>
        <time>2022-05-14T10:27:17.526Z</time>
      </trkpt>
      <trkpt lat="39.58091167" lon="2.649665">
        <ele>66.0</ele>
        <time>2022-05-14T10:27:18.526Z</time>
      </trkpt>
      <trkpt lat="39.5809" lon="2.64961167">
        <ele>65.0</ele>
        <time>2022-05-14T10:27:19.525Z</time>
      </trkpt>
      <trkpt lat="39.58088833" lon="2.649555">
        <ele>65.0</ele>
        <time>2022-05-14T10:27:20.526Z</time>
      </trkpt>
      <trkpt lat="39.58087833" lon="2.6495">
        <ele>65.0</ele>
        <time>2022-05-14T10:27:21.525Z</time>
      </trkpt>
      <trkpt lat="39.58086833" lon="2.64945">
        <ele>64.0</ele>
        <time>2022-05-14T10:27:22.526Z</time>
      </trkpt>
      <trkpt lat="39.58086" lon="2.64940167">
        <ele>64.0</ele>
        <time>2022-05-14T10:27:23.526Z</time>
      </trkpt>
      <trkpt lat="39.58084833" lon="2.649355">
        <ele>63.0</ele>
        <time>2022-05-14T10:27:24.525Z</time>
      </trkpt>
      <trkpt lat="39.58084333" lon="2.64930833">
        <ele>63.0</ele>
        <time>2022-05-14T10:27:25.525Z</time>
      </trkpt>
      <trkpt lat="39.58083833" lon="2.64927">
        <ele>62.0</ele>
        <time>2022-05-14T10:27:26.526Z</time>
      </trkpt>
      <trkpt lat="39.58083" lon="2.64923">
        <ele>62.0</ele>
        <time>2022-05-14T10:27:27.526Z</time>
      </trkpt>
      <trkpt lat="39.58082167" lon="2.64919333">
        <ele>61.0</ele>
        <time>2022-05-14T10:27:28.526Z</time>
      </trkpt>
      <trkpt lat="39.58081" lon="2.64915333">
        <ele>61.0</ele>
        <time>2022-05-14T10:27:29.525Z</time>
      </trkpt>
      <trkpt lat="39.58079833" lon="2.64911167">
        <ele>60.0</ele>
        <time>2022-05-14T10:27:30.525Z</time>
      </trkpt>
      <trkpt lat="39.580785" lon="2.649075">
        <ele>60.0</ele>
        <time>2022-05-14T10:27:31.526Z</time>
      </trkpt>
      <trkpt lat="39.58077" lon="2.64904">
        <ele>60.0</ele>
        <time>2022-05-14T10:27:32.525Z</time>
      </trkpt>
      <trkpt lat="39.58075833" lon="2.649">
        <ele>59.0</ele>
        <time>2022-05-14T10:27:33.525Z</time>
      </trkpt>
      <trkpt lat="39.580745" lon="2.64896">
        <ele>59.0</ele>
        <time>2022-05-14T10:27:34.525Z</time>
      </trkpt>
      <trkpt lat="39.58073333" lon="2.648915">
        <ele>59.0</ele>
        <time>2022-05-14T10:27:35.525Z</time>
      </trkpt>
      <trkpt lat="39.580725" lon="2.64886833">
        <ele>58.0</ele>
        <time>2022-05-14T10:27:36.526Z</time>
      </trkpt>
      <trkpt lat="39.580715" lon="2.64882">
        <ele>58.0</ele>
        <time>2022-05-14T10:27:37.525Z</time>
      </trkpt>
      <trkpt lat="39.58070333" lon="2.64877167">
        <ele>58.0</ele>
        <time>2022-05-14T10:27:38.525Z</time>
      </trkpt>
      <trkpt lat="39.58068167" lon="2.64872667">
        <ele>58.0</ele>
        <time>2022-05-14T10:27:39.526Z</time>
      </trkpt>
      <trkpt lat="39.58065667" lon="2.648675">
        <ele>57.0</ele>
        <time>2022-05-14T10:27:40.525Z</time>
      </trkpt>
      <trkpt lat="39.58063833" lon="2.64862667">
        <ele>57.0</ele>
        <time>2022-05-14T10:27:41.525Z</time>
      </trkpt>
      <trkpt lat="39.58062667" lon="2.64858667">
        <ele>57.0</ele>
        <time>2022-05-14T10:27:42.526Z</time>
      </trkpt>
      <trkpt lat="39.58061" lon="2.64854167">
        <ele>57.0</ele>
        <time>2022-05-14T10:27:43.526Z</time>
      </trkpt>
      <trkpt lat="39.5806" lon="2.64849">
        <ele>57.0</ele>
        <time>2022-05-14T10:27:44.526Z</time>
      </trkpt>
      <trkpt lat="39.58057667" lon="2.64845833">
        <ele>57.0</ele>
        <time>2022-05-14T10:27:45.526Z</time>
      </trkpt>
      <trkpt lat="39.580565" lon="2.64841167">
        <ele>57.0</ele>
        <time>2022-05-14T10:27:46.525Z</time>
      </trkpt>
      <trkpt lat="39.58055833" lon="2.64836333">
        <ele>57.0</ele>
        <time>2022-05-14T10:27:47.526Z</time>
      </trkpt>
      <trkpt lat="39.58054167" lon="2.648325">
        <ele>57.0</ele>
        <time>2022-05-14T10:27:48.525Z</time>
      </trkpt>
      <trkpt lat="39.580535" lon="2.64827333">
        <ele>57.0</ele>
        <time>2022-05-14T10:27:49.526Z</time>
      </trkpt>
      <trkpt lat="39.580525" lon="2.64823">
        <ele>58.0</ele>
        <time>2022-05-14T10:27:50.525Z</time>
      </trkpt>
      <trkpt lat="39.58051667" lon="2.64819333">
        <ele>58.0</ele>
        <time>2022-05-14T10:27:51.526Z</time>
      </trkpt>
      <trkpt lat="39.58050667" lon="2.64815667">
        <ele>58.0</ele>
        <time>2022-05-14T10:27:52.525Z</time>
      </trkpt>
      <trkpt lat="39.5805" lon="2.648125">
        <ele>58.0</ele>
        <time>2022-05-14T10:27:53.526Z</time>
      </trkpt>
      <trkpt lat="39.58049333" lon="2.64809667">
        <ele>58.0</ele>
        <time>2022-05-14T10:27:54.525Z</time>
      </trkpt>
      <trkpt lat="39.580485" lon="2.64807">
        <ele>58.0</ele>
        <time>2022-05-14T10:27:55.525Z</time>
      </trkpt>
      <trkpt lat="39.58047667" lon="2.64804">
        <ele>58.0</ele>
        <time>2022-05-14T10:27:56.525Z</time>
      </trkpt>
      <trkpt lat="39.58046833" lon="2.64800667">
        <ele>58.0</ele>
        <time>2022-05-14T10:27:57.525Z</time>
      </trkpt>
      <trkpt lat="39.58046167" lon="2.64796833">
        <ele>58.0</ele>
        <time>2022-05-14T10:27:58.525Z</time>
      </trkpt>
      <trkpt lat="39.58045667" lon="2.64792833">
        <ele>58.0</ele>
        <time>2022-05-14T10:27:59.525Z</time>
      </trkpt>
      <trkpt lat="39.58045" lon="2.64788667">
        <ele>58.0</ele>
        <time>2022-05-14T10:28:00.525Z</time>
      </trkpt>
      <trkpt lat="39.58044333" lon="2.64784833">
        <ele>58.0</ele>
        <time>2022-05-14T10:28:01.526Z</time>
      </trkpt>
      <trkpt lat="39.580435" lon="2.64780833">
        <ele>57.0</ele>
        <time>2022-05-14T10:28:02.525Z</time>
      </trkpt>
      <trkpt lat="39.580425" lon="2.64777">
        <ele>57.0</ele>
        <time>2022-05-14T10:28:03.526Z</time>
      </trkpt>
      <trkpt lat="39.580415" lon="2.64773333">
        <ele>57.0</ele>
        <time>2022-05-14T10:28:04.526Z</time>
      </trkpt>
      <trkpt lat="39.58040333" lon="2.647705">
        <ele>57.0</ele>
        <time>2022-05-14T10:28:05.525Z</time>
      </trkpt>
      <trkpt lat="39.58038833" lon="2.64768667">
        <ele>57.0</ele>
        <time>2022-05-14T10:28:06.525Z</time>
      </trkpt>
      <trkpt lat="39.58037333" lon="2.64767333">
        <ele>56.0</ele>
        <time>2022-05-14T10:28:07.526Z</time>
      </trkpt>
      <trkpt lat="39.58035167" lon="2.64766333">
        <ele>56.0</ele>
        <time>2022-05-14T10:28:08.526Z</time>
      </trkpt>
      <trkpt lat="39.580345" lon="2.64765667">
        <ele>56.0</ele>
        <time>2022-05-14T10:28:09.526Z</time>
      </trkpt>
      <trkpt lat="39.58034167" lon="2.647655">
        <ele>55.0</ele>
        <time>2022-05-14T10:28:10.525Z</time>
      </trkpt>
      <trkpt lat="39.58035333" lon="2.64766333">
        <ele>55.0</ele>
        <time>2022-05-14T10:28:11.525Z</time>
      </trkpt>
      <trkpt lat="39.58036" lon="2.647665">
        <ele>55.0</ele>
        <time>2022-05-14T10:28:12.525Z</time>
      </trkpt>
      <trkpt lat="39.58035167" lon="2.64765833">
        <ele>55.0</ele>
        <time>2022-05-14T10:28:13.526Z</time>
      </trkpt>
      <trkpt lat="39.580345" lon="2.64765833">
        <ele>55.0</ele>
        <time>2022-05-14T10:28:14.526Z</time>
      </trkpt>
      <trkpt lat="39.58033333" lon="2.64765167">
        <ele>54.0</ele>
        <time>2022-05-14T10:28:15.526Z</time>
      </trkpt>
      <trkpt lat="39.580325" lon="2.647645">
        <ele>54.0</ele>
        <time>2022-05-14T10:28:16.526Z</time>
      </trkpt>
      <trkpt lat="39.58031667" lon="2.64763333">
        <ele>54.0</ele>
        <time>2022-05-14T10:28:17.526Z</time>
      </trkpt>
      <trkpt lat="39.58030333" lon="2.64761833">
        <ele>54.0</ele>
        <time>2022-05-14T10:28:18.526Z</time>
      </trkpt>
      <trkpt lat="39.58029167" lon="2.64759833">
        <ele>54.0</ele>
        <time>2022-05-14T10:28:19.525Z</time>
      </trkpt>
      <trkpt lat="39.580285" lon="2.64757833">
        <ele>54.0</ele>
        <time>2022-05-14T10:28:20.526Z</time>
      </trkpt>
      <trkpt lat="39.58028" lon="2.64756">
        <ele>53.0</ele>
        <time>2022-05-14T10:28:21.526Z</time>
      </trkpt>
      <trkpt lat="39.58027833" lon="2.64754833">
        <ele>53.0</ele>
        <time>2022-05-14T10:28:22.525Z</time>
      </trkpt>
      <trkpt lat="39.58028167" lon="2.64754333">
        <ele>53.0</ele>
        <time>2022-05-14T10:28:23.525Z</time>
      </trkpt>
      <trkpt lat="39.58028333" lon="2.64754">
        <ele>53.0</ele>
        <time>2022-05-14T10:28:24.526Z</time>
      </trkpt>
      <trkpt lat="39.58028167" lon="2.647535">
        <ele>53.0</ele>
        <time>2022-05-14T10:28:25.525Z</time>
      </trkpt>
      <trkpt lat="39.58027667" lon="2.64752833">
        <ele>53.0</ele>
        <time>2022-05-14T10:28:26.526Z</time>
      </trkpt>
      <trkpt lat="39.58027" lon="2.64752">
        <ele>53.0</ele>
        <time>2022-05-14T10:28:27.525Z</time>
      </trkpt>
      <trkpt lat="39.580265" lon="2.64751833">
        <ele>53.0</ele>
        <time>2022-05-14T10:28:28.525Z</time>
      </trkpt>
      <trkpt lat="39.58026833" lon="2.64752333">
        <ele>53.0</ele>
        <time>2022-05-14T10:28:29.526Z</time>
      </trkpt>
      <trkpt lat="39.58027" lon="2.64752333">
        <ele>53.0</ele>
        <time>2022-05-14T10:28:30.526Z</time>
      </trkpt>
      <trkpt lat="39.58027" lon="2.64751833">
        <ele>53.0</ele>
        <time>2022-05-14T10:28:31.525Z</time>
      </trkpt>
      <trkpt lat="39.58026333" lon="2.64750333">
        <ele>53.0</ele>
        <time>2022-05-14T10:28:32.525Z</time>
      </trkpt>
      <trkpt lat="39.58028333" lon="2.64752333">
        <ele>53.0</ele>
        <time>2022-05-14T10:28:33.526Z</time>
      </trkpt>
      <trkpt lat="39.58026833" lon="2.64749167">
        <ele>53.0</ele>
        <time>2022-05-14T10:28:34.526Z</time>
      </trkpt>
      <trkpt lat="39.580255" lon="2.64746">
        <ele>53.0</ele>
        <time>2022-05-14T10:28:35.526Z</time>
      </trkpt>
      <trkpt lat="39.580255" lon="2.64746">
        <ele>53.0</ele>
        <time>2022-05-14T10:28:36.525Z</time>
      </trkpt>
      <trkpt lat="39.580255" lon="2.64746167">
        <ele>54.0</ele>
        <time>2022-05-14T10:28:37.526Z</time>
      </trkpt>
      <trkpt lat="39.58026167" lon="2.64746833">
        <ele>55.0</ele>
        <time>2022-05-14T10:28:38.525Z</time>
      </trkpt>
      <trkpt lat="39.58026333" lon="2.64747167">
        <ele>55.0</ele>
        <time>2022-05-14T10:28:39.525Z</time>
      </trkpt>
      <trkpt lat="39.580265" lon="2.64747333">
        <ele>56.0</ele>
        <time>2022-05-14T10:28:40.526Z</time>
      </trkpt>
      <trkpt lat="39.580265" lon="2.64746667">
        <ele>56.0</ele>
        <time>2022-05-14T10:28:41.526Z</time>
      </trkpt>
      <trkpt lat="39.58026333" lon="2.64745333">
        <ele>57.0</ele>
        <time>2022-05-14T10:28:42.526Z</time>
      </trkpt>
      <trkpt lat="39.58026167" lon="2.64743667">
        <ele>57.0</ele>
        <time>2022-05-14T10:28:43.525Z</time>
      </trkpt>
      <trkpt lat="39.58025333" lon="2.64742167">
        <ele>58.0</ele>
        <time>2022-05-14T10:28:44.526Z</time>
      </trkpt>
      <trkpt lat="39.58024333" lon="2.64741">
        <ele>58.0</ele>
        <time>2022-05-14T10:28:45.525Z</time>
      </trkpt>
      <trkpt lat="39.58022667" lon="2.64739833">
        <ele>58.0</ele>
        <time>2022-05-14T10:28:46.526Z</time>
      </trkpt>
      <trkpt lat="39.58021" lon="2.64737833">
        <ele>58.0</ele>
        <time>2022-05-14T10:28:47.525Z</time>
      </trkpt>
      <trkpt lat="39.58020333" lon="2.64735">
        <ele>58.0</ele>
        <time>2022-05-14T10:28:48.526Z</time>
      </trkpt>
      <trkpt lat="39.58020667" lon="2.64731833">
        <ele>58.0</ele>
        <time>2022-05-14T10:28:49.526Z</time>
      </trkpt>
      <trkpt lat="39.58021667" lon="2.64728">
        <ele>58.0</ele>
        <time>2022-05-14T10:28:50.526Z</time>
      </trkpt>
      <trkpt lat="39.58024167" lon="2.647235">
        <ele>58.0</ele>
        <time>2022-05-14T10:28:51.526Z</time>
      </trkpt>
      <trkpt lat="39.58027" lon="2.64717167">
        <ele>58.0</ele>
        <time>2022-05-14T10:28:52.525Z</time>
      </trkpt>
      <trkpt lat="39.58030333" lon="2.64709833">
        <ele>58.0</ele>
        <time>2022-05-14T10:28:53.526Z</time>
      </trkpt>
      <trkpt lat="39.58033833" lon="2.64702">
        <ele>58.0</ele>
        <time>2022-05-14T10:28:54.526Z</time>
      </trkpt>
      <trkpt lat="39.58037833" lon="2.646945">
        <ele>57.0</ele>
        <time>2022-05-14T10:28:55.526Z</time>
      </trkpt>
      <trkpt lat="39.58041333" lon="2.64687">
        <ele>57.0</ele>
        <time>2022-05-14T10:28:56.525Z</time>
      </trkpt>
      <trkpt lat="39.58045167" lon="2.646795">
        <ele>56.0</ele>
        <time>2022-05-14T10:28:57.525Z</time>
      </trkpt>
      <trkpt lat="39.58048667" lon="2.64672">
        <ele>56.0</ele>
        <time>2022-05-14T10:28:58.525Z</time>
      </trkpt>
      <trkpt lat="39.58051833" lon="2.64664833">
        <ele>55.0</ele>
        <time>2022-05-14T10:28:59.526Z</time>
      </trkpt>
      <trkpt lat="39.580545" lon="2.646585">
        <ele>55.0</ele>
        <time>2022-05-14T10:29:00.525Z</time>
      </trkpt>
      <trkpt lat="39.58057333" lon="2.64652333">
        <ele>54.0</ele>
        <time>2022-05-14T10:29:01.526Z</time>
      </trkpt>
      <trkpt lat="39.58060333" lon="2.64646167">
        <ele>54.0</ele>
        <time>2022-05-14T10:29:02.525Z</time>
      </trkpt>
      <trkpt lat="39.58063167" lon="2.64639833">
        <ele>53.0</ele>
        <time>2022-05-14T10:29:03.525Z</time>
      </trkpt>
      <trkpt lat="39.58066167" lon="2.64633333">
        <ele>53.0</ele>
        <time>2022-05-14T10:29:04.525Z</time>
      </trkpt>
      <trkpt lat="39.58069167" lon="2.64626667">
        <ele>52.0</ele>
        <time>2022-05-14T10:29:05.525Z</time>
      </trkpt>
      <trkpt lat="39.58072167" lon="2.646195">
        <ele>52.0</ele>
        <time>2022-05-14T10:29:06.525Z</time>
      </trkpt>
      <trkpt lat="39.58075167" lon="2.64612">
        <ele>51.0</ele>
        <time>2022-05-14T10:29:07.526Z</time>
      </trkpt>
      <trkpt lat="39.58078167" lon="2.64604333">
        <ele>51.0</ele>
        <time>2022-05-14T10:29:08.526Z</time>
      </trkpt>
      <trkpt lat="39.58081167" lon="2.64596667">
        <ele>50.0</ele>
        <time>2022-05-14T10:29:09.525Z</time>
      </trkpt>
      <trkpt lat="39.58084" lon="2.64589167">
        <ele>49.0</ele>
        <time>2022-05-14T10:29:10.526Z</time>
      </trkpt>
      <trkpt lat="39.58087333" lon="2.64582167">
        <ele>49.0</ele>
        <time>2022-05-14T10:29:11.526Z</time>
      </trkpt>
      <trkpt lat="39.58090833" lon="2.64575167">
        <ele>48.0</ele>
        <time>2022-05-14T10:29:12.526Z</time>
      </trkpt>
      <trkpt lat="39.58094333" lon="2.645685">
        <ele>48.0</ele>
        <time>2022-05-14T10:29:13.525Z</time>
      </trkpt>
      <trkpt lat="39.58098333" lon="2.645625">
        <ele>48.0</ele>
        <time>2022-05-14T10:29:14.525Z</time>
      </trkpt>
      <trkpt lat="39.58102167" lon="2.645565">
        <ele>47.0</ele>
        <time>2022-05-14T10:29:15.525Z</time>
      </trkpt>
      <trkpt lat="39.58105833" lon="2.64550667">
        <ele>47.0</ele>
        <time>2022-05-14T10:29:16.526Z</time>
      </trkpt>
      <trkpt lat="39.58109833" lon="2.64545333">
        <ele>47.0</ele>
        <time>2022-05-14T10:29:17.526Z</time>
      </trkpt>
      <trkpt lat="39.581135" lon="2.64540167">
        <ele>46.0</ele>
        <time>2022-05-14T10:29:18.525Z</time>
      </trkpt>
      <trkpt lat="39.58117333" lon="2.64535333">
        <ele>46.0</ele>
        <time>2022-05-14T10:29:19.525Z</time>
      </trkpt>
      <trkpt lat="39.58121167" lon="2.64531333">
        <ele>46.0</ele>
        <time>2022-05-14T10:29:20.526Z</time>
      </trkpt>
      <trkpt lat="39.58124833" lon="2.64526833">
        <ele>46.0</ele>
        <time>2022-05-14T10:29:21.526Z</time>
      </trkpt>
      <trkpt lat="39.58128333" lon="2.64522167">
        <ele>46.0</ele>
        <time>2022-05-14T10:29:22.526Z</time>
      </trkpt>
      <trkpt lat="39.581325" lon="2.645175">
        <ele>45.0</ele>
        <time>2022-05-14T10:29:23.525Z</time>
      </trkpt>
      <trkpt lat="39.58135833" lon="2.645135">
        <ele>45.0</ele>
        <time>2022-05-14T10:29:24.525Z</time>
      </trkpt>
      <trkpt lat="39.58139167" lon="2.6451">
        <ele>45.0</ele>
        <time>2022-05-14T10:29:25.526Z</time>
      </trkpt>
      <trkpt lat="39.58142333" lon="2.64507167">
        <ele>45.0</ele>
        <time>2022-05-14T10:29:26.525Z</time>
      </trkpt>
      <trkpt lat="39.58145667" lon="2.645045">
        <ele>45.0</ele>
        <time>2022-05-14T10:29:27.526Z</time>
      </trkpt>
      <trkpt lat="39.58147667" lon="2.64501667">
        <ele>45.0</ele>
        <time>2022-05-14T10:29:28.525Z</time>
      </trkpt>
      <trkpt lat="39.58148667" lon="2.64498667">
        <ele>45.0</ele>
        <time>2022-05-14T10:29:29.526Z</time>
      </trkpt>
      <trkpt lat="39.58148" lon="2.64496167">
        <ele>45.0</ele>
        <time>2022-05-14T10:29:30.525Z</time>
      </trkpt>
      <trkpt lat="39.58147333" lon="2.64495833">
        <ele>45.0</ele>
        <time>2022-05-14T10:29:31.526Z</time>
      </trkpt>
      <trkpt lat="39.581475" lon="2.64495167">
        <ele>45.0</ele>
        <time>2022-05-14T10:29:32.525Z</time>
      </trkpt>
      <trkpt lat="39.58147333" lon="2.64495">
        <ele>45.0</ele>
        <time>2022-05-14T10:29:33.525Z</time>
      </trkpt>
      <trkpt lat="39.58147167" lon="2.64494833">
        <ele>45.0</ele>
        <time>2022-05-14T10:29:34.526Z</time>
      </trkpt>
      <trkpt lat="39.58147167" lon="2.64495167">
        <ele>45.0</ele>
        <time>2022-05-14T10:29:35.526Z</time>
      </trkpt>
      <trkpt lat="39.58147167" lon="2.64495167">
        <ele>45.0</ele>
        <time>2022-05-14T10:29:36.525Z</time>
      </trkpt>
      <trkpt lat="39.58147" lon="2.64495167">
        <ele>45.0</ele>
        <time>2022-05-14T10:29:37.526Z</time>
      </trkpt>
      <trkpt lat="39.58147" lon="2.644955">
        <ele>45.0</ele>
        <time>2022-05-14T10:29:38.526Z</time>
      </trkpt>
      <trkpt lat="39.58147" lon="2.64495667">
        <ele>45.0</ele>
        <time>2022-05-14T10:29:39.526Z</time>
      </trkpt>
      <trkpt lat="39.58147" lon="2.64495833">
        <ele>45.0</ele>
        <time>2022-05-14T10:29:40.526Z</time>
      </trkpt>
      <trkpt lat="39.58147167" lon="2.64496167">
        <ele>46.0</ele>
        <time>2022-05-14T10:29:41.526Z</time>
      </trkpt>
      <trkpt lat="39.58147167" lon="2.64496833">
        <ele>46.0</ele>
        <time>2022-05-14T10:29:42.526Z</time>
      </trkpt>
      <trkpt lat="39.58146833" lon="2.644975">
        <ele>46.0</ele>
        <time>2022-05-14T10:29:43.526Z</time>
      </trkpt>
      <trkpt lat="39.58146833" lon="2.644975">
        <ele>46.0</ele>
        <time>2022-05-14T10:29:44.526Z</time>
      </trkpt>
      <trkpt lat="39.58146833" lon="2.644975">
        <ele>46.0</ele>
        <time>2022-05-14T10:29:45.525Z</time>
      </trkpt>
      <trkpt lat="39.58146833" lon="2.644975">
        <ele>46.0</ele>
        <time>2022-05-14T10:29:46.526Z</time>
      </trkpt>
      <trkpt lat="39.58146833" lon="2.644975">
        <ele>46.0</ele>
        <time>2022-05-14T10:29:47.525Z</time>
      </trkpt>
      <trkpt lat="39.58146833" lon="2.644975">
        <ele>46.0</ele>
        <time>2022-05-14T10:29:48.526Z</time>
      </trkpt>
      <trkpt lat="39.58146833" lon="2.644975">
        <ele>46.0</ele>
        <time>2022-05-14T10:29:49.526Z</time>
      </trkpt>
      <trkpt lat="39.58146833" lon="2.644975">
        <ele>46.0</ele>
        <time>2022-05-14T10:29:50.525Z</time>
      </trkpt>
      <trkpt lat="39.58146833" lon="2.644975">
        <ele>46.0</ele>
        <time>2022-05-14T10:29:51.525Z</time>
      </trkpt>
      <trkpt lat="39.58146833" lon="2.644975">
        <ele>46.0</ele>
        <time>2022-05-14T10:29:52.526Z</time>
      </trkpt>
      <trkpt lat="39.58146833" lon="2.644975">
        <ele>46.0</ele>
        <time>2022-05-14T10:29:53.525Z</time>
      </trkpt>
      <trkpt lat="39.58146833" lon="2.644975">
        <ele>46.0</ele>
        <time>2022-05-14T10:29:54.526Z</time>
      </trkpt>
      <trkpt lat="39.58146833" lon="2.644975">
        <ele>46.0</ele>
        <time>2022-05-14T10:29:55.525Z</time>
      </trkpt>
      <trkpt lat="39.581465" lon="2.64497">
        <ele>45.0</ele>
        <time>2022-05-14T10:29:56.525Z</time>
      </trkpt>
      <trkpt lat="39.58144667" lon="2.644945">
        <ele>45.0</ele>
        <time>2022-05-14T10:29:57.525Z</time>
      </trkpt>
      <trkpt lat="39.58143" lon="2.644915">
        <ele>45.0</ele>
        <time>2022-05-14T10:29:58.525Z</time>
      </trkpt>
      <trkpt lat="39.58142" lon="2.64487833">
        <ele>45.0</ele>
        <time>2022-05-14T10:29:59.526Z</time>
      </trkpt>
      <trkpt lat="39.58141833" lon="2.64484">
        <ele>45.0</ele>
        <time>2022-05-14T10:30:00.526Z</time>
      </trkpt>
      <trkpt lat="39.58142333" lon="2.64480667">
        <ele>45.0</ele>
        <time>2022-05-14T10:30:01.526Z</time>
      </trkpt>
      <trkpt lat="39.58143667" lon="2.644775">
        <ele>45.0</ele>
        <time>2022-05-14T10:30:02.525Z</time>
      </trkpt>
      <trkpt lat="39.581445" lon="2.64474667">
        <ele>45.0</ele>
        <time>2022-05-14T10:30:03.526Z</time>
      </trkpt>
      <trkpt lat="39.58146167" lon="2.64471167">
        <ele>45.0</ele>
        <time>2022-05-14T10:30:04.525Z</time>
      </trkpt>
      <trkpt lat="39.58147333" lon="2.64468">
        <ele>45.0</ele>
        <time>2022-05-14T10:30:05.525Z</time>
      </trkpt>
      <trkpt lat="39.58148667" lon="2.64465167">
        <ele>45.0</ele>
        <time>2022-05-14T10:30:06.525Z</time>
      </trkpt>
      <trkpt lat="39.581495" lon="2.64462333">
        <ele>45.0</ele>
        <time>2022-05-14T10:30:07.525Z</time>
      </trkpt>
      <trkpt lat="39.58149833" lon="2.64459167">
        <ele>45.0</ele>
        <time>2022-05-14T10:30:08.526Z</time>
      </trkpt>
      <trkpt lat="39.58149833" lon="2.64456167">
        <ele>45.0</ele>
        <time>2022-05-14T10:30:09.525Z</time>
      </trkpt>
      <trkpt lat="39.58149333" lon="2.64453333">
        <ele>45.0</ele>
        <time>2022-05-14T10:30:10.525Z</time>
      </trkpt>
      <trkpt lat="39.58148667" lon="2.64450667">
        <ele>45.0</ele>
        <time>2022-05-14T10:30:11.525Z</time>
      </trkpt>
      <trkpt lat="39.581485" lon="2.64447333">
        <ele>45.0</ele>
        <time>2022-05-14T10:30:12.525Z</time>
      </trkpt>
      <trkpt lat="39.581495" lon="2.644445">
        <ele>45.0</ele>
        <time>2022-05-14T10:30:13.526Z</time>
      </trkpt>
      <trkpt lat="39.58151167" lon="2.64442">
        <ele>45.0</ele>
        <time>2022-05-14T10:30:14.525Z</time>
      </trkpt>
      <trkpt lat="39.581525" lon="2.64439333">
        <ele>46.0</ele>
        <time>2022-05-14T10:30:15.526Z</time>
      </trkpt>
      <trkpt lat="39.58152833" lon="2.64436">
        <ele>46.0</ele>
        <time>2022-05-14T10:30:16.526Z</time>
      </trkpt>
      <trkpt lat="39.58152333" lon="2.64432833">
        <ele>46.0</ele>
        <time>2022-05-14T10:30:17.526Z</time>
      </trkpt>
      <trkpt lat="39.58151333" lon="2.64429833">
        <ele>46.0</ele>
        <time>2022-05-14T10:30:18.526Z</time>
      </trkpt>
      <trkpt lat="39.58149833" lon="2.64426667">
        <ele>47.0</ele>
        <time>2022-05-14T10:30:19.526Z</time>
      </trkpt>
      <trkpt lat="39.58148167" lon="2.64423333">
        <ele>47.0</ele>
        <time>2022-05-14T10:30:20.525Z</time>
      </trkpt>
      <trkpt lat="39.58146333" lon="2.64419833">
        <ele>47.0</ele>
        <time>2022-05-14T10:30:21.526Z</time>
      </trkpt>
      <trkpt lat="39.581445" lon="2.644165">
        <ele>47.0</ele>
        <time>2022-05-14T10:30:22.525Z</time>
      </trkpt>
      <trkpt lat="39.58142333" lon="2.64412833">
        <ele>48.0</ele>
        <time>2022-05-14T10:30:23.526Z</time>
      </trkpt>
      <trkpt lat="39.58140167" lon="2.64409167">
        <ele>48.0</ele>
        <time>2022-05-14T10:30:24.526Z</time>
      </trkpt>
      <trkpt lat="39.58138167" lon="2.64405333">
        <ele>48.0</ele>
        <time>2022-05-14T10:30:25.525Z</time>
      </trkpt>
      <trkpt lat="39.58136" lon="2.64401333">
        <ele>48.0</ele>
        <time>2022-05-14T10:30:26.525Z</time>
      </trkpt>
      <trkpt lat="39.58133667" lon="2.64397">
        <ele>48.0</ele>
        <time>2022-05-14T10:30:27.526Z</time>
      </trkpt>
      <trkpt lat="39.58131333" lon="2.64392667">
        <ele>49.0</ele>
        <time>2022-05-14T10:30:28.526Z</time>
      </trkpt>
      <trkpt lat="39.58129167" lon="2.64388333">
        <ele>49.0</ele>
        <time>2022-05-14T10:30:29.526Z</time>
      </trkpt>
      <trkpt lat="39.58126667" lon="2.64383833">
        <ele>49.0</ele>
        <time>2022-05-14T10:30:30.526Z</time>
      </trkpt>
      <trkpt lat="39.58124" lon="2.64379667">
        <ele>49.0</ele>
        <time>2022-05-14T10:30:31.525Z</time>
      </trkpt>
      <trkpt lat="39.58121333" lon="2.64375167">
        <ele>49.0</ele>
        <time>2022-05-14T10:30:32.525Z</time>
      </trkpt>
      <trkpt lat="39.58118667" lon="2.643705">
        <ele>49.0</ele>
        <time>2022-05-14T10:30:33.526Z</time>
      </trkpt>
      <trkpt lat="39.58116167" lon="2.64366">
        <ele>49.0</ele>
        <time>2022-05-14T10:30:34.526Z</time>
      </trkpt>
      <trkpt lat="39.581135" lon="2.64361333">
        <ele>49.0</ele>
        <time>2022-05-14T10:30:35.525Z</time>
      </trkpt>
      <trkpt lat="39.58110833" lon="2.64356667">
        <ele>49.0</ele>
        <time>2022-05-14T10:30:36.526Z</time>
      </trkpt>
      <trkpt lat="39.58108167" lon="2.64352">
        <ele>49.0</ele>
        <time>2022-05-14T10:30:37.525Z</time>
      </trkpt>
      <trkpt lat="39.581055" lon="2.643475">
        <ele>49.0</ele>
        <time>2022-05-14T10:30:38.525Z</time>
      </trkpt>
      <trkpt lat="39.58102833" lon="2.64343">
        <ele>49.0</ele>
        <time>2022-05-14T10:30:39.526Z</time>
      </trkpt>
      <trkpt lat="39.58100167" lon="2.64338333">
        <ele>49.0</ele>
        <time>2022-05-14T10:30:40.525Z</time>
      </trkpt>
      <trkpt lat="39.580975" lon="2.64333667">
        <ele>49.0</ele>
        <time>2022-05-14T10:30:41.526Z</time>
      </trkpt>
      <trkpt lat="39.58095" lon="2.64329">
        <ele>50.0</ele>
        <time>2022-05-14T10:30:42.526Z</time>
      </trkpt>
      <trkpt lat="39.58092167" lon="2.64324167">
        <ele>50.0</ele>
        <time>2022-05-14T10:30:43.526Z</time>
      </trkpt>
      <trkpt lat="39.5809" lon="2.64319333">
        <ele>50.0</ele>
        <time>2022-05-14T10:30:44.525Z</time>
      </trkpt>
      <trkpt lat="39.580875" lon="2.643145">
        <ele>50.0</ele>
        <time>2022-05-14T10:30:45.525Z</time>
      </trkpt>
      <trkpt lat="39.58085167" lon="2.64309667">
        <ele>50.0</ele>
        <time>2022-05-14T10:30:46.525Z</time>
      </trkpt>
      <trkpt lat="39.58082" lon="2.64304833">
        <ele>51.0</ele>
        <time>2022-05-14T10:30:47.525Z</time>
      </trkpt>
      <trkpt lat="39.58079167" lon="2.643">
        <ele>51.0</ele>
        <time>2022-05-14T10:30:48.525Z</time>
      </trkpt>
      <trkpt lat="39.580765" lon="2.64295167">
        <ele>51.0</ele>
        <time>2022-05-14T10:30:49.526Z</time>
      </trkpt>
      <trkpt lat="39.58073667" lon="2.64290667">
        <ele>51.0</ele>
        <time>2022-05-14T10:30:50.526Z</time>
      </trkpt>
      <trkpt lat="39.58070667" lon="2.64286">
        <ele>51.0</ele>
        <time>2022-05-14T10:30:51.526Z</time>
      </trkpt>
      <trkpt lat="39.58067833" lon="2.64281167">
        <ele>51.0</ele>
        <time>2022-05-14T10:30:52.526Z</time>
      </trkpt>
      <trkpt lat="39.580655" lon="2.64276333">
        <ele>51.0</ele>
        <time>2022-05-14T10:30:53.526Z</time>
      </trkpt>
      <trkpt lat="39.58062833" lon="2.64271667">
        <ele>51.0</ele>
        <time>2022-05-14T10:30:54.525Z</time>
      </trkpt>
      <trkpt lat="39.580605" lon="2.64266833">
        <ele>52.0</ele>
        <time>2022-05-14T10:30:55.526Z</time>
      </trkpt>
      <trkpt lat="39.58058" lon="2.64262333">
        <ele>52.0</ele>
        <time>2022-05-14T10:30:56.526Z</time>
      </trkpt>
      <trkpt lat="39.58055333" lon="2.642575">
        <ele>52.0</ele>
        <time>2022-05-14T10:30:57.526Z</time>
      </trkpt>
      <trkpt lat="39.58053" lon="2.64253">
        <ele>52.0</ele>
        <time>2022-05-14T10:30:58.526Z</time>
      </trkpt>
      <trkpt lat="39.58050333" lon="2.64249">
        <ele>52.0</ele>
        <time>2022-05-14T10:30:59.526Z</time>
      </trkpt>
      <trkpt lat="39.58048167" lon="2.642455">
        <ele>52.0</ele>
        <time>2022-05-14T10:31:00.526Z</time>
      </trkpt>
      <trkpt lat="39.580455" lon="2.642415">
        <ele>52.0</ele>
        <time>2022-05-14T10:31:01.526Z</time>
      </trkpt>
      <trkpt lat="39.58042" lon="2.64237">
        <ele>52.0</ele>
        <time>2022-05-14T10:31:02.525Z</time>
      </trkpt>
      <trkpt lat="39.58039" lon="2.64233667">
        <ele>52.0</ele>
        <time>2022-05-14T10:31:03.526Z</time>
      </trkpt>
      <trkpt lat="39.58035833" lon="2.6423">
        <ele>52.0</ele>
        <time>2022-05-14T10:31:04.525Z</time>
      </trkpt>
      <trkpt lat="39.58033" lon="2.642265">
        <ele>52.0</ele>
        <time>2022-05-14T10:31:05.526Z</time>
      </trkpt>
      <trkpt lat="39.5803" lon="2.64223333">
        <ele>52.0</ele>
        <time>2022-05-14T10:31:06.526Z</time>
      </trkpt>
      <trkpt lat="39.580265" lon="2.64220667">
        <ele>52.0</ele>
        <time>2022-05-14T10:31:07.526Z</time>
      </trkpt>
      <trkpt lat="39.58023" lon="2.64218167">
        <ele>52.0</ele>
        <time>2022-05-14T10:31:08.525Z</time>
      </trkpt>
      <trkpt lat="39.580195" lon="2.642165">
        <ele>52.0</ele>
        <time>2022-05-14T10:31:09.525Z</time>
      </trkpt>
      <trkpt lat="39.580155" lon="2.64215167">
        <ele>52.0</ele>
        <time>2022-05-14T10:31:10.526Z</time>
      </trkpt>
      <trkpt lat="39.58012" lon="2.64214">
        <ele>52.0</ele>
        <time>2022-05-14T10:31:11.526Z</time>
      </trkpt>
      <trkpt lat="39.58008667" lon="2.642135">
        <ele>52.0</ele>
        <time>2022-05-14T10:31:12.526Z</time>
      </trkpt>
      <trkpt lat="39.58006" lon="2.64213667">
        <ele>52.0</ele>
        <time>2022-05-14T10:31:13.526Z</time>
      </trkpt>
      <trkpt lat="39.58004667" lon="2.64214333">
        <ele>53.0</ele>
        <time>2022-05-14T10:31:14.526Z</time>
      </trkpt>
      <trkpt lat="39.58003667" lon="2.64214833">
        <ele>53.0</ele>
        <time>2022-05-14T10:31:15.526Z</time>
      </trkpt>
      <trkpt lat="39.58003667" lon="2.64215833">
        <ele>53.0</ele>
        <time>2022-05-14T10:31:16.526Z</time>
      </trkpt>
      <trkpt lat="39.58004" lon="2.642155">
        <ele>53.0</ele>
        <time>2022-05-14T10:31:17.526Z</time>
      </trkpt>
      <trkpt lat="39.58004167" lon="2.642155">
        <ele>54.0</ele>
        <time>2022-05-14T10:31:18.526Z</time>
      </trkpt>
      <trkpt lat="39.580045" lon="2.64215333">
        <ele>54.0</ele>
        <time>2022-05-14T10:31:19.526Z</time>
      </trkpt>
      <trkpt lat="39.58004667" lon="2.64215833">
        <ele>54.0</ele>
        <time>2022-05-14T10:31:20.526Z</time>
      </trkpt>
      <trkpt lat="39.58004833" lon="2.64216">
        <ele>54.0</ele>
        <time>2022-05-14T10:31:21.526Z</time>
      </trkpt>
      <trkpt lat="39.58005167" lon="2.64217333">
        <ele>55.0</ele>
        <time>2022-05-14T10:31:22.526Z</time>
      </trkpt>
      <trkpt lat="39.58006" lon="2.642175">
        <ele>55.0</ele>
        <time>2022-05-14T10:31:23.525Z</time>
      </trkpt>
      <trkpt lat="39.58006" lon="2.64219167">
        <ele>55.0</ele>
        <time>2022-05-14T10:31:24.526Z</time>
      </trkpt>
      <trkpt lat="39.58006167" lon="2.64219667">
        <ele>56.0</ele>
        <time>2022-05-14T10:31:25.526Z</time>
      </trkpt>
      <trkpt lat="39.58007" lon="2.642195">
        <ele>56.0</ele>
        <time>2022-05-14T10:31:26.526Z</time>
      </trkpt>
      <trkpt lat="39.58007833" lon="2.64218833">
        <ele>56.0</ele>
        <time>2022-05-14T10:31:27.526Z</time>
      </trkpt>
      <trkpt lat="39.58007833" lon="2.64218833">
        <ele>56.0</ele>
        <time>2022-05-14T10:31:28.526Z</time>
      </trkpt>
      <trkpt lat="39.58007833" lon="2.64219">
        <ele>57.0</ele>
        <time>2022-05-14T10:31:29.525Z</time>
      </trkpt>
      <trkpt lat="39.58007833" lon="2.642195">
        <ele>57.0</ele>
        <time>2022-05-14T10:31:30.526Z</time>
      </trkpt>
      <trkpt lat="39.580075" lon="2.64220833">
        <ele>57.0</ele>
        <time>2022-05-14T10:31:31.526Z</time>
      </trkpt>
      <trkpt lat="39.58006667" lon="2.64222333">
        <ele>57.0</ele>
        <time>2022-05-14T10:31:32.526Z</time>
      </trkpt>
      <trkpt lat="39.58005333" lon="2.64223667">
        <ele>58.0</ele>
        <time>2022-05-14T10:31:33.526Z</time>
      </trkpt>
      <trkpt lat="39.58004" lon="2.642245">
        <ele>58.0</ele>
        <time>2022-05-14T10:31:34.526Z</time>
      </trkpt>
      <trkpt lat="39.58001833" lon="2.64225167">
        <ele>58.0</ele>
        <time>2022-05-14T10:31:35.525Z</time>
      </trkpt>
      <trkpt lat="39.57999" lon="2.64226167">
        <ele>59.0</ele>
        <time>2022-05-14T10:31:36.526Z</time>
      </trkpt>
      <trkpt lat="39.57996167" lon="2.64227833">
        <ele>59.0</ele>
        <time>2022-05-14T10:31:37.525Z</time>
      </trkpt>
      <trkpt lat="39.579925" lon="2.64229667">
        <ele>60.0</ele>
        <time>2022-05-14T10:31:38.526Z</time>
      </trkpt>
      <trkpt lat="39.57988667" lon="2.64232167">
        <ele>60.0</ele>
        <time>2022-05-14T10:31:39.525Z</time>
      </trkpt>
      <trkpt lat="39.57984667" lon="2.64234833">
        <ele>61.0</ele>
        <time>2022-05-14T10:31:40.526Z</time>
      </trkpt>
      <trkpt lat="39.57980667" lon="2.64237333">
        <ele>61.0</ele>
        <time>2022-05-14T10:31:41.526Z</time>
      </trkpt>
      <trkpt lat="39.579765" lon="2.64239833">
        <ele>61.0</ele>
        <time>2022-05-14T10:31:42.525Z</time>
      </trkpt>
      <trkpt lat="39.57973" lon="2.64242667">
        <ele>61.0</ele>
        <time>2022-05-14T10:31:43.526Z</time>
      </trkpt>
      <trkpt lat="39.57970167" lon="2.642455">
        <ele>61.0</ele>
        <time>2022-05-14T10:31:44.525Z</time>
      </trkpt>
      <trkpt lat="39.57967" lon="2.642485">
        <ele>61.0</ele>
        <time>2022-05-14T10:31:45.525Z</time>
      </trkpt>
      <trkpt lat="39.579635" lon="2.642515">
        <ele>61.0</ele>
        <time>2022-05-14T10:31:46.526Z</time>
      </trkpt>
      <trkpt lat="39.5796" lon="2.64254333">
        <ele>60.0</ele>
        <time>2022-05-14T10:31:47.526Z</time>
      </trkpt>
      <trkpt lat="39.57956333" lon="2.64257333">
        <ele>60.0</ele>
        <time>2022-05-14T10:31:48.525Z</time>
      </trkpt>
      <trkpt lat="39.57952333" lon="2.64260333">
        <ele>60.0</ele>
        <time>2022-05-14T10:31:49.525Z</time>
      </trkpt>
      <trkpt lat="39.57948333" lon="2.64263167">
        <ele>60.0</ele>
        <time>2022-05-14T10:31:50.526Z</time>
      </trkpt>
      <trkpt lat="39.57944667" lon="2.64265167">
        <ele>60.0</ele>
        <time>2022-05-14T10:31:51.526Z</time>
      </trkpt>
      <trkpt lat="39.57941" lon="2.64267833">
        <ele>60.0</ele>
        <time>2022-05-14T10:31:52.526Z</time>
      </trkpt>
      <trkpt lat="39.57937667" lon="2.64269833">
        <ele>60.0</ele>
        <time>2022-05-14T10:31:53.526Z</time>
      </trkpt>
      <trkpt lat="39.57932667" lon="2.64272833">
        <ele>60.0</ele>
        <time>2022-05-14T10:31:54.526Z</time>
      </trkpt>
      <trkpt lat="39.57928667" lon="2.64275333">
        <ele>60.0</ele>
        <time>2022-05-14T10:31:55.526Z</time>
      </trkpt>
      <trkpt lat="39.57924833" lon="2.64278">
        <ele>60.0</ele>
        <time>2022-05-14T10:31:56.526Z</time>
      </trkpt>
      <trkpt lat="39.57921167" lon="2.642805">
        <ele>60.0</ele>
        <time>2022-05-14T10:31:57.526Z</time>
      </trkpt>
      <trkpt lat="39.579175" lon="2.64283167">
        <ele>60.0</ele>
        <time>2022-05-14T10:31:58.526Z</time>
      </trkpt>
      <trkpt lat="39.57914667" lon="2.642855">
        <ele>60.0</ele>
        <time>2022-05-14T10:31:59.526Z</time>
      </trkpt>
      <trkpt lat="39.57910333" lon="2.642895">
        <ele>60.0</ele>
        <time>2022-05-14T10:32:00.526Z</time>
      </trkpt>
      <trkpt lat="39.579065" lon="2.64293">
        <ele>60.0</ele>
        <time>2022-05-14T10:32:01.526Z</time>
      </trkpt>
      <trkpt lat="39.57902667" lon="2.642965">
        <ele>60.0</ele>
        <time>2022-05-14T10:32:02.525Z</time>
      </trkpt>
      <trkpt lat="39.57899667" lon="2.64299167">
        <ele>60.0</ele>
        <time>2022-05-14T10:32:03.526Z</time>
      </trkpt>
      <trkpt lat="39.57894833" lon="2.64303167">
        <ele>60.0</ele>
        <time>2022-05-14T10:32:04.526Z</time>
      </trkpt>
      <trkpt lat="39.57890833" lon="2.64306167">
        <ele>60.0</ele>
        <time>2022-05-14T10:32:05.526Z</time>
      </trkpt>
      <trkpt lat="39.57886833" lon="2.64309167">
        <ele>60.0</ele>
        <time>2022-05-14T10:32:06.525Z</time>
      </trkpt>
      <trkpt lat="39.57882833" lon="2.64312167">
        <ele>60.0</ele>
        <time>2022-05-14T10:32:07.526Z</time>
      </trkpt>
      <trkpt lat="39.57879667" lon="2.643145">
        <ele>59.0</ele>
        <time>2022-05-14T10:32:08.526Z</time>
      </trkpt>
      <trkpt lat="39.57875" lon="2.64318">
        <ele>58.0</ele>
        <time>2022-05-14T10:32:09.526Z</time>
      </trkpt>
      <trkpt lat="39.57871167" lon="2.64321">
        <ele>56.0</ele>
        <time>2022-05-14T10:32:10.526Z</time>
      </trkpt>
      <trkpt lat="39.57867167" lon="2.64324167">
        <ele>54.0</ele>
        <time>2022-05-14T10:32:11.525Z</time>
      </trkpt>
      <trkpt lat="39.57863167" lon="2.64327">
        <ele>53.0</ele>
        <time>2022-05-14T10:32:12.526Z</time>
      </trkpt>
      <trkpt lat="39.57859" lon="2.6433">
        <ele>51.0</ele>
        <time>2022-05-14T10:32:13.525Z</time>
      </trkpt>
      <trkpt lat="39.57854833" lon="2.64333">
        <ele>50.0</ele>
        <time>2022-05-14T10:32:14.526Z</time>
      </trkpt>
      <trkpt lat="39.57850833" lon="2.64336167">
        <ele>48.0</ele>
        <time>2022-05-14T10:32:15.526Z</time>
      </trkpt>
      <trkpt lat="39.57846667" lon="2.64339167">
        <ele>46.0</ele>
        <time>2022-05-14T10:32:16.525Z</time>
      </trkpt>
      <trkpt lat="39.57842333" lon="2.643425">
        <ele>44.0</ele>
        <time>2022-05-14T10:32:17.526Z</time>
      </trkpt>
      <trkpt lat="39.57838833" lon="2.64345667">
        <ele>42.0</ele>
        <time>2022-05-14T10:32:18.526Z</time>
      </trkpt>
      <trkpt lat="39.57834667" lon="2.643485">
        <ele>40.0</ele>
        <time>2022-05-14T10:32:19.525Z</time>
      </trkpt>
      <trkpt lat="39.578305" lon="2.64350667">
        <ele>39.0</ele>
        <time>2022-05-14T10:32:20.525Z</time>
      </trkpt>
      <trkpt lat="39.57826" lon="2.64353167">
        <ele>37.0</ele>
        <time>2022-05-14T10:32:21.526Z</time>
      </trkpt>
      <trkpt lat="39.57822167" lon="2.64355667">
        <ele>35.0</ele>
        <time>2022-05-14T10:32:22.525Z</time>
      </trkpt>
      <trkpt lat="39.57818167" lon="2.643585">
        <ele>34.0</ele>
        <time>2022-05-14T10:32:23.525Z</time>
      </trkpt>
      <trkpt lat="39.57814167" lon="2.643615">
        <ele>33.0</ele>
        <time>2022-05-14T10:32:24.525Z</time>
      </trkpt>
      <trkpt lat="39.5781" lon="2.643645">
        <ele>32.0</ele>
        <time>2022-05-14T10:32:25.526Z</time>
      </trkpt>
      <trkpt lat="39.57806" lon="2.64367333">
        <ele>31.0</ele>
        <time>2022-05-14T10:32:26.526Z</time>
      </trkpt>
      <trkpt lat="39.57802" lon="2.64370167">
        <ele>31.0</ele>
        <time>2022-05-14T10:32:27.526Z</time>
      </trkpt>
      <trkpt lat="39.577985" lon="2.64373167">
        <ele>30.0</ele>
        <time>2022-05-14T10:32:28.526Z</time>
      </trkpt>
      <trkpt lat="39.57794833" lon="2.64376">
        <ele>29.0</ele>
        <time>2022-05-14T10:32:29.526Z</time>
      </trkpt>
      <trkpt lat="39.57791167" lon="2.64378667">
        <ele>29.0</ele>
        <time>2022-05-14T10:32:30.526Z</time>
      </trkpt>
      <trkpt lat="39.577875" lon="2.643815">
        <ele>28.0</ele>
        <time>2022-05-14T10:32:31.525Z</time>
      </trkpt>
      <trkpt lat="39.57783667" lon="2.643845">
        <ele>27.0</ele>
        <time>2022-05-14T10:32:32.525Z</time>
      </trkpt>
      <trkpt lat="39.57779667" lon="2.643875">
        <ele>27.0</ele>
        <time>2022-05-14T10:32:33.526Z</time>
      </trkpt>
      <trkpt lat="39.57775667" lon="2.643905">
        <ele>27.0</ele>
        <time>2022-05-14T10:32:34.526Z</time>
      </trkpt>
      <trkpt lat="39.57772" lon="2.64393333">
        <ele>27.0</ele>
        <time>2022-05-14T10:32:35.526Z</time>
      </trkpt>
      <trkpt lat="39.57768333" lon="2.64396333">
        <ele>27.0</ele>
        <time>2022-05-14T10:32:36.526Z</time>
      </trkpt>
      <trkpt lat="39.57764667" lon="2.64398833">
        <ele>26.0</ele>
        <time>2022-05-14T10:32:37.526Z</time>
      </trkpt>
      <trkpt lat="39.57760667" lon="2.644005">
        <ele>26.0</ele>
        <time>2022-05-14T10:32:38.526Z</time>
      </trkpt>
      <trkpt lat="39.57756667" lon="2.64401167">
        <ele>26.0</ele>
        <time>2022-05-14T10:32:39.525Z</time>
      </trkpt>
      <trkpt lat="39.57752333" lon="2.64401667">
        <ele>25.0</ele>
        <time>2022-05-14T10:32:40.525Z</time>
      </trkpt>
      <trkpt lat="39.57747833" lon="2.644015">
        <ele>24.0</ele>
        <time>2022-05-14T10:32:41.525Z</time>
      </trkpt>
      <trkpt lat="39.57743333" lon="2.644015">
        <ele>23.0</ele>
        <time>2022-05-14T10:32:42.525Z</time>
      </trkpt>
      <trkpt lat="39.57739" lon="2.64401333">
        <ele>22.0</ele>
        <time>2022-05-14T10:32:43.525Z</time>
      </trkpt>
      <trkpt lat="39.57734833" lon="2.64401167">
        <ele>22.0</ele>
        <time>2022-05-14T10:32:44.526Z</time>
      </trkpt>
      <trkpt lat="39.57730667" lon="2.64401">
        <ele>21.0</ele>
        <time>2022-05-14T10:32:45.526Z</time>
      </trkpt>
      <trkpt lat="39.577265" lon="2.64401167">
        <ele>21.0</ele>
        <time>2022-05-14T10:32:46.525Z</time>
      </trkpt>
      <trkpt lat="39.57722667" lon="2.64401167">
        <ele>21.0</ele>
        <time>2022-05-14T10:32:47.526Z</time>
      </trkpt>
      <trkpt lat="39.57718833" lon="2.64401333">
        <ele>21.0</ele>
        <time>2022-05-14T10:32:48.526Z</time>
      </trkpt>
      <trkpt lat="39.57714667" lon="2.644015">
        <ele>21.0</ele>
        <time>2022-05-14T10:32:49.525Z</time>
      </trkpt>
      <trkpt lat="39.577105" lon="2.64401333">
        <ele>21.0</ele>
        <time>2022-05-14T10:32:50.525Z</time>
      </trkpt>
      <trkpt lat="39.57706333" lon="2.64401333">
        <ele>21.0</ele>
        <time>2022-05-14T10:32:51.525Z</time>
      </trkpt>
      <trkpt lat="39.577025" lon="2.64401333">
        <ele>20.0</ele>
        <time>2022-05-14T10:32:52.525Z</time>
      </trkpt>
      <trkpt lat="39.576985" lon="2.64401333">
        <ele>20.0</ele>
        <time>2022-05-14T10:32:53.525Z</time>
      </trkpt>
      <trkpt lat="39.576945" lon="2.64401333">
        <ele>20.0</ele>
        <time>2022-05-14T10:32:54.525Z</time>
      </trkpt>
      <trkpt lat="39.576905" lon="2.644015">
        <ele>20.0</ele>
        <time>2022-05-14T10:32:55.526Z</time>
      </trkpt>
      <trkpt lat="39.57686" lon="2.64401833">
        <ele>21.0</ele>
        <time>2022-05-14T10:32:56.526Z</time>
      </trkpt>
      <trkpt lat="39.57681667" lon="2.64402167">
        <ele>21.0</ele>
        <time>2022-05-14T10:32:57.525Z</time>
      </trkpt>
      <trkpt lat="39.57677667" lon="2.644025">
        <ele>21.0</ele>
        <time>2022-05-14T10:32:58.526Z</time>
      </trkpt>
      <trkpt lat="39.57674167" lon="2.64402667">
        <ele>21.0</ele>
        <time>2022-05-14T10:32:59.526Z</time>
      </trkpt>
      <trkpt lat="39.576705" lon="2.644025">
        <ele>20.0</ele>
        <time>2022-05-14T10:33:00.526Z</time>
      </trkpt>
      <trkpt lat="39.57666667" lon="2.644025">
        <ele>20.0</ele>
        <time>2022-05-14T10:33:01.525Z</time>
      </trkpt>
      <trkpt lat="39.57662333" lon="2.644025">
        <ele>19.0</ele>
        <time>2022-05-14T10:33:02.526Z</time>
      </trkpt>
      <trkpt lat="39.57658167" lon="2.64402333">
        <ele>19.0</ele>
        <time>2022-05-14T10:33:03.526Z</time>
      </trkpt>
      <trkpt lat="39.57654333" lon="2.64402333">
        <ele>19.0</ele>
        <time>2022-05-14T10:33:04.525Z</time>
      </trkpt>
      <trkpt lat="39.57650333" lon="2.64402667">
        <ele>19.0</ele>
        <time>2022-05-14T10:33:05.525Z</time>
      </trkpt>
      <trkpt lat="39.57647" lon="2.64403167">
        <ele>18.0</ele>
        <time>2022-05-14T10:33:06.525Z</time>
      </trkpt>
      <trkpt lat="39.57644" lon="2.64403833">
        <ele>18.0</ele>
        <time>2022-05-14T10:33:07.526Z</time>
      </trkpt>
      <trkpt lat="39.57641667" lon="2.64405">
        <ele>18.0</ele>
        <time>2022-05-14T10:33:08.525Z</time>
      </trkpt>
      <trkpt lat="39.57639833" lon="2.64406333">
        <ele>18.0</ele>
        <time>2022-05-14T10:33:09.525Z</time>
      </trkpt>
      <trkpt lat="39.57638167" lon="2.64407333">
        <ele>18.0</ele>
        <time>2022-05-14T10:33:10.525Z</time>
      </trkpt>
      <trkpt lat="39.57636667" lon="2.64407833">
        <ele>18.0</ele>
        <time>2022-05-14T10:33:11.525Z</time>
      </trkpt>
      <trkpt lat="39.57634667" lon="2.64407833">
        <ele>18.0</ele>
        <time>2022-05-14T10:33:12.525Z</time>
      </trkpt>
      <trkpt lat="39.57632833" lon="2.64408167">
        <ele>18.0</ele>
        <time>2022-05-14T10:33:13.526Z</time>
      </trkpt>
      <trkpt lat="39.57630667" lon="2.64408333">
        <ele>18.0</ele>
        <time>2022-05-14T10:33:14.525Z</time>
      </trkpt>
      <trkpt lat="39.576285" lon="2.64408667">
        <ele>18.0</ele>
        <time>2022-05-14T10:33:15.526Z</time>
      </trkpt>
      <trkpt lat="39.57626333" lon="2.64408833">
        <ele>18.0</ele>
        <time>2022-05-14T10:33:16.525Z</time>
      </trkpt>
      <trkpt lat="39.57624333" lon="2.64408667">
        <ele>18.0</ele>
        <time>2022-05-14T10:33:17.525Z</time>
      </trkpt>
      <trkpt lat="39.576225" lon="2.64409">
        <ele>18.0</ele>
        <time>2022-05-14T10:33:18.525Z</time>
      </trkpt>
      <trkpt lat="39.57620833" lon="2.64409">
        <ele>18.0</ele>
        <time>2022-05-14T10:33:19.525Z</time>
      </trkpt>
      <trkpt lat="39.57619333" lon="2.64408667">
        <ele>18.0</ele>
        <time>2022-05-14T10:33:20.525Z</time>
      </trkpt>
      <trkpt lat="39.57618667" lon="2.64408667">
        <ele>18.0</ele>
        <time>2022-05-14T10:33:21.525Z</time>
      </trkpt>
      <trkpt lat="39.57618667" lon="2.64408667">
        <ele>18.0</ele>
        <time>2022-05-14T10:33:22.525Z</time>
      </trkpt>
      <trkpt lat="39.57619" lon="2.64409">
        <ele>18.0</ele>
        <time>2022-05-14T10:33:23.525Z</time>
      </trkpt>
      <trkpt lat="39.576195" lon="2.64409333">
        <ele>19.0</ele>
        <time>2022-05-14T10:33:24.525Z</time>
      </trkpt>
      <trkpt lat="39.576195" lon="2.64408833">
        <ele>19.0</ele>
        <time>2022-05-14T10:33:25.525Z</time>
      </trkpt>
      <trkpt lat="39.57619667" lon="2.64408833">
        <ele>19.0</ele>
        <time>2022-05-14T10:33:26.525Z</time>
      </trkpt>
      <trkpt lat="39.57619667" lon="2.64408667">
        <ele>19.0</ele>
        <time>2022-05-14T10:33:27.525Z</time>
      </trkpt>
      <trkpt lat="39.57619667" lon="2.644085">
        <ele>19.0</ele>
        <time>2022-05-14T10:33:28.525Z</time>
      </trkpt>
      <trkpt lat="39.57619667" lon="2.64408">
        <ele>18.0</ele>
        <time>2022-05-14T10:33:29.525Z</time>
      </trkpt>
      <trkpt lat="39.57619167" lon="2.64408167">
        <ele>18.0</ele>
        <time>2022-05-14T10:33:30.526Z</time>
      </trkpt>
      <trkpt lat="39.57618833" lon="2.644075">
        <ele>18.0</ele>
        <time>2022-05-14T10:33:31.525Z</time>
      </trkpt>
      <trkpt lat="39.57619" lon="2.64407167">
        <ele>17.0</ele>
        <time>2022-05-14T10:33:32.525Z</time>
      </trkpt>
      <trkpt lat="39.57619" lon="2.64407167">
        <ele>17.0</ele>
        <time>2022-05-14T10:33:33.526Z</time>
      </trkpt>
      <trkpt lat="39.57619" lon="2.64407167">
        <ele>17.0</ele>
        <time>2022-05-14T10:33:34.526Z</time>
      </trkpt>
      <trkpt lat="39.57619" lon="2.64407167">
        <ele>17.0</ele>
        <time>2022-05-14T10:33:35.525Z</time>
      </trkpt>
      <trkpt lat="39.57619" lon="2.64407167">
        <ele>17.0</ele>
        <time>2022-05-14T10:33:36.525Z</time>
      </trkpt>
      <trkpt lat="39.57619" lon="2.64407167">
        <ele>16.0</ele>
        <time>2022-05-14T10:33:37.525Z</time>
      </trkpt>
      <trkpt lat="39.57619" lon="2.64407167">
        <ele>16.0</ele>
        <time>2022-05-14T10:33:38.525Z</time>
      </trkpt>
      <trkpt lat="39.57619" lon="2.64407167">
        <ele>16.0</ele>
        <time>2022-05-14T10:33:39.526Z</time>
      </trkpt>
      <trkpt lat="39.57619" lon="2.64407167">
        <ele>16.0</ele>
        <time>2022-05-14T10:33:40.525Z</time>
      </trkpt>
      <trkpt lat="39.57619" lon="2.64407167">
        <ele>16.0</ele>
        <time>2022-05-14T10:33:41.525Z</time>
      </trkpt>
      <trkpt lat="39.57619" lon="2.64407167">
        <ele>16.0</ele>
        <time>2022-05-14T10:33:42.525Z</time>
      </trkpt>
      <trkpt lat="39.57619" lon="2.64407167">
        <ele>16.0</ele>
        <time>2022-05-14T10:33:43.526Z</time>
      </trkpt>
      <trkpt lat="39.57619167" lon="2.64407167">
        <ele>16.0</ele>
        <time>2022-05-14T10:33:44.525Z</time>
      </trkpt>
      <trkpt lat="39.57619167" lon="2.64407167">
        <ele>16.0</ele>
        <time>2022-05-14T10:33:45.525Z</time>
      </trkpt>
      <trkpt lat="39.57619167" lon="2.64407333">
        <ele>16.0</ele>
        <time>2022-05-14T10:33:46.525Z</time>
      </trkpt>
      <trkpt lat="39.57619167" lon="2.64407333">
        <ele>16.0</ele>
        <time>2022-05-14T10:33:47.526Z</time>
      </trkpt>
      <trkpt lat="39.57619333" lon="2.64407333">
        <ele>16.0</ele>
        <time>2022-05-14T10:33:48.525Z</time>
      </trkpt>
      <trkpt lat="39.57619333" lon="2.644075">
        <ele>16.0</ele>
        <time>2022-05-14T10:33:49.526Z</time>
      </trkpt>
      <trkpt lat="39.57619333" lon="2.644075">
        <ele>16.0</ele>
        <time>2022-05-14T10:33:50.526Z</time>
      </trkpt>
      <trkpt lat="39.57619333" lon="2.644075">
        <ele>16.0</ele>
        <time>2022-05-14T10:33:51.525Z</time>
      </trkpt>
      <trkpt lat="39.576195" lon="2.644075">
        <ele>16.0</ele>
        <time>2022-05-14T10:33:52.525Z</time>
      </trkpt>
      <trkpt lat="39.576195" lon="2.644075">
        <ele>16.0</ele>
        <time>2022-05-14T10:33:53.525Z</time>
      </trkpt>
      <trkpt lat="39.576195" lon="2.644075">
        <ele>16.0</ele>
        <time>2022-05-14T10:33:54.526Z</time>
      </trkpt>
      <trkpt lat="39.57619667" lon="2.644075">
        <ele>16.0</ele>
        <time>2022-05-14T10:33:55.525Z</time>
      </trkpt>
      <trkpt lat="39.57619667" lon="2.644075">
        <ele>16.0</ele>
        <time>2022-05-14T10:33:56.525Z</time>
      </trkpt>
      <trkpt lat="39.57619667" lon="2.644075">
        <ele>16.0</ele>
        <time>2022-05-14T10:33:57.525Z</time>
      </trkpt>
      <trkpt lat="39.57619667" lon="2.644075">
        <ele>16.0</ele>
        <time>2022-05-14T10:33:58.525Z</time>
      </trkpt>
      <trkpt lat="39.57619833" lon="2.644075">
        <ele>16.0</ele>
        <time>2022-05-14T10:33:59.526Z</time>
      </trkpt>
      <trkpt lat="39.57619833" lon="2.644075">
        <ele>16.0</ele>
        <time>2022-05-14T10:34:00.525Z</time>
      </trkpt>
      <trkpt lat="39.57619833" lon="2.644075">
        <ele>16.0</ele>
        <time>2022-05-14T10:34:01.525Z</time>
      </trkpt>
      <trkpt lat="39.57619833" lon="2.644075">
        <ele>16.0</ele>
        <time>2022-05-14T10:34:02.525Z</time>
      </trkpt>
      <trkpt lat="39.57619833" lon="2.644075">
        <ele>16.0</ele>
        <time>2022-05-14T10:34:03.525Z</time>
      </trkpt>
      <trkpt lat="39.57619833" lon="2.64407667">
        <ele>16.0</ele>
        <time>2022-05-14T10:34:04.525Z</time>
      </trkpt>
      <trkpt lat="39.57619833" lon="2.64407667">
        <ele>16.0</ele>
        <time>2022-05-14T10:34:05.525Z</time>
      </trkpt>
      <trkpt lat="39.57619833" lon="2.64407667">
        <ele>17.0</ele>
        <time>2022-05-14T10:34:06.525Z</time>
      </trkpt>
      <trkpt lat="39.5762" lon="2.64407667">
        <ele>17.0</ele>
        <time>2022-05-14T10:34:07.525Z</time>
      </trkpt>
      <trkpt lat="39.5762" lon="2.64407667">
        <ele>17.0</ele>
        <time>2022-05-14T10:34:08.525Z</time>
      </trkpt>
      <trkpt lat="39.5762" lon="2.64407667">
        <ele>17.0</ele>
        <time>2022-05-14T10:34:09.525Z</time>
      </trkpt>
      <trkpt lat="39.5762" lon="2.64407667">
        <ele>17.0</ele>
        <time>2022-05-14T10:34:10.525Z</time>
      </trkpt>
      <trkpt lat="39.5762" lon="2.64407833">
        <ele>17.0</ele>
        <time>2022-05-14T10:34:11.525Z</time>
      </trkpt>
      <trkpt lat="39.5762" lon="2.64407833">
        <ele>17.0</ele>
        <time>2022-05-14T10:34:12.525Z</time>
      </trkpt>
      <trkpt lat="39.5762" lon="2.64407833">
        <ele>17.0</ele>
        <time>2022-05-14T10:34:13.526Z</time>
      </trkpt>
      <trkpt lat="39.5762" lon="2.64407833">
        <ele>17.0</ele>
        <time>2022-05-14T10:34:14.525Z</time>
      </trkpt>
      <trkpt lat="39.5762" lon="2.64408">
        <ele>17.0</ele>
        <time>2022-05-14T10:34:15.526Z</time>
      </trkpt>
      <trkpt lat="39.5762" lon="2.64408">
        <ele>17.0</ele>
        <time>2022-05-14T10:34:16.525Z</time>
      </trkpt>
      <trkpt lat="39.57619833" lon="2.64408">
        <ele>17.0</ele>
        <time>2022-05-14T10:34:17.525Z</time>
      </trkpt>
      <trkpt lat="39.57619833" lon="2.64408">
        <ele>17.0</ele>
        <time>2022-05-14T10:34:18.526Z</time>
      </trkpt>
      <trkpt lat="39.57619833" lon="2.64408">
        <ele>17.0</ele>
        <time>2022-05-14T10:34:19.525Z</time>
      </trkpt>
      <trkpt lat="39.57619833" lon="2.64408167">
        <ele>17.0</ele>
        <time>2022-05-14T10:34:20.525Z</time>
      </trkpt>
      <trkpt lat="39.57619667" lon="2.64408333">
        <ele>18.0</ele>
        <time>2022-05-14T10:34:21.525Z</time>
      </trkpt>
      <trkpt lat="39.57619167" lon="2.644085">
        <ele>18.0</ele>
        <time>2022-05-14T10:34:22.525Z</time>
      </trkpt>
      <trkpt lat="39.57616833" lon="2.64408833">
        <ele>18.0</ele>
        <time>2022-05-14T10:34:23.526Z</time>
      </trkpt>
      <trkpt lat="39.57614333" lon="2.64409167">
        <ele>18.0</ele>
        <time>2022-05-14T10:34:24.525Z</time>
      </trkpt>
      <trkpt lat="39.57611167" lon="2.64409667">
        <ele>18.0</ele>
        <time>2022-05-14T10:34:25.525Z</time>
      </trkpt>
      <trkpt lat="39.57607833" lon="2.64409833">
        <ele>18.0</ele>
        <time>2022-05-14T10:34:26.525Z</time>
      </trkpt>
      <trkpt lat="39.57604167" lon="2.6441">
        <ele>18.0</ele>
        <time>2022-05-14T10:34:27.525Z</time>
      </trkpt>
      <trkpt lat="39.57600333" lon="2.6441">
        <ele>18.0</ele>
        <time>2022-05-14T10:34:28.525Z</time>
      </trkpt>
      <trkpt lat="39.57596333" lon="2.6441">
        <ele>18.0</ele>
        <time>2022-05-14T10:34:29.525Z</time>
      </trkpt>
      <trkpt lat="39.57592333" lon="2.64410167">
        <ele>18.0</ele>
        <time>2022-05-14T10:34:30.525Z</time>
      </trkpt>
      <trkpt lat="39.57588" lon="2.64410667">
        <ele>18.0</ele>
        <time>2022-05-14T10:34:31.525Z</time>
      </trkpt>
      <trkpt lat="39.57584167" lon="2.64410667">
        <ele>19.0</ele>
        <time>2022-05-14T10:34:32.525Z</time>
      </trkpt>
      <trkpt lat="39.5758" lon="2.64410667">
        <ele>19.0</ele>
        <time>2022-05-14T10:34:33.525Z</time>
      </trkpt>
      <trkpt lat="39.57575833" lon="2.6441">
        <ele>19.0</ele>
        <time>2022-05-14T10:34:34.525Z</time>
      </trkpt>
      <trkpt lat="39.57571667" lon="2.64408833">
        <ele>19.0</ele>
        <time>2022-05-14T10:34:35.526Z</time>
      </trkpt>
      <trkpt lat="39.57567833" lon="2.64407333">
        <ele>19.0</ele>
        <time>2022-05-14T10:34:36.526Z</time>
      </trkpt>
      <trkpt lat="39.575645" lon="2.64405833">
        <ele>19.0</ele>
        <time>2022-05-14T10:34:37.526Z</time>
      </trkpt>
      <trkpt lat="39.57561667" lon="2.644045">
        <ele>18.0</ele>
        <time>2022-05-14T10:34:38.525Z</time>
      </trkpt>
      <trkpt lat="39.575585" lon="2.64403">
        <ele>18.0</ele>
        <time>2022-05-14T10:34:39.525Z</time>
      </trkpt>
      <trkpt lat="39.57554667" lon="2.64401333">
        <ele>18.0</ele>
        <time>2022-05-14T10:34:40.526Z</time>
      </trkpt>
      <trkpt lat="39.57550667" lon="2.64399833">
        <ele>18.0</ele>
        <time>2022-05-14T10:34:41.526Z</time>
      </trkpt>
      <trkpt lat="39.575465" lon="2.643985">
        <ele>18.0</ele>
        <time>2022-05-14T10:34:42.525Z</time>
      </trkpt>
      <trkpt lat="39.57542" lon="2.64397167">
        <ele>18.0</ele>
        <time>2022-05-14T10:34:43.526Z</time>
      </trkpt>
      <trkpt lat="39.57537" lon="2.64395333">
        <ele>18.0</ele>
        <time>2022-05-14T10:34:44.526Z</time>
      </trkpt>
      <trkpt lat="39.57532333" lon="2.64394">
        <ele>18.0</ele>
        <time>2022-05-14T10:34:45.526Z</time>
      </trkpt>
      <trkpt lat="39.57527833" lon="2.643925">
        <ele>19.0</ele>
        <time>2022-05-14T10:34:46.525Z</time>
      </trkpt>
      <trkpt lat="39.575235" lon="2.64390833">
        <ele>19.0</ele>
        <time>2022-05-14T10:34:47.526Z</time>
      </trkpt>
      <trkpt lat="39.57519167" lon="2.64389167">
        <ele>19.0</ele>
        <time>2022-05-14T10:34:48.525Z</time>
      </trkpt>
      <trkpt lat="39.57514" lon="2.64387">
        <ele>19.0</ele>
        <time>2022-05-14T10:34:49.525Z</time>
      </trkpt>
      <trkpt lat="39.57509667" lon="2.64385">
        <ele>19.0</ele>
        <time>2022-05-14T10:34:50.525Z</time>
      </trkpt>
      <trkpt lat="39.57505333" lon="2.64382833">
        <ele>19.0</ele>
        <time>2022-05-14T10:34:51.526Z</time>
      </trkpt>
      <trkpt lat="39.57500667" lon="2.643805">
        <ele>19.0</ele>
        <time>2022-05-14T10:34:52.526Z</time>
      </trkpt>
      <trkpt lat="39.574955" lon="2.64378667">
        <ele>19.0</ele>
        <time>2022-05-14T10:34:53.525Z</time>
      </trkpt>
      <trkpt lat="39.57491" lon="2.64377167">
        <ele>19.0</ele>
        <time>2022-05-14T10:34:54.526Z</time>
      </trkpt>
      <trkpt lat="39.57486333" lon="2.64375333">
        <ele>19.0</ele>
        <time>2022-05-14T10:34:55.526Z</time>
      </trkpt>
      <trkpt lat="39.574815" lon="2.64373667">
        <ele>19.0</ele>
        <time>2022-05-14T10:34:56.526Z</time>
      </trkpt>
      <trkpt lat="39.57476333" lon="2.64371667">
        <ele>19.0</ele>
        <time>2022-05-14T10:34:57.526Z</time>
      </trkpt>
      <trkpt lat="39.57471167" lon="2.643695">
        <ele>19.0</ele>
        <time>2022-05-14T10:34:58.526Z</time>
      </trkpt>
      <trkpt lat="39.57466333" lon="2.643675">
        <ele>19.0</ele>
        <time>2022-05-14T10:34:59.526Z</time>
      </trkpt>
      <trkpt lat="39.57460833" lon="2.64365667">
        <ele>19.0</ele>
        <time>2022-05-14T10:35:00.525Z</time>
      </trkpt>
      <trkpt lat="39.57456333" lon="2.64363833">
        <ele>19.0</ele>
        <time>2022-05-14T10:35:01.526Z</time>
      </trkpt>
      <trkpt lat="39.574525" lon="2.64362333">
        <ele>19.0</ele>
        <time>2022-05-14T10:35:02.526Z</time>
      </trkpt>
      <trkpt lat="39.57449167" lon="2.64360833">
        <ele>19.0</ele>
        <time>2022-05-14T10:35:03.526Z</time>
      </trkpt>
      <trkpt lat="39.574455" lon="2.64359333">
        <ele>19.0</ele>
        <time>2022-05-14T10:35:04.525Z</time>
      </trkpt>
      <trkpt lat="39.57441333" lon="2.64357833">
        <ele>19.0</ele>
        <time>2022-05-14T10:35:05.526Z</time>
      </trkpt>
      <trkpt lat="39.57437" lon="2.64356">
        <ele>19.0</ele>
        <time>2022-05-14T10:35:06.525Z</time>
      </trkpt>
      <trkpt lat="39.57432833" lon="2.64353667">
        <ele>19.0</ele>
        <time>2022-05-14T10:35:07.525Z</time>
      </trkpt>
      <trkpt lat="39.57429333" lon="2.64351">
        <ele>19.0</ele>
        <time>2022-05-14T10:35:08.525Z</time>
      </trkpt>
      <trkpt lat="39.57426333" lon="2.64348167">
        <ele>20.0</ele>
        <time>2022-05-14T10:35:09.526Z</time>
      </trkpt>
      <trkpt lat="39.57423833" lon="2.64344833">
        <ele>20.0</ele>
        <time>2022-05-14T10:35:10.526Z</time>
      </trkpt>
      <trkpt lat="39.57421333" lon="2.64341333">
        <ele>20.0</ele>
        <time>2022-05-14T10:35:11.526Z</time>
      </trkpt>
      <trkpt lat="39.57418667" lon="2.64337333">
        <ele>20.0</ele>
        <time>2022-05-14T10:35:12.526Z</time>
      </trkpt>
      <trkpt lat="39.57416333" lon="2.64333167">
        <ele>21.0</ele>
        <time>2022-05-14T10:35:13.525Z</time>
      </trkpt>
      <trkpt lat="39.57414" lon="2.64329">
        <ele>21.0</ele>
        <time>2022-05-14T10:35:14.526Z</time>
      </trkpt>
      <trkpt lat="39.57412" lon="2.64324667">
        <ele>21.0</ele>
        <time>2022-05-14T10:35:15.526Z</time>
      </trkpt>
      <trkpt lat="39.574095" lon="2.64320333">
        <ele>22.0</ele>
        <time>2022-05-14T10:35:16.526Z</time>
      </trkpt>
      <trkpt lat="39.57406833" lon="2.64315333">
        <ele>22.0</ele>
        <time>2022-05-14T10:35:17.526Z</time>
      </trkpt>
      <trkpt lat="39.57403833" lon="2.64310167">
        <ele>22.0</ele>
        <time>2022-05-14T10:35:18.525Z</time>
      </trkpt>
      <trkpt lat="39.57401" lon="2.64304833">
        <ele>23.0</ele>
        <time>2022-05-14T10:35:19.526Z</time>
      </trkpt>
      <trkpt lat="39.57398333" lon="2.642995">
        <ele>23.0</ele>
        <time>2022-05-14T10:35:20.525Z</time>
      </trkpt>
      <trkpt lat="39.573955" lon="2.642945">
        <ele>24.0</ele>
        <time>2022-05-14T10:35:21.525Z</time>
      </trkpt>
      <trkpt lat="39.57392167" lon="2.64289333">
        <ele>24.0</ele>
        <time>2022-05-14T10:35:22.526Z</time>
      </trkpt>
      <trkpt lat="39.57388833" lon="2.64284167">
        <ele>25.0</ele>
        <time>2022-05-14T10:35:23.526Z</time>
      </trkpt>
      <trkpt lat="39.57386167" lon="2.64278667">
        <ele>25.0</ele>
        <time>2022-05-14T10:35:24.525Z</time>
      </trkpt>
      <trkpt lat="39.57383667" lon="2.642735">
        <ele>25.0</ele>
        <time>2022-05-14T10:35:25.525Z</time>
      </trkpt>
      <trkpt lat="39.57381167" lon="2.64268833">
        <ele>26.0</ele>
        <time>2022-05-14T10:35:26.526Z</time>
      </trkpt>
      <trkpt lat="39.57378333" lon="2.64263833">
        <ele>26.0</ele>
        <time>2022-05-14T10:35:27.525Z</time>
      </trkpt>
      <trkpt lat="39.57375167" lon="2.64258667">
        <ele>26.0</ele>
        <time>2022-05-14T10:35:28.526Z</time>
      </trkpt>
      <trkpt lat="39.57371667" lon="2.64253167">
        <ele>26.0</ele>
        <time>2022-05-14T10:35:29.525Z</time>
      </trkpt>
      <trkpt lat="39.57368" lon="2.64247833">
        <ele>25.0</ele>
        <time>2022-05-14T10:35:30.526Z</time>
      </trkpt>
      <trkpt lat="39.573645" lon="2.64242333">
        <ele>25.0</ele>
        <time>2022-05-14T10:35:31.526Z</time>
      </trkpt>
      <trkpt lat="39.57361333" lon="2.642365">
        <ele>25.0</ele>
        <time>2022-05-14T10:35:32.526Z</time>
      </trkpt>
      <trkpt lat="39.57357833" lon="2.64231">
        <ele>24.0</ele>
        <time>2022-05-14T10:35:33.525Z</time>
      </trkpt>
      <trkpt lat="39.57354" lon="2.64225667">
        <ele>24.0</ele>
        <time>2022-05-14T10:35:34.525Z</time>
      </trkpt>
      <trkpt lat="39.573505" lon="2.64220167">
        <ele>24.0</ele>
        <time>2022-05-14T10:35:35.526Z</time>
      </trkpt>
      <trkpt lat="39.57347167" lon="2.64215">
        <ele>24.0</ele>
        <time>2022-05-14T10:35:36.526Z</time>
      </trkpt>
      <trkpt lat="39.57344" lon="2.6421">
        <ele>24.0</ele>
        <time>2022-05-14T10:35:37.526Z</time>
      </trkpt>
      <trkpt lat="39.57340833" lon="2.64205">
        <ele>24.0</ele>
        <time>2022-05-14T10:35:38.526Z</time>
      </trkpt>
      <trkpt lat="39.57338167" lon="2.64200667">
        <ele>25.0</ele>
        <time>2022-05-14T10:35:39.525Z</time>
      </trkpt>
      <trkpt lat="39.573355" lon="2.64196167">
        <ele>25.0</ele>
        <time>2022-05-14T10:35:40.526Z</time>
      </trkpt>
      <trkpt lat="39.57333" lon="2.64191833">
        <ele>25.0</ele>
        <time>2022-05-14T10:35:41.526Z</time>
      </trkpt>
      <trkpt lat="39.57329667" lon="2.64187667">
        <ele>25.0</ele>
        <time>2022-05-14T10:35:42.525Z</time>
      </trkpt>
      <trkpt lat="39.57325833" lon="2.64184667">
        <ele>25.0</ele>
        <time>2022-05-14T10:35:43.525Z</time>
      </trkpt>
      <trkpt lat="39.57323" lon="2.641835">
        <ele>25.0</ele>
        <time>2022-05-14T10:35:44.525Z</time>
      </trkpt>
      <trkpt lat="39.57319833" lon="2.641825">
        <ele>25.0</ele>
        <time>2022-05-14T10:35:45.525Z</time>
      </trkpt>
      <trkpt lat="39.57318333" lon="2.64182">
        <ele>25.0</ele>
        <time>2022-05-14T10:35:46.526Z</time>
      </trkpt>
      <trkpt lat="39.57316833" lon="2.64180833">
        <ele>25.0</ele>
        <time>2022-05-14T10:35:47.525Z</time>
      </trkpt>
      <trkpt lat="39.57315167" lon="2.64180167">
        <ele>25.0</ele>
        <time>2022-05-14T10:35:48.525Z</time>
      </trkpt>
      <trkpt lat="39.57313667" lon="2.64179667">
        <ele>25.0</ele>
        <time>2022-05-14T10:35:49.526Z</time>
      </trkpt>
      <trkpt lat="39.57311333" lon="2.64179167">
        <ele>25.0</ele>
        <time>2022-05-14T10:35:50.525Z</time>
      </trkpt>
      <trkpt lat="39.573085" lon="2.64178">
        <ele>24.0</ele>
        <time>2022-05-14T10:35:51.525Z</time>
      </trkpt>
      <trkpt lat="39.57305" lon="2.64177167">
        <ele>24.0</ele>
        <time>2022-05-14T10:35:52.525Z</time>
      </trkpt>
      <trkpt lat="39.57301333" lon="2.641765">
        <ele>24.0</ele>
        <time>2022-05-14T10:35:53.526Z</time>
      </trkpt>
      <trkpt lat="39.57297667" lon="2.64175667">
        <ele>24.0</ele>
        <time>2022-05-14T10:35:54.525Z</time>
      </trkpt>
      <trkpt lat="39.57294167" lon="2.64175">
        <ele>23.0</ele>
        <time>2022-05-14T10:35:55.525Z</time>
      </trkpt>
      <trkpt lat="39.57291167" lon="2.64174333">
        <ele>23.0</ele>
        <time>2022-05-14T10:35:56.525Z</time>
      </trkpt>
      <trkpt lat="39.57288333" lon="2.641735">
        <ele>23.0</ele>
        <time>2022-05-14T10:35:57.526Z</time>
      </trkpt>
      <trkpt lat="39.57285833" lon="2.64172667">
        <ele>23.0</ele>
        <time>2022-05-14T10:35:58.526Z</time>
      </trkpt>
      <trkpt lat="39.57283333" lon="2.64172167">
        <ele>22.0</ele>
        <time>2022-05-14T10:35:59.525Z</time>
      </trkpt>
      <trkpt lat="39.57280667" lon="2.641715">
        <ele>22.0</ele>
        <time>2022-05-14T10:36:00.525Z</time>
      </trkpt>
      <trkpt lat="39.572775" lon="2.64170333">
        <ele>22.0</ele>
        <time>2022-05-14T10:36:01.526Z</time>
      </trkpt>
      <trkpt lat="39.57275333" lon="2.641695">
        <ele>21.0</ele>
        <time>2022-05-14T10:36:02.526Z</time>
      </trkpt>
      <trkpt lat="39.57272167" lon="2.64168833">
        <ele>21.0</ele>
        <time>2022-05-14T10:36:03.526Z</time>
      </trkpt>
      <trkpt lat="39.57269333" lon="2.641685">
        <ele>21.0</ele>
        <time>2022-05-14T10:36:04.526Z</time>
      </trkpt>
      <trkpt lat="39.572665" lon="2.64168333">
        <ele>21.0</ele>
        <time>2022-05-14T10:36:05.526Z</time>
      </trkpt>
      <trkpt lat="39.572635" lon="2.64168333">
        <ele>21.0</ele>
        <time>2022-05-14T10:36:06.526Z</time>
      </trkpt>
      <trkpt lat="39.572605" lon="2.641685">
        <ele>21.0</ele>
        <time>2022-05-14T10:36:07.526Z</time>
      </trkpt>
      <trkpt lat="39.572575" lon="2.64168833">
        <ele>21.0</ele>
        <time>2022-05-14T10:36:08.526Z</time>
      </trkpt>
      <trkpt lat="39.57254167" lon="2.64169">
        <ele>21.0</ele>
        <time>2022-05-14T10:36:09.526Z</time>
      </trkpt>
      <trkpt lat="39.57251" lon="2.64168833">
        <ele>20.0</ele>
        <time>2022-05-14T10:36:10.526Z</time>
      </trkpt>
      <trkpt lat="39.57247833" lon="2.64168333">
        <ele>20.0</ele>
        <time>2022-05-14T10:36:11.525Z</time>
      </trkpt>
      <trkpt lat="39.57244333" lon="2.64167833">
        <ele>19.0</ele>
        <time>2022-05-14T10:36:12.525Z</time>
      </trkpt>
      <trkpt lat="39.57241167" lon="2.64167333">
        <ele>19.0</ele>
        <time>2022-05-14T10:36:13.526Z</time>
      </trkpt>
      <trkpt lat="39.57238" lon="2.64166833">
        <ele>19.0</ele>
        <time>2022-05-14T10:36:14.525Z</time>
      </trkpt>
      <trkpt lat="39.57235167" lon="2.641665">
        <ele>18.0</ele>
        <time>2022-05-14T10:36:15.526Z</time>
      </trkpt>
      <trkpt lat="39.57232333" lon="2.64166333">
        <ele>18.0</ele>
        <time>2022-05-14T10:36:16.526Z</time>
      </trkpt>
      <trkpt lat="39.57229167" lon="2.64165667">
        <ele>18.0</ele>
        <time>2022-05-14T10:36:17.526Z</time>
      </trkpt>
      <trkpt lat="39.572255" lon="2.64164833">
        <ele>17.0</ele>
        <time>2022-05-14T10:36:18.525Z</time>
      </trkpt>
      <trkpt lat="39.572215" lon="2.64163833">
        <ele>17.0</ele>
        <time>2022-05-14T10:36:19.526Z</time>
      </trkpt>
      <trkpt lat="39.57217333" lon="2.64162833">
        <ele>17.0</ele>
        <time>2022-05-14T10:36:20.526Z</time>
      </trkpt>
      <trkpt lat="39.57213" lon="2.64161833">
        <ele>17.0</ele>
        <time>2022-05-14T10:36:21.526Z</time>
      </trkpt>
      <trkpt lat="39.57208667" lon="2.64161">
        <ele>17.0</ele>
        <time>2022-05-14T10:36:22.525Z</time>
      </trkpt>
      <trkpt lat="39.57204167" lon="2.6416">
        <ele>17.0</ele>
        <time>2022-05-14T10:36:23.525Z</time>
      </trkpt>
      <trkpt lat="39.57199667" lon="2.64159167">
        <ele>17.0</ele>
        <time>2022-05-14T10:36:24.526Z</time>
      </trkpt>
      <trkpt lat="39.57195167" lon="2.64158667">
        <ele>18.0</ele>
        <time>2022-05-14T10:36:25.526Z</time>
      </trkpt>
      <trkpt lat="39.571905" lon="2.64158">
        <ele>18.0</ele>
        <time>2022-05-14T10:36:26.525Z</time>
      </trkpt>
      <trkpt lat="39.57185833" lon="2.64157667">
        <ele>18.0</ele>
        <time>2022-05-14T10:36:27.526Z</time>
      </trkpt>
      <trkpt lat="39.57181333" lon="2.64156667">
        <ele>18.0</ele>
        <time>2022-05-14T10:36:28.525Z</time>
      </trkpt>
      <trkpt lat="39.57176833" lon="2.64155833">
        <ele>18.0</ele>
        <time>2022-05-14T10:36:29.525Z</time>
      </trkpt>
      <trkpt lat="39.57172333" lon="2.64155">
        <ele>18.0</ele>
        <time>2022-05-14T10:36:30.526Z</time>
      </trkpt>
      <trkpt lat="39.57168" lon="2.64154333">
        <ele>18.0</ele>
        <time>2022-05-14T10:36:31.525Z</time>
      </trkpt>
      <trkpt lat="39.57163667" lon="2.641535">
        <ele>18.0</ele>
        <time>2022-05-14T10:36:32.525Z</time>
      </trkpt>
      <trkpt lat="39.571595" lon="2.64152667">
        <ele>18.0</ele>
        <time>2022-05-14T10:36:33.525Z</time>
      </trkpt>
      <trkpt lat="39.57155833" lon="2.64151667">
        <ele>18.0</ele>
        <time>2022-05-14T10:36:34.525Z</time>
      </trkpt>
      <trkpt lat="39.57152333" lon="2.64150667">
        <ele>18.0</ele>
        <time>2022-05-14T10:36:35.526Z</time>
      </trkpt>
      <trkpt lat="39.57148667" lon="2.641495">
        <ele>18.0</ele>
        <time>2022-05-14T10:36:36.526Z</time>
      </trkpt>
      <trkpt lat="39.57145333" lon="2.641485">
        <ele>18.0</ele>
        <time>2022-05-14T10:36:37.526Z</time>
      </trkpt>
      <trkpt lat="39.57142667" lon="2.641465">
        <ele>17.0</ele>
        <time>2022-05-14T10:36:38.525Z</time>
      </trkpt>
      <trkpt lat="39.57140667" lon="2.64144">
        <ele>17.0</ele>
        <time>2022-05-14T10:36:39.525Z</time>
      </trkpt>
      <trkpt lat="39.57138667" lon="2.64141167">
        <ele>16.0</ele>
        <time>2022-05-14T10:36:40.525Z</time>
      </trkpt>
      <trkpt lat="39.571365" lon="2.64138333">
        <ele>16.0</ele>
        <time>2022-05-14T10:36:41.526Z</time>
      </trkpt>
      <trkpt lat="39.571345" lon="2.64136167">
        <ele>16.0</ele>
        <time>2022-05-14T10:36:42.525Z</time>
      </trkpt>
      <trkpt lat="39.57131167" lon="2.64132833">
        <ele>16.0</ele>
        <time>2022-05-14T10:36:43.525Z</time>
      </trkpt>
      <trkpt lat="39.57128167" lon="2.64129833">
        <ele>17.0</ele>
        <time>2022-05-14T10:36:44.526Z</time>
      </trkpt>
      <trkpt lat="39.57124667" lon="2.64126667">
        <ele>17.0</ele>
        <time>2022-05-14T10:36:45.526Z</time>
      </trkpt>
      <trkpt lat="39.57121333" lon="2.64123833">
        <ele>17.0</ele>
        <time>2022-05-14T10:36:46.526Z</time>
      </trkpt>
      <trkpt lat="39.571185" lon="2.64121333">
        <ele>18.0</ele>
        <time>2022-05-14T10:36:47.525Z</time>
      </trkpt>
      <trkpt lat="39.57114167" lon="2.64117167">
        <ele>18.0</ele>
        <time>2022-05-14T10:36:48.526Z</time>
      </trkpt>
      <trkpt lat="39.57110333" lon="2.641135">
        <ele>18.0</ele>
        <time>2022-05-14T10:36:49.526Z</time>
      </trkpt>
      <trkpt lat="39.57106" lon="2.6411">
        <ele>17.0</ele>
        <time>2022-05-14T10:36:50.525Z</time>
      </trkpt>
      <trkpt lat="39.57101167" lon="2.64106667">
        <ele>16.0</ele>
        <time>2022-05-14T10:36:51.525Z</time>
      </trkpt>
      <trkpt lat="39.570965" lon="2.64102333">
        <ele>16.0</ele>
        <time>2022-05-14T10:36:52.526Z</time>
      </trkpt>
      <trkpt lat="39.570915" lon="2.640975">
        <ele>15.0</ele>
        <time>2022-05-14T10:36:53.526Z</time>
      </trkpt>
      <trkpt lat="39.57086333" lon="2.64092667">
        <ele>15.0</ele>
        <time>2022-05-14T10:36:54.525Z</time>
      </trkpt>
      <trkpt lat="39.57081" lon="2.64087667">
        <ele>14.0</ele>
        <time>2022-05-14T10:36:55.525Z</time>
      </trkpt>
      <trkpt lat="39.57075833" lon="2.64082">
        <ele>14.0</ele>
        <time>2022-05-14T10:36:56.525Z</time>
      </trkpt>
      <trkpt lat="39.57070667" lon="2.640765">
        <ele>14.0</ele>
        <time>2022-05-14T10:36:57.525Z</time>
      </trkpt>
      <trkpt lat="39.57065333" lon="2.64071">
        <ele>13.0</ele>
        <time>2022-05-14T10:36:58.526Z</time>
      </trkpt>
      <trkpt lat="39.570595" lon="2.64065333">
        <ele>13.0</ele>
        <time>2022-05-14T10:36:59.526Z</time>
      </trkpt>
      <trkpt lat="39.57053667" lon="2.64059333">
        <ele>13.0</ele>
        <time>2022-05-14T10:37:00.525Z</time>
      </trkpt>
      <trkpt lat="39.57048" lon="2.64053667">
        <ele>13.0</ele>
        <time>2022-05-14T10:37:01.525Z</time>
      </trkpt>
      <trkpt lat="39.570425" lon="2.64047667">
        <ele>13.0</ele>
        <time>2022-05-14T10:37:02.525Z</time>
      </trkpt>
      <trkpt lat="39.57037" lon="2.64041667">
        <ele>13.0</ele>
        <time>2022-05-14T10:37:03.526Z</time>
      </trkpt>
      <trkpt lat="39.57031333" lon="2.64035667">
        <ele>13.0</ele>
        <time>2022-05-14T10:37:04.525Z</time>
      </trkpt>
      <trkpt lat="39.57026167" lon="2.64030167">
        <ele>12.0</ele>
        <time>2022-05-14T10:37:05.526Z</time>
      </trkpt>
      <trkpt lat="39.57021" lon="2.64024833">
        <ele>12.0</ele>
        <time>2022-05-14T10:37:06.526Z</time>
      </trkpt>
      <trkpt lat="39.570155" lon="2.64019833">
        <ele>12.0</ele>
        <time>2022-05-14T10:37:07.526Z</time>
      </trkpt>
      <trkpt lat="39.57010333" lon="2.64014667">
        <ele>11.0</ele>
        <time>2022-05-14T10:37:08.525Z</time>
      </trkpt>
      <trkpt lat="39.570055" lon="2.6401">
        <ele>11.0</ele>
        <time>2022-05-14T10:37:09.525Z</time>
      </trkpt>
      <trkpt lat="39.57001333" lon="2.64005667">
        <ele>10.0</ele>
        <time>2022-05-14T10:37:10.526Z</time>
      </trkpt>
      <trkpt lat="39.56998167" lon="2.64002667">
        <ele>10.0</ele>
        <time>2022-05-14T10:37:11.525Z</time>
      </trkpt>
      <trkpt lat="39.56995667" lon="2.64000833">
        <ele>10.0</ele>
        <time>2022-05-14T10:37:12.525Z</time>
      </trkpt>
      <trkpt lat="39.569935" lon="2.63998833">
        <ele>9.0</ele>
        <time>2022-05-14T10:37:13.526Z</time>
      </trkpt>
      <trkpt lat="39.569915" lon="2.63996667">
        <ele>8.0</ele>
        <time>2022-05-14T10:37:14.525Z</time>
      </trkpt>
      <trkpt lat="39.56989167" lon="2.63994333">
        <ele>8.0</ele>
        <time>2022-05-14T10:37:15.525Z</time>
      </trkpt>
      <trkpt lat="39.56986667" lon="2.63992333">
        <ele>7.0</ele>
        <time>2022-05-14T10:37:16.526Z</time>
      </trkpt>
      <trkpt lat="39.56984" lon="2.6399">
        <ele>7.0</ele>
        <time>2022-05-14T10:37:17.526Z</time>
      </trkpt>
      <trkpt lat="39.569815" lon="2.63987667">
        <ele>7.0</ele>
        <time>2022-05-14T10:37:18.526Z</time>
      </trkpt>
      <trkpt lat="39.56978833" lon="2.63985333">
        <ele>7.0</ele>
        <time>2022-05-14T10:37:19.526Z</time>
      </trkpt>
      <trkpt lat="39.56975833" lon="2.63983167">
        <ele>7.0</ele>
        <time>2022-05-14T10:37:20.525Z</time>
      </trkpt>
      <trkpt lat="39.56973167" lon="2.63981333">
        <ele>6.0</ele>
        <time>2022-05-14T10:37:21.526Z</time>
      </trkpt>
      <trkpt lat="39.56971" lon="2.63979833">
        <ele>6.0</ele>
        <time>2022-05-14T10:37:22.526Z</time>
      </trkpt>
      <trkpt lat="39.569685" lon="2.63978">
        <ele>6.0</ele>
        <time>2022-05-14T10:37:23.525Z</time>
      </trkpt>
      <trkpt lat="39.56966" lon="2.63976">
        <ele>6.0</ele>
        <time>2022-05-14T10:37:24.526Z</time>
      </trkpt>
      <trkpt lat="39.569635" lon="2.63973833">
        <ele>6.0</ele>
        <time>2022-05-14T10:37:25.526Z</time>
      </trkpt>
      <trkpt lat="39.56960667" lon="2.63970833">
        <ele>6.0</ele>
        <time>2022-05-14T10:37:26.526Z</time>
      </trkpt>
      <trkpt lat="39.56958" lon="2.63966667">
        <ele>6.0</ele>
        <time>2022-05-14T10:37:27.526Z</time>
      </trkpt>
      <trkpt lat="39.56954333" lon="2.639635">
        <ele>5.0</ele>
        <time>2022-05-14T10:37:28.525Z</time>
      </trkpt>
      <trkpt lat="39.5695" lon="2.63962">
        <ele>5.0</ele>
        <time>2022-05-14T10:37:29.526Z</time>
      </trkpt>
      <trkpt lat="39.569455" lon="2.63961667">
        <ele>5.0</ele>
        <time>2022-05-14T10:37:30.525Z</time>
      </trkpt>
      <trkpt lat="39.56942" lon="2.639615">
        <ele>5.0</ele>
        <time>2022-05-14T10:37:31.526Z</time>
      </trkpt>
      <trkpt lat="39.56939833" lon="2.639615">
        <ele>4.0</ele>
        <time>2022-05-14T10:37:32.525Z</time>
      </trkpt>
      <trkpt lat="39.56938667" lon="2.63961167">
        <ele>4.0</ele>
        <time>2022-05-14T10:37:33.525Z</time>
      </trkpt>
      <trkpt lat="39.56938" lon="2.63960667">
        <ele>4.0</ele>
        <time>2022-05-14T10:37:34.526Z</time>
      </trkpt>
      <trkpt lat="39.569375" lon="2.639605">
        <ele>4.0</ele>
        <time>2022-05-14T10:37:35.526Z</time>
      </trkpt>
      <trkpt lat="39.56937333" lon="2.63960333">
        <ele>3.0</ele>
        <time>2022-05-14T10:37:36.526Z</time>
      </trkpt>
      <trkpt lat="39.56937667" lon="2.639605">
        <ele>3.0</ele>
        <time>2022-05-14T10:37:37.525Z</time>
      </trkpt>
      <trkpt lat="39.56937333" lon="2.639605">
        <ele>3.0</ele>
        <time>2022-05-14T10:37:38.526Z</time>
      </trkpt>
      <trkpt lat="39.56937333" lon="2.639605">
        <ele>3.0</ele>
        <time>2022-05-14T10:37:39.526Z</time>
      </trkpt>
      <trkpt lat="39.56937333" lon="2.63961">
        <ele>3.0</ele>
        <time>2022-05-14T10:37:40.526Z</time>
      </trkpt>
      <trkpt lat="39.56937333" lon="2.63961833">
        <ele>4.0</ele>
        <time>2022-05-14T10:37:41.526Z</time>
      </trkpt>
      <trkpt lat="39.56936833" lon="2.63962833">
        <ele>4.0</ele>
        <time>2022-05-14T10:37:42.525Z</time>
      </trkpt>
      <trkpt lat="39.56937167" lon="2.63963833">
        <ele>5.0</ele>
        <time>2022-05-14T10:37:43.526Z</time>
      </trkpt>
      <trkpt lat="39.56936667" lon="2.63964167">
        <ele>5.0</ele>
        <time>2022-05-14T10:37:44.525Z</time>
      </trkpt>
      <trkpt lat="39.56935333" lon="2.63965333">
        <ele>6.0</ele>
        <time>2022-05-14T10:37:45.525Z</time>
      </trkpt>
      <trkpt lat="39.569345" lon="2.63965667">
        <ele>6.0</ele>
        <time>2022-05-14T10:37:46.526Z</time>
      </trkpt>
      <trkpt lat="39.56935167" lon="2.63965">
        <ele>7.0</ele>
        <time>2022-05-14T10:37:47.526Z</time>
      </trkpt>
      <trkpt lat="39.56935167" lon="2.63965">
        <ele>7.0</ele>
        <time>2022-05-14T10:37:48.525Z</time>
      </trkpt>
      <trkpt lat="39.56935167" lon="2.63965">
        <ele>8.0</ele>
        <time>2022-05-14T10:37:49.526Z</time>
      </trkpt>
      <trkpt lat="39.56935167" lon="2.63965">
        <ele>8.0</ele>
        <time>2022-05-14T10:37:50.526Z</time>
      </trkpt>
      <trkpt lat="39.56935167" lon="2.63965">
        <ele>8.0</ele>
        <time>2022-05-14T10:37:51.525Z</time>
      </trkpt>
      <trkpt lat="39.56935167" lon="2.63965">
        <ele>9.0</ele>
        <time>2022-05-14T10:37:52.525Z</time>
      </trkpt>
      <trkpt lat="39.56935167" lon="2.63965">
        <ele>9.0</ele>
        <time>2022-05-14T10:37:53.526Z</time>
      </trkpt>
      <trkpt lat="39.56935167" lon="2.63965">
        <ele>9.0</ele>
        <time>2022-05-14T10:37:54.526Z</time>
      </trkpt>
      <trkpt lat="39.56935167" lon="2.63965">
        <ele>10.0</ele>
        <time>2022-05-14T10:37:55.526Z</time>
      </trkpt>
      <trkpt lat="39.56935333" lon="2.63965">
        <ele>10.0</ele>
        <time>2022-05-14T10:37:56.526Z</time>
      </trkpt>
      <trkpt lat="39.56935167" lon="2.63965">
        <ele>10.0</ele>
        <time>2022-05-14T10:37:57.526Z</time>
      </trkpt>
      <trkpt lat="39.56933167" lon="2.63965333">
        <ele>11.0</ele>
        <time>2022-05-14T10:37:58.526Z</time>
      </trkpt>
      <trkpt lat="39.569305" lon="2.63965833">
        <ele>10.0</ele>
        <time>2022-05-14T10:37:59.525Z</time>
      </trkpt>
      <trkpt lat="39.56927333" lon="2.63965833">
        <ele>10.0</ele>
        <time>2022-05-14T10:38:00.525Z</time>
      </trkpt>
      <trkpt lat="39.56925333" lon="2.63964333">
        <ele>10.0</ele>
        <time>2022-05-14T10:38:01.526Z</time>
      </trkpt>
      <trkpt lat="39.56924667" lon="2.63962333">
        <ele>9.0</ele>
        <time>2022-05-14T10:38:02.525Z</time>
      </trkpt>
      <trkpt lat="39.56924333" lon="2.63959333">
        <ele>9.0</ele>
        <time>2022-05-14T10:38:03.526Z</time>
      </trkpt>
      <trkpt lat="39.56923833" lon="2.63955833">
        <ele>9.0</ele>
        <time>2022-05-14T10:38:04.525Z</time>
      </trkpt>
      <trkpt lat="39.569235" lon="2.63952">
        <ele>8.0</ele>
        <time>2022-05-14T10:38:05.526Z</time>
      </trkpt>
      <trkpt lat="39.56923167" lon="2.63948333">
        <ele>8.0</ele>
        <time>2022-05-14T10:38:06.526Z</time>
      </trkpt>
      <trkpt lat="39.56922667" lon="2.639455">
        <ele>8.0</ele>
        <time>2022-05-14T10:38:07.526Z</time>
      </trkpt>
      <trkpt lat="39.56921" lon="2.63942167">
        <ele>8.0</ele>
        <time>2022-05-14T10:38:08.525Z</time>
      </trkpt>
      <trkpt lat="39.56919" lon="2.63939833">
        <ele>8.0</ele>
        <time>2022-05-14T10:38:09.526Z</time>
      </trkpt>
      <trkpt lat="39.56916833" lon="2.63937333">
        <ele>7.0</ele>
        <time>2022-05-14T10:38:10.525Z</time>
      </trkpt>
      <trkpt lat="39.56914333" lon="2.63935">
        <ele>7.0</ele>
        <time>2022-05-14T10:38:11.525Z</time>
      </trkpt>
      <trkpt lat="39.56912167" lon="2.63932333">
        <ele>6.0</ele>
        <time>2022-05-14T10:38:12.526Z</time>
      </trkpt>
      <trkpt lat="39.56910333" lon="2.63929833">
        <ele>6.0</ele>
        <time>2022-05-14T10:38:13.526Z</time>
      </trkpt>
      <trkpt lat="39.56908333" lon="2.63927167">
        <ele>5.0</ele>
        <time>2022-05-14T10:38:14.525Z</time>
      </trkpt>
      <trkpt lat="39.56906167" lon="2.63924333">
        <ele>5.0</ele>
        <time>2022-05-14T10:38:15.525Z</time>
      </trkpt>
      <trkpt lat="39.569045" lon="2.63922">
        <ele>5.0</ele>
        <time>2022-05-14T10:38:16.526Z</time>
      </trkpt>
      <trkpt lat="39.56901833" lon="2.63918333">
        <ele>6.0</ele>
        <time>2022-05-14T10:38:17.526Z</time>
      </trkpt>
      <trkpt lat="39.56899667" lon="2.63915">
        <ele>6.0</ele>
        <time>2022-05-14T10:38:18.526Z</time>
      </trkpt>
      <trkpt lat="39.56897333" lon="2.63911333">
        <ele>5.0</ele>
        <time>2022-05-14T10:38:19.526Z</time>
      </trkpt>
      <trkpt lat="39.56895167" lon="2.639075">
        <ele>5.0</ele>
        <time>2022-05-14T10:38:20.525Z</time>
      </trkpt>
      <trkpt lat="39.56893833" lon="2.63903333">
        <ele>5.0</ele>
        <time>2022-05-14T10:38:21.526Z</time>
      </trkpt>
      <trkpt lat="39.56893167" lon="2.63899">
        <ele>4.0</ele>
        <time>2022-05-14T10:38:22.526Z</time>
      </trkpt>
      <trkpt lat="39.56892833" lon="2.63894667">
        <ele>4.0</ele>
        <time>2022-05-14T10:38:23.525Z</time>
      </trkpt>
      <trkpt lat="39.56892833" lon="2.63890167">
        <ele>4.0</ele>
        <time>2022-05-14T10:38:24.525Z</time>
      </trkpt>
      <trkpt lat="39.56892833" lon="2.63885667">
        <ele>4.0</ele>
        <time>2022-05-14T10:38:25.526Z</time>
      </trkpt>
      <trkpt lat="39.56892833" lon="2.63881333">
        <ele>4.0</ele>
        <time>2022-05-14T10:38:26.526Z</time>
      </trkpt>
      <trkpt lat="39.56892167" lon="2.638775">
        <ele>4.0</ele>
        <time>2022-05-14T10:38:27.526Z</time>
      </trkpt>
      <trkpt lat="39.56891333" lon="2.63874667">
        <ele>4.0</ele>
        <time>2022-05-14T10:38:28.526Z</time>
      </trkpt>
      <trkpt lat="39.56891" lon="2.63871333">
        <ele>4.0</ele>
        <time>2022-05-14T10:38:29.525Z</time>
      </trkpt>
      <trkpt lat="39.56890667" lon="2.63867">
        <ele>4.0</ele>
        <time>2022-05-14T10:38:30.526Z</time>
      </trkpt>
      <trkpt lat="39.56890667" lon="2.63863167">
        <ele>3.0</ele>
        <time>2022-05-14T10:38:31.525Z</time>
      </trkpt>
      <trkpt lat="39.56890667" lon="2.63859">
        <ele>3.0</ele>
        <time>2022-05-14T10:38:32.525Z</time>
      </trkpt>
      <trkpt lat="39.56890667" lon="2.63854333">
        <ele>4.0</ele>
        <time>2022-05-14T10:38:33.526Z</time>
      </trkpt>
      <trkpt lat="39.56890667" lon="2.63849333">
        <ele>4.0</ele>
        <time>2022-05-14T10:38:34.526Z</time>
      </trkpt>
      <trkpt lat="39.56890667" lon="2.63844167">
        <ele>4.0</ele>
        <time>2022-05-14T10:38:35.526Z</time>
      </trkpt>
      <trkpt lat="39.568905" lon="2.63839">
        <ele>4.0</ele>
        <time>2022-05-14T10:38:36.526Z</time>
      </trkpt>
      <trkpt lat="39.56890667" lon="2.63833333">
        <ele>4.0</ele>
        <time>2022-05-14T10:38:37.525Z</time>
      </trkpt>
      <trkpt lat="39.56890833" lon="2.63827833">
        <ele>5.0</ele>
        <time>2022-05-14T10:38:38.525Z</time>
      </trkpt>
      <trkpt lat="39.56890833" lon="2.63822">
        <ele>5.0</ele>
        <time>2022-05-14T10:38:39.526Z</time>
      </trkpt>
      <trkpt lat="39.56890833" lon="2.638165">
        <ele>5.0</ele>
        <time>2022-05-14T10:38:40.526Z</time>
      </trkpt>
      <trkpt lat="39.56890833" lon="2.63810833">
        <ele>5.0</ele>
        <time>2022-05-14T10:38:41.525Z</time>
      </trkpt>
      <trkpt lat="39.56890833" lon="2.63805167">
        <ele>4.0</ele>
        <time>2022-05-14T10:38:42.526Z</time>
      </trkpt>
      <trkpt lat="39.56890833" lon="2.637995">
        <ele>4.0</ele>
        <time>2022-05-14T10:38:43.525Z</time>
      </trkpt>
      <trkpt lat="39.56890833" lon="2.63794333">
        <ele>4.0</ele>
        <time>2022-05-14T10:38:44.525Z</time>
      </trkpt>
      <trkpt lat="39.56890833" lon="2.63789167">
        <ele>4.0</ele>
        <time>2022-05-14T10:38:45.526Z</time>
      </trkpt>
      <trkpt lat="39.56891" lon="2.63784167">
        <ele>4.0</ele>
        <time>2022-05-14T10:38:46.526Z</time>
      </trkpt>
      <trkpt lat="39.56890833" lon="2.63779333">
        <ele>3.0</ele>
        <time>2022-05-14T10:38:47.525Z</time>
      </trkpt>
      <trkpt lat="39.56890833" lon="2.637745">
        <ele>3.0</ele>
        <time>2022-05-14T10:38:48.526Z</time>
      </trkpt>
      <trkpt lat="39.56890667" lon="2.637695">
        <ele>3.0</ele>
        <time>2022-05-14T10:38:49.526Z</time>
      </trkpt>
      <trkpt lat="39.56890667" lon="2.63765667">
        <ele>3.0</ele>
        <time>2022-05-14T10:38:50.525Z</time>
      </trkpt>
      <trkpt lat="39.56890667" lon="2.63760833">
        <ele>3.0</ele>
        <time>2022-05-14T10:38:51.526Z</time>
      </trkpt>
      <trkpt lat="39.56890667" lon="2.63755">
        <ele>3.0</ele>
        <time>2022-05-14T10:38:52.526Z</time>
      </trkpt>
      <trkpt lat="39.56890667" lon="2.6375">
        <ele>3.0</ele>
        <time>2022-05-14T10:38:53.526Z</time>
      </trkpt>
      <trkpt lat="39.568905" lon="2.63745167">
        <ele>3.0</ele>
        <time>2022-05-14T10:38:54.526Z</time>
      </trkpt>
      <trkpt lat="39.568905" lon="2.63741333">
        <ele>3.0</ele>
        <time>2022-05-14T10:38:55.526Z</time>
      </trkpt>
      <trkpt lat="39.56890333" lon="2.63736667">
        <ele>3.0</ele>
        <time>2022-05-14T10:38:56.525Z</time>
      </trkpt>
      <trkpt lat="39.56890333" lon="2.63731">
        <ele>3.0</ele>
        <time>2022-05-14T10:38:57.525Z</time>
      </trkpt>
      <trkpt lat="39.56890333" lon="2.63726167">
        <ele>3.0</ele>
        <time>2022-05-14T10:38:58.525Z</time>
      </trkpt>
      <trkpt lat="39.56890167" lon="2.63721333">
        <ele>3.0</ele>
        <time>2022-05-14T10:38:59.525Z</time>
      </trkpt>
      <trkpt lat="39.5689" lon="2.63717667">
        <ele>4.0</ele>
        <time>2022-05-14T10:39:00.526Z</time>
      </trkpt>
      <trkpt lat="39.568895" lon="2.63712">
        <ele>4.0</ele>
        <time>2022-05-14T10:39:01.525Z</time>
      </trkpt>
      <trkpt lat="39.56889167" lon="2.63707333">
        <ele>3.0</ele>
        <time>2022-05-14T10:39:02.525Z</time>
      </trkpt>
      <trkpt lat="39.56888833" lon="2.63702833">
        <ele>3.0</ele>
        <time>2022-05-14T10:39:03.526Z</time>
      </trkpt>
      <trkpt lat="39.568885" lon="2.636995">
        <ele>3.0</ele>
        <time>2022-05-14T10:39:04.525Z</time>
      </trkpt>
      <trkpt lat="39.56888167" lon="2.636955">
        <ele>2.0</ele>
        <time>2022-05-14T10:39:05.526Z</time>
      </trkpt>
      <trkpt lat="39.56887667" lon="2.63691167">
        <ele>2.0</ele>
        <time>2022-05-14T10:39:06.526Z</time>
      </trkpt>
      <trkpt lat="39.568875" lon="2.63687833">
        <ele>2.0</ele>
        <time>2022-05-14T10:39:07.525Z</time>
      </trkpt>
      <trkpt lat="39.56887333" lon="2.63684833">
        <ele>3.0</ele>
        <time>2022-05-14T10:39:08.525Z</time>
      </trkpt>
      <trkpt lat="39.56887" lon="2.63682333">
        <ele>3.0</ele>
        <time>2022-05-14T10:39:09.525Z</time>
      </trkpt>
      <trkpt lat="39.56886833" lon="2.63679333">
        <ele>3.0</ele>
        <time>2022-05-14T10:39:10.526Z</time>
      </trkpt>
      <trkpt lat="39.568865" lon="2.63676">
        <ele>4.0</ele>
        <time>2022-05-14T10:39:11.526Z</time>
      </trkpt>
      <trkpt lat="39.56886333" lon="2.63673333">
        <ele>4.0</ele>
        <time>2022-05-14T10:39:12.525Z</time>
      </trkpt>
      <trkpt lat="39.56886" lon="2.636705">
        <ele>4.0</ele>
        <time>2022-05-14T10:39:13.526Z</time>
      </trkpt>
      <trkpt lat="39.56885667" lon="2.63668167">
        <ele>3.0</ele>
        <time>2022-05-14T10:39:14.526Z</time>
      </trkpt>
      <trkpt lat="39.56885333" lon="2.63664833">
        <ele>3.0</ele>
        <time>2022-05-14T10:39:15.526Z</time>
      </trkpt>
      <trkpt lat="39.56884833" lon="2.63661833">
        <ele>3.0</ele>
        <time>2022-05-14T10:39:16.526Z</time>
      </trkpt>
      <trkpt lat="39.56884833" lon="2.63658667">
        <ele>2.0</ele>
        <time>2022-05-14T10:39:17.526Z</time>
      </trkpt>
      <trkpt lat="39.568845" lon="2.63655333">
        <ele>2.0</ele>
        <time>2022-05-14T10:39:18.525Z</time>
      </trkpt>
      <trkpt lat="39.56883833" lon="2.636515">
        <ele>2.0</ele>
        <time>2022-05-14T10:39:19.526Z</time>
      </trkpt>
      <trkpt lat="39.56883167" lon="2.636475">
        <ele>2.0</ele>
        <time>2022-05-14T10:39:20.526Z</time>
      </trkpt>
      <trkpt lat="39.56882667" lon="2.63643">
        <ele>2.0</ele>
        <time>2022-05-14T10:39:21.526Z</time>
      </trkpt>
      <trkpt lat="39.568825" lon="2.63639333">
        <ele>2.0</ele>
        <time>2022-05-14T10:39:22.525Z</time>
      </trkpt>
      <trkpt lat="39.56882333" lon="2.636345">
        <ele>2.0</ele>
        <time>2022-05-14T10:39:23.526Z</time>
      </trkpt>
      <trkpt lat="39.56882167" lon="2.63628833">
        <ele>2.0</ele>
        <time>2022-05-14T10:39:24.526Z</time>
      </trkpt>
      <trkpt lat="39.56881833" lon="2.63624">
        <ele>1.0</ele>
        <time>2022-05-14T10:39:25.525Z</time>
      </trkpt>
      <trkpt lat="39.568815" lon="2.63619167">
        <ele>1.0</ele>
        <time>2022-05-14T10:39:26.526Z</time>
      </trkpt>
      <trkpt lat="39.56881167" lon="2.63614333">
        <ele>1.0</ele>
        <time>2022-05-14T10:39:27.525Z</time>
      </trkpt>
      <trkpt lat="39.56880833" lon="2.63609667">
        <ele>1.0</ele>
        <time>2022-05-14T10:39:28.526Z</time>
      </trkpt>
      <trkpt lat="39.568805" lon="2.63604833">
        <ele>0.0</ele>
        <time>2022-05-14T10:39:29.526Z</time>
      </trkpt>
      <trkpt lat="39.5688" lon="2.636">
        <ele>0.0</ele>
        <time>2022-05-14T10:39:30.526Z</time>
      </trkpt>
      <trkpt lat="39.568795" lon="2.63596">
        <ele>0.0</ele>
        <time>2022-05-14T10:39:31.525Z</time>
      </trkpt>
      <trkpt lat="39.56878667" lon="2.63589833">
        <ele>0.0</ele>
        <time>2022-05-14T10:39:32.525Z</time>
      </trkpt>
      <trkpt lat="39.568775" lon="2.63584833">
        <ele>0.0</ele>
        <time>2022-05-14T10:39:33.525Z</time>
      </trkpt>
      <trkpt lat="39.56876167" lon="2.63579833">
        <ele>0.0</ele>
        <time>2022-05-14T10:39:34.526Z</time>
      </trkpt>
      <trkpt lat="39.56874667" lon="2.63574833">
        <ele>0.0</ele>
        <time>2022-05-14T10:39:35.525Z</time>
      </trkpt>
      <trkpt lat="39.56873333" lon="2.63570667">
        <ele>0.0</ele>
        <time>2022-05-14T10:39:36.525Z</time>
      </trkpt>
      <trkpt lat="39.568715" lon="2.63564333">
        <ele>0.0</ele>
        <time>2022-05-14T10:39:37.526Z</time>
      </trkpt>
      <trkpt lat="39.5687" lon="2.63559">
        <ele>0.0</ele>
        <time>2022-05-14T10:39:38.526Z</time>
      </trkpt>
      <trkpt lat="39.568685" lon="2.63553833">
        <ele>0.0</ele>
        <time>2022-05-14T10:39:39.525Z</time>
      </trkpt>
      <trkpt lat="39.56866833" lon="2.63548833">
        <ele>0.0</ele>
        <time>2022-05-14T10:39:40.525Z</time>
      </trkpt>
      <trkpt lat="39.568655" lon="2.635445">
        <ele>0.0</ele>
        <time>2022-05-14T10:39:41.525Z</time>
      </trkpt>
      <trkpt lat="39.56863833" lon="2.63538667">
        <ele>0.0</ele>
        <time>2022-05-14T10:39:42.526Z</time>
      </trkpt>
      <trkpt lat="39.56862333" lon="2.63534167">
        <ele>0.0</ele>
        <time>2022-05-14T10:39:43.525Z</time>
      </trkpt>
      <trkpt lat="39.56861" lon="2.63529333">
        <ele>0.0</ele>
        <time>2022-05-14T10:39:44.526Z</time>
      </trkpt>
      <trkpt lat="39.56859833" lon="2.635245">
        <ele>0.0</ele>
        <time>2022-05-14T10:39:45.525Z</time>
      </trkpt>
      <trkpt lat="39.568585" lon="2.63520333">
        <ele>0.0</ele>
        <time>2022-05-14T10:39:46.526Z</time>
      </trkpt>
      <trkpt lat="39.56858" lon="2.635165">
        <ele>0.0</ele>
        <time>2022-05-14T10:39:47.526Z</time>
      </trkpt>
      <trkpt lat="39.56858167" lon="2.63512667">
        <ele>0.0</ele>
        <time>2022-05-14T10:39:48.526Z</time>
      </trkpt>
      <trkpt lat="39.56858667" lon="2.6351">
        <ele>0.0</ele>
        <time>2022-05-14T10:39:49.526Z</time>
      </trkpt>
      <trkpt lat="39.5686" lon="2.63507167">
        <ele>0.0</ele>
        <time>2022-05-14T10:39:50.526Z</time>
      </trkpt>
      <trkpt lat="39.56862" lon="2.63504167">
        <ele>1.0</ele>
        <time>2022-05-14T10:39:51.526Z</time>
      </trkpt>
      <trkpt lat="39.56863667" lon="2.63501333">
        <ele>1.0</ele>
        <time>2022-05-14T10:39:52.526Z</time>
      </trkpt>
      <trkpt lat="39.56864833" lon="2.634985">
        <ele>1.0</ele>
        <time>2022-05-14T10:39:53.526Z</time>
      </trkpt>
      <trkpt lat="39.56865667" lon="2.63495167">
        <ele>1.0</ele>
        <time>2022-05-14T10:39:54.526Z</time>
      </trkpt>
      <trkpt lat="39.56866167" lon="2.634915">
        <ele>1.0</ele>
        <time>2022-05-14T10:39:55.525Z</time>
      </trkpt>
      <trkpt lat="39.56866667" lon="2.63487667">
        <ele>1.0</ele>
        <time>2022-05-14T10:39:56.525Z</time>
      </trkpt>
      <trkpt lat="39.56867167" lon="2.63483667">
        <ele>1.0</ele>
        <time>2022-05-14T10:39:57.525Z</time>
      </trkpt>
      <trkpt lat="39.56867333" lon="2.63479833">
        <ele>1.0</ele>
        <time>2022-05-14T10:39:58.525Z</time>
      </trkpt>
      <trkpt lat="39.56867333" lon="2.63476167">
        <ele>1.0</ele>
        <time>2022-05-14T10:39:59.526Z</time>
      </trkpt>
      <trkpt lat="39.568675" lon="2.63472333">
        <ele>1.0</ele>
        <time>2022-05-14T10:40:00.526Z</time>
      </trkpt>
      <trkpt lat="39.56867" lon="2.634685">
        <ele>1.0</ele>
        <time>2022-05-14T10:40:01.526Z</time>
      </trkpt>
      <trkpt lat="39.568665" lon="2.634645">
        <ele>1.0</ele>
        <time>2022-05-14T10:40:02.526Z</time>
      </trkpt>
      <trkpt lat="39.56866" lon="2.63460667">
        <ele>0.0</ele>
        <time>2022-05-14T10:40:03.526Z</time>
      </trkpt>
      <trkpt lat="39.56865333" lon="2.63457">
        <ele>0.0</ele>
        <time>2022-05-14T10:40:04.526Z</time>
      </trkpt>
      <trkpt lat="39.56864667" lon="2.63453167">
        <ele>0.0</ele>
        <time>2022-05-14T10:40:05.525Z</time>
      </trkpt>
      <trkpt lat="39.56864" lon="2.63448833">
        <ele>1.0</ele>
        <time>2022-05-14T10:40:06.526Z</time>
      </trkpt>
      <trkpt lat="39.568635" lon="2.63444167">
        <ele>1.0</ele>
        <time>2022-05-14T10:40:07.526Z</time>
      </trkpt>
      <trkpt lat="39.56863167" lon="2.63440167">
        <ele>1.0</ele>
        <time>2022-05-14T10:40:08.526Z</time>
      </trkpt>
      <trkpt lat="39.56862667" lon="2.634345">
        <ele>1.0</ele>
        <time>2022-05-14T10:40:09.525Z</time>
      </trkpt>
      <trkpt lat="39.56862333" lon="2.6343">
        <ele>1.0</ele>
        <time>2022-05-14T10:40:10.526Z</time>
      </trkpt>
      <trkpt lat="39.56861833" lon="2.63426">
        <ele>0.0</ele>
        <time>2022-05-14T10:40:11.526Z</time>
      </trkpt>
      <trkpt lat="39.56861667" lon="2.63423">
        <ele>0.0</ele>
        <time>2022-05-14T10:40:12.526Z</time>
      </trkpt>
      <trkpt lat="39.56861167" lon="2.63418667">
        <ele>0.0</ele>
        <time>2022-05-14T10:40:13.526Z</time>
      </trkpt>
      <trkpt lat="39.56861" lon="2.63415167">
        <ele>0.0</ele>
        <time>2022-05-14T10:40:14.526Z</time>
      </trkpt>
      <trkpt lat="39.56861333" lon="2.63411667">
        <ele>0.0</ele>
        <time>2022-05-14T10:40:15.526Z</time>
      </trkpt>
      <trkpt lat="39.56861667" lon="2.63409">
        <ele>0.0</ele>
        <time>2022-05-14T10:40:16.525Z</time>
      </trkpt>
      <trkpt lat="39.56862167" lon="2.634045">
        <ele>0.0</ele>
        <time>2022-05-14T10:40:17.525Z</time>
      </trkpt>
      <trkpt lat="39.56862333" lon="2.63400833">
        <ele>1.0</ele>
        <time>2022-05-14T10:40:18.526Z</time>
      </trkpt>
      <trkpt lat="39.56862333" lon="2.63396667">
        <ele>1.0</ele>
        <time>2022-05-14T10:40:19.526Z</time>
      </trkpt>
      <trkpt lat="39.56862" lon="2.63392667">
        <ele>1.0</ele>
        <time>2022-05-14T10:40:20.526Z</time>
      </trkpt>
      <trkpt lat="39.56861667" lon="2.63389333">
        <ele>2.0</ele>
        <time>2022-05-14T10:40:21.526Z</time>
      </trkpt>
      <trkpt lat="39.568615" lon="2.63384">
        <ele>2.0</ele>
        <time>2022-05-14T10:40:22.525Z</time>
      </trkpt>
      <trkpt lat="39.56861167" lon="2.63379333">
        <ele>1.0</ele>
        <time>2022-05-14T10:40:23.526Z</time>
      </trkpt>
      <trkpt lat="39.56860833" lon="2.63374667">
        <ele>1.0</ele>
        <time>2022-05-14T10:40:24.525Z</time>
      </trkpt>
      <trkpt lat="39.56860333" lon="2.63369667">
        <ele>1.0</ele>
        <time>2022-05-14T10:40:25.526Z</time>
      </trkpt>
      <trkpt lat="39.5686" lon="2.63364667">
        <ele>1.0</ele>
        <time>2022-05-14T10:40:26.526Z</time>
      </trkpt>
      <trkpt lat="39.56859667" lon="2.633595">
        <ele>1.0</ele>
        <time>2022-05-14T10:40:27.526Z</time>
      </trkpt>
      <trkpt lat="39.56859167" lon="2.63354167">
        <ele>0.0</ele>
        <time>2022-05-14T10:40:28.526Z</time>
      </trkpt>
      <trkpt lat="39.56858833" lon="2.63348833">
        <ele>1.0</ele>
        <time>2022-05-14T10:40:29.526Z</time>
      </trkpt>
      <trkpt lat="39.568585" lon="2.633435">
        <ele>1.0</ele>
        <time>2022-05-14T10:40:30.526Z</time>
      </trkpt>
      <trkpt lat="39.56858" lon="2.63338333">
        <ele>0.0</ele>
        <time>2022-05-14T10:40:31.525Z</time>
      </trkpt>
      <trkpt lat="39.568575" lon="2.63333167">
        <ele>0.0</ele>
        <time>2022-05-14T10:40:32.526Z</time>
      </trkpt>
      <trkpt lat="39.56857167" lon="2.63328167">
        <ele>0.0</ele>
        <time>2022-05-14T10:40:33.525Z</time>
      </trkpt>
      <trkpt lat="39.56856833" lon="2.633245">
        <ele>0.0</ele>
        <time>2022-05-14T10:40:34.525Z</time>
      </trkpt>
      <trkpt lat="39.568565" lon="2.63318833">
        <ele>0.0</ele>
        <time>2022-05-14T10:40:35.526Z</time>
      </trkpt>
      <trkpt lat="39.56856" lon="2.63314333">
        <ele>0.0</ele>
        <time>2022-05-14T10:40:36.525Z</time>
      </trkpt>
      <trkpt lat="39.568555" lon="2.63309833">
        <ele>1.0</ele>
        <time>2022-05-14T10:40:37.526Z</time>
      </trkpt>
      <trkpt lat="39.56854833" lon="2.63306167">
        <ele>1.0</ele>
        <time>2022-05-14T10:40:38.526Z</time>
      </trkpt>
      <trkpt lat="39.56854333" lon="2.63300833">
        <ele>1.0</ele>
        <time>2022-05-14T10:40:39.525Z</time>
      </trkpt>
      <trkpt lat="39.56854" lon="2.63296667">
        <ele>1.0</ele>
        <time>2022-05-14T10:40:40.525Z</time>
      </trkpt>
      <trkpt lat="39.56853167" lon="2.63292333">
        <ele>1.0</ele>
        <time>2022-05-14T10:40:41.526Z</time>
      </trkpt>
      <trkpt lat="39.568525" lon="2.63288833">
        <ele>1.0</ele>
        <time>2022-05-14T10:40:42.526Z</time>
      </trkpt>
      <trkpt lat="39.568515" lon="2.632845">
        <ele>1.0</ele>
        <time>2022-05-14T10:40:43.525Z</time>
      </trkpt>
      <trkpt lat="39.56850333" lon="2.63279333">
        <ele>1.0</ele>
        <time>2022-05-14T10:40:44.525Z</time>
      </trkpt>
      <trkpt lat="39.56849167" lon="2.63275167">
        <ele>2.0</ele>
        <time>2022-05-14T10:40:45.525Z</time>
      </trkpt>
      <trkpt lat="39.56847833" lon="2.63271167">
        <ele>2.0</ele>
        <time>2022-05-14T10:40:46.526Z</time>
      </trkpt>
      <trkpt lat="39.56846833" lon="2.63268333">
        <ele>2.0</ele>
        <time>2022-05-14T10:40:47.525Z</time>
      </trkpt>
      <trkpt lat="39.56846167" lon="2.63264">
        <ele>2.0</ele>
        <time>2022-05-14T10:40:48.525Z</time>
      </trkpt>
      <trkpt lat="39.56846333" lon="2.632605">
        <ele>2.0</ele>
        <time>2022-05-14T10:40:49.526Z</time>
      </trkpt>
      <trkpt lat="39.56846667" lon="2.63257167">
        <ele>2.0</ele>
        <time>2022-05-14T10:40:50.526Z</time>
      </trkpt>
      <trkpt lat="39.56846667" lon="2.632535">
        <ele>3.0</ele>
        <time>2022-05-14T10:40:51.525Z</time>
      </trkpt>
      <trkpt lat="39.56846667" lon="2.632505">
        <ele>3.0</ele>
        <time>2022-05-14T10:40:52.525Z</time>
      </trkpt>
      <trkpt lat="39.56846167" lon="2.63246167">
        <ele>3.0</ele>
        <time>2022-05-14T10:40:53.526Z</time>
      </trkpt>
      <trkpt lat="39.56845333" lon="2.632425">
        <ele>3.0</ele>
        <time>2022-05-14T10:40:54.526Z</time>
      </trkpt>
      <trkpt lat="39.56844333" lon="2.63238667">
        <ele>4.0</ele>
        <time>2022-05-14T10:40:55.525Z</time>
      </trkpt>
      <trkpt lat="39.56843333" lon="2.63234167">
        <ele>5.0</ele>
        <time>2022-05-14T10:40:56.525Z</time>
      </trkpt>
      <trkpt lat="39.56842" lon="2.63229833">
        <ele>6.0</ele>
        <time>2022-05-14T10:40:57.526Z</time>
      </trkpt>
      <trkpt lat="39.56841" lon="2.63225167">
        <ele>6.0</ele>
        <time>2022-05-14T10:40:58.526Z</time>
      </trkpt>
      <trkpt lat="39.568395" lon="2.63220333">
        <ele>6.0</ele>
        <time>2022-05-14T10:40:59.526Z</time>
      </trkpt>
      <trkpt lat="39.56838167" lon="2.632155">
        <ele>6.0</ele>
        <time>2022-05-14T10:41:00.526Z</time>
      </trkpt>
      <trkpt lat="39.56837" lon="2.632115">
        <ele>6.0</ele>
        <time>2022-05-14T10:41:01.526Z</time>
      </trkpt>
      <trkpt lat="39.56835167" lon="2.63205667">
        <ele>5.0</ele>
        <time>2022-05-14T10:41:02.525Z</time>
      </trkpt>
      <trkpt lat="39.568335" lon="2.632005">
        <ele>4.0</ele>
        <time>2022-05-14T10:41:03.526Z</time>
      </trkpt>
      <trkpt lat="39.56831833" lon="2.631955">
        <ele>4.0</ele>
        <time>2022-05-14T10:41:04.525Z</time>
      </trkpt>
      <trkpt lat="39.56830167" lon="2.6319">
        <ele>3.0</ele>
        <time>2022-05-14T10:41:05.525Z</time>
      </trkpt>
      <trkpt lat="39.56828667" lon="2.631845">
        <ele>3.0</ele>
        <time>2022-05-14T10:41:06.526Z</time>
      </trkpt>
      <trkpt lat="39.568275" lon="2.63178833">
        <ele>3.0</ele>
        <time>2022-05-14T10:41:07.525Z</time>
      </trkpt>
      <trkpt lat="39.56826333" lon="2.63173">
        <ele>3.0</ele>
        <time>2022-05-14T10:41:08.525Z</time>
      </trkpt>
      <trkpt lat="39.56825" lon="2.63167333">
        <ele>3.0</ele>
        <time>2022-05-14T10:41:09.526Z</time>
      </trkpt>
      <trkpt lat="39.56823667" lon="2.63163">
        <ele>3.0</ele>
        <time>2022-05-14T10:41:10.526Z</time>
      </trkpt>
      <trkpt lat="39.568215" lon="2.63156667">
        <ele>3.0</ele>
        <time>2022-05-14T10:41:11.526Z</time>
      </trkpt>
      <trkpt lat="39.56818833" lon="2.63151333">
        <ele>3.0</ele>
        <time>2022-05-14T10:41:12.525Z</time>
      </trkpt>
      <trkpt lat="39.56816" lon="2.63145833">
        <ele>3.0</ele>
        <time>2022-05-14T10:41:13.525Z</time>
      </trkpt>
      <trkpt lat="39.56813333" lon="2.63140333">
        <ele>3.0</ele>
        <time>2022-05-14T10:41:14.526Z</time>
      </trkpt>
      <trkpt lat="39.56810667" lon="2.63134833">
        <ele>4.0</ele>
        <time>2022-05-14T10:41:15.525Z</time>
      </trkpt>
      <trkpt lat="39.56807667" lon="2.63129667">
        <ele>5.0</ele>
        <time>2022-05-14T10:41:16.525Z</time>
      </trkpt>
      <trkpt lat="39.568045" lon="2.63125">
        <ele>5.0</ele>
        <time>2022-05-14T10:41:17.525Z</time>
      </trkpt>
      <trkpt lat="39.56801333" lon="2.63120167">
        <ele>6.0</ele>
        <time>2022-05-14T10:41:18.525Z</time>
      </trkpt>
      <trkpt lat="39.56798833" lon="2.63116167">
        <ele>7.0</ele>
        <time>2022-05-14T10:41:19.525Z</time>
      </trkpt>
      <trkpt lat="39.56795" lon="2.6311">
        <ele>8.0</ele>
        <time>2022-05-14T10:41:20.526Z</time>
      </trkpt>
      <trkpt lat="39.56792" lon="2.63104667">
        <ele>9.0</ele>
        <time>2022-05-14T10:41:21.525Z</time>
      </trkpt>
      <trkpt lat="39.56789" lon="2.63099667">
        <ele>9.0</ele>
        <time>2022-05-14T10:41:22.526Z</time>
      </trkpt>
      <trkpt lat="39.56785833" lon="2.63094667">
        <ele>10.0</ele>
        <time>2022-05-14T10:41:23.525Z</time>
      </trkpt>
      <trkpt lat="39.56782667" lon="2.63089333">
        <ele>10.0</ele>
        <time>2022-05-14T10:41:24.525Z</time>
      </trkpt>
      <trkpt lat="39.56779667" lon="2.63084167">
        <ele>10.0</ele>
        <time>2022-05-14T10:41:25.526Z</time>
      </trkpt>
      <trkpt lat="39.567765" lon="2.63079167">
        <ele>10.0</ele>
        <time>2022-05-14T10:41:26.525Z</time>
      </trkpt>
      <trkpt lat="39.56773167" lon="2.63074167">
        <ele>10.0</ele>
        <time>2022-05-14T10:41:27.525Z</time>
      </trkpt>
      <trkpt lat="39.56769833" lon="2.630695">
        <ele>9.0</ele>
        <time>2022-05-14T10:41:28.526Z</time>
      </trkpt>
      <trkpt lat="39.56766333" lon="2.630645">
        <ele>9.0</ele>
        <time>2022-05-14T10:41:29.526Z</time>
      </trkpt>
      <trkpt lat="39.56762833" lon="2.63059667">
        <ele>9.0</ele>
        <time>2022-05-14T10:41:30.525Z</time>
      </trkpt>
      <trkpt lat="39.56759167" lon="2.63055">
        <ele>9.0</ele>
        <time>2022-05-14T10:41:31.526Z</time>
      </trkpt>
      <trkpt lat="39.56756167" lon="2.63051167">
        <ele>9.0</ele>
        <time>2022-05-14T10:41:32.526Z</time>
      </trkpt>
      <trkpt lat="39.56751667" lon="2.63046">
        <ele>9.0</ele>
        <time>2022-05-14T10:41:33.526Z</time>
      </trkpt>
      <trkpt lat="39.56747833" lon="2.63042167">
        <ele>8.0</ele>
        <time>2022-05-14T10:41:34.525Z</time>
      </trkpt>
      <trkpt lat="39.567435" lon="2.63039833">
        <ele>8.0</ele>
        <time>2022-05-14T10:41:35.525Z</time>
      </trkpt>
      <trkpt lat="39.56739333" lon="2.63037667">
        <ele>8.0</ele>
        <time>2022-05-14T10:41:36.525Z</time>
      </trkpt>
      <trkpt lat="39.567355" lon="2.63035333">
        <ele>8.0</ele>
        <time>2022-05-14T10:41:37.526Z</time>
      </trkpt>
      <trkpt lat="39.56731667" lon="2.63032333">
        <ele>7.0</ele>
        <time>2022-05-14T10:41:38.525Z</time>
      </trkpt>
      <trkpt lat="39.56728167" lon="2.63029667">
        <ele>7.0</ele>
        <time>2022-05-14T10:41:39.526Z</time>
      </trkpt>
      <trkpt lat="39.567245" lon="2.63027833">
        <ele>7.0</ele>
        <time>2022-05-14T10:41:40.525Z</time>
      </trkpt>
      <trkpt lat="39.56721333" lon="2.63026833">
        <ele>6.0</ele>
        <time>2022-05-14T10:41:41.525Z</time>
      </trkpt>
      <trkpt lat="39.56716667" lon="2.63024833">
        <ele>6.0</ele>
        <time>2022-05-14T10:41:42.525Z</time>
      </trkpt>
      <trkpt lat="39.56713167" lon="2.63022333">
        <ele>6.0</ele>
        <time>2022-05-14T10:41:43.525Z</time>
      </trkpt>
      <trkpt lat="39.56710333" lon="2.630195">
        <ele>6.0</ele>
        <time>2022-05-14T10:41:44.525Z</time>
      </trkpt>
      <trkpt lat="39.56706667" lon="2.63015833">
        <ele>6.0</ele>
        <time>2022-05-14T10:41:45.525Z</time>
      </trkpt>
      <trkpt lat="39.56703" lon="2.63011833">
        <ele>7.0</ele>
        <time>2022-05-14T10:41:46.525Z</time>
      </trkpt>
      <trkpt lat="39.56698667" lon="2.63007167">
        <ele>7.0</ele>
        <time>2022-05-14T10:41:47.525Z</time>
      </trkpt>
      <trkpt lat="39.56695" lon="2.63003167">
        <ele>6.0</ele>
        <time>2022-05-14T10:41:48.526Z</time>
      </trkpt>
      <trkpt lat="39.56691333" lon="2.629995">
        <ele>6.0</ele>
        <time>2022-05-14T10:41:49.526Z</time>
      </trkpt>
      <trkpt lat="39.566885" lon="2.62996333">
        <ele>5.0</ele>
        <time>2022-05-14T10:41:50.525Z</time>
      </trkpt>
      <trkpt lat="39.56684667" lon="2.629925">
        <ele>5.0</ele>
        <time>2022-05-14T10:41:51.525Z</time>
      </trkpt>
      <trkpt lat="39.56681" lon="2.62988833">
        <ele>5.0</ele>
        <time>2022-05-14T10:41:52.525Z</time>
      </trkpt>
      <trkpt lat="39.56676667" lon="2.62984">
        <ele>4.0</ele>
        <time>2022-05-14T10:41:53.525Z</time>
      </trkpt>
      <trkpt lat="39.56673167" lon="2.62979833">
        <ele>4.0</ele>
        <time>2022-05-14T10:41:54.526Z</time>
      </trkpt>
      <trkpt lat="39.56669667" lon="2.62975667">
        <ele>4.0</ele>
        <time>2022-05-14T10:41:55.526Z</time>
      </trkpt>
      <trkpt lat="39.56666333" lon="2.629715">
        <ele>4.0</ele>
        <time>2022-05-14T10:41:56.526Z</time>
      </trkpt>
      <trkpt lat="39.56662833" lon="2.629675">
        <ele>4.0</ele>
        <time>2022-05-14T10:41:57.526Z</time>
      </trkpt>
      <trkpt lat="39.56659333" lon="2.62963667">
        <ele>4.0</ele>
        <time>2022-05-14T10:41:58.525Z</time>
      </trkpt>
      <trkpt lat="39.56655833" lon="2.62960333">
        <ele>4.0</ele>
        <time>2022-05-14T10:41:59.526Z</time>
      </trkpt>
      <trkpt lat="39.566525" lon="2.62957">
        <ele>5.0</ele>
        <time>2022-05-14T10:42:00.525Z</time>
      </trkpt>
      <trkpt lat="39.5665" lon="2.629535">
        <ele>5.0</ele>
        <time>2022-05-14T10:42:01.525Z</time>
      </trkpt>
      <trkpt lat="39.56648667" lon="2.62949333">
        <ele>5.0</ele>
        <time>2022-05-14T10:42:02.526Z</time>
      </trkpt>
      <trkpt lat="39.56648167" lon="2.62945">
        <ele>5.0</ele>
        <time>2022-05-14T10:42:03.526Z</time>
      </trkpt>
      <trkpt lat="39.56647833" lon="2.62941333">
        <ele>4.0</ele>
        <time>2022-05-14T10:42:04.525Z</time>
      </trkpt>
      <trkpt lat="39.566465" lon="2.62936667">
        <ele>4.0</ele>
        <time>2022-05-14T10:42:05.526Z</time>
      </trkpt>
      <trkpt lat="39.56644833" lon="2.629335">
        <ele>4.0</ele>
        <time>2022-05-14T10:42:06.525Z</time>
      </trkpt>
      <trkpt lat="39.56642833" lon="2.629305">
        <ele>4.0</ele>
        <time>2022-05-14T10:42:07.525Z</time>
      </trkpt>
      <trkpt lat="39.56640333" lon="2.62927667">
        <ele>4.0</ele>
        <time>2022-05-14T10:42:08.526Z</time>
      </trkpt>
      <trkpt lat="39.56637333" lon="2.62925167">
        <ele>4.0</ele>
        <time>2022-05-14T10:42:09.526Z</time>
      </trkpt>
      <trkpt lat="39.56634" lon="2.629225">
        <ele>3.0</ele>
        <time>2022-05-14T10:42:10.525Z</time>
      </trkpt>
      <trkpt lat="39.56630667" lon="2.62919833">
        <ele>3.0</ele>
        <time>2022-05-14T10:42:11.525Z</time>
      </trkpt>
      <trkpt lat="39.56627" lon="2.62917333">
        <ele>3.0</ele>
        <time>2022-05-14T10:42:12.525Z</time>
      </trkpt>
      <trkpt lat="39.56623833" lon="2.62915333">
        <ele>3.0</ele>
        <time>2022-05-14T10:42:13.526Z</time>
      </trkpt>
      <trkpt lat="39.56619333" lon="2.62912167">
        <ele>3.0</ele>
        <time>2022-05-14T10:42:14.525Z</time>
      </trkpt>
      <trkpt lat="39.566155" lon="2.62909833">
        <ele>2.0</ele>
        <time>2022-05-14T10:42:15.526Z</time>
      </trkpt>
      <trkpt lat="39.566115" lon="2.62907333">
        <ele>2.0</ele>
        <time>2022-05-14T10:42:16.526Z</time>
      </trkpt>
      <trkpt lat="39.56607" lon="2.62905167">
        <ele>2.0</ele>
        <time>2022-05-14T10:42:17.525Z</time>
      </trkpt>
      <trkpt lat="39.56603833" lon="2.62903333">
        <ele>1.0</ele>
        <time>2022-05-14T10:42:18.526Z</time>
      </trkpt>
      <trkpt lat="39.56599" lon="2.62900667">
        <ele>1.0</ele>
        <time>2022-05-14T10:42:19.525Z</time>
      </trkpt>
      <trkpt lat="39.56594833" lon="2.62898667">
        <ele>1.0</ele>
        <time>2022-05-14T10:42:20.525Z</time>
      </trkpt>
      <trkpt lat="39.565905" lon="2.62896667">
        <ele>0.0</ele>
        <time>2022-05-14T10:42:21.525Z</time>
      </trkpt>
      <trkpt lat="39.56586167" lon="2.62894833">
        <ele>0.0</ele>
        <time>2022-05-14T10:42:22.525Z</time>
      </trkpt>
      <trkpt lat="39.56582" lon="2.62892833">
        <ele>0.0</ele>
        <time>2022-05-14T10:42:23.525Z</time>
      </trkpt>
      <trkpt lat="39.56577833" lon="2.62891">
        <ele>0.0</ele>
        <time>2022-05-14T10:42:24.526Z</time>
      </trkpt>
      <trkpt lat="39.56573667" lon="2.62889167">
        <ele>0.0</ele>
        <time>2022-05-14T10:42:25.525Z</time>
      </trkpt>
      <trkpt lat="39.56569333" lon="2.62887333">
        <ele>0.0</ele>
        <time>2022-05-14T10:42:26.526Z</time>
      </trkpt>
      <trkpt lat="39.56565333" lon="2.62885667">
        <ele>0.0</ele>
        <time>2022-05-14T10:42:27.525Z</time>
      </trkpt>
      <trkpt lat="39.56561167" lon="2.62884">
        <ele>1.0</ele>
        <time>2022-05-14T10:42:28.526Z</time>
      </trkpt>
      <trkpt lat="39.56557167" lon="2.62882333">
        <ele>1.0</ele>
        <time>2022-05-14T10:42:29.526Z</time>
      </trkpt>
      <trkpt lat="39.565535" lon="2.62880667">
        <ele>1.0</ele>
        <time>2022-05-14T10:42:30.526Z</time>
      </trkpt>
      <trkpt lat="39.56550167" lon="2.628795">
        <ele>1.0</ele>
        <time>2022-05-14T10:42:31.526Z</time>
      </trkpt>
      <trkpt lat="39.56545333" lon="2.62877667">
        <ele>1.0</ele>
        <time>2022-05-14T10:42:32.526Z</time>
      </trkpt>
      <trkpt lat="39.56541333" lon="2.62876">
        <ele>1.0</ele>
        <time>2022-05-14T10:42:33.526Z</time>
      </trkpt>
      <trkpt lat="39.56537333" lon="2.628745">
        <ele>1.0</ele>
        <time>2022-05-14T10:42:34.526Z</time>
      </trkpt>
      <trkpt lat="39.56533" lon="2.62873">
        <ele>1.0</ele>
        <time>2022-05-14T10:42:35.526Z</time>
      </trkpt>
      <trkpt lat="39.56528833" lon="2.628715">
        <ele>1.0</ele>
        <time>2022-05-14T10:42:36.525Z</time>
      </trkpt>
      <trkpt lat="39.56524333" lon="2.628695">
        <ele>1.0</ele>
        <time>2022-05-14T10:42:37.525Z</time>
      </trkpt>
      <trkpt lat="39.56520167" lon="2.62867667">
        <ele>1.0</ele>
        <time>2022-05-14T10:42:38.525Z</time>
      </trkpt>
      <trkpt lat="39.56515667" lon="2.62866">
        <ele>1.0</ele>
        <time>2022-05-14T10:42:39.525Z</time>
      </trkpt>
      <trkpt lat="39.565115" lon="2.62864667">
        <ele>1.0</ele>
        <time>2022-05-14T10:42:40.525Z</time>
      </trkpt>
      <trkpt lat="39.56507167" lon="2.62862833">
        <ele>2.0</ele>
        <time>2022-05-14T10:42:41.526Z</time>
      </trkpt>
      <trkpt lat="39.56503167" lon="2.62860667">
        <ele>2.0</ele>
        <time>2022-05-14T10:42:42.526Z</time>
      </trkpt>
      <trkpt lat="39.56499333" lon="2.62858833">
        <ele>2.0</ele>
        <time>2022-05-14T10:42:43.525Z</time>
      </trkpt>
      <trkpt lat="39.564955" lon="2.62857167">
        <ele>2.0</ele>
        <time>2022-05-14T10:42:44.525Z</time>
      </trkpt>
      <trkpt lat="39.56492167" lon="2.62856">
        <ele>2.0</ele>
        <time>2022-05-14T10:42:45.526Z</time>
      </trkpt>
      <trkpt lat="39.56486833" lon="2.62854">
        <ele>2.0</ele>
        <time>2022-05-14T10:42:46.525Z</time>
      </trkpt>
      <trkpt lat="39.56482333" lon="2.62852">
        <ele>2.0</ele>
        <time>2022-05-14T10:42:47.526Z</time>
      </trkpt>
      <trkpt lat="39.56477833" lon="2.62850167">
        <ele>2.0</ele>
        <time>2022-05-14T10:42:48.526Z</time>
      </trkpt>
      <trkpt lat="39.564735" lon="2.62848333">
        <ele>2.0</ele>
        <time>2022-05-14T10:42:49.525Z</time>
      </trkpt>
      <trkpt lat="39.56469" lon="2.628465">
        <ele>2.0</ele>
        <time>2022-05-14T10:42:50.525Z</time>
      </trkpt>
      <trkpt lat="39.56464667" lon="2.62844833">
        <ele>2.0</ele>
        <time>2022-05-14T10:42:51.525Z</time>
      </trkpt>
      <trkpt lat="39.56459833" lon="2.62843">
        <ele>2.0</ele>
        <time>2022-05-14T10:42:52.526Z</time>
      </trkpt>
      <trkpt lat="39.56456167" lon="2.628415">
        <ele>2.0</ele>
        <time>2022-05-14T10:42:53.526Z</time>
      </trkpt>
      <trkpt lat="39.56450667" lon="2.62839333">
        <ele>2.0</ele>
        <time>2022-05-14T10:42:54.526Z</time>
      </trkpt>
      <trkpt lat="39.56446333" lon="2.628375">
        <ele>2.0</ele>
        <time>2022-05-14T10:42:55.526Z</time>
      </trkpt>
      <trkpt lat="39.56441833" lon="2.62835833">
        <ele>1.0</ele>
        <time>2022-05-14T10:42:56.526Z</time>
      </trkpt>
      <trkpt lat="39.56437333" lon="2.62834333">
        <ele>1.0</ele>
        <time>2022-05-14T10:42:57.526Z</time>
      </trkpt>
      <trkpt lat="39.56433" lon="2.628325">
        <ele>1.0</ele>
        <time>2022-05-14T10:42:58.526Z</time>
      </trkpt>
      <trkpt lat="39.564285" lon="2.62831">
        <ele>0.0</ele>
        <time>2022-05-14T10:42:59.526Z</time>
      </trkpt>
      <trkpt lat="39.56424" lon="2.628295">
        <ele>1.0</ele>
        <time>2022-05-14T10:43:00.526Z</time>
      </trkpt>
      <trkpt lat="39.564195" lon="2.62828167">
        <ele>1.0</ele>
        <time>2022-05-14T10:43:01.526Z</time>
      </trkpt>
      <trkpt lat="39.56415333" lon="2.62826833">
        <ele>1.0</ele>
        <time>2022-05-14T10:43:02.526Z</time>
      </trkpt>
      <trkpt lat="39.56411167" lon="2.62825333">
        <ele>1.0</ele>
        <time>2022-05-14T10:43:03.525Z</time>
      </trkpt>
      <trkpt lat="39.56407" lon="2.62823667">
        <ele>2.0</ele>
        <time>2022-05-14T10:43:04.525Z</time>
      </trkpt>
      <trkpt lat="39.56402833" lon="2.62822">
        <ele>2.0</ele>
        <time>2022-05-14T10:43:05.526Z</time>
      </trkpt>
      <trkpt lat="39.56398667" lon="2.62820167">
        <ele>2.0</ele>
        <time>2022-05-14T10:43:06.525Z</time>
      </trkpt>
      <trkpt lat="39.563945" lon="2.628185">
        <ele>1.0</ele>
        <time>2022-05-14T10:43:07.525Z</time>
      </trkpt>
      <trkpt lat="39.56390333" lon="2.62816833">
        <ele>1.0</ele>
        <time>2022-05-14T10:43:08.525Z</time>
      </trkpt>
      <trkpt lat="39.56386" lon="2.62815333">
        <ele>0.0</ele>
        <time>2022-05-14T10:43:09.526Z</time>
      </trkpt>
      <trkpt lat="39.56381833" lon="2.628135">
        <ele>0.0</ele>
        <time>2022-05-14T10:43:10.526Z</time>
      </trkpt>
      <trkpt lat="39.56377833" lon="2.628115">
        <ele>0.0</ele>
        <time>2022-05-14T10:43:11.526Z</time>
      </trkpt>
      <trkpt lat="39.56374667" lon="2.62810167">
        <ele>0.0</ele>
        <time>2022-05-14T10:43:12.526Z</time>
      </trkpt>
      <trkpt lat="39.56369833" lon="2.62808">
        <ele>0.0</ele>
        <time>2022-05-14T10:43:13.525Z</time>
      </trkpt>
      <trkpt lat="39.56365667" lon="2.62806333">
        <ele>0.0</ele>
        <time>2022-05-14T10:43:14.526Z</time>
      </trkpt>
      <trkpt lat="39.56361333" lon="2.62804667">
        <ele>0.0</ele>
        <time>2022-05-14T10:43:15.526Z</time>
      </trkpt>
      <trkpt lat="39.56358" lon="2.628035">
        <ele>0.0</ele>
        <time>2022-05-14T10:43:16.526Z</time>
      </trkpt>
      <trkpt lat="39.56353167" lon="2.62802167">
        <ele>0.0</ele>
        <time>2022-05-14T10:43:17.526Z</time>
      </trkpt>
      <trkpt lat="39.56349" lon="2.628015">
        <ele>1.0</ele>
        <time>2022-05-14T10:43:18.526Z</time>
      </trkpt>
      <trkpt lat="39.56344667" lon="2.62801167">
        <ele>1.0</ele>
        <time>2022-05-14T10:43:19.526Z</time>
      </trkpt>
      <trkpt lat="39.56340333" lon="2.62800167">
        <ele>1.0</ele>
        <time>2022-05-14T10:43:20.526Z</time>
      </trkpt>
      <trkpt lat="39.56336833" lon="2.62799167">
        <ele>1.0</ele>
        <time>2022-05-14T10:43:21.526Z</time>
      </trkpt>
      <trkpt lat="39.56331833" lon="2.62797">
        <ele>1.0</ele>
        <time>2022-05-14T10:43:22.526Z</time>
      </trkpt>
      <trkpt lat="39.56327667" lon="2.62795167">
        <ele>1.0</ele>
        <time>2022-05-14T10:43:23.525Z</time>
      </trkpt>
      <trkpt lat="39.563235" lon="2.62793167">
        <ele>1.0</ele>
        <time>2022-05-14T10:43:24.525Z</time>
      </trkpt>
      <trkpt lat="39.563195" lon="2.62791167">
        <ele>1.0</ele>
        <time>2022-05-14T10:43:25.525Z</time>
      </trkpt>
      <trkpt lat="39.56315333" lon="2.62789333">
        <ele>0.0</ele>
        <time>2022-05-14T10:43:26.526Z</time>
      </trkpt>
      <trkpt lat="39.56311167" lon="2.62787667">
        <ele>0.0</ele>
        <time>2022-05-14T10:43:27.525Z</time>
      </trkpt>
      <trkpt lat="39.56307167" lon="2.62786">
        <ele>0.0</ele>
        <time>2022-05-14T10:43:28.526Z</time>
      </trkpt>
      <trkpt lat="39.56303833" lon="2.62784833">
        <ele>1.0</ele>
        <time>2022-05-14T10:43:29.525Z</time>
      </trkpt>
      <trkpt lat="39.56299833" lon="2.627835">
        <ele>1.0</ele>
        <time>2022-05-14T10:43:30.525Z</time>
      </trkpt>
      <trkpt lat="39.56294833" lon="2.62781833">
        <ele>1.0</ele>
        <time>2022-05-14T10:43:31.526Z</time>
      </trkpt>
      <trkpt lat="39.56290333" lon="2.62780167">
        <ele>1.0</ele>
        <time>2022-05-14T10:43:32.526Z</time>
      </trkpt>
      <trkpt lat="39.56286" lon="2.627785">
        <ele>2.0</ele>
        <time>2022-05-14T10:43:33.526Z</time>
      </trkpt>
      <trkpt lat="39.56281833" lon="2.62777">
        <ele>2.0</ele>
        <time>2022-05-14T10:43:34.525Z</time>
      </trkpt>
      <trkpt lat="39.56277667" lon="2.62775333">
        <ele>1.0</ele>
        <time>2022-05-14T10:43:35.526Z</time>
      </trkpt>
      <trkpt lat="39.56273333" lon="2.62773833">
        <ele>1.0</ele>
        <time>2022-05-14T10:43:36.525Z</time>
      </trkpt>
      <trkpt lat="39.56269" lon="2.62772167">
        <ele>1.0</ele>
        <time>2022-05-14T10:43:37.525Z</time>
      </trkpt>
      <trkpt lat="39.562655" lon="2.62771">
        <ele>2.0</ele>
        <time>2022-05-14T10:43:38.526Z</time>
      </trkpt>
      <trkpt lat="39.56260167" lon="2.62769">
        <ele>2.0</ele>
        <time>2022-05-14T10:43:39.526Z</time>
      </trkpt>
      <trkpt lat="39.562555" lon="2.627675">
        <ele>2.0</ele>
        <time>2022-05-14T10:43:40.526Z</time>
      </trkpt>
      <trkpt lat="39.56251167" lon="2.62765667">
        <ele>1.0</ele>
        <time>2022-05-14T10:43:41.525Z</time>
      </trkpt>
      <trkpt lat="39.56247" lon="2.62763667">
        <ele>1.0</ele>
        <time>2022-05-14T10:43:42.526Z</time>
      </trkpt>
      <trkpt lat="39.56243" lon="2.62761667">
        <ele>0.0</ele>
        <time>2022-05-14T10:43:43.525Z</time>
      </trkpt>
      <trkpt lat="39.56238833" lon="2.62759833">
        <ele>0.0</ele>
        <time>2022-05-14T10:43:44.525Z</time>
      </trkpt>
      <trkpt lat="39.56234833" lon="2.627585">
        <ele>0.0</ele>
        <time>2022-05-14T10:43:45.526Z</time>
      </trkpt>
      <trkpt lat="39.56230833" lon="2.62757">
        <ele>0.0</ele>
        <time>2022-05-14T10:43:46.525Z</time>
      </trkpt>
      <trkpt lat="39.56227667" lon="2.62755833">
        <ele>0.0</ele>
        <time>2022-05-14T10:43:47.525Z</time>
      </trkpt>
      <trkpt lat="39.56223667" lon="2.627545">
        <ele>0.0</ele>
        <time>2022-05-14T10:43:48.525Z</time>
      </trkpt>
      <trkpt lat="39.562185" lon="2.62753167">
        <ele>0.0</ele>
        <time>2022-05-14T10:43:49.525Z</time>
      </trkpt>
      <trkpt lat="39.56214333" lon="2.62752167">
        <ele>0.0</ele>
        <time>2022-05-14T10:43:50.526Z</time>
      </trkpt>
      <trkpt lat="39.56209833" lon="2.62751667">
        <ele>1.0</ele>
        <time>2022-05-14T10:43:51.526Z</time>
      </trkpt>
      <trkpt lat="39.56206333" lon="2.62751333">
        <ele>1.0</ele>
        <time>2022-05-14T10:43:52.526Z</time>
      </trkpt>
      <trkpt lat="39.56200833" lon="2.62750167">
        <ele>1.0</ele>
        <time>2022-05-14T10:43:53.526Z</time>
      </trkpt>
      <trkpt lat="39.56196333" lon="2.62749167">
        <ele>0.0</ele>
        <time>2022-05-14T10:43:54.525Z</time>
      </trkpt>
      <trkpt lat="39.56192" lon="2.62748">
        <ele>0.0</ele>
        <time>2022-05-14T10:43:55.526Z</time>
      </trkpt>
      <trkpt lat="39.56187833" lon="2.62746667">
        <ele>0.0</ele>
        <time>2022-05-14T10:43:56.526Z</time>
      </trkpt>
      <trkpt lat="39.561835" lon="2.62745333">
        <ele>0.0</ele>
        <time>2022-05-14T10:43:57.525Z</time>
      </trkpt>
      <trkpt lat="39.56179" lon="2.62743833">
        <ele>0.0</ele>
        <time>2022-05-14T10:43:58.526Z</time>
      </trkpt>
      <trkpt lat="39.56174333" lon="2.62742667">
        <ele>0.0</ele>
        <time>2022-05-14T10:43:59.526Z</time>
      </trkpt>
      <trkpt lat="39.56169667" lon="2.627415">
        <ele>1.0</ele>
        <time>2022-05-14T10:44:00.526Z</time>
      </trkpt>
      <trkpt lat="39.561655" lon="2.62739833">
        <ele>1.0</ele>
        <time>2022-05-14T10:44:01.526Z</time>
      </trkpt>
      <trkpt lat="39.56161" lon="2.62738333">
        <ele>1.0</ele>
        <time>2022-05-14T10:44:02.526Z</time>
      </trkpt>
      <trkpt lat="39.56156667" lon="2.62737333">
        <ele>2.0</ele>
        <time>2022-05-14T10:44:03.525Z</time>
      </trkpt>
      <trkpt lat="39.56152167" lon="2.62736167">
        <ele>2.0</ele>
        <time>2022-05-14T10:44:04.526Z</time>
      </trkpt>
      <trkpt lat="39.56148" lon="2.62735167">
        <ele>2.0</ele>
        <time>2022-05-14T10:44:05.526Z</time>
      </trkpt>
      <trkpt lat="39.56143167" lon="2.62734833">
        <ele>3.0</ele>
        <time>2022-05-14T10:44:06.525Z</time>
      </trkpt>
      <trkpt lat="39.561385" lon="2.62733667">
        <ele>3.0</ele>
        <time>2022-05-14T10:44:07.526Z</time>
      </trkpt>
      <trkpt lat="39.56134667" lon="2.62731833">
        <ele>2.0</ele>
        <time>2022-05-14T10:44:08.526Z</time>
      </trkpt>
      <trkpt lat="39.56130833" lon="2.6273">
        <ele>2.0</ele>
        <time>2022-05-14T10:44:09.525Z</time>
      </trkpt>
      <trkpt lat="39.561265" lon="2.62728167">
        <ele>1.0</ele>
        <time>2022-05-14T10:44:10.525Z</time>
      </trkpt>
      <trkpt lat="39.56123333" lon="2.62727333">
        <ele>1.0</ele>
        <time>2022-05-14T10:44:11.525Z</time>
      </trkpt>
      <trkpt lat="39.56118333" lon="2.62726333">
        <ele>0.0</ele>
        <time>2022-05-14T10:44:12.526Z</time>
      </trkpt>
      <trkpt lat="39.56114167" lon="2.62726">
        <ele>0.0</ele>
        <time>2022-05-14T10:44:13.526Z</time>
      </trkpt>
      <trkpt lat="39.56110167" lon="2.62725167">
        <ele>1.0</ele>
        <time>2022-05-14T10:44:14.525Z</time>
      </trkpt>
      <trkpt lat="39.56106833" lon="2.62724333">
        <ele>1.0</ele>
        <time>2022-05-14T10:44:15.525Z</time>
      </trkpt>
      <trkpt lat="39.56102833" lon="2.62723167">
        <ele>1.0</ele>
        <time>2022-05-14T10:44:16.525Z</time>
      </trkpt>
      <trkpt lat="39.56098" lon="2.62721667">
        <ele>1.0</ele>
        <time>2022-05-14T10:44:17.526Z</time>
      </trkpt>
      <trkpt lat="39.56093833" lon="2.62720167">
        <ele>1.0</ele>
        <time>2022-05-14T10:44:18.525Z</time>
      </trkpt>
      <trkpt lat="39.56089667" lon="2.62719">
        <ele>2.0</ele>
        <time>2022-05-14T10:44:19.525Z</time>
      </trkpt>
      <trkpt lat="39.560865" lon="2.62718">
        <ele>3.0</ele>
        <time>2022-05-14T10:44:20.526Z</time>
      </trkpt>
      <trkpt lat="39.56081667" lon="2.627165">
        <ele>4.0</ele>
        <time>2022-05-14T10:44:21.525Z</time>
      </trkpt>
      <trkpt lat="39.56077667" lon="2.627155">
        <ele>4.0</ele>
        <time>2022-05-14T10:44:22.525Z</time>
      </trkpt>
      <trkpt lat="39.56073667" lon="2.627145">
        <ele>5.0</ele>
        <time>2022-05-14T10:44:23.525Z</time>
      </trkpt>
      <trkpt lat="39.56069667" lon="2.627135">
        <ele>4.0</ele>
        <time>2022-05-14T10:44:24.525Z</time>
      </trkpt>
      <trkpt lat="39.56065667" lon="2.627125">
        <ele>4.0</ele>
        <time>2022-05-14T10:44:25.525Z</time>
      </trkpt>
      <trkpt lat="39.56061667" lon="2.62711333">
        <ele>4.0</ele>
        <time>2022-05-14T10:44:26.526Z</time>
      </trkpt>
      <trkpt lat="39.560575" lon="2.6271">
        <ele>3.0</ele>
        <time>2022-05-14T10:44:27.525Z</time>
      </trkpt>
      <trkpt lat="39.56053667" lon="2.62708667">
        <ele>3.0</ele>
        <time>2022-05-14T10:44:28.525Z</time>
      </trkpt>
      <trkpt lat="39.56049667" lon="2.62707667">
        <ele>3.0</ele>
        <time>2022-05-14T10:44:29.525Z</time>
      </trkpt>
      <trkpt lat="39.56046" lon="2.62706667">
        <ele>2.0</ele>
        <time>2022-05-14T10:44:30.525Z</time>
      </trkpt>
      <trkpt lat="39.56042" lon="2.62705333">
        <ele>2.0</ele>
        <time>2022-05-14T10:44:31.526Z</time>
      </trkpt>
      <trkpt lat="39.56037833" lon="2.62704167">
        <ele>2.0</ele>
        <time>2022-05-14T10:44:32.525Z</time>
      </trkpt>
      <trkpt lat="39.560335" lon="2.62703">
        <ele>2.0</ele>
        <time>2022-05-14T10:44:33.526Z</time>
      </trkpt>
      <trkpt lat="39.5603" lon="2.62702167">
        <ele>3.0</ele>
        <time>2022-05-14T10:44:34.526Z</time>
      </trkpt>
      <trkpt lat="39.56026" lon="2.62701">
        <ele>3.0</ele>
        <time>2022-05-14T10:44:35.525Z</time>
      </trkpt>
      <trkpt lat="39.56021" lon="2.62699667">
        <ele>4.0</ele>
        <time>2022-05-14T10:44:36.526Z</time>
      </trkpt>
      <trkpt lat="39.56017667" lon="2.62698667">
        <ele>4.0</ele>
        <time>2022-05-14T10:44:37.525Z</time>
      </trkpt>
      <trkpt lat="39.560135" lon="2.626975">
        <ele>5.0</ele>
        <time>2022-05-14T10:44:38.526Z</time>
      </trkpt>
      <trkpt lat="39.560095" lon="2.626965">
        <ele>5.0</ele>
        <time>2022-05-14T10:44:39.525Z</time>
      </trkpt>
      <trkpt lat="39.560055" lon="2.62695167">
        <ele>5.0</ele>
        <time>2022-05-14T10:44:40.526Z</time>
      </trkpt>
      <trkpt lat="39.56000833" lon="2.62693333">
        <ele>5.0</ele>
        <time>2022-05-14T10:44:41.526Z</time>
      </trkpt>
      <trkpt lat="39.55997833" lon="2.62691833">
        <ele>5.0</ele>
        <time>2022-05-14T10:44:42.525Z</time>
      </trkpt>
      <trkpt lat="39.55994167" lon="2.62689833">
        <ele>5.0</ele>
        <time>2022-05-14T10:44:43.525Z</time>
      </trkpt>
      <trkpt lat="39.55989667" lon="2.62687833">
        <ele>4.0</ele>
        <time>2022-05-14T10:44:44.525Z</time>
      </trkpt>
      <trkpt lat="39.55985833" lon="2.62686333">
        <ele>4.0</ele>
        <time>2022-05-14T10:44:45.526Z</time>
      </trkpt>
      <trkpt lat="39.55982167" lon="2.62685333">
        <ele>4.0</ele>
        <time>2022-05-14T10:44:46.526Z</time>
      </trkpt>
      <trkpt lat="39.55978167" lon="2.626845">
        <ele>4.0</ele>
        <time>2022-05-14T10:44:47.525Z</time>
      </trkpt>
      <trkpt lat="39.55974833" lon="2.62683833">
        <ele>4.0</ele>
        <time>2022-05-14T10:44:48.525Z</time>
      </trkpt>
      <trkpt lat="39.5597" lon="2.62682667">
        <ele>4.0</ele>
        <time>2022-05-14T10:44:49.526Z</time>
      </trkpt>
      <trkpt lat="39.55965667" lon="2.62681667">
        <ele>5.0</ele>
        <time>2022-05-14T10:44:50.525Z</time>
      </trkpt>
      <trkpt lat="39.55962333" lon="2.62681">
        <ele>5.0</ele>
        <time>2022-05-14T10:44:51.526Z</time>
      </trkpt>
      <trkpt lat="39.55958167" lon="2.6268">
        <ele>5.0</ele>
        <time>2022-05-14T10:44:52.526Z</time>
      </trkpt>
      <trkpt lat="39.55953667" lon="2.62678667">
        <ele>4.0</ele>
        <time>2022-05-14T10:44:53.525Z</time>
      </trkpt>
      <trkpt lat="39.5595" lon="2.62677667">
        <ele>4.0</ele>
        <time>2022-05-14T10:44:54.526Z</time>
      </trkpt>
      <trkpt lat="39.55946" lon="2.62677">
        <ele>4.0</ele>
        <time>2022-05-14T10:44:55.525Z</time>
      </trkpt>
      <trkpt lat="39.55942833" lon="2.626765">
        <ele>4.0</ele>
        <time>2022-05-14T10:44:56.525Z</time>
      </trkpt>
      <trkpt lat="39.55938833" lon="2.62676">
        <ele>5.0</ele>
        <time>2022-05-14T10:44:57.526Z</time>
      </trkpt>
      <trkpt lat="39.55934" lon="2.62675333">
        <ele>5.0</ele>
        <time>2022-05-14T10:44:58.526Z</time>
      </trkpt>
      <trkpt lat="39.55929833" lon="2.62675167">
        <ele>5.0</ele>
        <time>2022-05-14T10:44:59.526Z</time>
      </trkpt>
      <trkpt lat="39.55925833" lon="2.62674667">
        <ele>5.0</ele>
        <time>2022-05-14T10:45:00.526Z</time>
      </trkpt>
      <trkpt lat="39.55921833" lon="2.62674333">
        <ele>6.0</ele>
        <time>2022-05-14T10:45:01.526Z</time>
      </trkpt>
      <trkpt lat="39.55918833" lon="2.62674">
        <ele>6.0</ele>
        <time>2022-05-14T10:45:02.525Z</time>
      </trkpt>
      <trkpt lat="39.559145" lon="2.626735">
        <ele>6.0</ele>
        <time>2022-05-14T10:45:03.525Z</time>
      </trkpt>
      <trkpt lat="39.55910833" lon="2.62673167">
        <ele>6.0</ele>
        <time>2022-05-14T10:45:04.526Z</time>
      </trkpt>
      <trkpt lat="39.55907333" lon="2.62672333">
        <ele>6.0</ele>
        <time>2022-05-14T10:45:05.526Z</time>
      </trkpt>
      <trkpt lat="39.55904333" lon="2.626715">
        <ele>6.0</ele>
        <time>2022-05-14T10:45:06.525Z</time>
      </trkpt>
      <trkpt lat="39.55900333" lon="2.62670333">
        <ele>5.0</ele>
        <time>2022-05-14T10:45:07.525Z</time>
      </trkpt>
      <trkpt lat="39.558955" lon="2.62669167">
        <ele>5.0</ele>
        <time>2022-05-14T10:45:08.525Z</time>
      </trkpt>
      <trkpt lat="39.55891333" lon="2.62668333">
        <ele>5.0</ele>
        <time>2022-05-14T10:45:09.526Z</time>
      </trkpt>
      <trkpt lat="39.55887333" lon="2.626675">
        <ele>5.0</ele>
        <time>2022-05-14T10:45:10.525Z</time>
      </trkpt>
      <trkpt lat="39.55884" lon="2.62666833">
        <ele>5.0</ele>
        <time>2022-05-14T10:45:11.526Z</time>
      </trkpt>
      <trkpt lat="39.55879167" lon="2.62665833">
        <ele>5.0</ele>
        <time>2022-05-14T10:45:12.526Z</time>
      </trkpt>
      <trkpt lat="39.55875167" lon="2.62665">
        <ele>6.0</ele>
        <time>2022-05-14T10:45:13.526Z</time>
      </trkpt>
      <trkpt lat="39.55871167" lon="2.626645">
        <ele>6.0</ele>
        <time>2022-05-14T10:45:14.525Z</time>
      </trkpt>
      <trkpt lat="39.55867167" lon="2.626635">
        <ele>7.0</ele>
        <time>2022-05-14T10:45:15.526Z</time>
      </trkpt>
      <trkpt lat="39.55863833" lon="2.62662667">
        <ele>7.0</ele>
        <time>2022-05-14T10:45:16.526Z</time>
      </trkpt>
      <trkpt lat="39.55859167" lon="2.626615">
        <ele>7.0</ele>
        <time>2022-05-14T10:45:17.526Z</time>
      </trkpt>
      <trkpt lat="39.55855167" lon="2.626605">
        <ele>8.0</ele>
        <time>2022-05-14T10:45:18.525Z</time>
      </trkpt>
      <trkpt lat="39.55851167" lon="2.62659333">
        <ele>8.0</ele>
        <time>2022-05-14T10:45:19.525Z</time>
      </trkpt>
      <trkpt lat="39.55848167" lon="2.62658333">
        <ele>8.0</ele>
        <time>2022-05-14T10:45:20.525Z</time>
      </trkpt>
      <trkpt lat="39.558435" lon="2.62656667">
        <ele>8.0</ele>
        <time>2022-05-14T10:45:21.526Z</time>
      </trkpt>
      <trkpt lat="39.55839667" lon="2.626555">
        <ele>8.0</ele>
        <time>2022-05-14T10:45:22.526Z</time>
      </trkpt>
      <trkpt lat="39.55836667" lon="2.626545">
        <ele>7.0</ele>
        <time>2022-05-14T10:45:23.526Z</time>
      </trkpt>
      <trkpt lat="39.55832667" lon="2.62653167">
        <ele>6.0</ele>
        <time>2022-05-14T10:45:24.526Z</time>
      </trkpt>
      <trkpt lat="39.55828" lon="2.626515">
        <ele>6.0</ele>
        <time>2022-05-14T10:45:25.526Z</time>
      </trkpt>
      <trkpt lat="39.55824333" lon="2.6265">
        <ele>6.0</ele>
        <time>2022-05-14T10:45:26.526Z</time>
      </trkpt>
      <trkpt lat="39.558205" lon="2.62648167">
        <ele>6.0</ele>
        <time>2022-05-14T10:45:27.526Z</time>
      </trkpt>
      <trkpt lat="39.55816667" lon="2.62646167">
        <ele>6.0</ele>
        <time>2022-05-14T10:45:28.525Z</time>
      </trkpt>
      <trkpt lat="39.558135" lon="2.626445">
        <ele>6.0</ele>
        <time>2022-05-14T10:45:29.526Z</time>
      </trkpt>
      <trkpt lat="39.55809" lon="2.62642333">
        <ele>6.0</ele>
        <time>2022-05-14T10:45:30.526Z</time>
      </trkpt>
      <trkpt lat="39.55806" lon="2.62640333">
        <ele>6.0</ele>
        <time>2022-05-14T10:45:31.525Z</time>
      </trkpt>
      <trkpt lat="39.558025" lon="2.62638167">
        <ele>6.0</ele>
        <time>2022-05-14T10:45:32.525Z</time>
      </trkpt>
      <trkpt lat="39.55798667" lon="2.62636">
        <ele>6.0</ele>
        <time>2022-05-14T10:45:33.526Z</time>
      </trkpt>
      <trkpt lat="39.55794333" lon="2.62633333">
        <ele>6.0</ele>
        <time>2022-05-14T10:45:34.525Z</time>
      </trkpt>
      <trkpt lat="39.55791167" lon="2.626315">
        <ele>6.0</ele>
        <time>2022-05-14T10:45:35.526Z</time>
      </trkpt>
      <trkpt lat="39.557865" lon="2.62628667">
        <ele>6.0</ele>
        <time>2022-05-14T10:45:36.525Z</time>
      </trkpt>
      <trkpt lat="39.557835" lon="2.626265">
        <ele>7.0</ele>
        <time>2022-05-14T10:45:37.525Z</time>
      </trkpt>
      <trkpt lat="39.55779667" lon="2.62624">
        <ele>7.0</ele>
        <time>2022-05-14T10:45:38.526Z</time>
      </trkpt>
      <trkpt lat="39.55775833" lon="2.62621667">
        <ele>8.0</ele>
        <time>2022-05-14T10:45:39.525Z</time>
      </trkpt>
      <trkpt lat="39.55772" lon="2.62619333">
        <ele>7.0</ele>
        <time>2022-05-14T10:45:40.526Z</time>
      </trkpt>
      <trkpt lat="39.55768333" lon="2.62617333">
        <ele>7.0</ele>
        <time>2022-05-14T10:45:41.526Z</time>
      </trkpt>
      <trkpt lat="39.55764333" lon="2.62615167">
        <ele>7.0</ele>
        <time>2022-05-14T10:45:42.526Z</time>
      </trkpt>
      <trkpt lat="39.557605" lon="2.62613">
        <ele>7.0</ele>
        <time>2022-05-14T10:45:43.526Z</time>
      </trkpt>
      <trkpt lat="39.55756667" lon="2.62610833">
        <ele>7.0</ele>
        <time>2022-05-14T10:45:44.526Z</time>
      </trkpt>
      <trkpt lat="39.55752" lon="2.62608167">
        <ele>7.0</ele>
        <time>2022-05-14T10:45:45.525Z</time>
      </trkpt>
      <trkpt lat="39.55749167" lon="2.62606167">
        <ele>7.0</ele>
        <time>2022-05-14T10:45:46.525Z</time>
      </trkpt>
      <trkpt lat="39.55745333" lon="2.62603833">
        <ele>7.0</ele>
        <time>2022-05-14T10:45:47.526Z</time>
      </trkpt>
      <trkpt lat="39.55741333" lon="2.62601167">
        <ele>7.0</ele>
        <time>2022-05-14T10:45:48.526Z</time>
      </trkpt>
      <trkpt lat="39.55737333" lon="2.62598833">
        <ele>7.0</ele>
        <time>2022-05-14T10:45:49.525Z</time>
      </trkpt>
      <trkpt lat="39.557335" lon="2.625965">
        <ele>7.0</ele>
        <time>2022-05-14T10:45:50.526Z</time>
      </trkpt>
      <trkpt lat="39.55729667" lon="2.62594167">
        <ele>7.0</ele>
        <time>2022-05-14T10:45:51.525Z</time>
      </trkpt>
      <trkpt lat="39.55726" lon="2.62591667">
        <ele>7.0</ele>
        <time>2022-05-14T10:45:52.525Z</time>
      </trkpt>
      <trkpt lat="39.55722333" lon="2.62589333">
        <ele>7.0</ele>
        <time>2022-05-14T10:45:53.525Z</time>
      </trkpt>
      <trkpt lat="39.557185" lon="2.62587">
        <ele>7.0</ele>
        <time>2022-05-14T10:45:54.525Z</time>
      </trkpt>
      <trkpt lat="39.55714833" lon="2.62584667">
        <ele>7.0</ele>
        <time>2022-05-14T10:45:55.526Z</time>
      </trkpt>
      <trkpt lat="39.55711" lon="2.625825">
        <ele>7.0</ele>
        <time>2022-05-14T10:45:56.525Z</time>
      </trkpt>
      <trkpt lat="39.55707333" lon="2.62580333">
        <ele>7.0</ele>
        <time>2022-05-14T10:45:57.526Z</time>
      </trkpt>
      <trkpt lat="39.557035" lon="2.62578333">
        <ele>7.0</ele>
        <time>2022-05-14T10:45:58.525Z</time>
      </trkpt>
      <trkpt lat="39.55699833" lon="2.62575833">
        <ele>7.0</ele>
        <time>2022-05-14T10:45:59.525Z</time>
      </trkpt>
      <trkpt lat="39.55696" lon="2.62573333">
        <ele>7.0</ele>
        <time>2022-05-14T10:46:00.526Z</time>
      </trkpt>
      <trkpt lat="39.55692333" lon="2.62571">
        <ele>6.0</ele>
        <time>2022-05-14T10:46:01.525Z</time>
      </trkpt>
      <trkpt lat="39.55688833" lon="2.625685">
        <ele>6.0</ele>
        <time>2022-05-14T10:46:02.526Z</time>
      </trkpt>
      <trkpt lat="39.55685333" lon="2.62565833">
        <ele>6.0</ele>
        <time>2022-05-14T10:46:03.525Z</time>
      </trkpt>
      <trkpt lat="39.55681167" lon="2.62563167">
        <ele>6.0</ele>
        <time>2022-05-14T10:46:04.525Z</time>
      </trkpt>
      <trkpt lat="39.55678167" lon="2.62561167">
        <ele>6.0</ele>
        <time>2022-05-14T10:46:05.526Z</time>
      </trkpt>
      <trkpt lat="39.55674333" lon="2.62558667">
        <ele>5.0</ele>
        <time>2022-05-14T10:46:06.526Z</time>
      </trkpt>
      <trkpt lat="39.55669667" lon="2.625555">
        <ele>5.0</ele>
        <time>2022-05-14T10:46:07.526Z</time>
      </trkpt>
      <trkpt lat="39.55666667" lon="2.62553667">
        <ele>5.0</ele>
        <time>2022-05-14T10:46:08.525Z</time>
      </trkpt>
      <trkpt lat="39.55662" lon="2.62550667">
        <ele>4.0</ele>
        <time>2022-05-14T10:46:09.525Z</time>
      </trkpt>
      <trkpt lat="39.55659" lon="2.62548833">
        <ele>4.0</ele>
        <time>2022-05-14T10:46:10.526Z</time>
      </trkpt>
      <trkpt lat="39.55655167" lon="2.62546667">
        <ele>5.0</ele>
        <time>2022-05-14T10:46:11.525Z</time>
      </trkpt>
      <trkpt lat="39.55651333" lon="2.62544333">
        <ele>5.0</ele>
        <time>2022-05-14T10:46:12.525Z</time>
      </trkpt>
      <trkpt lat="39.55646667" lon="2.625415">
        <ele>4.0</ele>
        <time>2022-05-14T10:46:13.526Z</time>
      </trkpt>
      <trkpt lat="39.55643" lon="2.62539">
        <ele>5.0</ele>
        <time>2022-05-14T10:46:14.525Z</time>
      </trkpt>
      <trkpt lat="39.55639333" lon="2.62536667">
        <ele>5.0</ele>
        <time>2022-05-14T10:46:15.526Z</time>
      </trkpt>
      <trkpt lat="39.55635667" lon="2.625345">
        <ele>5.0</ele>
        <time>2022-05-14T10:46:16.526Z</time>
      </trkpt>
      <trkpt lat="39.55631833" lon="2.62532333">
        <ele>5.0</ele>
        <time>2022-05-14T10:46:17.526Z</time>
      </trkpt>
      <trkpt lat="39.55628833" lon="2.62530667">
        <ele>5.0</ele>
        <time>2022-05-14T10:46:18.526Z</time>
      </trkpt>
      <trkpt lat="39.55624333" lon="2.62528167">
        <ele>5.0</ele>
        <time>2022-05-14T10:46:19.526Z</time>
      </trkpt>
      <trkpt lat="39.55621167" lon="2.625265">
        <ele>5.0</ele>
        <time>2022-05-14T10:46:20.525Z</time>
      </trkpt>
      <trkpt lat="39.556175" lon="2.62524333">
        <ele>5.0</ele>
        <time>2022-05-14T10:46:21.525Z</time>
      </trkpt>
      <trkpt lat="39.55612833" lon="2.62521333">
        <ele>5.0</ele>
        <time>2022-05-14T10:46:22.526Z</time>
      </trkpt>
      <trkpt lat="39.55609" lon="2.62519">
        <ele>5.0</ele>
        <time>2022-05-14T10:46:23.526Z</time>
      </trkpt>
      <trkpt lat="39.55605833" lon="2.62517167">
        <ele>5.0</ele>
        <time>2022-05-14T10:46:24.525Z</time>
      </trkpt>
      <trkpt lat="39.55601333" lon="2.62514333">
        <ele>5.0</ele>
        <time>2022-05-14T10:46:25.526Z</time>
      </trkpt>
      <trkpt lat="39.555975" lon="2.62511833">
        <ele>5.0</ele>
        <time>2022-05-14T10:46:26.526Z</time>
      </trkpt>
      <trkpt lat="39.555935" lon="2.62509333">
        <ele>5.0</ele>
        <time>2022-05-14T10:46:27.526Z</time>
      </trkpt>
      <trkpt lat="39.555905" lon="2.62507667">
        <ele>5.0</ele>
        <time>2022-05-14T10:46:28.526Z</time>
      </trkpt>
      <trkpt lat="39.55585667" lon="2.62504667">
        <ele>5.0</ele>
        <time>2022-05-14T10:46:29.525Z</time>
      </trkpt>
      <trkpt lat="39.55582833" lon="2.62502833">
        <ele>4.0</ele>
        <time>2022-05-14T10:46:30.526Z</time>
      </trkpt>
      <trkpt lat="39.55578667" lon="2.62500167">
        <ele>4.0</ele>
        <time>2022-05-14T10:46:31.526Z</time>
      </trkpt>
      <trkpt lat="39.55575667" lon="2.624985">
        <ele>4.0</ele>
        <time>2022-05-14T10:46:32.526Z</time>
      </trkpt>
      <trkpt lat="39.55571833" lon="2.624965">
        <ele>5.0</ele>
        <time>2022-05-14T10:46:33.526Z</time>
      </trkpt>
      <trkpt lat="39.55567167" lon="2.62493833">
        <ele>5.0</ele>
        <time>2022-05-14T10:46:34.525Z</time>
      </trkpt>
      <trkpt lat="39.55563167" lon="2.62491667">
        <ele>5.0</ele>
        <time>2022-05-14T10:46:35.526Z</time>
      </trkpt>
      <trkpt lat="39.55559333" lon="2.624895">
        <ele>5.0</ele>
        <time>2022-05-14T10:46:36.526Z</time>
      </trkpt>
      <trkpt lat="39.55555833" lon="2.62487333">
        <ele>6.0</ele>
        <time>2022-05-14T10:46:37.526Z</time>
      </trkpt>
      <trkpt lat="39.55552" lon="2.62484833">
        <ele>6.0</ele>
        <time>2022-05-14T10:46:38.525Z</time>
      </trkpt>
      <trkpt lat="39.55548333" lon="2.62482333">
        <ele>6.0</ele>
        <time>2022-05-14T10:46:39.525Z</time>
      </trkpt>
      <trkpt lat="39.55544667" lon="2.62479833">
        <ele>6.0</ele>
        <time>2022-05-14T10:46:40.526Z</time>
      </trkpt>
      <trkpt lat="39.55541667" lon="2.62478">
        <ele>6.0</ele>
        <time>2022-05-14T10:46:41.526Z</time>
      </trkpt>
      <trkpt lat="39.55537833" lon="2.62475667">
        <ele>5.0</ele>
        <time>2022-05-14T10:46:42.526Z</time>
      </trkpt>
      <trkpt lat="39.55532833" lon="2.62472333">
        <ele>5.0</ele>
        <time>2022-05-14T10:46:43.525Z</time>
      </trkpt>
      <trkpt lat="39.55529" lon="2.62469833">
        <ele>5.0</ele>
        <time>2022-05-14T10:46:44.526Z</time>
      </trkpt>
      <trkpt lat="39.55524667" lon="2.62467">
        <ele>5.0</ele>
        <time>2022-05-14T10:46:45.526Z</time>
      </trkpt>
      <trkpt lat="39.555215" lon="2.62464833">
        <ele>4.0</ele>
        <time>2022-05-14T10:46:46.526Z</time>
      </trkpt>
      <trkpt lat="39.55516333" lon="2.62462167">
        <ele>4.0</ele>
        <time>2022-05-14T10:46:47.525Z</time>
      </trkpt>
      <trkpt lat="39.55513" lon="2.62460167">
        <ele>5.0</ele>
        <time>2022-05-14T10:46:48.525Z</time>
      </trkpt>
      <trkpt lat="39.55508333" lon="2.624575">
        <ele>5.0</ele>
        <time>2022-05-14T10:46:49.526Z</time>
      </trkpt>
      <trkpt lat="39.55504333" lon="2.62455167">
        <ele>5.0</ele>
        <time>2022-05-14T10:46:50.526Z</time>
      </trkpt>
      <trkpt lat="39.55501167" lon="2.62453167">
        <ele>5.0</ele>
        <time>2022-05-14T10:46:51.526Z</time>
      </trkpt>
      <trkpt lat="39.55496667" lon="2.62450333">
        <ele>5.0</ele>
        <time>2022-05-14T10:46:52.525Z</time>
      </trkpt>
      <trkpt lat="39.55493667" lon="2.624485">
        <ele>5.0</ele>
        <time>2022-05-14T10:46:53.525Z</time>
      </trkpt>
      <trkpt lat="39.55489833" lon="2.62446167">
        <ele>6.0</ele>
        <time>2022-05-14T10:46:54.525Z</time>
      </trkpt>
      <trkpt lat="39.55486167" lon="2.62444">
        <ele>6.0</ele>
        <time>2022-05-14T10:46:55.526Z</time>
      </trkpt>
      <trkpt lat="39.554825" lon="2.62441667">
        <ele>6.0</ele>
        <time>2022-05-14T10:46:56.526Z</time>
      </trkpt>
      <trkpt lat="39.55478667" lon="2.62439667">
        <ele>5.0</ele>
        <time>2022-05-14T10:46:57.525Z</time>
      </trkpt>
      <trkpt lat="39.55474167" lon="2.62437333">
        <ele>5.0</ele>
        <time>2022-05-14T10:46:58.525Z</time>
      </trkpt>
      <trkpt lat="39.554705" lon="2.62435333">
        <ele>5.0</ele>
        <time>2022-05-14T10:46:59.525Z</time>
      </trkpt>
      <trkpt lat="39.55467667" lon="2.624335">
        <ele>4.0</ele>
        <time>2022-05-14T10:47:00.525Z</time>
      </trkpt>
      <trkpt lat="39.55463333" lon="2.62430833">
        <ele>4.0</ele>
        <time>2022-05-14T10:47:01.525Z</time>
      </trkpt>
      <trkpt lat="39.55459833" lon="2.62428333">
        <ele>4.0</ele>
        <time>2022-05-14T10:47:02.526Z</time>
      </trkpt>
      <trkpt lat="39.55457167" lon="2.62426167">
        <ele>4.0</ele>
        <time>2022-05-14T10:47:03.525Z</time>
      </trkpt>
      <trkpt lat="39.55454167" lon="2.62423333">
        <ele>4.0</ele>
        <time>2022-05-14T10:47:04.525Z</time>
      </trkpt>
      <trkpt lat="39.55450833" lon="2.62420667">
        <ele>4.0</ele>
        <time>2022-05-14T10:47:05.525Z</time>
      </trkpt>
      <trkpt lat="39.554475" lon="2.624185">
        <ele>4.0</ele>
        <time>2022-05-14T10:47:06.525Z</time>
      </trkpt>
      <trkpt lat="39.554435" lon="2.62416167">
        <ele>4.0</ele>
        <time>2022-05-14T10:47:07.526Z</time>
      </trkpt>
      <trkpt lat="39.5544" lon="2.62414167">
        <ele>3.0</ele>
        <time>2022-05-14T10:47:08.525Z</time>
      </trkpt>
      <trkpt lat="39.55437167" lon="2.62412667">
        <ele>3.0</ele>
        <time>2022-05-14T10:47:09.526Z</time>
      </trkpt>
      <trkpt lat="39.55433833" lon="2.62410833">
        <ele>3.0</ele>
        <time>2022-05-14T10:47:10.526Z</time>
      </trkpt>
      <trkpt lat="39.554295" lon="2.624095">
        <ele>2.0</ele>
        <time>2022-05-14T10:47:11.526Z</time>
      </trkpt>
      <trkpt lat="39.55426833" lon="2.62409333">
        <ele>2.0</ele>
        <time>2022-05-14T10:47:12.525Z</time>
      </trkpt>
      <trkpt lat="39.55423333" lon="2.62409333">
        <ele>2.0</ele>
        <time>2022-05-14T10:47:13.526Z</time>
      </trkpt>
      <trkpt lat="39.5542" lon="2.62408833">
        <ele>2.0</ele>
        <time>2022-05-14T10:47:14.526Z</time>
      </trkpt>
      <trkpt lat="39.554165" lon="2.62408">
        <ele>2.0</ele>
        <time>2022-05-14T10:47:15.525Z</time>
      </trkpt>
      <trkpt lat="39.55412833" lon="2.62406833">
        <ele>3.0</ele>
        <time>2022-05-14T10:47:16.525Z</time>
      </trkpt>
      <trkpt lat="39.55409" lon="2.62405333">
        <ele>3.0</ele>
        <time>2022-05-14T10:47:17.525Z</time>
      </trkpt>
      <trkpt lat="39.554055" lon="2.624035">
        <ele>3.0</ele>
        <time>2022-05-14T10:47:18.526Z</time>
      </trkpt>
      <trkpt lat="39.55401667" lon="2.62401833">
        <ele>3.0</ele>
        <time>2022-05-14T10:47:19.526Z</time>
      </trkpt>
      <trkpt lat="39.55397333" lon="2.62400333">
        <ele>3.0</ele>
        <time>2022-05-14T10:47:20.525Z</time>
      </trkpt>
      <trkpt lat="39.553935" lon="2.62399">
        <ele>2.0</ele>
        <time>2022-05-14T10:47:21.525Z</time>
      </trkpt>
      <trkpt lat="39.55390333" lon="2.62398">
        <ele>2.0</ele>
        <time>2022-05-14T10:47:22.526Z</time>
      </trkpt>
      <trkpt lat="39.55386333" lon="2.62396667">
        <ele>1.0</ele>
        <time>2022-05-14T10:47:23.525Z</time>
      </trkpt>
      <trkpt lat="39.55381833" lon="2.62394833">
        <ele>1.0</ele>
        <time>2022-05-14T10:47:24.526Z</time>
      </trkpt>
      <trkpt lat="39.55377833" lon="2.62393667">
        <ele>0.0</ele>
        <time>2022-05-14T10:47:25.526Z</time>
      </trkpt>
      <trkpt lat="39.553745" lon="2.62393333">
        <ele>0.0</ele>
        <time>2022-05-14T10:47:26.525Z</time>
      </trkpt>
      <trkpt lat="39.55371333" lon="2.62393">
        <ele>0.0</ele>
        <time>2022-05-14T10:47:27.526Z</time>
      </trkpt>
      <trkpt lat="39.55366" lon="2.623925">
        <ele>0.0</ele>
        <time>2022-05-14T10:47:28.525Z</time>
      </trkpt>
      <trkpt lat="39.55360333" lon="2.62391667">
        <ele>0.0</ele>
        <time>2022-05-14T10:47:29.526Z</time>
      </trkpt>
      <trkpt lat="39.55355667" lon="2.62390833">
        <ele>0.0</ele>
        <time>2022-05-14T10:47:30.525Z</time>
      </trkpt>
      <trkpt lat="39.55351333" lon="2.62390167">
        <ele>0.0</ele>
        <time>2022-05-14T10:47:31.525Z</time>
      </trkpt>
      <trkpt lat="39.55348" lon="2.62389833">
        <ele>0.0</ele>
        <time>2022-05-14T10:47:32.526Z</time>
      </trkpt>
      <trkpt lat="39.55343" lon="2.6239">
        <ele>0.0</ele>
        <time>2022-05-14T10:47:33.526Z</time>
      </trkpt>
      <trkpt lat="39.55339" lon="2.623905">
        <ele>0.0</ele>
        <time>2022-05-14T10:47:34.526Z</time>
      </trkpt>
      <trkpt lat="39.55335167" lon="2.62391667">
        <ele>0.0</ele>
        <time>2022-05-14T10:47:35.525Z</time>
      </trkpt>
      <trkpt lat="39.553325" lon="2.62393">
        <ele>0.0</ele>
        <time>2022-05-14T10:47:36.525Z</time>
      </trkpt>
      <trkpt lat="39.55329" lon="2.62395333">
        <ele>0.0</ele>
        <time>2022-05-14T10:47:37.526Z</time>
      </trkpt>
      <trkpt lat="39.55326167" lon="2.62397667">
        <ele>0.0</ele>
        <time>2022-05-14T10:47:38.526Z</time>
      </trkpt>
      <trkpt lat="39.55323167" lon="2.62399167">
        <ele>0.0</ele>
        <time>2022-05-14T10:47:39.526Z</time>
      </trkpt>
      <trkpt lat="39.55321167" lon="2.62399">
        <ele>1.0</ele>
        <time>2022-05-14T10:47:40.526Z</time>
      </trkpt>
      <trkpt lat="39.553195" lon="2.62397333">
        <ele>1.0</ele>
        <time>2022-05-14T10:47:41.525Z</time>
      </trkpt>
      <trkpt lat="39.55318" lon="2.623945">
        <ele>1.0</ele>
        <time>2022-05-14T10:47:42.525Z</time>
      </trkpt>
      <trkpt lat="39.55317" lon="2.62391667">
        <ele>1.0</ele>
        <time>2022-05-14T10:47:43.525Z</time>
      </trkpt>
      <trkpt lat="39.55316167" lon="2.62389167">
        <ele>2.0</ele>
        <time>2022-05-14T10:47:44.526Z</time>
      </trkpt>
      <trkpt lat="39.55314833" lon="2.62386667">
        <ele>2.0</ele>
        <time>2022-05-14T10:47:45.526Z</time>
      </trkpt>
      <trkpt lat="39.55312833" lon="2.62384333">
        <ele>3.0</ele>
        <time>2022-05-14T10:47:46.526Z</time>
      </trkpt>
      <trkpt lat="39.55310333" lon="2.62383167">
        <ele>3.0</ele>
        <time>2022-05-14T10:47:47.525Z</time>
      </trkpt>
      <trkpt lat="39.55307333" lon="2.623825">
        <ele>3.0</ele>
        <time>2022-05-14T10:47:48.525Z</time>
      </trkpt>
      <trkpt lat="39.55304167" lon="2.62382167">
        <ele>3.0</ele>
        <time>2022-05-14T10:47:49.525Z</time>
      </trkpt>
      <trkpt lat="39.553005" lon="2.62382">
        <ele>3.0</ele>
        <time>2022-05-14T10:47:50.526Z</time>
      </trkpt>
      <trkpt lat="39.55296833" lon="2.62382333">
        <ele>3.0</ele>
        <time>2022-05-14T10:47:51.525Z</time>
      </trkpt>
      <trkpt lat="39.552925" lon="2.62382833">
        <ele>3.0</ele>
        <time>2022-05-14T10:47:52.526Z</time>
      </trkpt>
      <trkpt lat="39.55288333" lon="2.62383333">
        <ele>3.0</ele>
        <time>2022-05-14T10:47:53.526Z</time>
      </trkpt>
      <trkpt lat="39.55285167" lon="2.62383667">
        <ele>3.0</ele>
        <time>2022-05-14T10:47:54.526Z</time>
      </trkpt>
      <trkpt lat="39.55281167" lon="2.62384333">
        <ele>3.0</ele>
        <time>2022-05-14T10:47:55.526Z</time>
      </trkpt>
      <trkpt lat="39.55276667" lon="2.62385333">
        <ele>3.0</ele>
        <time>2022-05-14T10:47:56.525Z</time>
      </trkpt>
      <trkpt lat="39.55273667" lon="2.62386167">
        <ele>3.0</ele>
        <time>2022-05-14T10:47:57.526Z</time>
      </trkpt>
      <trkpt lat="39.5527" lon="2.62387333">
        <ele>3.0</ele>
        <time>2022-05-14T10:47:58.526Z</time>
      </trkpt>
      <trkpt lat="39.55266167" lon="2.62388333">
        <ele>4.0</ele>
        <time>2022-05-14T10:47:59.525Z</time>
      </trkpt>
      <trkpt lat="39.55262333" lon="2.623895">
        <ele>4.0</ele>
        <time>2022-05-14T10:48:00.526Z</time>
      </trkpt>
      <trkpt lat="39.55258333" lon="2.62390333">
        <ele>4.0</ele>
        <time>2022-05-14T10:48:01.526Z</time>
      </trkpt>
      <trkpt lat="39.552545" lon="2.62391">
        <ele>3.0</ele>
        <time>2022-05-14T10:48:02.526Z</time>
      </trkpt>
      <trkpt lat="39.55250667" lon="2.62392">
        <ele>3.0</ele>
        <time>2022-05-14T10:48:03.526Z</time>
      </trkpt>
      <trkpt lat="39.55246833" lon="2.62392833">
        <ele>3.0</ele>
        <time>2022-05-14T10:48:04.525Z</time>
      </trkpt>
      <trkpt lat="39.55242167" lon="2.62394">
        <ele>3.0</ele>
        <time>2022-05-14T10:48:05.526Z</time>
      </trkpt>
      <trkpt lat="39.552385" lon="2.62395167">
        <ele>3.0</ele>
        <time>2022-05-14T10:48:06.526Z</time>
      </trkpt>
      <trkpt lat="39.55235333" lon="2.62396167">
        <ele>3.0</ele>
        <time>2022-05-14T10:48:07.526Z</time>
      </trkpt>
      <trkpt lat="39.552315" lon="2.62397333">
        <ele>4.0</ele>
        <time>2022-05-14T10:48:08.525Z</time>
      </trkpt>
      <trkpt lat="39.552275" lon="2.62398667">
        <ele>4.0</ele>
        <time>2022-05-14T10:48:09.526Z</time>
      </trkpt>
      <trkpt lat="39.55223667" lon="2.624">
        <ele>4.0</ele>
        <time>2022-05-14T10:48:10.525Z</time>
      </trkpt>
      <trkpt lat="39.55218833" lon="2.624015">
        <ele>4.0</ele>
        <time>2022-05-14T10:48:11.526Z</time>
      </trkpt>
      <trkpt lat="39.55215833" lon="2.624025">
        <ele>4.0</ele>
        <time>2022-05-14T10:48:12.526Z</time>
      </trkpt>
      <trkpt lat="39.55212" lon="2.624035">
        <ele>4.0</ele>
        <time>2022-05-14T10:48:13.525Z</time>
      </trkpt>
      <trkpt lat="39.55207167" lon="2.62404833">
        <ele>4.0</ele>
        <time>2022-05-14T10:48:14.525Z</time>
      </trkpt>
      <trkpt lat="39.55203833" lon="2.624055">
        <ele>4.0</ele>
        <time>2022-05-14T10:48:15.526Z</time>
      </trkpt>
      <trkpt lat="39.55199833" lon="2.62406667">
        <ele>3.0</ele>
        <time>2022-05-14T10:48:16.526Z</time>
      </trkpt>
      <trkpt lat="39.55196" lon="2.62407667">
        <ele>3.0</ele>
        <time>2022-05-14T10:48:17.526Z</time>
      </trkpt>
      <trkpt lat="39.551915" lon="2.62408667">
        <ele>3.0</ele>
        <time>2022-05-14T10:48:18.526Z</time>
      </trkpt>
      <trkpt lat="39.55188333" lon="2.62409167">
        <ele>2.0</ele>
        <time>2022-05-14T10:48:19.526Z</time>
      </trkpt>
      <trkpt lat="39.55184167" lon="2.62409">
        <ele>2.0</ele>
        <time>2022-05-14T10:48:20.526Z</time>
      </trkpt>
      <trkpt lat="39.55180333" lon="2.62409167">
        <ele>2.0</ele>
        <time>2022-05-14T10:48:21.526Z</time>
      </trkpt>
      <trkpt lat="39.55176833" lon="2.624095">
        <ele>2.0</ele>
        <time>2022-05-14T10:48:22.525Z</time>
      </trkpt>
      <trkpt lat="39.55172333" lon="2.62410167">
        <ele>2.0</ele>
        <time>2022-05-14T10:48:23.526Z</time>
      </trkpt>
      <trkpt lat="39.55168833" lon="2.62411167">
        <ele>2.0</ele>
        <time>2022-05-14T10:48:24.525Z</time>
      </trkpt>
      <trkpt lat="39.55165333" lon="2.62412">
        <ele>2.0</ele>
        <time>2022-05-14T10:48:25.526Z</time>
      </trkpt>
      <trkpt lat="39.55162333" lon="2.62412833">
        <ele>2.0</ele>
        <time>2022-05-14T10:48:26.525Z</time>
      </trkpt>
      <trkpt lat="39.55158833" lon="2.62413667">
        <ele>3.0</ele>
        <time>2022-05-14T10:48:27.526Z</time>
      </trkpt>
      <trkpt lat="39.55154667" lon="2.62415">
        <ele>3.0</ele>
        <time>2022-05-14T10:48:28.526Z</time>
      </trkpt>
      <trkpt lat="39.55151333" lon="2.62416">
        <ele>4.0</ele>
        <time>2022-05-14T10:48:29.525Z</time>
      </trkpt>
      <trkpt lat="39.55148667" lon="2.62416833">
        <ele>4.0</ele>
        <time>2022-05-14T10:48:30.525Z</time>
      </trkpt>
      <trkpt lat="39.55145" lon="2.62417667">
        <ele>4.0</ele>
        <time>2022-05-14T10:48:31.525Z</time>
      </trkpt>
      <trkpt lat="39.55142167" lon="2.624185">
        <ele>4.0</ele>
        <time>2022-05-14T10:48:32.526Z</time>
      </trkpt>
      <trkpt lat="39.551395" lon="2.62419333">
        <ele>5.0</ele>
        <time>2022-05-14T10:48:33.526Z</time>
      </trkpt>
      <trkpt lat="39.551375" lon="2.6242">
        <ele>5.0</ele>
        <time>2022-05-14T10:48:34.525Z</time>
      </trkpt>
      <trkpt lat="39.55134667" lon="2.62420667">
        <ele>5.0</ele>
        <time>2022-05-14T10:48:35.526Z</time>
      </trkpt>
      <trkpt lat="39.55131333" lon="2.624215">
        <ele>5.0</ele>
        <time>2022-05-14T10:48:36.525Z</time>
      </trkpt>
      <trkpt lat="39.55129" lon="2.62422">
        <ele>4.0</ele>
        <time>2022-05-14T10:48:37.525Z</time>
      </trkpt>
      <trkpt lat="39.551265" lon="2.62422667">
        <ele>4.0</ele>
        <time>2022-05-14T10:48:38.525Z</time>
      </trkpt>
      <trkpt lat="39.55124167" lon="2.62423167">
        <ele>3.0</ele>
        <time>2022-05-14T10:48:39.525Z</time>
      </trkpt>
      <trkpt lat="39.55122333" lon="2.62424167">
        <ele>4.0</ele>
        <time>2022-05-14T10:48:40.525Z</time>
      </trkpt>
      <trkpt lat="39.55120833" lon="2.62424667">
        <ele>4.0</ele>
        <time>2022-05-14T10:48:41.525Z</time>
      </trkpt>
      <trkpt lat="39.5512" lon="2.62425">
        <ele>5.0</ele>
        <time>2022-05-14T10:48:42.526Z</time>
      </trkpt>
      <trkpt lat="39.55119" lon="2.624255">
        <ele>5.0</ele>
        <time>2022-05-14T10:48:43.525Z</time>
      </trkpt>
      <trkpt lat="39.55117833" lon="2.62425833">
        <ele>5.0</ele>
        <time>2022-05-14T10:48:44.525Z</time>
      </trkpt>
      <trkpt lat="39.55116" lon="2.62426">
        <ele>5.0</ele>
        <time>2022-05-14T10:48:45.525Z</time>
      </trkpt>
      <trkpt lat="39.55114667" lon="2.624265">
        <ele>5.0</ele>
        <time>2022-05-14T10:48:46.526Z</time>
      </trkpt>
      <trkpt lat="39.55113333" lon="2.62427">
        <ele>5.0</ele>
        <time>2022-05-14T10:48:47.525Z</time>
      </trkpt>
      <trkpt lat="39.55112167" lon="2.62427667">
        <ele>5.0</ele>
        <time>2022-05-14T10:48:48.525Z</time>
      </trkpt>
      <trkpt lat="39.55110833" lon="2.62428">
        <ele>5.0</ele>
        <time>2022-05-14T10:48:49.525Z</time>
      </trkpt>
      <trkpt lat="39.55109833" lon="2.62428">
        <ele>5.0</ele>
        <time>2022-05-14T10:48:50.526Z</time>
      </trkpt>
      <trkpt lat="39.55109333" lon="2.62427833">
        <ele>5.0</ele>
        <time>2022-05-14T10:48:51.526Z</time>
      </trkpt>
      <trkpt lat="39.55109" lon="2.624275">
        <ele>6.0</ele>
        <time>2022-05-14T10:48:52.526Z</time>
      </trkpt>
      <trkpt lat="39.55108833" lon="2.62427167">
        <ele>7.0</ele>
        <time>2022-05-14T10:48:53.525Z</time>
      </trkpt>
      <trkpt lat="39.55108333" lon="2.62427167">
        <ele>6.0</ele>
        <time>2022-05-14T10:48:54.526Z</time>
      </trkpt>
      <trkpt lat="39.55107667" lon="2.62426833">
        <ele>6.0</ele>
        <time>2022-05-14T10:48:55.526Z</time>
      </trkpt>
      <trkpt lat="39.551065" lon="2.624265">
        <ele>6.0</ele>
        <time>2022-05-14T10:48:56.526Z</time>
      </trkpt>
      <trkpt lat="39.551055" lon="2.62426167">
        <ele>5.0</ele>
        <time>2022-05-14T10:48:57.526Z</time>
      </trkpt>
      <trkpt lat="39.55103833" lon="2.62425667">
        <ele>5.0</ele>
        <time>2022-05-14T10:48:58.526Z</time>
      </trkpt>
      <trkpt lat="39.55101833" lon="2.62425">
        <ele>5.0</ele>
        <time>2022-05-14T10:48:59.526Z</time>
      </trkpt>
      <trkpt lat="39.55099333" lon="2.62424167">
        <ele>4.0</ele>
        <time>2022-05-14T10:49:00.525Z</time>
      </trkpt>
      <trkpt lat="39.550965" lon="2.62423333">
        <ele>4.0</ele>
        <time>2022-05-14T10:49:01.526Z</time>
      </trkpt>
      <trkpt lat="39.550935" lon="2.62422333">
        <ele>4.0</ele>
        <time>2022-05-14T10:49:02.525Z</time>
      </trkpt>
      <trkpt lat="39.55090667" lon="2.62421333">
        <ele>4.0</ele>
        <time>2022-05-14T10:49:03.526Z</time>
      </trkpt>
      <trkpt lat="39.550875" lon="2.62420333">
        <ele>4.0</ele>
        <time>2022-05-14T10:49:04.525Z</time>
      </trkpt>
      <trkpt lat="39.550845" lon="2.62419">
        <ele>3.0</ele>
        <time>2022-05-14T10:49:05.525Z</time>
      </trkpt>
      <trkpt lat="39.55081333" lon="2.62417667">
        <ele>3.0</ele>
        <time>2022-05-14T10:49:06.526Z</time>
      </trkpt>
      <trkpt lat="39.550785" lon="2.62416333">
        <ele>3.0</ele>
        <time>2022-05-14T10:49:07.526Z</time>
      </trkpt>
      <trkpt lat="39.550755" lon="2.62414667">
        <ele>3.0</ele>
        <time>2022-05-14T10:49:08.525Z</time>
      </trkpt>
      <trkpt lat="39.550725" lon="2.624135">
        <ele>3.0</ele>
        <time>2022-05-14T10:49:09.525Z</time>
      </trkpt>
      <trkpt lat="39.55069667" lon="2.62412167">
        <ele>3.0</ele>
        <time>2022-05-14T10:49:10.526Z</time>
      </trkpt>
      <trkpt lat="39.55067" lon="2.62411">
        <ele>4.0</ele>
        <time>2022-05-14T10:49:11.525Z</time>
      </trkpt>
      <trkpt lat="39.550645" lon="2.62409667">
        <ele>4.0</ele>
        <time>2022-05-14T10:49:12.525Z</time>
      </trkpt>
      <trkpt lat="39.550625" lon="2.62408167">
        <ele>4.0</ele>
        <time>2022-05-14T10:49:13.525Z</time>
      </trkpt>
      <trkpt lat="39.55060333" lon="2.62406833">
        <ele>5.0</ele>
        <time>2022-05-14T10:49:14.526Z</time>
      </trkpt>
      <trkpt lat="39.550585" lon="2.62405">
        <ele>5.0</ele>
        <time>2022-05-14T10:49:15.526Z</time>
      </trkpt>
      <trkpt lat="39.550565" lon="2.62403333">
        <ele>5.0</ele>
        <time>2022-05-14T10:49:16.526Z</time>
      </trkpt>
      <trkpt lat="39.55054833" lon="2.62401833">
        <ele>5.0</ele>
        <time>2022-05-14T10:49:17.525Z</time>
      </trkpt>
      <trkpt lat="39.55053167" lon="2.62400333">
        <ele>5.0</ele>
        <time>2022-05-14T10:49:18.525Z</time>
      </trkpt>
      <trkpt lat="39.550515" lon="2.62399167">
        <ele>5.0</ele>
        <time>2022-05-14T10:49:19.526Z</time>
      </trkpt>
      <trkpt lat="39.55049833" lon="2.62397667">
        <ele>5.0</ele>
        <time>2022-05-14T10:49:20.526Z</time>
      </trkpt>
      <trkpt lat="39.55047833" lon="2.623955">
        <ele>5.0</ele>
        <time>2022-05-14T10:49:21.525Z</time>
      </trkpt>
      <trkpt lat="39.55045833" lon="2.62393167">
        <ele>6.0</ele>
        <time>2022-05-14T10:49:22.525Z</time>
      </trkpt>
      <trkpt lat="39.550435" lon="2.62390333">
        <ele>5.0</ele>
        <time>2022-05-14T10:49:23.526Z</time>
      </trkpt>
      <trkpt lat="39.55041333" lon="2.62387167">
        <ele>5.0</ele>
        <time>2022-05-14T10:49:24.525Z</time>
      </trkpt>
      <trkpt lat="39.55038667" lon="2.62383833">
        <ele>5.0</ele>
        <time>2022-05-14T10:49:25.526Z</time>
      </trkpt>
      <trkpt lat="39.55036167" lon="2.62380333">
        <ele>5.0</ele>
        <time>2022-05-14T10:49:26.525Z</time>
      </trkpt>
      <trkpt lat="39.55033833" lon="2.62376833">
        <ele>5.0</ele>
        <time>2022-05-14T10:49:27.526Z</time>
      </trkpt>
      <trkpt lat="39.55031667" lon="2.62372667">
        <ele>5.0</ele>
        <time>2022-05-14T10:49:28.525Z</time>
      </trkpt>
      <trkpt lat="39.550295" lon="2.62368333">
        <ele>5.0</ele>
        <time>2022-05-14T10:49:29.525Z</time>
      </trkpt>
      <trkpt lat="39.55027667" lon="2.62364167">
        <ele>5.0</ele>
        <time>2022-05-14T10:49:30.526Z</time>
      </trkpt>
      <trkpt lat="39.55026" lon="2.62359667">
        <ele>5.0</ele>
        <time>2022-05-14T10:49:31.526Z</time>
      </trkpt>
      <trkpt lat="39.55024333" lon="2.62355">
        <ele>5.0</ele>
        <time>2022-05-14T10:49:32.525Z</time>
      </trkpt>
      <trkpt lat="39.55022833" lon="2.62350167">
        <ele>5.0</ele>
        <time>2022-05-14T10:49:33.525Z</time>
      </trkpt>
      <trkpt lat="39.550215" lon="2.62345333">
        <ele>5.0</ele>
        <time>2022-05-14T10:49:34.525Z</time>
      </trkpt>
      <trkpt lat="39.55020333" lon="2.62340333">
        <ele>5.0</ele>
        <time>2022-05-14T10:49:35.526Z</time>
      </trkpt>
      <trkpt lat="39.55019" lon="2.62335167">
        <ele>5.0</ele>
        <time>2022-05-14T10:49:36.526Z</time>
      </trkpt>
      <trkpt lat="39.55018" lon="2.62329833">
        <ele>6.0</ele>
        <time>2022-05-14T10:49:37.525Z</time>
      </trkpt>
      <trkpt lat="39.55017333" lon="2.62324333">
        <ele>6.0</ele>
        <time>2022-05-14T10:49:38.526Z</time>
      </trkpt>
      <trkpt lat="39.550165" lon="2.623185">
        <ele>6.0</ele>
        <time>2022-05-14T10:49:39.525Z</time>
      </trkpt>
      <trkpt lat="39.55016167" lon="2.62312833">
        <ele>6.0</ele>
        <time>2022-05-14T10:49:40.526Z</time>
      </trkpt>
      <trkpt lat="39.55015833" lon="2.62307167">
        <ele>6.0</ele>
        <time>2022-05-14T10:49:41.526Z</time>
      </trkpt>
      <trkpt lat="39.550155" lon="2.62301167">
        <ele>5.0</ele>
        <time>2022-05-14T10:49:42.526Z</time>
      </trkpt>
      <trkpt lat="39.55015167" lon="2.622955">
        <ele>6.0</ele>
        <time>2022-05-14T10:49:43.526Z</time>
      </trkpt>
      <trkpt lat="39.55015" lon="2.62289833">
        <ele>6.0</ele>
        <time>2022-05-14T10:49:44.526Z</time>
      </trkpt>
      <trkpt lat="39.55014667" lon="2.62283833">
        <ele>5.0</ele>
        <time>2022-05-14T10:49:45.525Z</time>
      </trkpt>
      <trkpt lat="39.55014333" lon="2.62278">
        <ele>5.0</ele>
        <time>2022-05-14T10:49:46.525Z</time>
      </trkpt>
      <trkpt lat="39.55014333" lon="2.62271333">
        <ele>5.0</ele>
        <time>2022-05-14T10:49:47.525Z</time>
      </trkpt>
      <trkpt lat="39.55014333" lon="2.62267">
        <ele>5.0</ele>
        <time>2022-05-14T10:49:48.525Z</time>
      </trkpt>
      <trkpt lat="39.55014333" lon="2.62261667">
        <ele>5.0</ele>
        <time>2022-05-14T10:49:49.525Z</time>
      </trkpt>
      <trkpt lat="39.55014333" lon="2.622565">
        <ele>5.0</ele>
        <time>2022-05-14T10:49:50.526Z</time>
      </trkpt>
      <trkpt lat="39.55014167" lon="2.62251333">
        <ele>5.0</ele>
        <time>2022-05-14T10:49:51.525Z</time>
      </trkpt>
      <trkpt lat="39.55014333" lon="2.62246167">
        <ele>5.0</ele>
        <time>2022-05-14T10:49:52.525Z</time>
      </trkpt>
      <trkpt lat="39.55014167" lon="2.62240833">
        <ele>5.0</ele>
        <time>2022-05-14T10:49:53.525Z</time>
      </trkpt>
      <trkpt lat="39.55014" lon="2.62235667">
        <ele>5.0</ele>
        <time>2022-05-14T10:49:54.526Z</time>
      </trkpt>
      <trkpt lat="39.55014" lon="2.622305">
        <ele>5.0</ele>
        <time>2022-05-14T10:49:55.525Z</time>
      </trkpt>
      <trkpt lat="39.55013833" lon="2.62225167">
        <ele>5.0</ele>
        <time>2022-05-14T10:49:56.525Z</time>
      </trkpt>
      <trkpt lat="39.55014" lon="2.62219833">
        <ele>5.0</ele>
        <time>2022-05-14T10:49:57.525Z</time>
      </trkpt>
      <trkpt lat="39.55013833" lon="2.62214333">
        <ele>5.0</ele>
        <time>2022-05-14T10:49:58.526Z</time>
      </trkpt>
      <trkpt lat="39.55014" lon="2.62209">
        <ele>4.0</ele>
        <time>2022-05-14T10:49:59.525Z</time>
      </trkpt>
      <trkpt lat="39.55014167" lon="2.622035">
        <ele>4.0</ele>
        <time>2022-05-14T10:50:00.526Z</time>
      </trkpt>
      <trkpt lat="39.55014333" lon="2.62196667">
        <ele>4.0</ele>
        <time>2022-05-14T10:50:01.526Z</time>
      </trkpt>
      <trkpt lat="39.550145" lon="2.62192167">
        <ele>3.0</ele>
        <time>2022-05-14T10:50:02.525Z</time>
      </trkpt>
      <trkpt lat="39.55015167" lon="2.621865">
        <ele>3.0</ele>
        <time>2022-05-14T10:50:03.526Z</time>
      </trkpt>
      <trkpt lat="39.55016" lon="2.62181">
        <ele>3.0</ele>
        <time>2022-05-14T10:50:04.525Z</time>
      </trkpt>
      <trkpt lat="39.55017" lon="2.621755">
        <ele>3.0</ele>
        <time>2022-05-14T10:50:05.525Z</time>
      </trkpt>
      <trkpt lat="39.55018167" lon="2.621705">
        <ele>3.0</ele>
        <time>2022-05-14T10:50:06.525Z</time>
      </trkpt>
      <trkpt lat="39.55019833" lon="2.621655">
        <ele>2.0</ele>
        <time>2022-05-14T10:50:07.525Z</time>
      </trkpt>
      <trkpt lat="39.550215" lon="2.62160333">
        <ele>2.0</ele>
        <time>2022-05-14T10:50:08.526Z</time>
      </trkpt>
      <trkpt lat="39.55023" lon="2.62155333">
        <ele>2.0</ele>
        <time>2022-05-14T10:50:09.525Z</time>
      </trkpt>
      <trkpt lat="39.55024833" lon="2.621505">
        <ele>2.0</ele>
        <time>2022-05-14T10:50:10.525Z</time>
      </trkpt>
      <trkpt lat="39.55026833" lon="2.621455">
        <ele>2.0</ele>
        <time>2022-05-14T10:50:11.526Z</time>
      </trkpt>
      <trkpt lat="39.55028667" lon="2.621405">
        <ele>2.0</ele>
        <time>2022-05-14T10:50:12.526Z</time>
      </trkpt>
      <trkpt lat="39.55030167" lon="2.62135333">
        <ele>2.0</ele>
        <time>2022-05-14T10:50:13.525Z</time>
      </trkpt>
      <trkpt lat="39.55031833" lon="2.62130667">
        <ele>3.0</ele>
        <time>2022-05-14T10:50:14.525Z</time>
      </trkpt>
      <trkpt lat="39.550335" lon="2.62125667">
        <ele>3.0</ele>
        <time>2022-05-14T10:50:15.525Z</time>
      </trkpt>
      <trkpt lat="39.55035" lon="2.62121833">
        <ele>3.0</ele>
        <time>2022-05-14T10:50:16.526Z</time>
      </trkpt>
      <trkpt lat="39.55036" lon="2.62119167">
        <ele>3.0</ele>
        <time>2022-05-14T10:50:17.526Z</time>
      </trkpt>
      <trkpt lat="39.55038167" lon="2.62114667">
        <ele>3.0</ele>
        <time>2022-05-14T10:50:18.526Z</time>
      </trkpt>
      <trkpt lat="39.5504" lon="2.621105">
        <ele>3.0</ele>
        <time>2022-05-14T10:50:19.525Z</time>
      </trkpt>
      <trkpt lat="39.55041667" lon="2.62105667">
        <ele>4.0</ele>
        <time>2022-05-14T10:50:20.525Z</time>
      </trkpt>
      <trkpt lat="39.55043" lon="2.62101833">
        <ele>4.0</ele>
        <time>2022-05-14T10:50:21.526Z</time>
      </trkpt>
      <trkpt lat="39.55044833" lon="2.62096">
        <ele>4.0</ele>
        <time>2022-05-14T10:50:22.525Z</time>
      </trkpt>
      <trkpt lat="39.55046167" lon="2.62090833">
        <ele>4.0</ele>
        <time>2022-05-14T10:50:23.526Z</time>
      </trkpt>
      <trkpt lat="39.550475" lon="2.62085833">
        <ele>5.0</ele>
        <time>2022-05-14T10:50:24.525Z</time>
      </trkpt>
      <trkpt lat="39.55048833" lon="2.62080833">
        <ele>5.0</ele>
        <time>2022-05-14T10:50:25.526Z</time>
      </trkpt>
      <trkpt lat="39.5505" lon="2.62075833">
        <ele>5.0</ele>
        <time>2022-05-14T10:50:26.525Z</time>
      </trkpt>
      <trkpt lat="39.55051167" lon="2.62070833">
        <ele>5.0</ele>
        <time>2022-05-14T10:50:27.526Z</time>
      </trkpt>
      <trkpt lat="39.55052" lon="2.62065833">
        <ele>5.0</ele>
        <time>2022-05-14T10:50:28.526Z</time>
      </trkpt>
      <trkpt lat="39.55052833" lon="2.62060833">
        <ele>4.0</ele>
        <time>2022-05-14T10:50:29.526Z</time>
      </trkpt>
      <trkpt lat="39.55053667" lon="2.62055667">
        <ele>4.0</ele>
        <time>2022-05-14T10:50:30.525Z</time>
      </trkpt>
      <trkpt lat="39.55054667" lon="2.620505">
        <ele>4.0</ele>
        <time>2022-05-14T10:50:31.525Z</time>
      </trkpt>
      <trkpt lat="39.55055333" lon="2.62045333">
        <ele>4.0</ele>
        <time>2022-05-14T10:50:32.526Z</time>
      </trkpt>
      <trkpt lat="39.55056333" lon="2.62040167">
        <ele>4.0</ele>
        <time>2022-05-14T10:50:33.526Z</time>
      </trkpt>
      <trkpt lat="39.55057167" lon="2.62035">
        <ele>4.0</ele>
        <time>2022-05-14T10:50:34.526Z</time>
      </trkpt>
      <trkpt lat="39.55058" lon="2.62030833">
        <ele>3.0</ele>
        <time>2022-05-14T10:50:35.525Z</time>
      </trkpt>
      <trkpt lat="39.55058833" lon="2.62025333">
        <ele>3.0</ele>
        <time>2022-05-14T10:50:36.526Z</time>
      </trkpt>
      <trkpt lat="39.55059667" lon="2.62018667">
        <ele>3.0</ele>
        <time>2022-05-14T10:50:37.526Z</time>
      </trkpt>
      <trkpt lat="39.550605" lon="2.620135">
        <ele>3.0</ele>
        <time>2022-05-14T10:50:38.525Z</time>
      </trkpt>
      <trkpt lat="39.55061" lon="2.62009167">
        <ele>3.0</ele>
        <time>2022-05-14T10:50:39.526Z</time>
      </trkpt>
      <trkpt lat="39.55062" lon="2.62002667">
        <ele>4.0</ele>
        <time>2022-05-14T10:50:40.526Z</time>
      </trkpt>
      <trkpt lat="39.55062833" lon="2.61997333">
        <ele>4.0</ele>
        <time>2022-05-14T10:50:41.526Z</time>
      </trkpt>
      <trkpt lat="39.550635" lon="2.61992">
        <ele>4.0</ele>
        <time>2022-05-14T10:50:42.526Z</time>
      </trkpt>
      <trkpt lat="39.55064" lon="2.61986667">
        <ele>4.0</ele>
        <time>2022-05-14T10:50:43.525Z</time>
      </trkpt>
      <trkpt lat="39.55064167" lon="2.61981333">
        <ele>5.0</ele>
        <time>2022-05-14T10:50:44.526Z</time>
      </trkpt>
      <trkpt lat="39.55064333" lon="2.61976167">
        <ele>5.0</ele>
        <time>2022-05-14T10:50:45.526Z</time>
      </trkpt>
      <trkpt lat="39.55064333" lon="2.61971">
        <ele>5.0</ele>
        <time>2022-05-14T10:50:46.525Z</time>
      </trkpt>
      <trkpt lat="39.55064833" lon="2.61966">
        <ele>4.0</ele>
        <time>2022-05-14T10:50:47.525Z</time>
      </trkpt>
      <trkpt lat="39.55065333" lon="2.61961167">
        <ele>4.0</ele>
        <time>2022-05-14T10:50:48.525Z</time>
      </trkpt>
      <trkpt lat="39.55066" lon="2.61957667">
        <ele>5.0</ele>
        <time>2022-05-14T10:50:49.525Z</time>
      </trkpt>
      <trkpt lat="39.55066667" lon="2.61952333">
        <ele>4.0</ele>
        <time>2022-05-14T10:50:50.526Z</time>
      </trkpt>
      <trkpt lat="39.55067" lon="2.61948">
        <ele>4.0</ele>
        <time>2022-05-14T10:50:51.526Z</time>
      </trkpt>
      <trkpt lat="39.55067333" lon="2.619435">
        <ele>4.0</ele>
        <time>2022-05-14T10:50:52.526Z</time>
      </trkpt>
      <trkpt lat="39.55067167" lon="2.61938667">
        <ele>4.0</ele>
        <time>2022-05-14T10:50:53.525Z</time>
      </trkpt>
      <trkpt lat="39.550665" lon="2.61933833">
        <ele>4.0</ele>
        <time>2022-05-14T10:50:54.526Z</time>
      </trkpt>
      <trkpt lat="39.55065833" lon="2.6193">
        <ele>5.0</ele>
        <time>2022-05-14T10:50:55.525Z</time>
      </trkpt>
      <trkpt lat="39.55064167" lon="2.61924667">
        <ele>6.0</ele>
        <time>2022-05-14T10:50:56.525Z</time>
      </trkpt>
      <trkpt lat="39.55062667" lon="2.61921333">
        <ele>6.0</ele>
        <time>2022-05-14T10:50:57.525Z</time>
      </trkpt>
      <trkpt lat="39.55060833" lon="2.61917333">
        <ele>6.0</ele>
        <time>2022-05-14T10:50:58.526Z</time>
      </trkpt>
      <trkpt lat="39.55059333" lon="2.61913">
        <ele>6.0</ele>
        <time>2022-05-14T10:50:59.526Z</time>
      </trkpt>
      <trkpt lat="39.55057667" lon="2.61907833">
        <ele>6.0</ele>
        <time>2022-05-14T10:51:00.526Z</time>
      </trkpt>
      <trkpt lat="39.55056167" lon="2.61903833">
        <ele>5.0</ele>
        <time>2022-05-14T10:51:01.525Z</time>
      </trkpt>
      <trkpt lat="39.55054833" lon="2.619005">
        <ele>4.0</ele>
        <time>2022-05-14T10:51:02.526Z</time>
      </trkpt>
      <trkpt lat="39.55053" lon="2.61897167">
        <ele>4.0</ele>
        <time>2022-05-14T10:51:03.526Z</time>
      </trkpt>
      <trkpt lat="39.550505" lon="2.61893333">
        <ele>4.0</ele>
        <time>2022-05-14T10:51:04.526Z</time>
      </trkpt>
      <trkpt lat="39.55048667" lon="2.61890833">
        <ele>4.0</ele>
        <time>2022-05-14T10:51:05.525Z</time>
      </trkpt>
      <trkpt lat="39.550475" lon="2.61887667">
        <ele>5.0</ele>
        <time>2022-05-14T10:51:06.526Z</time>
      </trkpt>
      <trkpt lat="39.550475" lon="2.61885167">
        <ele>5.0</ele>
        <time>2022-05-14T10:51:07.526Z</time>
      </trkpt>
      <trkpt lat="39.550485" lon="2.61882333">
        <ele>6.0</ele>
        <time>2022-05-14T10:51:08.526Z</time>
      </trkpt>
      <trkpt lat="39.55049833" lon="2.61879167">
        <ele>6.0</ele>
        <time>2022-05-14T10:51:09.525Z</time>
      </trkpt>
      <trkpt lat="39.55051167" lon="2.61875">
        <ele>6.0</ele>
        <time>2022-05-14T10:51:10.526Z</time>
      </trkpt>
      <trkpt lat="39.55052167" lon="2.61872">
        <ele>6.0</ele>
        <time>2022-05-14T10:51:11.526Z</time>
      </trkpt>
      <trkpt lat="39.55053667" lon="2.61868333">
        <ele>6.0</ele>
        <time>2022-05-14T10:51:12.526Z</time>
      </trkpt>
      <trkpt lat="39.55055833" lon="2.61864833">
        <ele>6.0</ele>
        <time>2022-05-14T10:51:13.525Z</time>
      </trkpt>
      <trkpt lat="39.55059" lon="2.61861167">
        <ele>6.0</ele>
        <time>2022-05-14T10:51:14.525Z</time>
      </trkpt>
      <trkpt lat="39.55061667" lon="2.61859333">
        <ele>6.0</ele>
        <time>2022-05-14T10:51:15.525Z</time>
      </trkpt>
      <trkpt lat="39.55064833" lon="2.618575">
        <ele>6.0</ele>
        <time>2022-05-14T10:51:16.526Z</time>
      </trkpt>
      <trkpt lat="39.55067833" lon="2.61856">
        <ele>6.0</ele>
        <time>2022-05-14T10:51:17.526Z</time>
      </trkpt>
      <trkpt lat="39.55071167" lon="2.61854">
        <ele>6.0</ele>
        <time>2022-05-14T10:51:18.525Z</time>
      </trkpt>
      <trkpt lat="39.55073167" lon="2.61852667">
        <ele>6.0</ele>
        <time>2022-05-14T10:51:19.525Z</time>
      </trkpt>
      <trkpt lat="39.55075833" lon="2.61850833">
        <ele>6.0</ele>
        <time>2022-05-14T10:51:20.525Z</time>
      </trkpt>
      <trkpt lat="39.550785" lon="2.61848667">
        <ele>6.0</ele>
        <time>2022-05-14T10:51:21.525Z</time>
      </trkpt>
      <trkpt lat="39.55081167" lon="2.61846">
        <ele>6.0</ele>
        <time>2022-05-14T10:51:22.526Z</time>
      </trkpt>
      <trkpt lat="39.55083333" lon="2.61843167">
        <ele>6.0</ele>
        <time>2022-05-14T10:51:23.526Z</time>
      </trkpt>
      <trkpt lat="39.550855" lon="2.618405">
        <ele>6.0</ele>
        <time>2022-05-14T10:51:24.525Z</time>
      </trkpt>
      <trkpt lat="39.55087" lon="2.61837667">
        <ele>7.0</ele>
        <time>2022-05-14T10:51:25.526Z</time>
      </trkpt>
      <trkpt lat="39.55088167" lon="2.61834667">
        <ele>7.0</ele>
        <time>2022-05-14T10:51:26.526Z</time>
      </trkpt>
      <trkpt lat="39.55089333" lon="2.61831167">
        <ele>7.0</ele>
        <time>2022-05-14T10:51:27.525Z</time>
      </trkpt>
      <trkpt lat="39.550905" lon="2.61827833">
        <ele>8.0</ele>
        <time>2022-05-14T10:51:28.525Z</time>
      </trkpt>
      <trkpt lat="39.55091333" lon="2.61824333">
        <ele>8.0</ele>
        <time>2022-05-14T10:51:29.525Z</time>
      </trkpt>
      <trkpt lat="39.55092333" lon="2.61820833">
        <ele>8.0</ele>
        <time>2022-05-14T10:51:30.525Z</time>
      </trkpt>
      <trkpt lat="39.55093333" lon="2.61817333">
        <ele>8.0</ele>
        <time>2022-05-14T10:51:31.525Z</time>
      </trkpt>
      <trkpt lat="39.55094667" lon="2.61814167">
        <ele>9.0</ele>
        <time>2022-05-14T10:51:32.526Z</time>
      </trkpt>
      <trkpt lat="39.55096" lon="2.61810667">
        <ele>9.0</ele>
        <time>2022-05-14T10:51:33.526Z</time>
      </trkpt>
      <trkpt lat="39.55097333" lon="2.61807167">
        <ele>9.0</ele>
        <time>2022-05-14T10:51:34.526Z</time>
      </trkpt>
      <trkpt lat="39.55099" lon="2.61803667">
        <ele>10.0</ele>
        <time>2022-05-14T10:51:35.526Z</time>
      </trkpt>
      <trkpt lat="39.55100833" lon="2.618005">
        <ele>10.0</ele>
        <time>2022-05-14T10:51:36.526Z</time>
      </trkpt>
      <trkpt lat="39.551025" lon="2.61797">
        <ele>10.0</ele>
        <time>2022-05-14T10:51:37.526Z</time>
      </trkpt>
      <trkpt lat="39.55104167" lon="2.61793667">
        <ele>10.0</ele>
        <time>2022-05-14T10:51:38.525Z</time>
      </trkpt>
      <trkpt lat="39.55105833" lon="2.61790167">
        <ele>10.0</ele>
        <time>2022-05-14T10:51:39.526Z</time>
      </trkpt>
      <trkpt lat="39.551075" lon="2.61787">
        <ele>10.0</ele>
        <time>2022-05-14T10:51:40.525Z</time>
      </trkpt>
      <trkpt lat="39.55109" lon="2.61783667">
        <ele>10.0</ele>
        <time>2022-05-14T10:51:41.526Z</time>
      </trkpt>
      <trkpt lat="39.55110833" lon="2.617805">
        <ele>10.0</ele>
        <time>2022-05-14T10:51:42.526Z</time>
      </trkpt>
      <trkpt lat="39.551125" lon="2.61777167">
        <ele>10.0</ele>
        <time>2022-05-14T10:51:43.526Z</time>
      </trkpt>
      <trkpt lat="39.55114167" lon="2.61773833">
        <ele>10.0</ele>
        <time>2022-05-14T10:51:44.525Z</time>
      </trkpt>
      <trkpt lat="39.55116" lon="2.61770667">
        <ele>10.0</ele>
        <time>2022-05-14T10:51:45.525Z</time>
      </trkpt>
      <trkpt lat="39.55117667" lon="2.617675">
        <ele>10.0</ele>
        <time>2022-05-14T10:51:46.525Z</time>
      </trkpt>
      <trkpt lat="39.551195" lon="2.617645">
        <ele>10.0</ele>
        <time>2022-05-14T10:51:47.525Z</time>
      </trkpt>
      <trkpt lat="39.55121667" lon="2.61761667">
        <ele>10.0</ele>
        <time>2022-05-14T10:51:48.526Z</time>
      </trkpt>
      <trkpt lat="39.55123667" lon="2.61758833">
        <ele>11.0</ele>
        <time>2022-05-14T10:51:49.525Z</time>
      </trkpt>
      <trkpt lat="39.55125667" lon="2.61755833">
        <ele>11.0</ele>
        <time>2022-05-14T10:51:50.526Z</time>
      </trkpt>
      <trkpt lat="39.55127833" lon="2.61753">
        <ele>12.0</ele>
        <time>2022-05-14T10:51:51.525Z</time>
      </trkpt>
      <trkpt lat="39.5513" lon="2.61750333">
        <ele>12.0</ele>
        <time>2022-05-14T10:51:52.526Z</time>
      </trkpt>
      <trkpt lat="39.55132" lon="2.617475">
        <ele>12.0</ele>
        <time>2022-05-14T10:51:53.525Z</time>
      </trkpt>
      <trkpt lat="39.55134" lon="2.61744833">
        <ele>11.0</ele>
        <time>2022-05-14T10:51:54.526Z</time>
      </trkpt>
      <trkpt lat="39.55136167" lon="2.617415">
        <ele>11.0</ele>
        <time>2022-05-14T10:51:55.525Z</time>
      </trkpt>
      <trkpt lat="39.55138333" lon="2.617385">
        <ele>11.0</ele>
        <time>2022-05-14T10:51:56.526Z</time>
      </trkpt>
      <trkpt lat="39.551405" lon="2.61735167">
        <ele>12.0</ele>
        <time>2022-05-14T10:51:57.526Z</time>
      </trkpt>
      <trkpt lat="39.55142667" lon="2.617325">
        <ele>12.0</ele>
        <time>2022-05-14T10:51:58.526Z</time>
      </trkpt>
      <trkpt lat="39.55144833" lon="2.617295">
        <ele>12.0</ele>
        <time>2022-05-14T10:51:59.525Z</time>
      </trkpt>
      <trkpt lat="39.55147333" lon="2.61726833">
        <ele>13.0</ele>
        <time>2022-05-14T10:52:00.526Z</time>
      </trkpt>
      <trkpt lat="39.55149667" lon="2.617245">
        <ele>13.0</ele>
        <time>2022-05-14T10:52:01.526Z</time>
      </trkpt>
      <trkpt lat="39.55152" lon="2.61722167">
        <ele>13.0</ele>
        <time>2022-05-14T10:52:02.526Z</time>
      </trkpt>
      <trkpt lat="39.55154333" lon="2.61720167">
        <ele>13.0</ele>
        <time>2022-05-14T10:52:03.526Z</time>
      </trkpt>
      <trkpt lat="39.55156667" lon="2.61718">
        <ele>14.0</ele>
        <time>2022-05-14T10:52:04.526Z</time>
      </trkpt>
      <trkpt lat="39.55159833" lon="2.61715">
        <ele>14.0</ele>
        <time>2022-05-14T10:52:05.526Z</time>
      </trkpt>
      <trkpt lat="39.55162" lon="2.61712667">
        <ele>14.0</ele>
        <time>2022-05-14T10:52:06.526Z</time>
      </trkpt>
      <trkpt lat="39.55164833" lon="2.61709833">
        <ele>15.0</ele>
        <time>2022-05-14T10:52:07.526Z</time>
      </trkpt>
      <trkpt lat="39.55167333" lon="2.61707">
        <ele>15.0</ele>
        <time>2022-05-14T10:52:08.526Z</time>
      </trkpt>
      <trkpt lat="39.5517" lon="2.61704">
        <ele>15.0</ele>
        <time>2022-05-14T10:52:09.525Z</time>
      </trkpt>
      <trkpt lat="39.55172667" lon="2.61701167">
        <ele>15.0</ele>
        <time>2022-05-14T10:52:10.526Z</time>
      </trkpt>
      <trkpt lat="39.55175667" lon="2.61698333">
        <ele>15.0</ele>
        <time>2022-05-14T10:52:11.526Z</time>
      </trkpt>
      <trkpt lat="39.55178667" lon="2.61695333">
        <ele>15.0</ele>
        <time>2022-05-14T10:52:12.526Z</time>
      </trkpt>
      <trkpt lat="39.55181333" lon="2.61692167">
        <ele>15.0</ele>
        <time>2022-05-14T10:52:13.526Z</time>
      </trkpt>
      <trkpt lat="39.55184" lon="2.61689">
        <ele>15.0</ele>
        <time>2022-05-14T10:52:14.525Z</time>
      </trkpt>
      <trkpt lat="39.55186333" lon="2.61685833">
        <ele>14.0</ele>
        <time>2022-05-14T10:52:15.525Z</time>
      </trkpt>
      <trkpt lat="39.55189" lon="2.61682833">
        <ele>14.0</ele>
        <time>2022-05-14T10:52:16.526Z</time>
      </trkpt>
      <trkpt lat="39.551915" lon="2.61679667">
        <ele>13.0</ele>
        <time>2022-05-14T10:52:17.526Z</time>
      </trkpt>
      <trkpt lat="39.55194" lon="2.61676333">
        <ele>13.0</ele>
        <time>2022-05-14T10:52:18.525Z</time>
      </trkpt>
      <trkpt lat="39.55196167" lon="2.61673333">
        <ele>13.0</ele>
        <time>2022-05-14T10:52:19.526Z</time>
      </trkpt>
      <trkpt lat="39.55198" lon="2.61670167">
        <ele>13.0</ele>
        <time>2022-05-14T10:52:20.526Z</time>
      </trkpt>
      <trkpt lat="39.55199833" lon="2.61667">
        <ele>12.0</ele>
        <time>2022-05-14T10:52:21.526Z</time>
      </trkpt>
      <trkpt lat="39.55201833" lon="2.61663833">
        <ele>12.0</ele>
        <time>2022-05-14T10:52:22.525Z</time>
      </trkpt>
      <trkpt lat="39.55203667" lon="2.61660833">
        <ele>12.0</ele>
        <time>2022-05-14T10:52:23.525Z</time>
      </trkpt>
      <trkpt lat="39.55204833" lon="2.616575">
        <ele>12.0</ele>
        <time>2022-05-14T10:52:24.526Z</time>
      </trkpt>
      <trkpt lat="39.55205833" lon="2.61653833">
        <ele>12.0</ele>
        <time>2022-05-14T10:52:25.525Z</time>
      </trkpt>
      <trkpt lat="39.55206667" lon="2.6165">
        <ele>12.0</ele>
        <time>2022-05-14T10:52:26.526Z</time>
      </trkpt>
      <trkpt lat="39.55208" lon="2.61645833">
        <ele>13.0</ele>
        <time>2022-05-14T10:52:27.526Z</time>
      </trkpt>
      <trkpt lat="39.55209167" lon="2.616415">
        <ele>13.0</ele>
        <time>2022-05-14T10:52:28.525Z</time>
      </trkpt>
      <trkpt lat="39.55210333" lon="2.61637167">
        <ele>13.0</ele>
        <time>2022-05-14T10:52:29.526Z</time>
      </trkpt>
      <trkpt lat="39.552115" lon="2.61632333">
        <ele>13.0</ele>
        <time>2022-05-14T10:52:30.525Z</time>
      </trkpt>
      <trkpt lat="39.55213" lon="2.61627667">
        <ele>13.0</ele>
        <time>2022-05-14T10:52:31.526Z</time>
      </trkpt>
      <trkpt lat="39.55214167" lon="2.61623">
        <ele>13.0</ele>
        <time>2022-05-14T10:52:32.526Z</time>
      </trkpt>
      <trkpt lat="39.55215333" lon="2.61618333">
        <ele>13.0</ele>
        <time>2022-05-14T10:52:33.525Z</time>
      </trkpt>
      <trkpt lat="39.552165" lon="2.61613833">
        <ele>13.0</ele>
        <time>2022-05-14T10:52:34.525Z</time>
      </trkpt>
      <trkpt lat="39.552175" lon="2.616095">
        <ele>13.0</ele>
        <time>2022-05-14T10:52:35.526Z</time>
      </trkpt>
      <trkpt lat="39.55218167" lon="2.61605167">
        <ele>13.0</ele>
        <time>2022-05-14T10:52:36.526Z</time>
      </trkpt>
      <trkpt lat="39.55218667" lon="2.61600833">
        <ele>14.0</ele>
        <time>2022-05-14T10:52:37.526Z</time>
      </trkpt>
      <trkpt lat="39.55219" lon="2.61596333">
        <ele>14.0</ele>
        <time>2022-05-14T10:52:38.525Z</time>
      </trkpt>
      <trkpt lat="39.55219" lon="2.61592167">
        <ele>15.0</ele>
        <time>2022-05-14T10:52:39.526Z</time>
      </trkpt>
      <trkpt lat="39.55219" lon="2.61587167">
        <ele>16.0</ele>
        <time>2022-05-14T10:52:40.525Z</time>
      </trkpt>
      <trkpt lat="39.55219" lon="2.61583833">
        <ele>15.0</ele>
        <time>2022-05-14T10:52:41.526Z</time>
      </trkpt>
      <trkpt lat="39.55218833" lon="2.61579667">
        <ele>15.0</ele>
        <time>2022-05-14T10:52:42.526Z</time>
      </trkpt>
      <trkpt lat="39.55218667" lon="2.61575167">
        <ele>15.0</ele>
        <time>2022-05-14T10:52:43.525Z</time>
      </trkpt>
      <trkpt lat="39.552185" lon="2.61571">
        <ele>15.0</ele>
        <time>2022-05-14T10:52:44.525Z</time>
      </trkpt>
      <trkpt lat="39.55218167" lon="2.615665">
        <ele>15.0</ele>
        <time>2022-05-14T10:52:45.525Z</time>
      </trkpt>
      <trkpt lat="39.55218" lon="2.61562">
        <ele>15.0</ele>
        <time>2022-05-14T10:52:46.526Z</time>
      </trkpt>
      <trkpt lat="39.55217833" lon="2.61557833">
        <ele>15.0</ele>
        <time>2022-05-14T10:52:47.525Z</time>
      </trkpt>
      <trkpt lat="39.55217833" lon="2.61554">
        <ele>15.0</ele>
        <time>2022-05-14T10:52:48.525Z</time>
      </trkpt>
      <trkpt lat="39.55217833" lon="2.615505">
        <ele>15.0</ele>
        <time>2022-05-14T10:52:49.525Z</time>
      </trkpt>
      <trkpt lat="39.55218167" lon="2.61547">
        <ele>15.0</ele>
        <time>2022-05-14T10:52:50.526Z</time>
      </trkpt>
      <trkpt lat="39.552185" lon="2.615435">
        <ele>15.0</ele>
        <time>2022-05-14T10:52:51.526Z</time>
      </trkpt>
      <trkpt lat="39.55218667" lon="2.61540167">
        <ele>15.0</ele>
        <time>2022-05-14T10:52:52.526Z</time>
      </trkpt>
      <trkpt lat="39.55219" lon="2.61536667">
        <ele>15.0</ele>
        <time>2022-05-14T10:52:53.525Z</time>
      </trkpt>
      <trkpt lat="39.55219" lon="2.61533333">
        <ele>16.0</ele>
        <time>2022-05-14T10:52:54.525Z</time>
      </trkpt>
      <trkpt lat="39.55219" lon="2.6153">
        <ele>16.0</ele>
        <time>2022-05-14T10:52:55.525Z</time>
      </trkpt>
      <trkpt lat="39.55218833" lon="2.61526667">
        <ele>16.0</ele>
        <time>2022-05-14T10:52:56.525Z</time>
      </trkpt>
      <trkpt lat="39.55218" lon="2.61523">
        <ele>16.0</ele>
        <time>2022-05-14T10:52:57.526Z</time>
      </trkpt>
      <trkpt lat="39.55217333" lon="2.61519333">
        <ele>16.0</ele>
        <time>2022-05-14T10:52:58.525Z</time>
      </trkpt>
      <trkpt lat="39.55217333" lon="2.615155">
        <ele>17.0</ele>
        <time>2022-05-14T10:52:59.525Z</time>
      </trkpt>
      <trkpt lat="39.55217667" lon="2.61511333">
        <ele>17.0</ele>
        <time>2022-05-14T10:53:00.526Z</time>
      </trkpt>
      <trkpt lat="39.55218" lon="2.61507167">
        <ele>18.0</ele>
        <time>2022-05-14T10:53:01.526Z</time>
      </trkpt>
      <trkpt lat="39.55218333" lon="2.61503">
        <ele>18.0</ele>
        <time>2022-05-14T10:53:02.526Z</time>
      </trkpt>
      <trkpt lat="39.552185" lon="2.61499167">
        <ele>18.0</ele>
        <time>2022-05-14T10:53:03.526Z</time>
      </trkpt>
      <trkpt lat="39.55219" lon="2.61495167">
        <ele>18.0</ele>
        <time>2022-05-14T10:53:04.525Z</time>
      </trkpt>
      <trkpt lat="39.552195" lon="2.61491333">
        <ele>19.0</ele>
        <time>2022-05-14T10:53:05.526Z</time>
      </trkpt>
      <trkpt lat="39.55219833" lon="2.614875">
        <ele>19.0</ele>
        <time>2022-05-14T10:53:06.526Z</time>
      </trkpt>
      <trkpt lat="39.55220333" lon="2.61483667">
        <ele>19.0</ele>
        <time>2022-05-14T10:53:07.526Z</time>
      </trkpt>
      <trkpt lat="39.552205" lon="2.61479667">
        <ele>19.0</ele>
        <time>2022-05-14T10:53:08.525Z</time>
      </trkpt>
      <trkpt lat="39.55220667" lon="2.61475833">
        <ele>19.0</ele>
        <time>2022-05-14T10:53:09.526Z</time>
      </trkpt>
      <trkpt lat="39.55220833" lon="2.61471833">
        <ele>19.0</ele>
        <time>2022-05-14T10:53:10.525Z</time>
      </trkpt>
      <trkpt lat="39.55220833" lon="2.61467833">
        <ele>20.0</ele>
        <time>2022-05-14T10:53:11.525Z</time>
      </trkpt>
      <trkpt lat="39.55220833" lon="2.61463833">
        <ele>20.0</ele>
        <time>2022-05-14T10:53:12.525Z</time>
      </trkpt>
      <trkpt lat="39.55221" lon="2.61459667">
        <ele>20.0</ele>
        <time>2022-05-14T10:53:13.526Z</time>
      </trkpt>
      <trkpt lat="39.55221167" lon="2.614555">
        <ele>21.0</ele>
        <time>2022-05-14T10:53:14.525Z</time>
      </trkpt>
      <trkpt lat="39.55221333" lon="2.614515">
        <ele>21.0</ele>
        <time>2022-05-14T10:53:15.525Z</time>
      </trkpt>
      <trkpt lat="39.55221167" lon="2.61447333">
        <ele>21.0</ele>
        <time>2022-05-14T10:53:16.526Z</time>
      </trkpt>
      <trkpt lat="39.55221167" lon="2.61443333">
        <ele>21.0</ele>
        <time>2022-05-14T10:53:17.526Z</time>
      </trkpt>
      <trkpt lat="39.55221167" lon="2.61439">
        <ele>21.0</ele>
        <time>2022-05-14T10:53:18.525Z</time>
      </trkpt>
      <trkpt lat="39.55221" lon="2.61434667">
        <ele>21.0</ele>
        <time>2022-05-14T10:53:19.525Z</time>
      </trkpt>
      <trkpt lat="39.55220833" lon="2.61430333">
        <ele>21.0</ele>
        <time>2022-05-14T10:53:20.526Z</time>
      </trkpt>
      <trkpt lat="39.55220667" lon="2.61426">
        <ele>21.0</ele>
        <time>2022-05-14T10:53:21.526Z</time>
      </trkpt>
      <trkpt lat="39.552205" lon="2.61421833">
        <ele>21.0</ele>
        <time>2022-05-14T10:53:22.526Z</time>
      </trkpt>
      <trkpt lat="39.5522" lon="2.61417833">
        <ele>21.0</ele>
        <time>2022-05-14T10:53:23.526Z</time>
      </trkpt>
      <trkpt lat="39.55219667" lon="2.61413667">
        <ele>21.0</ele>
        <time>2022-05-14T10:53:24.525Z</time>
      </trkpt>
      <trkpt lat="39.55219333" lon="2.61409833">
        <ele>21.0</ele>
        <time>2022-05-14T10:53:25.525Z</time>
      </trkpt>
      <trkpt lat="39.55219" lon="2.61405833">
        <ele>21.0</ele>
        <time>2022-05-14T10:53:26.526Z</time>
      </trkpt>
      <trkpt lat="39.55218667" lon="2.61401833">
        <ele>21.0</ele>
        <time>2022-05-14T10:53:27.526Z</time>
      </trkpt>
      <trkpt lat="39.55218167" lon="2.61398">
        <ele>21.0</ele>
        <time>2022-05-14T10:53:28.525Z</time>
      </trkpt>
      <trkpt lat="39.55217667" lon="2.61394167">
        <ele>21.0</ele>
        <time>2022-05-14T10:53:29.525Z</time>
      </trkpt>
      <trkpt lat="39.55217333" lon="2.613905">
        <ele>22.0</ele>
        <time>2022-05-14T10:53:30.526Z</time>
      </trkpt>
      <trkpt lat="39.55216833" lon="2.61387">
        <ele>22.0</ele>
        <time>2022-05-14T10:53:31.526Z</time>
      </trkpt>
      <trkpt lat="39.55216167" lon="2.61383667">
        <ele>21.0</ele>
        <time>2022-05-14T10:53:32.525Z</time>
      </trkpt>
      <trkpt lat="39.552155" lon="2.61380167">
        <ele>21.0</ele>
        <time>2022-05-14T10:53:33.525Z</time>
      </trkpt>
      <trkpt lat="39.55214667" lon="2.61377167">
        <ele>21.0</ele>
        <time>2022-05-14T10:53:34.526Z</time>
      </trkpt>
      <trkpt lat="39.55214" lon="2.61374333">
        <ele>20.0</ele>
        <time>2022-05-14T10:53:35.525Z</time>
      </trkpt>
      <trkpt lat="39.552135" lon="2.61372">
        <ele>20.0</ele>
        <time>2022-05-14T10:53:36.526Z</time>
      </trkpt>
      <trkpt lat="39.55213167" lon="2.6137">
        <ele>20.0</ele>
        <time>2022-05-14T10:53:37.525Z</time>
      </trkpt>
      <trkpt lat="39.55212833" lon="2.61368">
        <ele>20.0</ele>
        <time>2022-05-14T10:53:38.525Z</time>
      </trkpt>
      <trkpt lat="39.552125" lon="2.61366333">
        <ele>20.0</ele>
        <time>2022-05-14T10:53:39.526Z</time>
      </trkpt>
      <trkpt lat="39.55212" lon="2.61364167">
        <ele>20.0</ele>
        <time>2022-05-14T10:53:40.526Z</time>
      </trkpt>
      <trkpt lat="39.55211667" lon="2.61362667">
        <ele>19.0</ele>
        <time>2022-05-14T10:53:41.526Z</time>
      </trkpt>
      <trkpt lat="39.55211" lon="2.61361167">
        <ele>19.0</ele>
        <time>2022-05-14T10:53:42.526Z</time>
      </trkpt>
      <trkpt lat="39.55211" lon="2.61360167">
        <ele>20.0</ele>
        <time>2022-05-14T10:53:43.525Z</time>
      </trkpt>
      <trkpt lat="39.55211167" lon="2.61359667">
        <ele>20.0</ele>
        <time>2022-05-14T10:53:44.526Z</time>
      </trkpt>
      <trkpt lat="39.55210833" lon="2.61359167">
        <ele>19.0</ele>
        <time>2022-05-14T10:53:45.525Z</time>
      </trkpt>
      <trkpt lat="39.55210667" lon="2.61358333">
        <ele>19.0</ele>
        <time>2022-05-14T10:53:46.526Z</time>
      </trkpt>
      <trkpt lat="39.55210333" lon="2.61357">
        <ele>18.0</ele>
        <time>2022-05-14T10:53:47.526Z</time>
      </trkpt>
      <trkpt lat="39.55209833" lon="2.61355167">
        <ele>18.0</ele>
        <time>2022-05-14T10:53:48.525Z</time>
      </trkpt>
      <trkpt lat="39.55209333" lon="2.61353667">
        <ele>18.0</ele>
        <time>2022-05-14T10:53:49.525Z</time>
      </trkpt>
      <trkpt lat="39.55208833" lon="2.61352167">
        <ele>18.0</ele>
        <time>2022-05-14T10:53:50.525Z</time>
      </trkpt>
      <trkpt lat="39.55208333" lon="2.61350833">
        <ele>18.0</ele>
        <time>2022-05-14T10:53:51.526Z</time>
      </trkpt>
      <trkpt lat="39.552075" lon="2.61349">
        <ele>18.0</ele>
        <time>2022-05-14T10:53:52.526Z</time>
      </trkpt>
      <trkpt lat="39.55206833" lon="2.61347167">
        <ele>18.0</ele>
        <time>2022-05-14T10:53:53.525Z</time>
      </trkpt>
      <trkpt lat="39.55206333" lon="2.61345">
        <ele>18.0</ele>
        <time>2022-05-14T10:53:54.525Z</time>
      </trkpt>
      <trkpt lat="39.55206" lon="2.613425">
        <ele>19.0</ele>
        <time>2022-05-14T10:53:55.525Z</time>
      </trkpt>
      <trkpt lat="39.55205667" lon="2.613405">
        <ele>20.0</ele>
        <time>2022-05-14T10:53:56.526Z</time>
      </trkpt>
      <trkpt lat="39.55205" lon="2.61338833">
        <ele>20.0</ele>
        <time>2022-05-14T10:53:57.526Z</time>
      </trkpt>
      <trkpt lat="39.55204667" lon="2.61337">
        <ele>20.0</ele>
        <time>2022-05-14T10:53:58.525Z</time>
      </trkpt>
      <trkpt lat="39.552045" lon="2.61335667">
        <ele>21.0</ele>
        <time>2022-05-14T10:53:59.526Z</time>
      </trkpt>
      <trkpt lat="39.55204" lon="2.61334167">
        <ele>21.0</ele>
        <time>2022-05-14T10:54:00.525Z</time>
      </trkpt>
      <trkpt lat="39.552035" lon="2.61332333">
        <ele>21.0</ele>
        <time>2022-05-14T10:54:01.526Z</time>
      </trkpt>
      <trkpt lat="39.55203" lon="2.61330333">
        <ele>21.0</ele>
        <time>2022-05-14T10:54:02.526Z</time>
      </trkpt>
      <trkpt lat="39.55202667" lon="2.613285">
        <ele>22.0</ele>
        <time>2022-05-14T10:54:03.526Z</time>
      </trkpt>
      <trkpt lat="39.55202333" lon="2.61326667">
        <ele>22.0</ele>
        <time>2022-05-14T10:54:04.526Z</time>
      </trkpt>
      <trkpt lat="39.55202" lon="2.61325">
        <ele>23.0</ele>
        <time>2022-05-14T10:54:05.525Z</time>
      </trkpt>
      <trkpt lat="39.552015" lon="2.61323667">
        <ele>23.0</ele>
        <time>2022-05-14T10:54:06.526Z</time>
      </trkpt>
      <trkpt lat="39.55201167" lon="2.61321833">
        <ele>24.0</ele>
        <time>2022-05-14T10:54:07.526Z</time>
      </trkpt>
      <trkpt lat="39.552005" lon="2.61319833">
        <ele>24.0</ele>
        <time>2022-05-14T10:54:08.525Z</time>
      </trkpt>
      <trkpt lat="39.55200167" lon="2.61317667">
        <ele>25.0</ele>
        <time>2022-05-14T10:54:09.526Z</time>
      </trkpt>
      <trkpt lat="39.552" lon="2.61315833">
        <ele>26.0</ele>
        <time>2022-05-14T10:54:10.526Z</time>
      </trkpt>
      <trkpt lat="39.55199833" lon="2.61314333">
        <ele>26.0</ele>
        <time>2022-05-14T10:54:11.526Z</time>
      </trkpt>
      <trkpt lat="39.55199667" lon="2.61312833">
        <ele>27.0</ele>
        <time>2022-05-14T10:54:12.526Z</time>
      </trkpt>
      <trkpt lat="39.55199167" lon="2.61311667">
        <ele>27.0</ele>
        <time>2022-05-14T10:54:13.526Z</time>
      </trkpt>
      <trkpt lat="39.551985" lon="2.61310667">
        <ele>27.0</ele>
        <time>2022-05-14T10:54:14.525Z</time>
      </trkpt>
      <trkpt lat="39.55198167" lon="2.613095">
        <ele>27.0</ele>
        <time>2022-05-14T10:54:15.526Z</time>
      </trkpt>
      <trkpt lat="39.55197833" lon="2.61308">
        <ele>28.0</ele>
        <time>2022-05-14T10:54:16.526Z</time>
      </trkpt>
      <trkpt lat="39.55197333" lon="2.61306667">
        <ele>28.0</ele>
        <time>2022-05-14T10:54:17.526Z</time>
      </trkpt>
      <trkpt lat="39.55197" lon="2.61304667">
        <ele>29.0</ele>
        <time>2022-05-14T10:54:18.525Z</time>
      </trkpt>
      <trkpt lat="39.55196667" lon="2.61301">
        <ele>30.0</ele>
        <time>2022-05-14T10:54:19.526Z</time>
      </trkpt>
      <trkpt lat="39.55196667" lon="2.61297833">
        <ele>30.0</ele>
        <time>2022-05-14T10:54:20.526Z</time>
      </trkpt>
      <trkpt lat="39.55196667" lon="2.61296167">
        <ele>30.0</ele>
        <time>2022-05-14T10:54:21.526Z</time>
      </trkpt>
      <trkpt lat="39.55196333" lon="2.61294333">
        <ele>31.0</ele>
        <time>2022-05-14T10:54:22.526Z</time>
      </trkpt>
      <trkpt lat="39.55195667" lon="2.61292167">
        <ele>31.0</ele>
        <time>2022-05-14T10:54:23.526Z</time>
      </trkpt>
      <trkpt lat="39.55195667" lon="2.61290167">
        <ele>31.0</ele>
        <time>2022-05-14T10:54:24.526Z</time>
      </trkpt>
      <trkpt lat="39.551955" lon="2.612885">
        <ele>32.0</ele>
        <time>2022-05-14T10:54:25.526Z</time>
      </trkpt>
      <trkpt lat="39.55194667" lon="2.61286">
        <ele>32.0</ele>
        <time>2022-05-14T10:54:26.525Z</time>
      </trkpt>
      <trkpt lat="39.55194" lon="2.61284333">
        <ele>32.0</ele>
        <time>2022-05-14T10:54:27.526Z</time>
      </trkpt>
      <trkpt lat="39.551935" lon="2.612825">
        <ele>32.0</ele>
        <time>2022-05-14T10:54:28.525Z</time>
      </trkpt>
      <trkpt lat="39.55193167" lon="2.61280333">
        <ele>32.0</ele>
        <time>2022-05-14T10:54:29.526Z</time>
      </trkpt>
      <trkpt lat="39.551925" lon="2.612785">
        <ele>32.0</ele>
        <time>2022-05-14T10:54:30.526Z</time>
      </trkpt>
      <trkpt lat="39.55192333" lon="2.61276167">
        <ele>33.0</ele>
        <time>2022-05-14T10:54:31.525Z</time>
      </trkpt>
      <trkpt lat="39.55191833" lon="2.61274">
        <ele>34.0</ele>
        <time>2022-05-14T10:54:32.526Z</time>
      </trkpt>
      <trkpt lat="39.55191833" lon="2.612725">
        <ele>35.0</ele>
        <time>2022-05-14T10:54:33.525Z</time>
      </trkpt>
      <trkpt lat="39.55192" lon="2.61271167">
        <ele>35.0</ele>
        <time>2022-05-14T10:54:34.525Z</time>
      </trkpt>
      <trkpt lat="39.55192167" lon="2.6127">
        <ele>36.0</ele>
        <time>2022-05-14T10:54:35.525Z</time>
      </trkpt>
      <trkpt lat="39.55191667" lon="2.61268333">
        <ele>36.0</ele>
        <time>2022-05-14T10:54:36.526Z</time>
      </trkpt>
      <trkpt lat="39.55191667" lon="2.61266667">
        <ele>35.0</ele>
        <time>2022-05-14T10:54:37.526Z</time>
      </trkpt>
      <trkpt lat="39.55191167" lon="2.61265667">
        <ele>35.0</ele>
        <time>2022-05-14T10:54:38.525Z</time>
      </trkpt>
      <trkpt lat="39.55190333" lon="2.61264333">
        <ele>35.0</ele>
        <time>2022-05-14T10:54:39.526Z</time>
      </trkpt>
      <trkpt lat="39.55189833" lon="2.61263167">
        <ele>34.0</ele>
        <time>2022-05-14T10:54:40.526Z</time>
      </trkpt>
      <trkpt lat="39.55189833" lon="2.61262">
        <ele>34.0</ele>
        <time>2022-05-14T10:54:41.526Z</time>
      </trkpt>
      <trkpt lat="39.55190167" lon="2.61262167">
        <ele>33.0</ele>
        <time>2022-05-14T10:54:42.525Z</time>
      </trkpt>
      <trkpt lat="39.55189667" lon="2.61262667">
        <ele>32.0</ele>
        <time>2022-05-14T10:54:43.525Z</time>
      </trkpt>
      <trkpt lat="39.5519" lon="2.61262833">
        <ele>31.0</ele>
        <time>2022-05-14T10:54:44.525Z</time>
      </trkpt>
      <trkpt lat="39.55190167" lon="2.61262667">
        <ele>31.0</ele>
        <time>2022-05-14T10:54:45.526Z</time>
      </trkpt>
      <trkpt lat="39.55191" lon="2.61262">
        <ele>31.0</ele>
        <time>2022-05-14T10:54:46.526Z</time>
      </trkpt>
      <trkpt lat="39.551915" lon="2.612615">
        <ele>31.0</ele>
        <time>2022-05-14T10:54:47.525Z</time>
      </trkpt>
      <trkpt lat="39.55191167" lon="2.61260667">
        <ele>31.0</ele>
        <time>2022-05-14T10:54:48.525Z</time>
      </trkpt>
      <trkpt lat="39.55190667" lon="2.612605">
        <ele>30.0</ele>
        <time>2022-05-14T10:54:49.525Z</time>
      </trkpt>
      <trkpt lat="39.5519" lon="2.612595">
        <ele>30.0</ele>
        <time>2022-05-14T10:54:50.526Z</time>
      </trkpt>
      <trkpt lat="39.55189333" lon="2.61258833">
        <ele>29.0</ele>
        <time>2022-05-14T10:54:51.525Z</time>
      </trkpt>
      <trkpt lat="39.55189833" lon="2.61258">
        <ele>29.0</ele>
        <time>2022-05-14T10:54:52.526Z</time>
      </trkpt>
      <trkpt lat="39.5519" lon="2.61257167">
        <ele>28.0</ele>
        <time>2022-05-14T10:54:53.526Z</time>
      </trkpt>
      <trkpt lat="39.55190333" lon="2.61256">
        <ele>28.0</ele>
        <time>2022-05-14T10:54:54.525Z</time>
      </trkpt>
      <trkpt lat="39.55190333" lon="2.61254667">
        <ele>28.0</ele>
        <time>2022-05-14T10:54:55.525Z</time>
      </trkpt>
      <trkpt lat="39.55190167" lon="2.61252833">
        <ele>28.0</ele>
        <time>2022-05-14T10:54:56.526Z</time>
      </trkpt>
      <trkpt lat="39.55189833" lon="2.61251167">
        <ele>29.0</ele>
        <time>2022-05-14T10:54:57.525Z</time>
      </trkpt>
      <trkpt lat="39.55189667" lon="2.612495">
        <ele>29.0</ele>
        <time>2022-05-14T10:54:58.526Z</time>
      </trkpt>
      <trkpt lat="39.55189333" lon="2.61247">
        <ele>30.0</ele>
        <time>2022-05-14T10:54:59.525Z</time>
      </trkpt>
      <trkpt lat="39.55189667" lon="2.612455">
        <ele>31.0</ele>
        <time>2022-05-14T10:55:00.526Z</time>
      </trkpt>
      <trkpt lat="39.55190333" lon="2.61244167">
        <ele>31.0</ele>
        <time>2022-05-14T10:55:01.525Z</time>
      </trkpt>
      <trkpt lat="39.55191333" lon="2.61242833">
        <ele>32.0</ele>
        <time>2022-05-14T10:55:02.526Z</time>
      </trkpt>
      <trkpt lat="39.55193" lon="2.61242">
        <ele>32.0</ele>
        <time>2022-05-14T10:55:03.526Z</time>
      </trkpt>
      <trkpt lat="39.551945" lon="2.61241333">
        <ele>33.0</ele>
        <time>2022-05-14T10:55:04.526Z</time>
      </trkpt>
      <trkpt lat="39.55195667" lon="2.61240833">
        <ele>34.0</ele>
        <time>2022-05-14T10:55:05.525Z</time>
      </trkpt>
      <trkpt lat="39.55180333" lon="2.61188167">
        <ele>34.0</ele>
        <time>2022-05-14T10:57:10.784Z</time>
      </trkpt>
      <trkpt lat="39.55179667" lon="2.61186333">
        <ele>34.0</ele>
        <time>2022-05-14T10:57:11.785Z</time>
      </trkpt>
      <trkpt lat="39.55179167" lon="2.611835">
        <ele>33.0</ele>
        <time>2022-05-14T10:57:12.785Z</time>
      </trkpt>
      <trkpt lat="39.551785" lon="2.61180333">
        <ele>33.0</ele>
        <time>2022-05-14T10:57:13.785Z</time>
      </trkpt>
      <trkpt lat="39.55177667" lon="2.61176333">
        <ele>32.0</ele>
        <time>2022-05-14T10:57:14.785Z</time>
      </trkpt>
      <trkpt lat="39.55176667" lon="2.61171833">
        <ele>32.0</ele>
        <time>2022-05-14T10:57:15.785Z</time>
      </trkpt>
      <trkpt lat="39.55175333" lon="2.61167">
        <ele>32.0</ele>
        <time>2022-05-14T10:57:16.785Z</time>
      </trkpt>
      <trkpt lat="39.55174333" lon="2.61161667">
        <ele>32.0</ele>
        <time>2022-05-14T10:57:17.784Z</time>
      </trkpt>
      <trkpt lat="39.55172167" lon="2.61157667">
        <ele>32.0</ele>
        <time>2022-05-14T10:57:18.785Z</time>
      </trkpt>
      <trkpt lat="39.55170333" lon="2.611535">
        <ele>32.0</ele>
        <time>2022-05-14T10:57:19.785Z</time>
      </trkpt>
      <trkpt lat="39.55168333" lon="2.61149167">
        <ele>31.0</ele>
        <time>2022-05-14T10:57:20.785Z</time>
      </trkpt>
      <trkpt lat="39.55166167" lon="2.61144667">
        <ele>31.0</ele>
        <time>2022-05-14T10:57:21.784Z</time>
      </trkpt>
      <trkpt lat="39.55163833" lon="2.611405">
        <ele>31.0</ele>
        <time>2022-05-14T10:57:22.785Z</time>
      </trkpt>
      <trkpt lat="39.55161167" lon="2.61136333">
        <ele>31.0</ele>
        <time>2022-05-14T10:57:23.785Z</time>
      </trkpt>
      <trkpt lat="39.55158167" lon="2.61132">
        <ele>31.0</ele>
        <time>2022-05-14T10:57:24.785Z</time>
      </trkpt>
      <trkpt lat="39.55154833" lon="2.61128">
        <ele>31.0</ele>
        <time>2022-05-14T10:57:25.785Z</time>
      </trkpt>
      <trkpt lat="39.55151333" lon="2.61123667">
        <ele>32.0</ele>
        <time>2022-05-14T10:57:26.785Z</time>
      </trkpt>
      <trkpt lat="39.55147833" lon="2.61119167">
        <ele>32.0</ele>
        <time>2022-05-14T10:57:27.784Z</time>
      </trkpt>
      <trkpt lat="39.55143833" lon="2.61114833">
        <ele>32.0</ele>
        <time>2022-05-14T10:57:28.785Z</time>
      </trkpt>
      <trkpt lat="39.5514" lon="2.6111">
        <ele>32.0</ele>
        <time>2022-05-14T10:57:29.784Z</time>
      </trkpt>
      <trkpt lat="39.55136" lon="2.61105">
        <ele>32.0</ele>
        <time>2022-05-14T10:57:30.784Z</time>
      </trkpt>
      <trkpt lat="39.55132167" lon="2.61098833">
        <ele>32.0</ele>
        <time>2022-05-14T10:57:31.785Z</time>
      </trkpt>
      <trkpt lat="39.55128333" lon="2.61092">
        <ele>32.0</ele>
        <time>2022-05-14T10:57:32.784Z</time>
      </trkpt>
      <trkpt lat="39.55125167" lon="2.61084">
        <ele>32.0</ele>
        <time>2022-05-14T10:57:33.784Z</time>
      </trkpt>
      <trkpt lat="39.55122667" lon="2.61075">
        <ele>32.0</ele>
        <time>2022-05-14T10:57:34.785Z</time>
      </trkpt>
      <trkpt lat="39.55120833" lon="2.610655">
        <ele>32.0</ele>
        <time>2022-05-14T10:57:35.785Z</time>
      </trkpt>
      <trkpt lat="39.5512" lon="2.61055667">
        <ele>31.0</ele>
        <time>2022-05-14T10:57:36.785Z</time>
      </trkpt>
      <trkpt lat="39.55120167" lon="2.61045667">
        <ele>31.0</ele>
        <time>2022-05-14T10:57:37.785Z</time>
      </trkpt>
      <trkpt lat="39.55121167" lon="2.610355">
        <ele>30.0</ele>
        <time>2022-05-14T10:57:38.785Z</time>
      </trkpt>
      <trkpt lat="39.55122833" lon="2.61025167">
        <ele>30.0</ele>
        <time>2022-05-14T10:57:39.784Z</time>
      </trkpt>
      <trkpt lat="39.55125167" lon="2.61014833">
        <ele>29.0</ele>
        <time>2022-05-14T10:57:40.785Z</time>
      </trkpt>
      <trkpt lat="39.55128333" lon="2.610025">
        <ele>29.0</ele>
        <time>2022-05-14T10:57:41.784Z</time>
      </trkpt>
      <trkpt lat="39.55131167" lon="2.60991667">
        <ele>28.0</ele>
        <time>2022-05-14T10:57:42.784Z</time>
      </trkpt>
      <trkpt lat="39.551335" lon="2.60983167">
        <ele>28.0</ele>
        <time>2022-05-14T10:57:43.785Z</time>
      </trkpt>
      <trkpt lat="39.551365" lon="2.60972333">
        <ele>27.0</ele>
        <time>2022-05-14T10:57:44.784Z</time>
      </trkpt>
      <trkpt lat="39.55139333" lon="2.609615">
        <ele>26.0</ele>
        <time>2022-05-14T10:57:45.785Z</time>
      </trkpt>
      <trkpt lat="39.551425" lon="2.60950333">
        <ele>26.0</ele>
        <time>2022-05-14T10:57:46.785Z</time>
      </trkpt>
      <trkpt lat="39.55145667" lon="2.60939667">
        <ele>26.0</ele>
        <time>2022-05-14T10:57:47.785Z</time>
      </trkpt>
      <trkpt lat="39.55148833" lon="2.60929">
        <ele>26.0</ele>
        <time>2022-05-14T10:57:48.784Z</time>
      </trkpt>
      <trkpt lat="39.55151833" lon="2.60918667">
        <ele>26.0</ele>
        <time>2022-05-14T10:57:49.784Z</time>
      </trkpt>
      <trkpt lat="39.55155167" lon="2.609085">
        <ele>26.0</ele>
        <time>2022-05-14T10:57:50.785Z</time>
      </trkpt>
      <trkpt lat="39.55159167" lon="2.60899167">
        <ele>26.0</ele>
        <time>2022-05-14T10:57:51.785Z</time>
      </trkpt>
      <trkpt lat="39.55163333" lon="2.60890333">
        <ele>25.0</ele>
        <time>2022-05-14T10:57:52.785Z</time>
      </trkpt>
      <trkpt lat="39.55169333" lon="2.60881333">
        <ele>25.0</ele>
        <time>2022-05-14T10:57:53.785Z</time>
      </trkpt>
      <trkpt lat="39.55174167" lon="2.60876333">
        <ele>25.0</ele>
        <time>2022-05-14T10:57:54.785Z</time>
      </trkpt>
      <trkpt lat="39.55181333" lon="2.60869">
        <ele>24.0</ele>
        <time>2022-05-14T10:57:55.785Z</time>
      </trkpt>
      <trkpt lat="39.55187333" lon="2.60863333">
        <ele>24.0</ele>
        <time>2022-05-14T10:57:56.785Z</time>
      </trkpt>
      <trkpt lat="39.55193167" lon="2.60858167">
        <ele>24.0</ele>
        <time>2022-05-14T10:57:57.785Z</time>
      </trkpt>
      <trkpt lat="39.55198833" lon="2.60853333">
        <ele>23.0</ele>
        <time>2022-05-14T10:57:58.785Z</time>
      </trkpt>
      <trkpt lat="39.552045" lon="2.60848667">
        <ele>23.0</ele>
        <time>2022-05-14T10:57:59.785Z</time>
      </trkpt>
      <trkpt lat="39.5521" lon="2.60843667">
        <ele>24.0</ele>
        <time>2022-05-14T10:58:00.785Z</time>
      </trkpt>
      <trkpt lat="39.55215333" lon="2.60839167">
        <ele>24.0</ele>
        <time>2022-05-14T10:58:01.784Z</time>
      </trkpt>
      <trkpt lat="39.55220833" lon="2.60835167">
        <ele>24.0</ele>
        <time>2022-05-14T10:58:02.784Z</time>
      </trkpt>
      <trkpt lat="39.55226333" lon="2.60831667">
        <ele>24.0</ele>
        <time>2022-05-14T10:58:03.785Z</time>
      </trkpt>
      <trkpt lat="39.55232" lon="2.60828833">
        <ele>24.0</ele>
        <time>2022-05-14T10:58:04.785Z</time>
      </trkpt>
      <trkpt lat="39.55237833" lon="2.608265">
        <ele>24.0</ele>
        <time>2022-05-14T10:58:05.784Z</time>
      </trkpt>
      <trkpt lat="39.55243833" lon="2.60824667">
        <ele>24.0</ele>
        <time>2022-05-14T10:58:06.784Z</time>
      </trkpt>
      <trkpt lat="39.55249667" lon="2.60823">
        <ele>24.0</ele>
        <time>2022-05-14T10:58:07.785Z</time>
      </trkpt>
      <trkpt lat="39.55253667" lon="2.60820667">
        <ele>24.0</ele>
        <time>2022-05-14T10:58:08.785Z</time>
      </trkpt>
      <trkpt lat="39.5526" lon="2.60816833">
        <ele>24.0</ele>
        <time>2022-05-14T10:58:09.785Z</time>
      </trkpt>
      <trkpt lat="39.55264833" lon="2.60812667">
        <ele>24.0</ele>
        <time>2022-05-14T10:58:10.785Z</time>
      </trkpt>
      <trkpt lat="39.552695" lon="2.60807833">
        <ele>24.0</ele>
        <time>2022-05-14T10:58:11.784Z</time>
      </trkpt>
      <trkpt lat="39.55272667" lon="2.60803333">
        <ele>23.0</ele>
        <time>2022-05-14T10:58:12.784Z</time>
      </trkpt>
      <trkpt lat="39.55277167" lon="2.60797833">
        <ele>23.0</ele>
        <time>2022-05-14T10:58:13.785Z</time>
      </trkpt>
      <trkpt lat="39.55280667" lon="2.60792">
        <ele>23.0</ele>
        <time>2022-05-14T10:58:14.784Z</time>
      </trkpt>
      <trkpt lat="39.55284167" lon="2.60784833">
        <ele>22.0</ele>
        <time>2022-05-14T10:58:15.785Z</time>
      </trkpt>
      <trkpt lat="39.552855" lon="2.60777833">
        <ele>22.0</ele>
        <time>2022-05-14T10:58:16.785Z</time>
      </trkpt>
      <trkpt lat="39.55286333" lon="2.60773167">
        <ele>22.0</ele>
        <time>2022-05-14T10:58:17.784Z</time>
      </trkpt>
      <trkpt lat="39.55287333" lon="2.60767667">
        <ele>22.0</ele>
        <time>2022-05-14T10:58:18.785Z</time>
      </trkpt>
      <trkpt lat="39.55287833" lon="2.60763833">
        <ele>22.0</ele>
        <time>2022-05-14T10:58:19.784Z</time>
      </trkpt>
      <trkpt lat="39.55288167" lon="2.60760167">
        <ele>21.0</ele>
        <time>2022-05-14T10:58:20.785Z</time>
      </trkpt>
      <trkpt lat="39.552885" lon="2.60756833">
        <ele>21.0</ele>
        <time>2022-05-14T10:58:21.785Z</time>
      </trkpt>
      <trkpt lat="39.55288833" lon="2.60753833">
        <ele>21.0</ele>
        <time>2022-05-14T10:58:22.785Z</time>
      </trkpt>
      <trkpt lat="39.55289" lon="2.60751">
        <ele>21.0</ele>
        <time>2022-05-14T10:58:23.785Z</time>
      </trkpt>
      <trkpt lat="39.55289167" lon="2.60748">
        <ele>21.0</ele>
        <time>2022-05-14T10:58:24.785Z</time>
      </trkpt>
      <trkpt lat="39.55289333" lon="2.60744667">
        <ele>22.0</ele>
        <time>2022-05-14T10:58:25.785Z</time>
      </trkpt>
      <trkpt lat="39.55289833" lon="2.60741">
        <ele>22.0</ele>
        <time>2022-05-14T10:58:26.785Z</time>
      </trkpt>
      <trkpt lat="39.552905" lon="2.60736833">
        <ele>22.0</ele>
        <time>2022-05-14T10:58:27.784Z</time>
      </trkpt>
      <trkpt lat="39.55291333" lon="2.60732">
        <ele>23.0</ele>
        <time>2022-05-14T10:58:28.784Z</time>
      </trkpt>
      <trkpt lat="39.55292333" lon="2.60726667">
        <ele>23.0</ele>
        <time>2022-05-14T10:58:29.785Z</time>
      </trkpt>
      <trkpt lat="39.55293" lon="2.60721833">
        <ele>22.0</ele>
        <time>2022-05-14T10:58:30.785Z</time>
      </trkpt>
      <trkpt lat="39.552935" lon="2.60715167">
        <ele>22.0</ele>
        <time>2022-05-14T10:58:31.784Z</time>
      </trkpt>
      <trkpt lat="39.552945" lon="2.60706333">
        <ele>22.0</ele>
        <time>2022-05-14T10:58:32.785Z</time>
      </trkpt>
      <trkpt lat="39.552955" lon="2.60698667">
        <ele>22.0</ele>
        <time>2022-05-14T10:58:33.785Z</time>
      </trkpt>
      <trkpt lat="39.552975" lon="2.60690667">
        <ele>21.0</ele>
        <time>2022-05-14T10:58:34.784Z</time>
      </trkpt>
      <trkpt lat="39.553" lon="2.60682667">
        <ele>20.0</ele>
        <time>2022-05-14T10:58:35.784Z</time>
      </trkpt>
      <trkpt lat="39.55303167" lon="2.60674833">
        <ele>20.0</ele>
        <time>2022-05-14T10:58:36.785Z</time>
      </trkpt>
      <trkpt lat="39.553075" lon="2.606675">
        <ele>19.0</ele>
        <time>2022-05-14T10:58:37.785Z</time>
      </trkpt>
      <trkpt lat="39.55312333" lon="2.606605">
        <ele>19.0</ele>
        <time>2022-05-14T10:58:38.785Z</time>
      </trkpt>
      <trkpt lat="39.55317667" lon="2.60654333">
        <ele>19.0</ele>
        <time>2022-05-14T10:58:39.785Z</time>
      </trkpt>
      <trkpt lat="39.55323" lon="2.60648333">
        <ele>18.0</ele>
        <time>2022-05-14T10:58:40.785Z</time>
      </trkpt>
      <trkpt lat="39.55328167" lon="2.60642833">
        <ele>17.0</ele>
        <time>2022-05-14T10:58:41.785Z</time>
      </trkpt>
      <trkpt lat="39.55333" lon="2.60638">
        <ele>17.0</ele>
        <time>2022-05-14T10:58:42.785Z</time>
      </trkpt>
      <trkpt lat="39.553375" lon="2.60634">
        <ele>16.0</ele>
        <time>2022-05-14T10:58:43.785Z</time>
      </trkpt>
      <trkpt lat="39.553405" lon="2.6063">
        <ele>17.0</ele>
        <time>2022-05-14T10:58:44.785Z</time>
      </trkpt>
      <trkpt lat="39.55343167" lon="2.60627">
        <ele>17.0</ele>
        <time>2022-05-14T10:58:45.785Z</time>
      </trkpt>
      <trkpt lat="39.55345333" lon="2.60625167">
        <ele>17.0</ele>
        <time>2022-05-14T10:58:46.785Z</time>
      </trkpt>
      <trkpt lat="39.55346833" lon="2.60623833">
        <ele>17.0</ele>
        <time>2022-05-14T10:58:47.785Z</time>
      </trkpt>
      <trkpt lat="39.55347667" lon="2.60623167">
        <ele>17.0</ele>
        <time>2022-05-14T10:58:48.784Z</time>
      </trkpt>
      <trkpt lat="39.55349167" lon="2.60622167">
        <ele>16.0</ele>
        <time>2022-05-14T10:58:49.785Z</time>
      </trkpt>
      <trkpt lat="39.55350167" lon="2.60621167">
        <ele>16.0</ele>
        <time>2022-05-14T10:58:50.784Z</time>
      </trkpt>
      <trkpt lat="39.55351167" lon="2.6062">
        <ele>16.0</ele>
        <time>2022-05-14T10:58:51.785Z</time>
      </trkpt>
      <trkpt lat="39.55352333" lon="2.60618">
        <ele>15.0</ele>
        <time>2022-05-14T10:58:52.785Z</time>
      </trkpt>
      <trkpt lat="39.55354" lon="2.60615833">
        <ele>15.0</ele>
        <time>2022-05-14T10:58:53.785Z</time>
      </trkpt>
      <trkpt lat="39.55356167" lon="2.60614167">
        <ele>15.0</ele>
        <time>2022-05-14T10:58:54.784Z</time>
      </trkpt>
      <trkpt lat="39.55357667" lon="2.60611167">
        <ele>15.0</ele>
        <time>2022-05-14T10:58:55.785Z</time>
      </trkpt>
      <trkpt lat="39.55359833" lon="2.60606833">
        <ele>14.0</ele>
        <time>2022-05-14T10:58:56.785Z</time>
      </trkpt>
      <trkpt lat="39.55362167" lon="2.60602833">
        <ele>13.0</ele>
        <time>2022-05-14T10:58:57.785Z</time>
      </trkpt>
      <trkpt lat="39.553645" lon="2.60598333">
        <ele>13.0</ele>
        <time>2022-05-14T10:58:58.784Z</time>
      </trkpt>
      <trkpt lat="39.55367167" lon="2.60593333">
        <ele>12.0</ele>
        <time>2022-05-14T10:58:59.785Z</time>
      </trkpt>
      <trkpt lat="39.55369833" lon="2.60587333">
        <ele>12.0</ele>
        <time>2022-05-14T10:59:00.785Z</time>
      </trkpt>
      <trkpt lat="39.55373" lon="2.60580667">
        <ele>11.0</ele>
        <time>2022-05-14T10:59:01.785Z</time>
      </trkpt>
      <trkpt lat="39.55376" lon="2.60573667">
        <ele>11.0</ele>
        <time>2022-05-14T10:59:02.785Z</time>
      </trkpt>
      <trkpt lat="39.55379167" lon="2.60566333">
        <ele>11.0</ele>
        <time>2022-05-14T10:59:03.784Z</time>
      </trkpt>
      <trkpt lat="39.55382167" lon="2.605585">
        <ele>11.0</ele>
        <time>2022-05-14T10:59:04.785Z</time>
      </trkpt>
      <trkpt lat="39.553845" lon="2.60550333">
        <ele>10.0</ele>
        <time>2022-05-14T10:59:05.784Z</time>
      </trkpt>
      <trkpt lat="39.553865" lon="2.60541667">
        <ele>10.0</ele>
        <time>2022-05-14T10:59:06.785Z</time>
      </trkpt>
      <trkpt lat="39.55387333" lon="2.60533167">
        <ele>10.0</ele>
        <time>2022-05-14T10:59:07.784Z</time>
      </trkpt>
      <trkpt lat="39.55387167" lon="2.60524833">
        <ele>9.0</ele>
        <time>2022-05-14T10:59:08.784Z</time>
      </trkpt>
      <trkpt lat="39.55386" lon="2.605185">
        <ele>9.0</ele>
        <time>2022-05-14T10:59:09.785Z</time>
      </trkpt>
      <trkpt lat="39.55384" lon="2.60511167">
        <ele>9.0</ele>
        <time>2022-05-14T10:59:10.785Z</time>
      </trkpt>
      <trkpt lat="39.55381333" lon="2.60504333">
        <ele>8.0</ele>
        <time>2022-05-14T10:59:11.785Z</time>
      </trkpt>
      <trkpt lat="39.55378167" lon="2.60498167">
        <ele>8.0</ele>
        <time>2022-05-14T10:59:12.785Z</time>
      </trkpt>
      <trkpt lat="39.55374333" lon="2.60492833">
        <ele>8.0</ele>
        <time>2022-05-14T10:59:13.784Z</time>
      </trkpt>
      <trkpt lat="39.55369" lon="2.604875">
        <ele>7.0</ele>
        <time>2022-05-14T10:59:14.785Z</time>
      </trkpt>
      <trkpt lat="39.55364333" lon="2.60484167">
        <ele>7.0</ele>
        <time>2022-05-14T10:59:15.785Z</time>
      </trkpt>
      <trkpt lat="39.55360333" lon="2.60482167">
        <ele>7.0</ele>
        <time>2022-05-14T10:59:16.785Z</time>
      </trkpt>
      <trkpt lat="39.55354333" lon="2.60480333">
        <ele>7.0</ele>
        <time>2022-05-14T10:59:17.785Z</time>
      </trkpt>
      <trkpt lat="39.55349833" lon="2.60479833">
        <ele>7.0</ele>
        <time>2022-05-14T10:59:18.785Z</time>
      </trkpt>
      <trkpt lat="39.55343667" lon="2.60479">
        <ele>8.0</ele>
        <time>2022-05-14T10:59:19.784Z</time>
      </trkpt>
      <trkpt lat="39.55338333" lon="2.60479">
        <ele>8.0</ele>
        <time>2022-05-14T10:59:20.785Z</time>
      </trkpt>
      <trkpt lat="39.55333333" lon="2.60479167">
        <ele>8.0</ele>
        <time>2022-05-14T10:59:21.784Z</time>
      </trkpt>
      <trkpt lat="39.553285" lon="2.604795">
        <ele>8.0</ele>
        <time>2022-05-14T10:59:22.784Z</time>
      </trkpt>
      <trkpt lat="39.55324167" lon="2.6048">
        <ele>8.0</ele>
        <time>2022-05-14T10:59:23.785Z</time>
      </trkpt>
      <trkpt lat="39.55320333" lon="2.60480667">
        <ele>8.0</ele>
        <time>2022-05-14T10:59:24.784Z</time>
      </trkpt>
      <trkpt lat="39.553165" lon="2.60481333">
        <ele>9.0</ele>
        <time>2022-05-14T10:59:25.785Z</time>
      </trkpt>
      <trkpt lat="39.55312333" lon="2.60482">
        <ele>9.0</ele>
        <time>2022-05-14T10:59:26.785Z</time>
      </trkpt>
      <trkpt lat="39.55308167" lon="2.604825">
        <ele>9.0</ele>
        <time>2022-05-14T10:59:27.784Z</time>
      </trkpt>
      <trkpt lat="39.55303667" lon="2.60483333">
        <ele>10.0</ele>
        <time>2022-05-14T10:59:28.785Z</time>
      </trkpt>
      <trkpt lat="39.55300167" lon="2.604835">
        <ele>10.0</ele>
        <time>2022-05-14T10:59:29.785Z</time>
      </trkpt>
      <trkpt lat="39.55294667" lon="2.60483167">
        <ele>11.0</ele>
        <time>2022-05-14T10:59:30.785Z</time>
      </trkpt>
      <trkpt lat="39.5529" lon="2.60482333">
        <ele>11.0</ele>
        <time>2022-05-14T10:59:31.785Z</time>
      </trkpt>
      <trkpt lat="39.55285333" lon="2.60481">
        <ele>11.0</ele>
        <time>2022-05-14T10:59:32.784Z</time>
      </trkpt>
      <trkpt lat="39.55281833" lon="2.60479833">
        <ele>11.0</ele>
        <time>2022-05-14T10:59:33.785Z</time>
      </trkpt>
      <trkpt lat="39.55277167" lon="2.60477333">
        <ele>12.0</ele>
        <time>2022-05-14T10:59:34.785Z</time>
      </trkpt>
      <trkpt lat="39.55273333" lon="2.60474667">
        <ele>12.0</ele>
        <time>2022-05-14T10:59:35.785Z</time>
      </trkpt>
      <trkpt lat="39.55269667" lon="2.60471833">
        <ele>12.0</ele>
        <time>2022-05-14T10:59:36.784Z</time>
      </trkpt>
      <trkpt lat="39.55266333" lon="2.604685">
        <ele>12.0</ele>
        <time>2022-05-14T10:59:37.785Z</time>
      </trkpt>
      <trkpt lat="39.552635" lon="2.60464667">
        <ele>13.0</ele>
        <time>2022-05-14T10:59:38.785Z</time>
      </trkpt>
      <trkpt lat="39.55260833" lon="2.60460333">
        <ele>14.0</ele>
        <time>2022-05-14T10:59:39.784Z</time>
      </trkpt>
      <trkpt lat="39.552585" lon="2.604555">
        <ele>14.0</ele>
        <time>2022-05-14T10:59:40.784Z</time>
      </trkpt>
      <trkpt lat="39.552565" lon="2.60450667">
        <ele>15.0</ele>
        <time>2022-05-14T10:59:41.784Z</time>
      </trkpt>
      <trkpt lat="39.55254833" lon="2.60445167">
        <ele>15.0</ele>
        <time>2022-05-14T10:59:42.785Z</time>
      </trkpt>
      <trkpt lat="39.55253833" lon="2.60439833">
        <ele>15.0</ele>
        <time>2022-05-14T10:59:43.784Z</time>
      </trkpt>
      <trkpt lat="39.55253333" lon="2.60434167">
        <ele>16.0</ele>
        <time>2022-05-14T10:59:44.784Z</time>
      </trkpt>
      <trkpt lat="39.55253167" lon="2.60428167">
        <ele>16.0</ele>
        <time>2022-05-14T10:59:45.785Z</time>
      </trkpt>
      <trkpt lat="39.55253333" lon="2.60422167">
        <ele>16.0</ele>
        <time>2022-05-14T10:59:46.784Z</time>
      </trkpt>
      <trkpt lat="39.552535" lon="2.60416167">
        <ele>15.0</ele>
        <time>2022-05-14T10:59:47.785Z</time>
      </trkpt>
      <trkpt lat="39.55253833" lon="2.604105">
        <ele>15.0</ele>
        <time>2022-05-14T10:59:48.785Z</time>
      </trkpt>
      <trkpt lat="39.55254167" lon="2.60405667">
        <ele>15.0</ele>
        <time>2022-05-14T10:59:49.785Z</time>
      </trkpt>
      <trkpt lat="39.55254333" lon="2.60400333">
        <ele>15.0</ele>
        <time>2022-05-14T10:59:50.785Z</time>
      </trkpt>
      <trkpt lat="39.552545" lon="2.60395">
        <ele>15.0</ele>
        <time>2022-05-14T10:59:51.785Z</time>
      </trkpt>
      <trkpt lat="39.55254667" lon="2.60389667">
        <ele>15.0</ele>
        <time>2022-05-14T10:59:52.785Z</time>
      </trkpt>
      <trkpt lat="39.55255167" lon="2.60384833">
        <ele>15.0</ele>
        <time>2022-05-14T10:59:53.785Z</time>
      </trkpt>
      <trkpt lat="39.55255667" lon="2.60380333">
        <ele>16.0</ele>
        <time>2022-05-14T10:59:54.785Z</time>
      </trkpt>
      <trkpt lat="39.55256333" lon="2.60375167">
        <ele>16.0</ele>
        <time>2022-05-14T10:59:55.785Z</time>
      </trkpt>
      <trkpt lat="39.55256833" lon="2.60369833">
        <ele>16.0</ele>
        <time>2022-05-14T10:59:56.785Z</time>
      </trkpt>
      <trkpt lat="39.552575" lon="2.603645">
        <ele>16.0</ele>
        <time>2022-05-14T10:59:57.784Z</time>
      </trkpt>
      <trkpt lat="39.55257667" lon="2.60359833">
        <ele>16.0</ele>
        <time>2022-05-14T10:59:58.785Z</time>
      </trkpt>
      <trkpt lat="39.55257833" lon="2.60354667">
        <ele>16.0</ele>
        <time>2022-05-14T10:59:59.785Z</time>
      </trkpt>
      <trkpt lat="39.55258" lon="2.60349333">
        <ele>16.0</ele>
        <time>2022-05-14T11:00:00.785Z</time>
      </trkpt>
      <trkpt lat="39.552585" lon="2.60344">
        <ele>16.0</ele>
        <time>2022-05-14T11:00:01.785Z</time>
      </trkpt>
      <trkpt lat="39.55259167" lon="2.60339333">
        <ele>16.0</ele>
        <time>2022-05-14T11:00:02.785Z</time>
      </trkpt>
      <trkpt lat="39.552595" lon="2.60334">
        <ele>16.0</ele>
        <time>2022-05-14T11:00:03.785Z</time>
      </trkpt>
      <trkpt lat="39.5526" lon="2.603285">
        <ele>16.0</ele>
        <time>2022-05-14T11:00:04.785Z</time>
      </trkpt>
      <trkpt lat="39.552605" lon="2.60323">
        <ele>17.0</ele>
        <time>2022-05-14T11:00:05.784Z</time>
      </trkpt>
      <trkpt lat="39.55260333" lon="2.60317667">
        <ele>17.0</ele>
        <time>2022-05-14T11:00:06.785Z</time>
      </trkpt>
      <trkpt lat="39.55259667" lon="2.60312167">
        <ele>17.0</ele>
        <time>2022-05-14T11:00:07.785Z</time>
      </trkpt>
      <trkpt lat="39.55259167" lon="2.60306667">
        <ele>18.0</ele>
        <time>2022-05-14T11:00:08.784Z</time>
      </trkpt>
      <trkpt lat="39.55258167" lon="2.60301167">
        <ele>18.0</ele>
        <time>2022-05-14T11:00:09.784Z</time>
      </trkpt>
      <trkpt lat="39.55257167" lon="2.60295833">
        <ele>18.0</ele>
        <time>2022-05-14T11:00:10.785Z</time>
      </trkpt>
      <trkpt lat="39.55255667" lon="2.60290833">
        <ele>18.0</ele>
        <time>2022-05-14T11:00:11.784Z</time>
      </trkpt>
      <trkpt lat="39.55253833" lon="2.60286167">
        <ele>18.0</ele>
        <time>2022-05-14T11:00:12.784Z</time>
      </trkpt>
      <trkpt lat="39.55252" lon="2.60282">
        <ele>18.0</ele>
        <time>2022-05-14T11:00:13.784Z</time>
      </trkpt>
      <trkpt lat="39.55249833" lon="2.60277833">
        <ele>18.0</ele>
        <time>2022-05-14T11:00:14.785Z</time>
      </trkpt>
      <trkpt lat="39.55247833" lon="2.60273833">
        <ele>18.0</ele>
        <time>2022-05-14T11:00:15.784Z</time>
      </trkpt>
      <trkpt lat="39.55245667" lon="2.60270333">
        <ele>18.0</ele>
        <time>2022-05-14T11:00:16.785Z</time>
      </trkpt>
      <trkpt lat="39.55244" lon="2.60266667">
        <ele>19.0</ele>
        <time>2022-05-14T11:00:17.784Z</time>
      </trkpt>
      <trkpt lat="39.55242667" lon="2.60262667">
        <ele>19.0</ele>
        <time>2022-05-14T11:00:18.784Z</time>
      </trkpt>
      <trkpt lat="39.55241167" lon="2.60258333">
        <ele>19.0</ele>
        <time>2022-05-14T11:00:19.784Z</time>
      </trkpt>
      <trkpt lat="39.5524" lon="2.60254">
        <ele>20.0</ele>
        <time>2022-05-14T11:00:20.785Z</time>
      </trkpt>
      <trkpt lat="39.55239" lon="2.6025">
        <ele>20.0</ele>
        <time>2022-05-14T11:00:21.784Z</time>
      </trkpt>
      <trkpt lat="39.55238" lon="2.60245667">
        <ele>20.0</ele>
        <time>2022-05-14T11:00:22.785Z</time>
      </trkpt>
      <trkpt lat="39.55237" lon="2.60242167">
        <ele>20.0</ele>
        <time>2022-05-14T11:00:23.785Z</time>
      </trkpt>
      <trkpt lat="39.55235833" lon="2.60239167">
        <ele>21.0</ele>
        <time>2022-05-14T11:00:24.785Z</time>
      </trkpt>
      <trkpt lat="39.55234833" lon="2.60236667">
        <ele>21.0</ele>
        <time>2022-05-14T11:00:25.785Z</time>
      </trkpt>
      <trkpt lat="39.55234" lon="2.60234333">
        <ele>21.0</ele>
        <time>2022-05-14T11:00:26.784Z</time>
      </trkpt>
      <trkpt lat="39.55232833" lon="2.602325">
        <ele>22.0</ele>
        <time>2022-05-14T11:00:27.785Z</time>
      </trkpt>
      <trkpt lat="39.552325" lon="2.602315">
        <ele>22.0</ele>
        <time>2022-05-14T11:00:28.784Z</time>
      </trkpt>
      <trkpt lat="39.55232167" lon="2.60231">
        <ele>22.0</ele>
        <time>2022-05-14T11:00:29.784Z</time>
      </trkpt>
      <trkpt lat="39.55231833" lon="2.60230833">
        <ele>22.0</ele>
        <time>2022-05-14T11:00:30.784Z</time>
      </trkpt>
      <trkpt lat="39.55231833" lon="2.60231">
        <ele>23.0</ele>
        <time>2022-05-14T11:00:31.785Z</time>
      </trkpt>
      <trkpt lat="39.55231833" lon="2.60231333">
        <ele>23.0</ele>
        <time>2022-05-14T11:00:32.785Z</time>
      </trkpt>
      <trkpt lat="39.55232" lon="2.602315">
        <ele>23.0</ele>
        <time>2022-05-14T11:00:33.785Z</time>
      </trkpt>
      <trkpt lat="39.55232" lon="2.60231833">
        <ele>23.0</ele>
        <time>2022-05-14T11:00:34.785Z</time>
      </trkpt>
      <trkpt lat="39.55232167" lon="2.60232167">
        <ele>23.0</ele>
        <time>2022-05-14T11:00:35.785Z</time>
      </trkpt>
      <trkpt lat="39.55232333" lon="2.60232667">
        <ele>23.0</ele>
        <time>2022-05-14T11:00:36.785Z</time>
      </trkpt>
      <trkpt lat="39.552325" lon="2.60233">
        <ele>23.0</ele>
        <time>2022-05-14T11:00:37.785Z</time>
      </trkpt>
      <trkpt lat="39.552325" lon="2.60233">
        <ele>23.0</ele>
        <time>2022-05-14T11:00:38.784Z</time>
      </trkpt>
      <trkpt lat="39.55232167" lon="2.60233333">
        <ele>23.0</ele>
        <time>2022-05-14T11:00:39.784Z</time>
      </trkpt>
      <trkpt lat="39.55231833" lon="2.60233667">
        <ele>23.0</ele>
        <time>2022-05-14T11:00:40.785Z</time>
      </trkpt>
      <trkpt lat="39.55231833" lon="2.60233667">
        <ele>24.0</ele>
        <time>2022-05-14T11:00:41.785Z</time>
      </trkpt>
      <trkpt lat="39.55231833" lon="2.60233667">
        <ele>24.0</ele>
        <time>2022-05-14T11:00:42.784Z</time>
      </trkpt>
      <trkpt lat="39.55231833" lon="2.60233667">
        <ele>25.0</ele>
        <time>2022-05-14T11:00:43.785Z</time>
      </trkpt>
      <trkpt lat="39.552315" lon="2.60233167">
        <ele>25.0</ele>
        <time>2022-05-14T11:00:44.785Z</time>
      </trkpt>
      <trkpt lat="39.5523" lon="2.60229667">
        <ele>26.0</ele>
        <time>2022-05-14T11:00:45.785Z</time>
      </trkpt>
      <trkpt lat="39.55228333" lon="2.60225333">
        <ele>26.0</ele>
        <time>2022-05-14T11:00:46.785Z</time>
      </trkpt>
      <trkpt lat="39.55226333" lon="2.60220167">
        <ele>26.0</ele>
        <time>2022-05-14T11:00:47.785Z</time>
      </trkpt>
      <trkpt lat="39.55223833" lon="2.60214">
        <ele>27.0</ele>
        <time>2022-05-14T11:00:48.785Z</time>
      </trkpt>
      <trkpt lat="39.55221167" lon="2.602075">
        <ele>27.0</ele>
        <time>2022-05-14T11:00:49.785Z</time>
      </trkpt>
      <trkpt lat="39.55218" lon="2.60199833">
        <ele>27.0</ele>
        <time>2022-05-14T11:00:50.784Z</time>
      </trkpt>
      <trkpt lat="39.55215" lon="2.601915">
        <ele>26.0</ele>
        <time>2022-05-14T11:00:51.784Z</time>
      </trkpt>
      <trkpt lat="39.55211667" lon="2.60182667">
        <ele>25.0</ele>
        <time>2022-05-14T11:00:52.785Z</time>
      </trkpt>
      <trkpt lat="39.55208" lon="2.60174333">
        <ele>24.0</ele>
        <time>2022-05-14T11:00:53.785Z</time>
      </trkpt>
      <trkpt lat="39.55205" lon="2.60166833">
        <ele>23.0</ele>
        <time>2022-05-14T11:00:54.785Z</time>
      </trkpt>
      <trkpt lat="39.55202" lon="2.601595">
        <ele>23.0</ele>
        <time>2022-05-14T11:00:55.784Z</time>
      </trkpt>
      <trkpt lat="39.551995" lon="2.60153">
        <ele>23.0</ele>
        <time>2022-05-14T11:00:56.784Z</time>
      </trkpt>
      <trkpt lat="39.55197167" lon="2.60146833">
        <ele>22.0</ele>
        <time>2022-05-14T11:00:57.784Z</time>
      </trkpt>
      <trkpt lat="39.55195" lon="2.60141167">
        <ele>22.0</ele>
        <time>2022-05-14T11:00:58.784Z</time>
      </trkpt>
      <trkpt lat="39.55192833" lon="2.60135167">
        <ele>22.0</ele>
        <time>2022-05-14T11:00:59.785Z</time>
      </trkpt>
      <trkpt lat="39.55190333" lon="2.60129167">
        <ele>22.0</ele>
        <time>2022-05-14T11:01:00.784Z</time>
      </trkpt>
      <trkpt lat="39.551875" lon="2.60122833">
        <ele>22.0</ele>
        <time>2022-05-14T11:01:01.784Z</time>
      </trkpt>
      <trkpt lat="39.55184833" lon="2.60115833">
        <ele>22.0</ele>
        <time>2022-05-14T11:01:02.784Z</time>
      </trkpt>
      <trkpt lat="39.55181833" lon="2.60108333">
        <ele>22.0</ele>
        <time>2022-05-14T11:01:03.785Z</time>
      </trkpt>
      <trkpt lat="39.55178667" lon="2.60101">
        <ele>22.0</ele>
        <time>2022-05-14T11:01:04.784Z</time>
      </trkpt>
      <trkpt lat="39.55175667" lon="2.60093167">
        <ele>21.0</ele>
        <time>2022-05-14T11:01:05.784Z</time>
      </trkpt>
      <trkpt lat="39.55172333" lon="2.60085333">
        <ele>21.0</ele>
        <time>2022-05-14T11:01:06.784Z</time>
      </trkpt>
      <trkpt lat="39.55169167" lon="2.60077167">
        <ele>21.0</ele>
        <time>2022-05-14T11:01:07.784Z</time>
      </trkpt>
      <trkpt lat="39.55165833" lon="2.60069167">
        <ele>21.0</ele>
        <time>2022-05-14T11:01:08.785Z</time>
      </trkpt>
      <trkpt lat="39.55162" lon="2.60061167">
        <ele>21.0</ele>
        <time>2022-05-14T11:01:09.784Z</time>
      </trkpt>
      <trkpt lat="39.55158167" lon="2.60053667">
        <ele>20.0</ele>
        <time>2022-05-14T11:01:10.785Z</time>
      </trkpt>
      <trkpt lat="39.55154167" lon="2.60045667">
        <ele>20.0</ele>
        <time>2022-05-14T11:01:11.784Z</time>
      </trkpt>
      <trkpt lat="39.55150333" lon="2.60037333">
        <ele>19.0</ele>
        <time>2022-05-14T11:01:12.784Z</time>
      </trkpt>
      <trkpt lat="39.55145333" lon="2.60029833">
        <ele>19.0</ele>
        <time>2022-05-14T11:01:13.785Z</time>
      </trkpt>
      <trkpt lat="39.55139333" lon="2.60022333">
        <ele>18.0</ele>
        <time>2022-05-14T11:01:14.784Z</time>
      </trkpt>
      <trkpt lat="39.55133167" lon="2.60015167">
        <ele>18.0</ele>
        <time>2022-05-14T11:01:15.785Z</time>
      </trkpt>
      <trkpt lat="39.55126667" lon="2.60008333">
        <ele>18.0</ele>
        <time>2022-05-14T11:01:16.784Z</time>
      </trkpt>
      <trkpt lat="39.55119667" lon="2.60001833">
        <ele>18.0</ele>
        <time>2022-05-14T11:01:17.784Z</time>
      </trkpt>
      <trkpt lat="39.551125" lon="2.59995167">
        <ele>18.0</ele>
        <time>2022-05-14T11:01:18.784Z</time>
      </trkpt>
      <trkpt lat="39.55105833" lon="2.59988167">
        <ele>18.0</ele>
        <time>2022-05-14T11:01:19.784Z</time>
      </trkpt>
      <trkpt lat="39.55099333" lon="2.59981167">
        <ele>17.0</ele>
        <time>2022-05-14T11:01:20.785Z</time>
      </trkpt>
      <trkpt lat="39.55093" lon="2.59974">
        <ele>17.0</ele>
        <time>2022-05-14T11:01:21.785Z</time>
      </trkpt>
      <trkpt lat="39.55086333" lon="2.599655">
        <ele>17.0</ele>
        <time>2022-05-14T11:01:22.784Z</time>
      </trkpt>
      <trkpt lat="39.55082667" lon="2.59959333">
        <ele>16.0</ele>
        <time>2022-05-14T11:01:23.785Z</time>
      </trkpt>
      <trkpt lat="39.550785" lon="2.59951333">
        <ele>16.0</ele>
        <time>2022-05-14T11:01:24.785Z</time>
      </trkpt>
      <trkpt lat="39.55074333" lon="2.59943">
        <ele>15.0</ele>
        <time>2022-05-14T11:01:25.785Z</time>
      </trkpt>
      <trkpt lat="39.55070167" lon="2.59935">
        <ele>15.0</ele>
        <time>2022-05-14T11:01:26.785Z</time>
      </trkpt>
      <trkpt lat="39.55066" lon="2.59926833">
        <ele>15.0</ele>
        <time>2022-05-14T11:01:27.785Z</time>
      </trkpt>
      <trkpt lat="39.55062" lon="2.59918833">
        <ele>14.0</ele>
        <time>2022-05-14T11:01:28.785Z</time>
      </trkpt>
      <trkpt lat="39.55058167" lon="2.59910667">
        <ele>14.0</ele>
        <time>2022-05-14T11:01:29.785Z</time>
      </trkpt>
      <trkpt lat="39.55054" lon="2.59902833">
        <ele>14.0</ele>
        <time>2022-05-14T11:01:30.785Z</time>
      </trkpt>
      <trkpt lat="39.550505" lon="2.59894333">
        <ele>13.0</ele>
        <time>2022-05-14T11:01:31.784Z</time>
      </trkpt>
      <trkpt lat="39.550465" lon="2.59885667">
        <ele>13.0</ele>
        <time>2022-05-14T11:01:32.785Z</time>
      </trkpt>
      <trkpt lat="39.55042833" lon="2.598775">
        <ele>12.0</ele>
        <time>2022-05-14T11:01:33.785Z</time>
      </trkpt>
      <trkpt lat="39.55039" lon="2.59869">
        <ele>11.0</ele>
        <time>2022-05-14T11:01:34.785Z</time>
      </trkpt>
      <trkpt lat="39.55035667" lon="2.59860167">
        <ele>11.0</ele>
        <time>2022-05-14T11:01:35.785Z</time>
      </trkpt>
      <trkpt lat="39.55031333" lon="2.59852">
        <ele>10.0</ele>
        <time>2022-05-14T11:01:36.785Z</time>
      </trkpt>
      <trkpt lat="39.55026833" lon="2.59844333">
        <ele>10.0</ele>
        <time>2022-05-14T11:01:37.785Z</time>
      </trkpt>
      <trkpt lat="39.55021667" lon="2.59837">
        <ele>10.0</ele>
        <time>2022-05-14T11:01:38.785Z</time>
      </trkpt>
      <trkpt lat="39.55017167" lon="2.59829167">
        <ele>9.0</ele>
        <time>2022-05-14T11:01:39.784Z</time>
      </trkpt>
      <trkpt lat="39.55012667" lon="2.598215">
        <ele>9.0</ele>
        <time>2022-05-14T11:01:40.784Z</time>
      </trkpt>
      <trkpt lat="39.55008333" lon="2.598135">
        <ele>8.0</ele>
        <time>2022-05-14T11:01:41.785Z</time>
      </trkpt>
      <trkpt lat="39.55004167" lon="2.598055">
        <ele>8.0</ele>
        <time>2022-05-14T11:01:42.785Z</time>
      </trkpt>
      <trkpt lat="39.55000333" lon="2.59797333">
        <ele>8.0</ele>
        <time>2022-05-14T11:01:43.784Z</time>
      </trkpt>
      <trkpt lat="39.54996333" lon="2.59789833">
        <ele>8.0</ele>
        <time>2022-05-14T11:01:44.785Z</time>
      </trkpt>
      <trkpt lat="39.54992333" lon="2.59782333">
        <ele>8.0</ele>
        <time>2022-05-14T11:01:45.784Z</time>
      </trkpt>
      <trkpt lat="39.549885" lon="2.59775">
        <ele>8.0</ele>
        <time>2022-05-14T11:01:46.785Z</time>
      </trkpt>
      <trkpt lat="39.54984833" lon="2.59767667">
        <ele>7.0</ele>
        <time>2022-05-14T11:01:47.785Z</time>
      </trkpt>
      <trkpt lat="39.54980667" lon="2.59760667">
        <ele>7.0</ele>
        <time>2022-05-14T11:01:48.784Z</time>
      </trkpt>
      <trkpt lat="39.54976333" lon="2.59754333">
        <ele>8.0</ele>
        <time>2022-05-14T11:01:49.784Z</time>
      </trkpt>
      <trkpt lat="39.54972" lon="2.59748167">
        <ele>8.0</ele>
        <time>2022-05-14T11:01:50.785Z</time>
      </trkpt>
      <trkpt lat="39.54967333" lon="2.59742167">
        <ele>9.0</ele>
        <time>2022-05-14T11:01:51.785Z</time>
      </trkpt>
      <trkpt lat="39.549625" lon="2.59736333">
        <ele>10.0</ele>
        <time>2022-05-14T11:01:52.785Z</time>
      </trkpt>
      <trkpt lat="39.54957333" lon="2.59730833">
        <ele>10.0</ele>
        <time>2022-05-14T11:01:53.785Z</time>
      </trkpt>
      <trkpt lat="39.54952" lon="2.597255">
        <ele>11.0</ele>
        <time>2022-05-14T11:01:54.784Z</time>
      </trkpt>
      <trkpt lat="39.54946833" lon="2.59720167">
        <ele>11.0</ele>
        <time>2022-05-14T11:01:55.785Z</time>
      </trkpt>
      <trkpt lat="39.549415" lon="2.59715333">
        <ele>11.0</ele>
        <time>2022-05-14T11:01:56.785Z</time>
      </trkpt>
      <trkpt lat="39.54936167" lon="2.597105">
        <ele>11.0</ele>
        <time>2022-05-14T11:01:57.784Z</time>
      </trkpt>
      <trkpt lat="39.54930833" lon="2.59705833">
        <ele>10.0</ele>
        <time>2022-05-14T11:01:58.785Z</time>
      </trkpt>
      <trkpt lat="39.549255" lon="2.59701167">
        <ele>10.0</ele>
        <time>2022-05-14T11:01:59.784Z</time>
      </trkpt>
      <trkpt lat="39.54919833" lon="2.59696833">
        <ele>10.0</ele>
        <time>2022-05-14T11:02:00.784Z</time>
      </trkpt>
      <trkpt lat="39.54914" lon="2.59693">
        <ele>10.0</ele>
        <time>2022-05-14T11:02:01.784Z</time>
      </trkpt>
      <trkpt lat="39.54908" lon="2.59690167">
        <ele>10.0</ele>
        <time>2022-05-14T11:02:02.784Z</time>
      </trkpt>
      <trkpt lat="39.54902" lon="2.59687667">
        <ele>10.0</ele>
        <time>2022-05-14T11:02:03.785Z</time>
      </trkpt>
      <trkpt lat="39.54895833" lon="2.59685667">
        <ele>9.0</ele>
        <time>2022-05-14T11:02:04.785Z</time>
      </trkpt>
      <trkpt lat="39.54889667" lon="2.59684">
        <ele>9.0</ele>
        <time>2022-05-14T11:02:05.785Z</time>
      </trkpt>
      <trkpt lat="39.54883" lon="2.596825">
        <ele>8.0</ele>
        <time>2022-05-14T11:02:06.785Z</time>
      </trkpt>
      <trkpt lat="39.54876167" lon="2.59681167">
        <ele>7.0</ele>
        <time>2022-05-14T11:02:07.785Z</time>
      </trkpt>
      <trkpt lat="39.548695" lon="2.5968">
        <ele>7.0</ele>
        <time>2022-05-14T11:02:08.784Z</time>
      </trkpt>
      <trkpt lat="39.54862667" lon="2.596785">
        <ele>6.0</ele>
        <time>2022-05-14T11:02:09.785Z</time>
      </trkpt>
      <trkpt lat="39.54856167" lon="2.59677167">
        <ele>7.0</ele>
        <time>2022-05-14T11:02:10.785Z</time>
      </trkpt>
      <trkpt lat="39.54849833" lon="2.59675833">
        <ele>7.0</ele>
        <time>2022-05-14T11:02:11.785Z</time>
      </trkpt>
      <trkpt lat="39.548435" lon="2.59674333">
        <ele>7.0</ele>
        <time>2022-05-14T11:02:12.785Z</time>
      </trkpt>
      <trkpt lat="39.54837667" lon="2.59672833">
        <ele>8.0</ele>
        <time>2022-05-14T11:02:13.785Z</time>
      </trkpt>
      <trkpt lat="39.548315" lon="2.59671667">
        <ele>8.0</ele>
        <time>2022-05-14T11:02:14.785Z</time>
      </trkpt>
      <trkpt lat="39.54825667" lon="2.59671">
        <ele>8.0</ele>
        <time>2022-05-14T11:02:15.785Z</time>
      </trkpt>
      <trkpt lat="39.54819833" lon="2.59670667">
        <ele>8.0</ele>
        <time>2022-05-14T11:02:16.785Z</time>
      </trkpt>
      <trkpt lat="39.54814167" lon="2.59670167">
        <ele>8.0</ele>
        <time>2022-05-14T11:02:17.785Z</time>
      </trkpt>
      <trkpt lat="39.54808333" lon="2.59669333">
        <ele>8.0</ele>
        <time>2022-05-14T11:02:18.785Z</time>
      </trkpt>
      <trkpt lat="39.54802333" lon="2.59668">
        <ele>8.0</ele>
        <time>2022-05-14T11:02:19.784Z</time>
      </trkpt>
      <trkpt lat="39.54796167" lon="2.59666667">
        <ele>8.0</ele>
        <time>2022-05-14T11:02:20.785Z</time>
      </trkpt>
      <trkpt lat="39.5479" lon="2.596645">
        <ele>8.0</ele>
        <time>2022-05-14T11:02:21.784Z</time>
      </trkpt>
      <trkpt lat="39.54784333" lon="2.596605">
        <ele>8.0</ele>
        <time>2022-05-14T11:02:22.785Z</time>
      </trkpt>
      <trkpt lat="39.547795" lon="2.59655333">
        <ele>8.0</ele>
        <time>2022-05-14T11:02:23.785Z</time>
      </trkpt>
      <trkpt lat="39.547745" lon="2.5965">
        <ele>8.0</ele>
        <time>2022-05-14T11:02:24.784Z</time>
      </trkpt>
      <trkpt lat="39.54769833" lon="2.59644167">
        <ele>9.0</ele>
        <time>2022-05-14T11:02:25.785Z</time>
      </trkpt>
      <trkpt lat="39.54766" lon="2.59638">
        <ele>9.0</ele>
        <time>2022-05-14T11:02:26.784Z</time>
      </trkpt>
      <trkpt lat="39.547625" lon="2.59631167">
        <ele>9.0</ele>
        <time>2022-05-14T11:02:27.784Z</time>
      </trkpt>
      <trkpt lat="39.54759333" lon="2.59623833">
        <ele>10.0</ele>
        <time>2022-05-14T11:02:28.785Z</time>
      </trkpt>
      <trkpt lat="39.54756333" lon="2.59616167">
        <ele>10.0</ele>
        <time>2022-05-14T11:02:29.784Z</time>
      </trkpt>
      <trkpt lat="39.54753333" lon="2.59609">
        <ele>10.0</ele>
        <time>2022-05-14T11:02:30.784Z</time>
      </trkpt>
      <trkpt lat="39.5475" lon="2.59601667">
        <ele>11.0</ele>
        <time>2022-05-14T11:02:31.784Z</time>
      </trkpt>
      <trkpt lat="39.547465" lon="2.59594">
        <ele>11.0</ele>
        <time>2022-05-14T11:02:32.784Z</time>
      </trkpt>
      <trkpt lat="39.54743333" lon="2.59586333">
        <ele>11.0</ele>
        <time>2022-05-14T11:02:33.784Z</time>
      </trkpt>
      <trkpt lat="39.54740333" lon="2.595785">
        <ele>11.0</ele>
        <time>2022-05-14T11:02:34.785Z</time>
      </trkpt>
      <trkpt lat="39.54737667" lon="2.59570667">
        <ele>11.0</ele>
        <time>2022-05-14T11:02:35.785Z</time>
      </trkpt>
      <trkpt lat="39.54734833" lon="2.59562833">
        <ele>11.0</ele>
        <time>2022-05-14T11:02:36.784Z</time>
      </trkpt>
      <trkpt lat="39.54732" lon="2.595555">
        <ele>11.0</ele>
        <time>2022-05-14T11:02:37.785Z</time>
      </trkpt>
      <trkpt lat="39.54728833" lon="2.59548667">
        <ele>11.0</ele>
        <time>2022-05-14T11:02:38.785Z</time>
      </trkpt>
      <trkpt lat="39.54725667" lon="2.59541833">
        <ele>11.0</ele>
        <time>2022-05-14T11:02:39.784Z</time>
      </trkpt>
      <trkpt lat="39.54722667" lon="2.59534667">
        <ele>11.0</ele>
        <time>2022-05-14T11:02:40.785Z</time>
      </trkpt>
      <trkpt lat="39.54719667" lon="2.59527667">
        <ele>11.0</ele>
        <time>2022-05-14T11:02:41.785Z</time>
      </trkpt>
      <trkpt lat="39.547165" lon="2.59520833">
        <ele>11.0</ele>
        <time>2022-05-14T11:02:42.785Z</time>
      </trkpt>
      <trkpt lat="39.54713" lon="2.59514167">
        <ele>11.0</ele>
        <time>2022-05-14T11:02:43.784Z</time>
      </trkpt>
      <trkpt lat="39.54709667" lon="2.59507333">
        <ele>11.0</ele>
        <time>2022-05-14T11:02:44.784Z</time>
      </trkpt>
      <trkpt lat="39.547055" lon="2.59501">
        <ele>10.0</ele>
        <time>2022-05-14T11:02:45.785Z</time>
      </trkpt>
      <trkpt lat="39.54700833" lon="2.59495">
        <ele>10.0</ele>
        <time>2022-05-14T11:02:46.785Z</time>
      </trkpt>
      <trkpt lat="39.54695333" lon="2.59490167">
        <ele>9.0</ele>
        <time>2022-05-14T11:02:47.784Z</time>
      </trkpt>
      <trkpt lat="39.54689333" lon="2.59486833">
        <ele>8.0</ele>
        <time>2022-05-14T11:02:48.784Z</time>
      </trkpt>
      <trkpt lat="39.546835" lon="2.59483667">
        <ele>8.0</ele>
        <time>2022-05-14T11:02:49.784Z</time>
      </trkpt>
      <trkpt lat="39.54676833" lon="2.594815">
        <ele>8.0</ele>
        <time>2022-05-14T11:02:50.785Z</time>
      </trkpt>
      <trkpt lat="39.54670167" lon="2.59480333">
        <ele>8.0</ele>
        <time>2022-05-14T11:02:51.784Z</time>
      </trkpt>
      <trkpt lat="39.54663333" lon="2.59480167">
        <ele>8.0</ele>
        <time>2022-05-14T11:02:52.785Z</time>
      </trkpt>
      <trkpt lat="39.54656167" lon="2.59480667">
        <ele>8.0</ele>
        <time>2022-05-14T11:02:53.785Z</time>
      </trkpt>
      <trkpt lat="39.54649333" lon="2.59482">
        <ele>8.0</ele>
        <time>2022-05-14T11:02:54.784Z</time>
      </trkpt>
      <trkpt lat="39.54643333" lon="2.59484667">
        <ele>8.0</ele>
        <time>2022-05-14T11:02:55.785Z</time>
      </trkpt>
      <trkpt lat="39.54637667" lon="2.594885">
        <ele>7.0</ele>
        <time>2022-05-14T11:02:56.785Z</time>
      </trkpt>
      <trkpt lat="39.54631667" lon="2.59493">
        <ele>6.0</ele>
        <time>2022-05-14T11:02:57.785Z</time>
      </trkpt>
      <trkpt lat="39.54626333" lon="2.59498167">
        <ele>6.0</ele>
        <time>2022-05-14T11:02:58.785Z</time>
      </trkpt>
      <trkpt lat="39.54621167" lon="2.59503167">
        <ele>5.0</ele>
        <time>2022-05-14T11:02:59.785Z</time>
      </trkpt>
      <trkpt lat="39.54616" lon="2.59508333">
        <ele>5.0</ele>
        <time>2022-05-14T11:03:00.784Z</time>
      </trkpt>
      <trkpt lat="39.54611167" lon="2.59513">
        <ele>4.0</ele>
        <time>2022-05-14T11:03:01.785Z</time>
      </trkpt>
      <trkpt lat="39.546065" lon="2.59517833">
        <ele>4.0</ele>
        <time>2022-05-14T11:03:02.785Z</time>
      </trkpt>
      <trkpt lat="39.54601667" lon="2.59522833">
        <ele>5.0</ele>
        <time>2022-05-14T11:03:03.785Z</time>
      </trkpt>
      <trkpt lat="39.54597" lon="2.59527333">
        <ele>5.0</ele>
        <time>2022-05-14T11:03:04.784Z</time>
      </trkpt>
      <trkpt lat="39.54593" lon="2.59531333">
        <ele>5.0</ele>
        <time>2022-05-14T11:03:05.784Z</time>
      </trkpt>
      <trkpt lat="39.545885" lon="2.59535833">
        <ele>5.0</ele>
        <time>2022-05-14T11:03:06.785Z</time>
      </trkpt>
      <trkpt lat="39.54584" lon="2.59539833">
        <ele>5.0</ele>
        <time>2022-05-14T11:03:07.785Z</time>
      </trkpt>
      <trkpt lat="39.54579833" lon="2.59544167">
        <ele>6.0</ele>
        <time>2022-05-14T11:03:08.785Z</time>
      </trkpt>
      <trkpt lat="39.54575333" lon="2.59547833">
        <ele>6.0</ele>
        <time>2022-05-14T11:03:09.785Z</time>
      </trkpt>
      <trkpt lat="39.54570833" lon="2.59551167">
        <ele>6.0</ele>
        <time>2022-05-14T11:03:10.785Z</time>
      </trkpt>
      <trkpt lat="39.545665" lon="2.59554167">
        <ele>6.0</ele>
        <time>2022-05-14T11:03:11.785Z</time>
      </trkpt>
      <trkpt lat="39.54561833" lon="2.59556833">
        <ele>6.0</ele>
        <time>2022-05-14T11:03:12.785Z</time>
      </trkpt>
      <trkpt lat="39.54557167" lon="2.595585">
        <ele>6.0</ele>
        <time>2022-05-14T11:03:13.785Z</time>
      </trkpt>
      <trkpt lat="39.54552333" lon="2.59559667">
        <ele>6.0</ele>
        <time>2022-05-14T11:03:14.785Z</time>
      </trkpt>
      <trkpt lat="39.54547167" lon="2.59560167">
        <ele>6.0</ele>
        <time>2022-05-14T11:03:15.784Z</time>
      </trkpt>
      <trkpt lat="39.54542" lon="2.595595">
        <ele>7.0</ele>
        <time>2022-05-14T11:03:16.785Z</time>
      </trkpt>
      <trkpt lat="39.54536833" lon="2.59558167">
        <ele>7.0</ele>
        <time>2022-05-14T11:03:17.784Z</time>
      </trkpt>
      <trkpt lat="39.54531333" lon="2.595565">
        <ele>7.0</ele>
        <time>2022-05-14T11:03:18.785Z</time>
      </trkpt>
      <trkpt lat="39.54526333" lon="2.59554667">
        <ele>8.0</ele>
        <time>2022-05-14T11:03:19.785Z</time>
      </trkpt>
      <trkpt lat="39.54521833" lon="2.59551667">
        <ele>8.0</ele>
        <time>2022-05-14T11:03:20.784Z</time>
      </trkpt>
      <trkpt lat="39.54517667" lon="2.59548">
        <ele>8.0</ele>
        <time>2022-05-14T11:03:21.784Z</time>
      </trkpt>
      <trkpt lat="39.54513167" lon="2.59544">
        <ele>7.0</ele>
        <time>2022-05-14T11:03:22.785Z</time>
      </trkpt>
      <trkpt lat="39.54509167" lon="2.59539">
        <ele>7.0</ele>
        <time>2022-05-14T11:03:23.784Z</time>
      </trkpt>
      <trkpt lat="39.545055" lon="2.59533333">
        <ele>7.0</ele>
        <time>2022-05-14T11:03:24.785Z</time>
      </trkpt>
      <trkpt lat="39.54502333" lon="2.59527167">
        <ele>7.0</ele>
        <time>2022-05-14T11:03:25.785Z</time>
      </trkpt>
      <trkpt lat="39.54499667" lon="2.59520167">
        <ele>7.0</ele>
        <time>2022-05-14T11:03:26.785Z</time>
      </trkpt>
      <trkpt lat="39.54496833" lon="2.59512833">
        <ele>7.0</ele>
        <time>2022-05-14T11:03:27.785Z</time>
      </trkpt>
      <trkpt lat="39.54493833" lon="2.59505667">
        <ele>7.0</ele>
        <time>2022-05-14T11:03:28.784Z</time>
      </trkpt>
      <trkpt lat="39.54490333" lon="2.59497833">
        <ele>7.0</ele>
        <time>2022-05-14T11:03:29.785Z</time>
      </trkpt>
      <trkpt lat="39.54486667" lon="2.5949">
        <ele>7.0</ele>
        <time>2022-05-14T11:03:30.785Z</time>
      </trkpt>
      <trkpt lat="39.54483167" lon="2.59483333">
        <ele>7.0</ele>
        <time>2022-05-14T11:03:31.784Z</time>
      </trkpt>
      <trkpt lat="39.54479833" lon="2.594765">
        <ele>6.0</ele>
        <time>2022-05-14T11:03:32.784Z</time>
      </trkpt>
      <trkpt lat="39.54475833" lon="2.59469833">
        <ele>6.0</ele>
        <time>2022-05-14T11:03:33.784Z</time>
      </trkpt>
      <trkpt lat="39.54472333" lon="2.59463333">
        <ele>6.0</ele>
        <time>2022-05-14T11:03:34.784Z</time>
      </trkpt>
      <trkpt lat="39.54469167" lon="2.59456333">
        <ele>6.0</ele>
        <time>2022-05-14T11:03:35.785Z</time>
      </trkpt>
      <trkpt lat="39.54465833" lon="2.594495">
        <ele>6.0</ele>
        <time>2022-05-14T11:03:36.785Z</time>
      </trkpt>
      <trkpt lat="39.544625" lon="2.594435">
        <ele>6.0</ele>
        <time>2022-05-14T11:03:37.785Z</time>
      </trkpt>
      <trkpt lat="39.54459333" lon="2.594375">
        <ele>5.0</ele>
        <time>2022-05-14T11:03:38.785Z</time>
      </trkpt>
      <trkpt lat="39.54456167" lon="2.59432">
        <ele>5.0</ele>
        <time>2022-05-14T11:03:39.785Z</time>
      </trkpt>
      <trkpt lat="39.54453167" lon="2.59426333">
        <ele>6.0</ele>
        <time>2022-05-14T11:03:40.785Z</time>
      </trkpt>
      <trkpt lat="39.54449833" lon="2.59420833">
        <ele>6.0</ele>
        <time>2022-05-14T11:03:41.785Z</time>
      </trkpt>
      <trkpt lat="39.54446333" lon="2.59415833">
        <ele>6.0</ele>
        <time>2022-05-14T11:03:42.784Z</time>
      </trkpt>
      <trkpt lat="39.54442667" lon="2.59411167">
        <ele>6.0</ele>
        <time>2022-05-14T11:03:43.785Z</time>
      </trkpt>
      <trkpt lat="39.54438833" lon="2.59406833">
        <ele>7.0</ele>
        <time>2022-05-14T11:03:44.784Z</time>
      </trkpt>
      <trkpt lat="39.54435167" lon="2.59402667">
        <ele>7.0</ele>
        <time>2022-05-14T11:03:45.785Z</time>
      </trkpt>
      <trkpt lat="39.544315" lon="2.59398667">
        <ele>8.0</ele>
        <time>2022-05-14T11:03:46.785Z</time>
      </trkpt>
      <trkpt lat="39.54427833" lon="2.59394833">
        <ele>8.0</ele>
        <time>2022-05-14T11:03:47.785Z</time>
      </trkpt>
      <trkpt lat="39.54424167" lon="2.59391333">
        <ele>9.0</ele>
        <time>2022-05-14T11:03:48.785Z</time>
      </trkpt>
      <trkpt lat="39.54420333" lon="2.59387833">
        <ele>10.0</ele>
        <time>2022-05-14T11:03:49.784Z</time>
      </trkpt>
      <trkpt lat="39.544165" lon="2.593845">
        <ele>10.0</ele>
        <time>2022-05-14T11:03:50.784Z</time>
      </trkpt>
      <trkpt lat="39.54412667" lon="2.59380833">
        <ele>10.0</ele>
        <time>2022-05-14T11:03:51.784Z</time>
      </trkpt>
      <trkpt lat="39.54409" lon="2.593775">
        <ele>10.0</ele>
        <time>2022-05-14T11:03:52.784Z</time>
      </trkpt>
      <trkpt lat="39.54405" lon="2.59374167">
        <ele>10.0</ele>
        <time>2022-05-14T11:03:53.785Z</time>
      </trkpt>
      <trkpt lat="39.544015" lon="2.59370667">
        <ele>10.0</ele>
        <time>2022-05-14T11:03:54.785Z</time>
      </trkpt>
      <trkpt lat="39.54397833" lon="2.59367">
        <ele>11.0</ele>
        <time>2022-05-14T11:03:55.785Z</time>
      </trkpt>
      <trkpt lat="39.54394333" lon="2.59363667">
        <ele>11.0</ele>
        <time>2022-05-14T11:03:56.785Z</time>
      </trkpt>
      <trkpt lat="39.54390667" lon="2.593605">
        <ele>12.0</ele>
        <time>2022-05-14T11:03:57.785Z</time>
      </trkpt>
      <trkpt lat="39.543875" lon="2.59357">
        <ele>11.0</ele>
        <time>2022-05-14T11:03:58.785Z</time>
      </trkpt>
      <trkpt lat="39.543845" lon="2.59353333">
        <ele>11.0</ele>
        <time>2022-05-14T11:03:59.784Z</time>
      </trkpt>
      <trkpt lat="39.54381667" lon="2.59349833">
        <ele>11.0</ele>
        <time>2022-05-14T11:04:00.784Z</time>
      </trkpt>
      <trkpt lat="39.543785" lon="2.59346333">
        <ele>10.0</ele>
        <time>2022-05-14T11:04:01.785Z</time>
      </trkpt>
      <trkpt lat="39.543755" lon="2.59342667">
        <ele>10.0</ele>
        <time>2022-05-14T11:04:02.784Z</time>
      </trkpt>
      <trkpt lat="39.54372667" lon="2.59339">
        <ele>10.0</ele>
        <time>2022-05-14T11:04:03.784Z</time>
      </trkpt>
      <trkpt lat="39.54370167" lon="2.59335167">
        <ele>10.0</ele>
        <time>2022-05-14T11:04:04.785Z</time>
      </trkpt>
      <trkpt lat="39.54368" lon="2.59331167">
        <ele>10.0</ele>
        <time>2022-05-14T11:04:05.785Z</time>
      </trkpt>
      <trkpt lat="39.54365833" lon="2.59326833">
        <ele>10.0</ele>
        <time>2022-05-14T11:04:06.785Z</time>
      </trkpt>
      <trkpt lat="39.54364" lon="2.59322833">
        <ele>10.0</ele>
        <time>2022-05-14T11:04:07.785Z</time>
      </trkpt>
      <trkpt lat="39.54362333" lon="2.59318667">
        <ele>10.0</ele>
        <time>2022-05-14T11:04:08.784Z</time>
      </trkpt>
      <trkpt lat="39.54360833" lon="2.59314167">
        <ele>10.0</ele>
        <time>2022-05-14T11:04:09.785Z</time>
      </trkpt>
      <trkpt lat="39.54359167" lon="2.59309833">
        <ele>10.0</ele>
        <time>2022-05-14T11:04:10.784Z</time>
      </trkpt>
      <trkpt lat="39.54357833" lon="2.59305">
        <ele>10.0</ele>
        <time>2022-05-14T11:04:11.785Z</time>
      </trkpt>
      <trkpt lat="39.543565" lon="2.59300167">
        <ele>10.0</ele>
        <time>2022-05-14T11:04:12.784Z</time>
      </trkpt>
      <trkpt lat="39.54355333" lon="2.59295167">
        <ele>10.0</ele>
        <time>2022-05-14T11:04:13.785Z</time>
      </trkpt>
      <trkpt lat="39.54354167" lon="2.59290167">
        <ele>10.0</ele>
        <time>2022-05-14T11:04:14.784Z</time>
      </trkpt>
      <trkpt lat="39.54353" lon="2.59285333">
        <ele>11.0</ele>
        <time>2022-05-14T11:04:15.785Z</time>
      </trkpt>
      <trkpt lat="39.54352" lon="2.59280667">
        <ele>12.0</ele>
        <time>2022-05-14T11:04:16.785Z</time>
      </trkpt>
      <trkpt lat="39.54350833" lon="2.59276">
        <ele>12.0</ele>
        <time>2022-05-14T11:04:17.785Z</time>
      </trkpt>
      <trkpt lat="39.543495" lon="2.59271333">
        <ele>13.0</ele>
        <time>2022-05-14T11:04:18.785Z</time>
      </trkpt>
      <trkpt lat="39.54348333" lon="2.59266833">
        <ele>13.0</ele>
        <time>2022-05-14T11:04:19.785Z</time>
      </trkpt>
      <trkpt lat="39.54347333" lon="2.59262">
        <ele>13.0</ele>
        <time>2022-05-14T11:04:20.785Z</time>
      </trkpt>
      <trkpt lat="39.543465" lon="2.59257333">
        <ele>13.0</ele>
        <time>2022-05-14T11:04:21.784Z</time>
      </trkpt>
      <trkpt lat="39.54345667" lon="2.59252667">
        <ele>12.0</ele>
        <time>2022-05-14T11:04:22.784Z</time>
      </trkpt>
      <trkpt lat="39.543445" lon="2.59247833">
        <ele>12.0</ele>
        <time>2022-05-14T11:04:23.784Z</time>
      </trkpt>
      <trkpt lat="39.543435" lon="2.59243">
        <ele>12.0</ele>
        <time>2022-05-14T11:04:24.785Z</time>
      </trkpt>
      <trkpt lat="39.54342333" lon="2.592385">
        <ele>12.0</ele>
        <time>2022-05-14T11:04:25.785Z</time>
      </trkpt>
      <trkpt lat="39.54340833" lon="2.59234167">
        <ele>12.0</ele>
        <time>2022-05-14T11:04:26.785Z</time>
      </trkpt>
      <trkpt lat="39.54339667" lon="2.59229833">
        <ele>13.0</ele>
        <time>2022-05-14T11:04:27.784Z</time>
      </trkpt>
      <trkpt lat="39.54338333" lon="2.59225667">
        <ele>13.0</ele>
        <time>2022-05-14T11:04:28.785Z</time>
      </trkpt>
      <trkpt lat="39.54337" lon="2.592215">
        <ele>13.0</ele>
        <time>2022-05-14T11:04:29.784Z</time>
      </trkpt>
      <trkpt lat="39.54335167" lon="2.59218167">
        <ele>14.0</ele>
        <time>2022-05-14T11:04:30.785Z</time>
      </trkpt>
      <trkpt lat="39.54332833" lon="2.59215667">
        <ele>14.0</ele>
        <time>2022-05-14T11:04:31.785Z</time>
      </trkpt>
      <trkpt lat="39.54330167" lon="2.592135">
        <ele>14.0</ele>
        <time>2022-05-14T11:04:32.785Z</time>
      </trkpt>
      <trkpt lat="39.54327667" lon="2.59211">
        <ele>14.0</ele>
        <time>2022-05-14T11:04:33.784Z</time>
      </trkpt>
      <trkpt lat="39.543255" lon="2.59207833">
        <ele>14.0</ele>
        <time>2022-05-14T11:04:34.785Z</time>
      </trkpt>
      <trkpt lat="39.54323833" lon="2.59204333">
        <ele>14.0</ele>
        <time>2022-05-14T11:04:35.785Z</time>
      </trkpt>
      <trkpt lat="39.543225" lon="2.59201167">
        <ele>14.0</ele>
        <time>2022-05-14T11:04:36.784Z</time>
      </trkpt>
      <trkpt lat="39.54321833" lon="2.59198667">
        <ele>14.0</ele>
        <time>2022-05-14T11:04:37.785Z</time>
      </trkpt>
      <trkpt lat="39.54321333" lon="2.59195333">
        <ele>14.0</ele>
        <time>2022-05-14T11:04:38.785Z</time>
      </trkpt>
      <trkpt lat="39.54320833" lon="2.59191833">
        <ele>14.0</ele>
        <time>2022-05-14T11:04:39.784Z</time>
      </trkpt>
      <trkpt lat="39.54319667" lon="2.59188">
        <ele>14.0</ele>
        <time>2022-05-14T11:04:40.785Z</time>
      </trkpt>
      <trkpt lat="39.543185" lon="2.591845">
        <ele>14.0</ele>
        <time>2022-05-14T11:04:41.785Z</time>
      </trkpt>
      <trkpt lat="39.543175" lon="2.59180667">
        <ele>14.0</ele>
        <time>2022-05-14T11:04:42.785Z</time>
      </trkpt>
      <trkpt lat="39.54316333" lon="2.59176667">
        <ele>14.0</ele>
        <time>2022-05-14T11:04:43.785Z</time>
      </trkpt>
      <trkpt lat="39.54315333" lon="2.59172667">
        <ele>14.0</ele>
        <time>2022-05-14T11:04:44.785Z</time>
      </trkpt>
      <trkpt lat="39.54314833" lon="2.59168167">
        <ele>15.0</ele>
        <time>2022-05-14T11:04:45.785Z</time>
      </trkpt>
      <trkpt lat="39.54314" lon="2.59163667">
        <ele>16.0</ele>
        <time>2022-05-14T11:04:46.785Z</time>
      </trkpt>
      <trkpt lat="39.54313167" lon="2.59158833">
        <ele>16.0</ele>
        <time>2022-05-14T11:04:47.785Z</time>
      </trkpt>
      <trkpt lat="39.54312333" lon="2.591545">
        <ele>17.0</ele>
        <time>2022-05-14T11:04:48.785Z</time>
      </trkpt>
      <trkpt lat="39.543115" lon="2.5915">
        <ele>17.0</ele>
        <time>2022-05-14T11:04:49.784Z</time>
      </trkpt>
      <trkpt lat="39.54310667" lon="2.59145667">
        <ele>18.0</ele>
        <time>2022-05-14T11:04:50.785Z</time>
      </trkpt>
      <trkpt lat="39.54309333" lon="2.591415">
        <ele>18.0</ele>
        <time>2022-05-14T11:04:51.785Z</time>
      </trkpt>
      <trkpt lat="39.54308333" lon="2.59138167">
        <ele>18.0</ele>
        <time>2022-05-14T11:04:52.785Z</time>
      </trkpt>
      <trkpt lat="39.54303833" lon="2.59119333">
        <ele>19.0</ele>
        <time>2022-05-14T11:06:16.332Z</time>
      </trkpt>
      <trkpt lat="39.54303833" lon="2.59119167">
        <ele>19.0</ele>
        <time>2022-05-14T11:06:17.332Z</time>
      </trkpt>
      <trkpt lat="39.54303833" lon="2.59119167">
        <ele>19.0</ele>
        <time>2022-05-14T11:06:18.332Z</time>
      </trkpt>
      <trkpt lat="39.54303667" lon="2.59118333">
        <ele>19.0</ele>
        <time>2022-05-14T11:06:19.332Z</time>
      </trkpt>
      <trkpt lat="39.54303167" lon="2.591145">
        <ele>19.0</ele>
        <time>2022-05-14T11:06:20.332Z</time>
      </trkpt>
      <trkpt lat="39.54302167" lon="2.59110833">
        <ele>19.0</ele>
        <time>2022-05-14T11:06:21.332Z</time>
      </trkpt>
      <trkpt lat="39.54301" lon="2.59106667">
        <ele>19.0</ele>
        <time>2022-05-14T11:06:22.332Z</time>
      </trkpt>
      <trkpt lat="39.543" lon="2.59102">
        <ele>19.0</ele>
        <time>2022-05-14T11:06:23.332Z</time>
      </trkpt>
      <trkpt lat="39.54299167" lon="2.59097">
        <ele>19.0</ele>
        <time>2022-05-14T11:06:24.332Z</time>
      </trkpt>
      <trkpt lat="39.54298667" lon="2.59092">
        <ele>18.0</ele>
        <time>2022-05-14T11:06:25.332Z</time>
      </trkpt>
      <trkpt lat="39.54298667" lon="2.59087">
        <ele>18.0</ele>
        <time>2022-05-14T11:06:26.331Z</time>
      </trkpt>
      <trkpt lat="39.54298333" lon="2.59082">
        <ele>18.0</ele>
        <time>2022-05-14T11:06:27.332Z</time>
      </trkpt>
      <trkpt lat="39.54297833" lon="2.59076833">
        <ele>18.0</ele>
        <time>2022-05-14T11:06:28.332Z</time>
      </trkpt>
      <trkpt lat="39.542975" lon="2.59072667">
        <ele>18.0</ele>
        <time>2022-05-14T11:06:29.332Z</time>
      </trkpt>
      <trkpt lat="39.54297167" lon="2.59068833">
        <ele>18.0</ele>
        <time>2022-05-14T11:06:30.332Z</time>
      </trkpt>
      <trkpt lat="39.54296833" lon="2.59065">
        <ele>18.0</ele>
        <time>2022-05-14T11:06:31.331Z</time>
      </trkpt>
      <trkpt lat="39.542965" lon="2.59061">
        <ele>19.0</ele>
        <time>2022-05-14T11:06:32.332Z</time>
      </trkpt>
      <trkpt lat="39.54296333" lon="2.59057">
        <ele>20.0</ele>
        <time>2022-05-14T11:06:33.332Z</time>
      </trkpt>
      <trkpt lat="39.542965" lon="2.59053167">
        <ele>20.0</ele>
        <time>2022-05-14T11:06:34.331Z</time>
      </trkpt>
      <trkpt lat="39.542965" lon="2.59049333">
        <ele>21.0</ele>
        <time>2022-05-14T11:06:35.332Z</time>
      </trkpt>
      <trkpt lat="39.54296333" lon="2.59045">
        <ele>21.0</ele>
        <time>2022-05-14T11:06:36.332Z</time>
      </trkpt>
      <trkpt lat="39.54296167" lon="2.590405">
        <ele>22.0</ele>
        <time>2022-05-14T11:06:37.332Z</time>
      </trkpt>
      <trkpt lat="39.54296167" lon="2.59035833">
        <ele>22.0</ele>
        <time>2022-05-14T11:06:38.332Z</time>
      </trkpt>
      <trkpt lat="39.54296167" lon="2.59031">
        <ele>22.0</ele>
        <time>2022-05-14T11:06:39.332Z</time>
      </trkpt>
      <trkpt lat="39.54296167" lon="2.59025833">
        <ele>21.0</ele>
        <time>2022-05-14T11:06:40.331Z</time>
      </trkpt>
      <trkpt lat="39.54296167" lon="2.59021333">
        <ele>21.0</ele>
        <time>2022-05-14T11:06:41.332Z</time>
      </trkpt>
      <trkpt lat="39.54296333" lon="2.59016667">
        <ele>21.0</ele>
        <time>2022-05-14T11:06:42.331Z</time>
      </trkpt>
      <trkpt lat="39.542965" lon="2.59011833">
        <ele>21.0</ele>
        <time>2022-05-14T11:06:43.332Z</time>
      </trkpt>
      <trkpt lat="39.542965" lon="2.59006667">
        <ele>21.0</ele>
        <time>2022-05-14T11:06:44.332Z</time>
      </trkpt>
      <trkpt lat="39.54296667" lon="2.59001833">
        <ele>21.0</ele>
        <time>2022-05-14T11:06:45.332Z</time>
      </trkpt>
      <trkpt lat="39.54296833" lon="2.58996833">
        <ele>21.0</ele>
        <time>2022-05-14T11:06:46.331Z</time>
      </trkpt>
      <trkpt lat="39.54297" lon="2.58992">
        <ele>20.0</ele>
        <time>2022-05-14T11:06:47.332Z</time>
      </trkpt>
      <trkpt lat="39.54297" lon="2.589875">
        <ele>20.0</ele>
        <time>2022-05-14T11:06:48.332Z</time>
      </trkpt>
      <trkpt lat="39.54297" lon="2.58983167">
        <ele>20.0</ele>
        <time>2022-05-14T11:06:49.332Z</time>
      </trkpt>
      <trkpt lat="39.54297167" lon="2.58978667">
        <ele>20.0</ele>
        <time>2022-05-14T11:06:50.332Z</time>
      </trkpt>
      <trkpt lat="39.54297333" lon="2.58974">
        <ele>20.0</ele>
        <time>2022-05-14T11:06:51.332Z</time>
      </trkpt>
      <trkpt lat="39.54297167" lon="2.58968833">
        <ele>20.0</ele>
        <time>2022-05-14T11:06:52.332Z</time>
      </trkpt>
      <trkpt lat="39.54297167" lon="2.58964333">
        <ele>20.0</ele>
        <time>2022-05-14T11:06:53.332Z</time>
      </trkpt>
      <trkpt lat="39.54297333" lon="2.58960167">
        <ele>20.0</ele>
        <time>2022-05-14T11:06:54.332Z</time>
      </trkpt>
      <trkpt lat="39.54297167" lon="2.58955667">
        <ele>20.0</ele>
        <time>2022-05-14T11:06:55.332Z</time>
      </trkpt>
      <trkpt lat="39.54297" lon="2.58951333">
        <ele>20.0</ele>
        <time>2022-05-14T11:06:56.332Z</time>
      </trkpt>
      <trkpt lat="39.54296667" lon="2.58946667">
        <ele>20.0</ele>
        <time>2022-05-14T11:06:57.332Z</time>
      </trkpt>
      <trkpt lat="39.54296" lon="2.58942167">
        <ele>20.0</ele>
        <time>2022-05-14T11:06:58.332Z</time>
      </trkpt>
      <trkpt lat="39.54295333" lon="2.589375">
        <ele>21.0</ele>
        <time>2022-05-14T11:06:59.332Z</time>
      </trkpt>
      <trkpt lat="39.54294667" lon="2.58933167">
        <ele>21.0</ele>
        <time>2022-05-14T11:07:00.332Z</time>
      </trkpt>
      <trkpt lat="39.54294667" lon="2.589285">
        <ele>21.0</ele>
        <time>2022-05-14T11:07:01.331Z</time>
      </trkpt>
      <trkpt lat="39.54294833" lon="2.58924167">
        <ele>21.0</ele>
        <time>2022-05-14T11:07:02.332Z</time>
      </trkpt>
      <trkpt lat="39.54294833" lon="2.58919667">
        <ele>22.0</ele>
        <time>2022-05-14T11:07:03.332Z</time>
      </trkpt>
      <trkpt lat="39.54295" lon="2.589155">
        <ele>22.0</ele>
        <time>2022-05-14T11:07:04.332Z</time>
      </trkpt>
      <trkpt lat="39.54295167" lon="2.58911167">
        <ele>22.0</ele>
        <time>2022-05-14T11:07:05.332Z</time>
      </trkpt>
      <trkpt lat="39.542955" lon="2.58906833">
        <ele>23.0</ele>
        <time>2022-05-14T11:07:06.331Z</time>
      </trkpt>
      <trkpt lat="39.54296167" lon="2.58903167">
        <ele>23.0</ele>
        <time>2022-05-14T11:07:07.332Z</time>
      </trkpt>
      <trkpt lat="39.54296833" lon="2.58899667">
        <ele>23.0</ele>
        <time>2022-05-14T11:07:08.332Z</time>
      </trkpt>
      <trkpt lat="39.54297333" lon="2.58895667">
        <ele>23.0</ele>
        <time>2022-05-14T11:07:09.332Z</time>
      </trkpt>
      <trkpt lat="39.542975" lon="2.58891667">
        <ele>23.0</ele>
        <time>2022-05-14T11:07:10.332Z</time>
      </trkpt>
      <trkpt lat="39.54297667" lon="2.58888">
        <ele>23.0</ele>
        <time>2022-05-14T11:07:11.331Z</time>
      </trkpt>
      <trkpt lat="39.54297833" lon="2.58884833">
        <ele>23.0</ele>
        <time>2022-05-14T11:07:12.332Z</time>
      </trkpt>
      <trkpt lat="39.54298" lon="2.588815">
        <ele>23.0</ele>
        <time>2022-05-14T11:07:13.332Z</time>
      </trkpt>
      <trkpt lat="39.54298167" lon="2.58878333">
        <ele>23.0</ele>
        <time>2022-05-14T11:07:14.332Z</time>
      </trkpt>
      <trkpt lat="39.54298333" lon="2.58874333">
        <ele>23.0</ele>
        <time>2022-05-14T11:07:15.332Z</time>
      </trkpt>
      <trkpt lat="39.542985" lon="2.58870333">
        <ele>23.0</ele>
        <time>2022-05-14T11:07:16.332Z</time>
      </trkpt>
      <trkpt lat="39.54298333" lon="2.58866333">
        <ele>23.0</ele>
        <time>2022-05-14T11:07:17.332Z</time>
      </trkpt>
      <trkpt lat="39.54298833" lon="2.58863">
        <ele>23.0</ele>
        <time>2022-05-14T11:07:18.332Z</time>
      </trkpt>
      <trkpt lat="39.54299" lon="2.58859333">
        <ele>23.0</ele>
        <time>2022-05-14T11:07:19.332Z</time>
      </trkpt>
      <trkpt lat="39.54299" lon="2.58855667">
        <ele>23.0</ele>
        <time>2022-05-14T11:07:20.332Z</time>
      </trkpt>
      <trkpt lat="39.54299" lon="2.58851833">
        <ele>24.0</ele>
        <time>2022-05-14T11:07:21.332Z</time>
      </trkpt>
      <trkpt lat="39.54299167" lon="2.58848">
        <ele>24.0</ele>
        <time>2022-05-14T11:07:22.332Z</time>
      </trkpt>
      <trkpt lat="39.54299333" lon="2.58844">
        <ele>24.0</ele>
        <time>2022-05-14T11:07:23.332Z</time>
      </trkpt>
      <trkpt lat="39.54298833" lon="2.58839667">
        <ele>24.0</ele>
        <time>2022-05-14T11:07:24.332Z</time>
      </trkpt>
      <trkpt lat="39.54298833" lon="2.588355">
        <ele>24.0</ele>
        <time>2022-05-14T11:07:25.332Z</time>
      </trkpt>
      <trkpt lat="39.54298833" lon="2.588315">
        <ele>24.0</ele>
        <time>2022-05-14T11:07:26.332Z</time>
      </trkpt>
      <trkpt lat="39.54298667" lon="2.58827167">
        <ele>24.0</ele>
        <time>2022-05-14T11:07:27.332Z</time>
      </trkpt>
      <trkpt lat="39.54298833" lon="2.58823333">
        <ele>24.0</ele>
        <time>2022-05-14T11:07:28.332Z</time>
      </trkpt>
      <trkpt lat="39.54298833" lon="2.58819333">
        <ele>24.0</ele>
        <time>2022-05-14T11:07:29.332Z</time>
      </trkpt>
      <trkpt lat="39.54299333" lon="2.58816">
        <ele>24.0</ele>
        <time>2022-05-14T11:07:30.332Z</time>
      </trkpt>
      <trkpt lat="39.542995" lon="2.58812167">
        <ele>24.0</ele>
        <time>2022-05-14T11:07:31.331Z</time>
      </trkpt>
      <trkpt lat="39.54299333" lon="2.58808333">
        <ele>24.0</ele>
        <time>2022-05-14T11:07:32.331Z</time>
      </trkpt>
      <trkpt lat="39.54299333" lon="2.58804667">
        <ele>24.0</ele>
        <time>2022-05-14T11:07:33.332Z</time>
      </trkpt>
      <trkpt lat="39.54299167" lon="2.58800667">
        <ele>23.0</ele>
        <time>2022-05-14T11:07:34.332Z</time>
      </trkpt>
      <trkpt lat="39.54299167" lon="2.58796833">
        <ele>23.0</ele>
        <time>2022-05-14T11:07:35.332Z</time>
      </trkpt>
      <trkpt lat="39.54299" lon="2.58793">
        <ele>24.0</ele>
        <time>2022-05-14T11:07:36.331Z</time>
      </trkpt>
      <trkpt lat="39.54299" lon="2.58789333">
        <ele>24.0</ele>
        <time>2022-05-14T11:07:37.332Z</time>
      </trkpt>
      <trkpt lat="39.54298833" lon="2.58785667">
        <ele>24.0</ele>
        <time>2022-05-14T11:07:38.332Z</time>
      </trkpt>
      <trkpt lat="39.54299" lon="2.58781833">
        <ele>24.0</ele>
        <time>2022-05-14T11:07:39.332Z</time>
      </trkpt>
      <trkpt lat="39.54299" lon="2.587785">
        <ele>24.0</ele>
        <time>2022-05-14T11:07:40.332Z</time>
      </trkpt>
      <trkpt lat="39.54299167" lon="2.58775">
        <ele>24.0</ele>
        <time>2022-05-14T11:07:41.332Z</time>
      </trkpt>
      <trkpt lat="39.54299167" lon="2.58771667">
        <ele>24.0</ele>
        <time>2022-05-14T11:07:42.331Z</time>
      </trkpt>
      <trkpt lat="39.54299333" lon="2.58767833">
        <ele>24.0</ele>
        <time>2022-05-14T11:07:43.332Z</time>
      </trkpt>
      <trkpt lat="39.54299333" lon="2.58764333">
        <ele>24.0</ele>
        <time>2022-05-14T11:07:44.332Z</time>
      </trkpt>
      <trkpt lat="39.54299667" lon="2.58761">
        <ele>24.0</ele>
        <time>2022-05-14T11:07:45.332Z</time>
      </trkpt>
      <trkpt lat="39.54299833" lon="2.587575">
        <ele>24.0</ele>
        <time>2022-05-14T11:07:46.332Z</time>
      </trkpt>
      <trkpt lat="39.54299833" lon="2.58754">
        <ele>24.0</ele>
        <time>2022-05-14T11:07:47.332Z</time>
      </trkpt>
      <trkpt lat="39.54300167" lon="2.58750833">
        <ele>23.0</ele>
        <time>2022-05-14T11:07:48.332Z</time>
      </trkpt>
      <trkpt lat="39.54300333" lon="2.587475">
        <ele>23.0</ele>
        <time>2022-05-14T11:07:49.332Z</time>
      </trkpt>
      <trkpt lat="39.54300667" lon="2.58744333">
        <ele>22.0</ele>
        <time>2022-05-14T11:07:50.331Z</time>
      </trkpt>
      <trkpt lat="39.54301" lon="2.58741">
        <ele>22.0</ele>
        <time>2022-05-14T11:07:51.332Z</time>
      </trkpt>
      <trkpt lat="39.543015" lon="2.58738333">
        <ele>21.0</ele>
        <time>2022-05-14T11:07:52.332Z</time>
      </trkpt>
      <trkpt lat="39.54301833" lon="2.58735">
        <ele>21.0</ele>
        <time>2022-05-14T11:07:53.332Z</time>
      </trkpt>
      <trkpt lat="39.54302" lon="2.58731333">
        <ele>21.0</ele>
        <time>2022-05-14T11:07:54.331Z</time>
      </trkpt>
      <trkpt lat="39.54302" lon="2.58727833">
        <ele>21.0</ele>
        <time>2022-05-14T11:07:55.332Z</time>
      </trkpt>
      <trkpt lat="39.54302" lon="2.587245">
        <ele>22.0</ele>
        <time>2022-05-14T11:07:56.331Z</time>
      </trkpt>
      <trkpt lat="39.54302167" lon="2.58721333">
        <ele>22.0</ele>
        <time>2022-05-14T11:07:57.331Z</time>
      </trkpt>
      <trkpt lat="39.54302333" lon="2.58718167">
        <ele>23.0</ele>
        <time>2022-05-14T11:07:58.332Z</time>
      </trkpt>
      <trkpt lat="39.54302333" lon="2.587155">
        <ele>23.0</ele>
        <time>2022-05-14T11:07:59.331Z</time>
      </trkpt>
      <trkpt lat="39.54302333" lon="2.58712333">
        <ele>24.0</ele>
        <time>2022-05-14T11:08:00.332Z</time>
      </trkpt>
      <trkpt lat="39.543025" lon="2.58709167">
        <ele>25.0</ele>
        <time>2022-05-14T11:08:01.331Z</time>
      </trkpt>
      <trkpt lat="39.54302667" lon="2.587055">
        <ele>25.0</ele>
        <time>2022-05-14T11:08:02.332Z</time>
      </trkpt>
      <trkpt lat="39.54303" lon="2.58701833">
        <ele>25.0</ele>
        <time>2022-05-14T11:08:03.332Z</time>
      </trkpt>
      <trkpt lat="39.54303167" lon="2.58698333">
        <ele>25.0</ele>
        <time>2022-05-14T11:08:04.332Z</time>
      </trkpt>
      <trkpt lat="39.54303333" lon="2.58695">
        <ele>25.0</ele>
        <time>2022-05-14T11:08:05.332Z</time>
      </trkpt>
      <trkpt lat="39.54303333" lon="2.58691167">
        <ele>26.0</ele>
        <time>2022-05-14T11:08:06.332Z</time>
      </trkpt>
      <trkpt lat="39.543035" lon="2.58687833">
        <ele>26.0</ele>
        <time>2022-05-14T11:08:07.332Z</time>
      </trkpt>
      <trkpt lat="39.54303333" lon="2.58684833">
        <ele>26.0</ele>
        <time>2022-05-14T11:08:08.332Z</time>
      </trkpt>
      <trkpt lat="39.54303" lon="2.58682167">
        <ele>27.0</ele>
        <time>2022-05-14T11:08:09.332Z</time>
      </trkpt>
      <trkpt lat="39.54302333" lon="2.586795">
        <ele>28.0</ele>
        <time>2022-05-14T11:08:10.332Z</time>
      </trkpt>
      <trkpt lat="39.54301333" lon="2.58676333">
        <ele>29.0</ele>
        <time>2022-05-14T11:08:11.332Z</time>
      </trkpt>
      <trkpt lat="39.54300333" lon="2.58673167">
        <ele>29.0</ele>
        <time>2022-05-14T11:08:12.332Z</time>
      </trkpt>
      <trkpt lat="39.543" lon="2.5867">
        <ele>30.0</ele>
        <time>2022-05-14T11:08:13.332Z</time>
      </trkpt>
      <trkpt lat="39.543" lon="2.58666667">
        <ele>31.0</ele>
        <time>2022-05-14T11:08:14.332Z</time>
      </trkpt>
      <trkpt lat="39.54299833" lon="2.58663333">
        <ele>32.0</ele>
        <time>2022-05-14T11:08:15.332Z</time>
      </trkpt>
      <trkpt lat="39.542995" lon="2.58660667">
        <ele>32.0</ele>
        <time>2022-05-14T11:08:16.332Z</time>
      </trkpt>
      <trkpt lat="39.54298833" lon="2.58657833">
        <ele>32.0</ele>
        <time>2022-05-14T11:08:17.332Z</time>
      </trkpt>
      <trkpt lat="39.54298" lon="2.58654833">
        <ele>31.0</ele>
        <time>2022-05-14T11:08:18.332Z</time>
      </trkpt>
      <trkpt lat="39.54297167" lon="2.58652">
        <ele>31.0</ele>
        <time>2022-05-14T11:08:19.332Z</time>
      </trkpt>
      <trkpt lat="39.542965" lon="2.58649">
        <ele>31.0</ele>
        <time>2022-05-14T11:08:20.332Z</time>
      </trkpt>
      <trkpt lat="39.54296333" lon="2.58645833">
        <ele>31.0</ele>
        <time>2022-05-14T11:08:21.332Z</time>
      </trkpt>
      <trkpt lat="39.54296333" lon="2.58643">
        <ele>31.0</ele>
        <time>2022-05-14T11:08:22.332Z</time>
      </trkpt>
      <trkpt lat="39.542965" lon="2.58639833">
        <ele>31.0</ele>
        <time>2022-05-14T11:08:23.332Z</time>
      </trkpt>
      <trkpt lat="39.54296667" lon="2.58636833">
        <ele>31.0</ele>
        <time>2022-05-14T11:08:24.332Z</time>
      </trkpt>
      <trkpt lat="39.54296667" lon="2.586335">
        <ele>32.0</ele>
        <time>2022-05-14T11:08:25.332Z</time>
      </trkpt>
      <trkpt lat="39.54297167" lon="2.58630833">
        <ele>32.0</ele>
        <time>2022-05-14T11:08:26.332Z</time>
      </trkpt>
      <trkpt lat="39.54298167" lon="2.586285">
        <ele>33.0</ele>
        <time>2022-05-14T11:08:27.332Z</time>
      </trkpt>
      <trkpt lat="39.54299" lon="2.58626167">
        <ele>33.0</ele>
        <time>2022-05-14T11:08:28.332Z</time>
      </trkpt>
      <trkpt lat="39.54299833" lon="2.586235">
        <ele>33.0</ele>
        <time>2022-05-14T11:08:29.332Z</time>
      </trkpt>
      <trkpt lat="39.543005" lon="2.58621">
        <ele>34.0</ele>
        <time>2022-05-14T11:08:30.332Z</time>
      </trkpt>
      <trkpt lat="39.54301333" lon="2.586185">
        <ele>34.0</ele>
        <time>2022-05-14T11:08:31.332Z</time>
      </trkpt>
      <trkpt lat="39.54302167" lon="2.58615833">
        <ele>34.0</ele>
        <time>2022-05-14T11:08:32.332Z</time>
      </trkpt>
      <trkpt lat="39.543025" lon="2.58613167">
        <ele>34.0</ele>
        <time>2022-05-14T11:08:33.332Z</time>
      </trkpt>
      <trkpt lat="39.54302833" lon="2.586105">
        <ele>33.0</ele>
        <time>2022-05-14T11:08:34.332Z</time>
      </trkpt>
      <trkpt lat="39.54303167" lon="2.58607833">
        <ele>34.0</ele>
        <time>2022-05-14T11:08:35.332Z</time>
      </trkpt>
      <trkpt lat="39.54303667" lon="2.58605">
        <ele>34.0</ele>
        <time>2022-05-14T11:08:36.332Z</time>
      </trkpt>
      <trkpt lat="39.54304" lon="2.58602">
        <ele>35.0</ele>
        <time>2022-05-14T11:08:37.332Z</time>
      </trkpt>
      <trkpt lat="39.543045" lon="2.58598833">
        <ele>36.0</ele>
        <time>2022-05-14T11:08:38.332Z</time>
      </trkpt>
      <trkpt lat="39.54304833" lon="2.58595333">
        <ele>37.0</ele>
        <time>2022-05-14T11:08:39.332Z</time>
      </trkpt>
      <trkpt lat="39.54305" lon="2.58592333">
        <ele>37.0</ele>
        <time>2022-05-14T11:08:40.332Z</time>
      </trkpt>
      <trkpt lat="39.54305" lon="2.58589167">
        <ele>38.0</ele>
        <time>2022-05-14T11:08:41.332Z</time>
      </trkpt>
      <trkpt lat="39.54304833" lon="2.58586">
        <ele>38.0</ele>
        <time>2022-05-14T11:08:42.332Z</time>
      </trkpt>
      <trkpt lat="39.54304333" lon="2.58582667">
        <ele>38.0</ele>
        <time>2022-05-14T11:08:43.332Z</time>
      </trkpt>
      <trkpt lat="39.54304" lon="2.585795">
        <ele>37.0</ele>
        <time>2022-05-14T11:08:44.332Z</time>
      </trkpt>
      <trkpt lat="39.54303667" lon="2.585765">
        <ele>37.0</ele>
        <time>2022-05-14T11:08:45.332Z</time>
      </trkpt>
      <trkpt lat="39.54303333" lon="2.58573333">
        <ele>37.0</ele>
        <time>2022-05-14T11:08:46.332Z</time>
      </trkpt>
      <trkpt lat="39.54303" lon="2.585705">
        <ele>37.0</ele>
        <time>2022-05-14T11:08:47.332Z</time>
      </trkpt>
      <trkpt lat="39.543025" lon="2.585675">
        <ele>37.0</ele>
        <time>2022-05-14T11:08:48.332Z</time>
      </trkpt>
      <trkpt lat="39.54302167" lon="2.58564333">
        <ele>37.0</ele>
        <time>2022-05-14T11:08:49.332Z</time>
      </trkpt>
      <trkpt lat="39.54301667" lon="2.58561167">
        <ele>38.0</ele>
        <time>2022-05-14T11:08:50.332Z</time>
      </trkpt>
      <trkpt lat="39.54301" lon="2.58558">
        <ele>38.0</ele>
        <time>2022-05-14T11:08:51.332Z</time>
      </trkpt>
      <trkpt lat="39.54300167" lon="2.585545">
        <ele>38.0</ele>
        <time>2022-05-14T11:08:52.332Z</time>
      </trkpt>
      <trkpt lat="39.54299333" lon="2.58551167">
        <ele>38.0</ele>
        <time>2022-05-14T11:08:53.332Z</time>
      </trkpt>
      <trkpt lat="39.54298333" lon="2.58547667">
        <ele>39.0</ele>
        <time>2022-05-14T11:08:54.332Z</time>
      </trkpt>
      <trkpt lat="39.54297167" lon="2.585445">
        <ele>40.0</ele>
        <time>2022-05-14T11:08:55.331Z</time>
      </trkpt>
      <trkpt lat="39.54296333" lon="2.58541833">
        <ele>41.0</ele>
        <time>2022-05-14T11:08:56.332Z</time>
      </trkpt>
      <trkpt lat="39.54295333" lon="2.58539">
        <ele>41.0</ele>
        <time>2022-05-14T11:08:57.332Z</time>
      </trkpt>
      <trkpt lat="39.54294333" lon="2.585365">
        <ele>41.0</ele>
        <time>2022-05-14T11:08:58.332Z</time>
      </trkpt>
      <trkpt lat="39.542935" lon="2.58533833">
        <ele>41.0</ele>
        <time>2022-05-14T11:08:59.332Z</time>
      </trkpt>
      <trkpt lat="39.542925" lon="2.58531167">
        <ele>40.0</ele>
        <time>2022-05-14T11:09:00.332Z</time>
      </trkpt>
      <trkpt lat="39.542915" lon="2.58528667">
        <ele>40.0</ele>
        <time>2022-05-14T11:09:01.331Z</time>
      </trkpt>
      <trkpt lat="39.54290333" lon="2.58526333">
        <ele>39.0</ele>
        <time>2022-05-14T11:09:02.332Z</time>
      </trkpt>
      <trkpt lat="39.54289167" lon="2.58523833">
        <ele>39.0</ele>
        <time>2022-05-14T11:09:03.332Z</time>
      </trkpt>
      <trkpt lat="39.54288" lon="2.58521333">
        <ele>39.0</ele>
        <time>2022-05-14T11:09:04.331Z</time>
      </trkpt>
      <trkpt lat="39.542865" lon="2.58519167">
        <ele>40.0</ele>
        <time>2022-05-14T11:09:05.332Z</time>
      </trkpt>
      <trkpt lat="39.54284833" lon="2.58516833">
        <ele>40.0</ele>
        <time>2022-05-14T11:09:06.331Z</time>
      </trkpt>
      <trkpt lat="39.54283333" lon="2.58514667">
        <ele>41.0</ele>
        <time>2022-05-14T11:09:07.331Z</time>
      </trkpt>
      <trkpt lat="39.54282" lon="2.58512333">
        <ele>41.0</ele>
        <time>2022-05-14T11:09:08.331Z</time>
      </trkpt>
      <trkpt lat="39.542805" lon="2.5851">
        <ele>42.0</ele>
        <time>2022-05-14T11:09:09.331Z</time>
      </trkpt>
      <trkpt lat="39.54279" lon="2.58507667">
        <ele>42.0</ele>
        <time>2022-05-14T11:09:10.331Z</time>
      </trkpt>
      <trkpt lat="39.54277333" lon="2.58505667">
        <ele>42.0</ele>
        <time>2022-05-14T11:09:11.332Z</time>
      </trkpt>
      <trkpt lat="39.54276" lon="2.58503667">
        <ele>42.0</ele>
        <time>2022-05-14T11:09:12.332Z</time>
      </trkpt>
      <trkpt lat="39.54274333" lon="2.58501833">
        <ele>42.0</ele>
        <time>2022-05-14T11:09:13.332Z</time>
      </trkpt>
      <trkpt lat="39.54272667" lon="2.58499833">
        <ele>43.0</ele>
        <time>2022-05-14T11:09:14.332Z</time>
      </trkpt>
      <trkpt lat="39.54271" lon="2.58498167">
        <ele>43.0</ele>
        <time>2022-05-14T11:09:15.332Z</time>
      </trkpt>
      <trkpt lat="39.542695" lon="2.584965">
        <ele>43.0</ele>
        <time>2022-05-14T11:09:16.332Z</time>
      </trkpt>
      <trkpt lat="39.542675" lon="2.58494667">
        <ele>43.0</ele>
        <time>2022-05-14T11:09:17.332Z</time>
      </trkpt>
      <trkpt lat="39.54265667" lon="2.58492667">
        <ele>43.0</ele>
        <time>2022-05-14T11:09:18.332Z</time>
      </trkpt>
      <trkpt lat="39.54263833" lon="2.58490833">
        <ele>43.0</ele>
        <time>2022-05-14T11:09:19.331Z</time>
      </trkpt>
      <trkpt lat="39.54261833" lon="2.584895">
        <ele>44.0</ele>
        <time>2022-05-14T11:09:20.331Z</time>
      </trkpt>
      <trkpt lat="39.54259833" lon="2.58487667">
        <ele>44.0</ele>
        <time>2022-05-14T11:09:21.331Z</time>
      </trkpt>
      <trkpt lat="39.54258" lon="2.58485833">
        <ele>45.0</ele>
        <time>2022-05-14T11:09:22.332Z</time>
      </trkpt>
      <trkpt lat="39.54255833" lon="2.58484">
        <ele>45.0</ele>
        <time>2022-05-14T11:09:23.332Z</time>
      </trkpt>
      <trkpt lat="39.54253833" lon="2.58482167">
        <ele>45.0</ele>
        <time>2022-05-14T11:09:24.332Z</time>
      </trkpt>
      <trkpt lat="39.54251667" lon="2.584805">
        <ele>45.0</ele>
        <time>2022-05-14T11:09:25.332Z</time>
      </trkpt>
      <trkpt lat="39.54249833" lon="2.58479">
        <ele>45.0</ele>
        <time>2022-05-14T11:09:26.332Z</time>
      </trkpt>
      <trkpt lat="39.54248" lon="2.58477667">
        <ele>44.0</ele>
        <time>2022-05-14T11:09:27.332Z</time>
      </trkpt>
      <trkpt lat="39.54246167" lon="2.58476333">
        <ele>43.0</ele>
        <time>2022-05-14T11:09:28.331Z</time>
      </trkpt>
      <trkpt lat="39.54244167" lon="2.58475167">
        <ele>43.0</ele>
        <time>2022-05-14T11:09:29.332Z</time>
      </trkpt>
      <trkpt lat="39.54242167" lon="2.58474667">
        <ele>43.0</ele>
        <time>2022-05-14T11:09:30.332Z</time>
      </trkpt>
      <trkpt lat="39.54240167" lon="2.58474">
        <ele>43.0</ele>
        <time>2022-05-14T11:09:31.332Z</time>
      </trkpt>
      <trkpt lat="39.54238" lon="2.58472833">
        <ele>44.0</ele>
        <time>2022-05-14T11:09:32.332Z</time>
      </trkpt>
      <trkpt lat="39.54236" lon="2.58471167">
        <ele>44.0</ele>
        <time>2022-05-14T11:09:33.332Z</time>
      </trkpt>
      <trkpt lat="39.54234" lon="2.58469167">
        <ele>45.0</ele>
        <time>2022-05-14T11:09:34.331Z</time>
      </trkpt>
      <trkpt lat="39.54232333" lon="2.58467167">
        <ele>46.0</ele>
        <time>2022-05-14T11:09:35.332Z</time>
      </trkpt>
      <trkpt lat="39.54230833" lon="2.58465">
        <ele>46.0</ele>
        <time>2022-05-14T11:09:36.332Z</time>
      </trkpt>
      <trkpt lat="39.54229667" lon="2.584635">
        <ele>46.0</ele>
        <time>2022-05-14T11:09:37.332Z</time>
      </trkpt>
      <trkpt lat="39.54227833" lon="2.58462">
        <ele>46.0</ele>
        <time>2022-05-14T11:09:38.332Z</time>
      </trkpt>
      <trkpt lat="39.54226167" lon="2.58460833">
        <ele>46.0</ele>
        <time>2022-05-14T11:09:39.332Z</time>
      </trkpt>
      <trkpt lat="39.54224167" lon="2.58459667">
        <ele>46.0</ele>
        <time>2022-05-14T11:09:40.332Z</time>
      </trkpt>
      <trkpt lat="39.54222167" lon="2.584585">
        <ele>47.0</ele>
        <time>2022-05-14T11:09:41.331Z</time>
      </trkpt>
      <trkpt lat="39.5422" lon="2.58457167">
        <ele>47.0</ele>
        <time>2022-05-14T11:09:42.332Z</time>
      </trkpt>
      <trkpt lat="39.54217833" lon="2.58456">
        <ele>47.0</ele>
        <time>2022-05-14T11:09:43.332Z</time>
      </trkpt>
      <trkpt lat="39.54215667" lon="2.58454833">
        <ele>48.0</ele>
        <time>2022-05-14T11:09:44.332Z</time>
      </trkpt>
      <trkpt lat="39.54213167" lon="2.58454">
        <ele>48.0</ele>
        <time>2022-05-14T11:09:45.331Z</time>
      </trkpt>
      <trkpt lat="39.54210667" lon="2.58452667">
        <ele>48.0</ele>
        <time>2022-05-14T11:09:46.332Z</time>
      </trkpt>
      <trkpt lat="39.54208667" lon="2.58451167">
        <ele>48.0</ele>
        <time>2022-05-14T11:09:47.332Z</time>
      </trkpt>
      <trkpt lat="39.542065" lon="2.58450333">
        <ele>47.0</ele>
        <time>2022-05-14T11:09:48.331Z</time>
      </trkpt>
      <trkpt lat="39.54204167" lon="2.58449">
        <ele>47.0</ele>
        <time>2022-05-14T11:09:49.332Z</time>
      </trkpt>
      <trkpt lat="39.54201833" lon="2.58447333">
        <ele>47.0</ele>
        <time>2022-05-14T11:09:50.331Z</time>
      </trkpt>
      <trkpt lat="39.54199667" lon="2.58445833">
        <ele>46.0</ele>
        <time>2022-05-14T11:09:51.332Z</time>
      </trkpt>
      <trkpt lat="39.54197167" lon="2.58444333">
        <ele>46.0</ele>
        <time>2022-05-14T11:09:52.332Z</time>
      </trkpt>
      <trkpt lat="39.541945" lon="2.58442833">
        <ele>45.0</ele>
        <time>2022-05-14T11:09:53.332Z</time>
      </trkpt>
      <trkpt lat="39.54192167" lon="2.58441167">
        <ele>45.0</ele>
        <time>2022-05-14T11:09:54.332Z</time>
      </trkpt>
      <trkpt lat="39.54189833" lon="2.584395">
        <ele>44.0</ele>
        <time>2022-05-14T11:09:55.332Z</time>
      </trkpt>
      <trkpt lat="39.54187833" lon="2.58438">
        <ele>44.0</ele>
        <time>2022-05-14T11:09:56.332Z</time>
      </trkpt>
      <trkpt lat="39.54185667" lon="2.58437">
        <ele>44.0</ele>
        <time>2022-05-14T11:09:57.331Z</time>
      </trkpt>
      <trkpt lat="39.54183667" lon="2.58435833">
        <ele>44.0</ele>
        <time>2022-05-14T11:09:58.332Z</time>
      </trkpt>
      <trkpt lat="39.54181667" lon="2.58434333">
        <ele>43.0</ele>
        <time>2022-05-14T11:09:59.331Z</time>
      </trkpt>
      <trkpt lat="39.54179667" lon="2.584325">
        <ele>43.0</ele>
        <time>2022-05-14T11:10:00.332Z</time>
      </trkpt>
      <trkpt lat="39.54177333" lon="2.584305">
        <ele>43.0</ele>
        <time>2022-05-14T11:10:01.332Z</time>
      </trkpt>
      <trkpt lat="39.54175" lon="2.58428833">
        <ele>43.0</ele>
        <time>2022-05-14T11:10:02.332Z</time>
      </trkpt>
      <trkpt lat="39.54172167" lon="2.58427">
        <ele>43.0</ele>
        <time>2022-05-14T11:10:03.332Z</time>
      </trkpt>
      <trkpt lat="39.54169333" lon="2.58425167">
        <ele>42.0</ele>
        <time>2022-05-14T11:10:04.332Z</time>
      </trkpt>
      <trkpt lat="39.54166833" lon="2.58423333">
        <ele>42.0</ele>
        <time>2022-05-14T11:10:05.331Z</time>
      </trkpt>
      <trkpt lat="39.54164167" lon="2.58421333">
        <ele>42.0</ele>
        <time>2022-05-14T11:10:06.332Z</time>
      </trkpt>
      <trkpt lat="39.541615" lon="2.58419333">
        <ele>42.0</ele>
        <time>2022-05-14T11:10:07.332Z</time>
      </trkpt>
      <trkpt lat="39.54158833" lon="2.58417333">
        <ele>42.0</ele>
        <time>2022-05-14T11:10:08.332Z</time>
      </trkpt>
      <trkpt lat="39.54155833" lon="2.58415333">
        <ele>42.0</ele>
        <time>2022-05-14T11:10:09.332Z</time>
      </trkpt>
      <trkpt lat="39.54153" lon="2.58413167">
        <ele>42.0</ele>
        <time>2022-05-14T11:10:10.331Z</time>
      </trkpt>
      <trkpt lat="39.54150167" lon="2.58411167">
        <ele>42.0</ele>
        <time>2022-05-14T11:10:11.331Z</time>
      </trkpt>
      <trkpt lat="39.54147167" lon="2.58409167">
        <ele>42.0</ele>
        <time>2022-05-14T11:10:12.332Z</time>
      </trkpt>
      <trkpt lat="39.54143833" lon="2.58407167">
        <ele>42.0</ele>
        <time>2022-05-14T11:10:13.332Z</time>
      </trkpt>
      <trkpt lat="39.54140333" lon="2.58404667">
        <ele>42.0</ele>
        <time>2022-05-14T11:10:14.332Z</time>
      </trkpt>
      <trkpt lat="39.54136833" lon="2.58402">
        <ele>41.0</ele>
        <time>2022-05-14T11:10:15.331Z</time>
      </trkpt>
      <trkpt lat="39.54133167" lon="2.58399167">
        <ele>41.0</ele>
        <time>2022-05-14T11:10:16.331Z</time>
      </trkpt>
      <trkpt lat="39.54129333" lon="2.583965">
        <ele>41.0</ele>
        <time>2022-05-14T11:10:17.332Z</time>
      </trkpt>
      <trkpt lat="39.541255" lon="2.58393667">
        <ele>41.0</ele>
        <time>2022-05-14T11:10:18.332Z</time>
      </trkpt>
      <trkpt lat="39.541215" lon="2.58391">
        <ele>41.0</ele>
        <time>2022-05-14T11:10:19.332Z</time>
      </trkpt>
      <trkpt lat="39.541175" lon="2.58387833">
        <ele>41.0</ele>
        <time>2022-05-14T11:10:20.332Z</time>
      </trkpt>
      <trkpt lat="39.54113167" lon="2.58385167">
        <ele>41.0</ele>
        <time>2022-05-14T11:10:21.332Z</time>
      </trkpt>
      <trkpt lat="39.54108667" lon="2.58383">
        <ele>41.0</ele>
        <time>2022-05-14T11:10:22.331Z</time>
      </trkpt>
      <trkpt lat="39.54103667" lon="2.58381333">
        <ele>41.0</ele>
        <time>2022-05-14T11:10:23.332Z</time>
      </trkpt>
      <trkpt lat="39.540985" lon="2.58380667">
        <ele>41.0</ele>
        <time>2022-05-14T11:10:24.332Z</time>
      </trkpt>
      <trkpt lat="39.54093333" lon="2.58381333">
        <ele>41.0</ele>
        <time>2022-05-14T11:10:25.331Z</time>
      </trkpt>
      <trkpt lat="39.54088333" lon="2.58382833">
        <ele>40.0</ele>
        <time>2022-05-14T11:10:26.332Z</time>
      </trkpt>
      <trkpt lat="39.54083" lon="2.583845">
        <ele>40.0</ele>
        <time>2022-05-14T11:10:27.332Z</time>
      </trkpt>
      <trkpt lat="39.540775" lon="2.58386">
        <ele>40.0</ele>
        <time>2022-05-14T11:10:28.332Z</time>
      </trkpt>
      <trkpt lat="39.54072" lon="2.58386833">
        <ele>39.0</ele>
        <time>2022-05-14T11:10:29.332Z</time>
      </trkpt>
      <trkpt lat="39.54067" lon="2.58386833">
        <ele>39.0</ele>
        <time>2022-05-14T11:10:30.332Z</time>
      </trkpt>
      <trkpt lat="39.54062667" lon="2.58385667">
        <ele>39.0</ele>
        <time>2022-05-14T11:10:31.331Z</time>
      </trkpt>
      <trkpt lat="39.54059" lon="2.58383667">
        <ele>39.0</ele>
        <time>2022-05-14T11:10:32.332Z</time>
      </trkpt>
      <trkpt lat="39.54055833" lon="2.58380833">
        <ele>39.0</ele>
        <time>2022-05-14T11:10:33.331Z</time>
      </trkpt>
      <trkpt lat="39.54053" lon="2.583775">
        <ele>40.0</ele>
        <time>2022-05-14T11:10:34.332Z</time>
      </trkpt>
      <trkpt lat="39.54050333" lon="2.58373833">
        <ele>40.0</ele>
        <time>2022-05-14T11:10:35.332Z</time>
      </trkpt>
      <trkpt lat="39.54048" lon="2.58370167">
        <ele>41.0</ele>
        <time>2022-05-14T11:10:36.332Z</time>
      </trkpt>
      <trkpt lat="39.54046" lon="2.583665">
        <ele>41.0</ele>
        <time>2022-05-14T11:10:37.331Z</time>
      </trkpt>
      <trkpt lat="39.54044167" lon="2.583625">
        <ele>41.0</ele>
        <time>2022-05-14T11:10:38.332Z</time>
      </trkpt>
      <trkpt lat="39.54043333" lon="2.58358">
        <ele>40.0</ele>
        <time>2022-05-14T11:10:39.331Z</time>
      </trkpt>
      <trkpt lat="39.54043333" lon="2.58353667">
        <ele>40.0</ele>
        <time>2022-05-14T11:10:40.331Z</time>
      </trkpt>
      <trkpt lat="39.540435" lon="2.58350167">
        <ele>40.0</ele>
        <time>2022-05-14T11:10:41.332Z</time>
      </trkpt>
      <trkpt lat="39.54043333" lon="2.58346333">
        <ele>40.0</ele>
        <time>2022-05-14T11:10:42.331Z</time>
      </trkpt>
      <trkpt lat="39.54043167" lon="2.583435">
        <ele>40.0</ele>
        <time>2022-05-14T11:10:43.332Z</time>
      </trkpt>
      <trkpt lat="39.54042833" lon="2.58341">
        <ele>40.0</ele>
        <time>2022-05-14T11:10:44.331Z</time>
      </trkpt>
      <trkpt lat="39.54043167" lon="2.583385">
        <ele>39.0</ele>
        <time>2022-05-14T11:10:45.331Z</time>
      </trkpt>
      <trkpt lat="39.54044833" lon="2.58335167">
        <ele>39.0</ele>
        <time>2022-05-14T11:10:46.331Z</time>
      </trkpt>
      <trkpt lat="39.54046833" lon="2.583315">
        <ele>39.0</ele>
        <time>2022-05-14T11:10:47.332Z</time>
      </trkpt>
      <trkpt lat="39.54049667" lon="2.58328">
        <ele>39.0</ele>
        <time>2022-05-14T11:10:48.332Z</time>
      </trkpt>
      <trkpt lat="39.54052333" lon="2.58324667">
        <ele>39.0</ele>
        <time>2022-05-14T11:10:49.332Z</time>
      </trkpt>
      <trkpt lat="39.54054333" lon="2.58320667">
        <ele>39.0</ele>
        <time>2022-05-14T11:10:50.332Z</time>
      </trkpt>
      <trkpt lat="39.54056" lon="2.58316333">
        <ele>40.0</ele>
        <time>2022-05-14T11:10:51.331Z</time>
      </trkpt>
      <trkpt lat="39.540575" lon="2.58311833">
        <ele>40.0</ele>
        <time>2022-05-14T11:10:52.332Z</time>
      </trkpt>
      <trkpt lat="39.54058167" lon="2.58307667">
        <ele>40.0</ele>
        <time>2022-05-14T11:10:53.332Z</time>
      </trkpt>
      <trkpt lat="39.54057833" lon="2.58304">
        <ele>40.0</ele>
        <time>2022-05-14T11:10:54.332Z</time>
      </trkpt>
      <trkpt lat="39.54056167" lon="2.58300333">
        <ele>40.0</ele>
        <time>2022-05-14T11:10:55.331Z</time>
      </trkpt>
      <trkpt lat="39.54053667" lon="2.58296833">
        <ele>40.0</ele>
        <time>2022-05-14T11:10:56.332Z</time>
      </trkpt>
      <trkpt lat="39.54051167" lon="2.58293167">
        <ele>40.0</ele>
        <time>2022-05-14T11:10:57.332Z</time>
      </trkpt>
      <trkpt lat="39.54048167" lon="2.58289167">
        <ele>40.0</ele>
        <time>2022-05-14T11:10:58.332Z</time>
      </trkpt>
      <trkpt lat="39.540455" lon="2.58285">
        <ele>40.0</ele>
        <time>2022-05-14T11:10:59.332Z</time>
      </trkpt>
      <trkpt lat="39.54042" lon="2.5828">
        <ele>40.0</ele>
        <time>2022-05-14T11:11:00.331Z</time>
      </trkpt>
      <trkpt lat="39.54038833" lon="2.58275667">
        <ele>40.0</ele>
        <time>2022-05-14T11:11:01.331Z</time>
      </trkpt>
      <trkpt lat="39.54035833" lon="2.58271">
        <ele>40.0</ele>
        <time>2022-05-14T11:11:02.332Z</time>
      </trkpt>
      <trkpt lat="39.54032667" lon="2.58267333">
        <ele>39.0</ele>
        <time>2022-05-14T11:11:03.331Z</time>
      </trkpt>
      <trkpt lat="39.540295" lon="2.58263333">
        <ele>39.0</ele>
        <time>2022-05-14T11:11:04.331Z</time>
      </trkpt>
      <trkpt lat="39.54026667" lon="2.58259167">
        <ele>39.0</ele>
        <time>2022-05-14T11:11:05.331Z</time>
      </trkpt>
      <trkpt lat="39.54024333" lon="2.582545">
        <ele>39.0</ele>
        <time>2022-05-14T11:11:06.332Z</time>
      </trkpt>
      <trkpt lat="39.540215" lon="2.58248833">
        <ele>39.0</ele>
        <time>2022-05-14T11:11:07.332Z</time>
      </trkpt>
      <trkpt lat="39.54019" lon="2.58242667">
        <ele>38.0</ele>
        <time>2022-05-14T11:11:08.332Z</time>
      </trkpt>
      <trkpt lat="39.54016833" lon="2.58237167">
        <ele>38.0</ele>
        <time>2022-05-14T11:11:09.331Z</time>
      </trkpt>
      <trkpt lat="39.54014333" lon="2.582315">
        <ele>38.0</ele>
        <time>2022-05-14T11:11:10.331Z</time>
      </trkpt>
      <trkpt lat="39.54011833" lon="2.58225833">
        <ele>38.0</ele>
        <time>2022-05-14T11:11:11.332Z</time>
      </trkpt>
      <trkpt lat="39.54009333" lon="2.582195">
        <ele>38.0</ele>
        <time>2022-05-14T11:11:12.331Z</time>
      </trkpt>
      <trkpt lat="39.54006833" lon="2.58213167">
        <ele>38.0</ele>
        <time>2022-05-14T11:11:13.332Z</time>
      </trkpt>
      <trkpt lat="39.540045" lon="2.582065">
        <ele>39.0</ele>
        <time>2022-05-14T11:11:14.332Z</time>
      </trkpt>
      <trkpt lat="39.54002667" lon="2.58199833">
        <ele>39.0</ele>
        <time>2022-05-14T11:11:15.332Z</time>
      </trkpt>
      <trkpt lat="39.54001" lon="2.58194">
        <ele>39.0</ele>
        <time>2022-05-14T11:11:16.332Z</time>
      </trkpt>
      <trkpt lat="39.539995" lon="2.58188333">
        <ele>39.0</ele>
        <time>2022-05-14T11:11:17.331Z</time>
      </trkpt>
      <trkpt lat="39.53998" lon="2.58183667">
        <ele>39.0</ele>
        <time>2022-05-14T11:11:18.332Z</time>
      </trkpt>
      <trkpt lat="39.53996333" lon="2.58179">
        <ele>39.0</ele>
        <time>2022-05-14T11:11:19.331Z</time>
      </trkpt>
      <trkpt lat="39.53994" lon="2.58175667">
        <ele>39.0</ele>
        <time>2022-05-14T11:11:20.332Z</time>
      </trkpt>
      <trkpt lat="39.53992" lon="2.58171833">
        <ele>38.0</ele>
        <time>2022-05-14T11:11:21.332Z</time>
      </trkpt>
      <trkpt lat="39.53990333" lon="2.58167833">
        <ele>38.0</ele>
        <time>2022-05-14T11:11:22.332Z</time>
      </trkpt>
      <trkpt lat="39.53988667" lon="2.58163667">
        <ele>38.0</ele>
        <time>2022-05-14T11:11:23.332Z</time>
      </trkpt>
      <trkpt lat="39.53987333" lon="2.58159333">
        <ele>38.0</ele>
        <time>2022-05-14T11:11:24.332Z</time>
      </trkpt>
      <trkpt lat="39.53985167" lon="2.58155667">
        <ele>38.0</ele>
        <time>2022-05-14T11:11:25.331Z</time>
      </trkpt>
      <trkpt lat="39.53983" lon="2.58152333">
        <ele>38.0</ele>
        <time>2022-05-14T11:11:26.331Z</time>
      </trkpt>
      <trkpt lat="39.53980667" lon="2.581485">
        <ele>38.0</ele>
        <time>2022-05-14T11:11:27.332Z</time>
      </trkpt>
      <trkpt lat="39.53978333" lon="2.58144833">
        <ele>38.0</ele>
        <time>2022-05-14T11:11:28.332Z</time>
      </trkpt>
      <trkpt lat="39.53976333" lon="2.58141167">
        <ele>38.0</ele>
        <time>2022-05-14T11:11:29.331Z</time>
      </trkpt>
      <trkpt lat="39.539745" lon="2.58137167">
        <ele>38.0</ele>
        <time>2022-05-14T11:11:30.332Z</time>
      </trkpt>
      <trkpt lat="39.53972667" lon="2.58133">
        <ele>38.0</ele>
        <time>2022-05-14T11:11:31.331Z</time>
      </trkpt>
      <trkpt lat="39.53970833" lon="2.58129">
        <ele>38.0</ele>
        <time>2022-05-14T11:11:32.332Z</time>
      </trkpt>
      <trkpt lat="39.53969" lon="2.58124667">
        <ele>38.0</ele>
        <time>2022-05-14T11:11:33.332Z</time>
      </trkpt>
      <trkpt lat="39.53967167" lon="2.581205">
        <ele>37.0</ele>
        <time>2022-05-14T11:11:34.331Z</time>
      </trkpt>
      <trkpt lat="39.53965333" lon="2.58116167">
        <ele>37.0</ele>
        <time>2022-05-14T11:11:35.332Z</time>
      </trkpt>
      <trkpt lat="39.539635" lon="2.58111667">
        <ele>37.0</ele>
        <time>2022-05-14T11:11:36.332Z</time>
      </trkpt>
      <trkpt lat="39.53961833" lon="2.58107">
        <ele>37.0</ele>
        <time>2022-05-14T11:11:37.332Z</time>
      </trkpt>
      <trkpt lat="39.539605" lon="2.581025">
        <ele>37.0</ele>
        <time>2022-05-14T11:11:38.332Z</time>
      </trkpt>
      <trkpt lat="39.53959" lon="2.58097833">
        <ele>37.0</ele>
        <time>2022-05-14T11:11:39.332Z</time>
      </trkpt>
      <trkpt lat="39.53957833" lon="2.58093333">
        <ele>37.0</ele>
        <time>2022-05-14T11:11:40.331Z</time>
      </trkpt>
      <trkpt lat="39.53956667" lon="2.580885">
        <ele>38.0</ele>
        <time>2022-05-14T11:11:41.332Z</time>
      </trkpt>
      <trkpt lat="39.53955667" lon="2.58084">
        <ele>37.0</ele>
        <time>2022-05-14T11:11:42.332Z</time>
      </trkpt>
      <trkpt lat="39.53955167" lon="2.58079167">
        <ele>37.0</ele>
        <time>2022-05-14T11:11:43.332Z</time>
      </trkpt>
      <trkpt lat="39.53954667" lon="2.580745">
        <ele>37.0</ele>
        <time>2022-05-14T11:11:44.332Z</time>
      </trkpt>
      <trkpt lat="39.53954167" lon="2.58069667">
        <ele>37.0</ele>
        <time>2022-05-14T11:11:45.331Z</time>
      </trkpt>
      <trkpt lat="39.53953833" lon="2.580645">
        <ele>37.0</ele>
        <time>2022-05-14T11:11:46.332Z</time>
      </trkpt>
      <trkpt lat="39.53953667" lon="2.58059667">
        <ele>37.0</ele>
        <time>2022-05-14T11:11:47.331Z</time>
      </trkpt>
      <trkpt lat="39.539535" lon="2.58054333">
        <ele>37.0</ele>
        <time>2022-05-14T11:11:48.332Z</time>
      </trkpt>
      <trkpt lat="39.53953167" lon="2.58049333">
        <ele>37.0</ele>
        <time>2022-05-14T11:11:49.332Z</time>
      </trkpt>
      <trkpt lat="39.53953" lon="2.58044667">
        <ele>37.0</ele>
        <time>2022-05-14T11:11:50.331Z</time>
      </trkpt>
      <trkpt lat="39.53952667" lon="2.580395">
        <ele>37.0</ele>
        <time>2022-05-14T11:11:51.331Z</time>
      </trkpt>
      <trkpt lat="39.539525" lon="2.58034">
        <ele>37.0</ele>
        <time>2022-05-14T11:11:52.332Z</time>
      </trkpt>
      <trkpt lat="39.53952333" lon="2.58028167">
        <ele>36.0</ele>
        <time>2022-05-14T11:11:53.332Z</time>
      </trkpt>
      <trkpt lat="39.53952167" lon="2.580225">
        <ele>37.0</ele>
        <time>2022-05-14T11:11:54.331Z</time>
      </trkpt>
      <trkpt lat="39.53951667" lon="2.58016667">
        <ele>37.0</ele>
        <time>2022-05-14T11:11:55.332Z</time>
      </trkpt>
      <trkpt lat="39.539515" lon="2.58010833">
        <ele>37.0</ele>
        <time>2022-05-14T11:11:56.332Z</time>
      </trkpt>
      <trkpt lat="39.539515" lon="2.58005167">
        <ele>37.0</ele>
        <time>2022-05-14T11:11:57.332Z</time>
      </trkpt>
      <trkpt lat="39.53951667" lon="2.57999">
        <ele>37.0</ele>
        <time>2022-05-14T11:11:58.332Z</time>
      </trkpt>
      <trkpt lat="39.53951833" lon="2.57992667">
        <ele>37.0</ele>
        <time>2022-05-14T11:11:59.332Z</time>
      </trkpt>
      <trkpt lat="39.53951833" lon="2.57986167">
        <ele>38.0</ele>
        <time>2022-05-14T11:12:00.332Z</time>
      </trkpt>
      <trkpt lat="39.53952333" lon="2.57979167">
        <ele>38.0</ele>
        <time>2022-05-14T11:12:01.332Z</time>
      </trkpt>
      <trkpt lat="39.539525" lon="2.579715">
        <ele>39.0</ele>
        <time>2022-05-14T11:12:02.331Z</time>
      </trkpt>
      <trkpt lat="39.53952667" lon="2.57963333">
        <ele>39.0</ele>
        <time>2022-05-14T11:12:03.332Z</time>
      </trkpt>
      <trkpt lat="39.53953" lon="2.579555">
        <ele>39.0</ele>
        <time>2022-05-14T11:12:04.332Z</time>
      </trkpt>
      <trkpt lat="39.53953667" lon="2.57946833">
        <ele>39.0</ele>
        <time>2022-05-14T11:12:05.332Z</time>
      </trkpt>
      <trkpt lat="39.53954333" lon="2.579375">
        <ele>39.0</ele>
        <time>2022-05-14T11:12:06.332Z</time>
      </trkpt>
      <trkpt lat="39.53954833" lon="2.579285">
        <ele>38.0</ele>
        <time>2022-05-14T11:12:07.331Z</time>
      </trkpt>
      <trkpt lat="39.53954667" lon="2.5792">
        <ele>38.0</ele>
        <time>2022-05-14T11:12:08.331Z</time>
      </trkpt>
      <trkpt lat="39.53954167" lon="2.57911167">
        <ele>37.0</ele>
        <time>2022-05-14T11:12:09.332Z</time>
      </trkpt>
      <trkpt lat="39.53953167" lon="2.579025">
        <ele>36.0</ele>
        <time>2022-05-14T11:12:10.331Z</time>
      </trkpt>
      <trkpt lat="39.539515" lon="2.57896">
        <ele>36.0</ele>
        <time>2022-05-14T11:12:11.332Z</time>
      </trkpt>
      <trkpt lat="39.539495" lon="2.57894">
        <ele>36.0</ele>
        <time>2022-05-14T11:12:12.331Z</time>
      </trkpt>
      <trkpt lat="39.53946167" lon="2.578935">
        <ele>35.0</ele>
        <time>2022-05-14T11:12:13.332Z</time>
      </trkpt>
      <trkpt lat="39.53944333" lon="2.57896">
        <ele>35.0</ele>
        <time>2022-05-14T11:12:14.331Z</time>
      </trkpt>
      <trkpt lat="39.53942833" lon="2.57900167">
        <ele>35.0</ele>
        <time>2022-05-14T11:12:15.331Z</time>
      </trkpt>
      <trkpt lat="39.53941" lon="2.57905">
        <ele>34.0</ele>
        <time>2022-05-14T11:12:16.332Z</time>
      </trkpt>
      <trkpt lat="39.539395" lon="2.57910167">
        <ele>34.0</ele>
        <time>2022-05-14T11:12:17.331Z</time>
      </trkpt>
      <trkpt lat="39.53937667" lon="2.57913833">
        <ele>34.0</ele>
        <time>2022-05-14T11:12:18.332Z</time>
      </trkpt>
      <trkpt lat="39.53936167" lon="2.57916">
        <ele>34.0</ele>
        <time>2022-05-14T11:12:19.331Z</time>
      </trkpt>
      <trkpt lat="39.53934833" lon="2.57915333">
        <ele>33.0</ele>
        <time>2022-05-14T11:12:20.332Z</time>
      </trkpt>
      <trkpt lat="39.53934" lon="2.57912833">
        <ele>33.0</ele>
        <time>2022-05-14T11:12:21.331Z</time>
      </trkpt>
      <trkpt lat="39.53933667" lon="2.57909167">
        <ele>34.0</ele>
        <time>2022-05-14T11:12:22.332Z</time>
      </trkpt>
      <trkpt lat="39.53933667" lon="2.579045">
        <ele>34.0</ele>
        <time>2022-05-14T11:12:23.332Z</time>
      </trkpt>
      <trkpt lat="39.539335" lon="2.57899667">
        <ele>34.0</ele>
        <time>2022-05-14T11:12:24.331Z</time>
      </trkpt>
      <trkpt lat="39.53933167" lon="2.578945">
        <ele>35.0</ele>
        <time>2022-05-14T11:12:25.332Z</time>
      </trkpt>
      <trkpt lat="39.53932333" lon="2.57889167">
        <ele>34.0</ele>
        <time>2022-05-14T11:12:26.332Z</time>
      </trkpt>
      <trkpt lat="39.539315" lon="2.57882667">
        <ele>34.0</ele>
        <time>2022-05-14T11:12:27.332Z</time>
      </trkpt>
      <trkpt lat="39.53930167" lon="2.578765">
        <ele>34.0</ele>
        <time>2022-05-14T11:12:28.332Z</time>
      </trkpt>
      <trkpt lat="39.53928667" lon="2.57870667">
        <ele>34.0</ele>
        <time>2022-05-14T11:12:29.332Z</time>
      </trkpt>
      <trkpt lat="39.53927333" lon="2.578645">
        <ele>34.0</ele>
        <time>2022-05-14T11:12:30.332Z</time>
      </trkpt>
      <trkpt lat="39.53925667" lon="2.57857833">
        <ele>34.0</ele>
        <time>2022-05-14T11:12:31.332Z</time>
      </trkpt>
      <trkpt lat="39.53924" lon="2.578515">
        <ele>33.0</ele>
        <time>2022-05-14T11:12:32.331Z</time>
      </trkpt>
      <trkpt lat="39.53922167" lon="2.57844833">
        <ele>33.0</ele>
        <time>2022-05-14T11:12:33.332Z</time>
      </trkpt>
      <trkpt lat="39.53919667" lon="2.57837667">
        <ele>33.0</ele>
        <time>2022-05-14T11:12:34.332Z</time>
      </trkpt>
      <trkpt lat="39.53917833" lon="2.57830167">
        <ele>32.0</ele>
        <time>2022-05-14T11:12:35.331Z</time>
      </trkpt>
      <trkpt lat="39.53916" lon="2.57823167">
        <ele>32.0</ele>
        <time>2022-05-14T11:12:36.332Z</time>
      </trkpt>
      <trkpt lat="39.539145" lon="2.57816167">
        <ele>31.0</ele>
        <time>2022-05-14T11:12:37.332Z</time>
      </trkpt>
      <trkpt lat="39.53913" lon="2.57809">
        <ele>31.0</ele>
        <time>2022-05-14T11:12:38.332Z</time>
      </trkpt>
      <trkpt lat="39.53911333" lon="2.578015">
        <ele>30.0</ele>
        <time>2022-05-14T11:12:39.331Z</time>
      </trkpt>
      <trkpt lat="39.53908833" lon="2.577945">
        <ele>30.0</ele>
        <time>2022-05-14T11:12:40.331Z</time>
      </trkpt>
      <trkpt lat="39.53906" lon="2.57788">
        <ele>29.0</ele>
        <time>2022-05-14T11:12:41.331Z</time>
      </trkpt>
      <trkpt lat="39.53903" lon="2.57781833">
        <ele>28.0</ele>
        <time>2022-05-14T11:12:42.331Z</time>
      </trkpt>
      <trkpt lat="39.53899667" lon="2.57775">
        <ele>27.0</ele>
        <time>2022-05-14T11:12:43.332Z</time>
      </trkpt>
      <trkpt lat="39.53896" lon="2.57768">
        <ele>27.0</ele>
        <time>2022-05-14T11:12:44.332Z</time>
      </trkpt>
      <trkpt lat="39.53891833" lon="2.57762">
        <ele>27.0</ele>
        <time>2022-05-14T11:12:45.331Z</time>
      </trkpt>
      <trkpt lat="39.53887167" lon="2.57755833">
        <ele>27.0</ele>
        <time>2022-05-14T11:12:46.331Z</time>
      </trkpt>
      <trkpt lat="39.53882667" lon="2.57749833">
        <ele>27.0</ele>
        <time>2022-05-14T11:12:47.331Z</time>
      </trkpt>
      <trkpt lat="39.53877833" lon="2.57743667">
        <ele>27.0</ele>
        <time>2022-05-14T11:12:48.332Z</time>
      </trkpt>
      <trkpt lat="39.53873" lon="2.57736833">
        <ele>27.0</ele>
        <time>2022-05-14T11:12:49.332Z</time>
      </trkpt>
      <trkpt lat="39.538675" lon="2.57728833">
        <ele>27.0</ele>
        <time>2022-05-14T11:12:50.332Z</time>
      </trkpt>
      <trkpt lat="39.53862833" lon="2.57722333">
        <ele>27.0</ele>
        <time>2022-05-14T11:12:51.331Z</time>
      </trkpt>
      <trkpt lat="39.53859333" lon="2.57716667">
        <ele>27.0</ele>
        <time>2022-05-14T11:12:52.332Z</time>
      </trkpt>
      <trkpt lat="39.53854167" lon="2.57708333">
        <ele>27.0</ele>
        <time>2022-05-14T11:12:53.331Z</time>
      </trkpt>
      <trkpt lat="39.53850167" lon="2.577015">
        <ele>27.0</ele>
        <time>2022-05-14T11:12:54.332Z</time>
      </trkpt>
      <trkpt lat="39.53846333" lon="2.576945">
        <ele>27.0</ele>
        <time>2022-05-14T11:12:55.332Z</time>
      </trkpt>
      <trkpt lat="39.538425" lon="2.576875">
        <ele>27.0</ele>
        <time>2022-05-14T11:12:56.332Z</time>
      </trkpt>
      <trkpt lat="39.53839167" lon="2.57681833">
        <ele>27.0</ele>
        <time>2022-05-14T11:12:57.331Z</time>
      </trkpt>
      <trkpt lat="39.53834333" lon="2.57673167">
        <ele>27.0</ele>
        <time>2022-05-14T11:12:58.332Z</time>
      </trkpt>
      <trkpt lat="39.53829833" lon="2.57666333">
        <ele>27.0</ele>
        <time>2022-05-14T11:12:59.332Z</time>
      </trkpt>
      <trkpt lat="39.53825333" lon="2.57658833">
        <ele>28.0</ele>
        <time>2022-05-14T11:13:00.332Z</time>
      </trkpt>
      <trkpt lat="39.53820667" lon="2.576515">
        <ele>28.0</ele>
        <time>2022-05-14T11:13:01.331Z</time>
      </trkpt>
      <trkpt lat="39.53816333" lon="2.57643667">
        <ele>28.0</ele>
        <time>2022-05-14T11:13:02.332Z</time>
      </trkpt>
      <trkpt lat="39.53811833" lon="2.57635667">
        <ele>28.0</ele>
        <time>2022-05-14T11:13:03.332Z</time>
      </trkpt>
      <trkpt lat="39.53807667" lon="2.576285">
        <ele>28.0</ele>
        <time>2022-05-14T11:13:04.332Z</time>
      </trkpt>
      <trkpt lat="39.538035" lon="2.57621833">
        <ele>28.0</ele>
        <time>2022-05-14T11:13:05.332Z</time>
      </trkpt>
      <trkpt lat="39.537995" lon="2.57615167">
        <ele>28.0</ele>
        <time>2022-05-14T11:13:06.332Z</time>
      </trkpt>
      <trkpt lat="39.53795667" lon="2.576085">
        <ele>27.0</ele>
        <time>2022-05-14T11:13:07.332Z</time>
      </trkpt>
      <trkpt lat="39.53791833" lon="2.57601667">
        <ele>27.0</ele>
        <time>2022-05-14T11:13:08.331Z</time>
      </trkpt>
      <trkpt lat="39.53788" lon="2.57594667">
        <ele>26.0</ele>
        <time>2022-05-14T11:13:09.331Z</time>
      </trkpt>
      <trkpt lat="39.537845" lon="2.57587167">
        <ele>26.0</ele>
        <time>2022-05-14T11:13:10.332Z</time>
      </trkpt>
      <trkpt lat="39.53780833" lon="2.575805">
        <ele>25.0</ele>
        <time>2022-05-14T11:13:11.331Z</time>
      </trkpt>
      <trkpt lat="39.53777167" lon="2.57574667">
        <ele>25.0</ele>
        <time>2022-05-14T11:13:12.332Z</time>
      </trkpt>
      <trkpt lat="39.53773333" lon="2.57569">
        <ele>24.0</ele>
        <time>2022-05-14T11:13:13.332Z</time>
      </trkpt>
      <trkpt lat="39.537695" lon="2.57563167">
        <ele>24.0</ele>
        <time>2022-05-14T11:13:14.332Z</time>
      </trkpt>
      <trkpt lat="39.537665" lon="2.575585">
        <ele>23.0</ele>
        <time>2022-05-14T11:13:15.331Z</time>
      </trkpt>
      <trkpt lat="39.53762167" lon="2.57551167">
        <ele>22.0</ele>
        <time>2022-05-14T11:13:16.332Z</time>
      </trkpt>
      <trkpt lat="39.53758667" lon="2.57544667">
        <ele>22.0</ele>
        <time>2022-05-14T11:13:17.331Z</time>
      </trkpt>
      <trkpt lat="39.53755667" lon="2.57538833">
        <ele>22.0</ele>
        <time>2022-05-14T11:13:18.331Z</time>
      </trkpt>
      <trkpt lat="39.537525" lon="2.57533">
        <ele>22.0</ele>
        <time>2022-05-14T11:13:19.332Z</time>
      </trkpt>
      <trkpt lat="39.53749667" lon="2.57528833">
        <ele>22.0</ele>
        <time>2022-05-14T11:13:20.332Z</time>
      </trkpt>
      <trkpt lat="39.53745667" lon="2.575225">
        <ele>22.0</ele>
        <time>2022-05-14T11:13:21.332Z</time>
      </trkpt>
      <trkpt lat="39.53742333" lon="2.57517">
        <ele>22.0</ele>
        <time>2022-05-14T11:13:22.332Z</time>
      </trkpt>
      <trkpt lat="39.53739333" lon="2.57511333">
        <ele>22.0</ele>
        <time>2022-05-14T11:13:23.331Z</time>
      </trkpt>
      <trkpt lat="39.53735667" lon="2.57505833">
        <ele>22.0</ele>
        <time>2022-05-14T11:13:24.331Z</time>
      </trkpt>
      <trkpt lat="39.53733" lon="2.57501333">
        <ele>22.0</ele>
        <time>2022-05-14T11:13:25.332Z</time>
      </trkpt>
      <trkpt lat="39.537295" lon="2.57495833">
        <ele>21.0</ele>
        <time>2022-05-14T11:13:26.332Z</time>
      </trkpt>
      <trkpt lat="39.53725833" lon="2.57490667">
        <ele>21.0</ele>
        <time>2022-05-14T11:13:27.332Z</time>
      </trkpt>
      <trkpt lat="39.53722" lon="2.57485333">
        <ele>21.0</ele>
        <time>2022-05-14T11:13:28.332Z</time>
      </trkpt>
      <trkpt lat="39.537185" lon="2.5748">
        <ele>21.0</ele>
        <time>2022-05-14T11:13:29.332Z</time>
      </trkpt>
      <trkpt lat="39.53714667" lon="2.57475167">
        <ele>20.0</ele>
        <time>2022-05-14T11:13:30.332Z</time>
      </trkpt>
      <trkpt lat="39.53711333" lon="2.57470667">
        <ele>20.0</ele>
        <time>2022-05-14T11:13:31.332Z</time>
      </trkpt>
      <trkpt lat="39.53708333" lon="2.57465667">
        <ele>20.0</ele>
        <time>2022-05-14T11:13:32.331Z</time>
      </trkpt>
      <trkpt lat="39.537055" lon="2.57460833">
        <ele>20.0</ele>
        <time>2022-05-14T11:13:33.332Z</time>
      </trkpt>
      <trkpt lat="39.53702667" lon="2.57456333">
        <ele>20.0</ele>
        <time>2022-05-14T11:13:34.332Z</time>
      </trkpt>
      <trkpt lat="39.53699833" lon="2.57452667">
        <ele>20.0</ele>
        <time>2022-05-14T11:13:35.332Z</time>
      </trkpt>
      <trkpt lat="39.53697167" lon="2.57449">
        <ele>21.0</ele>
        <time>2022-05-14T11:13:36.332Z</time>
      </trkpt>
      <trkpt lat="39.53693167" lon="2.57446333">
        <ele>21.0</ele>
        <time>2022-05-14T11:13:37.332Z</time>
      </trkpt>
      <trkpt lat="39.53690333" lon="2.57443167">
        <ele>21.0</ele>
        <time>2022-05-14T11:13:38.332Z</time>
      </trkpt>
      <trkpt lat="39.53687833" lon="2.57439833">
        <ele>21.0</ele>
        <time>2022-05-14T11:13:39.332Z</time>
      </trkpt>
      <trkpt lat="39.53685833" lon="2.57437">
        <ele>22.0</ele>
        <time>2022-05-14T11:13:40.332Z</time>
      </trkpt>
      <trkpt lat="39.53684167" lon="2.57434167">
        <ele>22.0</ele>
        <time>2022-05-14T11:13:41.332Z</time>
      </trkpt>
      <trkpt lat="39.53681833" lon="2.57432167">
        <ele>22.0</ele>
        <time>2022-05-14T11:13:42.331Z</time>
      </trkpt>
      <trkpt lat="39.5368" lon="2.5743">
        <ele>22.0</ele>
        <time>2022-05-14T11:13:43.332Z</time>
      </trkpt>
      <trkpt lat="39.53678167" lon="2.57428333">
        <ele>22.0</ele>
        <time>2022-05-14T11:13:44.331Z</time>
      </trkpt>
      <trkpt lat="39.53676" lon="2.57427">
        <ele>22.0</ele>
        <time>2022-05-14T11:13:45.332Z</time>
      </trkpt>
      <trkpt lat="39.53674333" lon="2.57424667">
        <ele>22.0</ele>
        <time>2022-05-14T11:13:46.332Z</time>
      </trkpt>
      <trkpt lat="39.53672167" lon="2.57422333">
        <ele>22.0</ele>
        <time>2022-05-14T11:13:47.331Z</time>
      </trkpt>
      <trkpt lat="39.53670167" lon="2.574205">
        <ele>22.0</ele>
        <time>2022-05-14T11:13:48.332Z</time>
      </trkpt>
      <trkpt lat="39.536685" lon="2.57418">
        <ele>22.0</ele>
        <time>2022-05-14T11:13:49.332Z</time>
      </trkpt>
      <trkpt lat="39.53666667" lon="2.57416">
        <ele>22.0</ele>
        <time>2022-05-14T11:13:50.332Z</time>
      </trkpt>
      <trkpt lat="39.53664833" lon="2.57414">
        <ele>21.0</ele>
        <time>2022-05-14T11:13:51.332Z</time>
      </trkpt>
      <trkpt lat="39.53663333" lon="2.57411667">
        <ele>21.0</ele>
        <time>2022-05-14T11:13:52.331Z</time>
      </trkpt>
      <trkpt lat="39.53661667" lon="2.57409333">
        <ele>22.0</ele>
        <time>2022-05-14T11:13:53.332Z</time>
      </trkpt>
      <trkpt lat="39.5366" lon="2.574075">
        <ele>22.0</ele>
        <time>2022-05-14T11:13:54.332Z</time>
      </trkpt>
      <trkpt lat="39.53658167" lon="2.57405833">
        <ele>22.0</ele>
        <time>2022-05-14T11:13:55.331Z</time>
      </trkpt>
      <trkpt lat="39.53656333" lon="2.57404167">
        <ele>22.0</ele>
        <time>2022-05-14T11:13:56.332Z</time>
      </trkpt>
      <trkpt lat="39.536545" lon="2.57402333">
        <ele>22.0</ele>
        <time>2022-05-14T11:13:57.332Z</time>
      </trkpt>
      <trkpt lat="39.53653333" lon="2.57400333">
        <ele>22.0</ele>
        <time>2022-05-14T11:13:58.331Z</time>
      </trkpt>
      <trkpt lat="39.536515" lon="2.57398333">
        <ele>23.0</ele>
        <time>2022-05-14T11:13:59.331Z</time>
      </trkpt>
      <trkpt lat="39.53649167" lon="2.57396833">
        <ele>23.0</ele>
        <time>2022-05-14T11:14:00.332Z</time>
      </trkpt>
      <trkpt lat="39.53646833" lon="2.57395167">
        <ele>24.0</ele>
        <time>2022-05-14T11:14:01.332Z</time>
      </trkpt>
      <trkpt lat="39.53644667" lon="2.57393833">
        <ele>24.0</ele>
        <time>2022-05-14T11:14:02.332Z</time>
      </trkpt>
      <trkpt lat="39.53642333" lon="2.57392333">
        <ele>24.0</ele>
        <time>2022-05-14T11:14:03.332Z</time>
      </trkpt>
      <trkpt lat="39.53640333" lon="2.57391">
        <ele>25.0</ele>
        <time>2022-05-14T11:14:04.332Z</time>
      </trkpt>
      <trkpt lat="39.53638" lon="2.57389333">
        <ele>25.0</ele>
        <time>2022-05-14T11:14:05.332Z</time>
      </trkpt>
      <trkpt lat="39.53635667" lon="2.57387667">
        <ele>25.0</ele>
        <time>2022-05-14T11:14:06.332Z</time>
      </trkpt>
      <trkpt lat="39.53633167" lon="2.57386333">
        <ele>26.0</ele>
        <time>2022-05-14T11:14:07.332Z</time>
      </trkpt>
      <trkpt lat="39.53630333" lon="2.57385167">
        <ele>26.0</ele>
        <time>2022-05-14T11:14:08.332Z</time>
      </trkpt>
      <trkpt lat="39.53627667" lon="2.573845">
        <ele>26.0</ele>
        <time>2022-05-14T11:14:09.332Z</time>
      </trkpt>
      <trkpt lat="39.53624833" lon="2.57383667">
        <ele>26.0</ele>
        <time>2022-05-14T11:14:10.332Z</time>
      </trkpt>
      <trkpt lat="39.53622" lon="2.57383">
        <ele>26.0</ele>
        <time>2022-05-14T11:14:11.332Z</time>
      </trkpt>
      <trkpt lat="39.536195" lon="2.57382">
        <ele>25.0</ele>
        <time>2022-05-14T11:14:12.331Z</time>
      </trkpt>
      <trkpt lat="39.53616833" lon="2.57381167">
        <ele>25.0</ele>
        <time>2022-05-14T11:14:13.332Z</time>
      </trkpt>
      <trkpt lat="39.53614333" lon="2.57380167">
        <ele>25.0</ele>
        <time>2022-05-14T11:14:14.332Z</time>
      </trkpt>
      <trkpt lat="39.53612167" lon="2.57379333">
        <ele>25.0</ele>
        <time>2022-05-14T11:14:15.332Z</time>
      </trkpt>
      <trkpt lat="39.53609833" lon="2.573785">
        <ele>25.0</ele>
        <time>2022-05-14T11:14:16.332Z</time>
      </trkpt>
      <trkpt lat="39.53607333" lon="2.57377833">
        <ele>25.0</ele>
        <time>2022-05-14T11:14:17.332Z</time>
      </trkpt>
      <trkpt lat="39.53604667" lon="2.57377333">
        <ele>25.0</ele>
        <time>2022-05-14T11:14:18.332Z</time>
      </trkpt>
      <trkpt lat="39.53602167" lon="2.57377">
        <ele>25.0</ele>
        <time>2022-05-14T11:14:19.332Z</time>
      </trkpt>
      <trkpt lat="39.535995" lon="2.57377">
        <ele>25.0</ele>
        <time>2022-05-14T11:14:20.332Z</time>
      </trkpt>
      <trkpt lat="39.53596833" lon="2.57377">
        <ele>25.0</ele>
        <time>2022-05-14T11:14:21.332Z</time>
      </trkpt>
      <trkpt lat="39.53594333" lon="2.57376667">
        <ele>25.0</ele>
        <time>2022-05-14T11:14:22.332Z</time>
      </trkpt>
      <trkpt lat="39.53591667" lon="2.573765">
        <ele>25.0</ele>
        <time>2022-05-14T11:14:23.332Z</time>
      </trkpt>
      <trkpt lat="39.53588833" lon="2.573765">
        <ele>25.0</ele>
        <time>2022-05-14T11:14:24.332Z</time>
      </trkpt>
      <trkpt lat="39.53586167" lon="2.57376667">
        <ele>25.0</ele>
        <time>2022-05-14T11:14:25.332Z</time>
      </trkpt>
      <trkpt lat="39.53583833" lon="2.57376667">
        <ele>25.0</ele>
        <time>2022-05-14T11:14:26.332Z</time>
      </trkpt>
      <trkpt lat="39.535815" lon="2.57376333">
        <ele>25.0</ele>
        <time>2022-05-14T11:14:27.332Z</time>
      </trkpt>
      <trkpt lat="39.53579" lon="2.57376">
        <ele>25.0</ele>
        <time>2022-05-14T11:14:28.331Z</time>
      </trkpt>
      <trkpt lat="39.53576167" lon="2.57376">
        <ele>25.0</ele>
        <time>2022-05-14T11:14:29.332Z</time>
      </trkpt>
      <trkpt lat="39.535735" lon="2.57376667">
        <ele>25.0</ele>
        <time>2022-05-14T11:14:30.332Z</time>
      </trkpt>
      <trkpt lat="39.53571" lon="2.57377167">
        <ele>25.0</ele>
        <time>2022-05-14T11:14:31.331Z</time>
      </trkpt>
      <trkpt lat="39.53568667" lon="2.57377167">
        <ele>26.0</ele>
        <time>2022-05-14T11:14:32.331Z</time>
      </trkpt>
      <trkpt lat="39.53566333" lon="2.57376667">
        <ele>26.0</ele>
        <time>2022-05-14T11:14:33.332Z</time>
      </trkpt>
      <trkpt lat="39.53563833" lon="2.57376333">
        <ele>26.0</ele>
        <time>2022-05-14T11:14:34.332Z</time>
      </trkpt>
      <trkpt lat="39.53561333" lon="2.57376">
        <ele>26.0</ele>
        <time>2022-05-14T11:14:35.332Z</time>
      </trkpt>
      <trkpt lat="39.535585" lon="2.57376167">
        <ele>26.0</ele>
        <time>2022-05-14T11:14:36.331Z</time>
      </trkpt>
      <trkpt lat="39.53556" lon="2.57376167">
        <ele>26.0</ele>
        <time>2022-05-14T11:14:37.332Z</time>
      </trkpt>
      <trkpt lat="39.53553167" lon="2.57376333">
        <ele>26.0</ele>
        <time>2022-05-14T11:14:38.332Z</time>
      </trkpt>
      <trkpt lat="39.535505" lon="2.57376333">
        <ele>27.0</ele>
        <time>2022-05-14T11:14:39.332Z</time>
      </trkpt>
      <trkpt lat="39.53547833" lon="2.573765">
        <ele>27.0</ele>
        <time>2022-05-14T11:14:40.332Z</time>
      </trkpt>
      <trkpt lat="39.53545333" lon="2.57376333">
        <ele>27.0</ele>
        <time>2022-05-14T11:14:41.331Z</time>
      </trkpt>
      <trkpt lat="39.53542667" lon="2.57376167">
        <ele>27.0</ele>
        <time>2022-05-14T11:14:42.331Z</time>
      </trkpt>
      <trkpt lat="39.5354" lon="2.57375667">
        <ele>28.0</ele>
        <time>2022-05-14T11:14:43.332Z</time>
      </trkpt>
      <trkpt lat="39.53537167" lon="2.57375333">
        <ele>28.0</ele>
        <time>2022-05-14T11:14:44.332Z</time>
      </trkpt>
      <trkpt lat="39.535345" lon="2.57375333">
        <ele>28.0</ele>
        <time>2022-05-14T11:14:45.332Z</time>
      </trkpt>
      <trkpt lat="39.53531833" lon="2.573755">
        <ele>29.0</ele>
        <time>2022-05-14T11:14:46.331Z</time>
      </trkpt>
      <trkpt lat="39.53529167" lon="2.57375667">
        <ele>29.0</ele>
        <time>2022-05-14T11:14:47.332Z</time>
      </trkpt>
      <trkpt lat="39.535265" lon="2.57376">
        <ele>30.0</ele>
        <time>2022-05-14T11:14:48.332Z</time>
      </trkpt>
      <trkpt lat="39.53524" lon="2.57376167">
        <ele>31.0</ele>
        <time>2022-05-14T11:14:49.332Z</time>
      </trkpt>
      <trkpt lat="39.53521167" lon="2.57376167">
        <ele>31.0</ele>
        <time>2022-05-14T11:14:50.332Z</time>
      </trkpt>
      <trkpt lat="39.53518333" lon="2.57376167">
        <ele>32.0</ele>
        <time>2022-05-14T11:14:51.331Z</time>
      </trkpt>
      <trkpt lat="39.53515667" lon="2.57375833">
        <ele>32.0</ele>
        <time>2022-05-14T11:14:52.332Z</time>
      </trkpt>
      <trkpt lat="39.53512833" lon="2.57375333">
        <ele>33.0</ele>
        <time>2022-05-14T11:14:53.332Z</time>
      </trkpt>
      <trkpt lat="39.535105" lon="2.57373833">
        <ele>33.0</ele>
        <time>2022-05-14T11:14:54.332Z</time>
      </trkpt>
      <trkpt lat="39.53508333" lon="2.57372167">
        <ele>34.0</ele>
        <time>2022-05-14T11:14:55.332Z</time>
      </trkpt>
      <trkpt lat="39.53506167" lon="2.5737">
        <ele>34.0</ele>
        <time>2022-05-14T11:14:56.332Z</time>
      </trkpt>
      <trkpt lat="39.535045" lon="2.57367833">
        <ele>35.0</ele>
        <time>2022-05-14T11:14:57.332Z</time>
      </trkpt>
      <trkpt lat="39.53503" lon="2.57365833">
        <ele>35.0</ele>
        <time>2022-05-14T11:14:58.332Z</time>
      </trkpt>
      <trkpt lat="39.53501833" lon="2.57363833">
        <ele>36.0</ele>
        <time>2022-05-14T11:14:59.332Z</time>
      </trkpt>
      <trkpt lat="39.53500833" lon="2.57361667">
        <ele>36.0</ele>
        <time>2022-05-14T11:15:00.332Z</time>
      </trkpt>
      <trkpt lat="39.53500167" lon="2.57358833">
        <ele>37.0</ele>
        <time>2022-05-14T11:15:01.332Z</time>
      </trkpt>
      <trkpt lat="39.53499333" lon="2.57355833">
        <ele>37.0</ele>
        <time>2022-05-14T11:15:02.331Z</time>
      </trkpt>
      <trkpt lat="39.53498833" lon="2.573525">
        <ele>37.0</ele>
        <time>2022-05-14T11:15:03.332Z</time>
      </trkpt>
      <trkpt lat="39.53498667" lon="2.57349833">
        <ele>38.0</ele>
        <time>2022-05-14T11:15:04.332Z</time>
      </trkpt>
      <trkpt lat="39.53498667" lon="2.57346667">
        <ele>38.0</ele>
        <time>2022-05-14T11:15:05.332Z</time>
      </trkpt>
      <trkpt lat="39.53499" lon="2.573435">
        <ele>38.0</ele>
        <time>2022-05-14T11:15:06.332Z</time>
      </trkpt>
      <trkpt lat="39.53499167" lon="2.57339667">
        <ele>39.0</ele>
        <time>2022-05-14T11:15:07.331Z</time>
      </trkpt>
      <trkpt lat="39.534995" lon="2.57336333">
        <ele>39.0</ele>
        <time>2022-05-14T11:15:08.332Z</time>
      </trkpt>
      <trkpt lat="39.53500333" lon="2.57333333">
        <ele>39.0</ele>
        <time>2022-05-14T11:15:09.332Z</time>
      </trkpt>
      <trkpt lat="39.53500833" lon="2.573305">
        <ele>39.0</ele>
        <time>2022-05-14T11:15:10.332Z</time>
      </trkpt>
      <trkpt lat="39.53501667" lon="2.57327833">
        <ele>39.0</ele>
        <time>2022-05-14T11:15:11.332Z</time>
      </trkpt>
      <trkpt lat="39.53502833" lon="2.57325167">
        <ele>39.0</ele>
        <time>2022-05-14T11:15:12.332Z</time>
      </trkpt>
      <trkpt lat="39.53503833" lon="2.57322167">
        <ele>39.0</ele>
        <time>2022-05-14T11:15:13.331Z</time>
      </trkpt>
      <trkpt lat="39.53504333" lon="2.57319167">
        <ele>39.0</ele>
        <time>2022-05-14T11:15:14.332Z</time>
      </trkpt>
      <trkpt lat="39.53504833" lon="2.57315833">
        <ele>39.0</ele>
        <time>2022-05-14T11:15:15.332Z</time>
      </trkpt>
      <trkpt lat="39.53505167" lon="2.57312333">
        <ele>40.0</ele>
        <time>2022-05-14T11:15:16.331Z</time>
      </trkpt>
      <trkpt lat="39.53505333" lon="2.57309333">
        <ele>40.0</ele>
        <time>2022-05-14T11:15:17.332Z</time>
      </trkpt>
      <trkpt lat="39.535055" lon="2.57306333">
        <ele>40.0</ele>
        <time>2022-05-14T11:15:18.332Z</time>
      </trkpt>
      <trkpt lat="39.535055" lon="2.57303167">
        <ele>40.0</ele>
        <time>2022-05-14T11:15:19.332Z</time>
      </trkpt>
      <trkpt lat="39.53506" lon="2.57299833">
        <ele>40.0</ele>
        <time>2022-05-14T11:15:20.332Z</time>
      </trkpt>
      <trkpt lat="39.535065" lon="2.572965">
        <ele>39.0</ele>
        <time>2022-05-14T11:15:21.332Z</time>
      </trkpt>
      <trkpt lat="39.53507167" lon="2.57293667">
        <ele>39.0</ele>
        <time>2022-05-14T11:15:22.332Z</time>
      </trkpt>
      <trkpt lat="39.53508167" lon="2.57290833">
        <ele>39.0</ele>
        <time>2022-05-14T11:15:23.332Z</time>
      </trkpt>
      <trkpt lat="39.535095" lon="2.572885">
        <ele>39.0</ele>
        <time>2022-05-14T11:15:24.331Z</time>
      </trkpt>
      <trkpt lat="39.53511167" lon="2.57286667">
        <ele>39.0</ele>
        <time>2022-05-14T11:15:25.332Z</time>
      </trkpt>
      <trkpt lat="39.53513" lon="2.572855">
        <ele>38.0</ele>
        <time>2022-05-14T11:15:26.332Z</time>
      </trkpt>
      <trkpt lat="39.53514833" lon="2.57284167">
        <ele>38.0</ele>
        <time>2022-05-14T11:15:27.332Z</time>
      </trkpt>
      <trkpt lat="39.53516167" lon="2.57282">
        <ele>38.0</ele>
        <time>2022-05-14T11:15:28.332Z</time>
      </trkpt>
      <trkpt lat="39.53516833" lon="2.572795">
        <ele>38.0</ele>
        <time>2022-05-14T11:15:29.332Z</time>
      </trkpt>
      <trkpt lat="39.53517" lon="2.57276667">
        <ele>38.0</ele>
        <time>2022-05-14T11:15:30.331Z</time>
      </trkpt>
      <trkpt lat="39.53517167" lon="2.57273667">
        <ele>38.0</ele>
        <time>2022-05-14T11:15:31.332Z</time>
      </trkpt>
      <trkpt lat="39.53517833" lon="2.57270833">
        <ele>37.0</ele>
        <time>2022-05-14T11:15:32.332Z</time>
      </trkpt>
      <trkpt lat="39.53518833" lon="2.57268167">
        <ele>37.0</ele>
        <time>2022-05-14T11:15:33.331Z</time>
      </trkpt>
      <trkpt lat="39.53519833" lon="2.57265833">
        <ele>37.0</ele>
        <time>2022-05-14T11:15:34.331Z</time>
      </trkpt>
      <trkpt lat="39.53521" lon="2.57263333">
        <ele>37.0</ele>
        <time>2022-05-14T11:15:35.332Z</time>
      </trkpt>
      <trkpt lat="39.53522" lon="2.57261">
        <ele>37.0</ele>
        <time>2022-05-14T11:15:36.331Z</time>
      </trkpt>
      <trkpt lat="39.53522833" lon="2.57258833">
        <ele>37.0</ele>
        <time>2022-05-14T11:15:37.331Z</time>
      </trkpt>
      <trkpt lat="39.53523" lon="2.57256667">
        <ele>37.0</ele>
        <time>2022-05-14T11:15:38.332Z</time>
      </trkpt>
      <trkpt lat="39.53523" lon="2.57254667">
        <ele>37.0</ele>
        <time>2022-05-14T11:15:39.332Z</time>
      </trkpt>
      <trkpt lat="39.53523167" lon="2.572525">
        <ele>37.0</ele>
        <time>2022-05-14T11:15:40.332Z</time>
      </trkpt>
      <trkpt lat="39.535235" lon="2.57250167">
        <ele>37.0</ele>
        <time>2022-05-14T11:15:41.332Z</time>
      </trkpt>
      <trkpt lat="39.53524" lon="2.57248167">
        <ele>37.0</ele>
        <time>2022-05-14T11:15:42.332Z</time>
      </trkpt>
      <trkpt lat="39.53524667" lon="2.57246">
        <ele>37.0</ele>
        <time>2022-05-14T11:15:43.331Z</time>
      </trkpt>
      <trkpt lat="39.53525333" lon="2.572435">
        <ele>37.0</ele>
        <time>2022-05-14T11:15:44.332Z</time>
      </trkpt>
      <trkpt lat="39.53525667" lon="2.57241167">
        <ele>37.0</ele>
        <time>2022-05-14T11:15:45.332Z</time>
      </trkpt>
      <trkpt lat="39.535255" lon="2.57239333">
        <ele>37.0</ele>
        <time>2022-05-14T11:15:46.332Z</time>
      </trkpt>
      <trkpt lat="39.53524667" lon="2.57237167">
        <ele>38.0</ele>
        <time>2022-05-14T11:15:47.332Z</time>
      </trkpt>
      <trkpt lat="39.53524" lon="2.57235">
        <ele>38.0</ele>
        <time>2022-05-14T11:15:48.332Z</time>
      </trkpt>
      <trkpt lat="39.535235" lon="2.572325">
        <ele>39.0</ele>
        <time>2022-05-14T11:15:49.332Z</time>
      </trkpt>
      <trkpt lat="39.53522833" lon="2.57230333">
        <ele>39.0</ele>
        <time>2022-05-14T11:15:50.332Z</time>
      </trkpt>
      <trkpt lat="39.53522167" lon="2.572285">
        <ele>39.0</ele>
        <time>2022-05-14T11:15:51.332Z</time>
      </trkpt>
      <trkpt lat="39.53521333" lon="2.57227">
        <ele>39.0</ele>
        <time>2022-05-14T11:15:52.331Z</time>
      </trkpt>
      <trkpt lat="39.5352" lon="2.57225833">
        <ele>39.0</ele>
        <time>2022-05-14T11:15:53.332Z</time>
      </trkpt>
      <trkpt lat="39.53518333" lon="2.57225167">
        <ele>39.0</ele>
        <time>2022-05-14T11:15:54.331Z</time>
      </trkpt>
      <trkpt lat="39.53516667" lon="2.57225">
        <ele>40.0</ele>
        <time>2022-05-14T11:15:55.332Z</time>
      </trkpt>
      <trkpt lat="39.53514833" lon="2.57224333">
        <ele>40.0</ele>
        <time>2022-05-14T11:15:56.332Z</time>
      </trkpt>
      <trkpt lat="39.53513333" lon="2.57222833">
        <ele>40.0</ele>
        <time>2022-05-14T11:15:57.332Z</time>
      </trkpt>
      <trkpt lat="39.53512667" lon="2.57220833">
        <ele>40.0</ele>
        <time>2022-05-14T11:15:58.332Z</time>
      </trkpt>
      <trkpt lat="39.53512833" lon="2.57218667">
        <ele>41.0</ele>
        <time>2022-05-14T11:15:59.332Z</time>
      </trkpt>
      <trkpt lat="39.53513667" lon="2.57216333">
        <ele>41.0</ele>
        <time>2022-05-14T11:16:00.332Z</time>
      </trkpt>
      <trkpt lat="39.53514167" lon="2.57214">
        <ele>41.0</ele>
        <time>2022-05-14T11:16:01.332Z</time>
      </trkpt>
      <trkpt lat="39.53514833" lon="2.57211833">
        <ele>41.0</ele>
        <time>2022-05-14T11:16:02.332Z</time>
      </trkpt>
      <trkpt lat="39.535155" lon="2.572095">
        <ele>42.0</ele>
        <time>2022-05-14T11:16:03.332Z</time>
      </trkpt>
      <trkpt lat="39.53515833" lon="2.57207333">
        <ele>42.0</ele>
        <time>2022-05-14T11:16:04.331Z</time>
      </trkpt>
      <trkpt lat="39.53516167" lon="2.57205">
        <ele>42.0</ele>
        <time>2022-05-14T11:16:05.332Z</time>
      </trkpt>
      <trkpt lat="39.535165" lon="2.57202667">
        <ele>42.0</ele>
        <time>2022-05-14T11:16:06.331Z</time>
      </trkpt>
      <trkpt lat="39.53517" lon="2.57200333">
        <ele>42.0</ele>
        <time>2022-05-14T11:16:07.332Z</time>
      </trkpt>
      <trkpt lat="39.53517333" lon="2.57198">
        <ele>42.0</ele>
        <time>2022-05-14T11:16:08.332Z</time>
      </trkpt>
      <trkpt lat="39.53517667" lon="2.57195333">
        <ele>41.0</ele>
        <time>2022-05-14T11:16:09.332Z</time>
      </trkpt>
      <trkpt lat="39.53517833" lon="2.57193">
        <ele>41.0</ele>
        <time>2022-05-14T11:16:10.332Z</time>
      </trkpt>
      <trkpt lat="39.53518" lon="2.57190333">
        <ele>41.0</ele>
        <time>2022-05-14T11:16:11.332Z</time>
      </trkpt>
      <trkpt lat="39.53518333" lon="2.57187833">
        <ele>41.0</ele>
        <time>2022-05-14T11:16:12.331Z</time>
      </trkpt>
      <trkpt lat="39.53518667" lon="2.571855">
        <ele>41.0</ele>
        <time>2022-05-14T11:16:13.332Z</time>
      </trkpt>
      <trkpt lat="39.53518833" lon="2.57183167">
        <ele>41.0</ele>
        <time>2022-05-14T11:16:14.332Z</time>
      </trkpt>
      <trkpt lat="39.53519333" lon="2.571805">
        <ele>40.0</ele>
        <time>2022-05-14T11:16:15.331Z</time>
      </trkpt>
      <trkpt lat="39.535205" lon="2.57177833">
        <ele>40.0</ele>
        <time>2022-05-14T11:16:16.332Z</time>
      </trkpt>
      <trkpt lat="39.53521833" lon="2.57175833">
        <ele>40.0</ele>
        <time>2022-05-14T11:16:17.332Z</time>
      </trkpt>
      <trkpt lat="39.53522833" lon="2.57173833">
        <ele>40.0</ele>
        <time>2022-05-14T11:16:18.331Z</time>
      </trkpt>
      <trkpt lat="39.53523333" lon="2.57171167">
        <ele>40.0</ele>
        <time>2022-05-14T11:16:19.331Z</time>
      </trkpt>
      <trkpt lat="39.535235" lon="2.57168667">
        <ele>39.0</ele>
        <time>2022-05-14T11:16:20.331Z</time>
      </trkpt>
      <trkpt lat="39.53522667" lon="2.57166">
        <ele>39.0</ele>
        <time>2022-05-14T11:16:21.332Z</time>
      </trkpt>
      <trkpt lat="39.53522167" lon="2.57163333">
        <ele>39.0</ele>
        <time>2022-05-14T11:16:22.332Z</time>
      </trkpt>
      <trkpt lat="39.53522333" lon="2.57160167">
        <ele>40.0</ele>
        <time>2022-05-14T11:16:23.332Z</time>
      </trkpt>
      <trkpt lat="39.53523333" lon="2.57157667">
        <ele>40.0</ele>
        <time>2022-05-14T11:16:24.331Z</time>
      </trkpt>
      <trkpt lat="39.53524333" lon="2.571555">
        <ele>40.0</ele>
        <time>2022-05-14T11:16:25.331Z</time>
      </trkpt>
      <trkpt lat="39.53525667" lon="2.57153667">
        <ele>41.0</ele>
        <time>2022-05-14T11:16:26.332Z</time>
      </trkpt>
      <trkpt lat="39.53526667" lon="2.57151833">
        <ele>40.0</ele>
        <time>2022-05-14T11:16:27.332Z</time>
      </trkpt>
      <trkpt lat="39.53527667" lon="2.57149333">
        <ele>40.0</ele>
        <time>2022-05-14T11:16:28.332Z</time>
      </trkpt>
      <trkpt lat="39.53529167" lon="2.57147333">
        <ele>40.0</ele>
        <time>2022-05-14T11:16:29.331Z</time>
      </trkpt>
      <trkpt lat="39.5353" lon="2.57145667">
        <ele>40.0</ele>
        <time>2022-05-14T11:16:30.331Z</time>
      </trkpt>
      <trkpt lat="39.53530833" lon="2.571435">
        <ele>40.0</ele>
        <time>2022-05-14T11:16:31.332Z</time>
      </trkpt>
      <trkpt lat="39.53531333" lon="2.57140667">
        <ele>40.0</ele>
        <time>2022-05-14T11:16:32.332Z</time>
      </trkpt>
      <trkpt lat="39.53531667" lon="2.57138833">
        <ele>40.0</ele>
        <time>2022-05-14T11:16:33.332Z</time>
      </trkpt>
      <trkpt lat="39.53532167" lon="2.57136667">
        <ele>39.0</ele>
        <time>2022-05-14T11:16:34.331Z</time>
      </trkpt>
      <trkpt lat="39.53532833" lon="2.57134667">
        <ele>39.0</ele>
        <time>2022-05-14T11:16:35.332Z</time>
      </trkpt>
      <trkpt lat="39.535335" lon="2.57132833">
        <ele>39.0</ele>
        <time>2022-05-14T11:16:36.331Z</time>
      </trkpt>
      <trkpt lat="39.535345" lon="2.57130667">
        <ele>39.0</ele>
        <time>2022-05-14T11:16:37.332Z</time>
      </trkpt>
      <trkpt lat="39.535355" lon="2.57128667">
        <ele>39.0</ele>
        <time>2022-05-14T11:16:38.332Z</time>
      </trkpt>
      <trkpt lat="39.53536" lon="2.57127167">
        <ele>39.0</ele>
        <time>2022-05-14T11:16:39.331Z</time>
      </trkpt>
      <trkpt lat="39.53536833" lon="2.57125333">
        <ele>40.0</ele>
        <time>2022-05-14T11:16:40.332Z</time>
      </trkpt>
      <trkpt lat="39.53538" lon="2.57123667">
        <ele>40.0</ele>
        <time>2022-05-14T11:16:41.331Z</time>
      </trkpt>
      <trkpt lat="39.53539333" lon="2.57121667">
        <ele>41.0</ele>
        <time>2022-05-14T11:16:42.332Z</time>
      </trkpt>
      <trkpt lat="39.53540167" lon="2.57119667">
        <ele>41.0</ele>
        <time>2022-05-14T11:16:43.332Z</time>
      </trkpt>
      <trkpt lat="39.53541" lon="2.57117833">
        <ele>42.0</ele>
        <time>2022-05-14T11:16:44.331Z</time>
      </trkpt>
      <trkpt lat="39.53542167" lon="2.571155">
        <ele>42.0</ele>
        <time>2022-05-14T11:16:45.331Z</time>
      </trkpt>
      <trkpt lat="39.535435" lon="2.57113">
        <ele>42.0</ele>
        <time>2022-05-14T11:16:46.331Z</time>
      </trkpt>
      <trkpt lat="39.53545" lon="2.57111">
        <ele>42.0</ele>
        <time>2022-05-14T11:16:47.331Z</time>
      </trkpt>
      <trkpt lat="39.53546167" lon="2.57109">
        <ele>42.0</ele>
        <time>2022-05-14T11:16:48.331Z</time>
      </trkpt>
      <trkpt lat="39.53547167" lon="2.57107667">
        <ele>42.0</ele>
        <time>2022-05-14T11:16:49.332Z</time>
      </trkpt>
      <trkpt lat="39.53548667" lon="2.57105667">
        <ele>42.0</ele>
        <time>2022-05-14T11:16:50.331Z</time>
      </trkpt>
      <trkpt lat="39.53549667" lon="2.57104333">
        <ele>42.0</ele>
        <time>2022-05-14T11:16:51.331Z</time>
      </trkpt>
      <trkpt lat="39.53551" lon="2.57102833">
        <ele>42.0</ele>
        <time>2022-05-14T11:16:52.331Z</time>
      </trkpt>
      <trkpt lat="39.53552" lon="2.57101667">
        <ele>42.0</ele>
        <time>2022-05-14T11:16:53.331Z</time>
      </trkpt>
      <trkpt lat="39.53553" lon="2.57100833">
        <ele>42.0</ele>
        <time>2022-05-14T11:16:54.332Z</time>
      </trkpt>
      <trkpt lat="39.53554" lon="2.571">
        <ele>42.0</ele>
        <time>2022-05-14T11:16:55.332Z</time>
      </trkpt>
      <trkpt lat="39.53555" lon="2.57099">
        <ele>42.0</ele>
        <time>2022-05-14T11:16:56.332Z</time>
      </trkpt>
      <trkpt lat="39.53556167" lon="2.57097833">
        <ele>42.0</ele>
        <time>2022-05-14T11:16:57.332Z</time>
      </trkpt>
      <trkpt lat="39.53557833" lon="2.57096167">
        <ele>43.0</ele>
        <time>2022-05-14T11:16:58.331Z</time>
      </trkpt>
      <trkpt lat="39.53558667" lon="2.57094667">
        <ele>43.0</ele>
        <time>2022-05-14T11:16:59.332Z</time>
      </trkpt>
      <trkpt lat="39.53560167" lon="2.57093167">
        <ele>43.0</ele>
        <time>2022-05-14T11:17:00.331Z</time>
      </trkpt>
      <trkpt lat="39.53561167" lon="2.57091833">
        <ele>44.0</ele>
        <time>2022-05-14T11:17:01.331Z</time>
      </trkpt>
      <trkpt lat="39.53563" lon="2.57089833">
        <ele>44.0</ele>
        <time>2022-05-14T11:17:02.332Z</time>
      </trkpt>
      <trkpt lat="39.53564667" lon="2.57088">
        <ele>44.0</ele>
        <time>2022-05-14T11:17:03.331Z</time>
      </trkpt>
      <trkpt lat="39.53566667" lon="2.57085667">
        <ele>44.0</ele>
        <time>2022-05-14T11:17:04.331Z</time>
      </trkpt>
      <trkpt lat="39.53569" lon="2.57083333">
        <ele>45.0</ele>
        <time>2022-05-14T11:17:05.331Z</time>
      </trkpt>
      <trkpt lat="39.53572167" lon="2.57080667">
        <ele>44.0</ele>
        <time>2022-05-14T11:17:06.331Z</time>
      </trkpt>
      <trkpt lat="39.535745" lon="2.57079">
        <ele>44.0</ele>
        <time>2022-05-14T11:17:07.332Z</time>
      </trkpt>
      <trkpt lat="39.53577667" lon="2.57077333">
        <ele>43.0</ele>
        <time>2022-05-14T11:17:08.332Z</time>
      </trkpt>
      <trkpt lat="39.535815" lon="2.57075333">
        <ele>43.0</ele>
        <time>2022-05-14T11:17:09.331Z</time>
      </trkpt>
      <trkpt lat="39.53585167" lon="2.57073333">
        <ele>42.0</ele>
        <time>2022-05-14T11:17:10.332Z</time>
      </trkpt>
      <trkpt lat="39.53589167" lon="2.57071167">
        <ele>42.0</ele>
        <time>2022-05-14T11:17:11.331Z</time>
      </trkpt>
      <trkpt lat="39.53592333" lon="2.570695">
        <ele>43.0</ele>
        <time>2022-05-14T11:17:12.332Z</time>
      </trkpt>
      <trkpt lat="39.53596667" lon="2.570675">
        <ele>43.0</ele>
        <time>2022-05-14T11:17:13.332Z</time>
      </trkpt>
      <trkpt lat="39.53601167" lon="2.57065333">
        <ele>43.0</ele>
        <time>2022-05-14T11:17:14.332Z</time>
      </trkpt>
      <trkpt lat="39.53605833" lon="2.57063167">
        <ele>43.0</ele>
        <time>2022-05-14T11:17:15.332Z</time>
      </trkpt>
      <trkpt lat="39.53610167" lon="2.57061333">
        <ele>43.0</ele>
        <time>2022-05-14T11:17:16.331Z</time>
      </trkpt>
      <trkpt lat="39.53615" lon="2.57059833">
        <ele>43.0</ele>
        <time>2022-05-14T11:17:17.332Z</time>
      </trkpt>
      <trkpt lat="39.53619667" lon="2.57058167">
        <ele>42.0</ele>
        <time>2022-05-14T11:17:18.331Z</time>
      </trkpt>
      <trkpt lat="39.53624667" lon="2.57056167">
        <ele>42.0</ele>
        <time>2022-05-14T11:17:19.332Z</time>
      </trkpt>
      <trkpt lat="39.53630833" lon="2.57053833">
        <ele>42.0</ele>
        <time>2022-05-14T11:17:20.331Z</time>
      </trkpt>
      <trkpt lat="39.53635167" lon="2.57052333">
        <ele>42.0</ele>
        <time>2022-05-14T11:17:21.331Z</time>
      </trkpt>
      <trkpt lat="39.53640333" lon="2.57050667">
        <ele>42.0</ele>
        <time>2022-05-14T11:17:22.332Z</time>
      </trkpt>
      <trkpt lat="39.53646167" lon="2.57048333">
        <ele>42.0</ele>
        <time>2022-05-14T11:17:23.331Z</time>
      </trkpt>
      <trkpt lat="39.53651333" lon="2.57046667">
        <ele>42.0</ele>
        <time>2022-05-14T11:17:24.332Z</time>
      </trkpt>
      <trkpt lat="39.53656667" lon="2.57044833">
        <ele>43.0</ele>
        <time>2022-05-14T11:17:25.332Z</time>
      </trkpt>
      <trkpt lat="39.53662" lon="2.57043333">
        <ele>43.0</ele>
        <time>2022-05-14T11:17:26.331Z</time>
      </trkpt>
      <trkpt lat="39.53666667" lon="2.57041333">
        <ele>43.0</ele>
        <time>2022-05-14T11:17:27.332Z</time>
      </trkpt>
      <trkpt lat="39.53670667" lon="2.57039167">
        <ele>43.0</ele>
        <time>2022-05-14T11:17:28.331Z</time>
      </trkpt>
      <trkpt lat="39.53674333" lon="2.57036667">
        <ele>43.0</ele>
        <time>2022-05-14T11:17:29.332Z</time>
      </trkpt>
      <trkpt lat="39.53677333" lon="2.57034333">
        <ele>42.0</ele>
        <time>2022-05-14T11:17:30.331Z</time>
      </trkpt>
      <trkpt lat="39.53681" lon="2.570315">
        <ele>42.0</ele>
        <time>2022-05-14T11:17:31.332Z</time>
      </trkpt>
      <trkpt lat="39.53685833" lon="2.57027333">
        <ele>42.0</ele>
        <time>2022-05-14T11:17:32.332Z</time>
      </trkpt>
      <trkpt lat="39.53689833" lon="2.57023167">
        <ele>42.0</ele>
        <time>2022-05-14T11:17:33.332Z</time>
      </trkpt>
      <trkpt lat="39.53693667" lon="2.57018">
        <ele>42.0</ele>
        <time>2022-05-14T11:17:34.331Z</time>
      </trkpt>
      <trkpt lat="39.536965" lon="2.57013167">
        <ele>41.0</ele>
        <time>2022-05-14T11:17:35.331Z</time>
      </trkpt>
      <trkpt lat="39.53699833" lon="2.570065">
        <ele>41.0</ele>
        <time>2022-05-14T11:17:36.332Z</time>
      </trkpt>
      <trkpt lat="39.53702833" lon="2.56997833">
        <ele>40.0</ele>
        <time>2022-05-14T11:17:37.331Z</time>
      </trkpt>
      <trkpt lat="39.537045" lon="2.56989833">
        <ele>39.0</ele>
        <time>2022-05-14T11:17:38.332Z</time>
      </trkpt>
      <trkpt lat="39.537055" lon="2.569835">
        <ele>39.0</ele>
        <time>2022-05-14T11:17:39.332Z</time>
      </trkpt>
      <trkpt lat="39.53706" lon="2.56975333">
        <ele>38.0</ele>
        <time>2022-05-14T11:17:40.332Z</time>
      </trkpt>
      <trkpt lat="39.537055" lon="2.569655">
        <ele>37.0</ele>
        <time>2022-05-14T11:17:41.331Z</time>
      </trkpt>
      <trkpt lat="39.53704" lon="2.56957333">
        <ele>37.0</ele>
        <time>2022-05-14T11:17:42.332Z</time>
      </trkpt>
      <trkpt lat="39.53702" lon="2.56950833">
        <ele>36.0</ele>
        <time>2022-05-14T11:17:43.332Z</time>
      </trkpt>
      <trkpt lat="39.53699" lon="2.56942667">
        <ele>36.0</ele>
        <time>2022-05-14T11:17:44.332Z</time>
      </trkpt>
      <trkpt lat="39.53695167" lon="2.56934833">
        <ele>35.0</ele>
        <time>2022-05-14T11:17:45.331Z</time>
      </trkpt>
      <trkpt lat="39.53690833" lon="2.569275">
        <ele>35.0</ele>
        <time>2022-05-14T11:17:46.332Z</time>
      </trkpt>
      <trkpt lat="39.53686" lon="2.56920833">
        <ele>35.0</ele>
        <time>2022-05-14T11:17:47.332Z</time>
      </trkpt>
      <trkpt lat="39.53681" lon="2.56914167">
        <ele>34.0</ele>
        <time>2022-05-14T11:17:48.331Z</time>
      </trkpt>
      <trkpt lat="39.53676" lon="2.569075">
        <ele>34.0</ele>
        <time>2022-05-14T11:17:49.331Z</time>
      </trkpt>
      <trkpt lat="39.53670833" lon="2.56901333">
        <ele>33.0</ele>
        <time>2022-05-14T11:17:50.332Z</time>
      </trkpt>
      <trkpt lat="39.536655" lon="2.56895167">
        <ele>33.0</ele>
        <time>2022-05-14T11:17:51.332Z</time>
      </trkpt>
      <trkpt lat="39.53660333" lon="2.56889333">
        <ele>33.0</ele>
        <time>2022-05-14T11:17:52.331Z</time>
      </trkpt>
      <trkpt lat="39.53655" lon="2.56883667">
        <ele>32.0</ele>
        <time>2022-05-14T11:17:53.332Z</time>
      </trkpt>
      <trkpt lat="39.53649667" lon="2.568785">
        <ele>32.0</ele>
        <time>2022-05-14T11:17:54.331Z</time>
      </trkpt>
      <trkpt lat="39.53644167" lon="2.56873667">
        <ele>32.0</ele>
        <time>2022-05-14T11:17:55.332Z</time>
      </trkpt>
      <trkpt lat="39.53639" lon="2.56869333">
        <ele>32.0</ele>
        <time>2022-05-14T11:17:56.331Z</time>
      </trkpt>
      <trkpt lat="39.53633833" lon="2.56865667">
        <ele>32.0</ele>
        <time>2022-05-14T11:17:57.332Z</time>
      </trkpt>
      <trkpt lat="39.53628833" lon="2.56862833">
        <ele>32.0</ele>
        <time>2022-05-14T11:17:58.331Z</time>
      </trkpt>
      <trkpt lat="39.53622667" lon="2.56860167">
        <ele>32.0</ele>
        <time>2022-05-14T11:17:59.332Z</time>
      </trkpt>
      <trkpt lat="39.53618333" lon="2.56858833">
        <ele>31.0</ele>
        <time>2022-05-14T11:18:00.332Z</time>
      </trkpt>
      <trkpt lat="39.536115" lon="2.56856833">
        <ele>31.0</ele>
        <time>2022-05-14T11:18:01.332Z</time>
      </trkpt>
      <trkpt lat="39.53606833" lon="2.56855667">
        <ele>31.0</ele>
        <time>2022-05-14T11:18:02.331Z</time>
      </trkpt>
      <trkpt lat="39.53601333" lon="2.56854333">
        <ele>32.0</ele>
        <time>2022-05-14T11:18:03.332Z</time>
      </trkpt>
      <trkpt lat="39.53594833" lon="2.56853167">
        <ele>32.0</ele>
        <time>2022-05-14T11:18:04.331Z</time>
      </trkpt>
      <trkpt lat="39.53589667" lon="2.56852167">
        <ele>32.0</ele>
        <time>2022-05-14T11:18:05.331Z</time>
      </trkpt>
      <trkpt lat="39.535855" lon="2.568515">
        <ele>32.0</ele>
        <time>2022-05-14T11:18:06.331Z</time>
      </trkpt>
      <trkpt lat="39.53579167" lon="2.568505">
        <ele>32.0</ele>
        <time>2022-05-14T11:18:07.332Z</time>
      </trkpt>
      <trkpt lat="39.53573667" lon="2.56849833">
        <ele>32.0</ele>
        <time>2022-05-14T11:18:08.331Z</time>
      </trkpt>
      <trkpt lat="39.53568167" lon="2.56849">
        <ele>31.0</ele>
        <time>2022-05-14T11:18:09.332Z</time>
      </trkpt>
      <trkpt lat="39.535625" lon="2.56847833">
        <ele>31.0</ele>
        <time>2022-05-14T11:18:10.331Z</time>
      </trkpt>
      <trkpt lat="39.53558" lon="2.568465">
        <ele>30.0</ele>
        <time>2022-05-14T11:18:11.331Z</time>
      </trkpt>
      <trkpt lat="39.535515" lon="2.56845">
        <ele>29.0</ele>
        <time>2022-05-14T11:18:12.331Z</time>
      </trkpt>
      <trkpt lat="39.53545833" lon="2.56844">
        <ele>29.0</ele>
        <time>2022-05-14T11:18:13.332Z</time>
      </trkpt>
      <trkpt lat="39.53540333" lon="2.56842667">
        <ele>28.0</ele>
        <time>2022-05-14T11:18:14.332Z</time>
      </trkpt>
      <trkpt lat="39.535355" lon="2.56842">
        <ele>28.0</ele>
        <time>2022-05-14T11:18:15.332Z</time>
      </trkpt>
      <trkpt lat="39.535295" lon="2.56841167">
        <ele>28.0</ele>
        <time>2022-05-14T11:18:16.331Z</time>
      </trkpt>
      <trkpt lat="39.53523333" lon="2.56840167">
        <ele>28.0</ele>
        <time>2022-05-14T11:18:17.332Z</time>
      </trkpt>
      <trkpt lat="39.53517333" lon="2.56839">
        <ele>28.0</ele>
        <time>2022-05-14T11:18:18.331Z</time>
      </trkpt>
      <trkpt lat="39.53511333" lon="2.56837667">
        <ele>28.0</ele>
        <time>2022-05-14T11:18:19.331Z</time>
      </trkpt>
      <trkpt lat="39.535055" lon="2.56836">
        <ele>28.0</ele>
        <time>2022-05-14T11:18:20.332Z</time>
      </trkpt>
      <trkpt lat="39.53498333" lon="2.56834333">
        <ele>28.0</ele>
        <time>2022-05-14T11:18:21.331Z</time>
      </trkpt>
      <trkpt lat="39.53493167" lon="2.56833333">
        <ele>28.0</ele>
        <time>2022-05-14T11:18:22.332Z</time>
      </trkpt>
      <trkpt lat="39.53486833" lon="2.56831833">
        <ele>28.0</ele>
        <time>2022-05-14T11:18:23.332Z</time>
      </trkpt>
      <trkpt lat="39.53480833" lon="2.56830333">
        <ele>27.0</ele>
        <time>2022-05-14T11:18:24.332Z</time>
      </trkpt>
      <trkpt lat="39.53474667" lon="2.56829167">
        <ele>27.0</ele>
        <time>2022-05-14T11:18:25.332Z</time>
      </trkpt>
      <trkpt lat="39.53467667" lon="2.56827833">
        <ele>27.0</ele>
        <time>2022-05-14T11:18:26.332Z</time>
      </trkpt>
      <trkpt lat="39.53461833" lon="2.56826333">
        <ele>27.0</ele>
        <time>2022-05-14T11:18:27.332Z</time>
      </trkpt>
      <trkpt lat="39.53456333" lon="2.56824833">
        <ele>27.0</ele>
        <time>2022-05-14T11:18:28.331Z</time>
      </trkpt>
      <trkpt lat="39.534505" lon="2.56823833">
        <ele>27.0</ele>
        <time>2022-05-14T11:18:29.332Z</time>
      </trkpt>
      <trkpt lat="39.53444833" lon="2.568225">
        <ele>26.0</ele>
        <time>2022-05-14T11:18:30.332Z</time>
      </trkpt>
      <trkpt lat="39.53439" lon="2.56821833">
        <ele>26.0</ele>
        <time>2022-05-14T11:18:31.332Z</time>
      </trkpt>
      <trkpt lat="39.534335" lon="2.56820167">
        <ele>26.0</ele>
        <time>2022-05-14T11:18:32.332Z</time>
      </trkpt>
      <trkpt lat="39.53428" lon="2.56818167">
        <ele>27.0</ele>
        <time>2022-05-14T11:18:33.332Z</time>
      </trkpt>
      <trkpt lat="39.53423667" lon="2.56816333">
        <ele>26.0</ele>
        <time>2022-05-14T11:18:34.332Z</time>
      </trkpt>
      <trkpt lat="39.53417167" lon="2.56813167">
        <ele>27.0</ele>
        <time>2022-05-14T11:18:35.332Z</time>
      </trkpt>
      <trkpt lat="39.53411833" lon="2.56809667">
        <ele>27.0</ele>
        <time>2022-05-14T11:18:36.332Z</time>
      </trkpt>
      <trkpt lat="39.53406667" lon="2.56805667">
        <ele>27.0</ele>
        <time>2022-05-14T11:18:37.332Z</time>
      </trkpt>
      <trkpt lat="39.53401833" lon="2.56801167">
        <ele>26.0</ele>
        <time>2022-05-14T11:18:38.332Z</time>
      </trkpt>
      <trkpt lat="39.53397167" lon="2.567965">
        <ele>26.0</ele>
        <time>2022-05-14T11:18:39.332Z</time>
      </trkpt>
      <trkpt lat="39.533935" lon="2.56792167">
        <ele>25.0</ele>
        <time>2022-05-14T11:18:40.332Z</time>
      </trkpt>
      <trkpt lat="39.53388333" lon="2.56785">
        <ele>25.0</ele>
        <time>2022-05-14T11:18:41.332Z</time>
      </trkpt>
      <trkpt lat="39.53385" lon="2.56779833">
        <ele>25.0</ele>
        <time>2022-05-14T11:18:42.332Z</time>
      </trkpt>
      <trkpt lat="39.53380667" lon="2.56773333">
        <ele>25.0</ele>
        <time>2022-05-14T11:18:43.332Z</time>
      </trkpt>
      <trkpt lat="39.53377" lon="2.56766">
        <ele>25.0</ele>
        <time>2022-05-14T11:18:44.332Z</time>
      </trkpt>
      <trkpt lat="39.53373667" lon="2.56758333">
        <ele>26.0</ele>
        <time>2022-05-14T11:18:45.332Z</time>
      </trkpt>
      <trkpt lat="39.533705" lon="2.567505">
        <ele>26.0</ele>
        <time>2022-05-14T11:18:46.332Z</time>
      </trkpt>
      <trkpt lat="39.53367833" lon="2.56742167">
        <ele>25.0</ele>
        <time>2022-05-14T11:18:47.332Z</time>
      </trkpt>
      <trkpt lat="39.533655" lon="2.56733333">
        <ele>25.0</ele>
        <time>2022-05-14T11:18:48.332Z</time>
      </trkpt>
      <trkpt lat="39.53362833" lon="2.56722833">
        <ele>25.0</ele>
        <time>2022-05-14T11:18:49.332Z</time>
      </trkpt>
      <trkpt lat="39.53361333" lon="2.56713667">
        <ele>25.0</ele>
        <time>2022-05-14T11:18:50.332Z</time>
      </trkpt>
      <trkpt lat="39.5336" lon="2.56704167">
        <ele>24.0</ele>
        <time>2022-05-14T11:18:51.332Z</time>
      </trkpt>
      <trkpt lat="39.53359333" lon="2.56696667">
        <ele>24.0</ele>
        <time>2022-05-14T11:18:52.332Z</time>
      </trkpt>
      <trkpt lat="39.53358333" lon="2.566855">
        <ele>24.0</ele>
        <time>2022-05-14T11:18:53.332Z</time>
      </trkpt>
      <trkpt lat="39.533575" lon="2.56677833">
        <ele>23.0</ele>
        <time>2022-05-14T11:18:54.332Z</time>
      </trkpt>
      <trkpt lat="39.533565" lon="2.56666">
        <ele>23.0</ele>
        <time>2022-05-14T11:18:55.331Z</time>
      </trkpt>
      <trkpt lat="39.53356" lon="2.566575">
        <ele>23.0</ele>
        <time>2022-05-14T11:18:56.332Z</time>
      </trkpt>
      <trkpt lat="39.53355333" lon="2.56647333">
        <ele>23.0</ele>
        <time>2022-05-14T11:18:57.332Z</time>
      </trkpt>
      <trkpt lat="39.53354833" lon="2.56636667">
        <ele>23.0</ele>
        <time>2022-05-14T11:18:58.332Z</time>
      </trkpt>
      <trkpt lat="39.53354167" lon="2.56623833">
        <ele>22.0</ele>
        <time>2022-05-14T11:18:59.332Z</time>
      </trkpt>
      <trkpt lat="39.53353833" lon="2.56612833">
        <ele>22.0</ele>
        <time>2022-05-14T11:19:00.332Z</time>
      </trkpt>
      <trkpt lat="39.53353667" lon="2.56604167">
        <ele>22.0</ele>
        <time>2022-05-14T11:19:01.331Z</time>
      </trkpt>
      <trkpt lat="39.53353" lon="2.56594167">
        <ele>22.0</ele>
        <time>2022-05-14T11:19:02.332Z</time>
      </trkpt>
      <trkpt lat="39.53353" lon="2.565845">
        <ele>21.0</ele>
        <time>2022-05-14T11:19:03.331Z</time>
      </trkpt>
      <trkpt lat="39.533525" lon="2.56576667">
        <ele>21.0</ele>
        <time>2022-05-14T11:19:04.332Z</time>
      </trkpt>
      <trkpt lat="39.53352333" lon="2.56570333">
        <ele>21.0</ele>
        <time>2022-05-14T11:19:05.332Z</time>
      </trkpt>
      <trkpt lat="39.53353333" lon="2.56566">
        <ele>20.0</ele>
        <time>2022-05-14T11:19:06.332Z</time>
      </trkpt>
      <trkpt lat="39.53355667" lon="2.56563833">
        <ele>20.0</ele>
        <time>2022-05-14T11:19:07.332Z</time>
      </trkpt>
      <trkpt lat="39.533585" lon="2.56561833">
        <ele>19.0</ele>
        <time>2022-05-14T11:19:08.332Z</time>
      </trkpt>
      <trkpt lat="39.53361167" lon="2.56559833">
        <ele>19.0</ele>
        <time>2022-05-14T11:19:09.332Z</time>
      </trkpt>
      <trkpt lat="39.53363667" lon="2.56556">
        <ele>19.0</ele>
        <time>2022-05-14T11:19:10.332Z</time>
      </trkpt>
      <trkpt lat="39.53365" lon="2.56553">
        <ele>18.0</ele>
        <time>2022-05-14T11:19:11.332Z</time>
      </trkpt>
      <trkpt lat="39.533665" lon="2.56548">
        <ele>18.0</ele>
        <time>2022-05-14T11:19:12.332Z</time>
      </trkpt>
      <trkpt lat="39.53367167" lon="2.56544667">
        <ele>17.0</ele>
        <time>2022-05-14T11:19:13.331Z</time>
      </trkpt>
      <trkpt lat="39.53369" lon="2.5654">
        <ele>17.0</ele>
        <time>2022-05-14T11:19:14.332Z</time>
      </trkpt>
      <trkpt lat="39.53371667" lon="2.56535833">
        <ele>17.0</ele>
        <time>2022-05-14T11:19:15.332Z</time>
      </trkpt>
      <trkpt lat="39.53375833" lon="2.565315">
        <ele>17.0</ele>
        <time>2022-05-14T11:19:16.332Z</time>
      </trkpt>
      <trkpt lat="39.53380833" lon="2.56528">
        <ele>18.0</ele>
        <time>2022-05-14T11:19:17.332Z</time>
      </trkpt>
      <trkpt lat="39.533845" lon="2.56525833">
        <ele>18.0</ele>
        <time>2022-05-14T11:19:18.331Z</time>
      </trkpt>
      <trkpt lat="39.53388167" lon="2.56523833">
        <ele>18.0</ele>
        <time>2022-05-14T11:19:19.332Z</time>
      </trkpt>
      <trkpt lat="39.53391167" lon="2.565235">
        <ele>18.0</ele>
        <time>2022-05-14T11:19:20.331Z</time>
      </trkpt>
      <trkpt lat="39.53394833" lon="2.56523">
        <ele>17.0</ele>
        <time>2022-05-14T11:19:21.332Z</time>
      </trkpt>
      <trkpt lat="39.53396667" lon="2.56522667">
        <ele>17.0</ele>
        <time>2022-05-14T11:19:22.331Z</time>
      </trkpt>
      <trkpt lat="39.533985" lon="2.56521167">
        <ele>17.0</ele>
        <time>2022-05-14T11:19:23.331Z</time>
      </trkpt>
      <trkpt lat="39.53399667" lon="2.56518667">
        <ele>17.0</ele>
        <time>2022-05-14T11:19:24.331Z</time>
      </trkpt>
      <trkpt lat="39.53400833" lon="2.56515833">
        <ele>16.0</ele>
        <time>2022-05-14T11:19:25.332Z</time>
      </trkpt>
      <trkpt lat="39.53402333" lon="2.56512167">
        <ele>16.0</ele>
        <time>2022-05-14T11:19:26.332Z</time>
      </trkpt>
      <trkpt lat="39.534035" lon="2.56509167">
        <ele>16.0</ele>
        <time>2022-05-14T11:19:27.331Z</time>
      </trkpt>
      <trkpt lat="39.53404667" lon="2.56506167">
        <ele>16.0</ele>
        <time>2022-05-14T11:19:28.332Z</time>
      </trkpt>
      <trkpt lat="39.53405" lon="2.56503333">
        <ele>16.0</ele>
        <time>2022-05-14T11:19:29.332Z</time>
      </trkpt>
      <trkpt lat="39.53405167" lon="2.56499167">
        <ele>16.0</ele>
        <time>2022-05-14T11:19:30.332Z</time>
      </trkpt>
      <trkpt lat="39.53404333" lon="2.56494833">
        <ele>16.0</ele>
        <time>2022-05-14T11:19:31.331Z</time>
      </trkpt>
      <trkpt lat="39.53402167" lon="2.56489833">
        <ele>16.0</ele>
        <time>2022-05-14T11:19:32.332Z</time>
      </trkpt>
      <trkpt lat="39.53399667" lon="2.56484">
        <ele>17.0</ele>
        <time>2022-05-14T11:19:33.332Z</time>
      </trkpt>
      <trkpt lat="39.53397" lon="2.56477167">
        <ele>17.0</ele>
        <time>2022-05-14T11:19:34.332Z</time>
      </trkpt>
      <trkpt lat="39.53394167" lon="2.56470667">
        <ele>17.0</ele>
        <time>2022-05-14T11:19:35.332Z</time>
      </trkpt>
      <trkpt lat="39.53390833" lon="2.56461833">
        <ele>18.0</ele>
        <time>2022-05-14T11:19:36.332Z</time>
      </trkpt>
      <trkpt lat="39.53387833" lon="2.56454167">
        <ele>18.0</ele>
        <time>2022-05-14T11:19:37.332Z</time>
      </trkpt>
      <trkpt lat="39.53385" lon="2.56447667">
        <ele>17.0</ele>
        <time>2022-05-14T11:19:38.332Z</time>
      </trkpt>
      <trkpt lat="39.53381167" lon="2.56438167">
        <ele>17.0</ele>
        <time>2022-05-14T11:19:39.332Z</time>
      </trkpt>
      <trkpt lat="39.53377833" lon="2.56429667">
        <ele>16.0</ele>
        <time>2022-05-14T11:19:40.332Z</time>
      </trkpt>
      <trkpt lat="39.53374833" lon="2.56421167">
        <ele>16.0</ele>
        <time>2022-05-14T11:19:41.331Z</time>
      </trkpt>
      <trkpt lat="39.53372667" lon="2.56413833">
        <ele>15.0</ele>
        <time>2022-05-14T11:19:42.331Z</time>
      </trkpt>
      <trkpt lat="39.53370167" lon="2.56404333">
        <ele>15.0</ele>
        <time>2022-05-14T11:19:43.332Z</time>
      </trkpt>
      <trkpt lat="39.53367833" lon="2.56394667">
        <ele>14.0</ele>
        <time>2022-05-14T11:19:44.331Z</time>
      </trkpt>
      <trkpt lat="39.53366" lon="2.56383">
        <ele>13.0</ele>
        <time>2022-05-14T11:19:45.331Z</time>
      </trkpt>
      <trkpt lat="39.53365167" lon="2.56374167">
        <ele>13.0</ele>
        <time>2022-05-14T11:19:46.332Z</time>
      </trkpt>
      <trkpt lat="39.53365" lon="2.56367333">
        <ele>13.0</ele>
        <time>2022-05-14T11:19:47.332Z</time>
      </trkpt>
      <trkpt lat="39.53364833" lon="2.56358667">
        <ele>13.0</ele>
        <time>2022-05-14T11:19:48.331Z</time>
      </trkpt>
      <trkpt lat="39.53364667" lon="2.56351833">
        <ele>13.0</ele>
        <time>2022-05-14T11:19:49.332Z</time>
      </trkpt>
      <trkpt lat="39.53364833" lon="2.56345333">
        <ele>13.0</ele>
        <time>2022-05-14T11:19:50.332Z</time>
      </trkpt>
      <trkpt lat="39.53365333" lon="2.56340333">
        <ele>13.0</ele>
        <time>2022-05-14T11:19:51.332Z</time>
      </trkpt>
      <trkpt lat="39.53366" lon="2.56334167">
        <ele>12.0</ele>
        <time>2022-05-14T11:19:52.331Z</time>
      </trkpt>
      <trkpt lat="39.53367" lon="2.56326833">
        <ele>12.0</ele>
        <time>2022-05-14T11:19:53.331Z</time>
      </trkpt>
      <trkpt lat="39.53366833" lon="2.56321">
        <ele>12.0</ele>
        <time>2022-05-14T11:19:54.332Z</time>
      </trkpt>
      <trkpt lat="39.53367" lon="2.56315167">
        <ele>11.0</ele>
        <time>2022-05-14T11:19:55.332Z</time>
      </trkpt>
      <trkpt lat="39.53367167" lon="2.56309333">
        <ele>11.0</ele>
        <time>2022-05-14T11:19:56.332Z</time>
      </trkpt>
      <trkpt lat="39.533675" lon="2.56302333">
        <ele>10.0</ele>
        <time>2022-05-14T11:19:57.331Z</time>
      </trkpt>
      <trkpt lat="39.53366833" lon="2.56295333">
        <ele>10.0</ele>
        <time>2022-05-14T11:19:58.331Z</time>
      </trkpt>
      <trkpt lat="39.533665" lon="2.56289333">
        <ele>10.0</ele>
        <time>2022-05-14T11:19:59.332Z</time>
      </trkpt>
      <trkpt lat="39.53366167" lon="2.56284833">
        <ele>10.0</ele>
        <time>2022-05-14T11:20:00.332Z</time>
      </trkpt>
      <trkpt lat="39.53365833" lon="2.56279167">
        <ele>10.0</ele>
        <time>2022-05-14T11:20:01.332Z</time>
      </trkpt>
      <trkpt lat="39.53365167" lon="2.56272667">
        <ele>11.0</ele>
        <time>2022-05-14T11:20:02.332Z</time>
      </trkpt>
      <trkpt lat="39.53364667" lon="2.562675">
        <ele>10.0</ele>
        <time>2022-05-14T11:20:03.332Z</time>
      </trkpt>
      <trkpt lat="39.53364167" lon="2.56261833">
        <ele>10.0</ele>
        <time>2022-05-14T11:20:04.332Z</time>
      </trkpt>
      <trkpt lat="39.53363667" lon="2.56257167">
        <ele>10.0</ele>
        <time>2022-05-14T11:20:05.332Z</time>
      </trkpt>
      <trkpt lat="39.53363" lon="2.56250333">
        <ele>9.0</ele>
        <time>2022-05-14T11:20:06.332Z</time>
      </trkpt>
      <trkpt lat="39.53362167" lon="2.56244333">
        <ele>9.0</ele>
        <time>2022-05-14T11:20:07.332Z</time>
      </trkpt>
      <trkpt lat="39.53361" lon="2.56238333">
        <ele>9.0</ele>
        <time>2022-05-14T11:20:08.332Z</time>
      </trkpt>
      <trkpt lat="39.5336" lon="2.56232667">
        <ele>8.0</ele>
        <time>2022-05-14T11:20:09.331Z</time>
      </trkpt>
      <trkpt lat="39.53359" lon="2.56228">
        <ele>7.0</ele>
        <time>2022-05-14T11:20:10.331Z</time>
      </trkpt>
      <trkpt lat="39.533575" lon="2.56220667">
        <ele>6.0</ele>
        <time>2022-05-14T11:20:11.331Z</time>
      </trkpt>
      <trkpt lat="39.53356167" lon="2.56214167">
        <ele>6.0</ele>
        <time>2022-05-14T11:20:12.332Z</time>
      </trkpt>
      <trkpt lat="39.533545" lon="2.56207667">
        <ele>6.0</ele>
        <time>2022-05-14T11:20:13.332Z</time>
      </trkpt>
      <trkpt lat="39.53353" lon="2.56202">
        <ele>6.0</ele>
        <time>2022-05-14T11:20:14.331Z</time>
      </trkpt>
      <trkpt lat="39.53351" lon="2.561945">
        <ele>6.0</ele>
        <time>2022-05-14T11:20:15.332Z</time>
      </trkpt>
      <trkpt lat="39.53349167" lon="2.56188333">
        <ele>6.0</ele>
        <time>2022-05-14T11:20:16.332Z</time>
      </trkpt>
      <trkpt lat="39.53347" lon="2.56182167">
        <ele>5.0</ele>
        <time>2022-05-14T11:20:17.331Z</time>
      </trkpt>
      <trkpt lat="39.53345167" lon="2.561775">
        <ele>5.0</ele>
        <time>2022-05-14T11:20:18.331Z</time>
      </trkpt>
      <trkpt lat="39.53343333" lon="2.56171167">
        <ele>5.0</ele>
        <time>2022-05-14T11:20:19.332Z</time>
      </trkpt>
      <trkpt lat="39.53341167" lon="2.56163333">
        <ele>5.0</ele>
        <time>2022-05-14T11:20:20.332Z</time>
      </trkpt>
      <trkpt lat="39.53338833" lon="2.56156833">
        <ele>4.0</ele>
        <time>2022-05-14T11:20:21.332Z</time>
      </trkpt>
      <trkpt lat="39.53336833" lon="2.56150333">
        <ele>5.0</ele>
        <time>2022-05-14T11:20:22.332Z</time>
      </trkpt>
      <trkpt lat="39.53334833" lon="2.56145167">
        <ele>5.0</ele>
        <time>2022-05-14T11:20:23.332Z</time>
      </trkpt>
      <trkpt lat="39.53331833" lon="2.56138333">
        <ele>5.0</ele>
        <time>2022-05-14T11:20:24.332Z</time>
      </trkpt>
      <trkpt lat="39.53329333" lon="2.56132833">
        <ele>5.0</ele>
        <time>2022-05-14T11:20:25.332Z</time>
      </trkpt>
      <trkpt lat="39.53327333" lon="2.56127">
        <ele>6.0</ele>
        <time>2022-05-14T11:20:26.332Z</time>
      </trkpt>
      <trkpt lat="39.53325667" lon="2.56122167">
        <ele>6.0</ele>
        <time>2022-05-14T11:20:27.331Z</time>
      </trkpt>
      <trkpt lat="39.533235" lon="2.56117">
        <ele>6.0</ele>
        <time>2022-05-14T11:20:28.331Z</time>
      </trkpt>
      <trkpt lat="39.53320667" lon="2.56111">
        <ele>7.0</ele>
        <time>2022-05-14T11:20:29.331Z</time>
      </trkpt>
      <trkpt lat="39.53318167" lon="2.56106">
        <ele>7.0</ele>
        <time>2022-05-14T11:20:30.332Z</time>
      </trkpt>
      <trkpt lat="39.533155" lon="2.56100333">
        <ele>7.0</ele>
        <time>2022-05-14T11:20:31.331Z</time>
      </trkpt>
      <trkpt lat="39.53313167" lon="2.56095833">
        <ele>8.0</ele>
        <time>2022-05-14T11:20:32.331Z</time>
      </trkpt>
      <trkpt lat="39.53310167" lon="2.56089667">
        <ele>8.0</ele>
        <time>2022-05-14T11:20:33.332Z</time>
      </trkpt>
      <trkpt lat="39.53308667" lon="2.56084833">
        <ele>8.0</ele>
        <time>2022-05-14T11:20:34.331Z</time>
      </trkpt>
      <trkpt lat="39.53306" lon="2.56078167">
        <ele>9.0</ele>
        <time>2022-05-14T11:20:35.332Z</time>
      </trkpt>
      <trkpt lat="39.53303667" lon="2.560725">
        <ele>9.0</ele>
        <time>2022-05-14T11:20:36.332Z</time>
      </trkpt>
      <trkpt lat="39.53301833" lon="2.56067833">
        <ele>10.0</ele>
        <time>2022-05-14T11:20:37.331Z</time>
      </trkpt>
      <trkpt lat="39.53299167" lon="2.56060833">
        <ele>12.0</ele>
        <time>2022-05-14T11:20:38.332Z</time>
      </trkpt>
      <trkpt lat="39.53296833" lon="2.56055">
        <ele>12.0</ele>
        <time>2022-05-14T11:20:39.332Z</time>
      </trkpt>
      <trkpt lat="39.53294667" lon="2.56049167">
        <ele>13.0</ele>
        <time>2022-05-14T11:20:40.331Z</time>
      </trkpt>
      <trkpt lat="39.53292667" lon="2.56044333">
        <ele>13.0</ele>
        <time>2022-05-14T11:20:41.332Z</time>
      </trkpt>
      <trkpt lat="39.53289833" lon="2.56037333">
        <ele>13.0</ele>
        <time>2022-05-14T11:20:42.332Z</time>
      </trkpt>
      <trkpt lat="39.532875" lon="2.56031667">
        <ele>12.0</ele>
        <time>2022-05-14T11:20:43.332Z</time>
      </trkpt>
      <trkpt lat="39.532855" lon="2.560275">
        <ele>12.0</ele>
        <time>2022-05-14T11:20:44.331Z</time>
      </trkpt>
      <trkpt lat="39.53283" lon="2.56022">
        <ele>11.0</ele>
        <time>2022-05-14T11:20:45.332Z</time>
      </trkpt>
      <trkpt lat="39.53280333" lon="2.56016667">
        <ele>11.0</ele>
        <time>2022-05-14T11:20:46.332Z</time>
      </trkpt>
      <trkpt lat="39.53278" lon="2.56011667">
        <ele>10.0</ele>
        <time>2022-05-14T11:20:47.331Z</time>
      </trkpt>
      <trkpt lat="39.532755" lon="2.56006833">
        <ele>10.0</ele>
        <time>2022-05-14T11:20:48.331Z</time>
      </trkpt>
      <trkpt lat="39.532725" lon="2.56001">
        <ele>10.0</ele>
        <time>2022-05-14T11:20:49.332Z</time>
      </trkpt>
      <trkpt lat="39.53270333" lon="2.559975">
        <ele>10.0</ele>
        <time>2022-05-14T11:20:50.332Z</time>
      </trkpt>
      <trkpt lat="39.53267667" lon="2.55993333">
        <ele>9.0</ele>
        <time>2022-05-14T11:20:51.331Z</time>
      </trkpt>
      <trkpt lat="39.532645" lon="2.55988">
        <ele>10.0</ele>
        <time>2022-05-14T11:20:52.332Z</time>
      </trkpt>
      <trkpt lat="39.53261833" lon="2.55983833">
        <ele>10.0</ele>
        <time>2022-05-14T11:20:53.331Z</time>
      </trkpt>
      <trkpt lat="39.53259167" lon="2.5598">
        <ele>10.0</ele>
        <time>2022-05-14T11:20:54.332Z</time>
      </trkpt>
      <trkpt lat="39.53257167" lon="2.55976833">
        <ele>10.0</ele>
        <time>2022-05-14T11:20:55.332Z</time>
      </trkpt>
      <trkpt lat="39.53254667" lon="2.55971833">
        <ele>10.0</ele>
        <time>2022-05-14T11:20:56.332Z</time>
      </trkpt>
      <trkpt lat="39.53252833" lon="2.559675">
        <ele>10.0</ele>
        <time>2022-05-14T11:20:57.332Z</time>
      </trkpt>
      <trkpt lat="39.53250833" lon="2.55963833">
        <ele>9.0</ele>
        <time>2022-05-14T11:20:58.332Z</time>
      </trkpt>
      <trkpt lat="39.53249333" lon="2.55960667">
        <ele>9.0</ele>
        <time>2022-05-14T11:20:59.332Z</time>
      </trkpt>
      <trkpt lat="39.53247667" lon="2.559565">
        <ele>9.0</ele>
        <time>2022-05-14T11:21:00.332Z</time>
      </trkpt>
      <trkpt lat="39.53245667" lon="2.55951333">
        <ele>9.0</ele>
        <time>2022-05-14T11:21:01.332Z</time>
      </trkpt>
      <trkpt lat="39.53244167" lon="2.55947">
        <ele>9.0</ele>
        <time>2022-05-14T11:21:02.332Z</time>
      </trkpt>
      <trkpt lat="39.532425" lon="2.55942667">
        <ele>9.0</ele>
        <time>2022-05-14T11:21:03.331Z</time>
      </trkpt>
      <trkpt lat="39.53241333" lon="2.55939">
        <ele>9.0</ele>
        <time>2022-05-14T11:21:04.331Z</time>
      </trkpt>
      <trkpt lat="39.53239833" lon="2.55934667">
        <ele>9.0</ele>
        <time>2022-05-14T11:21:05.332Z</time>
      </trkpt>
      <trkpt lat="39.53237667" lon="2.55929333">
        <ele>9.0</ele>
        <time>2022-05-14T11:21:06.332Z</time>
      </trkpt>
      <trkpt lat="39.53235833" lon="2.55925167">
        <ele>9.0</ele>
        <time>2022-05-14T11:21:07.332Z</time>
      </trkpt>
      <trkpt lat="39.53234333" lon="2.559215">
        <ele>9.0</ele>
        <time>2022-05-14T11:21:08.331Z</time>
      </trkpt>
      <trkpt lat="39.53232833" lon="2.55917167">
        <ele>10.0</ele>
        <time>2022-05-14T11:21:09.331Z</time>
      </trkpt>
      <trkpt lat="39.53231667" lon="2.559125">
        <ele>10.0</ele>
        <time>2022-05-14T11:21:10.332Z</time>
      </trkpt>
      <trkpt lat="39.53230167" lon="2.55907333">
        <ele>10.0</ele>
        <time>2022-05-14T11:21:11.332Z</time>
      </trkpt>
      <trkpt lat="39.53228833" lon="2.55903167">
        <ele>11.0</ele>
        <time>2022-05-14T11:21:12.332Z</time>
      </trkpt>
      <trkpt lat="39.53227833" lon="2.55899667">
        <ele>11.0</ele>
        <time>2022-05-14T11:21:13.332Z</time>
      </trkpt>
      <trkpt lat="39.53226667" lon="2.55895167">
        <ele>11.0</ele>
        <time>2022-05-14T11:21:14.332Z</time>
      </trkpt>
      <trkpt lat="39.53225167" lon="2.55890167">
        <ele>11.0</ele>
        <time>2022-05-14T11:21:15.332Z</time>
      </trkpt>
      <trkpt lat="39.53223667" lon="2.55886">
        <ele>11.0</ele>
        <time>2022-05-14T11:21:16.332Z</time>
      </trkpt>
      <trkpt lat="39.53222333" lon="2.55882667">
        <ele>11.0</ele>
        <time>2022-05-14T11:21:17.332Z</time>
      </trkpt>
      <trkpt lat="39.53220667" lon="2.558785">
        <ele>11.0</ele>
        <time>2022-05-14T11:21:18.332Z</time>
      </trkpt>
      <trkpt lat="39.532185" lon="2.55873333">
        <ele>12.0</ele>
        <time>2022-05-14T11:21:19.332Z</time>
      </trkpt>
      <trkpt lat="39.53216667" lon="2.55869167">
        <ele>12.0</ele>
        <time>2022-05-14T11:21:20.332Z</time>
      </trkpt>
      <trkpt lat="39.53214667" lon="2.55864667">
        <ele>12.0</ele>
        <time>2022-05-14T11:21:21.332Z</time>
      </trkpt>
      <trkpt lat="39.53213167" lon="2.55861333">
        <ele>12.0</ele>
        <time>2022-05-14T11:21:22.331Z</time>
      </trkpt>
      <trkpt lat="39.53211333" lon="2.55856333">
        <ele>12.0</ele>
        <time>2022-05-14T11:21:23.331Z</time>
      </trkpt>
      <trkpt lat="39.53209667" lon="2.55852167">
        <ele>12.0</ele>
        <time>2022-05-14T11:21:24.332Z</time>
      </trkpt>
      <trkpt lat="39.53207833" lon="2.55848">
        <ele>12.0</ele>
        <time>2022-05-14T11:21:25.332Z</time>
      </trkpt>
      <trkpt lat="39.53206" lon="2.558435">
        <ele>13.0</ele>
        <time>2022-05-14T11:21:26.331Z</time>
      </trkpt>
      <trkpt lat="39.53204" lon="2.55839333">
        <ele>13.0</ele>
        <time>2022-05-14T11:21:27.332Z</time>
      </trkpt>
      <trkpt lat="39.53202167" lon="2.55834667">
        <ele>13.0</ele>
        <time>2022-05-14T11:21:28.331Z</time>
      </trkpt>
      <trkpt lat="39.532" lon="2.55829833">
        <ele>14.0</ele>
        <time>2022-05-14T11:21:29.331Z</time>
      </trkpt>
      <trkpt lat="39.531985" lon="2.55825667">
        <ele>14.0</ele>
        <time>2022-05-14T11:21:30.332Z</time>
      </trkpt>
      <trkpt lat="39.53196167" lon="2.55819667">
        <ele>14.0</ele>
        <time>2022-05-14T11:21:31.332Z</time>
      </trkpt>
      <trkpt lat="39.53193833" lon="2.558125">
        <ele>14.0</ele>
        <time>2022-05-14T11:21:32.331Z</time>
      </trkpt>
      <trkpt lat="39.53192" lon="2.55807167">
        <ele>15.0</ele>
        <time>2022-05-14T11:21:33.331Z</time>
      </trkpt>
      <trkpt lat="39.53189833" lon="2.558035">
        <ele>15.0</ele>
        <time>2022-05-14T11:21:34.331Z</time>
      </trkpt>
      <trkpt lat="39.53187167" lon="2.55801">
        <ele>15.0</ele>
        <time>2022-05-14T11:21:35.332Z</time>
      </trkpt>
      <trkpt lat="39.53185" lon="2.558">
        <ele>15.0</ele>
        <time>2022-05-14T11:21:36.332Z</time>
      </trkpt>
      <trkpt lat="39.53183833" lon="2.55799833">
        <ele>15.0</ele>
        <time>2022-05-14T11:21:37.332Z</time>
      </trkpt>
      <trkpt lat="39.53182167" lon="2.558005">
        <ele>15.0</ele>
        <time>2022-05-14T11:21:38.331Z</time>
      </trkpt>
      <trkpt lat="39.53180833" lon="2.55801167">
        <ele>15.0</ele>
        <time>2022-05-14T11:21:39.332Z</time>
      </trkpt>
      <trkpt lat="39.53178167" lon="2.55803333">
        <ele>14.0</ele>
        <time>2022-05-14T11:21:40.332Z</time>
      </trkpt>
      <trkpt lat="39.53176167" lon="2.55805167">
        <ele>14.0</ele>
        <time>2022-05-14T11:21:41.332Z</time>
      </trkpt>
      <trkpt lat="39.53174333" lon="2.55807167">
        <ele>13.0</ele>
        <time>2022-05-14T11:21:42.331Z</time>
      </trkpt>
      <trkpt lat="39.53172333" lon="2.55808667">
        <ele>13.0</ele>
        <time>2022-05-14T11:21:43.332Z</time>
      </trkpt>
      <trkpt lat="39.53169667" lon="2.558105">
        <ele>12.0</ele>
        <time>2022-05-14T11:21:44.332Z</time>
      </trkpt>
      <trkpt lat="39.53166833" lon="2.55812">
        <ele>12.0</ele>
        <time>2022-05-14T11:21:45.332Z</time>
      </trkpt>
      <trkpt lat="39.53164" lon="2.55811833">
        <ele>11.0</ele>
        <time>2022-05-14T11:21:46.332Z</time>
      </trkpt>
      <trkpt lat="39.53162" lon="2.558105">
        <ele>11.0</ele>
        <time>2022-05-14T11:21:47.331Z</time>
      </trkpt>
      <trkpt lat="39.53159667" lon="2.55807833">
        <ele>11.0</ele>
        <time>2022-05-14T11:21:48.332Z</time>
      </trkpt>
      <trkpt lat="39.531575" lon="2.55805">
        <ele>11.0</ele>
        <time>2022-05-14T11:21:49.331Z</time>
      </trkpt>
      <trkpt lat="39.531555" lon="2.55801833">
        <ele>11.0</ele>
        <time>2022-05-14T11:21:50.331Z</time>
      </trkpt>
      <trkpt lat="39.531535" lon="2.55798167">
        <ele>11.0</ele>
        <time>2022-05-14T11:21:51.332Z</time>
      </trkpt>
      <trkpt lat="39.53151667" lon="2.55794167">
        <ele>11.0</ele>
        <time>2022-05-14T11:21:52.331Z</time>
      </trkpt>
      <trkpt lat="39.53149833" lon="2.5579">
        <ele>11.0</ele>
        <time>2022-05-14T11:21:53.331Z</time>
      </trkpt>
      <trkpt lat="39.53147667" lon="2.55785">
        <ele>11.0</ele>
        <time>2022-05-14T11:21:54.331Z</time>
      </trkpt>
      <trkpt lat="39.53145833" lon="2.55780833">
        <ele>10.0</ele>
        <time>2022-05-14T11:21:55.331Z</time>
      </trkpt>
      <trkpt lat="39.531445" lon="2.55776667">
        <ele>10.0</ele>
        <time>2022-05-14T11:21:56.332Z</time>
      </trkpt>
      <trkpt lat="39.531435" lon="2.557735">
        <ele>11.0</ele>
        <time>2022-05-14T11:21:57.331Z</time>
      </trkpt>
      <trkpt lat="39.53142333" lon="2.557695">
        <ele>11.0</ele>
        <time>2022-05-14T11:21:58.331Z</time>
      </trkpt>
      <trkpt lat="39.53141" lon="2.55764833">
        <ele>11.0</ele>
        <time>2022-05-14T11:21:59.332Z</time>
      </trkpt>
      <trkpt lat="39.53139833" lon="2.55760833">
        <ele>10.0</ele>
        <time>2022-05-14T11:22:00.332Z</time>
      </trkpt>
      <trkpt lat="39.53138833" lon="2.55757833">
        <ele>10.0</ele>
        <time>2022-05-14T11:22:01.331Z</time>
      </trkpt>
      <trkpt lat="39.531375" lon="2.55754167">
        <ele>11.0</ele>
        <time>2022-05-14T11:22:02.331Z</time>
      </trkpt>
      <trkpt lat="39.53136167" lon="2.55749667">
        <ele>11.0</ele>
        <time>2022-05-14T11:22:03.331Z</time>
      </trkpt>
      <trkpt lat="39.53134833" lon="2.55746">
        <ele>11.0</ele>
        <time>2022-05-14T11:22:04.332Z</time>
      </trkpt>
      <trkpt lat="39.531335" lon="2.557425">
        <ele>11.0</ele>
        <time>2022-05-14T11:22:05.332Z</time>
      </trkpt>
      <trkpt lat="39.53132333" lon="2.55739833">
        <ele>11.0</ele>
        <time>2022-05-14T11:22:06.331Z</time>
      </trkpt>
      <trkpt lat="39.531305" lon="2.557355">
        <ele>10.0</ele>
        <time>2022-05-14T11:22:07.331Z</time>
      </trkpt>
      <trkpt lat="39.53129" lon="2.55731833">
        <ele>10.0</ele>
        <time>2022-05-14T11:22:08.332Z</time>
      </trkpt>
      <trkpt lat="39.53127333" lon="2.557285">
        <ele>10.0</ele>
        <time>2022-05-14T11:22:09.331Z</time>
      </trkpt>
      <trkpt lat="39.53126" lon="2.55725667">
        <ele>10.0</ele>
        <time>2022-05-14T11:22:10.332Z</time>
      </trkpt>
      <trkpt lat="39.531245" lon="2.55722">
        <ele>10.0</ele>
        <time>2022-05-14T11:22:11.331Z</time>
      </trkpt>
      <trkpt lat="39.53122333" lon="2.55717667">
        <ele>10.0</ele>
        <time>2022-05-14T11:22:12.332Z</time>
      </trkpt>
      <trkpt lat="39.53120833" lon="2.55714">
        <ele>11.0</ele>
        <time>2022-05-14T11:22:13.331Z</time>
      </trkpt>
      <trkpt lat="39.53119833" lon="2.55711">
        <ele>11.0</ele>
        <time>2022-05-14T11:22:14.331Z</time>
      </trkpt>
      <trkpt lat="39.53118333" lon="2.557075">
        <ele>12.0</ele>
        <time>2022-05-14T11:22:15.332Z</time>
      </trkpt>
      <trkpt lat="39.53116333" lon="2.55703333">
        <ele>12.0</ele>
        <time>2022-05-14T11:22:16.331Z</time>
      </trkpt>
      <trkpt lat="39.53114833" lon="2.55699833">
        <ele>12.0</ele>
        <time>2022-05-14T11:22:17.331Z</time>
      </trkpt>
      <trkpt lat="39.53113167" lon="2.556965">
        <ele>12.0</ele>
        <time>2022-05-14T11:22:18.332Z</time>
      </trkpt>
      <trkpt lat="39.53112" lon="2.55693667">
        <ele>12.0</ele>
        <time>2022-05-14T11:22:19.331Z</time>
      </trkpt>
      <trkpt lat="39.531105" lon="2.55690167">
        <ele>12.0</ele>
        <time>2022-05-14T11:22:20.331Z</time>
      </trkpt>
      <trkpt lat="39.531085" lon="2.55686333">
        <ele>13.0</ele>
        <time>2022-05-14T11:22:21.331Z</time>
      </trkpt>
      <trkpt lat="39.53107333" lon="2.55683667">
        <ele>13.0</ele>
        <time>2022-05-14T11:22:22.331Z</time>
      </trkpt>
      <trkpt lat="39.53106" lon="2.55679833">
        <ele>13.0</ele>
        <time>2022-05-14T11:22:23.331Z</time>
      </trkpt>
      <trkpt lat="39.53104333" lon="2.55675333">
        <ele>13.0</ele>
        <time>2022-05-14T11:22:24.332Z</time>
      </trkpt>
      <trkpt lat="39.53103" lon="2.556715">
        <ele>13.0</ele>
        <time>2022-05-14T11:22:25.332Z</time>
      </trkpt>
      <trkpt lat="39.53101667" lon="2.55667833">
        <ele>14.0</ele>
        <time>2022-05-14T11:22:26.331Z</time>
      </trkpt>
      <trkpt lat="39.53100167" lon="2.55664167">
        <ele>14.0</ele>
        <time>2022-05-14T11:22:27.331Z</time>
      </trkpt>
      <trkpt lat="39.53099" lon="2.55661333">
        <ele>14.0</ele>
        <time>2022-05-14T11:22:28.332Z</time>
      </trkpt>
      <trkpt lat="39.53097667" lon="2.55657667">
        <ele>14.0</ele>
        <time>2022-05-14T11:22:29.331Z</time>
      </trkpt>
      <trkpt lat="39.53096167" lon="2.55653667">
        <ele>14.0</ele>
        <time>2022-05-14T11:22:30.331Z</time>
      </trkpt>
      <trkpt lat="39.53094667" lon="2.55650333">
        <ele>14.0</ele>
        <time>2022-05-14T11:22:31.332Z</time>
      </trkpt>
      <trkpt lat="39.53093333" lon="2.55646833">
        <ele>14.0</ele>
        <time>2022-05-14T11:22:32.332Z</time>
      </trkpt>
      <trkpt lat="39.53092167" lon="2.55643167">
        <ele>13.0</ele>
        <time>2022-05-14T11:22:33.331Z</time>
      </trkpt>
      <trkpt lat="39.53090833" lon="2.55639667">
        <ele>13.0</ele>
        <time>2022-05-14T11:22:34.331Z</time>
      </trkpt>
      <trkpt lat="39.53089667" lon="2.55637">
        <ele>13.0</ele>
        <time>2022-05-14T11:22:35.332Z</time>
      </trkpt>
      <trkpt lat="39.53087833" lon="2.55632667">
        <ele>13.0</ele>
        <time>2022-05-14T11:22:36.331Z</time>
      </trkpt>
      <trkpt lat="39.53086833" lon="2.55629833">
        <ele>12.0</ele>
        <time>2022-05-14T11:22:37.331Z</time>
      </trkpt>
      <trkpt lat="39.53085667" lon="2.556265">
        <ele>12.0</ele>
        <time>2022-05-14T11:22:38.331Z</time>
      </trkpt>
      <trkpt lat="39.53084333" lon="2.55622333">
        <ele>12.0</ele>
        <time>2022-05-14T11:22:39.331Z</time>
      </trkpt>
      <trkpt lat="39.53083167" lon="2.55618833">
        <ele>11.0</ele>
        <time>2022-05-14T11:22:40.331Z</time>
      </trkpt>
      <trkpt lat="39.53082167" lon="2.55616">
        <ele>11.0</ele>
        <time>2022-05-14T11:22:41.332Z</time>
      </trkpt>
      <trkpt lat="39.53080833" lon="2.55612333">
        <ele>11.0</ele>
        <time>2022-05-14T11:22:42.331Z</time>
      </trkpt>
      <trkpt lat="39.530795" lon="2.55608667">
        <ele>11.0</ele>
        <time>2022-05-14T11:22:43.332Z</time>
      </trkpt>
      <trkpt lat="39.53078167" lon="2.55604667">
        <ele>12.0</ele>
        <time>2022-05-14T11:22:44.331Z</time>
      </trkpt>
      <trkpt lat="39.53076667" lon="2.55601333">
        <ele>12.0</ele>
        <time>2022-05-14T11:22:45.332Z</time>
      </trkpt>
      <trkpt lat="39.530755" lon="2.55598167">
        <ele>12.0</ele>
        <time>2022-05-14T11:22:46.332Z</time>
      </trkpt>
      <trkpt lat="39.53074333" lon="2.555945">
        <ele>12.0</ele>
        <time>2022-05-14T11:22:47.332Z</time>
      </trkpt>
      <trkpt lat="39.53073167" lon="2.55591">
        <ele>13.0</ele>
        <time>2022-05-14T11:22:48.331Z</time>
      </trkpt>
      <trkpt lat="39.53071833" lon="2.55586333">
        <ele>13.0</ele>
        <time>2022-05-14T11:22:49.331Z</time>
      </trkpt>
      <trkpt lat="39.530705" lon="2.555825">
        <ele>13.0</ele>
        <time>2022-05-14T11:22:50.331Z</time>
      </trkpt>
      <trkpt lat="39.53069333" lon="2.55579">
        <ele>13.0</ele>
        <time>2022-05-14T11:22:51.331Z</time>
      </trkpt>
      <trkpt lat="39.53067333" lon="2.55574333">
        <ele>13.0</ele>
        <time>2022-05-14T11:22:52.331Z</time>
      </trkpt>
      <trkpt lat="39.530655" lon="2.555705">
        <ele>14.0</ele>
        <time>2022-05-14T11:22:53.332Z</time>
      </trkpt>
      <trkpt lat="39.53063833" lon="2.55566333">
        <ele>14.0</ele>
        <time>2022-05-14T11:22:54.331Z</time>
      </trkpt>
      <trkpt lat="39.530625" lon="2.55562667">
        <ele>14.0</ele>
        <time>2022-05-14T11:22:55.331Z</time>
      </trkpt>
      <trkpt lat="39.53061" lon="2.55558333">
        <ele>14.0</ele>
        <time>2022-05-14T11:22:56.331Z</time>
      </trkpt>
      <trkpt lat="39.53058667" lon="2.55553167">
        <ele>14.0</ele>
        <time>2022-05-14T11:22:57.332Z</time>
      </trkpt>
      <trkpt lat="39.53056667" lon="2.55548667">
        <ele>14.0</ele>
        <time>2022-05-14T11:22:58.332Z</time>
      </trkpt>
      <trkpt lat="39.53054667" lon="2.55544333">
        <ele>14.0</ele>
        <time>2022-05-14T11:22:59.331Z</time>
      </trkpt>
      <trkpt lat="39.53052667" lon="2.55539667">
        <ele>15.0</ele>
        <time>2022-05-14T11:23:00.331Z</time>
      </trkpt>
      <trkpt lat="39.53051" lon="2.55535833">
        <ele>15.0</ele>
        <time>2022-05-14T11:23:01.332Z</time>
      </trkpt>
      <trkpt lat="39.530485" lon="2.55530167">
        <ele>15.0</ele>
        <time>2022-05-14T11:23:02.332Z</time>
      </trkpt>
      <trkpt lat="39.53046333" lon="2.55525167">
        <ele>15.0</ele>
        <time>2022-05-14T11:23:03.332Z</time>
      </trkpt>
      <trkpt lat="39.53044167" lon="2.55520167">
        <ele>15.0</ele>
        <time>2022-05-14T11:23:04.332Z</time>
      </trkpt>
      <trkpt lat="39.53042333" lon="2.55516333">
        <ele>15.0</ele>
        <time>2022-05-14T11:23:05.331Z</time>
      </trkpt>
      <trkpt lat="39.530395" lon="2.55510333">
        <ele>15.0</ele>
        <time>2022-05-14T11:23:06.332Z</time>
      </trkpt>
      <trkpt lat="39.53037167" lon="2.55505333">
        <ele>15.0</ele>
        <time>2022-05-14T11:23:07.332Z</time>
      </trkpt>
      <trkpt lat="39.53035167" lon="2.55500167">
        <ele>16.0</ele>
        <time>2022-05-14T11:23:08.332Z</time>
      </trkpt>
      <trkpt lat="39.53033667" lon="2.55495667">
        <ele>16.0</ele>
        <time>2022-05-14T11:23:09.332Z</time>
      </trkpt>
      <trkpt lat="39.53031167" lon="2.55489333">
        <ele>15.0</ele>
        <time>2022-05-14T11:23:10.332Z</time>
      </trkpt>
      <trkpt lat="39.53029167" lon="2.55484167">
        <ele>16.0</ele>
        <time>2022-05-14T11:23:11.332Z</time>
      </trkpt>
      <trkpt lat="39.53027" lon="2.55479333">
        <ele>15.0</ele>
        <time>2022-05-14T11:23:12.332Z</time>
      </trkpt>
      <trkpt lat="39.53025333" lon="2.554755">
        <ele>15.0</ele>
        <time>2022-05-14T11:23:13.332Z</time>
      </trkpt>
      <trkpt lat="39.53023" lon="2.55469667">
        <ele>15.0</ele>
        <time>2022-05-14T11:23:14.332Z</time>
      </trkpt>
      <trkpt lat="39.53021" lon="2.55464833">
        <ele>15.0</ele>
        <time>2022-05-14T11:23:15.332Z</time>
      </trkpt>
      <trkpt lat="39.53019167" lon="2.5546">
        <ele>14.0</ele>
        <time>2022-05-14T11:23:16.331Z</time>
      </trkpt>
      <trkpt lat="39.53017667" lon="2.55456333">
        <ele>14.0</ele>
        <time>2022-05-14T11:23:17.332Z</time>
      </trkpt>
      <trkpt lat="39.53015833" lon="2.55451333">
        <ele>14.0</ele>
        <time>2022-05-14T11:23:18.332Z</time>
      </trkpt>
      <trkpt lat="39.53013833" lon="2.55446333">
        <ele>14.0</ele>
        <time>2022-05-14T11:23:19.332Z</time>
      </trkpt>
      <trkpt lat="39.53011667" lon="2.55440167">
        <ele>14.0</ele>
        <time>2022-05-14T11:23:20.331Z</time>
      </trkpt>
      <trkpt lat="39.53009833" lon="2.55435">
        <ele>14.0</ele>
        <time>2022-05-14T11:23:21.331Z</time>
      </trkpt>
      <trkpt lat="39.530085" lon="2.55430667">
        <ele>14.0</ele>
        <time>2022-05-14T11:23:22.332Z</time>
      </trkpt>
      <trkpt lat="39.53006333" lon="2.554245">
        <ele>14.0</ele>
        <time>2022-05-14T11:23:23.331Z</time>
      </trkpt>
      <trkpt lat="39.53004333" lon="2.55419167">
        <ele>14.0</ele>
        <time>2022-05-14T11:23:24.332Z</time>
      </trkpt>
      <trkpt lat="39.53002333" lon="2.55413667">
        <ele>14.0</ele>
        <time>2022-05-14T11:23:25.331Z</time>
      </trkpt>
      <trkpt lat="39.53000833" lon="2.55409167">
        <ele>13.0</ele>
        <time>2022-05-14T11:23:26.332Z</time>
      </trkpt>
      <trkpt lat="39.529985" lon="2.55401833">
        <ele>13.0</ele>
        <time>2022-05-14T11:23:27.332Z</time>
      </trkpt>
      <trkpt lat="39.52996667" lon="2.553955">
        <ele>13.0</ele>
        <time>2022-05-14T11:23:28.332Z</time>
      </trkpt>
      <trkpt lat="39.52994833" lon="2.55389167">
        <ele>13.0</ele>
        <time>2022-05-14T11:23:29.332Z</time>
      </trkpt>
      <trkpt lat="39.52992833" lon="2.55382833">
        <ele>13.0</ele>
        <time>2022-05-14T11:23:30.332Z</time>
      </trkpt>
      <trkpt lat="39.52991333" lon="2.55377833">
        <ele>13.0</ele>
        <time>2022-05-14T11:23:31.332Z</time>
      </trkpt>
      <trkpt lat="39.52989" lon="2.55369833">
        <ele>14.0</ele>
        <time>2022-05-14T11:23:32.332Z</time>
      </trkpt>
      <trkpt lat="39.52987" lon="2.55363833">
        <ele>14.0</ele>
        <time>2022-05-14T11:23:33.332Z</time>
      </trkpt>
      <trkpt lat="39.52985" lon="2.553575">
        <ele>13.0</ele>
        <time>2022-05-14T11:23:34.332Z</time>
      </trkpt>
      <trkpt lat="39.52983333" lon="2.55352333">
        <ele>13.0</ele>
        <time>2022-05-14T11:23:35.331Z</time>
      </trkpt>
      <trkpt lat="39.52981" lon="2.55346333">
        <ele>13.0</ele>
        <time>2022-05-14T11:23:36.332Z</time>
      </trkpt>
      <trkpt lat="39.52979167" lon="2.55340167">
        <ele>13.0</ele>
        <time>2022-05-14T11:23:37.332Z</time>
      </trkpt>
      <trkpt lat="39.529765" lon="2.55333">
        <ele>13.0</ele>
        <time>2022-05-14T11:23:38.332Z</time>
      </trkpt>
      <trkpt lat="39.52975" lon="2.55328167">
        <ele>13.0</ele>
        <time>2022-05-14T11:23:39.332Z</time>
      </trkpt>
      <trkpt lat="39.52972833" lon="2.55322167">
        <ele>13.0</ele>
        <time>2022-05-14T11:23:40.331Z</time>
      </trkpt>
      <trkpt lat="39.52970333" lon="2.55315167">
        <ele>12.0</ele>
        <time>2022-05-14T11:23:41.331Z</time>
      </trkpt>
      <trkpt lat="39.52968833" lon="2.55310833">
        <ele>13.0</ele>
        <time>2022-05-14T11:23:42.332Z</time>
      </trkpt>
      <trkpt lat="39.52967" lon="2.55305667">
        <ele>13.0</ele>
        <time>2022-05-14T11:23:43.332Z</time>
      </trkpt>
      <trkpt lat="39.52965167" lon="2.55300167">
        <ele>13.0</ele>
        <time>2022-05-14T11:23:44.332Z</time>
      </trkpt>
      <trkpt lat="39.52963" lon="2.55294833">
        <ele>13.0</ele>
        <time>2022-05-14T11:23:45.331Z</time>
      </trkpt>
      <trkpt lat="39.529605" lon="2.55289">
        <ele>13.0</ele>
        <time>2022-05-14T11:23:46.331Z</time>
      </trkpt>
      <trkpt lat="39.529585" lon="2.55284">
        <ele>13.0</ele>
        <time>2022-05-14T11:23:47.332Z</time>
      </trkpt>
      <trkpt lat="39.52957167" lon="2.55279833">
        <ele>13.0</ele>
        <time>2022-05-14T11:23:48.332Z</time>
      </trkpt>
      <trkpt lat="39.52954833" lon="2.55274167">
        <ele>13.0</ele>
        <time>2022-05-14T11:23:49.332Z</time>
      </trkpt>
      <trkpt lat="39.52952" lon="2.55267333">
        <ele>13.0</ele>
        <time>2022-05-14T11:23:50.331Z</time>
      </trkpt>
      <trkpt lat="39.52949667" lon="2.55261833">
        <ele>13.0</ele>
        <time>2022-05-14T11:23:51.332Z</time>
      </trkpt>
      <trkpt lat="39.52947333" lon="2.55256333">
        <ele>13.0</ele>
        <time>2022-05-14T11:23:52.332Z</time>
      </trkpt>
      <trkpt lat="39.529455" lon="2.55252">
        <ele>13.0</ele>
        <time>2022-05-14T11:23:53.332Z</time>
      </trkpt>
      <trkpt lat="39.529425" lon="2.55245333">
        <ele>12.0</ele>
        <time>2022-05-14T11:23:54.331Z</time>
      </trkpt>
      <trkpt lat="39.52939667" lon="2.55239833">
        <ele>12.0</ele>
        <time>2022-05-14T11:23:55.332Z</time>
      </trkpt>
      <trkpt lat="39.52937167" lon="2.55234167">
        <ele>12.0</ele>
        <time>2022-05-14T11:23:56.332Z</time>
      </trkpt>
      <trkpt lat="39.52935167" lon="2.55230167">
        <ele>12.0</ele>
        <time>2022-05-14T11:23:57.331Z</time>
      </trkpt>
      <trkpt lat="39.529325" lon="2.55224833">
        <ele>12.0</ele>
        <time>2022-05-14T11:23:58.332Z</time>
      </trkpt>
      <trkpt lat="39.52929167" lon="2.55219167">
        <ele>12.0</ele>
        <time>2022-05-14T11:23:59.332Z</time>
      </trkpt>
      <trkpt lat="39.52927167" lon="2.552155">
        <ele>12.0</ele>
        <time>2022-05-14T11:24:00.332Z</time>
      </trkpt>
      <trkpt lat="39.52925" lon="2.55211">
        <ele>13.0</ele>
        <time>2022-05-14T11:24:01.332Z</time>
      </trkpt>
      <trkpt lat="39.529225" lon="2.55206667">
        <ele>13.0</ele>
        <time>2022-05-14T11:24:02.331Z</time>
      </trkpt>
      <trkpt lat="39.5292" lon="2.552025">
        <ele>13.0</ele>
        <time>2022-05-14T11:24:03.331Z</time>
      </trkpt>
      <trkpt lat="39.52917167" lon="2.55198333">
        <ele>13.0</ele>
        <time>2022-05-14T11:24:04.331Z</time>
      </trkpt>
      <trkpt lat="39.52914" lon="2.55193667">
        <ele>13.0</ele>
        <time>2022-05-14T11:24:05.331Z</time>
      </trkpt>
      <trkpt lat="39.52911833" lon="2.55190667">
        <ele>14.0</ele>
        <time>2022-05-14T11:24:06.331Z</time>
      </trkpt>
      <trkpt lat="39.52909833" lon="2.55186667">
        <ele>14.0</ele>
        <time>2022-05-14T11:24:07.331Z</time>
      </trkpt>
      <trkpt lat="39.52907667" lon="2.55182167">
        <ele>14.0</ele>
        <time>2022-05-14T11:24:08.331Z</time>
      </trkpt>
      <trkpt lat="39.52906" lon="2.551785">
        <ele>14.0</ele>
        <time>2022-05-14T11:24:09.332Z</time>
      </trkpt>
      <trkpt lat="39.529045" lon="2.55174667">
        <ele>14.0</ele>
        <time>2022-05-14T11:24:10.331Z</time>
      </trkpt>
      <trkpt lat="39.52903333" lon="2.55171833">
        <ele>14.0</ele>
        <time>2022-05-14T11:24:11.331Z</time>
      </trkpt>
      <trkpt lat="39.52901833" lon="2.55168333">
        <ele>14.0</ele>
        <time>2022-05-14T11:24:12.332Z</time>
      </trkpt>
      <trkpt lat="39.52900333" lon="2.55164667">
        <ele>14.0</ele>
        <time>2022-05-14T11:24:13.332Z</time>
      </trkpt>
      <trkpt lat="39.52899" lon="2.55160667">
        <ele>14.0</ele>
        <time>2022-05-14T11:24:14.332Z</time>
      </trkpt>
      <trkpt lat="39.52897667" lon="2.55156333">
        <ele>14.0</ele>
        <time>2022-05-14T11:24:15.332Z</time>
      </trkpt>
      <trkpt lat="39.52896" lon="2.55152">
        <ele>13.0</ele>
        <time>2022-05-14T11:24:16.332Z</time>
      </trkpt>
      <trkpt lat="39.52894333" lon="2.55146667">
        <ele>13.0</ele>
        <time>2022-05-14T11:24:17.332Z</time>
      </trkpt>
      <trkpt lat="39.52892833" lon="2.55142167">
        <ele>13.0</ele>
        <time>2022-05-14T11:24:18.332Z</time>
      </trkpt>
      <trkpt lat="39.52891167" lon="2.551375">
        <ele>13.0</ele>
        <time>2022-05-14T11:24:19.332Z</time>
      </trkpt>
      <trkpt lat="39.52890167" lon="2.55133667">
        <ele>13.0</ele>
        <time>2022-05-14T11:24:20.332Z</time>
      </trkpt>
      <trkpt lat="39.52888667" lon="2.55128667">
        <ele>13.0</ele>
        <time>2022-05-14T11:24:21.332Z</time>
      </trkpt>
      <trkpt lat="39.52887667" lon="2.551235">
        <ele>13.0</ele>
        <time>2022-05-14T11:24:22.332Z</time>
      </trkpt>
      <trkpt lat="39.52886167" lon="2.55117333">
        <ele>13.0</ele>
        <time>2022-05-14T11:24:23.332Z</time>
      </trkpt>
      <trkpt lat="39.52885167" lon="2.55112333">
        <ele>13.0</ele>
        <time>2022-05-14T11:24:24.332Z</time>
      </trkpt>
      <trkpt lat="39.52884167" lon="2.55108167">
        <ele>13.0</ele>
        <time>2022-05-14T11:24:25.331Z</time>
      </trkpt>
      <trkpt lat="39.52882833" lon="2.55102">
        <ele>13.0</ele>
        <time>2022-05-14T11:24:26.332Z</time>
      </trkpt>
      <trkpt lat="39.52881667" lon="2.550965">
        <ele>13.0</ele>
        <time>2022-05-14T11:24:27.332Z</time>
      </trkpt>
      <trkpt lat="39.52880667" lon="2.55091333">
        <ele>13.0</ele>
        <time>2022-05-14T11:24:28.332Z</time>
      </trkpt>
      <trkpt lat="39.52879833" lon="2.55086833">
        <ele>13.0</ele>
        <time>2022-05-14T11:24:29.332Z</time>
      </trkpt>
      <trkpt lat="39.52879" lon="2.55081167">
        <ele>13.0</ele>
        <time>2022-05-14T11:24:30.332Z</time>
      </trkpt>
      <trkpt lat="39.52878167" lon="2.55075333">
        <ele>12.0</ele>
        <time>2022-05-14T11:24:31.331Z</time>
      </trkpt>
      <trkpt lat="39.52877" lon="2.550685">
        <ele>12.0</ele>
        <time>2022-05-14T11:24:32.332Z</time>
      </trkpt>
      <trkpt lat="39.528765" lon="2.55064">
        <ele>12.0</ele>
        <time>2022-05-14T11:24:33.332Z</time>
      </trkpt>
      <trkpt lat="39.52875667" lon="2.55058167">
        <ele>12.0</ele>
        <time>2022-05-14T11:24:34.332Z</time>
      </trkpt>
      <trkpt lat="39.52874667" lon="2.55051333">
        <ele>12.0</ele>
        <time>2022-05-14T11:24:35.331Z</time>
      </trkpt>
      <trkpt lat="39.52874167" lon="2.550475">
        <ele>12.0</ele>
        <time>2022-05-14T11:24:36.332Z</time>
      </trkpt>
      <trkpt lat="39.52873333" lon="2.550405">
        <ele>11.0</ele>
        <time>2022-05-14T11:24:37.331Z</time>
      </trkpt>
      <trkpt lat="39.52872667" lon="2.55035833">
        <ele>11.0</ele>
        <time>2022-05-14T11:24:38.332Z</time>
      </trkpt>
      <trkpt lat="39.52872" lon="2.55028333">
        <ele>10.0</ele>
        <time>2022-05-14T11:24:39.332Z</time>
      </trkpt>
      <trkpt lat="39.52871333" lon="2.55022">
        <ele>10.0</ele>
        <time>2022-05-14T11:24:40.332Z</time>
      </trkpt>
      <trkpt lat="39.528705" lon="2.55015167">
        <ele>10.0</ele>
        <time>2022-05-14T11:24:41.332Z</time>
      </trkpt>
      <trkpt lat="39.52869833" lon="2.55009833">
        <ele>10.0</ele>
        <time>2022-05-14T11:24:42.332Z</time>
      </trkpt>
      <trkpt lat="39.52868833" lon="2.55003167">
        <ele>10.0</ele>
        <time>2022-05-14T11:24:43.331Z</time>
      </trkpt>
      <trkpt lat="39.52868" lon="2.54996667">
        <ele>10.0</ele>
        <time>2022-05-14T11:24:44.331Z</time>
      </trkpt>
      <trkpt lat="39.52866667" lon="2.54989">
        <ele>10.0</ele>
        <time>2022-05-14T11:24:45.332Z</time>
      </trkpt>
      <trkpt lat="39.52865667" lon="2.54982667">
        <ele>11.0</ele>
        <time>2022-05-14T11:24:46.332Z</time>
      </trkpt>
      <trkpt lat="39.52864833" lon="2.54977333">
        <ele>11.0</ele>
        <time>2022-05-14T11:24:47.332Z</time>
      </trkpt>
      <trkpt lat="39.528635" lon="2.54969667">
        <ele>11.0</ele>
        <time>2022-05-14T11:24:48.331Z</time>
      </trkpt>
      <trkpt lat="39.52862667" lon="2.54964667">
        <ele>10.0</ele>
        <time>2022-05-14T11:24:49.332Z</time>
      </trkpt>
      <trkpt lat="39.52861333" lon="2.549575">
        <ele>10.0</ele>
        <time>2022-05-14T11:24:50.331Z</time>
      </trkpt>
      <trkpt lat="39.528605" lon="2.54952667">
        <ele>10.0</ele>
        <time>2022-05-14T11:24:51.332Z</time>
      </trkpt>
      <trkpt lat="39.52859333" lon="2.549465">
        <ele>10.0</ele>
        <time>2022-05-14T11:24:52.332Z</time>
      </trkpt>
      <trkpt lat="39.52858" lon="2.54940167">
        <ele>11.0</ele>
        <time>2022-05-14T11:24:53.332Z</time>
      </trkpt>
      <trkpt lat="39.52856667" lon="2.54934333">
        <ele>11.0</ele>
        <time>2022-05-14T11:24:54.332Z</time>
      </trkpt>
      <trkpt lat="39.52855667" lon="2.54928167">
        <ele>11.0</ele>
        <time>2022-05-14T11:24:55.332Z</time>
      </trkpt>
      <trkpt lat="39.528545" lon="2.54921833">
        <ele>12.0</ele>
        <time>2022-05-14T11:24:56.332Z</time>
      </trkpt>
      <trkpt lat="39.52853667" lon="2.54915667">
        <ele>12.0</ele>
        <time>2022-05-14T11:24:57.331Z</time>
      </trkpt>
      <trkpt lat="39.52852833" lon="2.54908">
        <ele>12.0</ele>
        <time>2022-05-14T11:24:58.331Z</time>
      </trkpt>
      <trkpt lat="39.528525" lon="2.54901667">
        <ele>12.0</ele>
        <time>2022-05-14T11:24:59.332Z</time>
      </trkpt>
      <trkpt lat="39.52852167" lon="2.54896833">
        <ele>12.0</ele>
        <time>2022-05-14T11:25:00.332Z</time>
      </trkpt>
      <trkpt lat="39.52851667" lon="2.548905">
        <ele>12.0</ele>
        <time>2022-05-14T11:25:01.332Z</time>
      </trkpt>
      <trkpt lat="39.52851333" lon="2.548845">
        <ele>12.0</ele>
        <time>2022-05-14T11:25:02.332Z</time>
      </trkpt>
      <trkpt lat="39.52851" lon="2.54879">
        <ele>12.0</ele>
        <time>2022-05-14T11:25:03.331Z</time>
      </trkpt>
      <trkpt lat="39.528505" lon="2.54873333">
        <ele>12.0</ele>
        <time>2022-05-14T11:25:04.332Z</time>
      </trkpt>
      <trkpt lat="39.5285" lon="2.54867833">
        <ele>12.0</ele>
        <time>2022-05-14T11:25:05.331Z</time>
      </trkpt>
      <trkpt lat="39.52849667" lon="2.54862167">
        <ele>11.0</ele>
        <time>2022-05-14T11:25:06.332Z</time>
      </trkpt>
      <trkpt lat="39.52849333" lon="2.54856667">
        <ele>11.0</ele>
        <time>2022-05-14T11:25:07.332Z</time>
      </trkpt>
      <trkpt lat="39.52849" lon="2.54851167">
        <ele>11.0</ele>
        <time>2022-05-14T11:25:08.332Z</time>
      </trkpt>
      <trkpt lat="39.528485" lon="2.54845833">
        <ele>11.0</ele>
        <time>2022-05-14T11:25:09.332Z</time>
      </trkpt>
      <trkpt lat="39.52848" lon="2.54840667">
        <ele>11.0</ele>
        <time>2022-05-14T11:25:10.332Z</time>
      </trkpt>
      <trkpt lat="39.52847667" lon="2.54834333">
        <ele>11.0</ele>
        <time>2022-05-14T11:25:11.332Z</time>
      </trkpt>
      <trkpt lat="39.528475" lon="2.54829167">
        <ele>11.0</ele>
        <time>2022-05-14T11:25:12.332Z</time>
      </trkpt>
      <trkpt lat="39.52847" lon="2.54823667">
        <ele>11.0</ele>
        <time>2022-05-14T11:25:13.331Z</time>
      </trkpt>
      <trkpt lat="39.52846667" lon="2.548195">
        <ele>10.0</ele>
        <time>2022-05-14T11:25:14.331Z</time>
      </trkpt>
      <trkpt lat="39.52846" lon="2.548135">
        <ele>10.0</ele>
        <time>2022-05-14T11:25:15.332Z</time>
      </trkpt>
      <trkpt lat="39.528455" lon="2.54808333">
        <ele>9.0</ele>
        <time>2022-05-14T11:25:16.331Z</time>
      </trkpt>
      <trkpt lat="39.52845167" lon="2.54804">
        <ele>9.0</ele>
        <time>2022-05-14T11:25:17.332Z</time>
      </trkpt>
      <trkpt lat="39.52845" lon="2.54798833">
        <ele>9.0</ele>
        <time>2022-05-14T11:25:18.332Z</time>
      </trkpt>
      <trkpt lat="39.52844833" lon="2.547935">
        <ele>9.0</ele>
        <time>2022-05-14T11:25:19.332Z</time>
      </trkpt>
      <trkpt lat="39.52844833" lon="2.54788333">
        <ele>9.0</ele>
        <time>2022-05-14T11:25:20.331Z</time>
      </trkpt>
      <trkpt lat="39.528445" lon="2.547825">
        <ele>9.0</ele>
        <time>2022-05-14T11:25:21.332Z</time>
      </trkpt>
      <trkpt lat="39.52844667" lon="2.547785">
        <ele>8.0</ele>
        <time>2022-05-14T11:25:22.332Z</time>
      </trkpt>
      <trkpt lat="39.528445" lon="2.547735">
        <ele>8.0</ele>
        <time>2022-05-14T11:25:23.332Z</time>
      </trkpt>
      <trkpt lat="39.528445" lon="2.54767333">
        <ele>9.0</ele>
        <time>2022-05-14T11:25:24.331Z</time>
      </trkpt>
      <trkpt lat="39.528445" lon="2.547635">
        <ele>8.0</ele>
        <time>2022-05-14T11:25:25.332Z</time>
      </trkpt>
      <trkpt lat="39.52844167" lon="2.54758333">
        <ele>8.0</ele>
        <time>2022-05-14T11:25:26.332Z</time>
      </trkpt>
      <trkpt lat="39.52843667" lon="2.54752833">
        <ele>9.0</ele>
        <time>2022-05-14T11:25:27.331Z</time>
      </trkpt>
      <trkpt lat="39.52842833" lon="2.54747333">
        <ele>9.0</ele>
        <time>2022-05-14T11:25:28.332Z</time>
      </trkpt>
      <trkpt lat="39.52842" lon="2.54741833">
        <ele>9.0</ele>
        <time>2022-05-14T11:25:29.332Z</time>
      </trkpt>
      <trkpt lat="39.52841833" lon="2.54734833">
        <ele>9.0</ele>
        <time>2022-05-14T11:25:30.332Z</time>
      </trkpt>
      <trkpt lat="39.52842" lon="2.54730667">
        <ele>9.0</ele>
        <time>2022-05-14T11:25:31.332Z</time>
      </trkpt>
      <trkpt lat="39.52841667" lon="2.54725333">
        <ele>9.0</ele>
        <time>2022-05-14T11:25:32.332Z</time>
      </trkpt>
      <trkpt lat="39.52840833" lon="2.54718667">
        <ele>9.0</ele>
        <time>2022-05-14T11:25:33.332Z</time>
      </trkpt>
      <trkpt lat="39.52840667" lon="2.547135">
        <ele>9.0</ele>
        <time>2022-05-14T11:25:34.332Z</time>
      </trkpt>
      <trkpt lat="39.52841333" lon="2.54709">
        <ele>9.0</ele>
        <time>2022-05-14T11:25:35.332Z</time>
      </trkpt>
      <trkpt lat="39.528425" lon="2.547065">
        <ele>8.0</ele>
        <time>2022-05-14T11:25:36.332Z</time>
      </trkpt>
      <trkpt lat="39.528455" lon="2.54704333">
        <ele>8.0</ele>
        <time>2022-05-14T11:25:37.332Z</time>
      </trkpt>
      <trkpt lat="39.52847667" lon="2.54704167">
        <ele>8.0</ele>
        <time>2022-05-14T11:25:38.332Z</time>
      </trkpt>
      <trkpt lat="39.52850333" lon="2.54703833">
        <ele>8.0</ele>
        <time>2022-05-14T11:25:39.332Z</time>
      </trkpt>
      <trkpt lat="39.52853333" lon="2.54703167">
        <ele>8.0</ele>
        <time>2022-05-14T11:25:40.332Z</time>
      </trkpt>
      <trkpt lat="39.52855833" lon="2.54701167">
        <ele>8.0</ele>
        <time>2022-05-14T11:25:41.332Z</time>
      </trkpt>
      <trkpt lat="39.52858" lon="2.54698">
        <ele>8.0</ele>
        <time>2022-05-14T11:25:42.332Z</time>
      </trkpt>
      <trkpt lat="39.528595" lon="2.54693333">
        <ele>8.0</ele>
        <time>2022-05-14T11:25:43.332Z</time>
      </trkpt>
      <trkpt lat="39.5286" lon="2.54689667">
        <ele>8.0</ele>
        <time>2022-05-14T11:25:44.332Z</time>
      </trkpt>
      <trkpt lat="39.52859833" lon="2.546845">
        <ele>8.0</ele>
        <time>2022-05-14T11:25:45.332Z</time>
      </trkpt>
      <trkpt lat="39.52859667" lon="2.54679">
        <ele>9.0</ele>
        <time>2022-05-14T11:25:46.332Z</time>
      </trkpt>
      <trkpt lat="39.52859167" lon="2.54674667">
        <ele>9.0</ele>
        <time>2022-05-14T11:25:47.332Z</time>
      </trkpt>
      <trkpt lat="39.52858167" lon="2.54670167">
        <ele>10.0</ele>
        <time>2022-05-14T11:25:48.331Z</time>
      </trkpt>
      <trkpt lat="39.52857167" lon="2.54665">
        <ele>10.0</ele>
        <time>2022-05-14T11:25:49.331Z</time>
      </trkpt>
      <trkpt lat="39.52856" lon="2.54660333">
        <ele>10.0</ele>
        <time>2022-05-14T11:25:50.332Z</time>
      </trkpt>
      <trkpt lat="39.52855" lon="2.54655667">
        <ele>10.0</ele>
        <time>2022-05-14T11:25:51.332Z</time>
      </trkpt>
      <trkpt lat="39.52854667" lon="2.546505">
        <ele>10.0</ele>
        <time>2022-05-14T11:25:52.332Z</time>
      </trkpt>
      <trkpt lat="39.52854667" lon="2.54645333">
        <ele>9.0</ele>
        <time>2022-05-14T11:25:53.332Z</time>
      </trkpt>
      <trkpt lat="39.52854667" lon="2.54639833">
        <ele>9.0</ele>
        <time>2022-05-14T11:25:54.332Z</time>
      </trkpt>
      <trkpt lat="39.52854333" lon="2.546345">
        <ele>9.0</ele>
        <time>2022-05-14T11:25:55.332Z</time>
      </trkpt>
      <trkpt lat="39.52854167" lon="2.54628833">
        <ele>9.0</ele>
        <time>2022-05-14T11:25:56.332Z</time>
      </trkpt>
      <trkpt lat="39.52854" lon="2.54622833">
        <ele>8.0</ele>
        <time>2022-05-14T11:25:57.332Z</time>
      </trkpt>
      <trkpt lat="39.52853833" lon="2.54617167">
        <ele>8.0</ele>
        <time>2022-05-14T11:25:58.332Z</time>
      </trkpt>
      <trkpt lat="39.52853167" lon="2.546115">
        <ele>8.0</ele>
        <time>2022-05-14T11:25:59.332Z</time>
      </trkpt>
      <trkpt lat="39.52852667" lon="2.54605833">
        <ele>8.0</ele>
        <time>2022-05-14T11:26:00.332Z</time>
      </trkpt>
      <trkpt lat="39.52852167" lon="2.545985">
        <ele>9.0</ele>
        <time>2022-05-14T11:26:01.332Z</time>
      </trkpt>
      <trkpt lat="39.52851833" lon="2.54593167">
        <ele>9.0</ele>
        <time>2022-05-14T11:26:02.332Z</time>
      </trkpt>
      <trkpt lat="39.52851167" lon="2.54586167">
        <ele>9.0</ele>
        <time>2022-05-14T11:26:03.332Z</time>
      </trkpt>
      <trkpt lat="39.52851" lon="2.545795">
        <ele>9.0</ele>
        <time>2022-05-14T11:26:04.332Z</time>
      </trkpt>
      <trkpt lat="39.52850667" lon="2.54573">
        <ele>9.0</ele>
        <time>2022-05-14T11:26:05.332Z</time>
      </trkpt>
      <trkpt lat="39.52850333" lon="2.545665">
        <ele>9.0</ele>
        <time>2022-05-14T11:26:06.332Z</time>
      </trkpt>
      <trkpt lat="39.52849833" lon="2.54559833">
        <ele>9.0</ele>
        <time>2022-05-14T11:26:07.331Z</time>
      </trkpt>
      <trkpt lat="39.528495" lon="2.545535">
        <ele>10.0</ele>
        <time>2022-05-14T11:26:08.332Z</time>
      </trkpt>
      <trkpt lat="39.52849" lon="2.54547">
        <ele>10.0</ele>
        <time>2022-05-14T11:26:09.332Z</time>
      </trkpt>
      <trkpt lat="39.528485" lon="2.545405">
        <ele>10.0</ele>
        <time>2022-05-14T11:26:10.332Z</time>
      </trkpt>
      <trkpt lat="39.52847833" lon="2.54534167">
        <ele>11.0</ele>
        <time>2022-05-14T11:26:11.332Z</time>
      </trkpt>
      <trkpt lat="39.52847167" lon="2.54527667">
        <ele>11.0</ele>
        <time>2022-05-14T11:26:12.332Z</time>
      </trkpt>
      <trkpt lat="39.52846333" lon="2.54519667">
        <ele>11.0</ele>
        <time>2022-05-14T11:26:13.332Z</time>
      </trkpt>
      <trkpt lat="39.52846" lon="2.54512833">
        <ele>12.0</ele>
        <time>2022-05-14T11:26:14.332Z</time>
      </trkpt>
      <trkpt lat="39.52845333" lon="2.54506">
        <ele>11.0</ele>
        <time>2022-05-14T11:26:15.331Z</time>
      </trkpt>
      <trkpt lat="39.52845" lon="2.54500333">
        <ele>11.0</ele>
        <time>2022-05-14T11:26:16.332Z</time>
      </trkpt>
      <trkpt lat="39.52844833" lon="2.54492333">
        <ele>11.0</ele>
        <time>2022-05-14T11:26:17.331Z</time>
      </trkpt>
      <trkpt lat="39.52844667" lon="2.54487">
        <ele>11.0</ele>
        <time>2022-05-14T11:26:18.331Z</time>
      </trkpt>
      <trkpt lat="39.52844167" lon="2.544805">
        <ele>11.0</ele>
        <time>2022-05-14T11:26:19.332Z</time>
      </trkpt>
      <trkpt lat="39.52844" lon="2.54474333">
        <ele>11.0</ele>
        <time>2022-05-14T11:26:20.332Z</time>
      </trkpt>
      <trkpt lat="39.52843833" lon="2.54468167">
        <ele>11.0</ele>
        <time>2022-05-14T11:26:21.332Z</time>
      </trkpt>
      <trkpt lat="39.528435" lon="2.54462167">
        <ele>11.0</ele>
        <time>2022-05-14T11:26:22.331Z</time>
      </trkpt>
      <trkpt lat="39.52843" lon="2.54456">
        <ele>10.0</ele>
        <time>2022-05-14T11:26:23.332Z</time>
      </trkpt>
      <trkpt lat="39.52842667" lon="2.54449833">
        <ele>10.0</ele>
        <time>2022-05-14T11:26:24.332Z</time>
      </trkpt>
      <trkpt lat="39.52842167" lon="2.54443667">
        <ele>10.0</ele>
        <time>2022-05-14T11:26:25.332Z</time>
      </trkpt>
      <trkpt lat="39.52841667" lon="2.54437667">
        <ele>10.0</ele>
        <time>2022-05-14T11:26:26.332Z</time>
      </trkpt>
      <trkpt lat="39.52841333" lon="2.54431667">
        <ele>9.0</ele>
        <time>2022-05-14T11:26:27.332Z</time>
      </trkpt>
      <trkpt lat="39.528405" lon="2.544255">
        <ele>9.0</ele>
        <time>2022-05-14T11:26:28.331Z</time>
      </trkpt>
      <trkpt lat="39.5284" lon="2.54419333">
        <ele>9.0</ele>
        <time>2022-05-14T11:26:29.332Z</time>
      </trkpt>
      <trkpt lat="39.52839833" lon="2.54412333">
        <ele>8.0</ele>
        <time>2022-05-14T11:26:30.332Z</time>
      </trkpt>
      <trkpt lat="39.528395" lon="2.54405333">
        <ele>8.0</ele>
        <time>2022-05-14T11:26:31.331Z</time>
      </trkpt>
      <trkpt lat="39.52839333" lon="2.543985">
        <ele>8.0</ele>
        <time>2022-05-14T11:26:32.332Z</time>
      </trkpt>
      <trkpt lat="39.52838833" lon="2.54391667">
        <ele>8.0</ele>
        <time>2022-05-14T11:26:33.332Z</time>
      </trkpt>
      <trkpt lat="39.52838333" lon="2.543845">
        <ele>8.0</ele>
        <time>2022-05-14T11:26:34.332Z</time>
      </trkpt>
      <trkpt lat="39.52837833" lon="2.54378">
        <ele>8.0</ele>
        <time>2022-05-14T11:26:35.332Z</time>
      </trkpt>
      <trkpt lat="39.528375" lon="2.54371">
        <ele>8.0</ele>
        <time>2022-05-14T11:26:36.332Z</time>
      </trkpt>
      <trkpt lat="39.52837" lon="2.54364333">
        <ele>8.0</ele>
        <time>2022-05-14T11:26:37.332Z</time>
      </trkpt>
      <trkpt lat="39.52836333" lon="2.543575">
        <ele>9.0</ele>
        <time>2022-05-14T11:26:38.332Z</time>
      </trkpt>
      <trkpt lat="39.52835833" lon="2.54350833">
        <ele>9.0</ele>
        <time>2022-05-14T11:26:39.332Z</time>
      </trkpt>
      <trkpt lat="39.528355" lon="2.54344167">
        <ele>9.0</ele>
        <time>2022-05-14T11:26:40.332Z</time>
      </trkpt>
      <trkpt lat="39.52835" lon="2.54337167">
        <ele>9.0</ele>
        <time>2022-05-14T11:26:41.332Z</time>
      </trkpt>
      <trkpt lat="39.52834667" lon="2.54330833">
        <ele>9.0</ele>
        <time>2022-05-14T11:26:42.332Z</time>
      </trkpt>
      <trkpt lat="39.52834333" lon="2.54324333">
        <ele>9.0</ele>
        <time>2022-05-14T11:26:43.332Z</time>
      </trkpt>
      <trkpt lat="39.52834" lon="2.543175">
        <ele>8.0</ele>
        <time>2022-05-14T11:26:44.331Z</time>
      </trkpt>
      <trkpt lat="39.528335" lon="2.54310833">
        <ele>8.0</ele>
        <time>2022-05-14T11:26:45.332Z</time>
      </trkpt>
      <trkpt lat="39.52833167" lon="2.54304167">
        <ele>8.0</ele>
        <time>2022-05-14T11:26:46.331Z</time>
      </trkpt>
      <trkpt lat="39.52832667" lon="2.54298">
        <ele>8.0</ele>
        <time>2022-05-14T11:26:47.332Z</time>
      </trkpt>
      <trkpt lat="39.52832167" lon="2.54291833">
        <ele>7.0</ele>
        <time>2022-05-14T11:26:48.332Z</time>
      </trkpt>
      <trkpt lat="39.52831833" lon="2.54286">
        <ele>7.0</ele>
        <time>2022-05-14T11:26:49.331Z</time>
      </trkpt>
      <trkpt lat="39.528315" lon="2.54279667">
        <ele>7.0</ele>
        <time>2022-05-14T11:26:50.332Z</time>
      </trkpt>
      <trkpt lat="39.52831333" lon="2.542735">
        <ele>8.0</ele>
        <time>2022-05-14T11:26:51.331Z</time>
      </trkpt>
      <trkpt lat="39.52831167" lon="2.54267167">
        <ele>7.0</ele>
        <time>2022-05-14T11:26:52.331Z</time>
      </trkpt>
      <trkpt lat="39.52830833" lon="2.54261">
        <ele>8.0</ele>
        <time>2022-05-14T11:26:53.331Z</time>
      </trkpt>
      <trkpt lat="39.52830667" lon="2.54253">
        <ele>8.0</ele>
        <time>2022-05-14T11:26:54.331Z</time>
      </trkpt>
      <trkpt lat="39.5283" lon="2.542475">
        <ele>8.0</ele>
        <time>2022-05-14T11:26:55.331Z</time>
      </trkpt>
      <trkpt lat="39.52829667" lon="2.54239167">
        <ele>8.0</ele>
        <time>2022-05-14T11:26:56.332Z</time>
      </trkpt>
      <trkpt lat="39.52829167" lon="2.542335">
        <ele>8.0</ele>
        <time>2022-05-14T11:26:57.332Z</time>
      </trkpt>
      <trkpt lat="39.528285" lon="2.542265">
        <ele>8.0</ele>
        <time>2022-05-14T11:26:58.331Z</time>
      </trkpt>
      <trkpt lat="39.52827833" lon="2.54219167">
        <ele>8.0</ele>
        <time>2022-05-14T11:26:59.331Z</time>
      </trkpt>
      <trkpt lat="39.528275" lon="2.54214333">
        <ele>8.0</ele>
        <time>2022-05-14T11:27:00.332Z</time>
      </trkpt>
      <trkpt lat="39.52827" lon="2.54208333">
        <ele>7.0</ele>
        <time>2022-05-14T11:27:01.332Z</time>
      </trkpt>
      <trkpt lat="39.52826667" lon="2.54202333">
        <ele>7.0</ele>
        <time>2022-05-14T11:27:02.331Z</time>
      </trkpt>
      <trkpt lat="39.528265" lon="2.54196333">
        <ele>7.0</ele>
        <time>2022-05-14T11:27:03.331Z</time>
      </trkpt>
      <trkpt lat="39.52825833" lon="2.54189">
        <ele>7.0</ele>
        <time>2022-05-14T11:27:04.332Z</time>
      </trkpt>
      <trkpt lat="39.52824833" lon="2.54182667">
        <ele>8.0</ele>
        <time>2022-05-14T11:27:05.332Z</time>
      </trkpt>
      <trkpt lat="39.52824" lon="2.54177667">
        <ele>8.0</ele>
        <time>2022-05-14T11:27:06.332Z</time>
      </trkpt>
      <trkpt lat="39.52823333" lon="2.54170167">
        <ele>9.0</ele>
        <time>2022-05-14T11:27:07.331Z</time>
      </trkpt>
      <trkpt lat="39.52822667" lon="2.54163833">
        <ele>9.0</ele>
        <time>2022-05-14T11:27:08.332Z</time>
      </trkpt>
      <trkpt lat="39.52822333" lon="2.54158667">
        <ele>9.0</ele>
        <time>2022-05-14T11:27:09.332Z</time>
      </trkpt>
      <trkpt lat="39.52822167" lon="2.54153167">
        <ele>9.0</ele>
        <time>2022-05-14T11:27:10.331Z</time>
      </trkpt>
      <trkpt lat="39.528215" lon="2.54147667">
        <ele>9.0</ele>
        <time>2022-05-14T11:27:11.332Z</time>
      </trkpt>
      <trkpt lat="39.52821167" lon="2.54143167">
        <ele>10.0</ele>
        <time>2022-05-14T11:27:12.332Z</time>
      </trkpt>
      <trkpt lat="39.52821167" lon="2.541385">
        <ele>10.0</ele>
        <time>2022-05-14T11:27:13.331Z</time>
      </trkpt>
      <trkpt lat="39.52821" lon="2.54132167">
        <ele>9.0</ele>
        <time>2022-05-14T11:27:14.332Z</time>
      </trkpt>
      <trkpt lat="39.52821" lon="2.54127667">
        <ele>9.0</ele>
        <time>2022-05-14T11:27:15.332Z</time>
      </trkpt>
      <trkpt lat="39.52821" lon="2.54120667">
        <ele>9.0</ele>
        <time>2022-05-14T11:27:16.332Z</time>
      </trkpt>
      <trkpt lat="39.52821" lon="2.54114833">
        <ele>9.0</ele>
        <time>2022-05-14T11:27:17.332Z</time>
      </trkpt>
      <trkpt lat="39.52820667" lon="2.54108667">
        <ele>9.0</ele>
        <time>2022-05-14T11:27:18.332Z</time>
      </trkpt>
      <trkpt lat="39.52820167" lon="2.54104">
        <ele>9.0</ele>
        <time>2022-05-14T11:27:19.332Z</time>
      </trkpt>
      <trkpt lat="39.528195" lon="2.54098333">
        <ele>9.0</ele>
        <time>2022-05-14T11:27:20.331Z</time>
      </trkpt>
      <trkpt lat="39.52818833" lon="2.540915">
        <ele>9.0</ele>
        <time>2022-05-14T11:27:21.331Z</time>
      </trkpt>
      <trkpt lat="39.52818167" lon="2.54086">
        <ele>9.0</ele>
        <time>2022-05-14T11:27:22.332Z</time>
      </trkpt>
      <trkpt lat="39.52817667" lon="2.54081667">
        <ele>9.0</ele>
        <time>2022-05-14T11:27:23.331Z</time>
      </trkpt>
      <trkpt lat="39.52817" lon="2.54076333">
        <ele>9.0</ele>
        <time>2022-05-14T11:27:24.332Z</time>
      </trkpt>
      <trkpt lat="39.528155" lon="2.54070167">
        <ele>9.0</ele>
        <time>2022-05-14T11:27:25.332Z</time>
      </trkpt>
      <trkpt lat="39.528135" lon="2.54065167">
        <ele>9.0</ele>
        <time>2022-05-14T11:27:26.332Z</time>
      </trkpt>
      <trkpt lat="39.52810833" lon="2.54060833">
        <ele>8.0</ele>
        <time>2022-05-14T11:27:27.332Z</time>
      </trkpt>
      <trkpt lat="39.528085" lon="2.54057333">
        <ele>9.0</ele>
        <time>2022-05-14T11:27:28.331Z</time>
      </trkpt>
      <trkpt lat="39.52805333" lon="2.54053667">
        <ele>9.0</ele>
        <time>2022-05-14T11:27:29.331Z</time>
      </trkpt>
      <trkpt lat="39.52801667" lon="2.5405">
        <ele>9.0</ele>
        <time>2022-05-14T11:27:30.331Z</time>
      </trkpt>
      <trkpt lat="39.527985" lon="2.54047">
        <ele>9.0</ele>
        <time>2022-05-14T11:27:31.331Z</time>
      </trkpt>
      <trkpt lat="39.52796167" lon="2.54043333">
        <ele>9.0</ele>
        <time>2022-05-14T11:27:32.332Z</time>
      </trkpt>
      <trkpt lat="39.52794333" lon="2.54040167">
        <ele>9.0</ele>
        <time>2022-05-14T11:27:33.331Z</time>
      </trkpt>
      <trkpt lat="39.52792" lon="2.54034667">
        <ele>9.0</ele>
        <time>2022-05-14T11:27:34.332Z</time>
      </trkpt>
      <trkpt lat="39.52790167" lon="2.540305">
        <ele>9.0</ele>
        <time>2022-05-14T11:27:35.331Z</time>
      </trkpt>
      <trkpt lat="39.52787" lon="2.54024">
        <ele>9.0</ele>
        <time>2022-05-14T11:27:36.332Z</time>
      </trkpt>
      <trkpt lat="39.527845" lon="2.540195">
        <ele>9.0</ele>
        <time>2022-05-14T11:27:37.332Z</time>
      </trkpt>
      <trkpt lat="39.52781167" lon="2.54013833">
        <ele>9.0</ele>
        <time>2022-05-14T11:27:38.331Z</time>
      </trkpt>
      <trkpt lat="39.52777667" lon="2.54008">
        <ele>9.0</ele>
        <time>2022-05-14T11:27:39.332Z</time>
      </trkpt>
      <trkpt lat="39.527735" lon="2.54001">
        <ele>9.0</ele>
        <time>2022-05-14T11:27:40.331Z</time>
      </trkpt>
      <trkpt lat="39.52769833" lon="2.53995167">
        <ele>9.0</ele>
        <time>2022-05-14T11:27:41.332Z</time>
      </trkpt>
      <trkpt lat="39.52766833" lon="2.53990333">
        <ele>9.0</ele>
        <time>2022-05-14T11:27:42.332Z</time>
      </trkpt>
      <trkpt lat="39.52762" lon="2.53983167">
        <ele>8.0</ele>
        <time>2022-05-14T11:27:43.331Z</time>
      </trkpt>
      <trkpt lat="39.52759" lon="2.53978333">
        <ele>8.0</ele>
        <time>2022-05-14T11:27:44.331Z</time>
      </trkpt>
      <trkpt lat="39.52754833" lon="2.539725">
        <ele>8.0</ele>
        <time>2022-05-14T11:27:45.331Z</time>
      </trkpt>
      <trkpt lat="39.52750833" lon="2.53966">
        <ele>8.0</ele>
        <time>2022-05-14T11:27:46.331Z</time>
      </trkpt>
      <trkpt lat="39.52747" lon="2.5396">
        <ele>8.0</ele>
        <time>2022-05-14T11:27:47.332Z</time>
      </trkpt>
      <trkpt lat="39.52743" lon="2.53954">
        <ele>7.0</ele>
        <time>2022-05-14T11:27:48.332Z</time>
      </trkpt>
      <trkpt lat="39.52739" lon="2.53947833">
        <ele>7.0</ele>
        <time>2022-05-14T11:27:49.332Z</time>
      </trkpt>
      <trkpt lat="39.52735167" lon="2.53941667">
        <ele>7.0</ele>
        <time>2022-05-14T11:27:50.332Z</time>
      </trkpt>
      <trkpt lat="39.527315" lon="2.53935333">
        <ele>6.0</ele>
        <time>2022-05-14T11:27:51.332Z</time>
      </trkpt>
      <trkpt lat="39.52727667" lon="2.53928667">
        <ele>6.0</ele>
        <time>2022-05-14T11:27:52.332Z</time>
      </trkpt>
      <trkpt lat="39.52723667" lon="2.53922333">
        <ele>6.0</ele>
        <time>2022-05-14T11:27:53.332Z</time>
      </trkpt>
      <trkpt lat="39.52719333" lon="2.539165">
        <ele>6.0</ele>
        <time>2022-05-14T11:27:54.332Z</time>
      </trkpt>
      <trkpt lat="39.52715167" lon="2.53910167">
        <ele>6.0</ele>
        <time>2022-05-14T11:27:55.332Z</time>
      </trkpt>
      <trkpt lat="39.52711167" lon="2.539035">
        <ele>6.0</ele>
        <time>2022-05-14T11:27:56.332Z</time>
      </trkpt>
      <trkpt lat="39.52707333" lon="2.53897167">
        <ele>6.0</ele>
        <time>2022-05-14T11:27:57.332Z</time>
      </trkpt>
      <trkpt lat="39.527035" lon="2.53890667">
        <ele>6.0</ele>
        <time>2022-05-14T11:27:58.332Z</time>
      </trkpt>
      <trkpt lat="39.52699" lon="2.53883333">
        <ele>6.0</ele>
        <time>2022-05-14T11:27:59.332Z</time>
      </trkpt>
      <trkpt lat="39.52695833" lon="2.53878833">
        <ele>6.0</ele>
        <time>2022-05-14T11:28:00.331Z</time>
      </trkpt>
      <trkpt lat="39.52691333" lon="2.53871833">
        <ele>5.0</ele>
        <time>2022-05-14T11:28:01.331Z</time>
      </trkpt>
      <trkpt lat="39.526875" lon="2.53866">
        <ele>5.0</ele>
        <time>2022-05-14T11:28:02.331Z</time>
      </trkpt>
      <trkpt lat="39.52683667" lon="2.53860333">
        <ele>5.0</ele>
        <time>2022-05-14T11:28:03.332Z</time>
      </trkpt>
      <trkpt lat="39.52680667" lon="2.53855833">
        <ele>6.0</ele>
        <time>2022-05-14T11:28:04.332Z</time>
      </trkpt>
      <trkpt lat="39.52677167" lon="2.53850333">
        <ele>6.0</ele>
        <time>2022-05-14T11:28:05.331Z</time>
      </trkpt>
      <trkpt lat="39.526745" lon="2.53844333">
        <ele>6.0</ele>
        <time>2022-05-14T11:28:06.331Z</time>
      </trkpt>
      <trkpt lat="39.52672833" lon="2.538375">
        <ele>6.0</ele>
        <time>2022-05-14T11:28:07.331Z</time>
      </trkpt>
      <trkpt lat="39.52672833" lon="2.53832333">
        <ele>6.0</ele>
        <time>2022-05-14T11:28:08.332Z</time>
      </trkpt>
      <trkpt lat="39.52673333" lon="2.538285">
        <ele>5.0</ele>
        <time>2022-05-14T11:28:09.331Z</time>
      </trkpt>
      <trkpt lat="39.52674" lon="2.53822667">
        <ele>5.0</ele>
        <time>2022-05-14T11:28:10.332Z</time>
      </trkpt>
      <trkpt lat="39.52674833" lon="2.53817833">
        <ele>5.0</ele>
        <time>2022-05-14T11:28:11.332Z</time>
      </trkpt>
      <trkpt lat="39.52675333" lon="2.53814333">
        <ele>5.0</ele>
        <time>2022-05-14T11:28:12.332Z</time>
      </trkpt>
      <trkpt lat="39.52676" lon="2.53809833">
        <ele>6.0</ele>
        <time>2022-05-14T11:28:13.332Z</time>
      </trkpt>
      <trkpt lat="39.52676" lon="2.53806">
        <ele>6.0</ele>
        <time>2022-05-14T11:28:14.332Z</time>
      </trkpt>
      <trkpt lat="39.52676" lon="2.53803167">
        <ele>6.0</ele>
        <time>2022-05-14T11:28:15.332Z</time>
      </trkpt>
      <trkpt lat="39.52675333" lon="2.53800167">
        <ele>6.0</ele>
        <time>2022-05-14T11:28:16.332Z</time>
      </trkpt>
      <trkpt lat="39.526745" lon="2.53798167">
        <ele>6.0</ele>
        <time>2022-05-14T11:28:17.332Z</time>
      </trkpt>
      <trkpt lat="39.52673667" lon="2.53795667">
        <ele>5.0</ele>
        <time>2022-05-14T11:28:18.332Z</time>
      </trkpt>
      <trkpt lat="39.52672167" lon="2.53793167">
        <ele>5.0</ele>
        <time>2022-05-14T11:28:19.332Z</time>
      </trkpt>
      <trkpt lat="39.52669833" lon="2.53789667">
        <ele>5.0</ele>
        <time>2022-05-14T11:28:20.331Z</time>
      </trkpt>
      <trkpt lat="39.526675" lon="2.53786333">
        <ele>4.0</ele>
        <time>2022-05-14T11:28:21.332Z</time>
      </trkpt>
      <trkpt lat="39.52665333" lon="2.53783333">
        <ele>4.0</ele>
        <time>2022-05-14T11:28:22.332Z</time>
      </trkpt>
      <trkpt lat="39.52662333" lon="2.53779333">
        <ele>4.0</ele>
        <time>2022-05-14T11:28:23.331Z</time>
      </trkpt>
      <trkpt lat="39.52659" lon="2.53775333">
        <ele>4.0</ele>
        <time>2022-05-14T11:28:24.332Z</time>
      </trkpt>
      <trkpt lat="39.526555" lon="2.53770833">
        <ele>4.0</ele>
        <time>2022-05-14T11:28:25.332Z</time>
      </trkpt>
      <trkpt lat="39.52650667" lon="2.53765833">
        <ele>4.0</ele>
        <time>2022-05-14T11:28:26.331Z</time>
      </trkpt>
      <trkpt lat="39.52647333" lon="2.53762167">
        <ele>5.0</ele>
        <time>2022-05-14T11:28:27.331Z</time>
      </trkpt>
      <trkpt lat="39.52642333" lon="2.53757167">
        <ele>5.0</ele>
        <time>2022-05-14T11:28:28.332Z</time>
      </trkpt>
      <trkpt lat="39.52639167" lon="2.53754333">
        <ele>5.0</ele>
        <time>2022-05-14T11:28:29.332Z</time>
      </trkpt>
      <trkpt lat="39.52635333" lon="2.53751">
        <ele>5.0</ele>
        <time>2022-05-14T11:28:30.331Z</time>
      </trkpt>
      <trkpt lat="39.52631167" lon="2.53747667">
        <ele>5.0</ele>
        <time>2022-05-14T11:28:31.331Z</time>
      </trkpt>
      <trkpt lat="39.52627" lon="2.53744">
        <ele>5.0</ele>
        <time>2022-05-14T11:28:32.332Z</time>
      </trkpt>
      <trkpt lat="39.52623" lon="2.537405">
        <ele>5.0</ele>
        <time>2022-05-14T11:28:33.331Z</time>
      </trkpt>
      <trkpt lat="39.526185" lon="2.53736167">
        <ele>4.0</ele>
        <time>2022-05-14T11:28:34.331Z</time>
      </trkpt>
      <trkpt lat="39.52615333" lon="2.53733">
        <ele>4.0</ele>
        <time>2022-05-14T11:28:35.332Z</time>
      </trkpt>
      <trkpt lat="39.52611667" lon="2.53729667">
        <ele>4.0</ele>
        <time>2022-05-14T11:28:36.331Z</time>
      </trkpt>
      <trkpt lat="39.52607167" lon="2.53725333">
        <ele>3.0</ele>
        <time>2022-05-14T11:28:37.332Z</time>
      </trkpt>
      <trkpt lat="39.52603833" lon="2.53721667">
        <ele>3.0</ele>
        <time>2022-05-14T11:28:38.331Z</time>
      </trkpt>
      <trkpt lat="39.52601167" lon="2.537185">
        <ele>4.0</ele>
        <time>2022-05-14T11:28:39.332Z</time>
      </trkpt>
      <trkpt lat="39.52598333" lon="2.53714333">
        <ele>4.0</ele>
        <time>2022-05-14T11:28:40.332Z</time>
      </trkpt>
      <trkpt lat="39.52595" lon="2.537095">
        <ele>4.0</ele>
        <time>2022-05-14T11:28:41.332Z</time>
      </trkpt>
      <trkpt lat="39.52592667" lon="2.53706333">
        <ele>4.0</ele>
        <time>2022-05-14T11:28:42.332Z</time>
      </trkpt>
      <trkpt lat="39.52589333" lon="2.53701">
        <ele>4.0</ele>
        <time>2022-05-14T11:28:43.332Z</time>
      </trkpt>
      <trkpt lat="39.52587167" lon="2.53697167">
        <ele>3.0</ele>
        <time>2022-05-14T11:28:44.332Z</time>
      </trkpt>
      <trkpt lat="39.52584833" lon="2.53692667">
        <ele>3.0</ele>
        <time>2022-05-14T11:28:45.332Z</time>
      </trkpt>
      <trkpt lat="39.52581667" lon="2.536875">
        <ele>4.0</ele>
        <time>2022-05-14T11:28:46.332Z</time>
      </trkpt>
      <trkpt lat="39.52579333" lon="2.53684167">
        <ele>4.0</ele>
        <time>2022-05-14T11:28:47.332Z</time>
      </trkpt>
      <trkpt lat="39.52576667" lon="2.536795">
        <ele>4.0</ele>
        <time>2022-05-14T11:28:48.332Z</time>
      </trkpt>
      <trkpt lat="39.52574167" lon="2.53674667">
        <ele>4.0</ele>
        <time>2022-05-14T11:28:49.331Z</time>
      </trkpt>
      <trkpt lat="39.52571833" lon="2.53669667">
        <ele>4.0</ele>
        <time>2022-05-14T11:28:50.332Z</time>
      </trkpt>
      <trkpt lat="39.52569667" lon="2.53664667">
        <ele>4.0</ele>
        <time>2022-05-14T11:28:51.331Z</time>
      </trkpt>
      <trkpt lat="39.52567333" lon="2.53659167">
        <ele>4.0</ele>
        <time>2022-05-14T11:28:52.332Z</time>
      </trkpt>
      <trkpt lat="39.525645" lon="2.53653833">
        <ele>4.0</ele>
        <time>2022-05-14T11:28:53.332Z</time>
      </trkpt>
      <trkpt lat="39.52561667" lon="2.53648833">
        <ele>4.0</ele>
        <time>2022-05-14T11:28:54.332Z</time>
      </trkpt>
      <trkpt lat="39.52558333" lon="2.53643167">
        <ele>5.0</ele>
        <time>2022-05-14T11:28:55.331Z</time>
      </trkpt>
      <trkpt lat="39.52554167" lon="2.53637">
        <ele>6.0</ele>
        <time>2022-05-14T11:28:56.332Z</time>
      </trkpt>
      <trkpt lat="39.525515" lon="2.536325">
        <ele>6.0</ele>
        <time>2022-05-14T11:28:57.332Z</time>
      </trkpt>
      <trkpt lat="39.52548" lon="2.53626833">
        <ele>6.0</ele>
        <time>2022-05-14T11:28:58.331Z</time>
      </trkpt>
      <trkpt lat="39.52544167" lon="2.536215">
        <ele>6.0</ele>
        <time>2022-05-14T11:28:59.332Z</time>
      </trkpt>
      <trkpt lat="39.525405" lon="2.53616">
        <ele>6.0</ele>
        <time>2022-05-14T11:29:00.332Z</time>
      </trkpt>
      <trkpt lat="39.52536833" lon="2.53610333">
        <ele>6.0</ele>
        <time>2022-05-14T11:29:01.332Z</time>
      </trkpt>
      <trkpt lat="39.52532167" lon="2.53603833">
        <ele>6.0</ele>
        <time>2022-05-14T11:29:02.331Z</time>
      </trkpt>
      <trkpt lat="39.52529167" lon="2.53599667">
        <ele>6.0</ele>
        <time>2022-05-14T11:29:03.332Z</time>
      </trkpt>
      <trkpt lat="39.52525333" lon="2.53594833">
        <ele>6.0</ele>
        <time>2022-05-14T11:29:04.331Z</time>
      </trkpt>
      <trkpt lat="39.52521667" lon="2.535895">
        <ele>6.0</ele>
        <time>2022-05-14T11:29:05.332Z</time>
      </trkpt>
      <trkpt lat="39.52518167" lon="2.535835">
        <ele>5.0</ele>
        <time>2022-05-14T11:29:06.332Z</time>
      </trkpt>
      <trkpt lat="39.52514667" lon="2.53577167">
        <ele>5.0</ele>
        <time>2022-05-14T11:29:07.332Z</time>
      </trkpt>
      <trkpt lat="39.52511" lon="2.53571167">
        <ele>5.0</ele>
        <time>2022-05-14T11:29:08.332Z</time>
      </trkpt>
      <trkpt lat="39.525075" lon="2.53565">
        <ele>4.0</ele>
        <time>2022-05-14T11:29:09.332Z</time>
      </trkpt>
      <trkpt lat="39.52504" lon="2.53558667">
        <ele>4.0</ele>
        <time>2022-05-14T11:29:10.332Z</time>
      </trkpt>
      <trkpt lat="39.52500667" lon="2.53552167">
        <ele>4.0</ele>
        <time>2022-05-14T11:29:11.332Z</time>
      </trkpt>
      <trkpt lat="39.524975" lon="2.535455">
        <ele>5.0</ele>
        <time>2022-05-14T11:29:12.332Z</time>
      </trkpt>
      <trkpt lat="39.52494333" lon="2.53539">
        <ele>5.0</ele>
        <time>2022-05-14T11:29:13.331Z</time>
      </trkpt>
      <trkpt lat="39.52491333" lon="2.53533">
        <ele>5.0</ele>
        <time>2022-05-14T11:29:14.331Z</time>
      </trkpt>
      <trkpt lat="39.52488333" lon="2.53527">
        <ele>5.0</ele>
        <time>2022-05-14T11:29:15.332Z</time>
      </trkpt>
      <trkpt lat="39.52485167" lon="2.53521">
        <ele>5.0</ele>
        <time>2022-05-14T11:29:16.331Z</time>
      </trkpt>
      <trkpt lat="39.52481667" lon="2.53515167">
        <ele>4.0</ele>
        <time>2022-05-14T11:29:17.332Z</time>
      </trkpt>
      <trkpt lat="39.52478167" lon="2.53509667">
        <ele>3.0</ele>
        <time>2022-05-14T11:29:18.332Z</time>
      </trkpt>
      <trkpt lat="39.52474833" lon="2.53504333">
        <ele>3.0</ele>
        <time>2022-05-14T11:29:19.332Z</time>
      </trkpt>
      <trkpt lat="39.52471" lon="2.534985">
        <ele>3.0</ele>
        <time>2022-05-14T11:29:20.332Z</time>
      </trkpt>
      <trkpt lat="39.524685" lon="2.53495">
        <ele>2.0</ele>
        <time>2022-05-14T11:29:21.332Z</time>
      </trkpt>
      <trkpt lat="39.524655" lon="2.534905">
        <ele>1.0</ele>
        <time>2022-05-14T11:29:22.332Z</time>
      </trkpt>
      <trkpt lat="39.52462333" lon="2.53485667">
        <ele>1.0</ele>
        <time>2022-05-14T11:29:23.331Z</time>
      </trkpt>
      <trkpt lat="39.52458667" lon="2.53480167">
        <ele>0.0</ele>
        <time>2022-05-14T11:29:24.332Z</time>
      </trkpt>
      <trkpt lat="39.52456333" lon="2.53476333">
        <ele>0.0</ele>
        <time>2022-05-14T11:29:25.331Z</time>
      </trkpt>
      <trkpt lat="39.52452833" lon="2.53471">
        <ele>1.0</ele>
        <time>2022-05-14T11:29:26.332Z</time>
      </trkpt>
      <trkpt lat="39.5245" lon="2.53467167">
        <ele>1.0</ele>
        <time>2022-05-14T11:29:27.331Z</time>
      </trkpt>
      <trkpt lat="39.52446333" lon="2.53462">
        <ele>1.0</ele>
        <time>2022-05-14T11:29:28.332Z</time>
      </trkpt>
      <trkpt lat="39.52443333" lon="2.53458">
        <ele>1.0</ele>
        <time>2022-05-14T11:29:29.332Z</time>
      </trkpt>
      <trkpt lat="39.524405" lon="2.53454">
        <ele>1.0</ele>
        <time>2022-05-14T11:29:30.332Z</time>
      </trkpt>
      <trkpt lat="39.52438167" lon="2.53451167">
        <ele>1.0</ele>
        <time>2022-05-14T11:29:31.332Z</time>
      </trkpt>
      <trkpt lat="39.524355" lon="2.53447167">
        <ele>1.0</ele>
        <time>2022-05-14T11:29:32.332Z</time>
      </trkpt>
      <trkpt lat="39.52432667" lon="2.534425">
        <ele>1.0</ele>
        <time>2022-05-14T11:29:33.332Z</time>
      </trkpt>
      <trkpt lat="39.5243" lon="2.534385">
        <ele>1.0</ele>
        <time>2022-05-14T11:29:34.332Z</time>
      </trkpt>
      <trkpt lat="39.52427" lon="2.534345">
        <ele>2.0</ele>
        <time>2022-05-14T11:29:35.332Z</time>
      </trkpt>
      <trkpt lat="39.52425" lon="2.53431333">
        <ele>2.0</ele>
        <time>2022-05-14T11:29:36.332Z</time>
      </trkpt>
      <trkpt lat="39.52421667" lon="2.53426333">
        <ele>2.0</ele>
        <time>2022-05-14T11:29:37.332Z</time>
      </trkpt>
      <trkpt lat="39.52419333" lon="2.53422">
        <ele>3.0</ele>
        <time>2022-05-14T11:29:38.332Z</time>
      </trkpt>
      <trkpt lat="39.524175" lon="2.53418333">
        <ele>3.0</ele>
        <time>2022-05-14T11:29:39.332Z</time>
      </trkpt>
      <trkpt lat="39.52415167" lon="2.53414">
        <ele>4.0</ele>
        <time>2022-05-14T11:29:40.332Z</time>
      </trkpt>
      <trkpt lat="39.52412833" lon="2.53409833">
        <ele>4.0</ele>
        <time>2022-05-14T11:29:41.332Z</time>
      </trkpt>
      <trkpt lat="39.524105" lon="2.534055">
        <ele>5.0</ele>
        <time>2022-05-14T11:29:42.332Z</time>
      </trkpt>
      <trkpt lat="39.52408" lon="2.53400333">
        <ele>5.0</ele>
        <time>2022-05-14T11:29:43.331Z</time>
      </trkpt>
      <trkpt lat="39.52406167" lon="2.53396833">
        <ele>5.0</ele>
        <time>2022-05-14T11:29:44.331Z</time>
      </trkpt>
      <trkpt lat="39.52404" lon="2.533925">
        <ele>6.0</ele>
        <time>2022-05-14T11:29:45.332Z</time>
      </trkpt>
      <trkpt lat="39.52401667" lon="2.53388333">
        <ele>6.0</ele>
        <time>2022-05-14T11:29:46.332Z</time>
      </trkpt>
      <trkpt lat="39.52399667" lon="2.53384167">
        <ele>6.0</ele>
        <time>2022-05-14T11:29:47.332Z</time>
      </trkpt>
      <trkpt lat="39.52397167" lon="2.53379667">
        <ele>7.0</ele>
        <time>2022-05-14T11:29:48.331Z</time>
      </trkpt>
      <trkpt lat="39.52395667" lon="2.53376833">
        <ele>7.0</ele>
        <time>2022-05-14T11:29:49.332Z</time>
      </trkpt>
      <trkpt lat="39.52393667" lon="2.53373167">
        <ele>7.0</ele>
        <time>2022-05-14T11:29:50.331Z</time>
      </trkpt>
      <trkpt lat="39.523915" lon="2.53369667">
        <ele>7.0</ele>
        <time>2022-05-14T11:29:51.332Z</time>
      </trkpt>
      <trkpt lat="39.523895" lon="2.53366167">
        <ele>7.0</ele>
        <time>2022-05-14T11:29:52.332Z</time>
      </trkpt>
      <trkpt lat="39.52387333" lon="2.53362833">
        <ele>7.0</ele>
        <time>2022-05-14T11:29:53.332Z</time>
      </trkpt>
      <trkpt lat="39.52385333" lon="2.53359667">
        <ele>8.0</ele>
        <time>2022-05-14T11:29:54.332Z</time>
      </trkpt>
      <trkpt lat="39.52383333" lon="2.533565">
        <ele>8.0</ele>
        <time>2022-05-14T11:29:55.331Z</time>
      </trkpt>
      <trkpt lat="39.523815" lon="2.53352833">
        <ele>8.0</ele>
        <time>2022-05-14T11:29:56.332Z</time>
      </trkpt>
      <trkpt lat="39.523795" lon="2.53349167">
        <ele>9.0</ele>
        <time>2022-05-14T11:29:57.332Z</time>
      </trkpt>
      <trkpt lat="39.52377667" lon="2.533455">
        <ele>9.0</ele>
        <time>2022-05-14T11:29:58.332Z</time>
      </trkpt>
      <trkpt lat="39.52375667" lon="2.53342">
        <ele>9.0</ele>
        <time>2022-05-14T11:29:59.332Z</time>
      </trkpt>
      <trkpt lat="39.523735" lon="2.533385">
        <ele>9.0</ele>
        <time>2022-05-14T11:30:00.332Z</time>
      </trkpt>
      <trkpt lat="39.523715" lon="2.53335167">
        <ele>9.0</ele>
        <time>2022-05-14T11:30:01.332Z</time>
      </trkpt>
      <trkpt lat="39.52369167" lon="2.53331833">
        <ele>9.0</ele>
        <time>2022-05-14T11:30:02.331Z</time>
      </trkpt>
      <trkpt lat="39.52367167" lon="2.533285">
        <ele>9.0</ele>
        <time>2022-05-14T11:30:03.332Z</time>
      </trkpt>
      <trkpt lat="39.52365333" lon="2.533255">
        <ele>9.0</ele>
        <time>2022-05-14T11:30:04.332Z</time>
      </trkpt>
      <trkpt lat="39.523635" lon="2.533225">
        <ele>10.0</ele>
        <time>2022-05-14T11:30:05.332Z</time>
      </trkpt>
      <trkpt lat="39.52360833" lon="2.53318833">
        <ele>10.0</ele>
        <time>2022-05-14T11:30:06.332Z</time>
      </trkpt>
      <trkpt lat="39.52358667" lon="2.53315833">
        <ele>10.0</ele>
        <time>2022-05-14T11:30:07.331Z</time>
      </trkpt>
      <trkpt lat="39.52356833" lon="2.53313333">
        <ele>10.0</ele>
        <time>2022-05-14T11:30:08.331Z</time>
      </trkpt>
      <trkpt lat="39.523545" lon="2.5331">
        <ele>10.0</ele>
        <time>2022-05-14T11:30:09.332Z</time>
      </trkpt>
      <trkpt lat="39.52352333" lon="2.53306333">
        <ele>10.0</ele>
        <time>2022-05-14T11:30:10.332Z</time>
      </trkpt>
      <trkpt lat="39.523505" lon="2.53303833">
        <ele>9.0</ele>
        <time>2022-05-14T11:30:11.332Z</time>
      </trkpt>
      <trkpt lat="39.52348333" lon="2.53300833">
        <ele>9.0</ele>
        <time>2022-05-14T11:30:12.332Z</time>
      </trkpt>
      <trkpt lat="39.52346167" lon="2.53297667">
        <ele>9.0</ele>
        <time>2022-05-14T11:30:13.331Z</time>
      </trkpt>
      <trkpt lat="39.523435" lon="2.53294">
        <ele>9.0</ele>
        <time>2022-05-14T11:30:14.331Z</time>
      </trkpt>
      <trkpt lat="39.52341667" lon="2.53291167">
        <ele>9.0</ele>
        <time>2022-05-14T11:30:15.332Z</time>
      </trkpt>
      <trkpt lat="39.52339167" lon="2.53287167">
        <ele>9.0</ele>
        <time>2022-05-14T11:30:16.331Z</time>
      </trkpt>
      <trkpt lat="39.52337667" lon="2.532845">
        <ele>9.0</ele>
        <time>2022-05-14T11:30:17.332Z</time>
      </trkpt>
      <trkpt lat="39.523355" lon="2.53281333">
        <ele>9.0</ele>
        <time>2022-05-14T11:30:18.331Z</time>
      </trkpt>
      <trkpt lat="39.523335" lon="2.53278333">
        <ele>9.0</ele>
        <time>2022-05-14T11:30:19.332Z</time>
      </trkpt>
      <trkpt lat="39.52331167" lon="2.53274833">
        <ele>9.0</ele>
        <time>2022-05-14T11:30:20.331Z</time>
      </trkpt>
      <trkpt lat="39.523295" lon="2.53272333">
        <ele>9.0</ele>
        <time>2022-05-14T11:30:21.332Z</time>
      </trkpt>
      <trkpt lat="39.52327333" lon="2.532695">
        <ele>9.0</ele>
        <time>2022-05-14T11:30:22.332Z</time>
      </trkpt>
      <trkpt lat="39.52324333" lon="2.532665">
        <ele>8.0</ele>
        <time>2022-05-14T11:30:23.332Z</time>
      </trkpt>
      <trkpt lat="39.52322333" lon="2.53264333">
        <ele>8.0</ele>
        <time>2022-05-14T11:30:24.332Z</time>
      </trkpt>
      <trkpt lat="39.5232" lon="2.53261667">
        <ele>9.0</ele>
        <time>2022-05-14T11:30:25.332Z</time>
      </trkpt>
      <trkpt lat="39.52317667" lon="2.53259167">
        <ele>9.0</ele>
        <time>2022-05-14T11:30:26.332Z</time>
      </trkpt>
      <trkpt lat="39.52315667" lon="2.53256667">
        <ele>9.0</ele>
        <time>2022-05-14T11:30:27.331Z</time>
      </trkpt>
      <trkpt lat="39.52313667" lon="2.53253167">
        <ele>8.0</ele>
        <time>2022-05-14T11:30:28.332Z</time>
      </trkpt>
      <trkpt lat="39.523125" lon="2.53250667">
        <ele>8.0</ele>
        <time>2022-05-14T11:30:29.331Z</time>
      </trkpt>
      <trkpt lat="39.52311" lon="2.53246667">
        <ele>8.0</ele>
        <time>2022-05-14T11:30:30.332Z</time>
      </trkpt>
      <trkpt lat="39.5231" lon="2.53244167">
        <ele>8.0</ele>
        <time>2022-05-14T11:30:31.332Z</time>
      </trkpt>
      <trkpt lat="39.52308333" lon="2.53240667">
        <ele>8.0</ele>
        <time>2022-05-14T11:30:32.332Z</time>
      </trkpt>
      <trkpt lat="39.52307" lon="2.532385">
        <ele>8.0</ele>
        <time>2022-05-14T11:30:33.331Z</time>
      </trkpt>
      <trkpt lat="39.52305" lon="2.53235">
        <ele>8.0</ele>
        <time>2022-05-14T11:30:34.332Z</time>
      </trkpt>
      <trkpt lat="39.52303667" lon="2.532325">
        <ele>8.0</ele>
        <time>2022-05-14T11:30:35.331Z</time>
      </trkpt>
      <trkpt lat="39.52301833" lon="2.532295">
        <ele>8.0</ele>
        <time>2022-05-14T11:30:36.331Z</time>
      </trkpt>
      <trkpt lat="39.52300333" lon="2.53226833">
        <ele>8.0</ele>
        <time>2022-05-14T11:30:37.331Z</time>
      </trkpt>
      <trkpt lat="39.522985" lon="2.53224333">
        <ele>9.0</ele>
        <time>2022-05-14T11:30:38.331Z</time>
      </trkpt>
      <trkpt lat="39.52296833" lon="2.532215">
        <ele>9.0</ele>
        <time>2022-05-14T11:30:39.332Z</time>
      </trkpt>
      <trkpt lat="39.52295167" lon="2.53218667">
        <ele>9.0</ele>
        <time>2022-05-14T11:30:40.332Z</time>
      </trkpt>
      <trkpt lat="39.52293833" lon="2.53215333">
        <ele>9.0</ele>
        <time>2022-05-14T11:30:41.332Z</time>
      </trkpt>
      <trkpt lat="39.52292167" lon="2.53212167">
        <ele>9.0</ele>
        <time>2022-05-14T11:30:42.332Z</time>
      </trkpt>
      <trkpt lat="39.5229" lon="2.532085">
        <ele>9.0</ele>
        <time>2022-05-14T11:30:43.332Z</time>
      </trkpt>
      <trkpt lat="39.52288667" lon="2.53206167">
        <ele>9.0</ele>
        <time>2022-05-14T11:30:44.331Z</time>
      </trkpt>
      <trkpt lat="39.52286833" lon="2.532035">
        <ele>10.0</ele>
        <time>2022-05-14T11:30:45.332Z</time>
      </trkpt>
      <trkpt lat="39.52284833" lon="2.53200167">
        <ele>10.0</ele>
        <time>2022-05-14T11:30:46.332Z</time>
      </trkpt>
      <trkpt lat="39.522835" lon="2.53198167">
        <ele>10.0</ele>
        <time>2022-05-14T11:30:47.331Z</time>
      </trkpt>
      <trkpt lat="39.52281833" lon="2.53195167">
        <ele>11.0</ele>
        <time>2022-05-14T11:30:48.332Z</time>
      </trkpt>
      <trkpt lat="39.5228" lon="2.531925">
        <ele>11.0</ele>
        <time>2022-05-14T11:30:49.331Z</time>
      </trkpt>
      <trkpt lat="39.52277667" lon="2.53189167">
        <ele>11.0</ele>
        <time>2022-05-14T11:30:50.332Z</time>
      </trkpt>
      <trkpt lat="39.52276167" lon="2.53186833">
        <ele>11.0</ele>
        <time>2022-05-14T11:30:51.332Z</time>
      </trkpt>
      <trkpt lat="39.52274" lon="2.53183667">
        <ele>12.0</ele>
        <time>2022-05-14T11:30:52.331Z</time>
      </trkpt>
      <trkpt lat="39.52272667" lon="2.53181333">
        <ele>12.0</ele>
        <time>2022-05-14T11:30:53.331Z</time>
      </trkpt>
      <trkpt lat="39.52271" lon="2.53178333">
        <ele>13.0</ele>
        <time>2022-05-14T11:30:54.331Z</time>
      </trkpt>
      <trkpt lat="39.52269167" lon="2.53175333">
        <ele>13.0</ele>
        <time>2022-05-14T11:30:55.332Z</time>
      </trkpt>
      <trkpt lat="39.52267" lon="2.53171833">
        <ele>14.0</ele>
        <time>2022-05-14T11:30:56.332Z</time>
      </trkpt>
      <trkpt lat="39.52265333" lon="2.53169167">
        <ele>14.0</ele>
        <time>2022-05-14T11:30:57.332Z</time>
      </trkpt>
      <trkpt lat="39.52264" lon="2.53167167">
        <ele>15.0</ele>
        <time>2022-05-14T11:30:58.332Z</time>
      </trkpt>
      <trkpt lat="39.52262" lon="2.531635">
        <ele>15.0</ele>
        <time>2022-05-14T11:30:59.332Z</time>
      </trkpt>
      <trkpt lat="39.522605" lon="2.53161333">
        <ele>15.0</ele>
        <time>2022-05-14T11:31:00.332Z</time>
      </trkpt>
      <trkpt lat="39.522585" lon="2.53157667">
        <ele>15.0</ele>
        <time>2022-05-14T11:31:01.332Z</time>
      </trkpt>
      <trkpt lat="39.52257" lon="2.53155333">
        <ele>15.0</ele>
        <time>2022-05-14T11:31:02.331Z</time>
      </trkpt>
      <trkpt lat="39.52255333" lon="2.531525">
        <ele>15.0</ele>
        <time>2022-05-14T11:31:03.331Z</time>
      </trkpt>
      <trkpt lat="39.52253167" lon="2.53148833">
        <ele>14.0</ele>
        <time>2022-05-14T11:31:04.332Z</time>
      </trkpt>
      <trkpt lat="39.52251667" lon="2.531465">
        <ele>14.0</ele>
        <time>2022-05-14T11:31:05.332Z</time>
      </trkpt>
      <trkpt lat="39.52249667" lon="2.53143">
        <ele>14.0</ele>
        <time>2022-05-14T11:31:06.331Z</time>
      </trkpt>
      <trkpt lat="39.52248333" lon="2.53140833">
        <ele>14.0</ele>
        <time>2022-05-14T11:31:07.332Z</time>
      </trkpt>
      <trkpt lat="39.52247167" lon="2.53138167">
        <ele>14.0</ele>
        <time>2022-05-14T11:31:08.332Z</time>
      </trkpt>
      <trkpt lat="39.52245667" lon="2.53136">
        <ele>15.0</ele>
        <time>2022-05-14T11:31:09.332Z</time>
      </trkpt>
      <trkpt lat="39.52244" lon="2.531335">
        <ele>15.0</ele>
        <time>2022-05-14T11:31:10.332Z</time>
      </trkpt>
      <trkpt lat="39.522425" lon="2.53131667">
        <ele>15.0</ele>
        <time>2022-05-14T11:31:11.332Z</time>
      </trkpt>
      <trkpt lat="39.52240833" lon="2.53129333">
        <ele>16.0</ele>
        <time>2022-05-14T11:31:12.332Z</time>
      </trkpt>
      <trkpt lat="39.52239" lon="2.53126833">
        <ele>16.0</ele>
        <time>2022-05-14T11:31:13.332Z</time>
      </trkpt>
      <trkpt lat="39.52237333" lon="2.53123667">
        <ele>16.0</ele>
        <time>2022-05-14T11:31:14.332Z</time>
      </trkpt>
      <trkpt lat="39.52235833" lon="2.53120833">
        <ele>16.0</ele>
        <time>2022-05-14T11:31:15.332Z</time>
      </trkpt>
      <trkpt lat="39.52234667" lon="2.53118333">
        <ele>17.0</ele>
        <time>2022-05-14T11:31:16.332Z</time>
      </trkpt>
      <trkpt lat="39.52233333" lon="2.53115333">
        <ele>17.0</ele>
        <time>2022-05-14T11:31:17.331Z</time>
      </trkpt>
      <trkpt lat="39.52231833" lon="2.53112333">
        <ele>17.0</ele>
        <time>2022-05-14T11:31:18.332Z</time>
      </trkpt>
      <trkpt lat="39.52230333" lon="2.53109333">
        <ele>17.0</ele>
        <time>2022-05-14T11:31:19.331Z</time>
      </trkpt>
      <trkpt lat="39.52228833" lon="2.531065">
        <ele>17.0</ele>
        <time>2022-05-14T11:31:20.332Z</time>
      </trkpt>
      <trkpt lat="39.52227167" lon="2.53104">
        <ele>17.0</ele>
        <time>2022-05-14T11:31:21.331Z</time>
      </trkpt>
      <trkpt lat="39.52225333" lon="2.53100667">
        <ele>18.0</ele>
        <time>2022-05-14T11:31:22.331Z</time>
      </trkpt>
      <trkpt lat="39.52224167" lon="2.530985">
        <ele>18.0</ele>
        <time>2022-05-14T11:31:23.331Z</time>
      </trkpt>
      <trkpt lat="39.52222333" lon="2.53095667">
        <ele>18.0</ele>
        <time>2022-05-14T11:31:24.332Z</time>
      </trkpt>
      <trkpt lat="39.52221167" lon="2.53093667">
        <ele>19.0</ele>
        <time>2022-05-14T11:31:25.332Z</time>
      </trkpt>
      <trkpt lat="39.52219333" lon="2.53091333">
        <ele>19.0</ele>
        <time>2022-05-14T11:31:26.332Z</time>
      </trkpt>
      <trkpt lat="39.52217667" lon="2.53089167">
        <ele>20.0</ele>
        <time>2022-05-14T11:31:27.332Z</time>
      </trkpt>
      <trkpt lat="39.52215667" lon="2.530865">
        <ele>20.0</ele>
        <time>2022-05-14T11:31:28.332Z</time>
      </trkpt>
      <trkpt lat="39.522145" lon="2.53084667">
        <ele>19.0</ele>
        <time>2022-05-14T11:31:29.331Z</time>
      </trkpt>
      <trkpt lat="39.52213333" lon="2.53082333">
        <ele>19.0</ele>
        <time>2022-05-14T11:31:30.332Z</time>
      </trkpt>
      <trkpt lat="39.52212333" lon="2.53079667">
        <ele>18.0</ele>
        <time>2022-05-14T11:31:31.332Z</time>
      </trkpt>
      <trkpt lat="39.52211333" lon="2.53077">
        <ele>17.0</ele>
        <time>2022-05-14T11:31:32.332Z</time>
      </trkpt>
      <trkpt lat="39.52210167" lon="2.53074167">
        <ele>17.0</ele>
        <time>2022-05-14T11:31:33.332Z</time>
      </trkpt>
      <trkpt lat="39.52208833" lon="2.53071167">
        <ele>17.0</ele>
        <time>2022-05-14T11:31:34.331Z</time>
      </trkpt>
      <trkpt lat="39.52207333" lon="2.53067333">
        <ele>17.0</ele>
        <time>2022-05-14T11:31:35.332Z</time>
      </trkpt>
      <trkpt lat="39.52206167" lon="2.53064167">
        <ele>16.0</ele>
        <time>2022-05-14T11:31:36.331Z</time>
      </trkpt>
      <trkpt lat="39.52205" lon="2.53061">
        <ele>17.0</ele>
        <time>2022-05-14T11:31:37.332Z</time>
      </trkpt>
      <trkpt lat="39.52204167" lon="2.530585">
        <ele>17.0</ele>
        <time>2022-05-14T11:31:38.332Z</time>
      </trkpt>
      <trkpt lat="39.52203333" lon="2.53055333">
        <ele>17.0</ele>
        <time>2022-05-14T11:31:39.332Z</time>
      </trkpt>
      <trkpt lat="39.522025" lon="2.530515">
        <ele>18.0</ele>
        <time>2022-05-14T11:31:40.332Z</time>
      </trkpt>
      <trkpt lat="39.52201833" lon="2.53048167">
        <ele>18.0</ele>
        <time>2022-05-14T11:31:41.332Z</time>
      </trkpt>
      <trkpt lat="39.52201167" lon="2.53045833">
        <ele>19.0</ele>
        <time>2022-05-14T11:31:42.332Z</time>
      </trkpt>
      <trkpt lat="39.52200333" lon="2.53042667">
        <ele>20.0</ele>
        <time>2022-05-14T11:31:43.332Z</time>
      </trkpt>
      <trkpt lat="39.52199333" lon="2.53039">
        <ele>20.0</ele>
        <time>2022-05-14T11:31:44.332Z</time>
      </trkpt>
      <trkpt lat="39.521985" lon="2.53036">
        <ele>20.0</ele>
        <time>2022-05-14T11:31:45.332Z</time>
      </trkpt>
      <trkpt lat="39.52197667" lon="2.53033167">
        <ele>21.0</ele>
        <time>2022-05-14T11:31:46.331Z</time>
      </trkpt>
      <trkpt lat="39.52196667" lon="2.53030833">
        <ele>21.0</ele>
        <time>2022-05-14T11:31:47.331Z</time>
      </trkpt>
      <trkpt lat="39.52195167" lon="2.53028167">
        <ele>21.0</ele>
        <time>2022-05-14T11:31:48.332Z</time>
      </trkpt>
      <trkpt lat="39.52193167" lon="2.53025333">
        <ele>21.0</ele>
        <time>2022-05-14T11:31:49.331Z</time>
      </trkpt>
      <trkpt lat="39.52191167" lon="2.53023333">
        <ele>21.0</ele>
        <time>2022-05-14T11:31:50.332Z</time>
      </trkpt>
      <trkpt lat="39.521895" lon="2.53021667">
        <ele>21.0</ele>
        <time>2022-05-14T11:31:51.332Z</time>
      </trkpt>
      <trkpt lat="39.521875" lon="2.530195">
        <ele>21.0</ele>
        <time>2022-05-14T11:31:52.331Z</time>
      </trkpt>
      <trkpt lat="39.52185" lon="2.53017167">
        <ele>21.0</ele>
        <time>2022-05-14T11:31:53.331Z</time>
      </trkpt>
      <trkpt lat="39.52183167" lon="2.53015167">
        <ele>21.0</ele>
        <time>2022-05-14T11:31:54.331Z</time>
      </trkpt>
      <trkpt lat="39.52180833" lon="2.53014">
        <ele>21.0</ele>
        <time>2022-05-14T11:31:55.332Z</time>
      </trkpt>
      <trkpt lat="39.52179" lon="2.53013833">
        <ele>22.0</ele>
        <time>2022-05-14T11:31:56.332Z</time>
      </trkpt>
      <trkpt lat="39.52176333" lon="2.53013667">
        <ele>22.0</ele>
        <time>2022-05-14T11:31:57.331Z</time>
      </trkpt>
      <trkpt lat="39.52174167" lon="2.53013833">
        <ele>22.0</ele>
        <time>2022-05-14T11:31:58.332Z</time>
      </trkpt>
      <trkpt lat="39.52171833" lon="2.53014167">
        <ele>21.0</ele>
        <time>2022-05-14T11:31:59.332Z</time>
      </trkpt>
      <trkpt lat="39.52169667" lon="2.53014833">
        <ele>21.0</ele>
        <time>2022-05-14T11:32:00.332Z</time>
      </trkpt>
      <trkpt lat="39.52167333" lon="2.530155">
        <ele>21.0</ele>
        <time>2022-05-14T11:32:01.332Z</time>
      </trkpt>
      <trkpt lat="39.52165" lon="2.53016667">
        <ele>21.0</ele>
        <time>2022-05-14T11:32:02.331Z</time>
      </trkpt>
      <trkpt lat="39.521625" lon="2.53017">
        <ele>22.0</ele>
        <time>2022-05-14T11:32:03.331Z</time>
      </trkpt>
      <trkpt lat="39.52160167" lon="2.53016667">
        <ele>22.0</ele>
        <time>2022-05-14T11:32:04.332Z</time>
      </trkpt>
      <trkpt lat="39.52158" lon="2.53016167">
        <ele>22.0</ele>
        <time>2022-05-14T11:32:05.332Z</time>
      </trkpt>
      <trkpt lat="39.52156667" lon="2.53014833">
        <ele>22.0</ele>
        <time>2022-05-14T11:32:06.332Z</time>
      </trkpt>
      <trkpt lat="39.52155833" lon="2.53013667">
        <ele>22.0</ele>
        <time>2022-05-14T11:32:07.332Z</time>
      </trkpt>
      <trkpt lat="39.52156333" lon="2.53013167">
        <ele>22.0</ele>
        <time>2022-05-14T11:32:08.331Z</time>
      </trkpt>
      <trkpt lat="39.52157167" lon="2.53013833">
        <ele>22.0</ele>
        <time>2022-05-14T11:32:09.331Z</time>
      </trkpt>
      <trkpt lat="39.52158167" lon="2.53015">
        <ele>22.0</ele>
        <time>2022-05-14T11:32:10.332Z</time>
      </trkpt>
      <trkpt lat="39.52159167" lon="2.53016333">
        <ele>22.0</ele>
        <time>2022-05-14T11:32:11.332Z</time>
      </trkpt>
      <trkpt lat="39.52159333" lon="2.53017833">
        <ele>23.0</ele>
        <time>2022-05-14T11:32:12.331Z</time>
      </trkpt>
      <trkpt lat="39.52159" lon="2.530195">
        <ele>23.0</ele>
        <time>2022-05-14T11:32:13.332Z</time>
      </trkpt>
      <trkpt lat="39.52158833" lon="2.53021333">
        <ele>24.0</ele>
        <time>2022-05-14T11:32:14.332Z</time>
      </trkpt>
      <trkpt lat="39.52158" lon="2.53023">
        <ele>24.0</ele>
        <time>2022-05-14T11:32:15.331Z</time>
      </trkpt>
      <trkpt lat="39.521565" lon="2.53026">
        <ele>24.0</ele>
        <time>2022-05-14T11:32:16.332Z</time>
      </trkpt>
      <trkpt lat="39.52156" lon="2.53028833">
        <ele>24.0</ele>
        <time>2022-05-14T11:32:17.331Z</time>
      </trkpt>
      <trkpt lat="39.52155167" lon="2.53032333">
        <ele>24.0</ele>
        <time>2022-05-14T11:32:18.332Z</time>
      </trkpt>
      <trkpt lat="39.52153667" lon="2.53035">
        <ele>23.0</ele>
        <time>2022-05-14T11:32:19.331Z</time>
      </trkpt>
      <trkpt lat="39.52152167" lon="2.53038">
        <ele>24.0</ele>
        <time>2022-05-14T11:32:20.332Z</time>
      </trkpt>
      <trkpt lat="39.521505" lon="2.53040667">
        <ele>24.0</ele>
        <time>2022-05-14T11:32:21.332Z</time>
      </trkpt>
      <trkpt lat="39.52148" lon="2.530435">
        <ele>23.0</ele>
        <time>2022-05-14T11:32:22.332Z</time>
      </trkpt>
      <trkpt lat="39.52146167" lon="2.530445">
        <ele>23.0</ele>
        <time>2022-05-14T11:32:23.331Z</time>
      </trkpt>
      <trkpt lat="39.52143667" lon="2.53044333">
        <ele>24.0</ele>
        <time>2022-05-14T11:32:24.332Z</time>
      </trkpt>
      <trkpt lat="39.52141333" lon="2.530425">
        <ele>24.0</ele>
        <time>2022-05-14T11:32:25.331Z</time>
      </trkpt>
      <trkpt lat="39.521395" lon="2.53040167">
        <ele>24.0</ele>
        <time>2022-05-14T11:32:26.332Z</time>
      </trkpt>
      <trkpt lat="39.52138333" lon="2.53037667">
        <ele>24.0</ele>
        <time>2022-05-14T11:32:27.331Z</time>
      </trkpt>
      <trkpt lat="39.52137333" lon="2.53035167">
        <ele>24.0</ele>
        <time>2022-05-14T11:32:28.331Z</time>
      </trkpt>
      <trkpt lat="39.52136333" lon="2.53032167">
        <ele>24.0</ele>
        <time>2022-05-14T11:32:29.332Z</time>
      </trkpt>
      <trkpt lat="39.52134833" lon="2.53028833">
        <ele>23.0</ele>
        <time>2022-05-14T11:32:30.332Z</time>
      </trkpt>
      <trkpt lat="39.52133667" lon="2.53026">
        <ele>23.0</ele>
        <time>2022-05-14T11:32:31.332Z</time>
      </trkpt>
      <trkpt lat="39.521325" lon="2.53022833">
        <ele>23.0</ele>
        <time>2022-05-14T11:32:32.332Z</time>
      </trkpt>
      <trkpt lat="39.52131" lon="2.5302">
        <ele>23.0</ele>
        <time>2022-05-14T11:32:33.332Z</time>
      </trkpt>
      <trkpt lat="39.52129833" lon="2.530175">
        <ele>23.0</ele>
        <time>2022-05-14T11:32:34.332Z</time>
      </trkpt>
      <trkpt lat="39.52128" lon="2.530145">
        <ele>22.0</ele>
        <time>2022-05-14T11:32:35.332Z</time>
      </trkpt>
      <trkpt lat="39.521265" lon="2.53011833">
        <ele>22.0</ele>
        <time>2022-05-14T11:32:36.332Z</time>
      </trkpt>
      <trkpt lat="39.52125167" lon="2.53009333">
        <ele>22.0</ele>
        <time>2022-05-14T11:32:37.332Z</time>
      </trkpt>
      <trkpt lat="39.52123833" lon="2.53007333">
        <ele>22.0</ele>
        <time>2022-05-14T11:32:38.332Z</time>
      </trkpt>
      <trkpt lat="39.52122167" lon="2.53005">
        <ele>22.0</ele>
        <time>2022-05-14T11:32:39.331Z</time>
      </trkpt>
      <trkpt lat="39.52120333" lon="2.53002167">
        <ele>23.0</ele>
        <time>2022-05-14T11:32:40.331Z</time>
      </trkpt>
      <trkpt lat="39.52119167" lon="2.53000167">
        <ele>23.0</ele>
        <time>2022-05-14T11:32:41.332Z</time>
      </trkpt>
      <trkpt lat="39.52117167" lon="2.52997167">
        <ele>24.0</ele>
        <time>2022-05-14T11:32:42.332Z</time>
      </trkpt>
      <trkpt lat="39.52115833" lon="2.52995167">
        <ele>24.0</ele>
        <time>2022-05-14T11:32:43.331Z</time>
      </trkpt>
      <trkpt lat="39.52114167" lon="2.52992833">
        <ele>25.0</ele>
        <time>2022-05-14T11:32:44.332Z</time>
      </trkpt>
      <trkpt lat="39.521125" lon="2.52990333">
        <ele>25.0</ele>
        <time>2022-05-14T11:32:45.332Z</time>
      </trkpt>
      <trkpt lat="39.52111" lon="2.52988">
        <ele>25.0</ele>
        <time>2022-05-14T11:32:46.332Z</time>
      </trkpt>
      <trkpt lat="39.52109167" lon="2.52985667">
        <ele>25.0</ele>
        <time>2022-05-14T11:32:47.332Z</time>
      </trkpt>
      <trkpt lat="39.52107333" lon="2.52983333">
        <ele>26.0</ele>
        <time>2022-05-14T11:32:48.332Z</time>
      </trkpt>
      <trkpt lat="39.52105667" lon="2.52981167">
        <ele>26.0</ele>
        <time>2022-05-14T11:32:49.332Z</time>
      </trkpt>
      <trkpt lat="39.52103833" lon="2.52979333">
        <ele>26.0</ele>
        <time>2022-05-14T11:32:50.332Z</time>
      </trkpt>
      <trkpt lat="39.52101833" lon="2.529775">
        <ele>26.0</ele>
        <time>2022-05-14T11:32:51.332Z</time>
      </trkpt>
      <trkpt lat="39.52099667" lon="2.529755">
        <ele>26.0</ele>
        <time>2022-05-14T11:32:52.332Z</time>
      </trkpt>
      <trkpt lat="39.52097667" lon="2.52973167">
        <ele>27.0</ele>
        <time>2022-05-14T11:32:53.332Z</time>
      </trkpt>
      <trkpt lat="39.52096167" lon="2.52971167">
        <ele>27.0</ele>
        <time>2022-05-14T11:32:54.332Z</time>
      </trkpt>
      <trkpt lat="39.520945" lon="2.52969">
        <ele>27.0</ele>
        <time>2022-05-14T11:32:55.331Z</time>
      </trkpt>
      <trkpt lat="39.52092833" lon="2.52967167">
        <ele>28.0</ele>
        <time>2022-05-14T11:32:56.332Z</time>
      </trkpt>
      <trkpt lat="39.52091" lon="2.52965167">
        <ele>27.0</ele>
        <time>2022-05-14T11:32:57.332Z</time>
      </trkpt>
      <trkpt lat="39.52089167" lon="2.52963">
        <ele>27.0</ele>
        <time>2022-05-14T11:32:58.331Z</time>
      </trkpt>
      <trkpt lat="39.52087333" lon="2.52960667">
        <ele>28.0</ele>
        <time>2022-05-14T11:32:59.332Z</time>
      </trkpt>
      <trkpt lat="39.52085167" lon="2.52958333">
        <ele>28.0</ele>
        <time>2022-05-14T11:33:00.332Z</time>
      </trkpt>
      <trkpt lat="39.52083333" lon="2.529565">
        <ele>28.0</ele>
        <time>2022-05-14T11:33:01.332Z</time>
      </trkpt>
      <trkpt lat="39.52081333" lon="2.529545">
        <ele>28.0</ele>
        <time>2022-05-14T11:33:02.332Z</time>
      </trkpt>
      <trkpt lat="39.52079667" lon="2.52953">
        <ele>29.0</ele>
        <time>2022-05-14T11:33:03.332Z</time>
      </trkpt>
      <trkpt lat="39.52077667" lon="2.52951167">
        <ele>30.0</ele>
        <time>2022-05-14T11:33:04.332Z</time>
      </trkpt>
      <trkpt lat="39.52075167" lon="2.52948333">
        <ele>30.0</ele>
        <time>2022-05-14T11:33:05.331Z</time>
      </trkpt>
      <trkpt lat="39.52073" lon="2.52946">
        <ele>31.0</ele>
        <time>2022-05-14T11:33:06.332Z</time>
      </trkpt>
      <trkpt lat="39.52071167" lon="2.52944">
        <ele>31.0</ele>
        <time>2022-05-14T11:33:07.332Z</time>
      </trkpt>
      <trkpt lat="39.52069167" lon="2.52942">
        <ele>32.0</ele>
        <time>2022-05-14T11:33:08.332Z</time>
      </trkpt>
      <trkpt lat="39.52066833" lon="2.5294">
        <ele>32.0</ele>
        <time>2022-05-14T11:33:09.332Z</time>
      </trkpt>
      <trkpt lat="39.52064667" lon="2.52938333">
        <ele>33.0</ele>
        <time>2022-05-14T11:33:10.332Z</time>
      </trkpt>
      <trkpt lat="39.520625" lon="2.52936167">
        <ele>33.0</ele>
        <time>2022-05-14T11:33:11.332Z</time>
      </trkpt>
      <trkpt lat="39.520605" lon="2.52934333">
        <ele>34.0</ele>
        <time>2022-05-14T11:33:12.332Z</time>
      </trkpt>
      <trkpt lat="39.52058833" lon="2.52932667">
        <ele>34.0</ele>
        <time>2022-05-14T11:33:13.332Z</time>
      </trkpt>
      <trkpt lat="39.52056833" lon="2.52931167">
        <ele>34.0</ele>
        <time>2022-05-14T11:33:14.332Z</time>
      </trkpt>
      <trkpt lat="39.52055667" lon="2.529305">
        <ele>34.0</ele>
        <time>2022-05-14T11:33:15.331Z</time>
      </trkpt>
      <trkpt lat="39.52053833" lon="2.52929167">
        <ele>34.0</ele>
        <time>2022-05-14T11:33:16.331Z</time>
      </trkpt>
      <trkpt lat="39.52052333" lon="2.52927667">
        <ele>34.0</ele>
        <time>2022-05-14T11:33:17.332Z</time>
      </trkpt>
      <trkpt lat="39.52051333" lon="2.52925833">
        <ele>34.0</ele>
        <time>2022-05-14T11:33:18.332Z</time>
      </trkpt>
      <trkpt lat="39.520505" lon="2.52924167">
        <ele>33.0</ele>
        <time>2022-05-14T11:33:19.332Z</time>
      </trkpt>
      <trkpt lat="39.520495" lon="2.52922333">
        <ele>33.0</ele>
        <time>2022-05-14T11:33:20.332Z</time>
      </trkpt>
      <trkpt lat="39.52048833" lon="2.52921333">
        <ele>33.0</ele>
        <time>2022-05-14T11:33:21.331Z</time>
      </trkpt>
      <trkpt lat="39.520475" lon="2.529205">
        <ele>33.0</ele>
        <time>2022-05-14T11:33:22.331Z</time>
      </trkpt>
      <trkpt lat="39.52046333" lon="2.5292">
        <ele>32.0</ele>
        <time>2022-05-14T11:33:23.332Z</time>
      </trkpt>
      <trkpt lat="39.52045" lon="2.52918833">
        <ele>32.0</ele>
        <time>2022-05-14T11:33:24.332Z</time>
      </trkpt>
      <trkpt lat="39.52043833" lon="2.529175">
        <ele>32.0</ele>
        <time>2022-05-14T11:33:25.331Z</time>
      </trkpt>
      <trkpt lat="39.52042667" lon="2.52916167">
        <ele>32.0</ele>
        <time>2022-05-14T11:33:26.332Z</time>
      </trkpt>
      <trkpt lat="39.52041" lon="2.52914">
        <ele>32.0</ele>
        <time>2022-05-14T11:33:27.331Z</time>
      </trkpt>
      <trkpt lat="39.5204" lon="2.52912833">
        <ele>32.0</ele>
        <time>2022-05-14T11:33:28.332Z</time>
      </trkpt>
      <trkpt lat="39.52037833" lon="2.529115">
        <ele>32.0</ele>
        <time>2022-05-14T11:33:29.332Z</time>
      </trkpt>
      <trkpt lat="39.52036167" lon="2.52910833">
        <ele>31.0</ele>
        <time>2022-05-14T11:33:30.331Z</time>
      </trkpt>
      <trkpt lat="39.52033667" lon="2.52909667">
        <ele>31.0</ele>
        <time>2022-05-14T11:33:31.332Z</time>
      </trkpt>
      <trkpt lat="39.52031833" lon="2.52907833">
        <ele>31.0</ele>
        <time>2022-05-14T11:33:32.332Z</time>
      </trkpt>
      <trkpt lat="39.52029833" lon="2.529055">
        <ele>31.0</ele>
        <time>2022-05-14T11:33:33.332Z</time>
      </trkpt>
      <trkpt lat="39.52027167" lon="2.52903">
        <ele>31.0</ele>
        <time>2022-05-14T11:33:34.331Z</time>
      </trkpt>
      <trkpt lat="39.52025" lon="2.529015">
        <ele>31.0</ele>
        <time>2022-05-14T11:33:35.332Z</time>
      </trkpt>
      <trkpt lat="39.520215" lon="2.52898833">
        <ele>31.0</ele>
        <time>2022-05-14T11:33:36.332Z</time>
      </trkpt>
      <trkpt lat="39.52018" lon="2.52896167">
        <ele>32.0</ele>
        <time>2022-05-14T11:33:37.332Z</time>
      </trkpt>
      <trkpt lat="39.52015" lon="2.52893667">
        <ele>32.0</ele>
        <time>2022-05-14T11:33:38.332Z</time>
      </trkpt>
      <trkpt lat="39.520115" lon="2.52889667">
        <ele>32.0</ele>
        <time>2022-05-14T11:33:39.331Z</time>
      </trkpt>
      <trkpt lat="39.52007833" lon="2.52884833">
        <ele>31.0</ele>
        <time>2022-05-14T11:33:40.332Z</time>
      </trkpt>
      <trkpt lat="39.52003833" lon="2.528775">
        <ele>31.0</ele>
        <time>2022-05-14T11:33:41.331Z</time>
      </trkpt>
      <trkpt lat="39.520015" lon="2.52869667">
        <ele>30.0</ele>
        <time>2022-05-14T11:33:42.332Z</time>
      </trkpt>
      <trkpt lat="39.52" lon="2.52862">
        <ele>30.0</ele>
        <time>2022-05-14T11:33:43.332Z</time>
      </trkpt>
      <trkpt lat="39.51998833" lon="2.52852333">
        <ele>29.0</ele>
        <time>2022-05-14T11:33:44.332Z</time>
      </trkpt>
      <trkpt lat="39.51997833" lon="2.52840167">
        <ele>29.0</ele>
        <time>2022-05-14T11:33:45.332Z</time>
      </trkpt>
      <trkpt lat="39.51997333" lon="2.52831333">
        <ele>29.0</ele>
        <time>2022-05-14T11:33:46.331Z</time>
      </trkpt>
      <trkpt lat="39.51995833" lon="2.52818">
        <ele>28.0</ele>
        <time>2022-05-14T11:33:47.332Z</time>
      </trkpt>
      <trkpt lat="39.51994" lon="2.528085">
        <ele>28.0</ele>
        <time>2022-05-14T11:33:48.332Z</time>
      </trkpt>
      <trkpt lat="39.51991167" lon="2.52797">
        <ele>28.0</ele>
        <time>2022-05-14T11:33:49.332Z</time>
      </trkpt>
      <trkpt lat="39.51986667" lon="2.52784">
        <ele>28.0</ele>
        <time>2022-05-14T11:33:50.331Z</time>
      </trkpt>
      <trkpt lat="39.51982833" lon="2.52773167">
        <ele>28.0</ele>
        <time>2022-05-14T11:33:51.332Z</time>
      </trkpt>
      <trkpt lat="39.51978833" lon="2.52763">
        <ele>27.0</ele>
        <time>2022-05-14T11:33:52.331Z</time>
      </trkpt>
      <trkpt lat="39.519755" lon="2.52755167">
        <ele>27.0</ele>
        <time>2022-05-14T11:33:53.332Z</time>
      </trkpt>
      <trkpt lat="39.51970167" lon="2.52743167">
        <ele>27.0</ele>
        <time>2022-05-14T11:33:54.332Z</time>
      </trkpt>
      <trkpt lat="39.519665" lon="2.52735333">
        <ele>26.0</ele>
        <time>2022-05-14T11:33:55.332Z</time>
      </trkpt>
      <trkpt lat="39.51961333" lon="2.52724167">
        <ele>26.0</ele>
        <time>2022-05-14T11:33:56.332Z</time>
      </trkpt>
      <trkpt lat="39.51958" lon="2.527165">
        <ele>25.0</ele>
        <time>2022-05-14T11:33:57.332Z</time>
      </trkpt>
      <trkpt lat="39.51953833" lon="2.52706667">
        <ele>24.0</ele>
        <time>2022-05-14T11:33:58.331Z</time>
      </trkpt>
      <trkpt lat="39.519485" lon="2.52695">
        <ele>23.0</ele>
        <time>2022-05-14T11:33:59.332Z</time>
      </trkpt>
      <trkpt lat="39.51945167" lon="2.52687167">
        <ele>23.0</ele>
        <time>2022-05-14T11:34:00.332Z</time>
      </trkpt>
      <trkpt lat="39.51941" lon="2.52676833">
        <ele>23.0</ele>
        <time>2022-05-14T11:34:01.331Z</time>
      </trkpt>
      <trkpt lat="39.51936833" lon="2.526665">
        <ele>23.0</ele>
        <time>2022-05-14T11:34:02.332Z</time>
      </trkpt>
      <trkpt lat="39.51931667" lon="2.52654333">
        <ele>23.0</ele>
        <time>2022-05-14T11:34:03.332Z</time>
      </trkpt>
      <trkpt lat="39.51928333" lon="2.52646167">
        <ele>23.0</ele>
        <time>2022-05-14T11:34:04.332Z</time>
      </trkpt>
      <trkpt lat="39.51923667" lon="2.526365">
        <ele>22.0</ele>
        <time>2022-05-14T11:34:05.332Z</time>
      </trkpt>
      <trkpt lat="39.51919167" lon="2.52626667">
        <ele>22.0</ele>
        <time>2022-05-14T11:34:06.331Z</time>
      </trkpt>
      <trkpt lat="39.51914833" lon="2.52616833">
        <ele>22.0</ele>
        <time>2022-05-14T11:34:07.332Z</time>
      </trkpt>
      <trkpt lat="39.51910333" lon="2.52607667">
        <ele>22.0</ele>
        <time>2022-05-14T11:34:08.332Z</time>
      </trkpt>
      <trkpt lat="39.51906333" lon="2.52599">
        <ele>22.0</ele>
        <time>2022-05-14T11:34:09.332Z</time>
      </trkpt>
      <trkpt lat="39.51902667" lon="2.52591">
        <ele>22.0</ele>
        <time>2022-05-14T11:34:10.332Z</time>
      </trkpt>
      <trkpt lat="39.51899167" lon="2.52583667">
        <ele>22.0</ele>
        <time>2022-05-14T11:34:11.331Z</time>
      </trkpt>
      <trkpt lat="39.51896333" lon="2.52576833">
        <ele>22.0</ele>
        <time>2022-05-14T11:34:12.332Z</time>
      </trkpt>
      <trkpt lat="39.51893333" lon="2.52570833">
        <ele>22.0</ele>
        <time>2022-05-14T11:34:13.331Z</time>
      </trkpt>
      <trkpt lat="39.51890667" lon="2.525655">
        <ele>22.0</ele>
        <time>2022-05-14T11:34:14.332Z</time>
      </trkpt>
      <trkpt lat="39.51887667" lon="2.52559667">
        <ele>22.0</ele>
        <time>2022-05-14T11:34:15.331Z</time>
      </trkpt>
      <trkpt lat="39.51885833" lon="2.525565">
        <ele>22.0</ele>
        <time>2022-05-14T11:34:16.332Z</time>
      </trkpt>
      <trkpt lat="39.518835" lon="2.525515">
        <ele>22.0</ele>
        <time>2022-05-14T11:34:17.332Z</time>
      </trkpt>
      <trkpt lat="39.518825" lon="2.52548167">
        <ele>22.0</ele>
        <time>2022-05-14T11:34:18.332Z</time>
      </trkpt>
      <trkpt lat="39.51881833" lon="2.52544333">
        <ele>23.0</ele>
        <time>2022-05-14T11:34:19.332Z</time>
      </trkpt>
      <trkpt lat="39.51881333" lon="2.5254">
        <ele>23.0</ele>
        <time>2022-05-14T11:34:20.332Z</time>
      </trkpt>
      <trkpt lat="39.51880833" lon="2.52537667">
        <ele>23.0</ele>
        <time>2022-05-14T11:34:21.332Z</time>
      </trkpt>
      <trkpt lat="39.51880167" lon="2.52535">
        <ele>23.0</ele>
        <time>2022-05-14T11:34:22.332Z</time>
      </trkpt>
      <trkpt lat="39.51879333" lon="2.525325">
        <ele>24.0</ele>
        <time>2022-05-14T11:34:23.332Z</time>
      </trkpt>
      <trkpt lat="39.518785" lon="2.52530167">
        <ele>24.0</ele>
        <time>2022-05-14T11:34:24.331Z</time>
      </trkpt>
      <trkpt lat="39.51878333" lon="2.525275">
        <ele>25.0</ele>
        <time>2022-05-14T11:34:25.331Z</time>
      </trkpt>
      <trkpt lat="39.518785" lon="2.52524667">
        <ele>25.0</ele>
        <time>2022-05-14T11:34:26.332Z</time>
      </trkpt>
      <trkpt lat="39.51879167" lon="2.52522">
        <ele>25.0</ele>
        <time>2022-05-14T11:34:27.332Z</time>
      </trkpt>
      <trkpt lat="39.51879833" lon="2.52518167">
        <ele>26.0</ele>
        <time>2022-05-14T11:34:28.332Z</time>
      </trkpt>
      <trkpt lat="39.518805" lon="2.52515167">
        <ele>26.0</ele>
        <time>2022-05-14T11:34:29.332Z</time>
      </trkpt>
      <trkpt lat="39.51880833" lon="2.52513">
        <ele>26.0</ele>
        <time>2022-05-14T11:34:30.332Z</time>
      </trkpt>
      <trkpt lat="39.51881333" lon="2.52510167">
        <ele>26.0</ele>
        <time>2022-05-14T11:34:31.332Z</time>
      </trkpt>
      <trkpt lat="39.51881667" lon="2.52507333">
        <ele>27.0</ele>
        <time>2022-05-14T11:34:32.331Z</time>
      </trkpt>
      <trkpt lat="39.51882167" lon="2.52504667">
        <ele>27.0</ele>
        <time>2022-05-14T11:34:33.331Z</time>
      </trkpt>
      <trkpt lat="39.51882667" lon="2.52502">
        <ele>28.0</ele>
        <time>2022-05-14T11:34:34.331Z</time>
      </trkpt>
      <trkpt lat="39.51883167" lon="2.52498833">
        <ele>28.0</ele>
        <time>2022-05-14T11:34:35.332Z</time>
      </trkpt>
      <trkpt lat="39.51884" lon="2.52496">
        <ele>28.0</ele>
        <time>2022-05-14T11:34:36.331Z</time>
      </trkpt>
      <trkpt lat="39.51885333" lon="2.52493333">
        <ele>28.0</ele>
        <time>2022-05-14T11:34:37.332Z</time>
      </trkpt>
      <trkpt lat="39.51886333" lon="2.52490833">
        <ele>29.0</ele>
        <time>2022-05-14T11:34:38.332Z</time>
      </trkpt>
      <trkpt lat="39.51887167" lon="2.524885">
        <ele>29.0</ele>
        <time>2022-05-14T11:34:39.332Z</time>
      </trkpt>
      <trkpt lat="39.51887167" lon="2.52486833">
        <ele>29.0</ele>
        <time>2022-05-14T11:34:40.331Z</time>
      </trkpt>
      <trkpt lat="39.51887" lon="2.52485833">
        <ele>29.0</ele>
        <time>2022-05-14T11:34:41.332Z</time>
      </trkpt>
      <trkpt lat="39.51886333" lon="2.52486">
        <ele>29.0</ele>
        <time>2022-05-14T11:34:42.332Z</time>
      </trkpt>
      <trkpt lat="39.51885833" lon="2.52487167">
        <ele>29.0</ele>
        <time>2022-05-14T11:34:43.332Z</time>
      </trkpt>
      <trkpt lat="39.51885667" lon="2.52489">
        <ele>29.0</ele>
        <time>2022-05-14T11:34:44.332Z</time>
      </trkpt>
      <trkpt lat="39.518855" lon="2.52492">
        <ele>29.0</ele>
        <time>2022-05-14T11:34:45.332Z</time>
      </trkpt>
      <trkpt lat="39.51885333" lon="2.52495">
        <ele>29.0</ele>
        <time>2022-05-14T11:34:46.332Z</time>
      </trkpt>
      <trkpt lat="39.51885167" lon="2.52498167">
        <ele>29.0</ele>
        <time>2022-05-14T11:34:47.332Z</time>
      </trkpt>
      <trkpt lat="39.518845" lon="2.52500833">
        <ele>29.0</ele>
        <time>2022-05-14T11:34:48.332Z</time>
      </trkpt>
      <trkpt lat="39.51884167" lon="2.52504">
        <ele>28.0</ele>
        <time>2022-05-14T11:34:49.332Z</time>
      </trkpt>
      <trkpt lat="39.51883333" lon="2.52507333">
        <ele>28.0</ele>
        <time>2022-05-14T11:34:50.332Z</time>
      </trkpt>
      <trkpt lat="39.51882667" lon="2.525105">
        <ele>28.0</ele>
        <time>2022-05-14T11:34:51.331Z</time>
      </trkpt>
      <trkpt lat="39.51882333" lon="2.52513">
        <ele>28.0</ele>
        <time>2022-05-14T11:34:52.332Z</time>
      </trkpt>
      <trkpt lat="39.51882" lon="2.525155">
        <ele>27.0</ele>
        <time>2022-05-14T11:34:53.332Z</time>
      </trkpt>
      <trkpt lat="39.518825" lon="2.52517333">
        <ele>27.0</ele>
        <time>2022-05-14T11:34:54.332Z</time>
      </trkpt>
      <trkpt lat="39.51882833" lon="2.52518667">
        <ele>27.0</ele>
        <time>2022-05-14T11:34:55.331Z</time>
      </trkpt>
      <trkpt lat="39.51883167" lon="2.525185">
        <ele>26.0</ele>
        <time>2022-05-14T11:34:56.331Z</time>
      </trkpt>
      <trkpt lat="39.518835" lon="2.52516833">
        <ele>26.0</ele>
        <time>2022-05-14T11:34:57.332Z</time>
      </trkpt>
      <trkpt lat="39.51883833" lon="2.52514167">
        <ele>26.0</ele>
        <time>2022-05-14T11:34:58.331Z</time>
      </trkpt>
      <trkpt lat="39.518845" lon="2.52511">
        <ele>26.0</ele>
        <time>2022-05-14T11:34:59.332Z</time>
      </trkpt>
      <trkpt lat="39.51885667" lon="2.52507667">
        <ele>26.0</ele>
        <time>2022-05-14T11:35:00.331Z</time>
      </trkpt>
      <trkpt lat="39.51886833" lon="2.52504">
        <ele>26.0</ele>
        <time>2022-05-14T11:35:01.331Z</time>
      </trkpt>
      <trkpt lat="39.51887667" lon="2.52499667">
        <ele>26.0</ele>
        <time>2022-05-14T11:35:02.332Z</time>
      </trkpt>
      <trkpt lat="39.518885" lon="2.52494833">
        <ele>26.0</ele>
        <time>2022-05-14T11:35:03.332Z</time>
      </trkpt>
      <trkpt lat="39.51889" lon="2.524895">
        <ele>26.0</ele>
        <time>2022-05-14T11:35:04.332Z</time>
      </trkpt>
      <trkpt lat="39.51889833" lon="2.524835">
        <ele>27.0</ele>
        <time>2022-05-14T11:35:05.332Z</time>
      </trkpt>
      <trkpt lat="39.51890667" lon="2.52477333">
        <ele>27.0</ele>
        <time>2022-05-14T11:35:06.332Z</time>
      </trkpt>
      <trkpt lat="39.518915" lon="2.524705">
        <ele>27.0</ele>
        <time>2022-05-14T11:35:07.332Z</time>
      </trkpt>
      <trkpt lat="39.51892333" lon="2.52462167">
        <ele>27.0</ele>
        <time>2022-05-14T11:35:08.332Z</time>
      </trkpt>
      <trkpt lat="39.51892833" lon="2.52455833">
        <ele>26.0</ele>
        <time>2022-05-14T11:35:09.332Z</time>
      </trkpt>
      <trkpt lat="39.51893333" lon="2.52447333">
        <ele>26.0</ele>
        <time>2022-05-14T11:35:10.332Z</time>
      </trkpt>
      <trkpt lat="39.51893833" lon="2.52438">
        <ele>25.0</ele>
        <time>2022-05-14T11:35:11.332Z</time>
      </trkpt>
      <trkpt lat="39.51894" lon="2.52428">
        <ele>25.0</ele>
        <time>2022-05-14T11:35:12.332Z</time>
      </trkpt>
      <trkpt lat="39.51894" lon="2.52417833">
        <ele>25.0</ele>
        <time>2022-05-14T11:35:13.332Z</time>
      </trkpt>
      <trkpt lat="39.51893833" lon="2.52406833">
        <ele>24.0</ele>
        <time>2022-05-14T11:35:14.332Z</time>
      </trkpt>
      <trkpt lat="39.51894167" lon="2.523955">
        <ele>24.0</ele>
        <time>2022-05-14T11:35:15.332Z</time>
      </trkpt>
      <trkpt lat="39.51895" lon="2.52384">
        <ele>24.0</ele>
        <time>2022-05-14T11:35:16.331Z</time>
      </trkpt>
      <trkpt lat="39.51896667" lon="2.52372">
        <ele>23.0</ele>
        <time>2022-05-14T11:35:17.332Z</time>
      </trkpt>
      <trkpt lat="39.51899" lon="2.52359667">
        <ele>22.0</ele>
        <time>2022-05-14T11:35:18.331Z</time>
      </trkpt>
      <trkpt lat="39.51902167" lon="2.52346833">
        <ele>22.0</ele>
        <time>2022-05-14T11:35:19.332Z</time>
      </trkpt>
      <trkpt lat="39.51906" lon="2.52334">
        <ele>21.0</ele>
        <time>2022-05-14T11:35:20.331Z</time>
      </trkpt>
      <trkpt lat="39.519105" lon="2.52321333">
        <ele>21.0</ele>
        <time>2022-05-14T11:35:21.331Z</time>
      </trkpt>
      <trkpt lat="39.51915667" lon="2.52309">
        <ele>20.0</ele>
        <time>2022-05-14T11:35:22.332Z</time>
      </trkpt>
      <trkpt lat="39.51920833" lon="2.52297333">
        <ele>19.0</ele>
        <time>2022-05-14T11:35:23.332Z</time>
      </trkpt>
      <trkpt lat="39.519255" lon="2.52285">
        <ele>18.0</ele>
        <time>2022-05-14T11:35:24.332Z</time>
      </trkpt>
      <trkpt lat="39.51928833" lon="2.52272667">
        <ele>18.0</ele>
        <time>2022-05-14T11:35:25.332Z</time>
      </trkpt>
      <trkpt lat="39.51931333" lon="2.52260667">
        <ele>17.0</ele>
        <time>2022-05-14T11:35:26.332Z</time>
      </trkpt>
      <trkpt lat="39.51933333" lon="2.52246333">
        <ele>16.0</ele>
        <time>2022-05-14T11:35:27.332Z</time>
      </trkpt>
      <trkpt lat="39.51934333" lon="2.52234333">
        <ele>16.0</ele>
        <time>2022-05-14T11:35:28.331Z</time>
      </trkpt>
      <trkpt lat="39.519345" lon="2.52225">
        <ele>17.0</ele>
        <time>2022-05-14T11:35:29.332Z</time>
      </trkpt>
      <trkpt lat="39.51933833" lon="2.52213667">
        <ele>17.0</ele>
        <time>2022-05-14T11:35:30.331Z</time>
      </trkpt>
      <trkpt lat="39.51931667" lon="2.52203333">
        <ele>16.0</ele>
        <time>2022-05-14T11:35:31.331Z</time>
      </trkpt>
      <trkpt lat="39.519285" lon="2.52193667">
        <ele>16.0</ele>
        <time>2022-05-14T11:35:32.332Z</time>
      </trkpt>
      <trkpt lat="39.51924" lon="2.52185">
        <ele>16.0</ele>
        <time>2022-05-14T11:35:33.332Z</time>
      </trkpt>
      <trkpt lat="39.519185" lon="2.52177167">
        <ele>15.0</ele>
        <time>2022-05-14T11:35:34.332Z</time>
      </trkpt>
      <trkpt lat="39.51912" lon="2.52170833">
        <ele>15.0</ele>
        <time>2022-05-14T11:35:35.332Z</time>
      </trkpt>
      <trkpt lat="39.51905" lon="2.52165833">
        <ele>15.0</ele>
        <time>2022-05-14T11:35:36.331Z</time>
      </trkpt>
      <trkpt lat="39.51897" lon="2.52162167">
        <ele>15.0</ele>
        <time>2022-05-14T11:35:37.332Z</time>
      </trkpt>
      <trkpt lat="39.51887833" lon="2.52159667">
        <ele>15.0</ele>
        <time>2022-05-14T11:35:38.331Z</time>
      </trkpt>
      <trkpt lat="39.51878833" lon="2.52157167">
        <ele>15.0</ele>
        <time>2022-05-14T11:35:39.331Z</time>
      </trkpt>
      <trkpt lat="39.51869333" lon="2.52154167">
        <ele>15.0</ele>
        <time>2022-05-14T11:35:40.331Z</time>
      </trkpt>
      <trkpt lat="39.51859667" lon="2.52152833">
        <ele>15.0</ele>
        <time>2022-05-14T11:35:41.332Z</time>
      </trkpt>
      <trkpt lat="39.51850333" lon="2.52151167">
        <ele>15.0</ele>
        <time>2022-05-14T11:35:42.331Z</time>
      </trkpt>
      <trkpt lat="39.51840833" lon="2.5215">
        <ele>15.0</ele>
        <time>2022-05-14T11:35:43.332Z</time>
      </trkpt>
      <trkpt lat="39.518315" lon="2.52148333">
        <ele>14.0</ele>
        <time>2022-05-14T11:35:44.332Z</time>
      </trkpt>
      <trkpt lat="39.51822167" lon="2.52146833">
        <ele>14.0</ele>
        <time>2022-05-14T11:35:45.332Z</time>
      </trkpt>
      <trkpt lat="39.51812667" lon="2.521455">
        <ele>13.0</ele>
        <time>2022-05-14T11:35:46.332Z</time>
      </trkpt>
      <trkpt lat="39.51802833" lon="2.52144333">
        <ele>13.0</ele>
        <time>2022-05-14T11:35:47.331Z</time>
      </trkpt>
      <trkpt lat="39.51793167" lon="2.52142667">
        <ele>12.0</ele>
        <time>2022-05-14T11:35:48.332Z</time>
      </trkpt>
      <trkpt lat="39.517835" lon="2.52140667">
        <ele>11.0</ele>
        <time>2022-05-14T11:35:49.332Z</time>
      </trkpt>
      <trkpt lat="39.51774" lon="2.52138">
        <ele>11.0</ele>
        <time>2022-05-14T11:35:50.332Z</time>
      </trkpt>
      <trkpt lat="39.51764667" lon="2.52135333">
        <ele>11.0</ele>
        <time>2022-05-14T11:35:51.332Z</time>
      </trkpt>
      <trkpt lat="39.517555" lon="2.52133167">
        <ele>10.0</ele>
        <time>2022-05-14T11:35:52.331Z</time>
      </trkpt>
      <trkpt lat="39.51746333" lon="2.52131833">
        <ele>10.0</ele>
        <time>2022-05-14T11:35:53.332Z</time>
      </trkpt>
      <trkpt lat="39.517375" lon="2.52130667">
        <ele>9.0</ele>
        <time>2022-05-14T11:35:54.332Z</time>
      </trkpt>
      <trkpt lat="39.51729" lon="2.52129167">
        <ele>8.0</ele>
        <time>2022-05-14T11:35:55.332Z</time>
      </trkpt>
      <trkpt lat="39.517205" lon="2.52127167">
        <ele>8.0</ele>
        <time>2022-05-14T11:35:56.332Z</time>
      </trkpt>
      <trkpt lat="39.51712333" lon="2.52124667">
        <ele>8.0</ele>
        <time>2022-05-14T11:35:57.332Z</time>
      </trkpt>
      <trkpt lat="39.517045" lon="2.52121333">
        <ele>7.0</ele>
        <time>2022-05-14T11:35:58.332Z</time>
      </trkpt>
      <trkpt lat="39.516955" lon="2.52116">
        <ele>7.0</ele>
        <time>2022-05-14T11:35:59.331Z</time>
      </trkpt>
      <trkpt lat="39.51688833" lon="2.52110833">
        <ele>6.0</ele>
        <time>2022-05-14T11:36:00.332Z</time>
      </trkpt>
      <trkpt lat="39.51683667" lon="2.52106667">
        <ele>6.0</ele>
        <time>2022-05-14T11:36:01.332Z</time>
      </trkpt>
      <trkpt lat="39.51677" lon="2.52101333">
        <ele>6.0</ele>
        <time>2022-05-14T11:36:02.331Z</time>
      </trkpt>
      <trkpt lat="39.51670667" lon="2.52096333">
        <ele>5.0</ele>
        <time>2022-05-14T11:36:03.332Z</time>
      </trkpt>
      <trkpt lat="39.51664167" lon="2.52091667">
        <ele>5.0</ele>
        <time>2022-05-14T11:36:04.332Z</time>
      </trkpt>
      <trkpt lat="39.51657667" lon="2.52087167">
        <ele>5.0</ele>
        <time>2022-05-14T11:36:05.332Z</time>
      </trkpt>
      <trkpt lat="39.51650167" lon="2.52082">
        <ele>5.0</ele>
        <time>2022-05-14T11:36:06.332Z</time>
      </trkpt>
      <trkpt lat="39.51645" lon="2.52078667">
        <ele>5.0</ele>
        <time>2022-05-14T11:36:07.332Z</time>
      </trkpt>
      <trkpt lat="39.516385" lon="2.52074667">
        <ele>5.0</ele>
        <time>2022-05-14T11:36:08.332Z</time>
      </trkpt>
      <trkpt lat="39.51632167" lon="2.52071">
        <ele>5.0</ele>
        <time>2022-05-14T11:36:09.332Z</time>
      </trkpt>
      <trkpt lat="39.51624667" lon="2.52066833">
        <ele>5.0</ele>
        <time>2022-05-14T11:36:10.332Z</time>
      </trkpt>
      <trkpt lat="39.51619333" lon="2.52064167">
        <ele>5.0</ele>
        <time>2022-05-14T11:36:11.331Z</time>
      </trkpt>
      <trkpt lat="39.51613167" lon="2.52060833">
        <ele>6.0</ele>
        <time>2022-05-14T11:36:12.332Z</time>
      </trkpt>
      <trkpt lat="39.51607333" lon="2.520575">
        <ele>5.0</ele>
        <time>2022-05-14T11:36:13.332Z</time>
      </trkpt>
      <trkpt lat="39.516015" lon="2.52054333">
        <ele>5.0</ele>
        <time>2022-05-14T11:36:14.331Z</time>
      </trkpt>
      <trkpt lat="39.51594667" lon="2.52050333">
        <ele>5.0</ele>
        <time>2022-05-14T11:36:15.332Z</time>
      </trkpt>
      <trkpt lat="39.5159" lon="2.52047333">
        <ele>6.0</ele>
        <time>2022-05-14T11:36:16.331Z</time>
      </trkpt>
      <trkpt lat="39.515845" lon="2.520435">
        <ele>6.0</ele>
        <time>2022-05-14T11:36:17.332Z</time>
      </trkpt>
      <trkpt lat="39.51578167" lon="2.520395">
        <ele>6.0</ele>
        <time>2022-05-14T11:36:18.332Z</time>
      </trkpt>
      <trkpt lat="39.51573" lon="2.52036167">
        <ele>6.0</ele>
        <time>2022-05-14T11:36:19.331Z</time>
      </trkpt>
      <trkpt lat="39.51567833" lon="2.520325">
        <ele>6.0</ele>
        <time>2022-05-14T11:36:20.331Z</time>
      </trkpt>
      <trkpt lat="39.51564" lon="2.520295">
        <ele>6.0</ele>
        <time>2022-05-14T11:36:21.331Z</time>
      </trkpt>
      <trkpt lat="39.51559167" lon="2.52025833">
        <ele>6.0</ele>
        <time>2022-05-14T11:36:22.331Z</time>
      </trkpt>
      <trkpt lat="39.515545" lon="2.52022167">
        <ele>6.0</ele>
        <time>2022-05-14T11:36:23.332Z</time>
      </trkpt>
      <trkpt lat="39.51549167" lon="2.52017833">
        <ele>6.0</ele>
        <time>2022-05-14T11:36:24.332Z</time>
      </trkpt>
      <trkpt lat="39.51544667" lon="2.52014333">
        <ele>6.0</ele>
        <time>2022-05-14T11:36:25.331Z</time>
      </trkpt>
      <trkpt lat="39.51541" lon="2.520115">
        <ele>6.0</ele>
        <time>2022-05-14T11:36:26.332Z</time>
      </trkpt>
      <trkpt lat="39.51535667" lon="2.52007167">
        <ele>6.0</ele>
        <time>2022-05-14T11:36:27.332Z</time>
      </trkpt>
      <trkpt lat="39.51532333" lon="2.52004333">
        <ele>6.0</ele>
        <time>2022-05-14T11:36:28.331Z</time>
      </trkpt>
      <trkpt lat="39.51528" lon="2.52000833">
        <ele>6.0</ele>
        <time>2022-05-14T11:36:29.332Z</time>
      </trkpt>
      <trkpt lat="39.515235" lon="2.519975">
        <ele>6.0</ele>
        <time>2022-05-14T11:36:30.331Z</time>
      </trkpt>
      <trkpt lat="39.51519167" lon="2.51994167">
        <ele>6.0</ele>
        <time>2022-05-14T11:36:31.332Z</time>
      </trkpt>
      <trkpt lat="39.51514167" lon="2.51990167">
        <ele>6.0</ele>
        <time>2022-05-14T11:36:32.332Z</time>
      </trkpt>
      <trkpt lat="39.51509833" lon="2.51987167">
        <ele>6.0</ele>
        <time>2022-05-14T11:36:33.332Z</time>
      </trkpt>
      <trkpt lat="39.515065" lon="2.51984833">
        <ele>6.0</ele>
        <time>2022-05-14T11:36:34.332Z</time>
      </trkpt>
      <trkpt lat="39.51502" lon="2.51981833">
        <ele>6.0</ele>
        <time>2022-05-14T11:36:35.332Z</time>
      </trkpt>
      <trkpt lat="39.51496167" lon="2.51978667">
        <ele>6.0</ele>
        <time>2022-05-14T11:36:36.332Z</time>
      </trkpt>
      <trkpt lat="39.51491333" lon="2.51976167">
        <ele>6.0</ele>
        <time>2022-05-14T11:36:37.332Z</time>
      </trkpt>
      <trkpt lat="39.514875" lon="2.51974167">
        <ele>6.0</ele>
        <time>2022-05-14T11:36:38.332Z</time>
      </trkpt>
      <trkpt lat="39.51482667" lon="2.51971333">
        <ele>6.0</ele>
        <time>2022-05-14T11:36:39.331Z</time>
      </trkpt>
      <trkpt lat="39.51477833" lon="2.51968667">
        <ele>6.0</ele>
        <time>2022-05-14T11:36:40.331Z</time>
      </trkpt>
      <trkpt lat="39.51473" lon="2.51966">
        <ele>6.0</ele>
        <time>2022-05-14T11:36:41.332Z</time>
      </trkpt>
      <trkpt lat="39.51467" lon="2.51963">
        <ele>6.0</ele>
        <time>2022-05-14T11:36:42.331Z</time>
      </trkpt>
      <trkpt lat="39.51463" lon="2.51960833">
        <ele>6.0</ele>
        <time>2022-05-14T11:36:43.332Z</time>
      </trkpt>
      <trkpt lat="39.51457833" lon="2.51958333">
        <ele>6.0</ele>
        <time>2022-05-14T11:36:44.331Z</time>
      </trkpt>
      <trkpt lat="39.51453167" lon="2.51956">
        <ele>6.0</ele>
        <time>2022-05-14T11:36:45.331Z</time>
      </trkpt>
      <trkpt lat="39.51448167" lon="2.51953667">
        <ele>5.0</ele>
        <time>2022-05-14T11:36:46.332Z</time>
      </trkpt>
      <trkpt lat="39.51443167" lon="2.51951667">
        <ele>5.0</ele>
        <time>2022-05-14T11:36:47.332Z</time>
      </trkpt>
      <trkpt lat="39.51438167" lon="2.51949333">
        <ele>5.0</ele>
        <time>2022-05-14T11:36:48.332Z</time>
      </trkpt>
      <trkpt lat="39.51433167" lon="2.51947">
        <ele>5.0</ele>
        <time>2022-05-14T11:36:49.332Z</time>
      </trkpt>
      <trkpt lat="39.51428333" lon="2.51944833">
        <ele>5.0</ele>
        <time>2022-05-14T11:36:50.331Z</time>
      </trkpt>
      <trkpt lat="39.51422667" lon="2.51943">
        <ele>5.0</ele>
        <time>2022-05-14T11:36:51.331Z</time>
      </trkpt>
      <trkpt lat="39.51418833" lon="2.51942167">
        <ele>5.0</ele>
        <time>2022-05-14T11:36:52.332Z</time>
      </trkpt>
      <trkpt lat="39.51414167" lon="2.51941167">
        <ele>5.0</ele>
        <time>2022-05-14T11:36:53.332Z</time>
      </trkpt>
      <trkpt lat="39.51409333" lon="2.51940167">
        <ele>6.0</ele>
        <time>2022-05-14T11:36:54.332Z</time>
      </trkpt>
      <trkpt lat="39.51403833" lon="2.51939667">
        <ele>6.0</ele>
        <time>2022-05-14T11:36:55.332Z</time>
      </trkpt>
      <trkpt lat="39.51399333" lon="2.51939167">
        <ele>6.0</ele>
        <time>2022-05-14T11:36:56.331Z</time>
      </trkpt>
      <trkpt lat="39.51395833" lon="2.51938667">
        <ele>6.0</ele>
        <time>2022-05-14T11:36:57.331Z</time>
      </trkpt>
      <trkpt lat="39.51390667" lon="2.519375">
        <ele>6.0</ele>
        <time>2022-05-14T11:36:58.332Z</time>
      </trkpt>
      <trkpt lat="39.51387333" lon="2.51936667">
        <ele>6.0</ele>
        <time>2022-05-14T11:36:59.332Z</time>
      </trkpt>
      <trkpt lat="39.51382667" lon="2.51935167">
        <ele>6.0</ele>
        <time>2022-05-14T11:37:00.331Z</time>
      </trkpt>
      <trkpt lat="39.513795" lon="2.51934333">
        <ele>6.0</ele>
        <time>2022-05-14T11:37:01.331Z</time>
      </trkpt>
      <trkpt lat="39.513755" lon="2.51933333">
        <ele>6.0</ele>
        <time>2022-05-14T11:37:02.332Z</time>
      </trkpt>
      <trkpt lat="39.51370333" lon="2.51931667">
        <ele>6.0</ele>
        <time>2022-05-14T11:37:03.332Z</time>
      </trkpt>
      <trkpt lat="39.51366" lon="2.51929833">
        <ele>6.0</ele>
        <time>2022-05-14T11:37:04.331Z</time>
      </trkpt>
      <trkpt lat="39.513615" lon="2.51927667">
        <ele>6.0</ele>
        <time>2022-05-14T11:37:05.331Z</time>
      </trkpt>
      <trkpt lat="39.51357833" lon="2.51926">
        <ele>6.0</ele>
        <time>2022-05-14T11:37:06.331Z</time>
      </trkpt>
      <trkpt lat="39.513525" lon="2.51924333">
        <ele>6.0</ele>
        <time>2022-05-14T11:37:07.331Z</time>
      </trkpt>
      <trkpt lat="39.51348667" lon="2.519235">
        <ele>6.0</ele>
        <time>2022-05-14T11:37:08.332Z</time>
      </trkpt>
      <trkpt lat="39.51342667" lon="2.51922167">
        <ele>5.0</ele>
        <time>2022-05-14T11:37:09.332Z</time>
      </trkpt>
      <trkpt lat="39.513385" lon="2.519215">
        <ele>5.0</ele>
        <time>2022-05-14T11:37:10.332Z</time>
      </trkpt>
      <trkpt lat="39.51333333" lon="2.51920333">
        <ele>4.0</ele>
        <time>2022-05-14T11:37:11.332Z</time>
      </trkpt>
      <trkpt lat="39.51328167" lon="2.51919167">
        <ele>4.0</ele>
        <time>2022-05-14T11:37:12.331Z</time>
      </trkpt>
      <trkpt lat="39.51322" lon="2.51918">
        <ele>4.0</ele>
        <time>2022-05-14T11:37:13.332Z</time>
      </trkpt>
      <trkpt lat="39.513165" lon="2.51917667">
        <ele>4.0</ele>
        <time>2022-05-14T11:37:14.331Z</time>
      </trkpt>
      <trkpt lat="39.51312667" lon="2.519175">
        <ele>4.0</ele>
        <time>2022-05-14T11:37:15.332Z</time>
      </trkpt>
      <trkpt lat="39.51306667" lon="2.519175">
        <ele>4.0</ele>
        <time>2022-05-14T11:37:16.332Z</time>
      </trkpt>
      <trkpt lat="39.51301333" lon="2.51917333">
        <ele>3.0</ele>
        <time>2022-05-14T11:37:17.332Z</time>
      </trkpt>
      <trkpt lat="39.51295833" lon="2.51917">
        <ele>3.0</ele>
        <time>2022-05-14T11:37:18.332Z</time>
      </trkpt>
      <trkpt lat="39.512915" lon="2.51916667">
        <ele>3.0</ele>
        <time>2022-05-14T11:37:19.332Z</time>
      </trkpt>
      <trkpt lat="39.51286167" lon="2.51916667">
        <ele>3.0</ele>
        <time>2022-05-14T11:37:20.331Z</time>
      </trkpt>
      <trkpt lat="39.51279667" lon="2.51916167">
        <ele>3.0</ele>
        <time>2022-05-14T11:37:21.331Z</time>
      </trkpt>
      <trkpt lat="39.51274167" lon="2.519155">
        <ele>3.0</ele>
        <time>2022-05-14T11:37:22.332Z</time>
      </trkpt>
      <trkpt lat="39.51268667" lon="2.51915167">
        <ele>3.0</ele>
        <time>2022-05-14T11:37:23.331Z</time>
      </trkpt>
      <trkpt lat="39.512645" lon="2.51914667">
        <ele>3.0</ele>
        <time>2022-05-14T11:37:24.332Z</time>
      </trkpt>
      <trkpt lat="39.51258" lon="2.51913">
        <ele>3.0</ele>
        <time>2022-05-14T11:37:25.332Z</time>
      </trkpt>
      <trkpt lat="39.51252667" lon="2.519115">
        <ele>3.0</ele>
        <time>2022-05-14T11:37:26.332Z</time>
      </trkpt>
      <trkpt lat="39.51247333" lon="2.51909833">
        <ele>3.0</ele>
        <time>2022-05-14T11:37:27.332Z</time>
      </trkpt>
      <trkpt lat="39.51243167" lon="2.519085">
        <ele>3.0</ele>
        <time>2022-05-14T11:37:28.332Z</time>
      </trkpt>
      <trkpt lat="39.51237167" lon="2.51906833">
        <ele>3.0</ele>
        <time>2022-05-14T11:37:29.332Z</time>
      </trkpt>
      <trkpt lat="39.51231833" lon="2.51905667">
        <ele>3.0</ele>
        <time>2022-05-14T11:37:30.332Z</time>
      </trkpt>
      <trkpt lat="39.51226667" lon="2.51904667">
        <ele>3.0</ele>
        <time>2022-05-14T11:37:31.332Z</time>
      </trkpt>
      <trkpt lat="39.51221333" lon="2.51903833">
        <ele>3.0</ele>
        <time>2022-05-14T11:37:32.332Z</time>
      </trkpt>
      <trkpt lat="39.51217" lon="2.519035">
        <ele>3.0</ele>
        <time>2022-05-14T11:37:33.331Z</time>
      </trkpt>
      <trkpt lat="39.51211833" lon="2.51903167">
        <ele>3.0</ele>
        <time>2022-05-14T11:37:34.331Z</time>
      </trkpt>
      <trkpt lat="39.51205667" lon="2.51903333">
        <ele>3.0</ele>
        <time>2022-05-14T11:37:35.331Z</time>
      </trkpt>
      <trkpt lat="39.51200833" lon="2.519035">
        <ele>3.0</ele>
        <time>2022-05-14T11:37:36.332Z</time>
      </trkpt>
      <trkpt lat="39.51197" lon="2.51904167">
        <ele>3.0</ele>
        <time>2022-05-14T11:37:37.332Z</time>
      </trkpt>
      <trkpt lat="39.51192333" lon="2.519055">
        <ele>3.0</ele>
        <time>2022-05-14T11:37:38.332Z</time>
      </trkpt>
      <trkpt lat="39.51187167" lon="2.51907667">
        <ele>3.0</ele>
        <time>2022-05-14T11:37:39.331Z</time>
      </trkpt>
      <trkpt lat="39.51183833" lon="2.519095">
        <ele>3.0</ele>
        <time>2022-05-14T11:37:40.331Z</time>
      </trkpt>
      <trkpt lat="39.51179833" lon="2.51912">
        <ele>2.0</ele>
        <time>2022-05-14T11:37:41.332Z</time>
      </trkpt>
      <trkpt lat="39.511765" lon="2.51914833">
        <ele>1.0</ele>
        <time>2022-05-14T11:37:42.331Z</time>
      </trkpt>
      <trkpt lat="39.511725" lon="2.51918167">
        <ele>1.0</ele>
        <time>2022-05-14T11:37:43.331Z</time>
      </trkpt>
      <trkpt lat="39.51168833" lon="2.519205">
        <ele>1.0</ele>
        <time>2022-05-14T11:37:44.331Z</time>
      </trkpt>
      <trkpt lat="39.51165833" lon="2.51921833">
        <ele>1.0</ele>
        <time>2022-05-14T11:37:45.331Z</time>
      </trkpt>
      <trkpt lat="39.51161667" lon="2.519225">
        <ele>2.0</ele>
        <time>2022-05-14T11:37:46.332Z</time>
      </trkpt>
      <trkpt lat="39.51157167" lon="2.519225">
        <ele>3.0</ele>
        <time>2022-05-14T11:37:47.332Z</time>
      </trkpt>
      <trkpt lat="39.51152333" lon="2.51922167">
        <ele>3.0</ele>
        <time>2022-05-14T11:37:48.332Z</time>
      </trkpt>
      <trkpt lat="39.51147667" lon="2.519215">
        <ele>4.0</ele>
        <time>2022-05-14T11:37:49.332Z</time>
      </trkpt>
      <trkpt lat="39.51142833" lon="2.51920833">
        <ele>4.0</ele>
        <time>2022-05-14T11:37:50.332Z</time>
      </trkpt>
      <trkpt lat="39.51138" lon="2.51919833">
        <ele>4.0</ele>
        <time>2022-05-14T11:37:51.332Z</time>
      </trkpt>
      <trkpt lat="39.51133" lon="2.51918333">
        <ele>4.0</ele>
        <time>2022-05-14T11:37:52.331Z</time>
      </trkpt>
      <trkpt lat="39.51128" lon="2.51917">
        <ele>4.0</ele>
        <time>2022-05-14T11:37:53.332Z</time>
      </trkpt>
      <trkpt lat="39.51123" lon="2.51915">
        <ele>4.0</ele>
        <time>2022-05-14T11:37:54.332Z</time>
      </trkpt>
      <trkpt lat="39.511185" lon="2.519125">
        <ele>4.0</ele>
        <time>2022-05-14T11:37:55.332Z</time>
      </trkpt>
      <trkpt lat="39.51113833" lon="2.51909333">
        <ele>4.0</ele>
        <time>2022-05-14T11:37:56.332Z</time>
      </trkpt>
      <trkpt lat="39.51109667" lon="2.51906">
        <ele>4.0</ele>
        <time>2022-05-14T11:37:57.331Z</time>
      </trkpt>
      <trkpt lat="39.51105167" lon="2.519025">
        <ele>4.0</ele>
        <time>2022-05-14T11:37:58.331Z</time>
      </trkpt>
      <trkpt lat="39.51100667" lon="2.51899">
        <ele>4.0</ele>
        <time>2022-05-14T11:37:59.332Z</time>
      </trkpt>
      <trkpt lat="39.51096" lon="2.51895833">
        <ele>4.0</ele>
        <time>2022-05-14T11:38:00.332Z</time>
      </trkpt>
      <trkpt lat="39.51091167" lon="2.51893167">
        <ele>4.0</ele>
        <time>2022-05-14T11:38:01.332Z</time>
      </trkpt>
      <trkpt lat="39.51086" lon="2.51890833">
        <ele>4.0</ele>
        <time>2022-05-14T11:38:02.332Z</time>
      </trkpt>
      <trkpt lat="39.51081" lon="2.51889167">
        <ele>4.0</ele>
        <time>2022-05-14T11:38:03.332Z</time>
      </trkpt>
      <trkpt lat="39.51075667" lon="2.51888">
        <ele>4.0</ele>
        <time>2022-05-14T11:38:04.332Z</time>
      </trkpt>
      <trkpt lat="39.510705" lon="2.51886833">
        <ele>4.0</ele>
        <time>2022-05-14T11:38:05.332Z</time>
      </trkpt>
      <trkpt lat="39.51065333" lon="2.51886">
        <ele>5.0</ele>
        <time>2022-05-14T11:38:06.332Z</time>
      </trkpt>
      <trkpt lat="39.51060167" lon="2.51885167">
        <ele>4.0</ele>
        <time>2022-05-14T11:38:07.331Z</time>
      </trkpt>
      <trkpt lat="39.51055" lon="2.51885">
        <ele>4.0</ele>
        <time>2022-05-14T11:38:08.332Z</time>
      </trkpt>
      <trkpt lat="39.5105" lon="2.51885">
        <ele>4.0</ele>
        <time>2022-05-14T11:38:09.332Z</time>
      </trkpt>
      <trkpt lat="39.51045" lon="2.51884833">
        <ele>4.0</ele>
        <time>2022-05-14T11:38:10.332Z</time>
      </trkpt>
      <trkpt lat="39.51039833" lon="2.51884833">
        <ele>3.0</ele>
        <time>2022-05-14T11:38:11.332Z</time>
      </trkpt>
      <trkpt lat="39.510345" lon="2.51885333">
        <ele>3.0</ele>
        <time>2022-05-14T11:38:12.331Z</time>
      </trkpt>
      <trkpt lat="39.51029167" lon="2.51885833">
        <ele>3.0</ele>
        <time>2022-05-14T11:38:13.332Z</time>
      </trkpt>
      <trkpt lat="39.51024" lon="2.51886667">
        <ele>3.0</ele>
        <time>2022-05-14T11:38:14.332Z</time>
      </trkpt>
      <trkpt lat="39.51019" lon="2.51887667">
        <ele>3.0</ele>
        <time>2022-05-14T11:38:15.332Z</time>
      </trkpt>
      <trkpt lat="39.51013667" lon="2.51888667">
        <ele>4.0</ele>
        <time>2022-05-14T11:38:16.332Z</time>
      </trkpt>
      <trkpt lat="39.51008667" lon="2.5189">
        <ele>4.0</ele>
        <time>2022-05-14T11:38:17.331Z</time>
      </trkpt>
      <trkpt lat="39.51003667" lon="2.51891167">
        <ele>4.0</ele>
        <time>2022-05-14T11:38:18.332Z</time>
      </trkpt>
      <trkpt lat="39.50998667" lon="2.51892333">
        <ele>4.0</ele>
        <time>2022-05-14T11:38:19.332Z</time>
      </trkpt>
      <trkpt lat="39.50993667" lon="2.51893833">
        <ele>4.0</ele>
        <time>2022-05-14T11:38:20.331Z</time>
      </trkpt>
      <trkpt lat="39.50988833" lon="2.51895667">
        <ele>4.0</ele>
        <time>2022-05-14T11:38:21.332Z</time>
      </trkpt>
      <trkpt lat="39.50984" lon="2.51897333">
        <ele>4.0</ele>
        <time>2022-05-14T11:38:22.332Z</time>
      </trkpt>
      <trkpt lat="39.50979" lon="2.518985">
        <ele>4.0</ele>
        <time>2022-05-14T11:38:23.332Z</time>
      </trkpt>
      <trkpt lat="39.50974167" lon="2.519">
        <ele>4.0</ele>
        <time>2022-05-14T11:38:24.332Z</time>
      </trkpt>
      <trkpt lat="39.50969167" lon="2.51901167">
        <ele>4.0</ele>
        <time>2022-05-14T11:38:25.332Z</time>
      </trkpt>
      <trkpt lat="39.50964167" lon="2.519025">
        <ele>4.0</ele>
        <time>2022-05-14T11:38:26.332Z</time>
      </trkpt>
      <trkpt lat="39.50959167" lon="2.51903667">
        <ele>4.0</ele>
        <time>2022-05-14T11:38:27.332Z</time>
      </trkpt>
      <trkpt lat="39.50954333" lon="2.51904833">
        <ele>4.0</ele>
        <time>2022-05-14T11:38:28.332Z</time>
      </trkpt>
      <trkpt lat="39.509495" lon="2.51906">
        <ele>4.0</ele>
        <time>2022-05-14T11:38:29.332Z</time>
      </trkpt>
      <trkpt lat="39.50944667" lon="2.51907">
        <ele>3.0</ele>
        <time>2022-05-14T11:38:30.332Z</time>
      </trkpt>
      <trkpt lat="39.50939667" lon="2.51908">
        <ele>3.0</ele>
        <time>2022-05-14T11:38:31.332Z</time>
      </trkpt>
      <trkpt lat="39.50934667" lon="2.51908833">
        <ele>3.0</ele>
        <time>2022-05-14T11:38:32.332Z</time>
      </trkpt>
      <trkpt lat="39.50929833" lon="2.51909667">
        <ele>3.0</ele>
        <time>2022-05-14T11:38:33.332Z</time>
      </trkpt>
      <trkpt lat="39.50925" lon="2.5191">
        <ele>2.0</ele>
        <time>2022-05-14T11:38:34.331Z</time>
      </trkpt>
      <trkpt lat="39.5092" lon="2.51910333">
        <ele>2.0</ele>
        <time>2022-05-14T11:38:35.332Z</time>
      </trkpt>
      <trkpt lat="39.50915167" lon="2.519105">
        <ele>2.0</ele>
        <time>2022-05-14T11:38:36.332Z</time>
      </trkpt>
      <trkpt lat="39.50910333" lon="2.51910833">
        <ele>2.0</ele>
        <time>2022-05-14T11:38:37.331Z</time>
      </trkpt>
      <trkpt lat="39.50905333" lon="2.51911167">
        <ele>2.0</ele>
        <time>2022-05-14T11:38:38.332Z</time>
      </trkpt>
      <trkpt lat="39.509005" lon="2.519115">
        <ele>2.0</ele>
        <time>2022-05-14T11:38:39.332Z</time>
      </trkpt>
      <trkpt lat="39.50895667" lon="2.51911833">
        <ele>2.0</ele>
        <time>2022-05-14T11:38:40.332Z</time>
      </trkpt>
      <trkpt lat="39.50890833" lon="2.51912167">
        <ele>2.0</ele>
        <time>2022-05-14T11:38:41.332Z</time>
      </trkpt>
      <trkpt lat="39.50886" lon="2.519125">
        <ele>2.0</ele>
        <time>2022-05-14T11:38:42.331Z</time>
      </trkpt>
      <trkpt lat="39.50881167" lon="2.51912833">
        <ele>1.0</ele>
        <time>2022-05-14T11:38:43.332Z</time>
      </trkpt>
      <trkpt lat="39.50876167" lon="2.51913167">
        <ele>1.0</ele>
        <time>2022-05-14T11:38:44.331Z</time>
      </trkpt>
      <trkpt lat="39.50871" lon="2.519135">
        <ele>2.0</ele>
        <time>2022-05-14T11:38:45.332Z</time>
      </trkpt>
      <trkpt lat="39.50865667" lon="2.51914667">
        <ele>2.0</ele>
        <time>2022-05-14T11:38:46.331Z</time>
      </trkpt>
      <trkpt lat="39.50860667" lon="2.519155">
        <ele>2.0</ele>
        <time>2022-05-14T11:38:47.331Z</time>
      </trkpt>
      <trkpt lat="39.50856" lon="2.51916">
        <ele>3.0</ele>
        <time>2022-05-14T11:38:48.332Z</time>
      </trkpt>
      <trkpt lat="39.50851333" lon="2.51916667">
        <ele>3.0</ele>
        <time>2022-05-14T11:38:49.331Z</time>
      </trkpt>
      <trkpt lat="39.50846667" lon="2.519175">
        <ele>3.0</ele>
        <time>2022-05-14T11:38:50.331Z</time>
      </trkpt>
      <trkpt lat="39.50842" lon="2.51918167">
        <ele>3.0</ele>
        <time>2022-05-14T11:38:51.331Z</time>
      </trkpt>
      <trkpt lat="39.50837167" lon="2.519195">
        <ele>3.0</ele>
        <time>2022-05-14T11:38:52.331Z</time>
      </trkpt>
      <trkpt lat="39.50832667" lon="2.51920667">
        <ele>3.0</ele>
        <time>2022-05-14T11:38:53.332Z</time>
      </trkpt>
      <trkpt lat="39.508285" lon="2.51922">
        <ele>3.0</ele>
        <time>2022-05-14T11:38:54.332Z</time>
      </trkpt>
      <trkpt lat="39.50824167" lon="2.51923333">
        <ele>2.0</ele>
        <time>2022-05-14T11:38:55.332Z</time>
      </trkpt>
      <trkpt lat="39.50820167" lon="2.519245">
        <ele>2.0</ele>
        <time>2022-05-14T11:38:56.332Z</time>
      </trkpt>
      <trkpt lat="39.50815833" lon="2.51926">
        <ele>2.0</ele>
        <time>2022-05-14T11:38:57.331Z</time>
      </trkpt>
      <trkpt lat="39.50811667" lon="2.51927667">
        <ele>2.0</ele>
        <time>2022-05-14T11:38:58.332Z</time>
      </trkpt>
      <trkpt lat="39.50807667" lon="2.51929">
        <ele>2.0</ele>
        <time>2022-05-14T11:38:59.332Z</time>
      </trkpt>
      <trkpt lat="39.50803833" lon="2.51930833">
        <ele>1.0</ele>
        <time>2022-05-14T11:39:00.331Z</time>
      </trkpt>
      <trkpt lat="39.508" lon="2.51933333">
        <ele>2.0</ele>
        <time>2022-05-14T11:39:01.332Z</time>
      </trkpt>
      <trkpt lat="39.507965" lon="2.51935833">
        <ele>2.0</ele>
        <time>2022-05-14T11:39:02.332Z</time>
      </trkpt>
      <trkpt lat="39.50793167" lon="2.51938333">
        <ele>2.0</ele>
        <time>2022-05-14T11:39:03.332Z</time>
      </trkpt>
      <trkpt lat="39.5079" lon="2.51941167">
        <ele>2.0</ele>
        <time>2022-05-14T11:39:04.332Z</time>
      </trkpt>
      <trkpt lat="39.50787" lon="2.51944333">
        <ele>2.0</ele>
        <time>2022-05-14T11:39:05.332Z</time>
      </trkpt>
      <trkpt lat="39.50784" lon="2.51947833">
        <ele>2.0</ele>
        <time>2022-05-14T11:39:06.332Z</time>
      </trkpt>
      <trkpt lat="39.50781167" lon="2.519515">
        <ele>3.0</ele>
        <time>2022-05-14T11:39:07.332Z</time>
      </trkpt>
      <trkpt lat="39.507785" lon="2.51955">
        <ele>3.0</ele>
        <time>2022-05-14T11:39:08.332Z</time>
      </trkpt>
      <trkpt lat="39.50775833" lon="2.51958333">
        <ele>3.0</ele>
        <time>2022-05-14T11:39:09.332Z</time>
      </trkpt>
      <trkpt lat="39.50773" lon="2.519615">
        <ele>3.0</ele>
        <time>2022-05-14T11:39:10.332Z</time>
      </trkpt>
      <trkpt lat="39.50770667" lon="2.51964">
        <ele>3.0</ele>
        <time>2022-05-14T11:39:11.332Z</time>
      </trkpt>
      <trkpt lat="39.50767167" lon="2.519675">
        <ele>3.0</ele>
        <time>2022-05-14T11:39:12.332Z</time>
      </trkpt>
      <trkpt lat="39.50764167" lon="2.51970167">
        <ele>4.0</ele>
        <time>2022-05-14T11:39:13.332Z</time>
      </trkpt>
      <trkpt lat="39.50761333" lon="2.51973">
        <ele>4.0</ele>
        <time>2022-05-14T11:39:14.332Z</time>
      </trkpt>
      <trkpt lat="39.50758333" lon="2.51976167">
        <ele>4.0</ele>
        <time>2022-05-14T11:39:15.332Z</time>
      </trkpt>
      <trkpt lat="39.50755667" lon="2.51979167">
        <ele>4.0</ele>
        <time>2022-05-14T11:39:16.332Z</time>
      </trkpt>
      <trkpt lat="39.50752833" lon="2.51982333">
        <ele>5.0</ele>
        <time>2022-05-14T11:39:17.331Z</time>
      </trkpt>
      <trkpt lat="39.50749833" lon="2.519855">
        <ele>5.0</ele>
        <time>2022-05-14T11:39:18.332Z</time>
      </trkpt>
      <trkpt lat="39.50746833" lon="2.51988167">
        <ele>6.0</ele>
        <time>2022-05-14T11:39:19.332Z</time>
      </trkpt>
      <trkpt lat="39.507435" lon="2.5199">
        <ele>6.0</ele>
        <time>2022-05-14T11:39:20.331Z</time>
      </trkpt>
      <trkpt lat="39.50740667" lon="2.51990667">
        <ele>7.0</ele>
        <time>2022-05-14T11:39:21.331Z</time>
      </trkpt>
      <trkpt lat="39.50738" lon="2.51990333">
        <ele>7.0</ele>
        <time>2022-05-14T11:39:22.332Z</time>
      </trkpt>
      <trkpt lat="39.50735667" lon="2.51989167">
        <ele>7.0</ele>
        <time>2022-05-14T11:39:23.332Z</time>
      </trkpt>
      <trkpt lat="39.50733333" lon="2.51986667">
        <ele>7.0</ele>
        <time>2022-05-14T11:39:24.332Z</time>
      </trkpt>
      <trkpt lat="39.50730833" lon="2.519835">
        <ele>6.0</ele>
        <time>2022-05-14T11:39:25.332Z</time>
      </trkpt>
      <trkpt lat="39.50729" lon="2.51979833">
        <ele>6.0</ele>
        <time>2022-05-14T11:39:26.332Z</time>
      </trkpt>
      <trkpt lat="39.50727667" lon="2.519755">
        <ele>5.0</ele>
        <time>2022-05-14T11:39:27.331Z</time>
      </trkpt>
      <trkpt lat="39.50726667" lon="2.51970833">
        <ele>5.0</ele>
        <time>2022-05-14T11:39:28.332Z</time>
      </trkpt>
      <trkpt lat="39.507255" lon="2.519665">
        <ele>4.0</ele>
        <time>2022-05-14T11:39:29.332Z</time>
      </trkpt>
      <trkpt lat="39.50724" lon="2.51962167">
        <ele>4.0</ele>
        <time>2022-05-14T11:39:30.332Z</time>
      </trkpt>
      <trkpt lat="39.50722" lon="2.51958333">
        <ele>4.0</ele>
        <time>2022-05-14T11:39:31.332Z</time>
      </trkpt>
      <trkpt lat="39.50719667" lon="2.51955167">
        <ele>3.0</ele>
        <time>2022-05-14T11:39:32.332Z</time>
      </trkpt>
      <trkpt lat="39.50716833" lon="2.519525">
        <ele>3.0</ele>
        <time>2022-05-14T11:39:33.332Z</time>
      </trkpt>
      <trkpt lat="39.50713667" lon="2.51950667">
        <ele>3.0</ele>
        <time>2022-05-14T11:39:34.332Z</time>
      </trkpt>
      <trkpt lat="39.50710333" lon="2.51949">
        <ele>3.0</ele>
        <time>2022-05-14T11:39:35.332Z</time>
      </trkpt>
      <trkpt lat="39.50706667" lon="2.51947833">
        <ele>3.0</ele>
        <time>2022-05-14T11:39:36.332Z</time>
      </trkpt>
      <trkpt lat="39.50703" lon="2.51947167">
        <ele>2.0</ele>
        <time>2022-05-14T11:39:37.331Z</time>
      </trkpt>
      <trkpt lat="39.50699" lon="2.51946667">
        <ele>2.0</ele>
        <time>2022-05-14T11:39:38.332Z</time>
      </trkpt>
      <trkpt lat="39.50695" lon="2.51945833">
        <ele>1.0</ele>
        <time>2022-05-14T11:39:39.332Z</time>
      </trkpt>
      <trkpt lat="39.50690833" lon="2.51945167">
        <ele>1.0</ele>
        <time>2022-05-14T11:39:40.332Z</time>
      </trkpt>
      <trkpt lat="39.506865" lon="2.51944667">
        <ele>1.0</ele>
        <time>2022-05-14T11:39:41.332Z</time>
      </trkpt>
      <trkpt lat="39.50682167" lon="2.51944333">
        <ele>1.0</ele>
        <time>2022-05-14T11:39:42.332Z</time>
      </trkpt>
      <trkpt lat="39.50677833" lon="2.51943833">
        <ele>1.0</ele>
        <time>2022-05-14T11:39:43.332Z</time>
      </trkpt>
      <trkpt lat="39.50673667" lon="2.51943333">
        <ele>1.0</ele>
        <time>2022-05-14T11:39:44.332Z</time>
      </trkpt>
      <trkpt lat="39.50669667" lon="2.51942833">
        <ele>1.0</ele>
        <time>2022-05-14T11:39:45.332Z</time>
      </trkpt>
      <trkpt lat="39.506655" lon="2.51942167">
        <ele>1.0</ele>
        <time>2022-05-14T11:39:46.331Z</time>
      </trkpt>
      <trkpt lat="39.506615" lon="2.519415">
        <ele>1.0</ele>
        <time>2022-05-14T11:39:47.331Z</time>
      </trkpt>
      <trkpt lat="39.50657333" lon="2.519405">
        <ele>1.0</ele>
        <time>2022-05-14T11:39:48.332Z</time>
      </trkpt>
      <trkpt lat="39.50653167" lon="2.51939333">
        <ele>1.0</ele>
        <time>2022-05-14T11:39:49.331Z</time>
      </trkpt>
      <trkpt lat="39.50649" lon="2.51938">
        <ele>1.0</ele>
        <time>2022-05-14T11:39:50.332Z</time>
      </trkpt>
      <trkpt lat="39.50645" lon="2.51936833">
        <ele>1.0</ele>
        <time>2022-05-14T11:39:51.331Z</time>
      </trkpt>
      <trkpt lat="39.50640833" lon="2.51935667">
        <ele>1.0</ele>
        <time>2022-05-14T11:39:52.332Z</time>
      </trkpt>
      <trkpt lat="39.50636833" lon="2.51934333">
        <ele>1.0</ele>
        <time>2022-05-14T11:39:53.332Z</time>
      </trkpt>
      <trkpt lat="39.50632833" lon="2.51932833">
        <ele>0.0</ele>
        <time>2022-05-14T11:39:54.331Z</time>
      </trkpt>
      <trkpt lat="39.50629167" lon="2.51931167">
        <ele>0.0</ele>
        <time>2022-05-14T11:39:55.332Z</time>
      </trkpt>
      <trkpt lat="39.50625333" lon="2.51929667">
        <ele>0.0</ele>
        <time>2022-05-14T11:39:56.332Z</time>
      </trkpt>
      <trkpt lat="39.50621833" lon="2.51928">
        <ele>0.0</ele>
        <time>2022-05-14T11:39:57.331Z</time>
      </trkpt>
      <trkpt lat="39.50618" lon="2.519265">
        <ele>0.0</ele>
        <time>2022-05-14T11:39:58.332Z</time>
      </trkpt>
      <trkpt lat="39.50614" lon="2.51924833">
        <ele>0.0</ele>
        <time>2022-05-14T11:39:59.332Z</time>
      </trkpt>
      <trkpt lat="39.50609833" lon="2.51923167">
        <ele>0.0</ele>
        <time>2022-05-14T11:40:00.332Z</time>
      </trkpt>
      <trkpt lat="39.506055" lon="2.51921333">
        <ele>0.0</ele>
        <time>2022-05-14T11:40:01.331Z</time>
      </trkpt>
      <trkpt lat="39.506015" lon="2.51919167">
        <ele>0.0</ele>
        <time>2022-05-14T11:40:02.332Z</time>
      </trkpt>
      <trkpt lat="39.505975" lon="2.51917167">
        <ele>0.0</ele>
        <time>2022-05-14T11:40:03.331Z</time>
      </trkpt>
      <trkpt lat="39.505935" lon="2.51915333">
        <ele>0.0</ele>
        <time>2022-05-14T11:40:04.332Z</time>
      </trkpt>
      <trkpt lat="39.50589333" lon="2.51913333">
        <ele>0.0</ele>
        <time>2022-05-14T11:40:05.332Z</time>
      </trkpt>
      <trkpt lat="39.50585333" lon="2.51911667">
        <ele>0.0</ele>
        <time>2022-05-14T11:40:06.331Z</time>
      </trkpt>
      <trkpt lat="39.50581167" lon="2.5191">
        <ele>1.0</ele>
        <time>2022-05-14T11:40:07.331Z</time>
      </trkpt>
      <trkpt lat="39.50577" lon="2.51908667">
        <ele>1.0</ele>
        <time>2022-05-14T11:40:08.332Z</time>
      </trkpt>
      <trkpt lat="39.505725" lon="2.51907167">
        <ele>2.0</ele>
        <time>2022-05-14T11:40:09.332Z</time>
      </trkpt>
      <trkpt lat="39.50568333" lon="2.51905167">
        <ele>2.0</ele>
        <time>2022-05-14T11:40:10.332Z</time>
      </trkpt>
      <trkpt lat="39.50564167" lon="2.51903333">
        <ele>2.0</ele>
        <time>2022-05-14T11:40:11.332Z</time>
      </trkpt>
      <trkpt lat="39.50560333" lon="2.51901667">
        <ele>3.0</ele>
        <time>2022-05-14T11:40:12.331Z</time>
      </trkpt>
      <trkpt lat="39.50556333" lon="2.51900167">
        <ele>3.0</ele>
        <time>2022-05-14T11:40:13.331Z</time>
      </trkpt>
      <trkpt lat="39.50552333" lon="2.51898667">
        <ele>3.0</ele>
        <time>2022-05-14T11:40:14.331Z</time>
      </trkpt>
      <trkpt lat="39.50548333" lon="2.51897167">
        <ele>3.0</ele>
        <time>2022-05-14T11:40:15.331Z</time>
      </trkpt>
      <trkpt lat="39.50544167" lon="2.51895167">
        <ele>4.0</ele>
        <time>2022-05-14T11:40:16.332Z</time>
      </trkpt>
      <trkpt lat="39.505405" lon="2.51893167">
        <ele>4.0</ele>
        <time>2022-05-14T11:40:17.332Z</time>
      </trkpt>
      <trkpt lat="39.50536667" lon="2.51891">
        <ele>4.0</ele>
        <time>2022-05-14T11:40:18.331Z</time>
      </trkpt>
      <trkpt lat="39.50532833" lon="2.51889167">
        <ele>4.0</ele>
        <time>2022-05-14T11:40:19.332Z</time>
      </trkpt>
      <trkpt lat="39.50529" lon="2.518875">
        <ele>3.0</ele>
        <time>2022-05-14T11:40:20.332Z</time>
      </trkpt>
      <trkpt lat="39.50525167" lon="2.51885667">
        <ele>3.0</ele>
        <time>2022-05-14T11:40:21.331Z</time>
      </trkpt>
      <trkpt lat="39.505215" lon="2.51883667">
        <ele>3.0</ele>
        <time>2022-05-14T11:40:22.332Z</time>
      </trkpt>
      <trkpt lat="39.50517667" lon="2.51881667">
        <ele>2.0</ele>
        <time>2022-05-14T11:40:23.332Z</time>
      </trkpt>
      <trkpt lat="39.50513667" lon="2.51879833">
        <ele>2.0</ele>
        <time>2022-05-14T11:40:24.332Z</time>
      </trkpt>
      <trkpt lat="39.505095" lon="2.51878167">
        <ele>2.0</ele>
        <time>2022-05-14T11:40:25.331Z</time>
      </trkpt>
      <trkpt lat="39.50505167" lon="2.51876833">
        <ele>2.0</ele>
        <time>2022-05-14T11:40:26.331Z</time>
      </trkpt>
      <trkpt lat="39.50501333" lon="2.518755">
        <ele>2.0</ele>
        <time>2022-05-14T11:40:27.332Z</time>
      </trkpt>
      <trkpt lat="39.504975" lon="2.51874167">
        <ele>3.0</ele>
        <time>2022-05-14T11:40:28.332Z</time>
      </trkpt>
      <trkpt lat="39.50493833" lon="2.518725">
        <ele>3.0</ele>
        <time>2022-05-14T11:40:29.331Z</time>
      </trkpt>
      <trkpt lat="39.504895" lon="2.518705">
        <ele>3.0</ele>
        <time>2022-05-14T11:40:30.331Z</time>
      </trkpt>
      <trkpt lat="39.50485333" lon="2.518685">
        <ele>3.0</ele>
        <time>2022-05-14T11:40:31.331Z</time>
      </trkpt>
      <trkpt lat="39.50481" lon="2.51866333">
        <ele>4.0</ele>
        <time>2022-05-14T11:40:32.331Z</time>
      </trkpt>
      <trkpt lat="39.504765" lon="2.51864333">
        <ele>4.0</ele>
        <time>2022-05-14T11:40:33.332Z</time>
      </trkpt>
      <trkpt lat="39.504725" lon="2.518625">
        <ele>5.0</ele>
        <time>2022-05-14T11:40:34.332Z</time>
      </trkpt>
      <trkpt lat="39.50468667" lon="2.51860667">
        <ele>5.0</ele>
        <time>2022-05-14T11:40:35.331Z</time>
      </trkpt>
      <trkpt lat="39.50465167" lon="2.51859">
        <ele>5.0</ele>
        <time>2022-05-14T11:40:36.331Z</time>
      </trkpt>
      <trkpt lat="39.50462167" lon="2.51857667">
        <ele>4.0</ele>
        <time>2022-05-14T11:40:37.332Z</time>
      </trkpt>
      <trkpt lat="39.50458833" lon="2.51856">
        <ele>4.0</ele>
        <time>2022-05-14T11:40:38.331Z</time>
      </trkpt>
      <trkpt lat="39.504555" lon="2.51854333">
        <ele>4.0</ele>
        <time>2022-05-14T11:40:39.332Z</time>
      </trkpt>
      <trkpt lat="39.50452333" lon="2.51853333">
        <ele>4.0</ele>
        <time>2022-05-14T11:40:40.331Z</time>
      </trkpt>
      <trkpt lat="39.504485" lon="2.51852">
        <ele>3.0</ele>
        <time>2022-05-14T11:40:41.331Z</time>
      </trkpt>
      <trkpt lat="39.50444833" lon="2.51850667">
        <ele>3.0</ele>
        <time>2022-05-14T11:40:42.331Z</time>
      </trkpt>
      <trkpt lat="39.50440833" lon="2.518495">
        <ele>3.0</ele>
        <time>2022-05-14T11:40:43.332Z</time>
      </trkpt>
      <trkpt lat="39.50436833" lon="2.51847833">
        <ele>3.0</ele>
        <time>2022-05-14T11:40:44.331Z</time>
      </trkpt>
      <trkpt lat="39.50432833" lon="2.51846167">
        <ele>3.0</ele>
        <time>2022-05-14T11:40:45.332Z</time>
      </trkpt>
      <trkpt lat="39.50428667" lon="2.51844167">
        <ele>3.0</ele>
        <time>2022-05-14T11:40:46.331Z</time>
      </trkpt>
      <trkpt lat="39.50424667" lon="2.51842">
        <ele>4.0</ele>
        <time>2022-05-14T11:40:47.332Z</time>
      </trkpt>
      <trkpt lat="39.504205" lon="2.5184">
        <ele>4.0</ele>
        <time>2022-05-14T11:40:48.332Z</time>
      </trkpt>
      <trkpt lat="39.50416667" lon="2.51838333">
        <ele>4.0</ele>
        <time>2022-05-14T11:40:49.332Z</time>
      </trkpt>
      <trkpt lat="39.50412833" lon="2.51836833">
        <ele>4.0</ele>
        <time>2022-05-14T11:40:50.332Z</time>
      </trkpt>
      <trkpt lat="39.50409" lon="2.51835167">
        <ele>4.0</ele>
        <time>2022-05-14T11:40:51.331Z</time>
      </trkpt>
      <trkpt lat="39.50405333" lon="2.518335">
        <ele>4.0</ele>
        <time>2022-05-14T11:40:52.331Z</time>
      </trkpt>
      <trkpt lat="39.504015" lon="2.518315">
        <ele>4.0</ele>
        <time>2022-05-14T11:40:53.331Z</time>
      </trkpt>
      <trkpt lat="39.50398" lon="2.51829167">
        <ele>4.0</ele>
        <time>2022-05-14T11:40:54.332Z</time>
      </trkpt>
      <trkpt lat="39.50394333" lon="2.51827">
        <ele>4.0</ele>
        <time>2022-05-14T11:40:55.331Z</time>
      </trkpt>
      <trkpt lat="39.50391" lon="2.51825167">
        <ele>4.0</ele>
        <time>2022-05-14T11:40:56.331Z</time>
      </trkpt>
      <trkpt lat="39.50387833" lon="2.51823333">
        <ele>4.0</ele>
        <time>2022-05-14T11:40:57.332Z</time>
      </trkpt>
      <trkpt lat="39.50384667" lon="2.51821667">
        <ele>4.0</ele>
        <time>2022-05-14T11:40:58.332Z</time>
      </trkpt>
      <trkpt lat="39.503815" lon="2.51820167">
        <ele>4.0</ele>
        <time>2022-05-14T11:40:59.332Z</time>
      </trkpt>
      <trkpt lat="39.50377833" lon="2.51818667">
        <ele>4.0</ele>
        <time>2022-05-14T11:41:00.331Z</time>
      </trkpt>
      <trkpt lat="39.50374333" lon="2.51817167">
        <ele>4.0</ele>
        <time>2022-05-14T11:41:01.331Z</time>
      </trkpt>
      <trkpt lat="39.50370333" lon="2.51815333">
        <ele>4.0</ele>
        <time>2022-05-14T11:41:02.332Z</time>
      </trkpt>
      <trkpt lat="39.503665" lon="2.518135">
        <ele>4.0</ele>
        <time>2022-05-14T11:41:03.332Z</time>
      </trkpt>
      <trkpt lat="39.50362667" lon="2.518115">
        <ele>4.0</ele>
        <time>2022-05-14T11:41:04.332Z</time>
      </trkpt>
      <trkpt lat="39.503585" lon="2.51809667">
        <ele>5.0</ele>
        <time>2022-05-14T11:41:05.332Z</time>
      </trkpt>
      <trkpt lat="39.50354833" lon="2.51808333">
        <ele>5.0</ele>
        <time>2022-05-14T11:41:06.331Z</time>
      </trkpt>
      <trkpt lat="39.50351" lon="2.518065">
        <ele>5.0</ele>
        <time>2022-05-14T11:41:07.332Z</time>
      </trkpt>
      <trkpt lat="39.50347167" lon="2.518045">
        <ele>5.0</ele>
        <time>2022-05-14T11:41:08.332Z</time>
      </trkpt>
      <trkpt lat="39.503435" lon="2.51802667">
        <ele>4.0</ele>
        <time>2022-05-14T11:41:09.332Z</time>
      </trkpt>
      <trkpt lat="39.50339667" lon="2.51800833">
        <ele>4.0</ele>
        <time>2022-05-14T11:41:10.332Z</time>
      </trkpt>
      <trkpt lat="39.50336" lon="2.51799167">
        <ele>4.0</ele>
        <time>2022-05-14T11:41:11.332Z</time>
      </trkpt>
      <trkpt lat="39.50332333" lon="2.517975">
        <ele>4.0</ele>
        <time>2022-05-14T11:41:12.332Z</time>
      </trkpt>
      <trkpt lat="39.503285" lon="2.51795667">
        <ele>4.0</ele>
        <time>2022-05-14T11:41:13.332Z</time>
      </trkpt>
      <trkpt lat="39.50325" lon="2.51794">
        <ele>5.0</ele>
        <time>2022-05-14T11:41:14.332Z</time>
      </trkpt>
      <trkpt lat="39.50321333" lon="2.51792">
        <ele>5.0</ele>
        <time>2022-05-14T11:41:15.331Z</time>
      </trkpt>
      <trkpt lat="39.50317667" lon="2.51789833">
        <ele>5.0</ele>
        <time>2022-05-14T11:41:16.331Z</time>
      </trkpt>
      <trkpt lat="39.50313833" lon="2.51788">
        <ele>5.0</ele>
        <time>2022-05-14T11:41:17.332Z</time>
      </trkpt>
      <trkpt lat="39.50310167" lon="2.51785833">
        <ele>5.0</ele>
        <time>2022-05-14T11:41:18.331Z</time>
      </trkpt>
      <trkpt lat="39.50306167" lon="2.51783833">
        <ele>5.0</ele>
        <time>2022-05-14T11:41:19.331Z</time>
      </trkpt>
      <trkpt lat="39.50302333" lon="2.51781833">
        <ele>5.0</ele>
        <time>2022-05-14T11:41:20.331Z</time>
      </trkpt>
      <trkpt lat="39.502985" lon="2.5178">
        <ele>5.0</ele>
        <time>2022-05-14T11:41:21.332Z</time>
      </trkpt>
      <trkpt lat="39.50294667" lon="2.51778333">
        <ele>5.0</ele>
        <time>2022-05-14T11:41:22.332Z</time>
      </trkpt>
      <trkpt lat="39.50290833" lon="2.51776833">
        <ele>6.0</ele>
        <time>2022-05-14T11:41:23.332Z</time>
      </trkpt>
      <trkpt lat="39.50287167" lon="2.51775333">
        <ele>6.0</ele>
        <time>2022-05-14T11:41:24.332Z</time>
      </trkpt>
      <trkpt lat="39.50283667" lon="2.51773667">
        <ele>6.0</ele>
        <time>2022-05-14T11:41:25.331Z</time>
      </trkpt>
      <trkpt lat="39.50280167" lon="2.51772">
        <ele>6.0</ele>
        <time>2022-05-14T11:41:26.331Z</time>
      </trkpt>
      <trkpt lat="39.50276333" lon="2.51770333">
        <ele>6.0</ele>
        <time>2022-05-14T11:41:27.331Z</time>
      </trkpt>
      <trkpt lat="39.502725" lon="2.517685">
        <ele>7.0</ele>
        <time>2022-05-14T11:41:28.332Z</time>
      </trkpt>
      <trkpt lat="39.50268833" lon="2.51766833">
        <ele>7.0</ele>
        <time>2022-05-14T11:41:29.332Z</time>
      </trkpt>
      <trkpt lat="39.50265" lon="2.51765">
        <ele>7.0</ele>
        <time>2022-05-14T11:41:30.332Z</time>
      </trkpt>
      <trkpt lat="39.50261167" lon="2.51763333">
        <ele>7.0</ele>
        <time>2022-05-14T11:41:31.332Z</time>
      </trkpt>
      <trkpt lat="39.502575" lon="2.517615">
        <ele>6.0</ele>
        <time>2022-05-14T11:41:32.332Z</time>
      </trkpt>
      <trkpt lat="39.50253833" lon="2.51759833">
        <ele>6.0</ele>
        <time>2022-05-14T11:41:33.332Z</time>
      </trkpt>
      <trkpt lat="39.5025" lon="2.51758">
        <ele>5.0</ele>
        <time>2022-05-14T11:41:34.332Z</time>
      </trkpt>
      <trkpt lat="39.50246333" lon="2.51756167">
        <ele>5.0</ele>
        <time>2022-05-14T11:41:35.332Z</time>
      </trkpt>
      <trkpt lat="39.502425" lon="2.51754">
        <ele>5.0</ele>
        <time>2022-05-14T11:41:36.332Z</time>
      </trkpt>
      <trkpt lat="39.50238833" lon="2.51752167">
        <ele>4.0</ele>
        <time>2022-05-14T11:41:37.331Z</time>
      </trkpt>
      <trkpt lat="39.50235167" lon="2.5175">
        <ele>4.0</ele>
        <time>2022-05-14T11:41:38.332Z</time>
      </trkpt>
      <trkpt lat="39.502315" lon="2.51748167">
        <ele>4.0</ele>
        <time>2022-05-14T11:41:39.332Z</time>
      </trkpt>
      <trkpt lat="39.50228167" lon="2.51746667">
        <ele>4.0</ele>
        <time>2022-05-14T11:41:40.332Z</time>
      </trkpt>
      <trkpt lat="39.50224667" lon="2.51745">
        <ele>4.0</ele>
        <time>2022-05-14T11:41:41.331Z</time>
      </trkpt>
      <trkpt lat="39.50221167" lon="2.517435">
        <ele>4.0</ele>
        <time>2022-05-14T11:41:42.331Z</time>
      </trkpt>
      <trkpt lat="39.50217667" lon="2.51742333">
        <ele>4.0</ele>
        <time>2022-05-14T11:41:43.332Z</time>
      </trkpt>
      <trkpt lat="39.50214333" lon="2.51741">
        <ele>3.0</ele>
        <time>2022-05-14T11:41:44.332Z</time>
      </trkpt>
      <trkpt lat="39.50211333" lon="2.517395">
        <ele>3.0</ele>
        <time>2022-05-14T11:41:45.332Z</time>
      </trkpt>
      <trkpt lat="39.50208167" lon="2.51737833">
        <ele>3.0</ele>
        <time>2022-05-14T11:41:46.332Z</time>
      </trkpt>
      <trkpt lat="39.50204833" lon="2.51735833">
        <ele>3.0</ele>
        <time>2022-05-14T11:41:47.332Z</time>
      </trkpt>
      <trkpt lat="39.502015" lon="2.51733667">
        <ele>3.0</ele>
        <time>2022-05-14T11:41:48.332Z</time>
      </trkpt>
      <trkpt lat="39.501985" lon="2.51731167">
        <ele>3.0</ele>
        <time>2022-05-14T11:41:49.332Z</time>
      </trkpt>
      <trkpt lat="39.50196" lon="2.51728167">
        <ele>3.0</ele>
        <time>2022-05-14T11:41:50.331Z</time>
      </trkpt>
      <trkpt lat="39.50194167" lon="2.517255">
        <ele>3.0</ele>
        <time>2022-05-14T11:41:51.331Z</time>
      </trkpt>
      <trkpt lat="39.50193333" lon="2.51723">
        <ele>3.0</ele>
        <time>2022-05-14T11:41:52.332Z</time>
      </trkpt>
      <trkpt lat="39.50192833" lon="2.517215">
        <ele>4.0</ele>
        <time>2022-05-14T11:41:53.332Z</time>
      </trkpt>
      <trkpt lat="39.501925" lon="2.51719667">
        <ele>4.0</ele>
        <time>2022-05-14T11:41:54.332Z</time>
      </trkpt>
      <trkpt lat="39.501925" lon="2.517175">
        <ele>4.0</ele>
        <time>2022-05-14T11:41:55.332Z</time>
      </trkpt>
      <trkpt lat="39.50192833" lon="2.51715">
        <ele>4.0</ele>
        <time>2022-05-14T11:41:56.331Z</time>
      </trkpt>
      <trkpt lat="39.50193" lon="2.51712">
        <ele>4.0</ele>
        <time>2022-05-14T11:41:57.332Z</time>
      </trkpt>
      <trkpt lat="39.501925" lon="2.51709">
        <ele>4.0</ele>
        <time>2022-05-14T11:41:58.332Z</time>
      </trkpt>
      <trkpt lat="39.50190833" lon="2.51706667">
        <ele>5.0</ele>
        <time>2022-05-14T11:41:59.332Z</time>
      </trkpt>
      <trkpt lat="39.501885" lon="2.51704833">
        <ele>5.0</ele>
        <time>2022-05-14T11:42:00.332Z</time>
      </trkpt>
      <trkpt lat="39.50185833" lon="2.51703333">
        <ele>5.0</ele>
        <time>2022-05-14T11:42:01.332Z</time>
      </trkpt>
      <trkpt lat="39.50183333" lon="2.51701833">
        <ele>5.0</ele>
        <time>2022-05-14T11:42:02.332Z</time>
      </trkpt>
      <trkpt lat="39.50180833" lon="2.517005">
        <ele>5.0</ele>
        <time>2022-05-14T11:42:03.332Z</time>
      </trkpt>
      <trkpt lat="39.50178" lon="2.51699167">
        <ele>5.0</ele>
        <time>2022-05-14T11:42:04.332Z</time>
      </trkpt>
      <trkpt lat="39.50175833" lon="2.516985">
        <ele>5.0</ele>
        <time>2022-05-14T11:42:05.331Z</time>
      </trkpt>
      <trkpt lat="39.50173667" lon="2.51697833">
        <ele>5.0</ele>
        <time>2022-05-14T11:42:06.331Z</time>
      </trkpt>
      <trkpt lat="39.50171333" lon="2.51697">
        <ele>5.0</ele>
        <time>2022-05-14T11:42:07.331Z</time>
      </trkpt>
      <trkpt lat="39.50168833" lon="2.51696">
        <ele>5.0</ele>
        <time>2022-05-14T11:42:08.331Z</time>
      </trkpt>
      <trkpt lat="39.50166167" lon="2.51695167">
        <ele>5.0</ele>
        <time>2022-05-14T11:42:09.332Z</time>
      </trkpt>
      <trkpt lat="39.50163" lon="2.51694333">
        <ele>6.0</ele>
        <time>2022-05-14T11:42:10.332Z</time>
      </trkpt>
      <trkpt lat="39.501605" lon="2.516935">
        <ele>6.0</ele>
        <time>2022-05-14T11:42:11.332Z</time>
      </trkpt>
      <trkpt lat="39.50157667" lon="2.516925">
        <ele>6.0</ele>
        <time>2022-05-14T11:42:12.332Z</time>
      </trkpt>
      <trkpt lat="39.501545" lon="2.51691">
        <ele>6.0</ele>
        <time>2022-05-14T11:42:13.332Z</time>
      </trkpt>
      <trkpt lat="39.501515" lon="2.51689167">
        <ele>6.0</ele>
        <time>2022-05-14T11:42:14.331Z</time>
      </trkpt>
      <trkpt lat="39.50148167" lon="2.51687333">
        <ele>6.0</ele>
        <time>2022-05-14T11:42:15.331Z</time>
      </trkpt>
      <trkpt lat="39.50145" lon="2.51685833">
        <ele>6.0</ele>
        <time>2022-05-14T11:42:16.332Z</time>
      </trkpt>
      <trkpt lat="39.50141833" lon="2.51684667">
        <ele>6.0</ele>
        <time>2022-05-14T11:42:17.332Z</time>
      </trkpt>
      <trkpt lat="39.50138833" lon="2.516835">
        <ele>6.0</ele>
        <time>2022-05-14T11:42:18.332Z</time>
      </trkpt>
      <trkpt lat="39.501355" lon="2.51682">
        <ele>6.0</ele>
        <time>2022-05-14T11:42:19.332Z</time>
      </trkpt>
      <trkpt lat="39.501325" lon="2.51680667">
        <ele>6.0</ele>
        <time>2022-05-14T11:42:20.331Z</time>
      </trkpt>
      <trkpt lat="39.50129333" lon="2.51678833">
        <ele>5.0</ele>
        <time>2022-05-14T11:42:21.332Z</time>
      </trkpt>
      <trkpt lat="39.50126167" lon="2.51677333">
        <ele>5.0</ele>
        <time>2022-05-14T11:42:22.331Z</time>
      </trkpt>
      <trkpt lat="39.50122667" lon="2.51676">
        <ele>5.0</ele>
        <time>2022-05-14T11:42:23.332Z</time>
      </trkpt>
      <trkpt lat="39.50119167" lon="2.51675">
        <ele>6.0</ele>
        <time>2022-05-14T11:42:24.332Z</time>
      </trkpt>
      <trkpt lat="39.50115667" lon="2.51674833">
        <ele>6.0</ele>
        <time>2022-05-14T11:42:25.332Z</time>
      </trkpt>
      <trkpt lat="39.50111167" lon="2.51675333">
        <ele>7.0</ele>
        <time>2022-05-14T11:42:26.332Z</time>
      </trkpt>
      <trkpt lat="39.50108" lon="2.51676167">
        <ele>7.0</ele>
        <time>2022-05-14T11:42:27.331Z</time>
      </trkpt>
      <trkpt lat="39.501045" lon="2.51677833">
        <ele>7.0</ele>
        <time>2022-05-14T11:42:28.331Z</time>
      </trkpt>
      <trkpt lat="39.50100833" lon="2.5168">
        <ele>8.0</ele>
        <time>2022-05-14T11:42:29.332Z</time>
      </trkpt>
      <trkpt lat="39.50097667" lon="2.51682167">
        <ele>7.0</ele>
        <time>2022-05-14T11:42:30.332Z</time>
      </trkpt>
      <trkpt lat="39.500945" lon="2.51684167">
        <ele>7.0</ele>
        <time>2022-05-14T11:42:31.332Z</time>
      </trkpt>
      <trkpt lat="39.50091167" lon="2.51686833">
        <ele>7.0</ele>
        <time>2022-05-14T11:42:32.331Z</time>
      </trkpt>
      <trkpt lat="39.50088" lon="2.51689167">
        <ele>6.0</ele>
        <time>2022-05-14T11:42:33.331Z</time>
      </trkpt>
      <trkpt lat="39.500845" lon="2.51691333">
        <ele>6.0</ele>
        <time>2022-05-14T11:42:34.331Z</time>
      </trkpt>
      <trkpt lat="39.50081167" lon="2.51693167">
        <ele>6.0</ele>
        <time>2022-05-14T11:42:35.331Z</time>
      </trkpt>
      <trkpt lat="39.50077667" lon="2.51695333">
        <ele>6.0</ele>
        <time>2022-05-14T11:42:36.332Z</time>
      </trkpt>
      <trkpt lat="39.50074167" lon="2.51697667">
        <ele>6.0</ele>
        <time>2022-05-14T11:42:37.331Z</time>
      </trkpt>
      <trkpt lat="39.50070833" lon="2.517">
        <ele>6.0</ele>
        <time>2022-05-14T11:42:38.332Z</time>
      </trkpt>
      <trkpt lat="39.500675" lon="2.51702">
        <ele>6.0</ele>
        <time>2022-05-14T11:42:39.331Z</time>
      </trkpt>
      <trkpt lat="39.50064" lon="2.51704333">
        <ele>6.0</ele>
        <time>2022-05-14T11:42:40.332Z</time>
      </trkpt>
      <trkpt lat="39.50061" lon="2.517065">
        <ele>6.0</ele>
        <time>2022-05-14T11:42:41.332Z</time>
      </trkpt>
      <trkpt lat="39.50057667" lon="2.51708667">
        <ele>6.0</ele>
        <time>2022-05-14T11:42:42.332Z</time>
      </trkpt>
      <trkpt lat="39.50054167" lon="2.51710833">
        <ele>6.0</ele>
        <time>2022-05-14T11:42:43.331Z</time>
      </trkpt>
      <trkpt lat="39.50050833" lon="2.51713333">
        <ele>6.0</ele>
        <time>2022-05-14T11:42:44.332Z</time>
      </trkpt>
      <trkpt lat="39.50047667" lon="2.51716167">
        <ele>7.0</ele>
        <time>2022-05-14T11:42:45.332Z</time>
      </trkpt>
      <trkpt lat="39.50044333" lon="2.51718667">
        <ele>7.0</ele>
        <time>2022-05-14T11:42:46.332Z</time>
      </trkpt>
      <trkpt lat="39.50040667" lon="2.51721167">
        <ele>7.0</ele>
        <time>2022-05-14T11:42:47.332Z</time>
      </trkpt>
      <trkpt lat="39.500375" lon="2.51723667">
        <ele>8.0</ele>
        <time>2022-05-14T11:42:48.332Z</time>
      </trkpt>
      <trkpt lat="39.50034" lon="2.51726167">
        <ele>8.0</ele>
        <time>2022-05-14T11:42:49.331Z</time>
      </trkpt>
      <trkpt lat="39.500305" lon="2.51728667">
        <ele>9.0</ele>
        <time>2022-05-14T11:42:50.332Z</time>
      </trkpt>
      <trkpt lat="39.50026833" lon="2.51731">
        <ele>9.0</ele>
        <time>2022-05-14T11:42:51.332Z</time>
      </trkpt>
      <trkpt lat="39.50023167" lon="2.51733167">
        <ele>9.0</ele>
        <time>2022-05-14T11:42:52.332Z</time>
      </trkpt>
      <trkpt lat="39.50019667" lon="2.51735167">
        <ele>10.0</ele>
        <time>2022-05-14T11:42:53.332Z</time>
      </trkpt>
      <trkpt lat="39.50016167" lon="2.51737">
        <ele>10.0</ele>
        <time>2022-05-14T11:42:54.332Z</time>
      </trkpt>
      <trkpt lat="39.50012667" lon="2.51738667">
        <ele>10.0</ele>
        <time>2022-05-14T11:42:55.331Z</time>
      </trkpt>
      <trkpt lat="39.50008667" lon="2.51740333">
        <ele>10.0</ele>
        <time>2022-05-14T11:42:56.332Z</time>
      </trkpt>
      <trkpt lat="39.50005167" lon="2.51742167">
        <ele>10.0</ele>
        <time>2022-05-14T11:42:57.332Z</time>
      </trkpt>
      <trkpt lat="39.500015" lon="2.517435">
        <ele>10.0</ele>
        <time>2022-05-14T11:42:58.331Z</time>
      </trkpt>
      <trkpt lat="39.49998167" lon="2.51744667">
        <ele>10.0</ele>
        <time>2022-05-14T11:42:59.332Z</time>
      </trkpt>
      <trkpt lat="39.49994833" lon="2.51745833">
        <ele>9.0</ele>
        <time>2022-05-14T11:43:00.331Z</time>
      </trkpt>
      <trkpt lat="39.49991167" lon="2.51746333">
        <ele>9.0</ele>
        <time>2022-05-14T11:43:01.332Z</time>
      </trkpt>
      <trkpt lat="39.499875" lon="2.51746167">
        <ele>8.0</ele>
        <time>2022-05-14T11:43:02.332Z</time>
      </trkpt>
      <trkpt lat="39.49984" lon="2.51745333">
        <ele>8.0</ele>
        <time>2022-05-14T11:43:03.332Z</time>
      </trkpt>
      <trkpt lat="39.49980333" lon="2.517445">
        <ele>8.0</ele>
        <time>2022-05-14T11:43:04.332Z</time>
      </trkpt>
      <trkpt lat="39.49976667" lon="2.517435">
        <ele>7.0</ele>
        <time>2022-05-14T11:43:05.332Z</time>
      </trkpt>
      <trkpt lat="39.49973" lon="2.517425">
        <ele>7.0</ele>
        <time>2022-05-14T11:43:06.332Z</time>
      </trkpt>
      <trkpt lat="39.499695" lon="2.51741333">
        <ele>7.0</ele>
        <time>2022-05-14T11:43:07.332Z</time>
      </trkpt>
      <trkpt lat="39.49965833" lon="2.5174">
        <ele>7.0</ele>
        <time>2022-05-14T11:43:08.332Z</time>
      </trkpt>
      <trkpt lat="39.499625" lon="2.51738667">
        <ele>7.0</ele>
        <time>2022-05-14T11:43:09.332Z</time>
      </trkpt>
      <trkpt lat="39.49959333" lon="2.517375">
        <ele>7.0</ele>
        <time>2022-05-14T11:43:10.331Z</time>
      </trkpt>
      <trkpt lat="39.49956" lon="2.51736">
        <ele>7.0</ele>
        <time>2022-05-14T11:43:11.332Z</time>
      </trkpt>
      <trkpt lat="39.49951833" lon="2.51733833">
        <ele>7.0</ele>
        <time>2022-05-14T11:43:12.332Z</time>
      </trkpt>
      <trkpt lat="39.49949167" lon="2.51732333">
        <ele>8.0</ele>
        <time>2022-05-14T11:43:13.332Z</time>
      </trkpt>
      <trkpt lat="39.499455" lon="2.51729833">
        <ele>8.0</ele>
        <time>2022-05-14T11:43:14.331Z</time>
      </trkpt>
      <trkpt lat="39.499415" lon="2.517275">
        <ele>7.0</ele>
        <time>2022-05-14T11:43:15.332Z</time>
      </trkpt>
      <trkpt lat="39.49937833" lon="2.51725">
        <ele>7.0</ele>
        <time>2022-05-14T11:43:16.332Z</time>
      </trkpt>
      <trkpt lat="39.49934167" lon="2.51722333">
        <ele>7.0</ele>
        <time>2022-05-14T11:43:17.331Z</time>
      </trkpt>
      <trkpt lat="39.49930833" lon="2.51719833">
        <ele>7.0</ele>
        <time>2022-05-14T11:43:18.332Z</time>
      </trkpt>
      <trkpt lat="39.49927" lon="2.51718">
        <ele>6.0</ele>
        <time>2022-05-14T11:43:19.332Z</time>
      </trkpt>
      <trkpt lat="39.49923167" lon="2.517175">
        <ele>6.0</ele>
        <time>2022-05-14T11:43:20.332Z</time>
      </trkpt>
      <trkpt lat="39.49918667" lon="2.51717333">
        <ele>7.0</ele>
        <time>2022-05-14T11:43:21.332Z</time>
      </trkpt>
      <trkpt lat="39.499155" lon="2.51718">
        <ele>7.0</ele>
        <time>2022-05-14T11:43:22.332Z</time>
      </trkpt>
      <trkpt lat="39.49912" lon="2.51719167">
        <ele>6.0</ele>
        <time>2022-05-14T11:43:23.332Z</time>
      </trkpt>
      <trkpt lat="39.49908167" lon="2.51720667">
        <ele>7.0</ele>
        <time>2022-05-14T11:43:24.332Z</time>
      </trkpt>
      <trkpt lat="39.49904333" lon="2.51722333">
        <ele>6.0</ele>
        <time>2022-05-14T11:43:25.331Z</time>
      </trkpt>
      <trkpt lat="39.49900833" lon="2.51724167">
        <ele>6.0</ele>
        <time>2022-05-14T11:43:26.332Z</time>
      </trkpt>
      <trkpt lat="39.49896833" lon="2.51726167">
        <ele>6.0</ele>
        <time>2022-05-14T11:43:27.331Z</time>
      </trkpt>
      <trkpt lat="39.49893" lon="2.51728333">
        <ele>5.0</ele>
        <time>2022-05-14T11:43:28.332Z</time>
      </trkpt>
      <trkpt lat="39.49889167" lon="2.51730333">
        <ele>5.0</ele>
        <time>2022-05-14T11:43:29.332Z</time>
      </trkpt>
      <trkpt lat="39.49885333" lon="2.51732">
        <ele>5.0</ele>
        <time>2022-05-14T11:43:30.331Z</time>
      </trkpt>
      <trkpt lat="39.49881667" lon="2.51733667">
        <ele>5.0</ele>
        <time>2022-05-14T11:43:31.332Z</time>
      </trkpt>
      <trkpt lat="39.49878" lon="2.51735333">
        <ele>5.0</ele>
        <time>2022-05-14T11:43:32.332Z</time>
      </trkpt>
      <trkpt lat="39.49874333" lon="2.51736167">
        <ele>5.0</ele>
        <time>2022-05-14T11:43:33.332Z</time>
      </trkpt>
      <trkpt lat="39.49871" lon="2.51735333">
        <ele>5.0</ele>
        <time>2022-05-14T11:43:34.332Z</time>
      </trkpt>
      <trkpt lat="39.498685" lon="2.51732833">
        <ele>4.0</ele>
        <time>2022-05-14T11:43:35.332Z</time>
      </trkpt>
      <trkpt lat="39.49866667" lon="2.51729833">
        <ele>4.0</ele>
        <time>2022-05-14T11:43:36.331Z</time>
      </trkpt>
      <trkpt lat="39.49864667" lon="2.51727">
        <ele>4.0</ele>
        <time>2022-05-14T11:43:37.332Z</time>
      </trkpt>
      <trkpt lat="39.49862167" lon="2.51724">
        <ele>4.0</ele>
        <time>2022-05-14T11:43:38.332Z</time>
      </trkpt>
      <trkpt lat="39.49860667" lon="2.51722167">
        <ele>4.0</ele>
        <time>2022-05-14T11:43:39.332Z</time>
      </trkpt>
      <trkpt lat="39.49858833" lon="2.51719167">
        <ele>4.0</ele>
        <time>2022-05-14T11:43:40.332Z</time>
      </trkpt>
      <trkpt lat="39.49857333" lon="2.51715833">
        <ele>4.0</ele>
        <time>2022-05-14T11:43:41.331Z</time>
      </trkpt>
      <trkpt lat="39.49855333" lon="2.51711667">
        <ele>5.0</ele>
        <time>2022-05-14T11:43:42.332Z</time>
      </trkpt>
      <trkpt lat="39.49854167" lon="2.51708667">
        <ele>4.0</ele>
        <time>2022-05-14T11:43:43.332Z</time>
      </trkpt>
      <trkpt lat="39.49852667" lon="2.51704667">
        <ele>4.0</ele>
        <time>2022-05-14T11:43:44.331Z</time>
      </trkpt>
      <trkpt lat="39.49850833" lon="2.51699667">
        <ele>4.0</ele>
        <time>2022-05-14T11:43:45.331Z</time>
      </trkpt>
      <trkpt lat="39.498495" lon="2.51696">
        <ele>4.0</ele>
        <time>2022-05-14T11:43:46.331Z</time>
      </trkpt>
      <trkpt lat="39.49847833" lon="2.51691667">
        <ele>4.0</ele>
        <time>2022-05-14T11:43:47.332Z</time>
      </trkpt>
      <trkpt lat="39.49846167" lon="2.51687333">
        <ele>4.0</ele>
        <time>2022-05-14T11:43:48.331Z</time>
      </trkpt>
      <trkpt lat="39.49844333" lon="2.51682667">
        <ele>4.0</ele>
        <time>2022-05-14T11:43:49.332Z</time>
      </trkpt>
      <trkpt lat="39.49843" lon="2.51677833">
        <ele>5.0</ele>
        <time>2022-05-14T11:43:50.332Z</time>
      </trkpt>
      <trkpt lat="39.49841667" lon="2.51673">
        <ele>5.0</ele>
        <time>2022-05-14T11:43:51.332Z</time>
      </trkpt>
      <trkpt lat="39.49840333" lon="2.51669">
        <ele>6.0</ele>
        <time>2022-05-14T11:43:52.332Z</time>
      </trkpt>
      <trkpt lat="39.49838833" lon="2.51664667">
        <ele>7.0</ele>
        <time>2022-05-14T11:43:53.331Z</time>
      </trkpt>
      <trkpt lat="39.49837333" lon="2.51659333">
        <ele>7.0</ele>
        <time>2022-05-14T11:43:54.332Z</time>
      </trkpt>
      <trkpt lat="39.49836" lon="2.51655667">
        <ele>8.0</ele>
        <time>2022-05-14T11:43:55.332Z</time>
      </trkpt>
      <trkpt lat="39.49834333" lon="2.51650333">
        <ele>8.0</ele>
        <time>2022-05-14T11:43:56.331Z</time>
      </trkpt>
      <trkpt lat="39.49833167" lon="2.51646667">
        <ele>8.0</ele>
        <time>2022-05-14T11:43:57.331Z</time>
      </trkpt>
      <trkpt lat="39.49832" lon="2.51642167">
        <ele>8.0</ele>
        <time>2022-05-14T11:43:58.332Z</time>
      </trkpt>
      <trkpt lat="39.49830667" lon="2.51637833">
        <ele>8.0</ele>
        <time>2022-05-14T11:43:59.332Z</time>
      </trkpt>
      <trkpt lat="39.49829167" lon="2.51633333">
        <ele>7.0</ele>
        <time>2022-05-14T11:44:00.331Z</time>
      </trkpt>
      <trkpt lat="39.49828167" lon="2.51628667">
        <ele>7.0</ele>
        <time>2022-05-14T11:44:01.331Z</time>
      </trkpt>
      <trkpt lat="39.49827" lon="2.516235">
        <ele>7.0</ele>
        <time>2022-05-14T11:44:02.331Z</time>
      </trkpt>
      <trkpt lat="39.498255" lon="2.51618333">
        <ele>7.0</ele>
        <time>2022-05-14T11:44:03.332Z</time>
      </trkpt>
      <trkpt lat="39.49824333" lon="2.51615">
        <ele>7.0</ele>
        <time>2022-05-14T11:44:04.332Z</time>
      </trkpt>
      <trkpt lat="39.498225" lon="2.51610333">
        <ele>7.0</ele>
        <time>2022-05-14T11:44:05.331Z</time>
      </trkpt>
      <trkpt lat="39.49821" lon="2.51606667">
        <ele>7.0</ele>
        <time>2022-05-14T11:44:06.332Z</time>
      </trkpt>
      <trkpt lat="39.49819167" lon="2.51602167">
        <ele>7.0</ele>
        <time>2022-05-14T11:44:07.331Z</time>
      </trkpt>
      <trkpt lat="39.49817667" lon="2.51597167">
        <ele>7.0</ele>
        <time>2022-05-14T11:44:08.332Z</time>
      </trkpt>
      <trkpt lat="39.49816167" lon="2.51592167">
        <ele>8.0</ele>
        <time>2022-05-14T11:44:09.331Z</time>
      </trkpt>
      <trkpt lat="39.49814833" lon="2.51587">
        <ele>8.0</ele>
        <time>2022-05-14T11:44:10.331Z</time>
      </trkpt>
      <trkpt lat="39.49813833" lon="2.51582333">
        <ele>8.0</ele>
        <time>2022-05-14T11:44:11.332Z</time>
      </trkpt>
      <trkpt lat="39.49812833" lon="2.515775">
        <ele>8.0</ele>
        <time>2022-05-14T11:44:12.332Z</time>
      </trkpt>
      <trkpt lat="39.49812167" lon="2.515725">
        <ele>7.0</ele>
        <time>2022-05-14T11:44:13.332Z</time>
      </trkpt>
      <trkpt lat="39.49810667" lon="2.51566833">
        <ele>8.0</ele>
        <time>2022-05-14T11:44:14.331Z</time>
      </trkpt>
      <trkpt lat="39.498095" lon="2.51563333">
        <ele>8.0</ele>
        <time>2022-05-14T11:44:15.331Z</time>
      </trkpt>
      <trkpt lat="39.49808167" lon="2.51558667">
        <ele>8.0</ele>
        <time>2022-05-14T11:44:16.332Z</time>
      </trkpt>
      <trkpt lat="39.498065" lon="2.51553">
        <ele>8.0</ele>
        <time>2022-05-14T11:44:17.331Z</time>
      </trkpt>
      <trkpt lat="39.49805333" lon="2.51549">
        <ele>7.0</ele>
        <time>2022-05-14T11:44:18.331Z</time>
      </trkpt>
      <trkpt lat="39.49804167" lon="2.51544333">
        <ele>7.0</ele>
        <time>2022-05-14T11:44:19.332Z</time>
      </trkpt>
      <trkpt lat="39.49802667" lon="2.5154">
        <ele>7.0</ele>
        <time>2022-05-14T11:44:20.332Z</time>
      </trkpt>
      <trkpt lat="39.49801333" lon="2.51536">
        <ele>6.0</ele>
        <time>2022-05-14T11:44:21.332Z</time>
      </trkpt>
      <trkpt lat="39.49799333" lon="2.51531833">
        <ele>6.0</ele>
        <time>2022-05-14T11:44:22.332Z</time>
      </trkpt>
      <trkpt lat="39.49797" lon="2.51526333">
        <ele>7.0</ele>
        <time>2022-05-14T11:44:23.332Z</time>
      </trkpt>
      <trkpt lat="39.49795667" lon="2.515225">
        <ele>7.0</ele>
        <time>2022-05-14T11:44:24.332Z</time>
      </trkpt>
      <trkpt lat="39.49794333" lon="2.51517667">
        <ele>8.0</ele>
        <time>2022-05-14T11:44:25.332Z</time>
      </trkpt>
      <trkpt lat="39.49793" lon="2.51513">
        <ele>8.0</ele>
        <time>2022-05-14T11:44:26.332Z</time>
      </trkpt>
      <trkpt lat="39.497915" lon="2.51508333">
        <ele>9.0</ele>
        <time>2022-05-14T11:44:27.332Z</time>
      </trkpt>
      <trkpt lat="39.4979" lon="2.51503833">
        <ele>9.0</ele>
        <time>2022-05-14T11:44:28.332Z</time>
      </trkpt>
      <trkpt lat="39.49788167" lon="2.514995">
        <ele>9.0</ele>
        <time>2022-05-14T11:44:29.332Z</time>
      </trkpt>
      <trkpt lat="39.49787167" lon="2.51495">
        <ele>9.0</ele>
        <time>2022-05-14T11:44:30.332Z</time>
      </trkpt>
      <trkpt lat="39.49786" lon="2.51490667">
        <ele>9.0</ele>
        <time>2022-05-14T11:44:31.332Z</time>
      </trkpt>
      <trkpt lat="39.497845" lon="2.51485">
        <ele>8.0</ele>
        <time>2022-05-14T11:44:32.331Z</time>
      </trkpt>
      <trkpt lat="39.49783333" lon="2.51481">
        <ele>8.0</ele>
        <time>2022-05-14T11:44:33.332Z</time>
      </trkpt>
      <trkpt lat="39.49782" lon="2.51476167">
        <ele>7.0</ele>
        <time>2022-05-14T11:44:34.331Z</time>
      </trkpt>
      <trkpt lat="39.49780667" lon="2.51471333">
        <ele>7.0</ele>
        <time>2022-05-14T11:44:35.332Z</time>
      </trkpt>
      <trkpt lat="39.49779333" lon="2.51467">
        <ele>6.0</ele>
        <time>2022-05-14T11:44:36.332Z</time>
      </trkpt>
      <trkpt lat="39.49778167" lon="2.514625">
        <ele>6.0</ele>
        <time>2022-05-14T11:44:37.332Z</time>
      </trkpt>
      <trkpt lat="39.49776667" lon="2.51457667">
        <ele>6.0</ele>
        <time>2022-05-14T11:44:38.331Z</time>
      </trkpt>
      <trkpt lat="39.49775333" lon="2.51452833">
        <ele>6.0</ele>
        <time>2022-05-14T11:44:39.332Z</time>
      </trkpt>
      <trkpt lat="39.49774" lon="2.51448167">
        <ele>6.0</ele>
        <time>2022-05-14T11:44:40.332Z</time>
      </trkpt>
      <trkpt lat="39.49772833" lon="2.514435">
        <ele>6.0</ele>
        <time>2022-05-14T11:44:41.332Z</time>
      </trkpt>
      <trkpt lat="39.49771333" lon="2.51438833">
        <ele>6.0</ele>
        <time>2022-05-14T11:44:42.332Z</time>
      </trkpt>
      <trkpt lat="39.4977" lon="2.51434333">
        <ele>6.0</ele>
        <time>2022-05-14T11:44:43.332Z</time>
      </trkpt>
      <trkpt lat="39.497685" lon="2.51430167">
        <ele>7.0</ele>
        <time>2022-05-14T11:44:44.332Z</time>
      </trkpt>
      <trkpt lat="39.49766833" lon="2.51425667">
        <ele>7.0</ele>
        <time>2022-05-14T11:44:45.331Z</time>
      </trkpt>
      <trkpt lat="39.49765167" lon="2.51421167">
        <ele>7.0</ele>
        <time>2022-05-14T11:44:46.331Z</time>
      </trkpt>
      <trkpt lat="39.497635" lon="2.51416667">
        <ele>7.0</ele>
        <time>2022-05-14T11:44:47.332Z</time>
      </trkpt>
      <trkpt lat="39.49761833" lon="2.51412">
        <ele>7.0</ele>
        <time>2022-05-14T11:44:48.332Z</time>
      </trkpt>
      <trkpt lat="39.49760167" lon="2.51406167">
        <ele>7.0</ele>
        <time>2022-05-14T11:44:49.332Z</time>
      </trkpt>
      <trkpt lat="39.49759333" lon="2.51402333">
        <ele>8.0</ele>
        <time>2022-05-14T11:44:50.331Z</time>
      </trkpt>
      <trkpt lat="39.497585" lon="2.51397667">
        <ele>8.0</ele>
        <time>2022-05-14T11:44:51.332Z</time>
      </trkpt>
      <trkpt lat="39.497575" lon="2.51392">
        <ele>8.0</ele>
        <time>2022-05-14T11:44:52.332Z</time>
      </trkpt>
      <trkpt lat="39.49756333" lon="2.513885">
        <ele>8.0</ele>
        <time>2022-05-14T11:44:53.332Z</time>
      </trkpt>
      <trkpt lat="39.49754833" lon="2.51383833">
        <ele>8.0</ele>
        <time>2022-05-14T11:44:54.331Z</time>
      </trkpt>
      <trkpt lat="39.497535" lon="2.51379167">
        <ele>8.0</ele>
        <time>2022-05-14T11:44:55.332Z</time>
      </trkpt>
      <trkpt lat="39.49752333" lon="2.51374167">
        <ele>8.0</ele>
        <time>2022-05-14T11:44:56.332Z</time>
      </trkpt>
      <trkpt lat="39.49750667" lon="2.51369167">
        <ele>9.0</ele>
        <time>2022-05-14T11:44:57.332Z</time>
      </trkpt>
      <trkpt lat="39.49748833" lon="2.51363833">
        <ele>9.0</ele>
        <time>2022-05-14T11:44:58.332Z</time>
      </trkpt>
      <trkpt lat="39.49747667" lon="2.5136">
        <ele>10.0</ele>
        <time>2022-05-14T11:44:59.332Z</time>
      </trkpt>
      <trkpt lat="39.49746167" lon="2.513555">
        <ele>10.0</ele>
        <time>2022-05-14T11:45:00.332Z</time>
      </trkpt>
      <trkpt lat="39.49745167" lon="2.51351">
        <ele>10.0</ele>
        <time>2022-05-14T11:45:01.331Z</time>
      </trkpt>
      <trkpt lat="39.497445" lon="2.513465">
        <ele>10.0</ele>
        <time>2022-05-14T11:45:02.332Z</time>
      </trkpt>
      <trkpt lat="39.49744" lon="2.51342333">
        <ele>10.0</ele>
        <time>2022-05-14T11:45:03.332Z</time>
      </trkpt>
      <trkpt lat="39.49742833" lon="2.51337833">
        <ele>9.0</ele>
        <time>2022-05-14T11:45:04.331Z</time>
      </trkpt>
      <trkpt lat="39.49741" lon="2.51332833">
        <ele>9.0</ele>
        <time>2022-05-14T11:45:05.332Z</time>
      </trkpt>
      <trkpt lat="39.49739833" lon="2.51329333">
        <ele>9.0</ele>
        <time>2022-05-14T11:45:06.332Z</time>
      </trkpt>
      <trkpt lat="39.49738167" lon="2.51324167">
        <ele>9.0</ele>
        <time>2022-05-14T11:45:07.332Z</time>
      </trkpt>
      <trkpt lat="39.49737" lon="2.513205">
        <ele>9.0</ele>
        <time>2022-05-14T11:45:08.332Z</time>
      </trkpt>
      <trkpt lat="39.497355" lon="2.51315833">
        <ele>9.0</ele>
        <time>2022-05-14T11:45:09.332Z</time>
      </trkpt>
      <trkpt lat="39.49733833" lon="2.51311333">
        <ele>9.0</ele>
        <time>2022-05-14T11:45:10.332Z</time>
      </trkpt>
      <trkpt lat="39.497325" lon="2.51306667">
        <ele>9.0</ele>
        <time>2022-05-14T11:45:11.332Z</time>
      </trkpt>
      <trkpt lat="39.49731" lon="2.51301667">
        <ele>9.0</ele>
        <time>2022-05-14T11:45:12.332Z</time>
      </trkpt>
      <trkpt lat="39.49729667" lon="2.51296833">
        <ele>9.0</ele>
        <time>2022-05-14T11:45:13.332Z</time>
      </trkpt>
      <trkpt lat="39.497285" lon="2.51292">
        <ele>9.0</ele>
        <time>2022-05-14T11:45:14.332Z</time>
      </trkpt>
      <trkpt lat="39.49727333" lon="2.51287333">
        <ele>8.0</ele>
        <time>2022-05-14T11:45:15.332Z</time>
      </trkpt>
      <trkpt lat="39.49725833" lon="2.51281833">
        <ele>8.0</ele>
        <time>2022-05-14T11:45:16.332Z</time>
      </trkpt>
      <trkpt lat="39.49725" lon="2.51278167">
        <ele>7.0</ele>
        <time>2022-05-14T11:45:17.332Z</time>
      </trkpt>
      <trkpt lat="39.49723667" lon="2.51273833">
        <ele>7.0</ele>
        <time>2022-05-14T11:45:18.332Z</time>
      </trkpt>
      <trkpt lat="39.497225" lon="2.51269167">
        <ele>7.0</ele>
        <time>2022-05-14T11:45:19.332Z</time>
      </trkpt>
      <trkpt lat="39.49721" lon="2.512645">
        <ele>7.0</ele>
        <time>2022-05-14T11:45:20.331Z</time>
      </trkpt>
      <trkpt lat="39.49719333" lon="2.5126">
        <ele>8.0</ele>
        <time>2022-05-14T11:45:21.331Z</time>
      </trkpt>
      <trkpt lat="39.49717833" lon="2.51255333">
        <ele>8.0</ele>
        <time>2022-05-14T11:45:22.332Z</time>
      </trkpt>
      <trkpt lat="39.49716333" lon="2.51250333">
        <ele>8.0</ele>
        <time>2022-05-14T11:45:23.331Z</time>
      </trkpt>
      <trkpt lat="39.49714833" lon="2.512455">
        <ele>8.0</ele>
        <time>2022-05-14T11:45:24.332Z</time>
      </trkpt>
      <trkpt lat="39.49713167" lon="2.5124">
        <ele>8.0</ele>
        <time>2022-05-14T11:45:25.331Z</time>
      </trkpt>
      <trkpt lat="39.49712167" lon="2.512365">
        <ele>8.0</ele>
        <time>2022-05-14T11:45:26.332Z</time>
      </trkpt>
      <trkpt lat="39.49710833" lon="2.51232167">
        <ele>8.0</ele>
        <time>2022-05-14T11:45:27.332Z</time>
      </trkpt>
      <trkpt lat="39.49709667" lon="2.51228167">
        <ele>8.0</ele>
        <time>2022-05-14T11:45:28.331Z</time>
      </trkpt>
      <trkpt lat="39.49708167" lon="2.51224167">
        <ele>9.0</ele>
        <time>2022-05-14T11:45:29.332Z</time>
      </trkpt>
      <trkpt lat="39.497065" lon="2.5122">
        <ele>9.0</ele>
        <time>2022-05-14T11:45:30.332Z</time>
      </trkpt>
      <trkpt lat="39.49704833" lon="2.51216167">
        <ele>9.0</ele>
        <time>2022-05-14T11:45:31.332Z</time>
      </trkpt>
      <trkpt lat="39.49703333" lon="2.51212">
        <ele>9.0</ele>
        <time>2022-05-14T11:45:32.332Z</time>
      </trkpt>
      <trkpt lat="39.49702167" lon="2.512075">
        <ele>8.0</ele>
        <time>2022-05-14T11:45:33.332Z</time>
      </trkpt>
      <trkpt lat="39.49701" lon="2.51201833">
        <ele>8.0</ele>
        <time>2022-05-14T11:45:34.332Z</time>
      </trkpt>
      <trkpt lat="39.49699833" lon="2.51198167">
        <ele>8.0</ele>
        <time>2022-05-14T11:45:35.332Z</time>
      </trkpt>
      <trkpt lat="39.49698333" lon="2.51193667">
        <ele>8.0</ele>
        <time>2022-05-14T11:45:36.331Z</time>
      </trkpt>
      <trkpt lat="39.49697" lon="2.51188667">
        <ele>8.0</ele>
        <time>2022-05-14T11:45:37.331Z</time>
      </trkpt>
      <trkpt lat="39.49695667" lon="2.51183833">
        <ele>8.0</ele>
        <time>2022-05-14T11:45:38.331Z</time>
      </trkpt>
      <trkpt lat="39.49694167" lon="2.51179">
        <ele>8.0</ele>
        <time>2022-05-14T11:45:39.332Z</time>
      </trkpt>
      <trkpt lat="39.49692667" lon="2.511745">
        <ele>8.0</ele>
        <time>2022-05-14T11:45:40.331Z</time>
      </trkpt>
      <trkpt lat="39.49691167" lon="2.5117">
        <ele>8.0</ele>
        <time>2022-05-14T11:45:41.332Z</time>
      </trkpt>
      <trkpt lat="39.49689667" lon="2.511655">
        <ele>8.0</ele>
        <time>2022-05-14T11:45:42.332Z</time>
      </trkpt>
      <trkpt lat="39.49688333" lon="2.51161167">
        <ele>9.0</ele>
        <time>2022-05-14T11:45:43.332Z</time>
      </trkpt>
      <trkpt lat="39.49687" lon="2.51157">
        <ele>9.0</ele>
        <time>2022-05-14T11:45:44.331Z</time>
      </trkpt>
      <trkpt lat="39.496855" lon="2.511525">
        <ele>9.0</ele>
        <time>2022-05-14T11:45:45.331Z</time>
      </trkpt>
      <trkpt lat="39.49684167" lon="2.51148">
        <ele>9.0</ele>
        <time>2022-05-14T11:45:46.331Z</time>
      </trkpt>
      <trkpt lat="39.49682667" lon="2.511435">
        <ele>9.0</ele>
        <time>2022-05-14T11:45:47.332Z</time>
      </trkpt>
      <trkpt lat="39.49681333" lon="2.51138667">
        <ele>9.0</ele>
        <time>2022-05-14T11:45:48.332Z</time>
      </trkpt>
      <trkpt lat="39.4968" lon="2.51134167">
        <ele>9.0</ele>
        <time>2022-05-14T11:45:49.332Z</time>
      </trkpt>
      <trkpt lat="39.496785" lon="2.51129333">
        <ele>9.0</ele>
        <time>2022-05-14T11:45:50.332Z</time>
      </trkpt>
      <trkpt lat="39.49677167" lon="2.51124667">
        <ele>9.0</ele>
        <time>2022-05-14T11:45:51.332Z</time>
      </trkpt>
      <trkpt lat="39.49675333" lon="2.51119">
        <ele>9.0</ele>
        <time>2022-05-14T11:45:52.332Z</time>
      </trkpt>
      <trkpt lat="39.49674333" lon="2.51115167">
        <ele>9.0</ele>
        <time>2022-05-14T11:45:53.331Z</time>
      </trkpt>
      <trkpt lat="39.49673333" lon="2.51110833">
        <ele>8.0</ele>
        <time>2022-05-14T11:45:54.331Z</time>
      </trkpt>
      <trkpt lat="39.49672167" lon="2.51106167">
        <ele>9.0</ele>
        <time>2022-05-14T11:45:55.331Z</time>
      </trkpt>
      <trkpt lat="39.49671" lon="2.511015">
        <ele>9.0</ele>
        <time>2022-05-14T11:45:56.331Z</time>
      </trkpt>
      <trkpt lat="39.49669833" lon="2.51096833">
        <ele>9.0</ele>
        <time>2022-05-14T11:45:57.331Z</time>
      </trkpt>
      <trkpt lat="39.49668333" lon="2.51092333">
        <ele>8.0</ele>
        <time>2022-05-14T11:45:58.332Z</time>
      </trkpt>
      <trkpt lat="39.49667" lon="2.51087667">
        <ele>8.0</ele>
        <time>2022-05-14T11:45:59.332Z</time>
      </trkpt>
      <trkpt lat="39.49665667" lon="2.51083">
        <ele>8.0</ele>
        <time>2022-05-14T11:46:00.332Z</time>
      </trkpt>
      <trkpt lat="39.49664333" lon="2.510785">
        <ele>8.0</ele>
        <time>2022-05-14T11:46:01.331Z</time>
      </trkpt>
      <trkpt lat="39.49662833" lon="2.51073833">
        <ele>8.0</ele>
        <time>2022-05-14T11:46:02.331Z</time>
      </trkpt>
      <trkpt lat="39.496615" lon="2.51069167">
        <ele>8.0</ele>
        <time>2022-05-14T11:46:03.332Z</time>
      </trkpt>
      <trkpt lat="39.4966" lon="2.51064667">
        <ele>8.0</ele>
        <time>2022-05-14T11:46:04.332Z</time>
      </trkpt>
      <trkpt lat="39.49658667" lon="2.5106">
        <ele>8.0</ele>
        <time>2022-05-14T11:46:05.331Z</time>
      </trkpt>
      <trkpt lat="39.496575" lon="2.510555">
        <ele>8.0</ele>
        <time>2022-05-14T11:46:06.331Z</time>
      </trkpt>
      <trkpt lat="39.49656333" lon="2.51050833">
        <ele>8.0</ele>
        <time>2022-05-14T11:46:07.331Z</time>
      </trkpt>
      <trkpt lat="39.49655" lon="2.51046333">
        <ele>8.0</ele>
        <time>2022-05-14T11:46:08.332Z</time>
      </trkpt>
      <trkpt lat="39.49653333" lon="2.51041833">
        <ele>9.0</ele>
        <time>2022-05-14T11:46:09.332Z</time>
      </trkpt>
      <trkpt lat="39.49651333" lon="2.51036667">
        <ele>9.0</ele>
        <time>2022-05-14T11:46:10.332Z</time>
      </trkpt>
      <trkpt lat="39.4965" lon="2.51033167">
        <ele>9.0</ele>
        <time>2022-05-14T11:46:11.331Z</time>
      </trkpt>
      <trkpt lat="39.496485" lon="2.51028667">
        <ele>9.0</ele>
        <time>2022-05-14T11:46:12.331Z</time>
      </trkpt>
      <trkpt lat="39.49647333" lon="2.51024167">
        <ele>9.0</ele>
        <time>2022-05-14T11:46:13.331Z</time>
      </trkpt>
      <trkpt lat="39.49646" lon="2.51019667">
        <ele>9.0</ele>
        <time>2022-05-14T11:46:14.332Z</time>
      </trkpt>
      <trkpt lat="39.49644667" lon="2.51015">
        <ele>10.0</ele>
        <time>2022-05-14T11:46:15.331Z</time>
      </trkpt>
      <trkpt lat="39.49643333" lon="2.51010333">
        <ele>10.0</ele>
        <time>2022-05-14T11:46:16.331Z</time>
      </trkpt>
      <trkpt lat="39.49642" lon="2.51005833">
        <ele>10.0</ele>
        <time>2022-05-14T11:46:17.331Z</time>
      </trkpt>
      <trkpt lat="39.49640333" lon="2.51000333">
        <ele>11.0</ele>
        <time>2022-05-14T11:46:18.331Z</time>
      </trkpt>
      <trkpt lat="39.49639333" lon="2.50997167">
        <ele>11.0</ele>
        <time>2022-05-14T11:46:19.332Z</time>
      </trkpt>
      <trkpt lat="39.49637667" lon="2.50992667">
        <ele>12.0</ele>
        <time>2022-05-14T11:46:20.332Z</time>
      </trkpt>
      <trkpt lat="39.49635833" lon="2.50987167">
        <ele>12.0</ele>
        <time>2022-05-14T11:46:21.331Z</time>
      </trkpt>
      <trkpt lat="39.49634667" lon="2.509835">
        <ele>12.0</ele>
        <time>2022-05-14T11:46:22.331Z</time>
      </trkpt>
      <trkpt lat="39.49633167" lon="2.50978833">
        <ele>12.0</ele>
        <time>2022-05-14T11:46:23.332Z</time>
      </trkpt>
      <trkpt lat="39.49631833" lon="2.50974">
        <ele>12.0</ele>
        <time>2022-05-14T11:46:24.332Z</time>
      </trkpt>
      <trkpt lat="39.49630333" lon="2.509685">
        <ele>12.0</ele>
        <time>2022-05-14T11:46:25.332Z</time>
      </trkpt>
      <trkpt lat="39.49629167" lon="2.50964667">
        <ele>12.0</ele>
        <time>2022-05-14T11:46:26.331Z</time>
      </trkpt>
      <trkpt lat="39.49628" lon="2.50960167">
        <ele>12.0</ele>
        <time>2022-05-14T11:46:27.331Z</time>
      </trkpt>
      <trkpt lat="39.496265" lon="2.50955667">
        <ele>12.0</ele>
        <time>2022-05-14T11:46:28.332Z</time>
      </trkpt>
      <trkpt lat="39.49625167" lon="2.50951333">
        <ele>11.0</ele>
        <time>2022-05-14T11:46:29.332Z</time>
      </trkpt>
      <trkpt lat="39.49623833" lon="2.50946833">
        <ele>11.0</ele>
        <time>2022-05-14T11:46:30.331Z</time>
      </trkpt>
      <trkpt lat="39.49622667" lon="2.50942333">
        <ele>11.0</ele>
        <time>2022-05-14T11:46:31.331Z</time>
      </trkpt>
      <trkpt lat="39.496215" lon="2.50937667">
        <ele>11.0</ele>
        <time>2022-05-14T11:46:32.331Z</time>
      </trkpt>
      <trkpt lat="39.49620167" lon="2.50933167">
        <ele>11.0</ele>
        <time>2022-05-14T11:46:33.331Z</time>
      </trkpt>
      <trkpt lat="39.49618333" lon="2.509275">
        <ele>11.0</ele>
        <time>2022-05-14T11:46:34.332Z</time>
      </trkpt>
      <trkpt lat="39.49617333" lon="2.50924">
        <ele>11.0</ele>
        <time>2022-05-14T11:46:35.332Z</time>
      </trkpt>
      <trkpt lat="39.49615167" lon="2.50918333">
        <ele>11.0</ele>
        <time>2022-05-14T11:46:36.332Z</time>
      </trkpt>
      <trkpt lat="39.49614" lon="2.50914833">
        <ele>11.0</ele>
        <time>2022-05-14T11:46:37.332Z</time>
      </trkpt>
      <trkpt lat="39.496125" lon="2.5091">
        <ele>11.0</ele>
        <time>2022-05-14T11:46:38.332Z</time>
      </trkpt>
      <trkpt lat="39.49611167" lon="2.50905167">
        <ele>11.0</ele>
        <time>2022-05-14T11:46:39.331Z</time>
      </trkpt>
      <trkpt lat="39.49609333" lon="2.50899333">
        <ele>11.0</ele>
        <time>2022-05-14T11:46:40.331Z</time>
      </trkpt>
      <trkpt lat="39.49608167" lon="2.50895">
        <ele>10.0</ele>
        <time>2022-05-14T11:46:41.332Z</time>
      </trkpt>
      <trkpt lat="39.49607" lon="2.50889833">
        <ele>10.0</ele>
        <time>2022-05-14T11:46:42.332Z</time>
      </trkpt>
      <trkpt lat="39.496055" lon="2.50885167">
        <ele>11.0</ele>
        <time>2022-05-14T11:46:43.332Z</time>
      </trkpt>
      <trkpt lat="39.49604167" lon="2.50880333">
        <ele>11.0</ele>
        <time>2022-05-14T11:46:44.332Z</time>
      </trkpt>
      <trkpt lat="39.49603" lon="2.50875667">
        <ele>11.0</ele>
        <time>2022-05-14T11:46:45.332Z</time>
      </trkpt>
      <trkpt lat="39.49601667" lon="2.50870833">
        <ele>11.0</ele>
        <time>2022-05-14T11:46:46.332Z</time>
      </trkpt>
      <trkpt lat="39.49600333" lon="2.50866">
        <ele>11.0</ele>
        <time>2022-05-14T11:46:47.331Z</time>
      </trkpt>
      <trkpt lat="39.49599333" lon="2.50861167">
        <ele>11.0</ele>
        <time>2022-05-14T11:46:48.331Z</time>
      </trkpt>
      <trkpt lat="39.49599" lon="2.50856333">
        <ele>11.0</ele>
        <time>2022-05-14T11:46:49.332Z</time>
      </trkpt>
      <trkpt lat="39.49599333" lon="2.50851667">
        <ele>11.0</ele>
        <time>2022-05-14T11:46:50.332Z</time>
      </trkpt>
      <trkpt lat="39.49600167" lon="2.50847167">
        <ele>11.0</ele>
        <time>2022-05-14T11:46:51.331Z</time>
      </trkpt>
      <trkpt lat="39.49601667" lon="2.50842833">
        <ele>11.0</ele>
        <time>2022-05-14T11:46:52.331Z</time>
      </trkpt>
      <trkpt lat="39.49603" lon="2.50838833">
        <ele>11.0</ele>
        <time>2022-05-14T11:46:53.332Z</time>
      </trkpt>
      <trkpt lat="39.496045" lon="2.508345">
        <ele>11.0</ele>
        <time>2022-05-14T11:46:54.332Z</time>
      </trkpt>
      <trkpt lat="39.49606333" lon="2.50830167">
        <ele>11.0</ele>
        <time>2022-05-14T11:46:55.332Z</time>
      </trkpt>
      <trkpt lat="39.49608333" lon="2.50826167">
        <ele>11.0</ele>
        <time>2022-05-14T11:46:56.331Z</time>
      </trkpt>
      <trkpt lat="39.49610333" lon="2.50821833">
        <ele>10.0</ele>
        <time>2022-05-14T11:46:57.332Z</time>
      </trkpt>
      <trkpt lat="39.496115" lon="2.50817667">
        <ele>10.0</ele>
        <time>2022-05-14T11:46:58.332Z</time>
      </trkpt>
      <trkpt lat="39.49612333" lon="2.50813667">
        <ele>10.0</ele>
        <time>2022-05-14T11:46:59.332Z</time>
      </trkpt>
      <trkpt lat="39.49613" lon="2.50809833">
        <ele>9.0</ele>
        <time>2022-05-14T11:47:00.331Z</time>
      </trkpt>
      <trkpt lat="39.49612833" lon="2.50805167">
        <ele>10.0</ele>
        <time>2022-05-14T11:47:01.331Z</time>
      </trkpt>
      <trkpt lat="39.49612167" lon="2.508005">
        <ele>10.0</ele>
        <time>2022-05-14T11:47:02.331Z</time>
      </trkpt>
      <trkpt lat="39.49611167" lon="2.507955">
        <ele>11.0</ele>
        <time>2022-05-14T11:47:03.331Z</time>
      </trkpt>
      <trkpt lat="39.49610167" lon="2.50790833">
        <ele>11.0</ele>
        <time>2022-05-14T11:47:04.332Z</time>
      </trkpt>
      <trkpt lat="39.49609" lon="2.507865">
        <ele>11.0</ele>
        <time>2022-05-14T11:47:05.332Z</time>
      </trkpt>
      <trkpt lat="39.49607333" lon="2.50782333">
        <ele>11.0</ele>
        <time>2022-05-14T11:47:06.332Z</time>
      </trkpt>
      <trkpt lat="39.49605" lon="2.50778">
        <ele>10.0</ele>
        <time>2022-05-14T11:47:07.331Z</time>
      </trkpt>
      <trkpt lat="39.49602667" lon="2.50776667">
        <ele>10.0</ele>
        <time>2022-05-14T11:47:08.332Z</time>
      </trkpt>
      <trkpt lat="39.49599" lon="2.50776">
        <ele>9.0</ele>
        <time>2022-05-14T11:47:09.331Z</time>
      </trkpt>
      <trkpt lat="39.49595333" lon="2.50776">
        <ele>10.0</ele>
        <time>2022-05-14T11:47:10.331Z</time>
      </trkpt>
      <trkpt lat="39.49592" lon="2.507765">
        <ele>10.0</ele>
        <time>2022-05-14T11:47:11.332Z</time>
      </trkpt>
      <trkpt lat="39.49588667" lon="2.50776833">
        <ele>10.0</ele>
        <time>2022-05-14T11:47:12.331Z</time>
      </trkpt>
      <trkpt lat="39.495855" lon="2.50777667">
        <ele>10.0</ele>
        <time>2022-05-14T11:47:13.331Z</time>
      </trkpt>
      <trkpt lat="39.49582" lon="2.50778833">
        <ele>11.0</ele>
        <time>2022-05-14T11:47:14.332Z</time>
      </trkpt>
      <trkpt lat="39.49579" lon="2.50779667">
        <ele>11.0</ele>
        <time>2022-05-14T11:47:15.332Z</time>
      </trkpt>
      <trkpt lat="39.49576167" lon="2.50778833">
        <ele>11.0</ele>
        <time>2022-05-14T11:47:16.331Z</time>
      </trkpt>
      <trkpt lat="39.49573833" lon="2.50776833">
        <ele>11.0</ele>
        <time>2022-05-14T11:47:17.332Z</time>
      </trkpt>
      <trkpt lat="39.49571833" lon="2.50774333">
        <ele>12.0</ele>
        <time>2022-05-14T11:47:18.332Z</time>
      </trkpt>
      <trkpt lat="39.495705" lon="2.507715">
        <ele>12.0</ele>
        <time>2022-05-14T11:47:19.332Z</time>
      </trkpt>
      <trkpt lat="39.49569167" lon="2.507685">
        <ele>12.0</ele>
        <time>2022-05-14T11:47:20.331Z</time>
      </trkpt>
      <trkpt lat="39.49568167" lon="2.50765667">
        <ele>12.0</ele>
        <time>2022-05-14T11:47:21.331Z</time>
      </trkpt>
      <trkpt lat="39.49566833" lon="2.50763">
        <ele>12.0</ele>
        <time>2022-05-14T11:47:22.332Z</time>
      </trkpt>
      <trkpt lat="39.49565667" lon="2.507595">
        <ele>12.0</ele>
        <time>2022-05-14T11:47:23.332Z</time>
      </trkpt>
      <trkpt lat="39.49565167" lon="2.50757333">
        <ele>12.0</ele>
        <time>2022-05-14T11:47:24.332Z</time>
      </trkpt>
      <trkpt lat="39.495645" lon="2.507545">
        <ele>13.0</ele>
        <time>2022-05-14T11:47:25.332Z</time>
      </trkpt>
      <trkpt lat="39.49563833" lon="2.50751667">
        <ele>13.0</ele>
        <time>2022-05-14T11:47:26.332Z</time>
      </trkpt>
      <trkpt lat="39.49563333" lon="2.50748667">
        <ele>14.0</ele>
        <time>2022-05-14T11:47:27.332Z</time>
      </trkpt>
      <trkpt lat="39.49562667" lon="2.50745667">
        <ele>14.0</ele>
        <time>2022-05-14T11:47:28.331Z</time>
      </trkpt>
      <trkpt lat="39.495615" lon="2.50742333">
        <ele>15.0</ele>
        <time>2022-05-14T11:47:29.332Z</time>
      </trkpt>
      <trkpt lat="39.49560167" lon="2.5074">
        <ele>16.0</ele>
        <time>2022-05-14T11:47:30.331Z</time>
      </trkpt>
      <trkpt lat="39.49558833" lon="2.50738">
        <ele>16.0</ele>
        <time>2022-05-14T11:47:31.332Z</time>
      </trkpt>
      <trkpt lat="39.495575" lon="2.50735833">
        <ele>17.0</ele>
        <time>2022-05-14T11:47:32.332Z</time>
      </trkpt>
      <trkpt lat="39.49556167" lon="2.50733167">
        <ele>18.0</ele>
        <time>2022-05-14T11:47:33.332Z</time>
      </trkpt>
      <trkpt lat="39.49553833" lon="2.50729667">
        <ele>18.0</ele>
        <time>2022-05-14T11:47:34.332Z</time>
      </trkpt>
      <trkpt lat="39.49552167" lon="2.50727">
        <ele>19.0</ele>
        <time>2022-05-14T11:47:35.332Z</time>
      </trkpt>
      <trkpt lat="39.49550667" lon="2.50723667">
        <ele>20.0</ele>
        <time>2022-05-14T11:47:36.332Z</time>
      </trkpt>
      <trkpt lat="39.495495" lon="2.50720333">
        <ele>21.0</ele>
        <time>2022-05-14T11:47:37.331Z</time>
      </trkpt>
      <trkpt lat="39.495485" lon="2.50716833">
        <ele>21.0</ele>
        <time>2022-05-14T11:47:38.332Z</time>
      </trkpt>
      <trkpt lat="39.49547833" lon="2.50713167">
        <ele>22.0</ele>
        <time>2022-05-14T11:47:39.332Z</time>
      </trkpt>
      <trkpt lat="39.49547" lon="2.507095">
        <ele>22.0</ele>
        <time>2022-05-14T11:47:40.332Z</time>
      </trkpt>
      <trkpt lat="39.49546" lon="2.50706167">
        <ele>22.0</ele>
        <time>2022-05-14T11:47:41.332Z</time>
      </trkpt>
      <trkpt lat="39.49545" lon="2.50702667">
        <ele>22.0</ele>
        <time>2022-05-14T11:47:42.331Z</time>
      </trkpt>
      <trkpt lat="39.49544" lon="2.506995">
        <ele>22.0</ele>
        <time>2022-05-14T11:47:43.332Z</time>
      </trkpt>
      <trkpt lat="39.49542833" lon="2.506965">
        <ele>22.0</ele>
        <time>2022-05-14T11:47:44.331Z</time>
      </trkpt>
      <trkpt lat="39.49542167" lon="2.50693833">
        <ele>22.0</ele>
        <time>2022-05-14T11:47:45.332Z</time>
      </trkpt>
      <trkpt lat="39.495415" lon="2.50691">
        <ele>21.0</ele>
        <time>2022-05-14T11:47:46.332Z</time>
      </trkpt>
      <trkpt lat="39.49540333" lon="2.50687">
        <ele>21.0</ele>
        <time>2022-05-14T11:47:47.332Z</time>
      </trkpt>
      <trkpt lat="39.49539667" lon="2.50684">
        <ele>21.0</ele>
        <time>2022-05-14T11:47:48.331Z</time>
      </trkpt>
      <trkpt lat="39.49539667" lon="2.50681167">
        <ele>21.0</ele>
        <time>2022-05-14T11:47:49.332Z</time>
      </trkpt>
      <trkpt lat="39.49539333" lon="2.50677833">
        <ele>21.0</ele>
        <time>2022-05-14T11:47:50.332Z</time>
      </trkpt>
      <trkpt lat="39.49538833" lon="2.50675833">
        <ele>21.0</ele>
        <time>2022-05-14T11:47:51.332Z</time>
      </trkpt>
      <trkpt lat="39.49538167" lon="2.506735">
        <ele>21.0</ele>
        <time>2022-05-14T11:47:52.332Z</time>
      </trkpt>
      <trkpt lat="39.49537167" lon="2.50671333">
        <ele>21.0</ele>
        <time>2022-05-14T11:47:53.331Z</time>
      </trkpt>
      <trkpt lat="39.49536333" lon="2.506695">
        <ele>21.0</ele>
        <time>2022-05-14T11:47:54.331Z</time>
      </trkpt>
      <trkpt lat="39.49535167" lon="2.50668">
        <ele>21.0</ele>
        <time>2022-05-14T11:47:55.332Z</time>
      </trkpt>
      <trkpt lat="39.49534167" lon="2.50665833">
        <ele>21.0</ele>
        <time>2022-05-14T11:47:56.331Z</time>
      </trkpt>
      <trkpt lat="39.49533333" lon="2.50664167">
        <ele>21.0</ele>
        <time>2022-05-14T11:47:57.332Z</time>
      </trkpt>
      <trkpt lat="39.49532667" lon="2.50662167">
        <ele>21.0</ele>
        <time>2022-05-14T11:47:58.331Z</time>
      </trkpt>
      <trkpt lat="39.49532" lon="2.5066">
        <ele>22.0</ele>
        <time>2022-05-14T11:47:59.332Z</time>
      </trkpt>
      <trkpt lat="39.49531833" lon="2.50658667">
        <ele>21.0</ele>
        <time>2022-05-14T11:48:00.332Z</time>
      </trkpt>
      <trkpt lat="39.49531167" lon="2.506565">
        <ele>22.0</ele>
        <time>2022-05-14T11:48:01.332Z</time>
      </trkpt>
      <trkpt lat="39.495305" lon="2.50654">
        <ele>22.0</ele>
        <time>2022-05-14T11:48:02.332Z</time>
      </trkpt>
      <trkpt lat="39.4953" lon="2.506515">
        <ele>22.0</ele>
        <time>2022-05-14T11:48:03.332Z</time>
      </trkpt>
      <trkpt lat="39.49529167" lon="2.50648333">
        <ele>22.0</ele>
        <time>2022-05-14T11:48:04.332Z</time>
      </trkpt>
      <trkpt lat="39.49528167" lon="2.50644833">
        <ele>21.0</ele>
        <time>2022-05-14T11:48:05.331Z</time>
      </trkpt>
      <trkpt lat="39.49527" lon="2.50641">
        <ele>21.0</ele>
        <time>2022-05-14T11:48:06.331Z</time>
      </trkpt>
      <trkpt lat="39.495255" lon="2.50636833">
        <ele>20.0</ele>
        <time>2022-05-14T11:48:07.332Z</time>
      </trkpt>
      <trkpt lat="39.49524167" lon="2.50632333">
        <ele>20.0</ele>
        <time>2022-05-14T11:48:08.332Z</time>
      </trkpt>
      <trkpt lat="39.49522833" lon="2.50627333">
        <ele>20.0</ele>
        <time>2022-05-14T11:48:09.331Z</time>
      </trkpt>
      <trkpt lat="39.49521333" lon="2.50622167">
        <ele>20.0</ele>
        <time>2022-05-14T11:48:10.331Z</time>
      </trkpt>
      <trkpt lat="39.49519167" lon="2.50617167">
        <ele>21.0</ele>
        <time>2022-05-14T11:48:11.331Z</time>
      </trkpt>
      <trkpt lat="39.49517333" lon="2.50611833">
        <ele>21.0</ele>
        <time>2022-05-14T11:48:12.331Z</time>
      </trkpt>
      <trkpt lat="39.49515667" lon="2.50606667">
        <ele>21.0</ele>
        <time>2022-05-14T11:48:13.331Z</time>
      </trkpt>
      <trkpt lat="39.49514" lon="2.50600833">
        <ele>20.0</ele>
        <time>2022-05-14T11:48:14.332Z</time>
      </trkpt>
      <trkpt lat="39.49512667" lon="2.50596833">
        <ele>20.0</ele>
        <time>2022-05-14T11:48:15.331Z</time>
      </trkpt>
      <trkpt lat="39.49511" lon="2.505915">
        <ele>20.0</ele>
        <time>2022-05-14T11:48:16.331Z</time>
      </trkpt>
      <trkpt lat="39.495095" lon="2.50586333">
        <ele>21.0</ele>
        <time>2022-05-14T11:48:17.331Z</time>
      </trkpt>
      <trkpt lat="39.49508" lon="2.50581">
        <ele>21.0</ele>
        <time>2022-05-14T11:48:18.331Z</time>
      </trkpt>
      <trkpt lat="39.49506333" lon="2.50575667">
        <ele>21.0</ele>
        <time>2022-05-14T11:48:19.332Z</time>
      </trkpt>
      <trkpt lat="39.49504833" lon="2.50570667">
        <ele>21.0</ele>
        <time>2022-05-14T11:48:20.332Z</time>
      </trkpt>
      <trkpt lat="39.495035" lon="2.505655">
        <ele>21.0</ele>
        <time>2022-05-14T11:48:21.332Z</time>
      </trkpt>
      <trkpt lat="39.49502" lon="2.50560167">
        <ele>20.0</ele>
        <time>2022-05-14T11:48:22.331Z</time>
      </trkpt>
      <trkpt lat="39.495005" lon="2.50554333">
        <ele>20.0</ele>
        <time>2022-05-14T11:48:23.331Z</time>
      </trkpt>
      <trkpt lat="39.494995" lon="2.505505">
        <ele>20.0</ele>
        <time>2022-05-14T11:48:24.331Z</time>
      </trkpt>
      <trkpt lat="39.49497833" lon="2.50545667">
        <ele>20.0</ele>
        <time>2022-05-14T11:48:25.332Z</time>
      </trkpt>
      <trkpt lat="39.494965" lon="2.505405">
        <ele>20.0</ele>
        <time>2022-05-14T11:48:26.332Z</time>
      </trkpt>
      <trkpt lat="39.49495" lon="2.50535167">
        <ele>20.0</ele>
        <time>2022-05-14T11:48:27.332Z</time>
      </trkpt>
      <trkpt lat="39.494935" lon="2.5053">
        <ele>20.0</ele>
        <time>2022-05-14T11:48:28.332Z</time>
      </trkpt>
      <trkpt lat="39.49491833" lon="2.50524333">
        <ele>20.0</ele>
        <time>2022-05-14T11:48:29.332Z</time>
      </trkpt>
      <trkpt lat="39.49490167" lon="2.50519">
        <ele>20.0</ele>
        <time>2022-05-14T11:48:30.332Z</time>
      </trkpt>
      <trkpt lat="39.49488667" lon="2.505135">
        <ele>20.0</ele>
        <time>2022-05-14T11:48:31.332Z</time>
      </trkpt>
      <trkpt lat="39.49486833" lon="2.50507333">
        <ele>20.0</ele>
        <time>2022-05-14T11:48:32.332Z</time>
      </trkpt>
      <trkpt lat="39.494855" lon="2.50503">
        <ele>20.0</ele>
        <time>2022-05-14T11:48:33.332Z</time>
      </trkpt>
      <trkpt lat="39.49484" lon="2.50498">
        <ele>20.0</ele>
        <time>2022-05-14T11:48:34.332Z</time>
      </trkpt>
      <trkpt lat="39.49482667" lon="2.50493833">
        <ele>20.0</ele>
        <time>2022-05-14T11:48:35.331Z</time>
      </trkpt>
      <trkpt lat="39.49481333" lon="2.504895">
        <ele>20.0</ele>
        <time>2022-05-14T11:48:36.332Z</time>
      </trkpt>
      <trkpt lat="39.49480167" lon="2.50485">
        <ele>20.0</ele>
        <time>2022-05-14T11:48:37.331Z</time>
      </trkpt>
      <trkpt lat="39.49478833" lon="2.50480167">
        <ele>20.0</ele>
        <time>2022-05-14T11:48:38.332Z</time>
      </trkpt>
      <trkpt lat="39.49477167" lon="2.504755">
        <ele>20.0</ele>
        <time>2022-05-14T11:48:39.332Z</time>
      </trkpt>
      <trkpt lat="39.49475667" lon="2.504705">
        <ele>20.0</ele>
        <time>2022-05-14T11:48:40.332Z</time>
      </trkpt>
      <trkpt lat="39.49474" lon="2.504655">
        <ele>20.0</ele>
        <time>2022-05-14T11:48:41.332Z</time>
      </trkpt>
      <trkpt lat="39.49472667" lon="2.504605">
        <ele>20.0</ele>
        <time>2022-05-14T11:48:42.332Z</time>
      </trkpt>
      <trkpt lat="39.49471167" lon="2.50456">
        <ele>20.0</ele>
        <time>2022-05-14T11:48:43.332Z</time>
      </trkpt>
      <trkpt lat="39.49469667" lon="2.50451167">
        <ele>20.0</ele>
        <time>2022-05-14T11:48:44.332Z</time>
      </trkpt>
      <trkpt lat="39.49468" lon="2.50446">
        <ele>20.0</ele>
        <time>2022-05-14T11:48:45.332Z</time>
      </trkpt>
      <trkpt lat="39.494665" lon="2.50441167">
        <ele>20.0</ele>
        <time>2022-05-14T11:48:46.331Z</time>
      </trkpt>
      <trkpt lat="39.49465167" lon="2.50436167">
        <ele>20.0</ele>
        <time>2022-05-14T11:48:47.332Z</time>
      </trkpt>
      <trkpt lat="39.49463667" lon="2.50431167">
        <ele>20.0</ele>
        <time>2022-05-14T11:48:48.332Z</time>
      </trkpt>
      <trkpt lat="39.49462" lon="2.50426">
        <ele>20.0</ele>
        <time>2022-05-14T11:48:49.332Z</time>
      </trkpt>
      <trkpt lat="39.494605" lon="2.50421333">
        <ele>19.0</ele>
        <time>2022-05-14T11:48:50.332Z</time>
      </trkpt>
      <trkpt lat="39.49459167" lon="2.504165">
        <ele>19.0</ele>
        <time>2022-05-14T11:48:51.332Z</time>
      </trkpt>
      <trkpt lat="39.49457667" lon="2.50411833">
        <ele>18.0</ele>
        <time>2022-05-14T11:48:52.332Z</time>
      </trkpt>
      <trkpt lat="39.49456" lon="2.50406667">
        <ele>18.0</ele>
        <time>2022-05-14T11:48:53.332Z</time>
      </trkpt>
      <trkpt lat="39.49454167" lon="2.504015">
        <ele>18.0</ele>
        <time>2022-05-14T11:48:54.332Z</time>
      </trkpt>
      <trkpt lat="39.494525" lon="2.503965">
        <ele>18.0</ele>
        <time>2022-05-14T11:48:55.332Z</time>
      </trkpt>
      <trkpt lat="39.49450667" lon="2.503915">
        <ele>18.0</ele>
        <time>2022-05-14T11:48:56.332Z</time>
      </trkpt>
      <trkpt lat="39.49449" lon="2.503865">
        <ele>18.0</ele>
        <time>2022-05-14T11:48:57.332Z</time>
      </trkpt>
      <trkpt lat="39.49447167" lon="2.503815">
        <ele>18.0</ele>
        <time>2022-05-14T11:48:58.332Z</time>
      </trkpt>
      <trkpt lat="39.49445833" lon="2.503765">
        <ele>18.0</ele>
        <time>2022-05-14T11:48:59.332Z</time>
      </trkpt>
      <trkpt lat="39.49444333" lon="2.50371833">
        <ele>18.0</ele>
        <time>2022-05-14T11:49:00.332Z</time>
      </trkpt>
      <trkpt lat="39.49442833" lon="2.50367">
        <ele>18.0</ele>
        <time>2022-05-14T11:49:01.332Z</time>
      </trkpt>
      <trkpt lat="39.49440833" lon="2.50362">
        <ele>18.0</ele>
        <time>2022-05-14T11:49:02.332Z</time>
      </trkpt>
      <trkpt lat="39.49438833" lon="2.50356833">
        <ele>18.0</ele>
        <time>2022-05-14T11:49:03.332Z</time>
      </trkpt>
      <trkpt lat="39.49437167" lon="2.50351167">
        <ele>18.0</ele>
        <time>2022-05-14T11:49:04.331Z</time>
      </trkpt>
      <trkpt lat="39.494355" lon="2.503455">
        <ele>18.0</ele>
        <time>2022-05-14T11:49:05.332Z</time>
      </trkpt>
      <trkpt lat="39.49433667" lon="2.503395">
        <ele>18.0</ele>
        <time>2022-05-14T11:49:06.332Z</time>
      </trkpt>
      <trkpt lat="39.49431833" lon="2.50333">
        <ele>18.0</ele>
        <time>2022-05-14T11:49:07.331Z</time>
      </trkpt>
      <trkpt lat="39.49429833" lon="2.50326333">
        <ele>18.0</ele>
        <time>2022-05-14T11:49:08.332Z</time>
      </trkpt>
      <trkpt lat="39.49427167" lon="2.50319167">
        <ele>18.0</ele>
        <time>2022-05-14T11:49:09.331Z</time>
      </trkpt>
      <trkpt lat="39.49424667" lon="2.50310667">
        <ele>18.0</ele>
        <time>2022-05-14T11:49:10.332Z</time>
      </trkpt>
      <trkpt lat="39.49422667" lon="2.50302667">
        <ele>18.0</ele>
        <time>2022-05-14T11:49:11.332Z</time>
      </trkpt>
      <trkpt lat="39.49420333" lon="2.50294667">
        <ele>18.0</ele>
        <time>2022-05-14T11:49:12.332Z</time>
      </trkpt>
      <trkpt lat="39.49418" lon="2.50286333">
        <ele>18.0</ele>
        <time>2022-05-14T11:49:13.331Z</time>
      </trkpt>
      <trkpt lat="39.49415333" lon="2.50276833">
        <ele>18.0</ele>
        <time>2022-05-14T11:49:14.332Z</time>
      </trkpt>
      <trkpt lat="39.494135" lon="2.50270167">
        <ele>18.0</ele>
        <time>2022-05-14T11:49:15.331Z</time>
      </trkpt>
      <trkpt lat="39.494115" lon="2.50260167">
        <ele>18.0</ele>
        <time>2022-05-14T11:49:16.332Z</time>
      </trkpt>
      <trkpt lat="39.4941" lon="2.50253333">
        <ele>17.0</ele>
        <time>2022-05-14T11:49:17.332Z</time>
      </trkpt>
      <trkpt lat="39.49407833" lon="2.50246333">
        <ele>17.0</ele>
        <time>2022-05-14T11:49:18.332Z</time>
      </trkpt>
      <trkpt lat="39.49405833" lon="2.50239667">
        <ele>17.0</ele>
        <time>2022-05-14T11:49:19.332Z</time>
      </trkpt>
      <trkpt lat="39.494035" lon="2.50233">
        <ele>17.0</ele>
        <time>2022-05-14T11:49:20.331Z</time>
      </trkpt>
      <trkpt lat="39.49401167" lon="2.502265">
        <ele>17.0</ele>
        <time>2022-05-14T11:49:21.332Z</time>
      </trkpt>
      <trkpt lat="39.49399333" lon="2.502205">
        <ele>17.0</ele>
        <time>2022-05-14T11:49:22.332Z</time>
      </trkpt>
      <trkpt lat="39.49397833" lon="2.50214167">
        <ele>17.0</ele>
        <time>2022-05-14T11:49:23.332Z</time>
      </trkpt>
      <trkpt lat="39.493965" lon="2.50208">
        <ele>17.0</ele>
        <time>2022-05-14T11:49:24.331Z</time>
      </trkpt>
      <trkpt lat="39.49395" lon="2.50202333">
        <ele>17.0</ele>
        <time>2022-05-14T11:49:25.331Z</time>
      </trkpt>
      <trkpt lat="39.49393333" lon="2.50197167">
        <ele>17.0</ele>
        <time>2022-05-14T11:49:26.332Z</time>
      </trkpt>
      <trkpt lat="39.49391667" lon="2.50192333">
        <ele>17.0</ele>
        <time>2022-05-14T11:49:27.332Z</time>
      </trkpt>
      <trkpt lat="39.4939" lon="2.50187833">
        <ele>17.0</ele>
        <time>2022-05-14T11:49:28.332Z</time>
      </trkpt>
      <trkpt lat="39.49389167" lon="2.50183333">
        <ele>17.0</ele>
        <time>2022-05-14T11:49:29.331Z</time>
      </trkpt>
      <trkpt lat="39.49389" lon="2.50178833">
        <ele>17.0</ele>
        <time>2022-05-14T11:49:30.332Z</time>
      </trkpt>
      <trkpt lat="39.49389667" lon="2.50174667">
        <ele>16.0</ele>
        <time>2022-05-14T11:49:31.332Z</time>
      </trkpt>
      <trkpt lat="39.49390667" lon="2.50170333">
        <ele>16.0</ele>
        <time>2022-05-14T11:49:32.332Z</time>
      </trkpt>
      <trkpt lat="39.49392167" lon="2.50166167">
        <ele>16.0</ele>
        <time>2022-05-14T11:49:33.331Z</time>
      </trkpt>
      <trkpt lat="39.49393833" lon="2.50161">
        <ele>15.0</ele>
        <time>2022-05-14T11:49:34.331Z</time>
      </trkpt>
      <trkpt lat="39.49394667" lon="2.50157667">
        <ele>15.0</ele>
        <time>2022-05-14T11:49:35.332Z</time>
      </trkpt>
      <trkpt lat="39.49395167" lon="2.50153333">
        <ele>15.0</ele>
        <time>2022-05-14T11:49:36.332Z</time>
      </trkpt>
      <trkpt lat="39.49395" lon="2.50149333">
        <ele>15.0</ele>
        <time>2022-05-14T11:49:37.331Z</time>
      </trkpt>
      <trkpt lat="39.49393833" lon="2.50145333">
        <ele>16.0</ele>
        <time>2022-05-14T11:49:38.332Z</time>
      </trkpt>
      <trkpt lat="39.49391833" lon="2.50141833">
        <ele>16.0</ele>
        <time>2022-05-14T11:49:39.332Z</time>
      </trkpt>
      <trkpt lat="39.49389333" lon="2.50139">
        <ele>16.0</ele>
        <time>2022-05-14T11:49:40.331Z</time>
      </trkpt>
      <trkpt lat="39.49386833" lon="2.50136333">
        <ele>16.0</ele>
        <time>2022-05-14T11:49:41.332Z</time>
      </trkpt>
      <trkpt lat="39.49384667" lon="2.50134167">
        <ele>17.0</ele>
        <time>2022-05-14T11:49:42.331Z</time>
      </trkpt>
      <trkpt lat="39.493825" lon="2.501325">
        <ele>16.0</ele>
        <time>2022-05-14T11:49:43.332Z</time>
      </trkpt>
      <trkpt lat="39.4938" lon="2.50131333">
        <ele>16.0</ele>
        <time>2022-05-14T11:49:44.332Z</time>
      </trkpt>
      <trkpt lat="39.493775" lon="2.50130167">
        <ele>16.0</ele>
        <time>2022-05-14T11:49:45.332Z</time>
      </trkpt>
      <trkpt lat="39.49375" lon="2.50128333">
        <ele>16.0</ele>
        <time>2022-05-14T11:49:46.332Z</time>
      </trkpt>
      <trkpt lat="39.49373" lon="2.50126">
        <ele>16.0</ele>
        <time>2022-05-14T11:49:47.332Z</time>
      </trkpt>
      <trkpt lat="39.493715" lon="2.50123167">
        <ele>16.0</ele>
        <time>2022-05-14T11:49:48.332Z</time>
      </trkpt>
      <trkpt lat="39.49370333" lon="2.5012">
        <ele>16.0</ele>
        <time>2022-05-14T11:49:49.332Z</time>
      </trkpt>
      <trkpt lat="39.49369" lon="2.50116333">
        <ele>16.0</ele>
        <time>2022-05-14T11:49:50.331Z</time>
      </trkpt>
      <trkpt lat="39.49367833" lon="2.50112833">
        <ele>16.0</ele>
        <time>2022-05-14T11:49:51.332Z</time>
      </trkpt>
      <trkpt lat="39.49366833" lon="2.50109">
        <ele>15.0</ele>
        <time>2022-05-14T11:49:52.331Z</time>
      </trkpt>
      <trkpt lat="39.493655" lon="2.50104667">
        <ele>15.0</ele>
        <time>2022-05-14T11:49:53.332Z</time>
      </trkpt>
      <trkpt lat="39.493645" lon="2.50100333">
        <ele>16.0</ele>
        <time>2022-05-14T11:49:54.331Z</time>
      </trkpt>
      <trkpt lat="39.49363333" lon="2.50096167">
        <ele>16.0</ele>
        <time>2022-05-14T11:49:55.331Z</time>
      </trkpt>
      <trkpt lat="39.49362167" lon="2.50092">
        <ele>16.0</ele>
        <time>2022-05-14T11:49:56.332Z</time>
      </trkpt>
      <trkpt lat="39.49361" lon="2.50087833">
        <ele>16.0</ele>
        <time>2022-05-14T11:49:57.332Z</time>
      </trkpt>
      <trkpt lat="39.49359833" lon="2.500835">
        <ele>16.0</ele>
        <time>2022-05-14T11:49:58.332Z</time>
      </trkpt>
      <trkpt lat="39.49358667" lon="2.50079167">
        <ele>16.0</ele>
        <time>2022-05-14T11:49:59.331Z</time>
      </trkpt>
      <trkpt lat="39.493575" lon="2.50075333">
        <ele>16.0</ele>
        <time>2022-05-14T11:50:00.331Z</time>
      </trkpt>
      <trkpt lat="39.49356167" lon="2.50071333">
        <ele>16.0</ele>
        <time>2022-05-14T11:50:01.332Z</time>
      </trkpt>
      <trkpt lat="39.49354833" lon="2.500675">
        <ele>16.0</ele>
        <time>2022-05-14T11:50:02.331Z</time>
      </trkpt>
      <trkpt lat="39.493535" lon="2.500635">
        <ele>16.0</ele>
        <time>2022-05-14T11:50:03.332Z</time>
      </trkpt>
      <trkpt lat="39.49352167" lon="2.50059667">
        <ele>16.0</ele>
        <time>2022-05-14T11:50:04.332Z</time>
      </trkpt>
      <trkpt lat="39.49351" lon="2.50055833">
        <ele>16.0</ele>
        <time>2022-05-14T11:50:05.332Z</time>
      </trkpt>
      <trkpt lat="39.493495" lon="2.50051833">
        <ele>16.0</ele>
        <time>2022-05-14T11:50:06.332Z</time>
      </trkpt>
      <trkpt lat="39.49348167" lon="2.50048167">
        <ele>16.0</ele>
        <time>2022-05-14T11:50:07.332Z</time>
      </trkpt>
      <trkpt lat="39.49347" lon="2.50044333">
        <ele>16.0</ele>
        <time>2022-05-14T11:50:08.331Z</time>
      </trkpt>
      <trkpt lat="39.49345833" lon="2.50040333">
        <ele>16.0</ele>
        <time>2022-05-14T11:50:09.331Z</time>
      </trkpt>
      <trkpt lat="39.49344833" lon="2.50036333">
        <ele>16.0</ele>
        <time>2022-05-14T11:50:10.332Z</time>
      </trkpt>
      <trkpt lat="39.49343833" lon="2.500325">
        <ele>16.0</ele>
        <time>2022-05-14T11:50:11.332Z</time>
      </trkpt>
      <trkpt lat="39.49342667" lon="2.500285">
        <ele>15.0</ele>
        <time>2022-05-14T11:50:12.332Z</time>
      </trkpt>
      <trkpt lat="39.49342" lon="2.500245">
        <ele>15.0</ele>
        <time>2022-05-14T11:50:13.331Z</time>
      </trkpt>
      <trkpt lat="39.493415" lon="2.500205">
        <ele>14.0</ele>
        <time>2022-05-14T11:50:14.331Z</time>
      </trkpt>
      <trkpt lat="39.49340667" lon="2.50016833">
        <ele>14.0</ele>
        <time>2022-05-14T11:50:15.331Z</time>
      </trkpt>
      <trkpt lat="39.49339667" lon="2.50013333">
        <ele>14.0</ele>
        <time>2022-05-14T11:50:16.331Z</time>
      </trkpt>
      <trkpt lat="39.49338667" lon="2.500095">
        <ele>15.0</ele>
        <time>2022-05-14T11:50:17.332Z</time>
      </trkpt>
      <trkpt lat="39.49337833" lon="2.50005833">
        <ele>15.0</ele>
        <time>2022-05-14T11:50:18.331Z</time>
      </trkpt>
      <trkpt lat="39.49336833" lon="2.50002167">
        <ele>15.0</ele>
        <time>2022-05-14T11:50:19.332Z</time>
      </trkpt>
      <trkpt lat="39.49335833" lon="2.49998333">
        <ele>15.0</ele>
        <time>2022-05-14T11:50:20.332Z</time>
      </trkpt>
      <trkpt lat="39.49334667" lon="2.49994833">
        <ele>16.0</ele>
        <time>2022-05-14T11:50:21.332Z</time>
      </trkpt>
      <trkpt lat="39.49333667" lon="2.499915">
        <ele>16.0</ele>
        <time>2022-05-14T11:50:22.332Z</time>
      </trkpt>
      <trkpt lat="39.49332667" lon="2.49988333">
        <ele>16.0</ele>
        <time>2022-05-14T11:50:23.332Z</time>
      </trkpt>
      <trkpt lat="39.493315" lon="2.49985333">
        <ele>17.0</ele>
        <time>2022-05-14T11:50:24.332Z</time>
      </trkpt>
      <trkpt lat="39.493305" lon="2.49982333">
        <ele>17.0</ele>
        <time>2022-05-14T11:50:25.332Z</time>
      </trkpt>
      <trkpt lat="39.49329333" lon="2.49979667">
        <ele>17.0</ele>
        <time>2022-05-14T11:50:26.332Z</time>
      </trkpt>
      <trkpt lat="39.49328167" lon="2.49976667">
        <ele>17.0</ele>
        <time>2022-05-14T11:50:27.332Z</time>
      </trkpt>
      <trkpt lat="39.49327" lon="2.49973833">
        <ele>18.0</ele>
        <time>2022-05-14T11:50:28.332Z</time>
      </trkpt>
      <trkpt lat="39.49325833" lon="2.49971">
        <ele>18.0</ele>
        <time>2022-05-14T11:50:29.332Z</time>
      </trkpt>
      <trkpt lat="39.493245" lon="2.49968167">
        <ele>18.0</ele>
        <time>2022-05-14T11:50:30.332Z</time>
      </trkpt>
      <trkpt lat="39.493235" lon="2.49965333">
        <ele>19.0</ele>
        <time>2022-05-14T11:50:31.332Z</time>
      </trkpt>
      <trkpt lat="39.49322333" lon="2.49962333">
        <ele>19.0</ele>
        <time>2022-05-14T11:50:32.332Z</time>
      </trkpt>
      <trkpt lat="39.49321167" lon="2.499595">
        <ele>19.0</ele>
        <time>2022-05-14T11:50:33.332Z</time>
      </trkpt>
      <trkpt lat="39.49319833" lon="2.49956667">
        <ele>20.0</ele>
        <time>2022-05-14T11:50:34.331Z</time>
      </trkpt>
      <trkpt lat="39.49317833" lon="2.49953167">
        <ele>21.0</ele>
        <time>2022-05-14T11:50:35.331Z</time>
      </trkpt>
      <trkpt lat="39.493165" lon="2.49950167">
        <ele>21.0</ele>
        <time>2022-05-14T11:50:36.332Z</time>
      </trkpt>
      <trkpt lat="39.49315667" lon="2.499465">
        <ele>21.0</ele>
        <time>2022-05-14T11:50:37.332Z</time>
      </trkpt>
      <trkpt lat="39.49315167" lon="2.49943667">
        <ele>21.0</ele>
        <time>2022-05-14T11:50:38.331Z</time>
      </trkpt>
      <trkpt lat="39.49314333" lon="2.499395">
        <ele>20.0</ele>
        <time>2022-05-14T11:50:39.331Z</time>
      </trkpt>
      <trkpt lat="39.493135" lon="2.49936">
        <ele>20.0</ele>
        <time>2022-05-14T11:50:40.332Z</time>
      </trkpt>
      <trkpt lat="39.49313167" lon="2.49932833">
        <ele>20.0</ele>
        <time>2022-05-14T11:50:41.332Z</time>
      </trkpt>
      <trkpt lat="39.49312333" lon="2.49928833">
        <ele>20.0</ele>
        <time>2022-05-14T11:50:42.332Z</time>
      </trkpt>
      <trkpt lat="39.493115" lon="2.49925167">
        <ele>20.0</ele>
        <time>2022-05-14T11:50:43.332Z</time>
      </trkpt>
      <trkpt lat="39.49310333" lon="2.49922167">
        <ele>21.0</ele>
        <time>2022-05-14T11:50:44.331Z</time>
      </trkpt>
      <trkpt lat="39.493095" lon="2.49919167">
        <ele>21.0</ele>
        <time>2022-05-14T11:50:45.332Z</time>
      </trkpt>
      <trkpt lat="39.49309167" lon="2.49916167">
        <ele>21.0</ele>
        <time>2022-05-14T11:50:46.332Z</time>
      </trkpt>
      <trkpt lat="39.493085" lon="2.49912667">
        <ele>21.0</ele>
        <time>2022-05-14T11:50:47.332Z</time>
      </trkpt>
      <trkpt lat="39.49307" lon="2.49908667">
        <ele>21.0</ele>
        <time>2022-05-14T11:50:48.332Z</time>
      </trkpt>
      <trkpt lat="39.49306" lon="2.49905167">
        <ele>22.0</ele>
        <time>2022-05-14T11:50:49.332Z</time>
      </trkpt>
      <trkpt lat="39.49305333" lon="2.49902">
        <ele>22.0</ele>
        <time>2022-05-14T11:50:50.332Z</time>
      </trkpt>
      <trkpt lat="39.49304667" lon="2.498995">
        <ele>22.0</ele>
        <time>2022-05-14T11:50:51.332Z</time>
      </trkpt>
      <trkpt lat="39.49303333" lon="2.498965">
        <ele>22.0</ele>
        <time>2022-05-14T11:50:52.331Z</time>
      </trkpt>
      <trkpt lat="39.49302" lon="2.49893167">
        <ele>23.0</ele>
        <time>2022-05-14T11:50:53.332Z</time>
      </trkpt>
      <trkpt lat="39.493005" lon="2.49889">
        <ele>22.0</ele>
        <time>2022-05-14T11:50:54.331Z</time>
      </trkpt>
      <trkpt lat="39.49299833" lon="2.49885833">
        <ele>22.0</ele>
        <time>2022-05-14T11:50:55.332Z</time>
      </trkpt>
      <trkpt lat="39.49299" lon="2.49882167">
        <ele>22.0</ele>
        <time>2022-05-14T11:50:56.332Z</time>
      </trkpt>
      <trkpt lat="39.49298" lon="2.49877667">
        <ele>21.0</ele>
        <time>2022-05-14T11:50:57.331Z</time>
      </trkpt>
      <trkpt lat="39.49297" lon="2.498745">
        <ele>21.0</ele>
        <time>2022-05-14T11:50:58.332Z</time>
      </trkpt>
      <trkpt lat="39.49295833" lon="2.4987">
        <ele>20.0</ele>
        <time>2022-05-14T11:50:59.332Z</time>
      </trkpt>
      <trkpt lat="39.49294667" lon="2.49867">
        <ele>20.0</ele>
        <time>2022-05-14T11:51:00.331Z</time>
      </trkpt>
      <trkpt lat="39.49293333" lon="2.49862667">
        <ele>20.0</ele>
        <time>2022-05-14T11:51:01.332Z</time>
      </trkpt>
      <trkpt lat="39.492925" lon="2.498595">
        <ele>20.0</ele>
        <time>2022-05-14T11:51:02.332Z</time>
      </trkpt>
      <trkpt lat="39.49291167" lon="2.49855">
        <ele>19.0</ele>
        <time>2022-05-14T11:51:03.331Z</time>
      </trkpt>
      <trkpt lat="39.49290333" lon="2.49852">
        <ele>19.0</ele>
        <time>2022-05-14T11:51:04.331Z</time>
      </trkpt>
      <trkpt lat="39.49289333" lon="2.49848333">
        <ele>19.0</ele>
        <time>2022-05-14T11:51:05.332Z</time>
      </trkpt>
      <trkpt lat="39.49288333" lon="2.49844">
        <ele>19.0</ele>
        <time>2022-05-14T11:51:06.332Z</time>
      </trkpt>
      <trkpt lat="39.492875" lon="2.49840833">
        <ele>19.0</ele>
        <time>2022-05-14T11:51:07.331Z</time>
      </trkpt>
      <trkpt lat="39.49286167" lon="2.49837">
        <ele>20.0</ele>
        <time>2022-05-14T11:51:08.331Z</time>
      </trkpt>
      <trkpt lat="39.492855" lon="2.49834167">
        <ele>20.0</ele>
        <time>2022-05-14T11:51:09.331Z</time>
      </trkpt>
      <trkpt lat="39.49284167" lon="2.49830333">
        <ele>20.0</ele>
        <time>2022-05-14T11:51:10.332Z</time>
      </trkpt>
      <trkpt lat="39.49283167" lon="2.49827">
        <ele>20.0</ele>
        <time>2022-05-14T11:51:11.332Z</time>
      </trkpt>
      <trkpt lat="39.49282" lon="2.49824">
        <ele>20.0</ele>
        <time>2022-05-14T11:51:12.332Z</time>
      </trkpt>
      <trkpt lat="39.49281333" lon="2.498215">
        <ele>20.0</ele>
        <time>2022-05-14T11:51:13.332Z</time>
      </trkpt>
      <trkpt lat="39.492805" lon="2.49818167">
        <ele>20.0</ele>
        <time>2022-05-14T11:51:14.332Z</time>
      </trkpt>
      <trkpt lat="39.492795" lon="2.49814333">
        <ele>19.0</ele>
        <time>2022-05-14T11:51:15.332Z</time>
      </trkpt>
      <trkpt lat="39.492785" lon="2.49810833">
        <ele>19.0</ele>
        <time>2022-05-14T11:51:16.331Z</time>
      </trkpt>
      <trkpt lat="39.492775" lon="2.498075">
        <ele>19.0</ele>
        <time>2022-05-14T11:51:17.331Z</time>
      </trkpt>
      <trkpt lat="39.492765" lon="2.49804333">
        <ele>19.0</ele>
        <time>2022-05-14T11:51:18.331Z</time>
      </trkpt>
      <trkpt lat="39.492755" lon="2.49800333">
        <ele>19.0</ele>
        <time>2022-05-14T11:51:19.332Z</time>
      </trkpt>
      <trkpt lat="39.49274667" lon="2.497975">
        <ele>19.0</ele>
        <time>2022-05-14T11:51:20.331Z</time>
      </trkpt>
      <trkpt lat="39.49273333" lon="2.49793167">
        <ele>19.0</ele>
        <time>2022-05-14T11:51:21.331Z</time>
      </trkpt>
      <trkpt lat="39.49272667" lon="2.49790167">
        <ele>19.0</ele>
        <time>2022-05-14T11:51:22.331Z</time>
      </trkpt>
      <trkpt lat="39.492715" lon="2.49786167">
        <ele>20.0</ele>
        <time>2022-05-14T11:51:23.332Z</time>
      </trkpt>
      <trkpt lat="39.4927" lon="2.49781667">
        <ele>20.0</ele>
        <time>2022-05-14T11:51:24.332Z</time>
      </trkpt>
      <trkpt lat="39.49268833" lon="2.49778">
        <ele>20.0</ele>
        <time>2022-05-14T11:51:25.331Z</time>
      </trkpt>
      <trkpt lat="39.49267833" lon="2.49774333">
        <ele>20.0</ele>
        <time>2022-05-14T11:51:26.332Z</time>
      </trkpt>
      <trkpt lat="39.49266833" lon="2.49771167">
        <ele>20.0</ele>
        <time>2022-05-14T11:51:27.331Z</time>
      </trkpt>
      <trkpt lat="39.49265" lon="2.49767">
        <ele>21.0</ele>
        <time>2022-05-14T11:51:28.332Z</time>
      </trkpt>
      <trkpt lat="39.49263667" lon="2.49764333">
        <ele>22.0</ele>
        <time>2022-05-14T11:51:29.331Z</time>
      </trkpt>
      <trkpt lat="39.49262" lon="2.49760167">
        <ele>22.0</ele>
        <time>2022-05-14T11:51:30.331Z</time>
      </trkpt>
      <trkpt lat="39.49261" lon="2.49757167">
        <ele>23.0</ele>
        <time>2022-05-14T11:51:31.332Z</time>
      </trkpt>
      <trkpt lat="39.4926" lon="2.49753333">
        <ele>23.0</ele>
        <time>2022-05-14T11:51:32.332Z</time>
      </trkpt>
      <trkpt lat="39.49258833" lon="2.49749333">
        <ele>23.0</ele>
        <time>2022-05-14T11:51:33.331Z</time>
      </trkpt>
      <trkpt lat="39.49257667" lon="2.49745167">
        <ele>23.0</ele>
        <time>2022-05-14T11:51:34.332Z</time>
      </trkpt>
      <trkpt lat="39.49256833" lon="2.49741833">
        <ele>22.0</ele>
        <time>2022-05-14T11:51:35.332Z</time>
      </trkpt>
      <trkpt lat="39.49256167" lon="2.49739">
        <ele>22.0</ele>
        <time>2022-05-14T11:51:36.332Z</time>
      </trkpt>
      <trkpt lat="39.49254833" lon="2.49735">
        <ele>22.0</ele>
        <time>2022-05-14T11:51:37.332Z</time>
      </trkpt>
      <trkpt lat="39.49253667" lon="2.49731667">
        <ele>22.0</ele>
        <time>2022-05-14T11:51:38.332Z</time>
      </trkpt>
      <trkpt lat="39.49252667" lon="2.49728">
        <ele>22.0</ele>
        <time>2022-05-14T11:51:39.331Z</time>
      </trkpt>
      <trkpt lat="39.49251667" lon="2.49725">
        <ele>22.0</ele>
        <time>2022-05-14T11:51:40.331Z</time>
      </trkpt>
      <trkpt lat="39.4925" lon="2.49720667">
        <ele>22.0</ele>
        <time>2022-05-14T11:51:41.332Z</time>
      </trkpt>
      <trkpt lat="39.49248833" lon="2.497175">
        <ele>22.0</ele>
        <time>2022-05-14T11:51:42.332Z</time>
      </trkpt>
      <trkpt lat="39.49247333" lon="2.49712833">
        <ele>22.0</ele>
        <time>2022-05-14T11:51:43.332Z</time>
      </trkpt>
      <trkpt lat="39.49246" lon="2.49710167">
        <ele>22.0</ele>
        <time>2022-05-14T11:51:44.332Z</time>
      </trkpt>
      <trkpt lat="39.49244333" lon="2.49706333">
        <ele>22.0</ele>
        <time>2022-05-14T11:51:45.331Z</time>
      </trkpt>
      <trkpt lat="39.49243167" lon="2.49701833">
        <ele>23.0</ele>
        <time>2022-05-14T11:51:46.331Z</time>
      </trkpt>
      <trkpt lat="39.49242667" lon="2.49698">
        <ele>23.0</ele>
        <time>2022-05-14T11:51:47.332Z</time>
      </trkpt>
      <trkpt lat="39.492415" lon="2.49694167">
        <ele>24.0</ele>
        <time>2022-05-14T11:51:48.331Z</time>
      </trkpt>
      <trkpt lat="39.49240833" lon="2.49691">
        <ele>24.0</ele>
        <time>2022-05-14T11:51:49.331Z</time>
      </trkpt>
      <trkpt lat="39.49240167" lon="2.49687167">
        <ele>24.0</ele>
        <time>2022-05-14T11:51:50.332Z</time>
      </trkpt>
      <trkpt lat="39.492395" lon="2.49683333">
        <ele>24.0</ele>
        <time>2022-05-14T11:51:51.331Z</time>
      </trkpt>
      <trkpt lat="39.492385" lon="2.49679">
        <ele>24.0</ele>
        <time>2022-05-14T11:51:52.331Z</time>
      </trkpt>
      <trkpt lat="39.49238167" lon="2.49675833">
        <ele>23.0</ele>
        <time>2022-05-14T11:51:53.331Z</time>
      </trkpt>
      <trkpt lat="39.49238" lon="2.49671333">
        <ele>23.0</ele>
        <time>2022-05-14T11:51:54.332Z</time>
      </trkpt>
      <trkpt lat="39.492385" lon="2.49667667">
        <ele>24.0</ele>
        <time>2022-05-14T11:51:55.331Z</time>
      </trkpt>
      <trkpt lat="39.492395" lon="2.496645">
        <ele>24.0</ele>
        <time>2022-05-14T11:51:56.331Z</time>
      </trkpt>
      <trkpt lat="39.49241" lon="2.49662167">
        <ele>24.0</ele>
        <time>2022-05-14T11:51:57.332Z</time>
      </trkpt>
      <trkpt lat="39.49243" lon="2.49659833">
        <ele>24.0</ele>
        <time>2022-05-14T11:51:58.331Z</time>
      </trkpt>
      <trkpt lat="39.492455" lon="2.49657">
        <ele>24.0</ele>
        <time>2022-05-14T11:51:59.331Z</time>
      </trkpt>
      <trkpt lat="39.49247167" lon="2.49653833">
        <ele>24.0</ele>
        <time>2022-05-14T11:52:00.331Z</time>
      </trkpt>
      <trkpt lat="39.49248" lon="2.49650667">
        <ele>24.0</ele>
        <time>2022-05-14T11:52:01.331Z</time>
      </trkpt>
      <trkpt lat="39.49248" lon="2.49647833">
        <ele>24.0</ele>
        <time>2022-05-14T11:52:02.331Z</time>
      </trkpt>
      <trkpt lat="39.492475" lon="2.49644">
        <ele>24.0</ele>
        <time>2022-05-14T11:52:03.331Z</time>
      </trkpt>
      <trkpt lat="39.49246167" lon="2.49639833">
        <ele>24.0</ele>
        <time>2022-05-14T11:52:04.331Z</time>
      </trkpt>
      <trkpt lat="39.49245167" lon="2.49636167">
        <ele>24.0</ele>
        <time>2022-05-14T11:52:05.331Z</time>
      </trkpt>
      <trkpt lat="39.492445" lon="2.49633">
        <ele>24.0</ele>
        <time>2022-05-14T11:52:06.332Z</time>
      </trkpt>
      <trkpt lat="39.49243833" lon="2.49630667">
        <ele>25.0</ele>
        <time>2022-05-14T11:52:07.332Z</time>
      </trkpt>
      <trkpt lat="39.49242333" lon="2.49627167">
        <ele>25.0</ele>
        <time>2022-05-14T11:52:08.331Z</time>
      </trkpt>
      <trkpt lat="39.49240833" lon="2.496245">
        <ele>25.0</ele>
        <time>2022-05-14T11:52:09.331Z</time>
      </trkpt>
      <trkpt lat="39.49238833" lon="2.49621833">
        <ele>25.0</ele>
        <time>2022-05-14T11:52:10.331Z</time>
      </trkpt>
      <trkpt lat="39.49237167" lon="2.4962">
        <ele>26.0</ele>
        <time>2022-05-14T11:52:11.332Z</time>
      </trkpt>
      <trkpt lat="39.49234667" lon="2.49618">
        <ele>26.0</ele>
        <time>2022-05-14T11:52:12.332Z</time>
      </trkpt>
      <trkpt lat="39.49231667" lon="2.49616">
        <ele>26.0</ele>
        <time>2022-05-14T11:52:13.331Z</time>
      </trkpt>
      <trkpt lat="39.49229" lon="2.49614833">
        <ele>27.0</ele>
        <time>2022-05-14T11:52:14.331Z</time>
      </trkpt>
      <trkpt lat="39.49226167" lon="2.49613333">
        <ele>27.0</ele>
        <time>2022-05-14T11:52:15.331Z</time>
      </trkpt>
      <trkpt lat="39.49224167" lon="2.49612">
        <ele>27.0</ele>
        <time>2022-05-14T11:52:16.331Z</time>
      </trkpt>
      <trkpt lat="39.49221833" lon="2.49608833">
        <ele>27.0</ele>
        <time>2022-05-14T11:52:17.331Z</time>
      </trkpt>
      <trkpt lat="39.492205" lon="2.496055">
        <ele>27.0</ele>
        <time>2022-05-14T11:52:18.332Z</time>
      </trkpt>
      <trkpt lat="39.492195" lon="2.49602">
        <ele>27.0</ele>
        <time>2022-05-14T11:52:19.332Z</time>
      </trkpt>
      <trkpt lat="39.49218833" lon="2.49599167">
        <ele>28.0</ele>
        <time>2022-05-14T11:52:20.332Z</time>
      </trkpt>
      <trkpt lat="39.49217833" lon="2.49595167">
        <ele>28.0</ele>
        <time>2022-05-14T11:52:21.331Z</time>
      </trkpt>
      <trkpt lat="39.49217167" lon="2.49592667">
        <ele>28.0</ele>
        <time>2022-05-14T11:52:22.331Z</time>
      </trkpt>
      <trkpt lat="39.49216333" lon="2.49589">
        <ele>28.0</ele>
        <time>2022-05-14T11:52:23.331Z</time>
      </trkpt>
      <trkpt lat="39.49215833" lon="2.495865">
        <ele>28.0</ele>
        <time>2022-05-14T11:52:24.332Z</time>
      </trkpt>
      <trkpt lat="39.49215167" lon="2.49583333">
        <ele>28.0</ele>
        <time>2022-05-14T11:52:25.331Z</time>
      </trkpt>
      <trkpt lat="39.49214333" lon="2.4958">
        <ele>28.0</ele>
        <time>2022-05-14T11:52:26.331Z</time>
      </trkpt>
      <trkpt lat="39.492135" lon="2.49577167">
        <ele>28.0</ele>
        <time>2022-05-14T11:52:27.331Z</time>
      </trkpt>
      <trkpt lat="39.49212833" lon="2.49574167">
        <ele>28.0</ele>
        <time>2022-05-14T11:52:28.332Z</time>
      </trkpt>
      <trkpt lat="39.49212167" lon="2.49571667">
        <ele>28.0</ele>
        <time>2022-05-14T11:52:29.332Z</time>
      </trkpt>
      <trkpt lat="39.49211167" lon="2.49567667">
        <ele>29.0</ele>
        <time>2022-05-14T11:52:30.331Z</time>
      </trkpt>
      <trkpt lat="39.49210167" lon="2.49564333">
        <ele>29.0</ele>
        <time>2022-05-14T11:52:31.331Z</time>
      </trkpt>
      <trkpt lat="39.49208833" lon="2.49561333">
        <ele>30.0</ele>
        <time>2022-05-14T11:52:32.332Z</time>
      </trkpt>
      <trkpt lat="39.49207833" lon="2.49558667">
        <ele>30.0</ele>
        <time>2022-05-14T11:52:33.332Z</time>
      </trkpt>
      <trkpt lat="39.492065" lon="2.495555">
        <ele>30.0</ele>
        <time>2022-05-14T11:52:34.332Z</time>
      </trkpt>
      <trkpt lat="39.49205" lon="2.495515">
        <ele>30.0</ele>
        <time>2022-05-14T11:52:35.332Z</time>
      </trkpt>
      <trkpt lat="39.49204167" lon="2.49548333">
        <ele>30.0</ele>
        <time>2022-05-14T11:52:36.331Z</time>
      </trkpt>
      <trkpt lat="39.49203333" lon="2.49544667">
        <ele>29.0</ele>
        <time>2022-05-14T11:52:37.331Z</time>
      </trkpt>
      <trkpt lat="39.49202833" lon="2.49541833">
        <ele>29.0</ele>
        <time>2022-05-14T11:52:38.332Z</time>
      </trkpt>
      <trkpt lat="39.49202167" lon="2.49537833">
        <ele>29.0</ele>
        <time>2022-05-14T11:52:39.332Z</time>
      </trkpt>
      <trkpt lat="39.492015" lon="2.49535333">
        <ele>29.0</ele>
        <time>2022-05-14T11:52:40.332Z</time>
      </trkpt>
      <trkpt lat="39.49200667" lon="2.49531833">
        <ele>29.0</ele>
        <time>2022-05-14T11:52:41.332Z</time>
      </trkpt>
      <trkpt lat="39.492" lon="2.495295">
        <ele>30.0</ele>
        <time>2022-05-14T11:52:42.332Z</time>
      </trkpt>
      <trkpt lat="39.49199167" lon="2.49526667">
        <ele>30.0</ele>
        <time>2022-05-14T11:52:43.331Z</time>
      </trkpt>
      <trkpt lat="39.49198333" lon="2.495235">
        <ele>30.0</ele>
        <time>2022-05-14T11:52:44.332Z</time>
      </trkpt>
      <trkpt lat="39.49197667" lon="2.49521333">
        <ele>30.0</ele>
        <time>2022-05-14T11:52:45.332Z</time>
      </trkpt>
      <trkpt lat="39.49196667" lon="2.49518167">
        <ele>30.0</ele>
        <time>2022-05-14T11:52:46.332Z</time>
      </trkpt>
      <trkpt lat="39.49196" lon="2.49515667">
        <ele>30.0</ele>
        <time>2022-05-14T11:52:47.331Z</time>
      </trkpt>
      <trkpt lat="39.49195167" lon="2.49512333">
        <ele>30.0</ele>
        <time>2022-05-14T11:52:48.332Z</time>
      </trkpt>
      <trkpt lat="39.49194167" lon="2.49509333">
        <ele>30.0</ele>
        <time>2022-05-14T11:52:49.332Z</time>
      </trkpt>
      <trkpt lat="39.49193333" lon="2.49506333">
        <ele>30.0</ele>
        <time>2022-05-14T11:52:50.332Z</time>
      </trkpt>
      <trkpt lat="39.49193" lon="2.49504">
        <ele>30.0</ele>
        <time>2022-05-14T11:52:51.331Z</time>
      </trkpt>
      <trkpt lat="39.49192167" lon="2.49500667">
        <ele>29.0</ele>
        <time>2022-05-14T11:52:52.332Z</time>
      </trkpt>
      <trkpt lat="39.49191333" lon="2.49497667">
        <ele>30.0</ele>
        <time>2022-05-14T11:52:53.332Z</time>
      </trkpt>
      <trkpt lat="39.491905" lon="2.49494833">
        <ele>30.0</ele>
        <time>2022-05-14T11:52:54.332Z</time>
      </trkpt>
      <trkpt lat="39.49189667" lon="2.49492667">
        <ele>30.0</ele>
        <time>2022-05-14T11:52:55.332Z</time>
      </trkpt>
      <trkpt lat="39.49188667" lon="2.49489833">
        <ele>30.0</ele>
        <time>2022-05-14T11:52:56.332Z</time>
      </trkpt>
      <trkpt lat="39.49187333" lon="2.494865">
        <ele>31.0</ele>
        <time>2022-05-14T11:52:57.332Z</time>
      </trkpt>
      <trkpt lat="39.49186167" lon="2.49483667">
        <ele>31.0</ele>
        <time>2022-05-14T11:52:58.332Z</time>
      </trkpt>
      <trkpt lat="39.49185167" lon="2.49481167">
        <ele>31.0</ele>
        <time>2022-05-14T11:52:59.331Z</time>
      </trkpt>
      <trkpt lat="39.491845" lon="2.49479167">
        <ele>31.0</ele>
        <time>2022-05-14T11:53:00.332Z</time>
      </trkpt>
      <trkpt lat="39.491835" lon="2.49476667">
        <ele>31.0</ele>
        <time>2022-05-14T11:53:01.332Z</time>
      </trkpt>
      <trkpt lat="39.49182333" lon="2.49474167">
        <ele>31.0</ele>
        <time>2022-05-14T11:53:02.332Z</time>
      </trkpt>
      <trkpt lat="39.49181167" lon="2.49471667">
        <ele>31.0</ele>
        <time>2022-05-14T11:53:03.332Z</time>
      </trkpt>
      <trkpt lat="39.49180167" lon="2.49469167">
        <ele>32.0</ele>
        <time>2022-05-14T11:53:04.332Z</time>
      </trkpt>
      <trkpt lat="39.49179" lon="2.49466167">
        <ele>32.0</ele>
        <time>2022-05-14T11:53:05.332Z</time>
      </trkpt>
      <trkpt lat="39.49177833" lon="2.49462333">
        <ele>32.0</ele>
        <time>2022-05-14T11:53:06.332Z</time>
      </trkpt>
      <trkpt lat="39.49176667" lon="2.49459167">
        <ele>33.0</ele>
        <time>2022-05-14T11:53:07.331Z</time>
      </trkpt>
      <trkpt lat="39.491755" lon="2.494555">
        <ele>32.0</ele>
        <time>2022-05-14T11:53:08.332Z</time>
      </trkpt>
      <trkpt lat="39.491745" lon="2.49452333">
        <ele>32.0</ele>
        <time>2022-05-14T11:53:09.332Z</time>
      </trkpt>
      <trkpt lat="39.491735" lon="2.49447167">
        <ele>32.0</ele>
        <time>2022-05-14T11:53:10.332Z</time>
      </trkpt>
      <trkpt lat="39.491725" lon="2.494425">
        <ele>31.0</ele>
        <time>2022-05-14T11:53:11.331Z</time>
      </trkpt>
      <trkpt lat="39.491715" lon="2.49437833">
        <ele>31.0</ele>
        <time>2022-05-14T11:53:12.331Z</time>
      </trkpt>
      <trkpt lat="39.49170667" lon="2.49433667">
        <ele>31.0</ele>
        <time>2022-05-14T11:53:13.331Z</time>
      </trkpt>
      <trkpt lat="39.49169333" lon="2.494285">
        <ele>31.0</ele>
        <time>2022-05-14T11:53:14.332Z</time>
      </trkpt>
      <trkpt lat="39.49167833" lon="2.49423167">
        <ele>31.0</ele>
        <time>2022-05-14T11:53:15.332Z</time>
      </trkpt>
      <trkpt lat="39.49166167" lon="2.49417667">
        <ele>31.0</ele>
        <time>2022-05-14T11:53:16.331Z</time>
      </trkpt>
      <trkpt lat="39.49164333" lon="2.49411">
        <ele>31.0</ele>
        <time>2022-05-14T11:53:17.332Z</time>
      </trkpt>
      <trkpt lat="39.49163" lon="2.49406167">
        <ele>31.0</ele>
        <time>2022-05-14T11:53:18.332Z</time>
      </trkpt>
      <trkpt lat="39.49160833" lon="2.493985">
        <ele>31.0</ele>
        <time>2022-05-14T11:53:19.332Z</time>
      </trkpt>
      <trkpt lat="39.49158667" lon="2.49392167">
        <ele>31.0</ele>
        <time>2022-05-14T11:53:20.332Z</time>
      </trkpt>
      <trkpt lat="39.49157167" lon="2.493865">
        <ele>31.0</ele>
        <time>2022-05-14T11:53:21.332Z</time>
      </trkpt>
      <trkpt lat="39.49155333" lon="2.49379667">
        <ele>30.0</ele>
        <time>2022-05-14T11:53:22.332Z</time>
      </trkpt>
      <trkpt lat="39.49153333" lon="2.49372667">
        <ele>30.0</ele>
        <time>2022-05-14T11:53:23.332Z</time>
      </trkpt>
      <trkpt lat="39.49151667" lon="2.49365667">
        <ele>29.0</ele>
        <time>2022-05-14T11:53:24.332Z</time>
      </trkpt>
      <trkpt lat="39.49149667" lon="2.49357">
        <ele>29.0</ele>
        <time>2022-05-14T11:53:25.332Z</time>
      </trkpt>
      <trkpt lat="39.491485" lon="2.49349">
        <ele>29.0</ele>
        <time>2022-05-14T11:53:26.332Z</time>
      </trkpt>
      <trkpt lat="39.491475" lon="2.49342667">
        <ele>29.0</ele>
        <time>2022-05-14T11:53:27.332Z</time>
      </trkpt>
      <trkpt lat="39.49146167" lon="2.49333167">
        <ele>29.0</ele>
        <time>2022-05-14T11:53:28.331Z</time>
      </trkpt>
      <trkpt lat="39.49145333" lon="2.49327">
        <ele>29.0</ele>
        <time>2022-05-14T11:53:29.332Z</time>
      </trkpt>
      <trkpt lat="39.49144333" lon="2.493195">
        <ele>29.0</ele>
        <time>2022-05-14T11:53:30.332Z</time>
      </trkpt>
      <trkpt lat="39.49143167" lon="2.49312167">
        <ele>29.0</ele>
        <time>2022-05-14T11:53:31.331Z</time>
      </trkpt>
      <trkpt lat="39.49142167" lon="2.493035">
        <ele>29.0</ele>
        <time>2022-05-14T11:53:32.331Z</time>
      </trkpt>
      <trkpt lat="39.49141833" lon="2.492965">
        <ele>29.0</ele>
        <time>2022-05-14T11:53:33.332Z</time>
      </trkpt>
      <trkpt lat="39.491415" lon="2.49290167">
        <ele>28.0</ele>
        <time>2022-05-14T11:53:34.331Z</time>
      </trkpt>
      <trkpt lat="39.49141167" lon="2.49285167">
        <ele>28.0</ele>
        <time>2022-05-14T11:53:35.332Z</time>
      </trkpt>
      <trkpt lat="39.49140833" lon="2.49278833">
        <ele>27.0</ele>
        <time>2022-05-14T11:53:36.331Z</time>
      </trkpt>
      <trkpt lat="39.491405" lon="2.49272333">
        <ele>27.0</ele>
        <time>2022-05-14T11:53:37.331Z</time>
      </trkpt>
      <trkpt lat="39.49140167" lon="2.492655">
        <ele>27.0</ele>
        <time>2022-05-14T11:53:38.332Z</time>
      </trkpt>
      <trkpt lat="39.49139333" lon="2.49258667">
        <ele>27.0</ele>
        <time>2022-05-14T11:53:39.332Z</time>
      </trkpt>
      <trkpt lat="39.49138667" lon="2.49252167">
        <ele>27.0</ele>
        <time>2022-05-14T11:53:40.332Z</time>
      </trkpt>
      <trkpt lat="39.491375" lon="2.49244167">
        <ele>27.0</ele>
        <time>2022-05-14T11:53:41.331Z</time>
      </trkpt>
      <trkpt lat="39.49137167" lon="2.49238667">
        <ele>27.0</ele>
        <time>2022-05-14T11:53:42.331Z</time>
      </trkpt>
      <trkpt lat="39.49136333" lon="2.49231">
        <ele>27.0</ele>
        <time>2022-05-14T11:53:43.332Z</time>
      </trkpt>
      <trkpt lat="39.49135333" lon="2.49224167">
        <ele>26.0</ele>
        <time>2022-05-14T11:53:44.331Z</time>
      </trkpt>
      <trkpt lat="39.49134" lon="2.49217">
        <ele>26.0</ele>
        <time>2022-05-14T11:53:45.331Z</time>
      </trkpt>
      <trkpt lat="39.49132333" lon="2.49208333">
        <ele>26.0</ele>
        <time>2022-05-14T11:53:46.332Z</time>
      </trkpt>
      <trkpt lat="39.49131167" lon="2.49200667">
        <ele>26.0</ele>
        <time>2022-05-14T11:53:47.332Z</time>
      </trkpt>
      <trkpt lat="39.49130333" lon="2.49193667">
        <ele>26.0</ele>
        <time>2022-05-14T11:53:48.332Z</time>
      </trkpt>
      <trkpt lat="39.491295" lon="2.49183833">
        <ele>26.0</ele>
        <time>2022-05-14T11:53:49.332Z</time>
      </trkpt>
      <trkpt lat="39.491285" lon="2.49172333">
        <ele>25.0</ele>
        <time>2022-05-14T11:53:50.332Z</time>
      </trkpt>
      <trkpt lat="39.49127667" lon="2.49165">
        <ele>25.0</ele>
        <time>2022-05-14T11:53:51.332Z</time>
      </trkpt>
      <trkpt lat="39.49126667" lon="2.49154">
        <ele>25.0</ele>
        <time>2022-05-14T11:53:52.332Z</time>
      </trkpt>
      <trkpt lat="39.49125833" lon="2.491465">
        <ele>25.0</ele>
        <time>2022-05-14T11:53:53.332Z</time>
      </trkpt>
      <trkpt lat="39.49125" lon="2.49137">
        <ele>25.0</ele>
        <time>2022-05-14T11:53:54.332Z</time>
      </trkpt>
      <trkpt lat="39.49124" lon="2.49127833">
        <ele>25.0</ele>
        <time>2022-05-14T11:53:55.332Z</time>
      </trkpt>
      <trkpt lat="39.491225" lon="2.49117">
        <ele>25.0</ele>
        <time>2022-05-14T11:53:56.332Z</time>
      </trkpt>
      <trkpt lat="39.49121667" lon="2.49109833">
        <ele>25.0</ele>
        <time>2022-05-14T11:53:57.332Z</time>
      </trkpt>
      <trkpt lat="39.49120333" lon="2.49101167">
        <ele>25.0</ele>
        <time>2022-05-14T11:53:58.332Z</time>
      </trkpt>
      <trkpt lat="39.49119333" lon="2.49092833">
        <ele>25.0</ele>
        <time>2022-05-14T11:53:59.332Z</time>
      </trkpt>
      <trkpt lat="39.491185" lon="2.49084167">
        <ele>25.0</ele>
        <time>2022-05-14T11:54:00.332Z</time>
      </trkpt>
      <trkpt lat="39.49117333" lon="2.49075667">
        <ele>24.0</ele>
        <time>2022-05-14T11:54:01.331Z</time>
      </trkpt>
      <trkpt lat="39.49116333" lon="2.49067333">
        <ele>25.0</ele>
        <time>2022-05-14T11:54:02.331Z</time>
      </trkpt>
      <trkpt lat="39.491155" lon="2.49059">
        <ele>25.0</ele>
        <time>2022-05-14T11:54:03.332Z</time>
      </trkpt>
      <trkpt lat="39.49114667" lon="2.49050667">
        <ele>25.0</ele>
        <time>2022-05-14T11:54:04.332Z</time>
      </trkpt>
      <trkpt lat="39.49113667" lon="2.49040833">
        <ele>25.0</ele>
        <time>2022-05-14T11:54:05.332Z</time>
      </trkpt>
      <trkpt lat="39.49112833" lon="2.49034333">
        <ele>24.0</ele>
        <time>2022-05-14T11:54:06.331Z</time>
      </trkpt>
      <trkpt lat="39.49111667" lon="2.49026333">
        <ele>24.0</ele>
        <time>2022-05-14T11:54:07.332Z</time>
      </trkpt>
      <trkpt lat="39.4911" lon="2.490175">
        <ele>24.0</ele>
        <time>2022-05-14T11:54:08.332Z</time>
      </trkpt>
      <trkpt lat="39.49109167" lon="2.490115">
        <ele>23.0</ele>
        <time>2022-05-14T11:54:09.332Z</time>
      </trkpt>
      <trkpt lat="39.49108167" lon="2.49002167">
        <ele>23.0</ele>
        <time>2022-05-14T11:54:10.332Z</time>
      </trkpt>
      <trkpt lat="39.491075" lon="2.48996">
        <ele>23.0</ele>
        <time>2022-05-14T11:54:11.332Z</time>
      </trkpt>
      <trkpt lat="39.49107" lon="2.48988333">
        <ele>23.0</ele>
        <time>2022-05-14T11:54:12.332Z</time>
      </trkpt>
      <trkpt lat="39.491065" lon="2.48981167">
        <ele>24.0</ele>
        <time>2022-05-14T11:54:13.332Z</time>
      </trkpt>
      <trkpt lat="39.49106" lon="2.489725">
        <ele>24.0</ele>
        <time>2022-05-14T11:54:14.332Z</time>
      </trkpt>
      <trkpt lat="39.49105667" lon="2.48967167">
        <ele>24.0</ele>
        <time>2022-05-14T11:54:15.332Z</time>
      </trkpt>
      <trkpt lat="39.49105167" lon="2.48960667">
        <ele>23.0</ele>
        <time>2022-05-14T11:54:16.331Z</time>
      </trkpt>
      <trkpt lat="39.49104167" lon="2.48953">
        <ele>24.0</ele>
        <time>2022-05-14T11:54:17.331Z</time>
      </trkpt>
      <trkpt lat="39.49103667" lon="2.48947833">
        <ele>24.0</ele>
        <time>2022-05-14T11:54:18.332Z</time>
      </trkpt>
      <trkpt lat="39.49102833" lon="2.489405">
        <ele>24.0</ele>
        <time>2022-05-14T11:54:19.332Z</time>
      </trkpt>
      <trkpt lat="39.491025" lon="2.48935833">
        <ele>24.0</ele>
        <time>2022-05-14T11:54:20.332Z</time>
      </trkpt>
      <trkpt lat="39.49101667" lon="2.489295">
        <ele>24.0</ele>
        <time>2022-05-14T11:54:21.332Z</time>
      </trkpt>
      <trkpt lat="39.49101167" lon="2.48923167">
        <ele>24.0</ele>
        <time>2022-05-14T11:54:22.332Z</time>
      </trkpt>
      <trkpt lat="39.49100167" lon="2.48916">
        <ele>24.0</ele>
        <time>2022-05-14T11:54:23.332Z</time>
      </trkpt>
      <trkpt lat="39.49099667" lon="2.489115">
        <ele>24.0</ele>
        <time>2022-05-14T11:54:24.332Z</time>
      </trkpt>
      <trkpt lat="39.49099333" lon="2.48905667">
        <ele>24.0</ele>
        <time>2022-05-14T11:54:25.332Z</time>
      </trkpt>
      <trkpt lat="39.49098833" lon="2.48898333">
        <ele>24.0</ele>
        <time>2022-05-14T11:54:26.332Z</time>
      </trkpt>
      <trkpt lat="39.49098333" lon="2.48893667">
        <ele>25.0</ele>
        <time>2022-05-14T11:54:27.332Z</time>
      </trkpt>
      <trkpt lat="39.49097833" lon="2.48887833">
        <ele>25.0</ele>
        <time>2022-05-14T11:54:28.332Z</time>
      </trkpt>
      <trkpt lat="39.49097" lon="2.48881833">
        <ele>25.0</ele>
        <time>2022-05-14T11:54:29.332Z</time>
      </trkpt>
      <trkpt lat="39.49096167" lon="2.48875833">
        <ele>26.0</ele>
        <time>2022-05-14T11:54:30.332Z</time>
      </trkpt>
      <trkpt lat="39.49094833" lon="2.48868833">
        <ele>26.0</ele>
        <time>2022-05-14T11:54:31.332Z</time>
      </trkpt>
      <trkpt lat="39.49093667" lon="2.48862667">
        <ele>26.0</ele>
        <time>2022-05-14T11:54:32.331Z</time>
      </trkpt>
      <trkpt lat="39.49092667" lon="2.48857667">
        <ele>26.0</ele>
        <time>2022-05-14T11:54:33.331Z</time>
      </trkpt>
      <trkpt lat="39.49091667" lon="2.48851333">
        <ele>25.0</ele>
        <time>2022-05-14T11:54:34.331Z</time>
      </trkpt>
      <trkpt lat="39.49091" lon="2.48845167">
        <ele>25.0</ele>
        <time>2022-05-14T11:54:35.332Z</time>
      </trkpt>
      <trkpt lat="39.49090667" lon="2.48839167">
        <ele>25.0</ele>
        <time>2022-05-14T11:54:36.332Z</time>
      </trkpt>
      <trkpt lat="39.49090333" lon="2.48832167">
        <ele>25.0</ele>
        <time>2022-05-14T11:54:37.332Z</time>
      </trkpt>
      <trkpt lat="39.4909" lon="2.488275">
        <ele>25.0</ele>
        <time>2022-05-14T11:54:38.332Z</time>
      </trkpt>
      <trkpt lat="39.49089833" lon="2.48821667">
        <ele>25.0</ele>
        <time>2022-05-14T11:54:39.332Z</time>
      </trkpt>
      <trkpt lat="39.49089167" lon="2.48814833">
        <ele>25.0</ele>
        <time>2022-05-14T11:54:40.331Z</time>
      </trkpt>
      <trkpt lat="39.49088667" lon="2.48809167">
        <ele>25.0</ele>
        <time>2022-05-14T11:54:41.331Z</time>
      </trkpt>
      <trkpt lat="39.49088167" lon="2.48805">
        <ele>25.0</ele>
        <time>2022-05-14T11:54:42.332Z</time>
      </trkpt>
      <trkpt lat="39.490875" lon="2.48799833">
        <ele>25.0</ele>
        <time>2022-05-14T11:54:43.332Z</time>
      </trkpt>
      <trkpt lat="39.49086833" lon="2.48794833">
        <ele>25.0</ele>
        <time>2022-05-14T11:54:44.332Z</time>
      </trkpt>
      <trkpt lat="39.49086333" lon="2.487895">
        <ele>25.0</ele>
        <time>2022-05-14T11:54:45.332Z</time>
      </trkpt>
      <trkpt lat="39.49085833" lon="2.48783167">
        <ele>25.0</ele>
        <time>2022-05-14T11:54:46.332Z</time>
      </trkpt>
      <trkpt lat="39.490855" lon="2.48779">
        <ele>25.0</ele>
        <time>2022-05-14T11:54:47.332Z</time>
      </trkpt>
      <trkpt lat="39.49085" lon="2.48774">
        <ele>25.0</ele>
        <time>2022-05-14T11:54:48.332Z</time>
      </trkpt>
      <trkpt lat="39.49084333" lon="2.48768167">
        <ele>25.0</ele>
        <time>2022-05-14T11:54:49.332Z</time>
      </trkpt>
      <trkpt lat="39.49083833" lon="2.48764667">
        <ele>25.0</ele>
        <time>2022-05-14T11:54:50.332Z</time>
      </trkpt>
      <trkpt lat="39.49083" lon="2.48760167">
        <ele>25.0</ele>
        <time>2022-05-14T11:54:51.332Z</time>
      </trkpt>
      <trkpt lat="39.490825" lon="2.487555">
        <ele>25.0</ele>
        <time>2022-05-14T11:54:52.332Z</time>
      </trkpt>
      <trkpt lat="39.49082" lon="2.48751">
        <ele>25.0</ele>
        <time>2022-05-14T11:54:53.332Z</time>
      </trkpt>
      <trkpt lat="39.490815" lon="2.48747">
        <ele>25.0</ele>
        <time>2022-05-14T11:54:54.332Z</time>
      </trkpt>
      <trkpt lat="39.49081167" lon="2.48743167">
        <ele>25.0</ele>
        <time>2022-05-14T11:54:55.332Z</time>
      </trkpt>
      <trkpt lat="39.490805" lon="2.48739667">
        <ele>25.0</ele>
        <time>2022-05-14T11:54:56.332Z</time>
      </trkpt>
      <trkpt lat="39.490795" lon="2.48735833">
        <ele>25.0</ele>
        <time>2022-05-14T11:54:57.332Z</time>
      </trkpt>
      <trkpt lat="39.49078333" lon="2.48731167">
        <ele>25.0</ele>
        <time>2022-05-14T11:54:58.332Z</time>
      </trkpt>
      <trkpt lat="39.49078" lon="2.48728">
        <ele>25.0</ele>
        <time>2022-05-14T11:54:59.332Z</time>
      </trkpt>
      <trkpt lat="39.49077333" lon="2.48723667">
        <ele>25.0</ele>
        <time>2022-05-14T11:55:00.332Z</time>
      </trkpt>
      <trkpt lat="39.49077" lon="2.487195">
        <ele>25.0</ele>
        <time>2022-05-14T11:55:01.331Z</time>
      </trkpt>
      <trkpt lat="39.49076667" lon="2.48714667">
        <ele>26.0</ele>
        <time>2022-05-14T11:55:02.332Z</time>
      </trkpt>
      <trkpt lat="39.49076333" lon="2.4871">
        <ele>26.0</ele>
        <time>2022-05-14T11:55:03.332Z</time>
      </trkpt>
      <trkpt lat="39.49076" lon="2.487055">
        <ele>26.0</ele>
        <time>2022-05-14T11:55:04.332Z</time>
      </trkpt>
      <trkpt lat="39.490755" lon="2.48700833">
        <ele>26.0</ele>
        <time>2022-05-14T11:55:05.332Z</time>
      </trkpt>
      <trkpt lat="39.49075" lon="2.48696167">
        <ele>26.0</ele>
        <time>2022-05-14T11:55:06.332Z</time>
      </trkpt>
      <trkpt lat="39.490745" lon="2.48691333">
        <ele>26.0</ele>
        <time>2022-05-14T11:55:07.332Z</time>
      </trkpt>
      <trkpt lat="39.49073833" lon="2.48686667">
        <ele>25.0</ele>
        <time>2022-05-14T11:55:08.332Z</time>
      </trkpt>
      <trkpt lat="39.49073333" lon="2.48682833">
        <ele>26.0</ele>
        <time>2022-05-14T11:55:09.332Z</time>
      </trkpt>
      <trkpt lat="39.49072833" lon="2.48678">
        <ele>25.0</ele>
        <time>2022-05-14T11:55:10.332Z</time>
      </trkpt>
      <trkpt lat="39.490725" lon="2.48673167">
        <ele>26.0</ele>
        <time>2022-05-14T11:55:11.332Z</time>
      </trkpt>
      <trkpt lat="39.49072333" lon="2.48667833">
        <ele>26.0</ele>
        <time>2022-05-14T11:55:12.331Z</time>
      </trkpt>
      <trkpt lat="39.49072333" lon="2.48662">
        <ele>26.0</ele>
        <time>2022-05-14T11:55:13.332Z</time>
      </trkpt>
      <trkpt lat="39.49072333" lon="2.48657833">
        <ele>26.0</ele>
        <time>2022-05-14T11:55:14.332Z</time>
      </trkpt>
      <trkpt lat="39.49072" lon="2.48653167">
        <ele>26.0</ele>
        <time>2022-05-14T11:55:15.332Z</time>
      </trkpt>
      <trkpt lat="39.49071667" lon="2.48647667">
        <ele>26.0</ele>
        <time>2022-05-14T11:55:16.331Z</time>
      </trkpt>
      <trkpt lat="39.49071333" lon="2.48644">
        <ele>26.0</ele>
        <time>2022-05-14T11:55:17.331Z</time>
      </trkpt>
      <trkpt lat="39.49070833" lon="2.486395">
        <ele>26.0</ele>
        <time>2022-05-14T11:55:18.331Z</time>
      </trkpt>
      <trkpt lat="39.49070333" lon="2.48635">
        <ele>25.0</ele>
        <time>2022-05-14T11:55:19.331Z</time>
      </trkpt>
      <trkpt lat="39.49069833" lon="2.486305">
        <ele>25.0</ele>
        <time>2022-05-14T11:55:20.332Z</time>
      </trkpt>
      <trkpt lat="39.490695" lon="2.48625333">
        <ele>25.0</ele>
        <time>2022-05-14T11:55:21.332Z</time>
      </trkpt>
      <trkpt lat="39.49068833" lon="2.48621167">
        <ele>26.0</ele>
        <time>2022-05-14T11:55:22.332Z</time>
      </trkpt>
      <trkpt lat="39.490685" lon="2.48617833">
        <ele>26.0</ele>
        <time>2022-05-14T11:55:23.332Z</time>
      </trkpt>
      <trkpt lat="39.49068167" lon="2.48613667">
        <ele>26.0</ele>
        <time>2022-05-14T11:55:24.332Z</time>
      </trkpt>
      <trkpt lat="39.49067333" lon="2.48609667">
        <ele>27.0</ele>
        <time>2022-05-14T11:55:25.332Z</time>
      </trkpt>
      <trkpt lat="39.49067" lon="2.48605833">
        <ele>27.0</ele>
        <time>2022-05-14T11:55:26.332Z</time>
      </trkpt>
      <trkpt lat="39.49066833" lon="2.48602167">
        <ele>26.0</ele>
        <time>2022-05-14T11:55:27.332Z</time>
      </trkpt>
      <trkpt lat="39.490665" lon="2.48598167">
        <ele>26.0</ele>
        <time>2022-05-14T11:55:28.332Z</time>
      </trkpt>
      <trkpt lat="39.49066167" lon="2.485945">
        <ele>26.0</ele>
        <time>2022-05-14T11:55:29.332Z</time>
      </trkpt>
      <trkpt lat="39.49065667" lon="2.48589833">
        <ele>27.0</ele>
        <time>2022-05-14T11:55:30.332Z</time>
      </trkpt>
      <trkpt lat="39.49065167" lon="2.48585667">
        <ele>27.0</ele>
        <time>2022-05-14T11:55:31.332Z</time>
      </trkpt>
      <trkpt lat="39.49064833" lon="2.485825">
        <ele>26.0</ele>
        <time>2022-05-14T11:55:32.332Z</time>
      </trkpt>
      <trkpt lat="39.490645" lon="2.48577667">
        <ele>26.0</ele>
        <time>2022-05-14T11:55:33.332Z</time>
      </trkpt>
      <trkpt lat="39.49064167" lon="2.48574333">
        <ele>26.0</ele>
        <time>2022-05-14T11:55:34.332Z</time>
      </trkpt>
      <trkpt lat="39.49063833" lon="2.48570167">
        <ele>26.0</ele>
        <time>2022-05-14T11:55:35.332Z</time>
      </trkpt>
      <trkpt lat="39.49063667" lon="2.485655">
        <ele>27.0</ele>
        <time>2022-05-14T11:55:36.332Z</time>
      </trkpt>
      <trkpt lat="39.49063" lon="2.48560833">
        <ele>27.0</ele>
        <time>2022-05-14T11:55:37.332Z</time>
      </trkpt>
      <trkpt lat="39.49062167" lon="2.48556">
        <ele>27.0</ele>
        <time>2022-05-14T11:55:38.332Z</time>
      </trkpt>
      <trkpt lat="39.49061333" lon="2.485505">
        <ele>28.0</ele>
        <time>2022-05-14T11:55:39.332Z</time>
      </trkpt>
      <trkpt lat="39.49061" lon="2.48546333">
        <ele>28.0</ele>
        <time>2022-05-14T11:55:40.332Z</time>
      </trkpt>
      <trkpt lat="39.490605" lon="2.48541667">
        <ele>28.0</ele>
        <time>2022-05-14T11:55:41.332Z</time>
      </trkpt>
      <trkpt lat="39.49060167" lon="2.48535667">
        <ele>28.0</ele>
        <time>2022-05-14T11:55:42.332Z</time>
      </trkpt>
      <trkpt lat="39.49059667" lon="2.48530667">
        <ele>28.0</ele>
        <time>2022-05-14T11:55:43.332Z</time>
      </trkpt>
      <trkpt lat="39.49059" lon="2.48526667">
        <ele>29.0</ele>
        <time>2022-05-14T11:55:44.332Z</time>
      </trkpt>
      <trkpt lat="39.49058667" lon="2.485215">
        <ele>29.0</ele>
        <time>2022-05-14T11:55:45.332Z</time>
      </trkpt>
      <trkpt lat="39.490585" lon="2.485165">
        <ele>30.0</ele>
        <time>2022-05-14T11:55:46.331Z</time>
      </trkpt>
      <trkpt lat="39.49058667" lon="2.48511667">
        <ele>29.0</ele>
        <time>2022-05-14T11:55:47.332Z</time>
      </trkpt>
      <trkpt lat="39.490595" lon="2.48506667">
        <ele>29.0</ele>
        <time>2022-05-14T11:55:48.332Z</time>
      </trkpt>
      <trkpt lat="39.490605" lon="2.48501667">
        <ele>28.0</ele>
        <time>2022-05-14T11:55:49.332Z</time>
      </trkpt>
      <trkpt lat="39.490615" lon="2.48496833">
        <ele>29.0</ele>
        <time>2022-05-14T11:55:50.332Z</time>
      </trkpt>
      <trkpt lat="39.49063167" lon="2.48491333">
        <ele>29.0</ele>
        <time>2022-05-14T11:55:51.332Z</time>
      </trkpt>
      <trkpt lat="39.49064333" lon="2.48487833">
        <ele>29.0</ele>
        <time>2022-05-14T11:55:52.332Z</time>
      </trkpt>
      <trkpt lat="39.49065667" lon="2.48483833">
        <ele>29.0</ele>
        <time>2022-05-14T11:55:53.332Z</time>
      </trkpt>
      <trkpt lat="39.490675" lon="2.484795">
        <ele>29.0</ele>
        <time>2022-05-14T11:55:54.332Z</time>
      </trkpt>
      <trkpt lat="39.4907" lon="2.48474333">
        <ele>28.0</ele>
        <time>2022-05-14T11:55:55.332Z</time>
      </trkpt>
      <trkpt lat="39.49071333" lon="2.48470667">
        <ele>28.0</ele>
        <time>2022-05-14T11:55:56.332Z</time>
      </trkpt>
      <trkpt lat="39.49073" lon="2.48466">
        <ele>28.0</ele>
        <time>2022-05-14T11:55:57.332Z</time>
      </trkpt>
      <trkpt lat="39.49074833" lon="2.48461">
        <ele>29.0</ele>
        <time>2022-05-14T11:55:58.332Z</time>
      </trkpt>
      <trkpt lat="39.49076167" lon="2.48456167">
        <ele>29.0</ele>
        <time>2022-05-14T11:55:59.332Z</time>
      </trkpt>
      <trkpt lat="39.49077667" lon="2.484505">
        <ele>29.0</ele>
        <time>2022-05-14T11:56:00.332Z</time>
      </trkpt>
      <trkpt lat="39.49078667" lon="2.484465">
        <ele>29.0</ele>
        <time>2022-05-14T11:56:01.332Z</time>
      </trkpt>
      <trkpt lat="39.4908" lon="2.484415">
        <ele>29.0</ele>
        <time>2022-05-14T11:56:02.332Z</time>
      </trkpt>
      <trkpt lat="39.49081167" lon="2.484365">
        <ele>28.0</ele>
        <time>2022-05-14T11:56:03.332Z</time>
      </trkpt>
      <trkpt lat="39.49083" lon="2.48430333">
        <ele>28.0</ele>
        <time>2022-05-14T11:56:04.332Z</time>
      </trkpt>
      <trkpt lat="39.49084167" lon="2.48426">
        <ele>28.0</ele>
        <time>2022-05-14T11:56:05.332Z</time>
      </trkpt>
      <trkpt lat="39.49085833" lon="2.48419833">
        <ele>28.0</ele>
        <time>2022-05-14T11:56:06.331Z</time>
      </trkpt>
      <trkpt lat="39.49087" lon="2.48415667">
        <ele>28.0</ele>
        <time>2022-05-14T11:56:07.332Z</time>
      </trkpt>
      <trkpt lat="39.49088833" lon="2.484105">
        <ele>28.0</ele>
        <time>2022-05-14T11:56:08.332Z</time>
      </trkpt>
      <trkpt lat="39.49091" lon="2.484045">
        <ele>28.0</ele>
        <time>2022-05-14T11:56:09.332Z</time>
      </trkpt>
      <trkpt lat="39.49092667" lon="2.48399333">
        <ele>28.0</ele>
        <time>2022-05-14T11:56:10.331Z</time>
      </trkpt>
      <trkpt lat="39.49094167" lon="2.48395333">
        <ele>28.0</ele>
        <time>2022-05-14T11:56:11.332Z</time>
      </trkpt>
      <trkpt lat="39.490955" lon="2.48390167">
        <ele>28.0</ele>
        <time>2022-05-14T11:56:12.332Z</time>
      </trkpt>
      <trkpt lat="39.49097167" lon="2.48385167">
        <ele>28.0</ele>
        <time>2022-05-14T11:56:13.332Z</time>
      </trkpt>
      <trkpt lat="39.49098667" lon="2.4838">
        <ele>28.0</ele>
        <time>2022-05-14T11:56:14.332Z</time>
      </trkpt>
      <trkpt lat="39.490995" lon="2.48374333">
        <ele>28.0</ele>
        <time>2022-05-14T11:56:15.332Z</time>
      </trkpt>
      <trkpt lat="39.49099333" lon="2.48370833">
        <ele>27.0</ele>
        <time>2022-05-14T11:56:16.331Z</time>
      </trkpt>
      <trkpt lat="39.49098333" lon="2.483675">
        <ele>27.0</ele>
        <time>2022-05-14T11:56:17.332Z</time>
      </trkpt>
      <trkpt lat="39.49096333" lon="2.48364333">
        <ele>27.0</ele>
        <time>2022-05-14T11:56:18.332Z</time>
      </trkpt>
      <trkpt lat="39.49094" lon="2.48362167">
        <ele>27.0</ele>
        <time>2022-05-14T11:56:19.332Z</time>
      </trkpt>
      <trkpt lat="39.49091833" lon="2.483605">
        <ele>27.0</ele>
        <time>2022-05-14T11:56:20.332Z</time>
      </trkpt>
      <trkpt lat="39.49089833" lon="2.48357667">
        <ele>27.0</ele>
        <time>2022-05-14T11:56:21.332Z</time>
      </trkpt>
      <trkpt lat="39.49088833" lon="2.48353833">
        <ele>27.0</ele>
        <time>2022-05-14T11:56:22.332Z</time>
      </trkpt>
      <trkpt lat="39.49089167" lon="2.48351333">
        <ele>28.0</ele>
        <time>2022-05-14T11:56:23.332Z</time>
      </trkpt>
      <trkpt lat="39.49090667" lon="2.48348167">
        <ele>28.0</ele>
        <time>2022-05-14T11:56:24.332Z</time>
      </trkpt>
      <trkpt lat="39.490925" lon="2.48344833">
        <ele>28.0</ele>
        <time>2022-05-14T11:56:25.332Z</time>
      </trkpt>
      <trkpt lat="39.49094333" lon="2.48341">
        <ele>28.0</ele>
        <time>2022-05-14T11:56:26.332Z</time>
      </trkpt>
      <trkpt lat="39.49096833" lon="2.483365">
        <ele>27.0</ele>
        <time>2022-05-14T11:56:27.332Z</time>
      </trkpt>
      <trkpt lat="39.49098667" lon="2.48333333">
        <ele>27.0</ele>
        <time>2022-05-14T11:56:28.332Z</time>
      </trkpt>
      <trkpt lat="39.49101167" lon="2.483295">
        <ele>27.0</ele>
        <time>2022-05-14T11:56:29.332Z</time>
      </trkpt>
      <trkpt lat="39.49103333" lon="2.48325667">
        <ele>28.0</ele>
        <time>2022-05-14T11:56:30.332Z</time>
      </trkpt>
      <trkpt lat="39.49105667" lon="2.48321833">
        <ele>28.0</ele>
        <time>2022-05-14T11:56:31.332Z</time>
      </trkpt>
      <trkpt lat="39.49107833" lon="2.483175">
        <ele>28.0</ele>
        <time>2022-05-14T11:56:32.332Z</time>
      </trkpt>
      <trkpt lat="39.49110833" lon="2.483125">
        <ele>28.0</ele>
        <time>2022-05-14T11:56:33.332Z</time>
      </trkpt>
      <trkpt lat="39.49112833" lon="2.48309333">
        <ele>28.0</ele>
        <time>2022-05-14T11:56:34.331Z</time>
      </trkpt>
      <trkpt lat="39.49115333" lon="2.48305333">
        <ele>28.0</ele>
        <time>2022-05-14T11:56:35.332Z</time>
      </trkpt>
      <trkpt lat="39.49118333" lon="2.48300167">
        <ele>28.0</ele>
        <time>2022-05-14T11:56:36.332Z</time>
      </trkpt>
      <trkpt lat="39.491205" lon="2.482965">
        <ele>28.0</ele>
        <time>2022-05-14T11:56:37.332Z</time>
      </trkpt>
      <trkpt lat="39.49123167" lon="2.48291833">
        <ele>28.0</ele>
        <time>2022-05-14T11:56:38.332Z</time>
      </trkpt>
      <trkpt lat="39.49125833" lon="2.48287667">
        <ele>28.0</ele>
        <time>2022-05-14T11:56:39.332Z</time>
      </trkpt>
      <trkpt lat="39.49128333" lon="2.48282667">
        <ele>28.0</ele>
        <time>2022-05-14T11:56:40.332Z</time>
      </trkpt>
      <trkpt lat="39.49130167" lon="2.48277833">
        <ele>28.0</ele>
        <time>2022-05-14T11:56:41.332Z</time>
      </trkpt>
      <trkpt lat="39.491315" lon="2.482735">
        <ele>28.0</ele>
        <time>2022-05-14T11:56:42.332Z</time>
      </trkpt>
      <trkpt lat="39.49133333" lon="2.48268167">
        <ele>27.0</ele>
        <time>2022-05-14T11:56:43.332Z</time>
      </trkpt>
      <trkpt lat="39.491355" lon="2.48263">
        <ele>27.0</ele>
        <time>2022-05-14T11:56:44.332Z</time>
      </trkpt>
      <trkpt lat="39.49137333" lon="2.48258167">
        <ele>27.0</ele>
        <time>2022-05-14T11:56:45.332Z</time>
      </trkpt>
      <trkpt lat="39.49139667" lon="2.48252667">
        <ele>27.0</ele>
        <time>2022-05-14T11:56:46.331Z</time>
      </trkpt>
      <trkpt lat="39.49141667" lon="2.48248833">
        <ele>27.0</ele>
        <time>2022-05-14T11:56:47.332Z</time>
      </trkpt>
      <trkpt lat="39.49144167" lon="2.482445">
        <ele>27.0</ele>
        <time>2022-05-14T11:56:48.331Z</time>
      </trkpt>
      <trkpt lat="39.49147667" lon="2.482395">
        <ele>27.0</ele>
        <time>2022-05-14T11:56:49.332Z</time>
      </trkpt>
      <trkpt lat="39.491505" lon="2.48236833">
        <ele>28.0</ele>
        <time>2022-05-14T11:56:50.332Z</time>
      </trkpt>
      <trkpt lat="39.491535" lon="2.48233">
        <ele>28.0</ele>
        <time>2022-05-14T11:56:51.332Z</time>
      </trkpt>
      <trkpt lat="39.49156" lon="2.48228833">
        <ele>28.0</ele>
        <time>2022-05-14T11:56:52.332Z</time>
      </trkpt>
      <trkpt lat="39.491585" lon="2.48225667">
        <ele>28.0</ele>
        <time>2022-05-14T11:56:53.332Z</time>
      </trkpt>
      <trkpt lat="39.49160667" lon="2.48222333">
        <ele>28.0</ele>
        <time>2022-05-14T11:56:54.332Z</time>
      </trkpt>
      <trkpt lat="39.491625" lon="2.48217833">
        <ele>29.0</ele>
        <time>2022-05-14T11:56:55.332Z</time>
      </trkpt>
      <trkpt lat="39.49163333" lon="2.48214167">
        <ele>29.0</ele>
        <time>2022-05-14T11:56:56.332Z</time>
      </trkpt>
      <trkpt lat="39.49164667" lon="2.48210333">
        <ele>29.0</ele>
        <time>2022-05-14T11:56:57.332Z</time>
      </trkpt>
      <trkpt lat="39.491665" lon="2.48205667">
        <ele>29.0</ele>
        <time>2022-05-14T11:56:58.332Z</time>
      </trkpt>
      <trkpt lat="39.49168" lon="2.48202833">
        <ele>29.0</ele>
        <time>2022-05-14T11:56:59.332Z</time>
      </trkpt>
      <trkpt lat="39.49170167" lon="2.481995">
        <ele>29.0</ele>
        <time>2022-05-14T11:57:00.332Z</time>
      </trkpt>
      <trkpt lat="39.491725" lon="2.481965">
        <ele>29.0</ele>
        <time>2022-05-14T11:57:01.332Z</time>
      </trkpt>
      <trkpt lat="39.49175" lon="2.48193833">
        <ele>29.0</ele>
        <time>2022-05-14T11:57:02.332Z</time>
      </trkpt>
      <trkpt lat="39.49177333" lon="2.48191">
        <ele>29.0</ele>
        <time>2022-05-14T11:57:03.332Z</time>
      </trkpt>
      <trkpt lat="39.491795" lon="2.48187">
        <ele>29.0</ele>
        <time>2022-05-14T11:57:04.332Z</time>
      </trkpt>
      <trkpt lat="39.491805" lon="2.48184167">
        <ele>28.0</ele>
        <time>2022-05-14T11:57:05.332Z</time>
      </trkpt>
      <trkpt lat="39.49182333" lon="2.48180667">
        <ele>28.0</ele>
        <time>2022-05-14T11:57:06.331Z</time>
      </trkpt>
      <trkpt lat="39.49184" lon="2.48176667">
        <ele>28.0</ele>
        <time>2022-05-14T11:57:07.331Z</time>
      </trkpt>
      <trkpt lat="39.49186167" lon="2.48172167">
        <ele>28.0</ele>
        <time>2022-05-14T11:57:08.332Z</time>
      </trkpt>
      <trkpt lat="39.491885" lon="2.48167667">
        <ele>28.0</ele>
        <time>2022-05-14T11:57:09.331Z</time>
      </trkpt>
      <trkpt lat="39.49191167" lon="2.48163333">
        <ele>27.0</ele>
        <time>2022-05-14T11:57:10.332Z</time>
      </trkpt>
      <trkpt lat="39.49194167" lon="2.48158">
        <ele>27.0</ele>
        <time>2022-05-14T11:57:11.332Z</time>
      </trkpt>
      <trkpt lat="39.49195667" lon="2.481545">
        <ele>27.0</ele>
        <time>2022-05-14T11:57:12.332Z</time>
      </trkpt>
      <trkpt lat="39.49197667" lon="2.48149833">
        <ele>28.0</ele>
        <time>2022-05-14T11:57:13.332Z</time>
      </trkpt>
      <trkpt lat="39.49199833" lon="2.48145333">
        <ele>28.0</ele>
        <time>2022-05-14T11:57:14.332Z</time>
      </trkpt>
      <trkpt lat="39.49202167" lon="2.48140667">
        <ele>28.0</ele>
        <time>2022-05-14T11:57:15.332Z</time>
      </trkpt>
      <trkpt lat="39.49204667" lon="2.48134833">
        <ele>27.0</ele>
        <time>2022-05-14T11:57:16.332Z</time>
      </trkpt>
      <trkpt lat="39.49205833" lon="2.48130833">
        <ele>27.0</ele>
        <time>2022-05-14T11:57:17.332Z</time>
      </trkpt>
      <trkpt lat="39.49207" lon="2.481255">
        <ele>27.0</ele>
        <time>2022-05-14T11:57:18.332Z</time>
      </trkpt>
      <trkpt lat="39.49206833" lon="2.481205">
        <ele>27.0</ele>
        <time>2022-05-14T11:57:19.332Z</time>
      </trkpt>
      <trkpt lat="39.49205" lon="2.48115333">
        <ele>27.0</ele>
        <time>2022-05-14T11:57:20.331Z</time>
      </trkpt>
      <trkpt lat="39.49202667" lon="2.48113">
        <ele>27.0</ele>
        <time>2022-05-14T11:57:21.331Z</time>
      </trkpt>
      <trkpt lat="39.49198833" lon="2.48110667">
        <ele>26.0</ele>
        <time>2022-05-14T11:57:22.331Z</time>
      </trkpt>
      <trkpt lat="39.491955" lon="2.48109833">
        <ele>26.0</ele>
        <time>2022-05-14T11:57:23.332Z</time>
      </trkpt>
      <trkpt lat="39.49191333" lon="2.48108667">
        <ele>26.0</ele>
        <time>2022-05-14T11:57:24.332Z</time>
      </trkpt>
      <trkpt lat="39.491875" lon="2.48108">
        <ele>26.0</ele>
        <time>2022-05-14T11:57:25.332Z</time>
      </trkpt>
      <trkpt lat="39.491815" lon="2.481075">
        <ele>26.0</ele>
        <time>2022-05-14T11:57:26.331Z</time>
      </trkpt>
      <trkpt lat="39.49177667" lon="2.48107333">
        <ele>27.0</ele>
        <time>2022-05-14T11:57:27.332Z</time>
      </trkpt>
      <trkpt lat="39.49173333" lon="2.48107167">
        <ele>27.0</ele>
        <time>2022-05-14T11:57:28.332Z</time>
      </trkpt>
      <trkpt lat="39.49168833" lon="2.48106833">
        <ele>26.0</ele>
        <time>2022-05-14T11:57:29.332Z</time>
      </trkpt>
      <trkpt lat="39.49165667" lon="2.481065">
        <ele>26.0</ele>
        <time>2022-05-14T11:57:30.332Z</time>
      </trkpt>
      <trkpt lat="39.49160667" lon="2.48106">
        <ele>26.0</ele>
        <time>2022-05-14T11:57:31.332Z</time>
      </trkpt>
      <trkpt lat="39.49157333" lon="2.48106167">
        <ele>26.0</ele>
        <time>2022-05-14T11:57:32.332Z</time>
      </trkpt>
      <trkpt lat="39.49153333" lon="2.48105667">
        <ele>26.0</ele>
        <time>2022-05-14T11:57:33.331Z</time>
      </trkpt>
      <trkpt lat="39.49149333" lon="2.48105667">
        <ele>26.0</ele>
        <time>2022-05-14T11:57:34.332Z</time>
      </trkpt>
      <trkpt lat="39.49145667" lon="2.481055">
        <ele>26.0</ele>
        <time>2022-05-14T11:57:35.331Z</time>
      </trkpt>
      <trkpt lat="39.49141833" lon="2.48105667">
        <ele>27.0</ele>
        <time>2022-05-14T11:57:36.331Z</time>
      </trkpt>
      <trkpt lat="39.49138167" lon="2.481055">
        <ele>26.0</ele>
        <time>2022-05-14T11:57:37.332Z</time>
      </trkpt>
      <trkpt lat="39.491335" lon="2.48105333">
        <ele>26.0</ele>
        <time>2022-05-14T11:57:38.332Z</time>
      </trkpt>
      <trkpt lat="39.491305" lon="2.48105167">
        <ele>26.0</ele>
        <time>2022-05-14T11:57:39.332Z</time>
      </trkpt>
      <trkpt lat="39.49126" lon="2.48104667">
        <ele>26.0</ele>
        <time>2022-05-14T11:57:40.332Z</time>
      </trkpt>
      <trkpt lat="39.49122833" lon="2.48104333">
        <ele>26.0</ele>
        <time>2022-05-14T11:57:41.332Z</time>
      </trkpt>
      <trkpt lat="39.49119" lon="2.48103667">
        <ele>26.0</ele>
        <time>2022-05-14T11:57:42.332Z</time>
      </trkpt>
      <trkpt lat="39.49115" lon="2.48103333">
        <ele>26.0</ele>
        <time>2022-05-14T11:57:43.332Z</time>
      </trkpt>
      <trkpt lat="39.49110167" lon="2.48103167">
        <ele>26.0</ele>
        <time>2022-05-14T11:57:44.332Z</time>
      </trkpt>
      <trkpt lat="39.49107" lon="2.48103167">
        <ele>26.0</ele>
        <time>2022-05-14T11:57:45.332Z</time>
      </trkpt>
      <trkpt lat="39.49102833" lon="2.48103167">
        <ele>27.0</ele>
        <time>2022-05-14T11:57:46.332Z</time>
      </trkpt>
      <trkpt lat="39.49098" lon="2.48102833">
        <ele>27.0</ele>
        <time>2022-05-14T11:57:47.332Z</time>
      </trkpt>
      <trkpt lat="39.49094833" lon="2.48102667">
        <ele>27.0</ele>
        <time>2022-05-14T11:57:48.332Z</time>
      </trkpt>
      <trkpt lat="39.49090167" lon="2.48102167">
        <ele>27.0</ele>
        <time>2022-05-14T11:57:49.332Z</time>
      </trkpt>
      <trkpt lat="39.49087167" lon="2.48101667">
        <ele>26.0</ele>
        <time>2022-05-14T11:57:50.331Z</time>
      </trkpt>
      <trkpt lat="39.49083333" lon="2.481015">
        <ele>26.0</ele>
        <time>2022-05-14T11:57:51.332Z</time>
      </trkpt>
      <trkpt lat="39.490795" lon="2.48101">
        <ele>26.0</ele>
        <time>2022-05-14T11:57:52.332Z</time>
      </trkpt>
      <trkpt lat="39.49076" lon="2.48100333">
        <ele>26.0</ele>
        <time>2022-05-14T11:57:53.332Z</time>
      </trkpt>
      <trkpt lat="39.49072333" lon="2.48100167">
        <ele>26.0</ele>
        <time>2022-05-14T11:57:54.332Z</time>
      </trkpt>
      <trkpt lat="39.49068667" lon="2.481">
        <ele>25.0</ele>
        <time>2022-05-14T11:57:55.332Z</time>
      </trkpt>
      <trkpt lat="39.49065" lon="2.48099667">
        <ele>25.0</ele>
        <time>2022-05-14T11:57:56.332Z</time>
      </trkpt>
      <trkpt lat="39.49061" lon="2.480995">
        <ele>24.0</ele>
        <time>2022-05-14T11:57:57.332Z</time>
      </trkpt>
      <trkpt lat="39.49056667" lon="2.48099333">
        <ele>24.0</ele>
        <time>2022-05-14T11:57:58.331Z</time>
      </trkpt>
      <trkpt lat="39.49053667" lon="2.48099167">
        <ele>24.0</ele>
        <time>2022-05-14T11:57:59.332Z</time>
      </trkpt>
      <trkpt lat="39.49050167" lon="2.48098833">
        <ele>24.0</ele>
        <time>2022-05-14T11:58:00.331Z</time>
      </trkpt>
      <trkpt lat="39.490455" lon="2.48098667">
        <ele>25.0</ele>
        <time>2022-05-14T11:58:01.332Z</time>
      </trkpt>
      <trkpt lat="39.490425" lon="2.48098333">
        <ele>25.0</ele>
        <time>2022-05-14T11:58:02.332Z</time>
      </trkpt>
      <trkpt lat="39.49038833" lon="2.48098333">
        <ele>25.0</ele>
        <time>2022-05-14T11:58:03.332Z</time>
      </trkpt>
      <trkpt lat="39.49035" lon="2.48098333">
        <ele>25.0</ele>
        <time>2022-05-14T11:58:04.332Z</time>
      </trkpt>
      <trkpt lat="39.49031167" lon="2.48098167">
        <ele>26.0</ele>
        <time>2022-05-14T11:58:05.332Z</time>
      </trkpt>
      <trkpt lat="39.490275" lon="2.48098167">
        <ele>26.0</ele>
        <time>2022-05-14T11:58:06.332Z</time>
      </trkpt>
      <trkpt lat="39.49023333" lon="2.48098">
        <ele>27.0</ele>
        <time>2022-05-14T11:58:07.332Z</time>
      </trkpt>
      <trkpt lat="39.490205" lon="2.48098">
        <ele>27.0</ele>
        <time>2022-05-14T11:58:08.332Z</time>
      </trkpt>
      <trkpt lat="39.49016833" lon="2.48097667">
        <ele>27.0</ele>
        <time>2022-05-14T11:58:09.332Z</time>
      </trkpt>
      <trkpt lat="39.49013" lon="2.480975">
        <ele>28.0</ele>
        <time>2022-05-14T11:58:10.332Z</time>
      </trkpt>
      <trkpt lat="39.49008667" lon="2.48097333">
        <ele>28.0</ele>
        <time>2022-05-14T11:58:11.332Z</time>
      </trkpt>
      <trkpt lat="39.49005667" lon="2.48097">
        <ele>28.0</ele>
        <time>2022-05-14T11:58:12.332Z</time>
      </trkpt>
      <trkpt lat="39.49002" lon="2.48096667">
        <ele>28.0</ele>
        <time>2022-05-14T11:58:13.332Z</time>
      </trkpt>
      <trkpt lat="39.48998333" lon="2.48096">
        <ele>29.0</ele>
        <time>2022-05-14T11:58:14.332Z</time>
      </trkpt>
      <trkpt lat="39.48993833" lon="2.48095333">
        <ele>29.0</ele>
        <time>2022-05-14T11:58:15.332Z</time>
      </trkpt>
      <trkpt lat="39.48990833" lon="2.48095">
        <ele>30.0</ele>
        <time>2022-05-14T11:58:16.332Z</time>
      </trkpt>
      <trkpt lat="39.48986833" lon="2.480945">
        <ele>30.0</ele>
        <time>2022-05-14T11:58:17.331Z</time>
      </trkpt>
      <trkpt lat="39.48982167" lon="2.48094167">
        <ele>30.0</ele>
        <time>2022-05-14T11:58:18.332Z</time>
      </trkpt>
      <trkpt lat="39.48979" lon="2.48093833">
        <ele>30.0</ele>
        <time>2022-05-14T11:58:19.332Z</time>
      </trkpt>
      <trkpt lat="39.48975167" lon="2.480935">
        <ele>30.0</ele>
        <time>2022-05-14T11:58:20.332Z</time>
      </trkpt>
      <trkpt lat="39.48971333" lon="2.48093">
        <ele>30.0</ele>
        <time>2022-05-14T11:58:21.332Z</time>
      </trkpt>
      <trkpt lat="39.48967833" lon="2.48092833">
        <ele>29.0</ele>
        <time>2022-05-14T11:58:22.332Z</time>
      </trkpt>
      <trkpt lat="39.48964333" lon="2.48092333">
        <ele>29.0</ele>
        <time>2022-05-14T11:58:23.332Z</time>
      </trkpt>
      <trkpt lat="39.48960833" lon="2.48091833">
        <ele>28.0</ele>
        <time>2022-05-14T11:58:24.332Z</time>
      </trkpt>
      <trkpt lat="39.48956333" lon="2.48091">
        <ele>28.0</ele>
        <time>2022-05-14T11:58:25.332Z</time>
      </trkpt>
      <trkpt lat="39.48953167" lon="2.480905">
        <ele>28.0</ele>
        <time>2022-05-14T11:58:26.332Z</time>
      </trkpt>
      <trkpt lat="39.489495" lon="2.4809">
        <ele>28.0</ele>
        <time>2022-05-14T11:58:27.332Z</time>
      </trkpt>
      <trkpt lat="39.48944833" lon="2.480895">
        <ele>29.0</ele>
        <time>2022-05-14T11:58:28.332Z</time>
      </trkpt>
      <trkpt lat="39.48941833" lon="2.48089333">
        <ele>29.0</ele>
        <time>2022-05-14T11:58:29.332Z</time>
      </trkpt>
      <trkpt lat="39.48938333" lon="2.48089333">
        <ele>29.0</ele>
        <time>2022-05-14T11:58:30.332Z</time>
      </trkpt>
      <trkpt lat="39.48934667" lon="2.48089">
        <ele>28.0</ele>
        <time>2022-05-14T11:58:31.331Z</time>
      </trkpt>
      <trkpt lat="39.48931167" lon="2.480885">
        <ele>28.0</ele>
        <time>2022-05-14T11:58:32.332Z</time>
      </trkpt>
      <trkpt lat="39.48927833" lon="2.48088667">
        <ele>28.0</ele>
        <time>2022-05-14T11:58:33.331Z</time>
      </trkpt>
      <trkpt lat="39.48924" lon="2.48088667">
        <ele>28.0</ele>
        <time>2022-05-14T11:58:34.332Z</time>
      </trkpt>
      <trkpt lat="39.48921667" lon="2.480885">
        <ele>28.0</ele>
        <time>2022-05-14T11:58:35.332Z</time>
      </trkpt>
      <trkpt lat="39.48919167" lon="2.48087333">
        <ele>28.0</ele>
        <time>2022-05-14T11:58:36.332Z</time>
      </trkpt>
      <trkpt lat="39.48915167" lon="2.48087">
        <ele>28.0</ele>
        <time>2022-05-14T11:58:37.332Z</time>
      </trkpt>
      <trkpt lat="39.48911167" lon="2.480865">
        <ele>29.0</ele>
        <time>2022-05-14T11:58:38.331Z</time>
      </trkpt>
      <trkpt lat="39.489065" lon="2.48085833">
        <ele>29.0</ele>
        <time>2022-05-14T11:58:39.331Z</time>
      </trkpt>
      <trkpt lat="39.48902667" lon="2.48084833">
        <ele>30.0</ele>
        <time>2022-05-14T11:58:40.331Z</time>
      </trkpt>
      <trkpt lat="39.48899167" lon="2.48084667">
        <ele>29.0</ele>
        <time>2022-05-14T11:58:41.331Z</time>
      </trkpt>
      <trkpt lat="39.48895833" lon="2.48084167">
        <ele>29.0</ele>
        <time>2022-05-14T11:58:42.332Z</time>
      </trkpt>
      <trkpt lat="39.48891667" lon="2.48083667">
        <ele>29.0</ele>
        <time>2022-05-14T11:58:43.331Z</time>
      </trkpt>
      <trkpt lat="39.48888667" lon="2.48083667">
        <ele>29.0</ele>
        <time>2022-05-14T11:58:44.332Z</time>
      </trkpt>
      <trkpt lat="39.48885167" lon="2.48083333">
        <ele>29.0</ele>
        <time>2022-05-14T11:58:45.332Z</time>
      </trkpt>
      <trkpt lat="39.48880667" lon="2.48082833">
        <ele>29.0</ele>
        <time>2022-05-14T11:58:46.332Z</time>
      </trkpt>
      <trkpt lat="39.488775" lon="2.48082667">
        <ele>29.0</ele>
        <time>2022-05-14T11:58:47.332Z</time>
      </trkpt>
      <trkpt lat="39.48874" lon="2.48082667">
        <ele>28.0</ele>
        <time>2022-05-14T11:58:48.332Z</time>
      </trkpt>
      <trkpt lat="39.48870333" lon="2.480825">
        <ele>28.0</ele>
        <time>2022-05-14T11:58:49.332Z</time>
      </trkpt>
      <trkpt lat="39.488665" lon="2.480825">
        <ele>28.0</ele>
        <time>2022-05-14T11:58:50.332Z</time>
      </trkpt>
      <trkpt lat="39.48862667" lon="2.480825">
        <ele>28.0</ele>
        <time>2022-05-14T11:58:51.331Z</time>
      </trkpt>
      <trkpt lat="39.48857833" lon="2.48082167">
        <ele>28.0</ele>
        <time>2022-05-14T11:58:52.331Z</time>
      </trkpt>
      <trkpt lat="39.488545" lon="2.48082167">
        <ele>27.0</ele>
        <time>2022-05-14T11:58:53.331Z</time>
      </trkpt>
      <trkpt lat="39.48850333" lon="2.48082333">
        <ele>28.0</ele>
        <time>2022-05-14T11:58:54.332Z</time>
      </trkpt>
      <trkpt lat="39.48845833" lon="2.48081833">
        <ele>28.0</ele>
        <time>2022-05-14T11:58:55.332Z</time>
      </trkpt>
      <trkpt lat="39.48842833" lon="2.480815">
        <ele>28.0</ele>
        <time>2022-05-14T11:58:56.331Z</time>
      </trkpt>
      <trkpt lat="39.48839167" lon="2.48081167">
        <ele>28.0</ele>
        <time>2022-05-14T11:58:57.332Z</time>
      </trkpt>
      <trkpt lat="39.48835333" lon="2.48080833">
        <ele>28.0</ele>
        <time>2022-05-14T11:58:58.332Z</time>
      </trkpt>
      <trkpt lat="39.48831167" lon="2.480805">
        <ele>28.0</ele>
        <time>2022-05-14T11:58:59.332Z</time>
      </trkpt>
      <trkpt lat="39.48827333" lon="2.4808">
        <ele>28.0</ele>
        <time>2022-05-14T11:59:00.332Z</time>
      </trkpt>
      <trkpt lat="39.48823667" lon="2.48079667">
        <ele>29.0</ele>
        <time>2022-05-14T11:59:01.332Z</time>
      </trkpt>
      <trkpt lat="39.488195" lon="2.480795">
        <ele>29.0</ele>
        <time>2022-05-14T11:59:02.332Z</time>
      </trkpt>
      <trkpt lat="39.488155" lon="2.48079167">
        <ele>30.0</ele>
        <time>2022-05-14T11:59:03.332Z</time>
      </trkpt>
      <trkpt lat="39.48810833" lon="2.48078833">
        <ele>29.0</ele>
        <time>2022-05-14T11:59:04.332Z</time>
      </trkpt>
      <trkpt lat="39.488075" lon="2.480785">
        <ele>29.0</ele>
        <time>2022-05-14T11:59:05.332Z</time>
      </trkpt>
      <trkpt lat="39.48803333" lon="2.48078167">
        <ele>30.0</ele>
        <time>2022-05-14T11:59:06.332Z</time>
      </trkpt>
      <trkpt lat="39.487995" lon="2.48077833">
        <ele>30.0</ele>
        <time>2022-05-14T11:59:07.332Z</time>
      </trkpt>
      <trkpt lat="39.48795667" lon="2.48077667">
        <ele>30.0</ele>
        <time>2022-05-14T11:59:08.332Z</time>
      </trkpt>
      <trkpt lat="39.48792" lon="2.48077667">
        <ele>30.0</ele>
        <time>2022-05-14T11:59:09.332Z</time>
      </trkpt>
      <trkpt lat="39.48788" lon="2.480775">
        <ele>30.0</ele>
        <time>2022-05-14T11:59:10.332Z</time>
      </trkpt>
      <trkpt lat="39.48784167" lon="2.48077167">
        <ele>30.0</ele>
        <time>2022-05-14T11:59:11.332Z</time>
      </trkpt>
      <trkpt lat="39.48780167" lon="2.48076833">
        <ele>30.0</ele>
        <time>2022-05-14T11:59:12.332Z</time>
      </trkpt>
      <trkpt lat="39.48776167" lon="2.48076667">
        <ele>29.0</ele>
        <time>2022-05-14T11:59:13.331Z</time>
      </trkpt>
      <trkpt lat="39.48772167" lon="2.48076333">
        <ele>29.0</ele>
        <time>2022-05-14T11:59:14.332Z</time>
      </trkpt>
      <trkpt lat="39.48768167" lon="2.48076">
        <ele>29.0</ele>
        <time>2022-05-14T11:59:15.332Z</time>
      </trkpt>
      <trkpt lat="39.48764167" lon="2.48075667">
        <ele>29.0</ele>
        <time>2022-05-14T11:59:16.332Z</time>
      </trkpt>
      <trkpt lat="39.48760167" lon="2.48075167">
        <ele>29.0</ele>
        <time>2022-05-14T11:59:17.332Z</time>
      </trkpt>
      <trkpt lat="39.48756167" lon="2.48075">
        <ele>29.0</ele>
        <time>2022-05-14T11:59:18.331Z</time>
      </trkpt>
      <trkpt lat="39.48752" lon="2.48074833">
        <ele>29.0</ele>
        <time>2022-05-14T11:59:19.332Z</time>
      </trkpt>
      <trkpt lat="39.48747833" lon="2.48074667">
        <ele>29.0</ele>
        <time>2022-05-14T11:59:20.332Z</time>
      </trkpt>
      <trkpt lat="39.48743667" lon="2.480745">
        <ele>29.0</ele>
        <time>2022-05-14T11:59:21.332Z</time>
      </trkpt>
      <trkpt lat="39.48739667" lon="2.48074167">
        <ele>29.0</ele>
        <time>2022-05-14T11:59:22.332Z</time>
      </trkpt>
      <trkpt lat="39.48735167" lon="2.48074">
        <ele>29.0</ele>
        <time>2022-05-14T11:59:23.332Z</time>
      </trkpt>
      <trkpt lat="39.48732333" lon="2.48073833">
        <ele>29.0</ele>
        <time>2022-05-14T11:59:24.332Z</time>
      </trkpt>
      <trkpt lat="39.487285" lon="2.48073333">
        <ele>29.0</ele>
        <time>2022-05-14T11:59:25.332Z</time>
      </trkpt>
      <trkpt lat="39.48724333" lon="2.48073167">
        <ele>30.0</ele>
        <time>2022-05-14T11:59:26.331Z</time>
      </trkpt>
      <trkpt lat="39.48720333" lon="2.48073">
        <ele>31.0</ele>
        <time>2022-05-14T11:59:27.331Z</time>
      </trkpt>
      <trkpt lat="39.48716667" lon="2.48072833">
        <ele>32.0</ele>
        <time>2022-05-14T11:59:28.332Z</time>
      </trkpt>
      <trkpt lat="39.48713333" lon="2.48072333">
        <ele>33.0</ele>
        <time>2022-05-14T11:59:29.332Z</time>
      </trkpt>
      <trkpt lat="39.48710167" lon="2.48071667">
        <ele>33.0</ele>
        <time>2022-05-14T11:59:30.332Z</time>
      </trkpt>
      <trkpt lat="39.48707333" lon="2.48070667">
        <ele>33.0</ele>
        <time>2022-05-14T11:59:31.332Z</time>
      </trkpt>
      <trkpt lat="39.48705167" lon="2.48069667">
        <ele>33.0</ele>
        <time>2022-05-14T11:59:32.332Z</time>
      </trkpt>
      <trkpt lat="39.487025" lon="2.480675">
        <ele>33.0</ele>
        <time>2022-05-14T11:59:33.332Z</time>
      </trkpt>
      <trkpt lat="39.487" lon="2.48065833">
        <ele>33.0</ele>
        <time>2022-05-14T11:59:34.331Z</time>
      </trkpt>
      <trkpt lat="39.486975" lon="2.48064">
        <ele>33.0</ele>
        <time>2022-05-14T11:59:35.332Z</time>
      </trkpt>
      <trkpt lat="39.48694833" lon="2.480625">
        <ele>33.0</ele>
        <time>2022-05-14T11:59:36.332Z</time>
      </trkpt>
      <trkpt lat="39.48691333" lon="2.48060667">
        <ele>33.0</ele>
        <time>2022-05-14T11:59:37.332Z</time>
      </trkpt>
      <trkpt lat="39.486895" lon="2.48059833">
        <ele>33.0</ele>
        <time>2022-05-14T11:59:38.331Z</time>
      </trkpt>
      <trkpt lat="39.48686667" lon="2.48060167">
        <ele>34.0</ele>
        <time>2022-05-14T11:59:39.332Z</time>
      </trkpt>
      <trkpt lat="39.48684" lon="2.48061667">
        <ele>34.0</ele>
        <time>2022-05-14T11:59:40.332Z</time>
      </trkpt>
      <trkpt lat="39.486815" lon="2.48064333">
        <ele>34.0</ele>
        <time>2022-05-14T11:59:41.332Z</time>
      </trkpt>
      <trkpt lat="39.48678333" lon="2.48067833">
        <ele>34.0</ele>
        <time>2022-05-14T11:59:42.332Z</time>
      </trkpt>
      <trkpt lat="39.48675333" lon="2.48071333">
        <ele>35.0</ele>
        <time>2022-05-14T11:59:43.331Z</time>
      </trkpt>
      <trkpt lat="39.48672667" lon="2.48074667">
        <ele>35.0</ele>
        <time>2022-05-14T11:59:44.332Z</time>
      </trkpt>
      <trkpt lat="39.4867" lon="2.48077667">
        <ele>35.0</ele>
        <time>2022-05-14T11:59:45.332Z</time>
      </trkpt>
      <trkpt lat="39.48666667" lon="2.48080667">
        <ele>35.0</ele>
        <time>2022-05-14T11:59:46.331Z</time>
      </trkpt>
      <trkpt lat="39.48664333" lon="2.48082333">
        <ele>34.0</ele>
        <time>2022-05-14T11:59:47.332Z</time>
      </trkpt>
      <trkpt lat="39.48661333" lon="2.48083333">
        <ele>34.0</ele>
        <time>2022-05-14T11:59:48.332Z</time>
      </trkpt>
      <trkpt lat="39.48658" lon="2.48083333">
        <ele>34.0</ele>
        <time>2022-05-14T11:59:49.332Z</time>
      </trkpt>
      <trkpt lat="39.48654" lon="2.48083167">
        <ele>33.0</ele>
        <time>2022-05-14T11:59:50.332Z</time>
      </trkpt>
      <trkpt lat="39.48651333" lon="2.48082667">
        <ele>33.0</ele>
        <time>2022-05-14T11:59:51.332Z</time>
      </trkpt>
      <trkpt lat="39.48648" lon="2.48082333">
        <ele>33.0</ele>
        <time>2022-05-14T11:59:52.332Z</time>
      </trkpt>
      <trkpt lat="39.48644833" lon="2.48082167">
        <ele>33.0</ele>
        <time>2022-05-14T11:59:53.332Z</time>
      </trkpt>
      <trkpt lat="39.48641833" lon="2.48082167">
        <ele>33.0</ele>
        <time>2022-05-14T11:59:54.332Z</time>
      </trkpt>
      <trkpt lat="39.48638833" lon="2.48082">
        <ele>33.0</ele>
        <time>2022-05-14T11:59:55.332Z</time>
      </trkpt>
      <trkpt lat="39.48635833" lon="2.48081833">
        <ele>33.0</ele>
        <time>2022-05-14T11:59:56.332Z</time>
      </trkpt>
      <trkpt lat="39.48632667" lon="2.48081">
        <ele>32.0</ele>
        <time>2022-05-14T11:59:57.332Z</time>
      </trkpt>
      <trkpt lat="39.48629667" lon="2.48078833">
        <ele>33.0</ele>
        <time>2022-05-14T11:59:58.332Z</time>
      </trkpt>
      <trkpt lat="39.48627833" lon="2.480755">
        <ele>33.0</ele>
        <time>2022-05-14T11:59:59.332Z</time>
      </trkpt>
      <trkpt lat="39.486275" lon="2.48072">
        <ele>33.0</ele>
        <time>2022-05-14T12:00:00.332Z</time>
      </trkpt>
      <trkpt lat="39.48628" lon="2.48068333">
        <ele>33.0</ele>
        <time>2022-05-14T12:00:01.332Z</time>
      </trkpt>
      <trkpt lat="39.48629167" lon="2.48064667">
        <ele>33.0</ele>
        <time>2022-05-14T12:00:02.331Z</time>
      </trkpt>
      <trkpt lat="39.48630667" lon="2.48061">
        <ele>33.0</ele>
        <time>2022-05-14T12:00:03.332Z</time>
      </trkpt>
      <trkpt lat="39.48632333" lon="2.48057333">
        <ele>33.0</ele>
        <time>2022-05-14T12:00:04.332Z</time>
      </trkpt>
      <trkpt lat="39.48634" lon="2.48053667">
        <ele>32.0</ele>
        <time>2022-05-14T12:00:05.332Z</time>
      </trkpt>
      <trkpt lat="39.48635833" lon="2.48050167">
        <ele>32.0</ele>
        <time>2022-05-14T12:00:06.332Z</time>
      </trkpt>
      <trkpt lat="39.48637667" lon="2.48046667">
        <ele>32.0</ele>
        <time>2022-05-14T12:00:07.332Z</time>
      </trkpt>
      <trkpt lat="39.486395" lon="2.48043167">
        <ele>32.0</ele>
        <time>2022-05-14T12:00:08.332Z</time>
      </trkpt>
      <trkpt lat="39.48641333" lon="2.48039833">
        <ele>31.0</ele>
        <time>2022-05-14T12:00:09.332Z</time>
      </trkpt>
      <trkpt lat="39.48643333" lon="2.480365">
        <ele>31.0</ele>
        <time>2022-05-14T12:00:10.332Z</time>
      </trkpt>
      <trkpt lat="39.48645167" lon="2.48033167">
        <ele>31.0</ele>
        <time>2022-05-14T12:00:11.332Z</time>
      </trkpt>
      <trkpt lat="39.48646667" lon="2.480295">
        <ele>31.0</ele>
        <time>2022-05-14T12:00:12.332Z</time>
      </trkpt>
      <trkpt lat="39.48648333" lon="2.48025667">
        <ele>31.0</ele>
        <time>2022-05-14T12:00:13.332Z</time>
      </trkpt>
      <trkpt lat="39.48650333" lon="2.48021833">
        <ele>32.0</ele>
        <time>2022-05-14T12:00:14.332Z</time>
      </trkpt>
      <trkpt lat="39.48652167" lon="2.48018">
        <ele>32.0</ele>
        <time>2022-05-14T12:00:15.332Z</time>
      </trkpt>
      <trkpt lat="39.48654167" lon="2.48014167">
        <ele>33.0</ele>
        <time>2022-05-14T12:00:16.332Z</time>
      </trkpt>
      <trkpt lat="39.48656" lon="2.48010167">
        <ele>33.0</ele>
        <time>2022-05-14T12:00:17.332Z</time>
      </trkpt>
      <trkpt lat="39.48657167" lon="2.48005667">
        <ele>33.0</ele>
        <time>2022-05-14T12:00:18.332Z</time>
      </trkpt>
      <trkpt lat="39.48656833" lon="2.48001167">
        <ele>33.0</ele>
        <time>2022-05-14T12:00:19.332Z</time>
      </trkpt>
      <trkpt lat="39.486545" lon="2.47997167">
        <ele>33.0</ele>
        <time>2022-05-14T12:00:20.332Z</time>
      </trkpt>
      <trkpt lat="39.48652" lon="2.479955">
        <ele>34.0</ele>
        <time>2022-05-14T12:00:21.331Z</time>
      </trkpt>
      <trkpt lat="39.48648333" lon="2.47994">
        <ele>34.0</ele>
        <time>2022-05-14T12:00:22.332Z</time>
      </trkpt>
      <trkpt lat="39.48644667" lon="2.47992833">
        <ele>35.0</ele>
        <time>2022-05-14T12:00:23.332Z</time>
      </trkpt>
      <trkpt lat="39.48640667" lon="2.47992333">
        <ele>35.0</ele>
        <time>2022-05-14T12:00:24.331Z</time>
      </trkpt>
      <trkpt lat="39.48636833" lon="2.47992167">
        <ele>35.0</ele>
        <time>2022-05-14T12:00:25.332Z</time>
      </trkpt>
      <trkpt lat="39.48632667" lon="2.47992333">
        <ele>35.0</ele>
        <time>2022-05-14T12:00:26.331Z</time>
      </trkpt>
      <trkpt lat="39.48628833" lon="2.479925">
        <ele>35.0</ele>
        <time>2022-05-14T12:00:27.331Z</time>
      </trkpt>
      <trkpt lat="39.48625" lon="2.47992667">
        <ele>34.0</ele>
        <time>2022-05-14T12:00:28.332Z</time>
      </trkpt>
      <trkpt lat="39.48620667" lon="2.47992333">
        <ele>34.0</ele>
        <time>2022-05-14T12:00:29.332Z</time>
      </trkpt>
      <trkpt lat="39.48616167" lon="2.47992667">
        <ele>34.0</ele>
        <time>2022-05-14T12:00:30.332Z</time>
      </trkpt>
      <trkpt lat="39.48612167" lon="2.47992167">
        <ele>34.0</ele>
        <time>2022-05-14T12:00:31.332Z</time>
      </trkpt>
      <trkpt lat="39.48608" lon="2.47991833">
        <ele>33.0</ele>
        <time>2022-05-14T12:00:32.331Z</time>
      </trkpt>
      <trkpt lat="39.48604" lon="2.47991333">
        <ele>33.0</ele>
        <time>2022-05-14T12:00:33.332Z</time>
      </trkpt>
      <trkpt lat="39.48599167" lon="2.47990667">
        <ele>34.0</ele>
        <time>2022-05-14T12:00:34.332Z</time>
      </trkpt>
      <trkpt lat="39.48595833" lon="2.479905">
        <ele>34.0</ele>
        <time>2022-05-14T12:00:35.332Z</time>
      </trkpt>
      <trkpt lat="39.48591833" lon="2.47990167">
        <ele>34.0</ele>
        <time>2022-05-14T12:00:36.332Z</time>
      </trkpt>
      <trkpt lat="39.48587667" lon="2.4799">
        <ele>34.0</ele>
        <time>2022-05-14T12:00:37.332Z</time>
      </trkpt>
      <trkpt lat="39.485835" lon="2.4799">
        <ele>34.0</ele>
        <time>2022-05-14T12:00:38.332Z</time>
      </trkpt>
      <trkpt lat="39.485795" lon="2.47990167">
        <ele>35.0</ele>
        <time>2022-05-14T12:00:39.332Z</time>
      </trkpt>
      <trkpt lat="39.485745" lon="2.47990333">
        <ele>35.0</ele>
        <time>2022-05-14T12:00:40.332Z</time>
      </trkpt>
      <trkpt lat="39.48571333" lon="2.47990167">
        <ele>36.0</ele>
        <time>2022-05-14T12:00:41.332Z</time>
      </trkpt>
      <trkpt lat="39.485675" lon="2.47989667">
        <ele>36.0</ele>
        <time>2022-05-14T12:00:42.332Z</time>
      </trkpt>
      <trkpt lat="39.48563833" lon="2.47989333">
        <ele>36.0</ele>
        <time>2022-05-14T12:00:43.332Z</time>
      </trkpt>
      <trkpt lat="39.48560333" lon="2.47989333">
        <ele>36.0</ele>
        <time>2022-05-14T12:00:44.332Z</time>
      </trkpt>
      <trkpt lat="39.48556833" lon="2.47989333">
        <ele>36.0</ele>
        <time>2022-05-14T12:00:45.332Z</time>
      </trkpt>
      <trkpt lat="39.48553333" lon="2.47989167">
        <ele>36.0</ele>
        <time>2022-05-14T12:00:46.332Z</time>
      </trkpt>
      <trkpt lat="39.48549667" lon="2.47989">
        <ele>36.0</ele>
        <time>2022-05-14T12:00:47.331Z</time>
      </trkpt>
      <trkpt lat="39.48546333" lon="2.47989">
        <ele>36.0</ele>
        <time>2022-05-14T12:00:48.332Z</time>
      </trkpt>
      <trkpt lat="39.48543167" lon="2.47988833">
        <ele>36.0</ele>
        <time>2022-05-14T12:00:49.331Z</time>
      </trkpt>
      <trkpt lat="39.48539833" lon="2.47989">
        <ele>36.0</ele>
        <time>2022-05-14T12:00:50.331Z</time>
      </trkpt>
      <trkpt lat="39.48536667" lon="2.479885">
        <ele>36.0</ele>
        <time>2022-05-14T12:00:51.332Z</time>
      </trkpt>
      <trkpt lat="39.48533167" lon="2.47988167">
        <ele>36.0</ele>
        <time>2022-05-14T12:00:52.332Z</time>
      </trkpt>
      <trkpt lat="39.48529" lon="2.47988167">
        <ele>37.0</ele>
        <time>2022-05-14T12:00:53.332Z</time>
      </trkpt>
      <trkpt lat="39.48526167" lon="2.47988333">
        <ele>38.0</ele>
        <time>2022-05-14T12:00:54.332Z</time>
      </trkpt>
      <trkpt lat="39.485225" lon="2.47988333">
        <ele>38.0</ele>
        <time>2022-05-14T12:00:55.332Z</time>
      </trkpt>
      <trkpt lat="39.48519333" lon="2.47988">
        <ele>38.0</ele>
        <time>2022-05-14T12:00:56.331Z</time>
      </trkpt>
      <trkpt lat="39.48516" lon="2.47987333">
        <ele>39.0</ele>
        <time>2022-05-14T12:00:57.332Z</time>
      </trkpt>
      <trkpt lat="39.485125" lon="2.47986833">
        <ele>39.0</ele>
        <time>2022-05-14T12:00:58.332Z</time>
      </trkpt>
      <trkpt lat="39.48510167" lon="2.47986667">
        <ele>39.0</ele>
        <time>2022-05-14T12:00:59.332Z</time>
      </trkpt>
      <trkpt lat="39.48507" lon="2.47986333">
        <ele>39.0</ele>
        <time>2022-05-14T12:01:00.332Z</time>
      </trkpt>
      <trkpt lat="39.485035" lon="2.47985667">
        <ele>39.0</ele>
        <time>2022-05-14T12:01:01.332Z</time>
      </trkpt>
      <trkpt lat="39.485015" lon="2.47985167">
        <ele>39.0</ele>
        <time>2022-05-14T12:01:02.331Z</time>
      </trkpt>
      <trkpt lat="39.48499167" lon="2.47984667">
        <ele>39.0</ele>
        <time>2022-05-14T12:01:03.332Z</time>
      </trkpt>
      <trkpt lat="39.48496667" lon="2.47984333">
        <ele>38.0</ele>
        <time>2022-05-14T12:01:04.332Z</time>
      </trkpt>
      <trkpt lat="39.48494833" lon="2.47984333">
        <ele>38.0</ele>
        <time>2022-05-14T12:01:05.332Z</time>
      </trkpt>
      <trkpt lat="39.48493" lon="2.47984333">
        <ele>38.0</ele>
        <time>2022-05-14T12:01:06.332Z</time>
      </trkpt>
      <trkpt lat="39.48490833" lon="2.47984167">
        <ele>37.0</ele>
        <time>2022-05-14T12:01:07.332Z</time>
      </trkpt>
      <trkpt lat="39.48489167" lon="2.47983833">
        <ele>37.0</ele>
        <time>2022-05-14T12:01:08.332Z</time>
      </trkpt>
      <trkpt lat="39.48486833" lon="2.47983667">
        <ele>36.0</ele>
        <time>2022-05-14T12:01:09.331Z</time>
      </trkpt>
      <trkpt lat="39.48484667" lon="2.479835">
        <ele>36.0</ele>
        <time>2022-05-14T12:01:10.331Z</time>
      </trkpt>
      <trkpt lat="39.48482333" lon="2.479835">
        <ele>36.0</ele>
        <time>2022-05-14T12:01:11.331Z</time>
      </trkpt>
      <trkpt lat="39.48479667" lon="2.47983333">
        <ele>36.0</ele>
        <time>2022-05-14T12:01:12.331Z</time>
      </trkpt>
      <trkpt lat="39.48476833" lon="2.47983167">
        <ele>36.0</ele>
        <time>2022-05-14T12:01:13.332Z</time>
      </trkpt>
      <trkpt lat="39.48474167" lon="2.47983">
        <ele>36.0</ele>
        <time>2022-05-14T12:01:14.332Z</time>
      </trkpt>
      <trkpt lat="39.48471167" lon="2.47982667">
        <ele>35.0</ele>
        <time>2022-05-14T12:01:15.332Z</time>
      </trkpt>
      <trkpt lat="39.48468" lon="2.47982333">
        <ele>35.0</ele>
        <time>2022-05-14T12:01:16.331Z</time>
      </trkpt>
      <trkpt lat="39.48465" lon="2.47982167">
        <ele>35.0</ele>
        <time>2022-05-14T12:01:17.332Z</time>
      </trkpt>
      <trkpt lat="39.48461833" lon="2.47981667">
        <ele>35.0</ele>
        <time>2022-05-14T12:01:18.332Z</time>
      </trkpt>
      <trkpt lat="39.48459" lon="2.47981333">
        <ele>35.0</ele>
        <time>2022-05-14T12:01:19.332Z</time>
      </trkpt>
      <trkpt lat="39.48456" lon="2.47981167">
        <ele>36.0</ele>
        <time>2022-05-14T12:01:20.332Z</time>
      </trkpt>
      <trkpt lat="39.48453" lon="2.47980833">
        <ele>36.0</ele>
        <time>2022-05-14T12:01:21.332Z</time>
      </trkpt>
      <trkpt lat="39.4845" lon="2.479805">
        <ele>37.0</ele>
        <time>2022-05-14T12:01:22.332Z</time>
      </trkpt>
      <trkpt lat="39.48447167" lon="2.47980167">
        <ele>37.0</ele>
        <time>2022-05-14T12:01:23.332Z</time>
      </trkpt>
      <trkpt lat="39.484445" lon="2.4798">
        <ele>37.0</ele>
        <time>2022-05-14T12:01:24.332Z</time>
      </trkpt>
      <trkpt lat="39.484415" lon="2.47979667">
        <ele>37.0</ele>
        <time>2022-05-14T12:01:25.332Z</time>
      </trkpt>
      <trkpt lat="39.48438833" lon="2.47979833">
        <ele>37.0</ele>
        <time>2022-05-14T12:01:26.332Z</time>
      </trkpt>
      <trkpt lat="39.48436333" lon="2.47979833">
        <ele>37.0</ele>
        <time>2022-05-14T12:01:27.332Z</time>
      </trkpt>
      <trkpt lat="39.48433833" lon="2.47979667">
        <ele>37.0</ele>
        <time>2022-05-14T12:01:28.332Z</time>
      </trkpt>
      <trkpt lat="39.48431667" lon="2.47979333">
        <ele>36.0</ele>
        <time>2022-05-14T12:01:29.331Z</time>
      </trkpt>
      <trkpt lat="39.48430333" lon="2.47978833">
        <ele>36.0</ele>
        <time>2022-05-14T12:01:30.331Z</time>
      </trkpt>
      <trkpt lat="39.48384" lon="2.47931">
        <ele>-3.0</ele>
        <time>2022-05-14T16:09:16.983Z</time>
      </trkpt>
      <trkpt lat="39.48384" lon="2.47931">
        <ele>-3.0</ele>
        <time>2022-05-14T16:09:17.984Z</time>
      </trkpt>
      <trkpt lat="39.48384667" lon="2.47930667">
        <ele>-3.0</ele>
        <time>2022-05-14T16:09:18.984Z</time>
      </trkpt>
      <trkpt lat="39.48384667" lon="2.47930667">
        <ele>-3.0</ele>
        <time>2022-05-14T16:09:19.985Z</time>
      </trkpt>
      <trkpt lat="39.48384667" lon="2.47930667">
        <ele>-3.0</ele>
        <time>2022-05-14T16:09:20.985Z</time>
      </trkpt>
      <trkpt lat="39.48384667" lon="2.47930667">
        <ele>-2.0</ele>
        <time>2022-05-14T16:09:21.984Z</time>
      </trkpt>
      <trkpt lat="39.48384667" lon="2.47930667">
        <ele>-2.0</ele>
        <time>2022-05-14T16:09:22.985Z</time>
      </trkpt>
      <trkpt lat="39.48385" lon="2.47930833">
        <ele>-2.0</ele>
        <time>2022-05-14T16:09:23.984Z</time>
      </trkpt>
      <trkpt lat="39.48387333" lon="2.47931167">
        <ele>-2.0</ele>
        <time>2022-05-14T16:09:24.985Z</time>
      </trkpt>
      <trkpt lat="39.48390167" lon="2.479315">
        <ele>-2.0</ele>
        <time>2022-05-14T16:09:25.984Z</time>
      </trkpt>
      <trkpt lat="39.483935" lon="2.47931833">
        <ele>-2.0</ele>
        <time>2022-05-14T16:09:26.984Z</time>
      </trkpt>
      <trkpt lat="39.48396833" lon="2.47932333">
        <ele>-2.0</ele>
        <time>2022-05-14T16:09:27.984Z</time>
      </trkpt>
      <trkpt lat="39.48400167" lon="2.47932667">
        <ele>-2.0</ele>
        <time>2022-05-14T16:09:28.985Z</time>
      </trkpt>
      <trkpt lat="39.48403833" lon="2.47932833">
        <ele>-2.0</ele>
        <time>2022-05-14T16:09:29.984Z</time>
      </trkpt>
      <trkpt lat="39.48407167" lon="2.47932833">
        <ele>-2.0</ele>
        <time>2022-05-14T16:09:30.984Z</time>
      </trkpt>
      <trkpt lat="39.48411833" lon="2.47933167">
        <ele>-2.0</ele>
        <time>2022-05-14T16:09:31.984Z</time>
      </trkpt>
      <trkpt lat="39.484155" lon="2.479335">
        <ele>-2.0</ele>
        <time>2022-05-14T16:09:32.985Z</time>
      </trkpt>
      <trkpt lat="39.48420167" lon="2.47934">
        <ele>-2.0</ele>
        <time>2022-05-14T16:09:33.984Z</time>
      </trkpt>
      <trkpt lat="39.48425" lon="2.47934333">
        <ele>-3.0</ele>
        <time>2022-05-14T16:09:34.984Z</time>
      </trkpt>
      <trkpt lat="39.484285" lon="2.47934167">
        <ele>-3.0</ele>
        <time>2022-05-14T16:09:35.984Z</time>
      </trkpt>
      <trkpt lat="39.48432833" lon="2.47934">
        <ele>-4.0</ele>
        <time>2022-05-14T16:09:36.984Z</time>
      </trkpt>
      <trkpt lat="39.48437167" lon="2.47933833">
        <ele>-5.0</ele>
        <time>2022-05-14T16:09:37.985Z</time>
      </trkpt>
      <trkpt lat="39.48441833" lon="2.47933833">
        <ele>-6.0</ele>
        <time>2022-05-14T16:09:38.984Z</time>
      </trkpt>
      <trkpt lat="39.48446833" lon="2.47934167">
        <ele>-7.0</ele>
        <time>2022-05-14T16:09:39.984Z</time>
      </trkpt>
      <trkpt lat="39.48452" lon="2.47935">
        <ele>-9.0</ele>
        <time>2022-05-14T16:09:40.984Z</time>
      </trkpt>
      <trkpt lat="39.48458333" lon="2.47935667">
        <ele>-8.0</ele>
        <time>2022-05-14T16:09:41.985Z</time>
      </trkpt>
      <trkpt lat="39.48464333" lon="2.47936667">
        <ele>-9.0</ele>
        <time>2022-05-14T16:09:42.985Z</time>
      </trkpt>
      <trkpt lat="39.484695" lon="2.47937167">
        <ele>-10.0</ele>
        <time>2022-05-14T16:09:43.984Z</time>
      </trkpt>
      <trkpt lat="39.48474833" lon="2.47937">
        <ele>-11.0</ele>
        <time>2022-05-14T16:09:44.985Z</time>
      </trkpt>
      <trkpt lat="39.48480167" lon="2.47937">
        <ele>-12.0</ele>
        <time>2022-05-14T16:09:45.985Z</time>
      </trkpt>
      <trkpt lat="39.48485333" lon="2.47937167">
        <ele>-13.0</ele>
        <time>2022-05-14T16:09:46.984Z</time>
      </trkpt>
      <trkpt lat="39.484905" lon="2.47937167">
        <ele>-14.0</ele>
        <time>2022-05-14T16:09:47.985Z</time>
      </trkpt>
      <trkpt lat="39.48495667" lon="2.47937167">
        <ele>-15.0</ele>
        <time>2022-05-14T16:09:48.984Z</time>
      </trkpt>
      <trkpt lat="39.485005" lon="2.47936667">
        <ele>-16.0</ele>
        <time>2022-05-14T16:09:49.985Z</time>
      </trkpt>
      <trkpt lat="39.485055" lon="2.47936667">
        <ele>-17.0</ele>
        <time>2022-05-14T16:09:50.984Z</time>
      </trkpt>
      <trkpt lat="39.48510667" lon="2.47937167">
        <ele>-17.0</ele>
        <time>2022-05-14T16:09:51.984Z</time>
      </trkpt>
      <trkpt lat="39.48516" lon="2.47937">
        <ele>-18.0</ele>
        <time>2022-05-14T16:09:52.985Z</time>
      </trkpt>
      <trkpt lat="39.48521333" lon="2.479375">
        <ele>-20.0</ele>
        <time>2022-05-14T16:09:53.985Z</time>
      </trkpt>
      <trkpt lat="39.48526667" lon="2.47937333">
        <ele>-19.0</ele>
        <time>2022-05-14T16:09:54.985Z</time>
      </trkpt>
      <trkpt lat="39.485325" lon="2.47938167">
        <ele>-19.0</ele>
        <time>2022-05-14T16:09:55.984Z</time>
      </trkpt>
      <trkpt lat="39.485375" lon="2.47938667">
        <ele>-20.0</ele>
        <time>2022-05-14T16:09:56.984Z</time>
      </trkpt>
      <trkpt lat="39.48542333" lon="2.47939167">
        <ele>-20.0</ele>
        <time>2022-05-14T16:09:57.985Z</time>
      </trkpt>
      <trkpt lat="39.48547167" lon="2.47939667">
        <ele>-20.0</ele>
        <time>2022-05-14T16:09:58.985Z</time>
      </trkpt>
      <trkpt lat="39.48552" lon="2.4794">
        <ele>-20.0</ele>
        <time>2022-05-14T16:09:59.985Z</time>
      </trkpt>
      <trkpt lat="39.48556667" lon="2.47940333">
        <ele>-21.0</ele>
        <time>2022-05-14T16:10:00.984Z</time>
      </trkpt>
      <trkpt lat="39.48561333" lon="2.47940667">
        <ele>-22.0</ele>
        <time>2022-05-14T16:10:01.984Z</time>
      </trkpt>
      <trkpt lat="39.48566833" lon="2.479425">
        <ele>-22.0</ele>
        <time>2022-05-14T16:10:02.985Z</time>
      </trkpt>
      <trkpt lat="39.48572333" lon="2.479445">
        <ele>-22.0</ele>
        <time>2022-05-14T16:10:03.984Z</time>
      </trkpt>
      <trkpt lat="39.48578" lon="2.47946833">
        <ele>-21.0</ele>
        <time>2022-05-14T16:10:04.985Z</time>
      </trkpt>
      <trkpt lat="39.48583" lon="2.47948667">
        <ele>-19.0</ele>
        <time>2022-05-14T16:10:05.985Z</time>
      </trkpt>
      <trkpt lat="39.48587667" lon="2.47949833">
        <ele>-18.0</ele>
        <time>2022-05-14T16:10:06.984Z</time>
      </trkpt>
      <trkpt lat="39.48592333" lon="2.47950667">
        <ele>-16.0</ele>
        <time>2022-05-14T16:10:07.985Z</time>
      </trkpt>
      <trkpt lat="39.48596833" lon="2.479515">
        <ele>-15.0</ele>
        <time>2022-05-14T16:10:08.985Z</time>
      </trkpt>
      <trkpt lat="39.486015" lon="2.47952167">
        <ele>-13.0</ele>
        <time>2022-05-14T16:10:09.985Z</time>
      </trkpt>
      <trkpt lat="39.48606333" lon="2.47953333">
        <ele>-12.0</ele>
        <time>2022-05-14T16:10:10.984Z</time>
      </trkpt>
      <trkpt lat="39.48611" lon="2.47954667">
        <ele>-10.0</ele>
        <time>2022-05-14T16:10:11.984Z</time>
      </trkpt>
      <trkpt lat="39.486155" lon="2.47955833">
        <ele>-9.0</ele>
        <time>2022-05-14T16:10:12.985Z</time>
      </trkpt>
      <trkpt lat="39.48620167" lon="2.47956833">
        <ele>-5.0</ele>
        <time>2022-05-14T16:10:13.985Z</time>
      </trkpt>
      <trkpt lat="39.48624667" lon="2.47958333">
        <ele>-3.0</ele>
        <time>2022-05-14T16:10:14.984Z</time>
      </trkpt>
      <trkpt lat="39.48628333" lon="2.479615">
        <ele>-1.0</ele>
        <time>2022-05-14T16:10:15.985Z</time>
      </trkpt>
      <trkpt lat="39.48630833" lon="2.47965833">
        <ele>0.0</ele>
        <time>2022-05-14T16:10:16.985Z</time>
      </trkpt>
      <trkpt lat="39.48632833" lon="2.47971333">
        <ele>1.0</ele>
        <time>2022-05-14T16:10:17.985Z</time>
      </trkpt>
      <trkpt lat="39.48633" lon="2.479795">
        <ele>3.0</ele>
        <time>2022-05-14T16:10:18.985Z</time>
      </trkpt>
      <trkpt lat="39.48631667" lon="2.47986333">
        <ele>4.0</ele>
        <time>2022-05-14T16:10:19.984Z</time>
      </trkpt>
      <trkpt lat="39.48630333" lon="2.47993333">
        <ele>6.0</ele>
        <time>2022-05-14T16:10:20.985Z</time>
      </trkpt>
      <trkpt lat="39.48629" lon="2.47999833">
        <ele>7.0</ele>
        <time>2022-05-14T16:10:21.984Z</time>
      </trkpt>
      <trkpt lat="39.48627167" lon="2.48005167">
        <ele>9.0</ele>
        <time>2022-05-14T16:10:22.985Z</time>
      </trkpt>
      <trkpt lat="39.48625333" lon="2.48010833">
        <ele>10.0</ele>
        <time>2022-05-14T16:10:23.985Z</time>
      </trkpt>
      <trkpt lat="39.48623333" lon="2.48016167">
        <ele>11.0</ele>
        <time>2022-05-14T16:10:24.985Z</time>
      </trkpt>
      <trkpt lat="39.48622333" lon="2.480215">
        <ele>12.0</ele>
        <time>2022-05-14T16:10:25.984Z</time>
      </trkpt>
      <trkpt lat="39.48620667" lon="2.48026667">
        <ele>13.0</ele>
        <time>2022-05-14T16:10:26.984Z</time>
      </trkpt>
      <trkpt lat="39.48619" lon="2.48031833">
        <ele>14.0</ele>
        <time>2022-05-14T16:10:27.985Z</time>
      </trkpt>
      <trkpt lat="39.486175" lon="2.48036833">
        <ele>15.0</ele>
        <time>2022-05-14T16:10:28.985Z</time>
      </trkpt>
      <trkpt lat="39.48616" lon="2.48041833">
        <ele>16.0</ele>
        <time>2022-05-14T16:10:29.984Z</time>
      </trkpt>
      <trkpt lat="39.48614833" lon="2.48046667">
        <ele>17.0</ele>
        <time>2022-05-14T16:10:30.984Z</time>
      </trkpt>
      <trkpt lat="39.48614167" lon="2.48051833">
        <ele>18.0</ele>
        <time>2022-05-14T16:10:31.984Z</time>
      </trkpt>
      <trkpt lat="39.48613" lon="2.48056333">
        <ele>19.0</ele>
        <time>2022-05-14T16:10:32.984Z</time>
      </trkpt>
      <trkpt lat="39.48611667" lon="2.48060667">
        <ele>20.0</ele>
        <time>2022-05-14T16:10:33.985Z</time>
      </trkpt>
      <trkpt lat="39.48610667" lon="2.48064">
        <ele>21.0</ele>
        <time>2022-05-14T16:10:34.984Z</time>
      </trkpt>
      <trkpt lat="39.48609833" lon="2.480665">
        <ele>21.0</ele>
        <time>2022-05-14T16:10:35.984Z</time>
      </trkpt>
      <trkpt lat="39.48609833" lon="2.48069167">
        <ele>22.0</ele>
        <time>2022-05-14T16:10:36.984Z</time>
      </trkpt>
      <trkpt lat="39.48611333" lon="2.48071667">
        <ele>22.0</ele>
        <time>2022-05-14T16:10:37.984Z</time>
      </trkpt>
      <trkpt lat="39.48614" lon="2.48074">
        <ele>23.0</ele>
        <time>2022-05-14T16:10:38.984Z</time>
      </trkpt>
      <trkpt lat="39.48617167" lon="2.48075833">
        <ele>23.0</ele>
        <time>2022-05-14T16:10:39.984Z</time>
      </trkpt>
      <trkpt lat="39.48622" lon="2.48077833">
        <ele>24.0</ele>
        <time>2022-05-14T16:10:40.984Z</time>
      </trkpt>
      <trkpt lat="39.48626833" lon="2.48079">
        <ele>24.0</ele>
        <time>2022-05-14T16:10:41.984Z</time>
      </trkpt>
      <trkpt lat="39.48632" lon="2.48079833">
        <ele>25.0</ele>
        <time>2022-05-14T16:10:42.984Z</time>
      </trkpt>
      <trkpt lat="39.48637" lon="2.480805">
        <ele>25.0</ele>
        <time>2022-05-14T16:10:43.985Z</time>
      </trkpt>
      <trkpt lat="39.48642333" lon="2.48081667">
        <ele>26.0</ele>
        <time>2022-05-14T16:10:44.985Z</time>
      </trkpt>
      <trkpt lat="39.48647833" lon="2.48082667">
        <ele>26.0</ele>
        <time>2022-05-14T16:10:45.984Z</time>
      </trkpt>
      <trkpt lat="39.48652833" lon="2.480835">
        <ele>26.0</ele>
        <time>2022-05-14T16:10:46.984Z</time>
      </trkpt>
      <trkpt lat="39.48658167" lon="2.48084167">
        <ele>26.0</ele>
        <time>2022-05-14T16:10:47.985Z</time>
      </trkpt>
      <trkpt lat="39.48663667" lon="2.48084833">
        <ele>26.0</ele>
        <time>2022-05-14T16:10:48.985Z</time>
      </trkpt>
      <trkpt lat="39.48669333" lon="2.48085833">
        <ele>26.0</ele>
        <time>2022-05-14T16:10:49.985Z</time>
      </trkpt>
      <trkpt lat="39.48675" lon="2.48086667">
        <ele>26.0</ele>
        <time>2022-05-14T16:10:50.985Z</time>
      </trkpt>
      <trkpt lat="39.486805" lon="2.48087167">
        <ele>26.0</ele>
        <time>2022-05-14T16:10:51.984Z</time>
      </trkpt>
      <trkpt lat="39.48685667" lon="2.48087167">
        <ele>26.0</ele>
        <time>2022-05-14T16:10:52.985Z</time>
      </trkpt>
      <trkpt lat="39.48690667" lon="2.48086333">
        <ele>26.0</ele>
        <time>2022-05-14T16:10:53.985Z</time>
      </trkpt>
      <trkpt lat="39.486955" lon="2.480845">
        <ele>26.0</ele>
        <time>2022-05-14T16:10:54.985Z</time>
      </trkpt>
      <trkpt lat="39.48700333" lon="2.48082333">
        <ele>26.0</ele>
        <time>2022-05-14T16:10:55.984Z</time>
      </trkpt>
      <trkpt lat="39.48705167" lon="2.480805">
        <ele>26.0</ele>
        <time>2022-05-14T16:10:56.985Z</time>
      </trkpt>
      <trkpt lat="39.48710333" lon="2.48079333">
        <ele>26.0</ele>
        <time>2022-05-14T16:10:57.984Z</time>
      </trkpt>
      <trkpt lat="39.48715667" lon="2.48079">
        <ele>26.0</ele>
        <time>2022-05-14T16:10:58.984Z</time>
      </trkpt>
      <trkpt lat="39.48720833" lon="2.48079167">
        <ele>26.0</ele>
        <time>2022-05-14T16:10:59.984Z</time>
      </trkpt>
      <trkpt lat="39.48725667" lon="2.48079333">
        <ele>26.0</ele>
        <time>2022-05-14T16:11:00.984Z</time>
      </trkpt>
      <trkpt lat="39.48731" lon="2.48079833">
        <ele>26.0</ele>
        <time>2022-05-14T16:11:01.984Z</time>
      </trkpt>
      <trkpt lat="39.48736333" lon="2.48080833">
        <ele>25.0</ele>
        <time>2022-05-14T16:11:02.984Z</time>
      </trkpt>
      <trkpt lat="39.48741667" lon="2.48081667">
        <ele>25.0</ele>
        <time>2022-05-14T16:11:03.984Z</time>
      </trkpt>
      <trkpt lat="39.48747167" lon="2.48082167">
        <ele>25.0</ele>
        <time>2022-05-14T16:11:04.984Z</time>
      </trkpt>
      <trkpt lat="39.48752333" lon="2.48082333">
        <ele>25.0</ele>
        <time>2022-05-14T16:11:05.984Z</time>
      </trkpt>
      <trkpt lat="39.48757333" lon="2.48082667">
        <ele>25.0</ele>
        <time>2022-05-14T16:11:06.984Z</time>
      </trkpt>
      <trkpt lat="39.487625" lon="2.48082833">
        <ele>25.0</ele>
        <time>2022-05-14T16:11:07.984Z</time>
      </trkpt>
      <trkpt lat="39.487675" lon="2.48083167">
        <ele>25.0</ele>
        <time>2022-05-14T16:11:08.984Z</time>
      </trkpt>
      <trkpt lat="39.487725" lon="2.480835">
        <ele>25.0</ele>
        <time>2022-05-14T16:11:09.984Z</time>
      </trkpt>
      <trkpt lat="39.48777333" lon="2.48083833">
        <ele>26.0</ele>
        <time>2022-05-14T16:11:10.984Z</time>
      </trkpt>
      <trkpt lat="39.487825" lon="2.48084333">
        <ele>26.0</ele>
        <time>2022-05-14T16:11:11.984Z</time>
      </trkpt>
      <trkpt lat="39.48787667" lon="2.48085">
        <ele>26.0</ele>
        <time>2022-05-14T16:11:12.984Z</time>
      </trkpt>
      <trkpt lat="39.48793" lon="2.480855">
        <ele>27.0</ele>
        <time>2022-05-14T16:11:13.984Z</time>
      </trkpt>
      <trkpt lat="39.48798167" lon="2.48085667">
        <ele>27.0</ele>
        <time>2022-05-14T16:11:14.984Z</time>
      </trkpt>
      <trkpt lat="39.48803667" lon="2.48086167">
        <ele>26.0</ele>
        <time>2022-05-14T16:11:15.984Z</time>
      </trkpt>
      <trkpt lat="39.48808833" lon="2.48086667">
        <ele>26.0</ele>
        <time>2022-05-14T16:11:16.985Z</time>
      </trkpt>
      <trkpt lat="39.48813167" lon="2.480875">
        <ele>26.0</ele>
        <time>2022-05-14T16:11:17.985Z</time>
      </trkpt>
      <trkpt lat="39.48817833" lon="2.48088333">
        <ele>26.0</ele>
        <time>2022-05-14T16:11:18.984Z</time>
      </trkpt>
      <trkpt lat="39.48822667" lon="2.48089">
        <ele>26.0</ele>
        <time>2022-05-14T16:11:19.985Z</time>
      </trkpt>
      <trkpt lat="39.48827833" lon="2.48089667">
        <ele>26.0</ele>
        <time>2022-05-14T16:11:20.985Z</time>
      </trkpt>
      <trkpt lat="39.488335" lon="2.4809">
        <ele>27.0</ele>
        <time>2022-05-14T16:11:21.985Z</time>
      </trkpt>
      <trkpt lat="39.48838833" lon="2.48090167">
        <ele>27.0</ele>
        <time>2022-05-14T16:11:22.985Z</time>
      </trkpt>
      <trkpt lat="39.48844333" lon="2.480905">
        <ele>26.0</ele>
        <time>2022-05-14T16:11:23.985Z</time>
      </trkpt>
      <trkpt lat="39.4885" lon="2.48090667">
        <ele>26.0</ele>
        <time>2022-05-14T16:11:24.985Z</time>
      </trkpt>
      <trkpt lat="39.488555" lon="2.48091167">
        <ele>25.0</ele>
        <time>2022-05-14T16:11:25.985Z</time>
      </trkpt>
      <trkpt lat="39.48860833" lon="2.480915">
        <ele>25.0</ele>
        <time>2022-05-14T16:11:26.985Z</time>
      </trkpt>
      <trkpt lat="39.48866333" lon="2.48092">
        <ele>25.0</ele>
        <time>2022-05-14T16:11:27.985Z</time>
      </trkpt>
      <trkpt lat="39.48871667" lon="2.48092333">
        <ele>25.0</ele>
        <time>2022-05-14T16:11:28.985Z</time>
      </trkpt>
      <trkpt lat="39.48877" lon="2.48092667">
        <ele>25.0</ele>
        <time>2022-05-14T16:11:29.985Z</time>
      </trkpt>
      <trkpt lat="39.48882333" lon="2.48093167">
        <ele>25.0</ele>
        <time>2022-05-14T16:11:30.985Z</time>
      </trkpt>
      <trkpt lat="39.48887333" lon="2.48093667">
        <ele>25.0</ele>
        <time>2022-05-14T16:11:31.985Z</time>
      </trkpt>
      <trkpt lat="39.488925" lon="2.48094">
        <ele>26.0</ele>
        <time>2022-05-14T16:11:32.985Z</time>
      </trkpt>
      <trkpt lat="39.48897167" lon="2.48094167">
        <ele>26.0</ele>
        <time>2022-05-14T16:11:33.984Z</time>
      </trkpt>
      <trkpt lat="39.489015" lon="2.48093833">
        <ele>26.0</ele>
        <time>2022-05-14T16:11:34.985Z</time>
      </trkpt>
      <trkpt lat="39.48905667" lon="2.48093167">
        <ele>25.0</ele>
        <time>2022-05-14T16:11:35.985Z</time>
      </trkpt>
      <trkpt lat="39.48909833" lon="2.480925">
        <ele>25.0</ele>
        <time>2022-05-14T16:11:36.985Z</time>
      </trkpt>
      <trkpt lat="39.48914333" lon="2.48092167">
        <ele>25.0</ele>
        <time>2022-05-14T16:11:37.985Z</time>
      </trkpt>
      <trkpt lat="39.48919" lon="2.480925">
        <ele>25.0</ele>
        <time>2022-05-14T16:11:38.985Z</time>
      </trkpt>
      <trkpt lat="39.48924167" lon="2.48093333">
        <ele>25.0</ele>
        <time>2022-05-14T16:11:39.985Z</time>
      </trkpt>
      <trkpt lat="39.48929333" lon="2.48094167">
        <ele>26.0</ele>
        <time>2022-05-14T16:11:40.985Z</time>
      </trkpt>
      <trkpt lat="39.48934833" lon="2.48095167">
        <ele>26.0</ele>
        <time>2022-05-14T16:11:41.984Z</time>
      </trkpt>
      <trkpt lat="39.48940333" lon="2.48096">
        <ele>26.0</ele>
        <time>2022-05-14T16:11:42.984Z</time>
      </trkpt>
      <trkpt lat="39.48945833" lon="2.48097">
        <ele>27.0</ele>
        <time>2022-05-14T16:11:43.984Z</time>
      </trkpt>
      <trkpt lat="39.48951667" lon="2.48097667">
        <ele>27.0</ele>
        <time>2022-05-14T16:11:44.985Z</time>
      </trkpt>
      <trkpt lat="39.48957333" lon="2.48098333">
        <ele>27.0</ele>
        <time>2022-05-14T16:11:45.985Z</time>
      </trkpt>
      <trkpt lat="39.48963167" lon="2.48098833">
        <ele>27.0</ele>
        <time>2022-05-14T16:11:46.984Z</time>
      </trkpt>
      <trkpt lat="39.48969" lon="2.48099">
        <ele>27.0</ele>
        <time>2022-05-14T16:11:47.985Z</time>
      </trkpt>
      <trkpt lat="39.48974833" lon="2.480995">
        <ele>27.0</ele>
        <time>2022-05-14T16:11:48.985Z</time>
      </trkpt>
      <trkpt lat="39.48980833" lon="2.481">
        <ele>27.0</ele>
        <time>2022-05-14T16:11:49.985Z</time>
      </trkpt>
      <trkpt lat="39.48986833" lon="2.48100167">
        <ele>26.0</ele>
        <time>2022-05-14T16:11:50.985Z</time>
      </trkpt>
      <trkpt lat="39.48993167" lon="2.48100667">
        <ele>26.0</ele>
        <time>2022-05-14T16:11:51.985Z</time>
      </trkpt>
      <trkpt lat="39.48999" lon="2.48101167">
        <ele>26.0</ele>
        <time>2022-05-14T16:11:52.984Z</time>
      </trkpt>
      <trkpt lat="39.49005167" lon="2.48101667">
        <ele>25.0</ele>
        <time>2022-05-14T16:11:53.985Z</time>
      </trkpt>
      <trkpt lat="39.49011333" lon="2.48102167">
        <ele>25.0</ele>
        <time>2022-05-14T16:11:54.985Z</time>
      </trkpt>
      <trkpt lat="39.49017667" lon="2.481025">
        <ele>25.0</ele>
        <time>2022-05-14T16:11:55.985Z</time>
      </trkpt>
      <trkpt lat="39.49023667" lon="2.48102833">
        <ele>24.0</ele>
        <time>2022-05-14T16:11:56.985Z</time>
      </trkpt>
      <trkpt lat="39.4903" lon="2.48103333">
        <ele>24.0</ele>
        <time>2022-05-14T16:11:57.985Z</time>
      </trkpt>
      <trkpt lat="39.49036167" lon="2.48103833">
        <ele>24.0</ele>
        <time>2022-05-14T16:11:58.985Z</time>
      </trkpt>
      <trkpt lat="39.49042333" lon="2.48104167">
        <ele>23.0</ele>
        <time>2022-05-14T16:11:59.985Z</time>
      </trkpt>
      <trkpt lat="39.49048667" lon="2.48104667">
        <ele>23.0</ele>
        <time>2022-05-14T16:12:00.985Z</time>
      </trkpt>
      <trkpt lat="39.49054833" lon="2.48105167">
        <ele>22.0</ele>
        <time>2022-05-14T16:12:01.985Z</time>
      </trkpt>
      <trkpt lat="39.49060667" lon="2.481055">
        <ele>22.0</ele>
        <time>2022-05-14T16:12:02.984Z</time>
      </trkpt>
      <trkpt lat="39.490665" lon="2.48106">
        <ele>22.0</ele>
        <time>2022-05-14T16:12:03.985Z</time>
      </trkpt>
      <trkpt lat="39.490725" lon="2.48106667">
        <ele>22.0</ele>
        <time>2022-05-14T16:12:04.985Z</time>
      </trkpt>
      <trkpt lat="39.49078333" lon="2.48107">
        <ele>22.0</ele>
        <time>2022-05-14T16:12:05.985Z</time>
      </trkpt>
      <trkpt lat="39.49084167" lon="2.481075">
        <ele>21.0</ele>
        <time>2022-05-14T16:12:06.984Z</time>
      </trkpt>
      <trkpt lat="39.49089833" lon="2.48107833">
        <ele>21.0</ele>
        <time>2022-05-14T16:12:07.984Z</time>
      </trkpt>
      <trkpt lat="39.490955" lon="2.48108167">
        <ele>21.0</ele>
        <time>2022-05-14T16:12:08.985Z</time>
      </trkpt>
      <trkpt lat="39.491015" lon="2.48108667">
        <ele>21.0</ele>
        <time>2022-05-14T16:12:09.985Z</time>
      </trkpt>
      <trkpt lat="39.49107167" lon="2.48109167">
        <ele>21.0</ele>
        <time>2022-05-14T16:12:10.984Z</time>
      </trkpt>
      <trkpt lat="39.49113" lon="2.481095">
        <ele>21.0</ele>
        <time>2022-05-14T16:12:11.985Z</time>
      </trkpt>
      <trkpt lat="39.49118667" lon="2.48109667">
        <ele>20.0</ele>
        <time>2022-05-14T16:12:12.984Z</time>
      </trkpt>
      <trkpt lat="39.49124333" lon="2.4811">
        <ele>20.0</ele>
        <time>2022-05-14T16:12:13.984Z</time>
      </trkpt>
      <trkpt lat="39.49129833" lon="2.481105">
        <ele>20.0</ele>
        <time>2022-05-14T16:12:14.984Z</time>
      </trkpt>
      <trkpt lat="39.491355" lon="2.48111167">
        <ele>20.0</ele>
        <time>2022-05-14T16:12:15.985Z</time>
      </trkpt>
      <trkpt lat="39.49141" lon="2.48111833">
        <ele>20.0</ele>
        <time>2022-05-14T16:12:16.985Z</time>
      </trkpt>
      <trkpt lat="39.49146667" lon="2.48112167">
        <ele>20.0</ele>
        <time>2022-05-14T16:12:17.985Z</time>
      </trkpt>
      <trkpt lat="39.49152167" lon="2.48112667">
        <ele>20.0</ele>
        <time>2022-05-14T16:12:18.985Z</time>
      </trkpt>
      <trkpt lat="39.49157667" lon="2.48113">
        <ele>20.0</ele>
        <time>2022-05-14T16:12:19.985Z</time>
      </trkpt>
      <trkpt lat="39.491635" lon="2.481135">
        <ele>20.0</ele>
        <time>2022-05-14T16:12:20.985Z</time>
      </trkpt>
      <trkpt lat="39.49169" lon="2.48113833">
        <ele>20.0</ele>
        <time>2022-05-14T16:12:21.985Z</time>
      </trkpt>
      <trkpt lat="39.49174333" lon="2.48114333">
        <ele>20.0</ele>
        <time>2022-05-14T16:12:22.985Z</time>
      </trkpt>
      <trkpt lat="39.49179667" lon="2.48114667">
        <ele>20.0</ele>
        <time>2022-05-14T16:12:23.985Z</time>
      </trkpt>
      <trkpt lat="39.49185" lon="2.48115">
        <ele>20.0</ele>
        <time>2022-05-14T16:12:24.985Z</time>
      </trkpt>
      <trkpt lat="39.49190167" lon="2.48115167">
        <ele>20.0</ele>
        <time>2022-05-14T16:12:25.985Z</time>
      </trkpt>
      <trkpt lat="39.49195333" lon="2.48115333">
        <ele>20.0</ele>
        <time>2022-05-14T16:12:26.985Z</time>
      </trkpt>
      <trkpt lat="39.49200167" lon="2.48115667">
        <ele>20.0</ele>
        <time>2022-05-14T16:12:27.984Z</time>
      </trkpt>
      <trkpt lat="39.49204167" lon="2.48117">
        <ele>20.0</ele>
        <time>2022-05-14T16:12:28.984Z</time>
      </trkpt>
      <trkpt lat="39.49206833" lon="2.48119667">
        <ele>19.0</ele>
        <time>2022-05-14T16:12:29.984Z</time>
      </trkpt>
      <trkpt lat="39.49208167" lon="2.48123">
        <ele>19.0</ele>
        <time>2022-05-14T16:12:30.984Z</time>
      </trkpt>
      <trkpt lat="39.492085" lon="2.48127">
        <ele>19.0</ele>
        <time>2022-05-14T16:12:31.985Z</time>
      </trkpt>
      <trkpt lat="39.49208167" lon="2.48131">
        <ele>20.0</ele>
        <time>2022-05-14T16:12:32.985Z</time>
      </trkpt>
      <trkpt lat="39.49207333" lon="2.48135167">
        <ele>20.0</ele>
        <time>2022-05-14T16:12:33.985Z</time>
      </trkpt>
      <trkpt lat="39.49206333" lon="2.48138833">
        <ele>20.0</ele>
        <time>2022-05-14T16:12:34.985Z</time>
      </trkpt>
      <trkpt lat="39.49205" lon="2.48142333">
        <ele>20.0</ele>
        <time>2022-05-14T16:12:35.985Z</time>
      </trkpt>
      <trkpt lat="39.49204167" lon="2.48145833">
        <ele>20.0</ele>
        <time>2022-05-14T16:12:36.984Z</time>
      </trkpt>
      <trkpt lat="39.49202833" lon="2.481495">
        <ele>20.0</ele>
        <time>2022-05-14T16:12:37.985Z</time>
      </trkpt>
      <trkpt lat="39.49201333" lon="2.481525">
        <ele>20.0</ele>
        <time>2022-05-14T16:12:38.985Z</time>
      </trkpt>
      <trkpt lat="39.491995" lon="2.481555">
        <ele>21.0</ele>
        <time>2022-05-14T16:12:39.985Z</time>
      </trkpt>
      <trkpt lat="39.491975" lon="2.48158833">
        <ele>21.0</ele>
        <time>2022-05-14T16:12:40.984Z</time>
      </trkpt>
      <trkpt lat="39.49195333" lon="2.481625">
        <ele>22.0</ele>
        <time>2022-05-14T16:12:41.985Z</time>
      </trkpt>
      <trkpt lat="39.49193167" lon="2.48166167">
        <ele>22.0</ele>
        <time>2022-05-14T16:12:42.985Z</time>
      </trkpt>
      <trkpt lat="39.49191" lon="2.48170167">
        <ele>22.0</ele>
        <time>2022-05-14T16:12:43.985Z</time>
      </trkpt>
      <trkpt lat="39.49188667" lon="2.48174167">
        <ele>22.0</ele>
        <time>2022-05-14T16:12:44.985Z</time>
      </trkpt>
      <trkpt lat="39.491865" lon="2.48178333">
        <ele>22.0</ele>
        <time>2022-05-14T16:12:45.984Z</time>
      </trkpt>
      <trkpt lat="39.491845" lon="2.48182333">
        <ele>23.0</ele>
        <time>2022-05-14T16:12:46.985Z</time>
      </trkpt>
      <trkpt lat="39.49182167" lon="2.48186167">
        <ele>23.0</ele>
        <time>2022-05-14T16:12:47.985Z</time>
      </trkpt>
      <trkpt lat="39.49179833" lon="2.48190167">
        <ele>23.0</ele>
        <time>2022-05-14T16:12:48.985Z</time>
      </trkpt>
      <trkpt lat="39.491775" lon="2.48194167">
        <ele>23.0</ele>
        <time>2022-05-14T16:12:49.985Z</time>
      </trkpt>
      <trkpt lat="39.49175" lon="2.48198167">
        <ele>24.0</ele>
        <time>2022-05-14T16:12:50.985Z</time>
      </trkpt>
      <trkpt lat="39.49172667" lon="2.48202333">
        <ele>24.0</ele>
        <time>2022-05-14T16:12:51.985Z</time>
      </trkpt>
      <trkpt lat="39.49170667" lon="2.48206333">
        <ele>25.0</ele>
        <time>2022-05-14T16:12:52.984Z</time>
      </trkpt>
      <trkpt lat="39.491685" lon="2.48210833">
        <ele>25.0</ele>
        <time>2022-05-14T16:12:53.985Z</time>
      </trkpt>
      <trkpt lat="39.49166167" lon="2.48215333">
        <ele>26.0</ele>
        <time>2022-05-14T16:12:54.985Z</time>
      </trkpt>
      <trkpt lat="39.491635" lon="2.4822">
        <ele>27.0</ele>
        <time>2022-05-14T16:12:55.984Z</time>
      </trkpt>
      <trkpt lat="39.49160833" lon="2.48225167">
        <ele>27.0</ele>
        <time>2022-05-14T16:12:56.985Z</time>
      </trkpt>
      <trkpt lat="39.49158333" lon="2.48230167">
        <ele>28.0</ele>
        <time>2022-05-14T16:12:57.985Z</time>
      </trkpt>
      <trkpt lat="39.49155833" lon="2.48235167">
        <ele>28.0</ele>
        <time>2022-05-14T16:12:58.985Z</time>
      </trkpt>
      <trkpt lat="39.49153167" lon="2.48239833">
        <ele>27.0</ele>
        <time>2022-05-14T16:12:59.985Z</time>
      </trkpt>
      <trkpt lat="39.49150667" lon="2.48244333">
        <ele>27.0</ele>
        <time>2022-05-14T16:13:00.984Z</time>
      </trkpt>
      <trkpt lat="39.491485" lon="2.48249333">
        <ele>27.0</ele>
        <time>2022-05-14T16:13:01.984Z</time>
      </trkpt>
      <trkpt lat="39.49145833" lon="2.48254">
        <ele>27.0</ele>
        <time>2022-05-14T16:13:02.985Z</time>
      </trkpt>
      <trkpt lat="39.49143167" lon="2.48258667">
        <ele>27.0</ele>
        <time>2022-05-14T16:13:03.984Z</time>
      </trkpt>
      <trkpt lat="39.49140667" lon="2.482635">
        <ele>27.0</ele>
        <time>2022-05-14T16:13:04.984Z</time>
      </trkpt>
      <trkpt lat="39.49138" lon="2.48268333">
        <ele>27.0</ele>
        <time>2022-05-14T16:13:05.984Z</time>
      </trkpt>
      <trkpt lat="39.491355" lon="2.48273167">
        <ele>27.0</ele>
        <time>2022-05-14T16:13:06.985Z</time>
      </trkpt>
      <trkpt lat="39.49132833" lon="2.48278">
        <ele>26.0</ele>
        <time>2022-05-14T16:13:07.984Z</time>
      </trkpt>
      <trkpt lat="39.49130333" lon="2.48282667">
        <ele>26.0</ele>
        <time>2022-05-14T16:13:08.984Z</time>
      </trkpt>
      <trkpt lat="39.49127833" lon="2.48287333">
        <ele>26.0</ele>
        <time>2022-05-14T16:13:09.985Z</time>
      </trkpt>
      <trkpt lat="39.49125" lon="2.48291833">
        <ele>26.0</ele>
        <time>2022-05-14T16:13:10.985Z</time>
      </trkpt>
      <trkpt lat="39.49122333" lon="2.48296333">
        <ele>26.0</ele>
        <time>2022-05-14T16:13:11.985Z</time>
      </trkpt>
      <trkpt lat="39.491195" lon="2.48300667">
        <ele>26.0</ele>
        <time>2022-05-14T16:13:12.984Z</time>
      </trkpt>
      <trkpt lat="39.49116833" lon="2.48305167">
        <ele>26.0</ele>
        <time>2022-05-14T16:13:13.985Z</time>
      </trkpt>
      <trkpt lat="39.49114167" lon="2.4831">
        <ele>26.0</ele>
        <time>2022-05-14T16:13:14.985Z</time>
      </trkpt>
      <trkpt lat="39.49111833" lon="2.48314833">
        <ele>26.0</ele>
        <time>2022-05-14T16:13:15.985Z</time>
      </trkpt>
      <trkpt lat="39.49109333" lon="2.48319833">
        <ele>27.0</ele>
        <time>2022-05-14T16:13:16.985Z</time>
      </trkpt>
      <trkpt lat="39.49107" lon="2.48324333">
        <ele>27.0</ele>
        <time>2022-05-14T16:13:17.984Z</time>
      </trkpt>
      <trkpt lat="39.49104833" lon="2.48328833">
        <ele>27.0</ele>
        <time>2022-05-14T16:13:18.985Z</time>
      </trkpt>
      <trkpt lat="39.49102167" lon="2.48333333">
        <ele>27.0</ele>
        <time>2022-05-14T16:13:19.984Z</time>
      </trkpt>
      <trkpt lat="39.490995" lon="2.48337833">
        <ele>27.0</ele>
        <time>2022-05-14T16:13:20.985Z</time>
      </trkpt>
      <trkpt lat="39.49097167" lon="2.48342333">
        <ele>27.0</ele>
        <time>2022-05-14T16:13:21.985Z</time>
      </trkpt>
      <trkpt lat="39.49094667" lon="2.48347">
        <ele>27.0</ele>
        <time>2022-05-14T16:13:22.985Z</time>
      </trkpt>
      <trkpt lat="39.49092167" lon="2.483515">
        <ele>27.0</ele>
        <time>2022-05-14T16:13:23.985Z</time>
      </trkpt>
      <trkpt lat="39.49089667" lon="2.48355833">
        <ele>27.0</ele>
        <time>2022-05-14T16:13:24.985Z</time>
      </trkpt>
      <trkpt lat="39.490875" lon="2.48359833">
        <ele>28.0</ele>
        <time>2022-05-14T16:13:25.985Z</time>
      </trkpt>
      <trkpt lat="39.49086333" lon="2.48363667">
        <ele>28.0</ele>
        <time>2022-05-14T16:13:26.984Z</time>
      </trkpt>
      <trkpt lat="39.49086333" lon="2.48367333">
        <ele>28.0</ele>
        <time>2022-05-14T16:13:27.985Z</time>
      </trkpt>
      <trkpt lat="39.49087167" lon="2.48370333">
        <ele>27.0</ele>
        <time>2022-05-14T16:13:28.985Z</time>
      </trkpt>
      <trkpt lat="39.49088833" lon="2.48373">
        <ele>26.0</ele>
        <time>2022-05-14T16:13:29.985Z</time>
      </trkpt>
      <trkpt lat="39.49091333" lon="2.48375">
        <ele>26.0</ele>
        <time>2022-05-14T16:13:30.984Z</time>
      </trkpt>
      <trkpt lat="39.49094" lon="2.48376833">
        <ele>26.0</ele>
        <time>2022-05-14T16:13:31.985Z</time>
      </trkpt>
      <trkpt lat="39.49096667" lon="2.48379333">
        <ele>25.0</ele>
        <time>2022-05-14T16:13:32.985Z</time>
      </trkpt>
      <trkpt lat="39.49098333" lon="2.48382833">
        <ele>25.0</ele>
        <time>2022-05-14T16:13:33.984Z</time>
      </trkpt>
      <trkpt lat="39.49099167" lon="2.48386667">
        <ele>25.0</ele>
        <time>2022-05-14T16:13:34.985Z</time>
      </trkpt>
      <trkpt lat="39.49099" lon="2.48390667">
        <ele>25.0</ele>
        <time>2022-05-14T16:13:35.984Z</time>
      </trkpt>
      <trkpt lat="39.49098333" lon="2.48394667">
        <ele>25.0</ele>
        <time>2022-05-14T16:13:36.984Z</time>
      </trkpt>
      <trkpt lat="39.49097167" lon="2.48398833">
        <ele>25.0</ele>
        <time>2022-05-14T16:13:37.985Z</time>
      </trkpt>
      <trkpt lat="39.49096167" lon="2.48403">
        <ele>25.0</ele>
        <time>2022-05-14T16:13:38.985Z</time>
      </trkpt>
      <trkpt lat="39.490945" lon="2.48407167">
        <ele>25.0</ele>
        <time>2022-05-14T16:13:39.984Z</time>
      </trkpt>
      <trkpt lat="39.49093167" lon="2.48411333">
        <ele>25.0</ele>
        <time>2022-05-14T16:13:40.985Z</time>
      </trkpt>
      <trkpt lat="39.49091833" lon="2.48415333">
        <ele>25.0</ele>
        <time>2022-05-14T16:13:41.984Z</time>
      </trkpt>
      <trkpt lat="39.490905" lon="2.48419667">
        <ele>25.0</ele>
        <time>2022-05-14T16:13:42.985Z</time>
      </trkpt>
      <trkpt lat="39.49089" lon="2.48424">
        <ele>25.0</ele>
        <time>2022-05-14T16:13:43.985Z</time>
      </trkpt>
      <trkpt lat="39.490875" lon="2.484285">
        <ele>24.0</ele>
        <time>2022-05-14T16:13:44.985Z</time>
      </trkpt>
      <trkpt lat="39.49086333" lon="2.48432833">
        <ele>24.0</ele>
        <time>2022-05-14T16:13:45.985Z</time>
      </trkpt>
      <trkpt lat="39.49085" lon="2.48437667">
        <ele>25.0</ele>
        <time>2022-05-14T16:13:46.984Z</time>
      </trkpt>
      <trkpt lat="39.490835" lon="2.48442167">
        <ele>25.0</ele>
        <time>2022-05-14T16:13:47.984Z</time>
      </trkpt>
      <trkpt lat="39.49082167" lon="2.48447">
        <ele>25.0</ele>
        <time>2022-05-14T16:13:48.985Z</time>
      </trkpt>
      <trkpt lat="39.49080833" lon="2.48451667">
        <ele>25.0</ele>
        <time>2022-05-14T16:13:49.985Z</time>
      </trkpt>
      <trkpt lat="39.490795" lon="2.484565">
        <ele>25.0</ele>
        <time>2022-05-14T16:13:50.984Z</time>
      </trkpt>
      <trkpt lat="39.49078" lon="2.48461333">
        <ele>25.0</ele>
        <time>2022-05-14T16:13:51.984Z</time>
      </trkpt>
      <trkpt lat="39.49076833" lon="2.48466167">
        <ele>25.0</ele>
        <time>2022-05-14T16:13:52.985Z</time>
      </trkpt>
      <trkpt lat="39.490755" lon="2.48470833">
        <ele>25.0</ele>
        <time>2022-05-14T16:13:53.984Z</time>
      </trkpt>
      <trkpt lat="39.490745" lon="2.484755">
        <ele>25.0</ele>
        <time>2022-05-14T16:13:54.985Z</time>
      </trkpt>
      <trkpt lat="39.49072833" lon="2.48480167">
        <ele>25.0</ele>
        <time>2022-05-14T16:13:55.985Z</time>
      </trkpt>
      <trkpt lat="39.49071167" lon="2.48484667">
        <ele>25.0</ele>
        <time>2022-05-14T16:13:56.984Z</time>
      </trkpt>
      <trkpt lat="39.49069333" lon="2.484895">
        <ele>25.0</ele>
        <time>2022-05-14T16:13:57.985Z</time>
      </trkpt>
      <trkpt lat="39.490675" lon="2.48494333">
        <ele>25.0</ele>
        <time>2022-05-14T16:13:58.984Z</time>
      </trkpt>
      <trkpt lat="39.49066" lon="2.484995">
        <ele>25.0</ele>
        <time>2022-05-14T16:13:59.985Z</time>
      </trkpt>
      <trkpt lat="39.49064333" lon="2.48504667">
        <ele>26.0</ele>
        <time>2022-05-14T16:14:00.985Z</time>
      </trkpt>
      <trkpt lat="39.49062833" lon="2.4851">
        <ele>26.0</ele>
        <time>2022-05-14T16:14:01.985Z</time>
      </trkpt>
      <trkpt lat="39.49061667" lon="2.485155">
        <ele>26.0</ele>
        <time>2022-05-14T16:14:02.984Z</time>
      </trkpt>
      <trkpt lat="39.49060667" lon="2.48521">
        <ele>26.0</ele>
        <time>2022-05-14T16:14:03.985Z</time>
      </trkpt>
      <trkpt lat="39.49060167" lon="2.48526667">
        <ele>25.0</ele>
        <time>2022-05-14T16:14:04.985Z</time>
      </trkpt>
      <trkpt lat="39.4906" lon="2.48532333">
        <ele>25.0</ele>
        <time>2022-05-14T16:14:05.985Z</time>
      </trkpt>
      <trkpt lat="39.49060167" lon="2.48538167">
        <ele>25.0</ele>
        <time>2022-05-14T16:14:06.984Z</time>
      </trkpt>
      <trkpt lat="39.49060667" lon="2.48543833">
        <ele>24.0</ele>
        <time>2022-05-14T16:14:07.984Z</time>
      </trkpt>
      <trkpt lat="39.49061167" lon="2.48549667">
        <ele>24.0</ele>
        <time>2022-05-14T16:14:08.984Z</time>
      </trkpt>
      <trkpt lat="39.49061833" lon="2.48555667">
        <ele>24.0</ele>
        <time>2022-05-14T16:14:09.984Z</time>
      </trkpt>
      <trkpt lat="39.490625" lon="2.485615">
        <ele>24.0</ele>
        <time>2022-05-14T16:14:10.985Z</time>
      </trkpt>
      <trkpt lat="39.49063333" lon="2.485675">
        <ele>24.0</ele>
        <time>2022-05-14T16:14:11.985Z</time>
      </trkpt>
      <trkpt lat="39.49064" lon="2.485735">
        <ele>24.0</ele>
        <time>2022-05-14T16:14:12.984Z</time>
      </trkpt>
      <trkpt lat="39.49064833" lon="2.48579667">
        <ele>24.0</ele>
        <time>2022-05-14T16:14:13.984Z</time>
      </trkpt>
      <trkpt lat="39.49065667" lon="2.48586167">
        <ele>25.0</ele>
        <time>2022-05-14T16:14:14.984Z</time>
      </trkpt>
      <trkpt lat="39.490665" lon="2.485925">
        <ele>25.0</ele>
        <time>2022-05-14T16:14:15.985Z</time>
      </trkpt>
      <trkpt lat="39.49067333" lon="2.48598833">
        <ele>26.0</ele>
        <time>2022-05-14T16:14:16.985Z</time>
      </trkpt>
      <trkpt lat="39.49068167" lon="2.48605167">
        <ele>26.0</ele>
        <time>2022-05-14T16:14:17.985Z</time>
      </trkpt>
      <trkpt lat="39.49069" lon="2.48611333">
        <ele>26.0</ele>
        <time>2022-05-14T16:14:18.984Z</time>
      </trkpt>
      <trkpt lat="39.49069667" lon="2.48617833">
        <ele>26.0</ele>
        <time>2022-05-14T16:14:19.984Z</time>
      </trkpt>
      <trkpt lat="39.490705" lon="2.48624167">
        <ele>26.0</ele>
        <time>2022-05-14T16:14:20.985Z</time>
      </trkpt>
      <trkpt lat="39.49071333" lon="2.48630833">
        <ele>26.0</ele>
        <time>2022-05-14T16:14:21.985Z</time>
      </trkpt>
      <trkpt lat="39.49072" lon="2.48637333">
        <ele>26.0</ele>
        <time>2022-05-14T16:14:22.985Z</time>
      </trkpt>
      <trkpt lat="39.49072667" lon="2.48643667">
        <ele>26.0</ele>
        <time>2022-05-14T16:14:23.985Z</time>
      </trkpt>
      <trkpt lat="39.49073333" lon="2.48650167">
        <ele>26.0</ele>
        <time>2022-05-14T16:14:24.985Z</time>
      </trkpt>
      <trkpt lat="39.49074" lon="2.486565">
        <ele>26.0</ele>
        <time>2022-05-14T16:14:25.985Z</time>
      </trkpt>
      <trkpt lat="39.49074833" lon="2.48663">
        <ele>25.0</ele>
        <time>2022-05-14T16:14:26.985Z</time>
      </trkpt>
      <trkpt lat="39.490755" lon="2.48669667">
        <ele>25.0</ele>
        <time>2022-05-14T16:14:27.985Z</time>
      </trkpt>
      <trkpt lat="39.49076167" lon="2.48675833">
        <ele>25.0</ele>
        <time>2022-05-14T16:14:28.985Z</time>
      </trkpt>
      <trkpt lat="39.49076833" lon="2.486825">
        <ele>25.0</ele>
        <time>2022-05-14T16:14:29.985Z</time>
      </trkpt>
      <trkpt lat="39.49077333" lon="2.48688833">
        <ele>25.0</ele>
        <time>2022-05-14T16:14:30.985Z</time>
      </trkpt>
      <trkpt lat="39.49077833" lon="2.48695167">
        <ele>25.0</ele>
        <time>2022-05-14T16:14:31.984Z</time>
      </trkpt>
      <trkpt lat="39.490785" lon="2.487015">
        <ele>25.0</ele>
        <time>2022-05-14T16:14:32.985Z</time>
      </trkpt>
      <trkpt lat="39.49079333" lon="2.48707833">
        <ele>25.0</ele>
        <time>2022-05-14T16:14:33.985Z</time>
      </trkpt>
      <trkpt lat="39.4908" lon="2.48714333">
        <ele>25.0</ele>
        <time>2022-05-14T16:14:34.985Z</time>
      </trkpt>
      <trkpt lat="39.490805" lon="2.48720833">
        <ele>25.0</ele>
        <time>2022-05-14T16:14:35.984Z</time>
      </trkpt>
      <trkpt lat="39.49081333" lon="2.48727333">
        <ele>25.0</ele>
        <time>2022-05-14T16:14:36.984Z</time>
      </trkpt>
      <trkpt lat="39.49082167" lon="2.48733833">
        <ele>25.0</ele>
        <time>2022-05-14T16:14:37.985Z</time>
      </trkpt>
      <trkpt lat="39.49083167" lon="2.48740167">
        <ele>24.0</ele>
        <time>2022-05-14T16:14:38.984Z</time>
      </trkpt>
      <trkpt lat="39.49084" lon="2.48746667">
        <ele>24.0</ele>
        <time>2022-05-14T16:14:39.985Z</time>
      </trkpt>
      <trkpt lat="39.49085" lon="2.48753">
        <ele>24.0</ele>
        <time>2022-05-14T16:14:40.985Z</time>
      </trkpt>
      <trkpt lat="39.49085833" lon="2.48759333">
        <ele>24.0</ele>
        <time>2022-05-14T16:14:41.985Z</time>
      </trkpt>
      <trkpt lat="39.490865" lon="2.48766">
        <ele>24.0</ele>
        <time>2022-05-14T16:14:42.985Z</time>
      </trkpt>
      <trkpt lat="39.49087167" lon="2.487725">
        <ele>24.0</ele>
        <time>2022-05-14T16:14:43.985Z</time>
      </trkpt>
      <trkpt lat="39.49088" lon="2.48779167">
        <ele>24.0</ele>
        <time>2022-05-14T16:14:44.985Z</time>
      </trkpt>
      <trkpt lat="39.49088667" lon="2.48785667">
        <ele>24.0</ele>
        <time>2022-05-14T16:14:45.985Z</time>
      </trkpt>
      <trkpt lat="39.49089333" lon="2.48792167">
        <ele>24.0</ele>
        <time>2022-05-14T16:14:46.985Z</time>
      </trkpt>
      <trkpt lat="39.4909" lon="2.48798833">
        <ele>24.0</ele>
        <time>2022-05-14T16:14:47.985Z</time>
      </trkpt>
      <trkpt lat="39.490905" lon="2.488055">
        <ele>24.0</ele>
        <time>2022-05-14T16:14:48.985Z</time>
      </trkpt>
      <trkpt lat="39.49091" lon="2.48812">
        <ele>23.0</ele>
        <time>2022-05-14T16:14:49.984Z</time>
      </trkpt>
      <trkpt lat="39.49091667" lon="2.48818833">
        <ele>22.0</ele>
        <time>2022-05-14T16:14:50.984Z</time>
      </trkpt>
      <trkpt lat="39.49092333" lon="2.48825667">
        <ele>22.0</ele>
        <time>2022-05-14T16:14:51.984Z</time>
      </trkpt>
      <trkpt lat="39.49093167" lon="2.48832667">
        <ele>22.0</ele>
        <time>2022-05-14T16:14:52.984Z</time>
      </trkpt>
      <trkpt lat="39.49094" lon="2.488395">
        <ele>22.0</ele>
        <time>2022-05-14T16:14:53.984Z</time>
      </trkpt>
      <trkpt lat="39.49094667" lon="2.488465">
        <ele>22.0</ele>
        <time>2022-05-14T16:14:54.984Z</time>
      </trkpt>
      <trkpt lat="39.49095167" lon="2.48853333">
        <ele>23.0</ele>
        <time>2022-05-14T16:14:55.984Z</time>
      </trkpt>
      <trkpt lat="39.49095667" lon="2.48859833">
        <ele>23.0</ele>
        <time>2022-05-14T16:14:56.984Z</time>
      </trkpt>
      <trkpt lat="39.490965" lon="2.48866167">
        <ele>23.0</ele>
        <time>2022-05-14T16:14:57.984Z</time>
      </trkpt>
      <trkpt lat="39.49097167" lon="2.48872667">
        <ele>22.0</ele>
        <time>2022-05-14T16:14:58.984Z</time>
      </trkpt>
      <trkpt lat="39.49098" lon="2.48879167">
        <ele>23.0</ele>
        <time>2022-05-14T16:14:59.985Z</time>
      </trkpt>
      <trkpt lat="39.49098833" lon="2.48885667">
        <ele>23.0</ele>
        <time>2022-05-14T16:15:00.984Z</time>
      </trkpt>
      <trkpt lat="39.490995" lon="2.48892">
        <ele>23.0</ele>
        <time>2022-05-14T16:15:01.984Z</time>
      </trkpt>
      <trkpt lat="39.49100167" lon="2.48898333">
        <ele>23.0</ele>
        <time>2022-05-14T16:15:02.984Z</time>
      </trkpt>
      <trkpt lat="39.49100833" lon="2.48905">
        <ele>23.0</ele>
        <time>2022-05-14T16:15:03.984Z</time>
      </trkpt>
      <trkpt lat="39.491015" lon="2.48911667">
        <ele>23.0</ele>
        <time>2022-05-14T16:15:04.984Z</time>
      </trkpt>
      <trkpt lat="39.49102167" lon="2.48918167">
        <ele>23.0</ele>
        <time>2022-05-14T16:15:05.984Z</time>
      </trkpt>
      <trkpt lat="39.49102833" lon="2.48924667">
        <ele>23.0</ele>
        <time>2022-05-14T16:15:06.985Z</time>
      </trkpt>
      <trkpt lat="39.491035" lon="2.48931167">
        <ele>22.0</ele>
        <time>2022-05-14T16:15:07.984Z</time>
      </trkpt>
      <trkpt lat="39.49104167" lon="2.48937833">
        <ele>22.0</ele>
        <time>2022-05-14T16:15:08.985Z</time>
      </trkpt>
      <trkpt lat="39.49104833" lon="2.489445">
        <ele>22.0</ele>
        <time>2022-05-14T16:15:09.984Z</time>
      </trkpt>
      <trkpt lat="39.491055" lon="2.48951167">
        <ele>22.0</ele>
        <time>2022-05-14T16:15:10.984Z</time>
      </trkpt>
      <trkpt lat="39.49106167" lon="2.48958">
        <ele>22.0</ele>
        <time>2022-05-14T16:15:11.984Z</time>
      </trkpt>
      <trkpt lat="39.49107" lon="2.489645">
        <ele>22.0</ele>
        <time>2022-05-14T16:15:12.985Z</time>
      </trkpt>
      <trkpt lat="39.49108" lon="2.48971167">
        <ele>22.0</ele>
        <time>2022-05-14T16:15:13.984Z</time>
      </trkpt>
      <trkpt lat="39.49108667" lon="2.489775">
        <ele>22.0</ele>
        <time>2022-05-14T16:15:14.985Z</time>
      </trkpt>
      <trkpt lat="39.49109333" lon="2.48983667">
        <ele>22.0</ele>
        <time>2022-05-14T16:15:15.985Z</time>
      </trkpt>
      <trkpt lat="39.4911" lon="2.4899">
        <ele>21.0</ele>
        <time>2022-05-14T16:15:16.985Z</time>
      </trkpt>
      <trkpt lat="39.491105" lon="2.489965">
        <ele>21.0</ele>
        <time>2022-05-14T16:15:17.984Z</time>
      </trkpt>
      <trkpt lat="39.49111167" lon="2.49002833">
        <ele>21.0</ele>
        <time>2022-05-14T16:15:18.985Z</time>
      </trkpt>
      <trkpt lat="39.49111833" lon="2.490095">
        <ele>21.0</ele>
        <time>2022-05-14T16:15:19.985Z</time>
      </trkpt>
      <trkpt lat="39.49112333" lon="2.49016167">
        <ele>21.0</ele>
        <time>2022-05-14T16:15:20.985Z</time>
      </trkpt>
      <trkpt lat="39.49113" lon="2.49022667">
        <ele>21.0</ele>
        <time>2022-05-14T16:15:21.984Z</time>
      </trkpt>
      <trkpt lat="39.49113833" lon="2.49029333">
        <ele>21.0</ele>
        <time>2022-05-14T16:15:22.984Z</time>
      </trkpt>
      <trkpt lat="39.491145" lon="2.490355">
        <ele>21.0</ele>
        <time>2022-05-14T16:15:23.985Z</time>
      </trkpt>
      <trkpt lat="39.49115" lon="2.49041667">
        <ele>21.0</ele>
        <time>2022-05-14T16:15:24.985Z</time>
      </trkpt>
      <trkpt lat="39.491155" lon="2.49048">
        <ele>21.0</ele>
        <time>2022-05-14T16:15:25.985Z</time>
      </trkpt>
      <trkpt lat="39.49116333" lon="2.49054167">
        <ele>21.0</ele>
        <time>2022-05-14T16:15:26.984Z</time>
      </trkpt>
      <trkpt lat="39.49116833" lon="2.490605">
        <ele>21.0</ele>
        <time>2022-05-14T16:15:27.985Z</time>
      </trkpt>
      <trkpt lat="39.49117667" lon="2.490665">
        <ele>21.0</ele>
        <time>2022-05-14T16:15:28.985Z</time>
      </trkpt>
      <trkpt lat="39.491185" lon="2.49072667">
        <ele>21.0</ele>
        <time>2022-05-14T16:15:29.985Z</time>
      </trkpt>
      <trkpt lat="39.49119333" lon="2.49078833">
        <ele>21.0</ele>
        <time>2022-05-14T16:15:30.985Z</time>
      </trkpt>
      <trkpt lat="39.4912" lon="2.49085167">
        <ele>21.0</ele>
        <time>2022-05-14T16:15:31.985Z</time>
      </trkpt>
      <trkpt lat="39.49120833" lon="2.490915">
        <ele>22.0</ele>
        <time>2022-05-14T16:15:32.985Z</time>
      </trkpt>
      <trkpt lat="39.49121333" lon="2.49097667">
        <ele>22.0</ele>
        <time>2022-05-14T16:15:33.985Z</time>
      </trkpt>
      <trkpt lat="39.49122167" lon="2.49103833">
        <ele>22.0</ele>
        <time>2022-05-14T16:15:34.984Z</time>
      </trkpt>
      <trkpt lat="39.49122833" lon="2.49109667">
        <ele>22.0</ele>
        <time>2022-05-14T16:15:35.984Z</time>
      </trkpt>
      <trkpt lat="39.491235" lon="2.49115667">
        <ele>22.0</ele>
        <time>2022-05-14T16:15:36.985Z</time>
      </trkpt>
      <trkpt lat="39.49124" lon="2.49121833">
        <ele>23.0</ele>
        <time>2022-05-14T16:15:37.984Z</time>
      </trkpt>
      <trkpt lat="39.491245" lon="2.491275">
        <ele>23.0</ele>
        <time>2022-05-14T16:15:38.984Z</time>
      </trkpt>
      <trkpt lat="39.49125" lon="2.49133333">
        <ele>23.0</ele>
        <time>2022-05-14T16:15:39.984Z</time>
      </trkpt>
      <trkpt lat="39.491255" lon="2.49138833">
        <ele>23.0</ele>
        <time>2022-05-14T16:15:40.985Z</time>
      </trkpt>
      <trkpt lat="39.49126" lon="2.49144333">
        <ele>24.0</ele>
        <time>2022-05-14T16:15:41.985Z</time>
      </trkpt>
      <trkpt lat="39.49126667" lon="2.4915">
        <ele>24.0</ele>
        <time>2022-05-14T16:15:42.984Z</time>
      </trkpt>
      <trkpt lat="39.49127167" lon="2.49155167">
        <ele>24.0</ele>
        <time>2022-05-14T16:15:43.984Z</time>
      </trkpt>
      <trkpt lat="39.49127667" lon="2.49160667">
        <ele>24.0</ele>
        <time>2022-05-14T16:15:44.985Z</time>
      </trkpt>
      <trkpt lat="39.49128167" lon="2.49166">
        <ele>24.0</ele>
        <time>2022-05-14T16:15:45.985Z</time>
      </trkpt>
      <trkpt lat="39.491285" lon="2.49171167">
        <ele>24.0</ele>
        <time>2022-05-14T16:15:46.984Z</time>
      </trkpt>
      <trkpt lat="39.49129" lon="2.491765">
        <ele>24.0</ele>
        <time>2022-05-14T16:15:47.984Z</time>
      </trkpt>
      <trkpt lat="39.491295" lon="2.491815">
        <ele>24.0</ele>
        <time>2022-05-14T16:15:48.985Z</time>
      </trkpt>
      <trkpt lat="39.49129667" lon="2.491865">
        <ele>24.0</ele>
        <time>2022-05-14T16:15:49.985Z</time>
      </trkpt>
      <trkpt lat="39.4913" lon="2.49191333">
        <ele>23.0</ele>
        <time>2022-05-14T16:15:50.984Z</time>
      </trkpt>
      <trkpt lat="39.49130333" lon="2.49196167">
        <ele>23.0</ele>
        <time>2022-05-14T16:15:51.984Z</time>
      </trkpt>
      <trkpt lat="39.49130667" lon="2.49201167">
        <ele>23.0</ele>
        <time>2022-05-14T16:15:52.985Z</time>
      </trkpt>
      <trkpt lat="39.49131167" lon="2.49205667">
        <ele>23.0</ele>
        <time>2022-05-14T16:15:53.985Z</time>
      </trkpt>
      <trkpt lat="39.49132167" lon="2.49210167">
        <ele>23.0</ele>
        <time>2022-05-14T16:15:54.985Z</time>
      </trkpt>
      <trkpt lat="39.49133" lon="2.49214667">
        <ele>23.0</ele>
        <time>2022-05-14T16:15:55.985Z</time>
      </trkpt>
      <trkpt lat="39.49134" lon="2.49219167">
        <ele>24.0</ele>
        <time>2022-05-14T16:15:56.985Z</time>
      </trkpt>
      <trkpt lat="39.491345" lon="2.49223833">
        <ele>24.0</ele>
        <time>2022-05-14T16:15:57.985Z</time>
      </trkpt>
      <trkpt lat="39.49135167" lon="2.492285">
        <ele>24.0</ele>
        <time>2022-05-14T16:15:58.985Z</time>
      </trkpt>
      <trkpt lat="39.491355" lon="2.49233167">
        <ele>25.0</ele>
        <time>2022-05-14T16:15:59.985Z</time>
      </trkpt>
      <trkpt lat="39.49136167" lon="2.49237667">
        <ele>25.0</ele>
        <time>2022-05-14T16:16:00.984Z</time>
      </trkpt>
      <trkpt lat="39.49137" lon="2.49242">
        <ele>25.0</ele>
        <time>2022-05-14T16:16:01.985Z</time>
      </trkpt>
      <trkpt lat="39.49137833" lon="2.49247">
        <ele>26.0</ele>
        <time>2022-05-14T16:16:02.984Z</time>
      </trkpt>
      <trkpt lat="39.49138667" lon="2.49251667">
        <ele>26.0</ele>
        <time>2022-05-14T16:16:03.984Z</time>
      </trkpt>
      <trkpt lat="39.49139167" lon="2.49256167">
        <ele>26.0</ele>
        <time>2022-05-14T16:16:04.985Z</time>
      </trkpt>
      <trkpt lat="39.49139667" lon="2.49260833">
        <ele>26.0</ele>
        <time>2022-05-14T16:16:05.984Z</time>
      </trkpt>
      <trkpt lat="39.49140167" lon="2.49265333">
        <ele>26.0</ele>
        <time>2022-05-14T16:16:06.984Z</time>
      </trkpt>
      <trkpt lat="39.491405" lon="2.4927">
        <ele>26.0</ele>
        <time>2022-05-14T16:16:07.984Z</time>
      </trkpt>
      <trkpt lat="39.49141167" lon="2.49274667">
        <ele>26.0</ele>
        <time>2022-05-14T16:16:08.984Z</time>
      </trkpt>
      <trkpt lat="39.49141667" lon="2.49279333">
        <ele>26.0</ele>
        <time>2022-05-14T16:16:09.985Z</time>
      </trkpt>
      <trkpt lat="39.49142167" lon="2.49284">
        <ele>25.0</ele>
        <time>2022-05-14T16:16:10.985Z</time>
      </trkpt>
      <trkpt lat="39.491425" lon="2.49289">
        <ele>25.0</ele>
        <time>2022-05-14T16:16:11.985Z</time>
      </trkpt>
      <trkpt lat="39.49142833" lon="2.49294167">
        <ele>25.0</ele>
        <time>2022-05-14T16:16:12.984Z</time>
      </trkpt>
      <trkpt lat="39.49143167" lon="2.492995">
        <ele>25.0</ele>
        <time>2022-05-14T16:16:13.985Z</time>
      </trkpt>
      <trkpt lat="39.491435" lon="2.49305">
        <ele>25.0</ele>
        <time>2022-05-14T16:16:14.984Z</time>
      </trkpt>
      <trkpt lat="39.49143667" lon="2.493105">
        <ele>25.0</ele>
        <time>2022-05-14T16:16:15.985Z</time>
      </trkpt>
      <trkpt lat="39.49144333" lon="2.49316333">
        <ele>26.0</ele>
        <time>2022-05-14T16:16:16.985Z</time>
      </trkpt>
      <trkpt lat="39.49145167" lon="2.49322167">
        <ele>26.0</ele>
        <time>2022-05-14T16:16:17.985Z</time>
      </trkpt>
      <trkpt lat="39.49146167" lon="2.49328167">
        <ele>26.0</ele>
        <time>2022-05-14T16:16:18.984Z</time>
      </trkpt>
      <trkpt lat="39.49147" lon="2.49334167">
        <ele>26.0</ele>
        <time>2022-05-14T16:16:19.985Z</time>
      </trkpt>
      <trkpt lat="39.49148" lon="2.49339833">
        <ele>26.0</ele>
        <time>2022-05-14T16:16:20.984Z</time>
      </trkpt>
      <trkpt lat="39.49148667" lon="2.49345667">
        <ele>26.0</ele>
        <time>2022-05-14T16:16:21.985Z</time>
      </trkpt>
      <trkpt lat="39.49149167" lon="2.49351167">
        <ele>26.0</ele>
        <time>2022-05-14T16:16:22.985Z</time>
      </trkpt>
      <trkpt lat="39.49149333" lon="2.49356667">
        <ele>26.0</ele>
        <time>2022-05-14T16:16:23.985Z</time>
      </trkpt>
      <trkpt lat="39.49149833" lon="2.49361667">
        <ele>25.0</ele>
        <time>2022-05-14T16:16:24.985Z</time>
      </trkpt>
      <trkpt lat="39.49150833" lon="2.49366833">
        <ele>25.0</ele>
        <time>2022-05-14T16:16:25.985Z</time>
      </trkpt>
      <trkpt lat="39.49152" lon="2.49372">
        <ele>25.0</ele>
        <time>2022-05-14T16:16:26.985Z</time>
      </trkpt>
      <trkpt lat="39.49153" lon="2.49377">
        <ele>25.0</ele>
        <time>2022-05-14T16:16:27.985Z</time>
      </trkpt>
      <trkpt lat="39.491545" lon="2.49382">
        <ele>25.0</ele>
        <time>2022-05-14T16:16:28.984Z</time>
      </trkpt>
      <trkpt lat="39.49156" lon="2.49386833">
        <ele>25.0</ele>
        <time>2022-05-14T16:16:29.984Z</time>
      </trkpt>
      <trkpt lat="39.49157333" lon="2.49391833">
        <ele>26.0</ele>
        <time>2022-05-14T16:16:30.985Z</time>
      </trkpt>
      <trkpt lat="39.49159" lon="2.49396667">
        <ele>26.0</ele>
        <time>2022-05-14T16:16:31.984Z</time>
      </trkpt>
      <trkpt lat="39.491605" lon="2.49401167">
        <ele>26.0</ele>
        <time>2022-05-14T16:16:32.984Z</time>
      </trkpt>
      <trkpt lat="39.49161833" lon="2.49406">
        <ele>26.0</ele>
        <time>2022-05-14T16:16:33.985Z</time>
      </trkpt>
      <trkpt lat="39.49163167" lon="2.49410333">
        <ele>26.0</ele>
        <time>2022-05-14T16:16:34.984Z</time>
      </trkpt>
      <trkpt lat="39.49164167" lon="2.49414667">
        <ele>26.0</ele>
        <time>2022-05-14T16:16:35.985Z</time>
      </trkpt>
      <trkpt lat="39.49165167" lon="2.49418833">
        <ele>26.0</ele>
        <time>2022-05-14T16:16:36.985Z</time>
      </trkpt>
      <trkpt lat="39.49166333" lon="2.49422833">
        <ele>27.0</ele>
        <time>2022-05-14T16:16:37.985Z</time>
      </trkpt>
      <trkpt lat="39.49167667" lon="2.49427">
        <ele>27.0</ele>
        <time>2022-05-14T16:16:38.985Z</time>
      </trkpt>
      <trkpt lat="39.49168833" lon="2.49431">
        <ele>27.0</ele>
        <time>2022-05-14T16:16:39.985Z</time>
      </trkpt>
      <trkpt lat="39.4917" lon="2.49434833">
        <ele>28.0</ele>
        <time>2022-05-14T16:16:40.985Z</time>
      </trkpt>
      <trkpt lat="39.49171" lon="2.49438667">
        <ele>28.0</ele>
        <time>2022-05-14T16:16:41.984Z</time>
      </trkpt>
      <trkpt lat="39.49172333" lon="2.494425">
        <ele>28.0</ele>
        <time>2022-05-14T16:16:42.985Z</time>
      </trkpt>
      <trkpt lat="39.491735" lon="2.494465">
        <ele>27.0</ele>
        <time>2022-05-14T16:16:43.984Z</time>
      </trkpt>
      <trkpt lat="39.49174333" lon="2.49450667">
        <ele>27.0</ele>
        <time>2022-05-14T16:16:44.985Z</time>
      </trkpt>
      <trkpt lat="39.491755" lon="2.49454833">
        <ele>27.0</ele>
        <time>2022-05-14T16:16:45.985Z</time>
      </trkpt>
      <trkpt lat="39.49176667" lon="2.49459167">
        <ele>27.0</ele>
        <time>2022-05-14T16:16:46.984Z</time>
      </trkpt>
      <trkpt lat="39.49178" lon="2.49463667">
        <ele>28.0</ele>
        <time>2022-05-14T16:16:47.984Z</time>
      </trkpt>
      <trkpt lat="39.49179667" lon="2.49467833">
        <ele>28.0</ele>
        <time>2022-05-14T16:16:48.985Z</time>
      </trkpt>
      <trkpt lat="39.49181333" lon="2.49472">
        <ele>28.0</ele>
        <time>2022-05-14T16:16:49.984Z</time>
      </trkpt>
      <trkpt lat="39.49183167" lon="2.494765">
        <ele>29.0</ele>
        <time>2022-05-14T16:16:50.984Z</time>
      </trkpt>
      <trkpt lat="39.49185167" lon="2.49481333">
        <ele>29.0</ele>
        <time>2022-05-14T16:16:51.985Z</time>
      </trkpt>
      <trkpt lat="39.49187333" lon="2.49486167">
        <ele>30.0</ele>
        <time>2022-05-14T16:16:52.985Z</time>
      </trkpt>
      <trkpt lat="39.49189333" lon="2.49491">
        <ele>30.0</ele>
        <time>2022-05-14T16:16:53.984Z</time>
      </trkpt>
      <trkpt lat="39.49191333" lon="2.49496167">
        <ele>30.0</ele>
        <time>2022-05-14T16:16:54.984Z</time>
      </trkpt>
      <trkpt lat="39.49193" lon="2.495015">
        <ele>30.0</ele>
        <time>2022-05-14T16:16:55.984Z</time>
      </trkpt>
      <trkpt lat="39.49194333" lon="2.49507">
        <ele>30.0</ele>
        <time>2022-05-14T16:16:56.984Z</time>
      </trkpt>
      <trkpt lat="39.49195833" lon="2.49512667">
        <ele>30.0</ele>
        <time>2022-05-14T16:16:57.984Z</time>
      </trkpt>
      <trkpt lat="39.49197167" lon="2.49518167">
        <ele>29.0</ele>
        <time>2022-05-14T16:16:58.984Z</time>
      </trkpt>
      <trkpt lat="39.491985" lon="2.49523667">
        <ele>29.0</ele>
        <time>2022-05-14T16:16:59.984Z</time>
      </trkpt>
      <trkpt lat="39.49200333" lon="2.49529">
        <ele>29.0</ele>
        <time>2022-05-14T16:17:00.985Z</time>
      </trkpt>
      <trkpt lat="39.49201667" lon="2.49534333">
        <ele>28.0</ele>
        <time>2022-05-14T16:17:01.985Z</time>
      </trkpt>
      <trkpt lat="39.49202667" lon="2.495395">
        <ele>28.0</ele>
        <time>2022-05-14T16:17:02.984Z</time>
      </trkpt>
      <trkpt lat="39.49204" lon="2.495445">
        <ele>28.0</ele>
        <time>2022-05-14T16:17:03.984Z</time>
      </trkpt>
      <trkpt lat="39.49205333" lon="2.495495">
        <ele>27.0</ele>
        <time>2022-05-14T16:17:04.985Z</time>
      </trkpt>
      <trkpt lat="39.49206667" lon="2.49554667">
        <ele>27.0</ele>
        <time>2022-05-14T16:17:05.984Z</time>
      </trkpt>
      <trkpt lat="39.49208" lon="2.49559833">
        <ele>27.0</ele>
        <time>2022-05-14T16:17:06.985Z</time>
      </trkpt>
      <trkpt lat="39.49209333" lon="2.49564667">
        <ele>27.0</ele>
        <time>2022-05-14T16:17:07.984Z</time>
      </trkpt>
      <trkpt lat="39.49210667" lon="2.49569833">
        <ele>27.0</ele>
        <time>2022-05-14T16:17:08.985Z</time>
      </trkpt>
      <trkpt lat="39.49212" lon="2.49574667">
        <ele>27.0</ele>
        <time>2022-05-14T16:17:09.985Z</time>
      </trkpt>
      <trkpt lat="39.49213167" lon="2.49579667">
        <ele>28.0</ele>
        <time>2022-05-14T16:17:10.985Z</time>
      </trkpt>
      <trkpt lat="39.49214667" lon="2.49584833">
        <ele>28.0</ele>
        <time>2022-05-14T16:17:11.985Z</time>
      </trkpt>
      <trkpt lat="39.49216333" lon="2.4959">
        <ele>28.0</ele>
        <time>2022-05-14T16:17:12.985Z</time>
      </trkpt>
      <trkpt lat="39.49217833" lon="2.49595333">
        <ele>28.0</ele>
        <time>2022-05-14T16:17:13.984Z</time>
      </trkpt>
      <trkpt lat="39.49219167" lon="2.49600667">
        <ele>27.0</ele>
        <time>2022-05-14T16:17:14.985Z</time>
      </trkpt>
      <trkpt lat="39.492205" lon="2.49606167">
        <ele>27.0</ele>
        <time>2022-05-14T16:17:15.984Z</time>
      </trkpt>
      <trkpt lat="39.49222333" lon="2.49611667">
        <ele>27.0</ele>
        <time>2022-05-14T16:17:16.984Z</time>
      </trkpt>
      <trkpt lat="39.49224833" lon="2.496165">
        <ele>27.0</ele>
        <time>2022-05-14T16:17:17.985Z</time>
      </trkpt>
      <trkpt lat="39.49228167" lon="2.4962">
        <ele>27.0</ele>
        <time>2022-05-14T16:17:18.984Z</time>
      </trkpt>
      <trkpt lat="39.49231833" lon="2.496225">
        <ele>26.0</ele>
        <time>2022-05-14T16:17:19.984Z</time>
      </trkpt>
      <trkpt lat="39.49235667" lon="2.49625">
        <ele>26.0</ele>
        <time>2022-05-14T16:17:20.984Z</time>
      </trkpt>
      <trkpt lat="39.492395" lon="2.49628">
        <ele>26.0</ele>
        <time>2022-05-14T16:17:21.985Z</time>
      </trkpt>
      <trkpt lat="39.49242833" lon="2.49631667">
        <ele>26.0</ele>
        <time>2022-05-14T16:17:22.984Z</time>
      </trkpt>
      <trkpt lat="39.49245667" lon="2.49635833">
        <ele>26.0</ele>
        <time>2022-05-14T16:17:23.984Z</time>
      </trkpt>
      <trkpt lat="39.49247833" lon="2.496405">
        <ele>26.0</ele>
        <time>2022-05-14T16:17:24.984Z</time>
      </trkpt>
      <trkpt lat="39.49249333" lon="2.496455">
        <ele>26.0</ele>
        <time>2022-05-14T16:17:25.984Z</time>
      </trkpt>
      <trkpt lat="39.49250833" lon="2.49650833">
        <ele>26.0</ele>
        <time>2022-05-14T16:17:26.985Z</time>
      </trkpt>
      <trkpt lat="39.49251333" lon="2.49656167">
        <ele>26.0</ele>
        <time>2022-05-14T16:17:27.984Z</time>
      </trkpt>
      <trkpt lat="39.49250333" lon="2.49661">
        <ele>27.0</ele>
        <time>2022-05-14T16:17:28.985Z</time>
      </trkpt>
      <trkpt lat="39.49248167" lon="2.49665">
        <ele>27.0</ele>
        <time>2022-05-14T16:17:29.985Z</time>
      </trkpt>
      <trkpt lat="39.492455" lon="2.49668833">
        <ele>28.0</ele>
        <time>2022-05-14T16:17:30.984Z</time>
      </trkpt>
      <trkpt lat="39.49243" lon="2.49673">
        <ele>28.0</ele>
        <time>2022-05-14T16:17:31.984Z</time>
      </trkpt>
      <trkpt lat="39.49241333" lon="2.496785">
        <ele>28.0</ele>
        <time>2022-05-14T16:17:32.985Z</time>
      </trkpt>
      <trkpt lat="39.49240833" lon="2.49682667">
        <ele>28.0</ele>
        <time>2022-05-14T16:17:33.985Z</time>
      </trkpt>
      <trkpt lat="39.49240833" lon="2.49688">
        <ele>28.0</ele>
        <time>2022-05-14T16:17:34.985Z</time>
      </trkpt>
      <trkpt lat="39.492415" lon="2.49693167">
        <ele>28.0</ele>
        <time>2022-05-14T16:17:35.985Z</time>
      </trkpt>
      <trkpt lat="39.49242833" lon="2.49698667">
        <ele>27.0</ele>
        <time>2022-05-14T16:17:36.985Z</time>
      </trkpt>
      <trkpt lat="39.49244333" lon="2.49704167">
        <ele>27.0</ele>
        <time>2022-05-14T16:17:37.985Z</time>
      </trkpt>
      <trkpt lat="39.49246167" lon="2.4971">
        <ele>27.0</ele>
        <time>2022-05-14T16:17:38.984Z</time>
      </trkpt>
      <trkpt lat="39.49247833" lon="2.49716">
        <ele>27.0</ele>
        <time>2022-05-14T16:17:39.984Z</time>
      </trkpt>
      <trkpt lat="39.49249833" lon="2.49722167">
        <ele>26.0</ele>
        <time>2022-05-14T16:17:40.985Z</time>
      </trkpt>
      <trkpt lat="39.49251833" lon="2.49728">
        <ele>26.0</ele>
        <time>2022-05-14T16:17:41.985Z</time>
      </trkpt>
      <trkpt lat="39.49253667" lon="2.49734">
        <ele>26.0</ele>
        <time>2022-05-14T16:17:42.984Z</time>
      </trkpt>
      <trkpt lat="39.492555" lon="2.49740333">
        <ele>26.0</ele>
        <time>2022-05-14T16:17:43.984Z</time>
      </trkpt>
      <trkpt lat="39.49257333" lon="2.49746333">
        <ele>25.0</ele>
        <time>2022-05-14T16:17:44.984Z</time>
      </trkpt>
      <trkpt lat="39.49259167" lon="2.49752833">
        <ele>25.0</ele>
        <time>2022-05-14T16:17:45.984Z</time>
      </trkpt>
      <trkpt lat="39.49260667" lon="2.49757833">
        <ele>25.0</ele>
        <time>2022-05-14T16:17:46.984Z</time>
      </trkpt>
      <trkpt lat="39.49263" lon="2.49765167">
        <ele>25.0</ele>
        <time>2022-05-14T16:17:47.984Z</time>
      </trkpt>
      <trkpt lat="39.49265" lon="2.49771333">
        <ele>25.0</ele>
        <time>2022-05-14T16:17:48.984Z</time>
      </trkpt>
      <trkpt lat="39.49267167" lon="2.49777667">
        <ele>24.0</ele>
        <time>2022-05-14T16:17:49.984Z</time>
      </trkpt>
      <trkpt lat="39.49269167" lon="2.49784167">
        <ele>24.0</ele>
        <time>2022-05-14T16:17:50.985Z</time>
      </trkpt>
      <trkpt lat="39.49270833" lon="2.497895">
        <ele>24.0</ele>
        <time>2022-05-14T16:17:51.985Z</time>
      </trkpt>
      <trkpt lat="39.49273167" lon="2.49797667">
        <ele>23.0</ele>
        <time>2022-05-14T16:17:52.985Z</time>
      </trkpt>
      <trkpt lat="39.49275167" lon="2.498045">
        <ele>23.0</ele>
        <time>2022-05-14T16:17:53.985Z</time>
      </trkpt>
      <trkpt lat="39.49277" lon="2.49811333">
        <ele>23.0</ele>
        <time>2022-05-14T16:17:54.985Z</time>
      </trkpt>
      <trkpt lat="39.49278833" lon="2.49818333">
        <ele>22.0</ele>
        <time>2022-05-14T16:17:55.985Z</time>
      </trkpt>
      <trkpt lat="39.49280833" lon="2.49825">
        <ele>22.0</ele>
        <time>2022-05-14T16:17:56.985Z</time>
      </trkpt>
      <trkpt lat="39.49283167" lon="2.49832">
        <ele>22.0</ele>
        <time>2022-05-14T16:17:57.985Z</time>
      </trkpt>
      <trkpt lat="39.49285333" lon="2.49839167">
        <ele>21.0</ele>
        <time>2022-05-14T16:17:58.985Z</time>
      </trkpt>
      <trkpt lat="39.49287333" lon="2.498465">
        <ele>21.0</ele>
        <time>2022-05-14T16:17:59.984Z</time>
      </trkpt>
      <trkpt lat="39.492895" lon="2.49854">
        <ele>20.0</ele>
        <time>2022-05-14T16:18:00.984Z</time>
      </trkpt>
      <trkpt lat="39.49292" lon="2.49861667">
        <ele>20.0</ele>
        <time>2022-05-14T16:18:01.984Z</time>
      </trkpt>
      <trkpt lat="39.49294167" lon="2.49869">
        <ele>20.0</ele>
        <time>2022-05-14T16:18:02.985Z</time>
      </trkpt>
      <trkpt lat="39.49296333" lon="2.498765">
        <ele>20.0</ele>
        <time>2022-05-14T16:18:03.984Z</time>
      </trkpt>
      <trkpt lat="39.492985" lon="2.49883667">
        <ele>20.0</ele>
        <time>2022-05-14T16:18:04.985Z</time>
      </trkpt>
      <trkpt lat="39.49300667" lon="2.49890667">
        <ele>20.0</ele>
        <time>2022-05-14T16:18:05.984Z</time>
      </trkpt>
      <trkpt lat="39.49302667" lon="2.498975">
        <ele>20.0</ele>
        <time>2022-05-14T16:18:06.985Z</time>
      </trkpt>
      <trkpt lat="39.49304667" lon="2.49904333">
        <ele>20.0</ele>
        <time>2022-05-14T16:18:07.984Z</time>
      </trkpt>
      <trkpt lat="39.49306667" lon="2.49911">
        <ele>20.0</ele>
        <time>2022-05-14T16:18:08.985Z</time>
      </trkpt>
      <trkpt lat="39.49308667" lon="2.49917833">
        <ele>20.0</ele>
        <time>2022-05-14T16:18:09.984Z</time>
      </trkpt>
      <trkpt lat="39.49310667" lon="2.49924833">
        <ele>20.0</ele>
        <time>2022-05-14T16:18:10.985Z</time>
      </trkpt>
      <trkpt lat="39.49312667" lon="2.49931833">
        <ele>20.0</ele>
        <time>2022-05-14T16:18:11.985Z</time>
      </trkpt>
      <trkpt lat="39.49314833" lon="2.49939167">
        <ele>20.0</ele>
        <time>2022-05-14T16:18:12.984Z</time>
      </trkpt>
      <trkpt lat="39.49317167" lon="2.49947">
        <ele>20.0</ele>
        <time>2022-05-14T16:18:13.984Z</time>
      </trkpt>
      <trkpt lat="39.49319667" lon="2.49955">
        <ele>19.0</ele>
        <time>2022-05-14T16:18:14.985Z</time>
      </trkpt>
      <trkpt lat="39.49322333" lon="2.499635">
        <ele>19.0</ele>
        <time>2022-05-14T16:18:15.984Z</time>
      </trkpt>
      <trkpt lat="39.49325" lon="2.49972167">
        <ele>19.0</ele>
        <time>2022-05-14T16:18:16.984Z</time>
      </trkpt>
      <trkpt lat="39.49327833" lon="2.499815">
        <ele>19.0</ele>
        <time>2022-05-14T16:18:17.984Z</time>
      </trkpt>
      <trkpt lat="39.49330667" lon="2.49991">
        <ele>19.0</ele>
        <time>2022-05-14T16:18:18.985Z</time>
      </trkpt>
      <trkpt lat="39.49333667" lon="2.50001">
        <ele>19.0</ele>
        <time>2022-05-14T16:18:19.985Z</time>
      </trkpt>
      <trkpt lat="39.49336833" lon="2.50010833">
        <ele>18.0</ele>
        <time>2022-05-14T16:18:20.984Z</time>
      </trkpt>
      <trkpt lat="39.49339667" lon="2.50020833">
        <ele>18.0</ele>
        <time>2022-05-14T16:18:21.985Z</time>
      </trkpt>
      <trkpt lat="39.49342667" lon="2.50031">
        <ele>17.0</ele>
        <time>2022-05-14T16:18:22.984Z</time>
      </trkpt>
      <trkpt lat="39.49346" lon="2.500415">
        <ele>17.0</ele>
        <time>2022-05-14T16:18:23.984Z</time>
      </trkpt>
      <trkpt lat="39.49349" lon="2.50051667">
        <ele>17.0</ele>
        <time>2022-05-14T16:18:24.985Z</time>
      </trkpt>
      <trkpt lat="39.49351833" lon="2.50061333">
        <ele>16.0</ele>
        <time>2022-05-14T16:18:25.985Z</time>
      </trkpt>
      <trkpt lat="39.493545" lon="2.50070667">
        <ele>16.0</ele>
        <time>2022-05-14T16:18:26.984Z</time>
      </trkpt>
      <trkpt lat="39.49357333" lon="2.50079667">
        <ele>16.0</ele>
        <time>2022-05-14T16:18:27.985Z</time>
      </trkpt>
      <trkpt lat="39.4936" lon="2.50088333">
        <ele>16.0</ele>
        <time>2022-05-14T16:18:28.985Z</time>
      </trkpt>
      <trkpt lat="39.493625" lon="2.50096667">
        <ele>16.0</ele>
        <time>2022-05-14T16:18:29.985Z</time>
      </trkpt>
      <trkpt lat="39.49365" lon="2.50105">
        <ele>15.0</ele>
        <time>2022-05-14T16:18:30.984Z</time>
      </trkpt>
      <trkpt lat="39.49367167" lon="2.50113167">
        <ele>15.0</ele>
        <time>2022-05-14T16:18:31.985Z</time>
      </trkpt>
      <trkpt lat="39.49369333" lon="2.50120833">
        <ele>15.0</ele>
        <time>2022-05-14T16:18:32.985Z</time>
      </trkpt>
      <trkpt lat="39.49371833" lon="2.50128167">
        <ele>15.0</ele>
        <time>2022-05-14T16:18:33.985Z</time>
      </trkpt>
      <trkpt lat="39.493745" lon="2.50135">
        <ele>15.0</ele>
        <time>2022-05-14T16:18:34.985Z</time>
      </trkpt>
      <trkpt lat="39.49378" lon="2.50140667">
        <ele>15.0</ele>
        <time>2022-05-14T16:18:35.984Z</time>
      </trkpt>
      <trkpt lat="39.49381833" lon="2.50144833">
        <ele>15.0</ele>
        <time>2022-05-14T16:18:36.984Z</time>
      </trkpt>
      <trkpt lat="39.49385833" lon="2.50148833">
        <ele>15.0</ele>
        <time>2022-05-14T16:18:37.985Z</time>
      </trkpt>
      <trkpt lat="39.49389667" lon="2.50153">
        <ele>15.0</ele>
        <time>2022-05-14T16:18:38.984Z</time>
      </trkpt>
      <trkpt lat="39.49393333" lon="2.50157">
        <ele>15.0</ele>
        <time>2022-05-14T16:18:39.984Z</time>
      </trkpt>
      <trkpt lat="39.49396333" lon="2.50161833">
        <ele>15.0</ele>
        <time>2022-05-14T16:18:40.984Z</time>
      </trkpt>
      <trkpt lat="39.49398167" lon="2.50167">
        <ele>15.0</ele>
        <time>2022-05-14T16:18:41.984Z</time>
      </trkpt>
      <trkpt lat="39.49398667" lon="2.50172333">
        <ele>15.0</ele>
        <time>2022-05-14T16:18:42.984Z</time>
      </trkpt>
      <trkpt lat="39.49398333" lon="2.501775">
        <ele>15.0</ele>
        <time>2022-05-14T16:18:43.985Z</time>
      </trkpt>
      <trkpt lat="39.493975" lon="2.50182833">
        <ele>15.0</ele>
        <time>2022-05-14T16:18:44.984Z</time>
      </trkpt>
      <trkpt lat="39.493965" lon="2.50188167">
        <ele>15.0</ele>
        <time>2022-05-14T16:18:45.985Z</time>
      </trkpt>
      <trkpt lat="39.49395833" lon="2.50193667">
        <ele>15.0</ele>
        <time>2022-05-14T16:18:46.984Z</time>
      </trkpt>
      <trkpt lat="39.49395667" lon="2.50199333">
        <ele>15.0</ele>
        <time>2022-05-14T16:18:47.984Z</time>
      </trkpt>
      <trkpt lat="39.49396" lon="2.50205167">
        <ele>14.0</ele>
        <time>2022-05-14T16:18:48.985Z</time>
      </trkpt>
      <trkpt lat="39.49396833" lon="2.50210833">
        <ele>14.0</ele>
        <time>2022-05-14T16:18:49.985Z</time>
      </trkpt>
      <trkpt lat="39.49398" lon="2.50216333">
        <ele>14.0</ele>
        <time>2022-05-14T16:18:50.985Z</time>
      </trkpt>
      <trkpt lat="39.493995" lon="2.50222">
        <ele>14.0</ele>
        <time>2022-05-14T16:18:51.985Z</time>
      </trkpt>
      <trkpt lat="39.49401" lon="2.502275">
        <ele>14.0</ele>
        <time>2022-05-14T16:18:52.985Z</time>
      </trkpt>
      <trkpt lat="39.49402667" lon="2.50233">
        <ele>14.0</ele>
        <time>2022-05-14T16:18:53.985Z</time>
      </trkpt>
      <trkpt lat="39.49404333" lon="2.50238333">
        <ele>14.0</ele>
        <time>2022-05-14T16:18:54.985Z</time>
      </trkpt>
      <trkpt lat="39.49405833" lon="2.502435">
        <ele>13.0</ele>
        <time>2022-05-14T16:18:55.985Z</time>
      </trkpt>
      <trkpt lat="39.494075" lon="2.50248833">
        <ele>13.0</ele>
        <time>2022-05-14T16:18:56.984Z</time>
      </trkpt>
      <trkpt lat="39.49409333" lon="2.50254333">
        <ele>13.0</ele>
        <time>2022-05-14T16:18:57.985Z</time>
      </trkpt>
      <trkpt lat="39.49411" lon="2.50259667">
        <ele>12.0</ele>
        <time>2022-05-14T16:18:58.985Z</time>
      </trkpt>
      <trkpt lat="39.494125" lon="2.50265167">
        <ele>12.0</ele>
        <time>2022-05-14T16:18:59.985Z</time>
      </trkpt>
      <trkpt lat="39.49414" lon="2.502705">
        <ele>12.0</ele>
        <time>2022-05-14T16:19:00.985Z</time>
      </trkpt>
      <trkpt lat="39.494155" lon="2.50275333">
        <ele>12.0</ele>
        <time>2022-05-14T16:19:01.985Z</time>
      </trkpt>
      <trkpt lat="39.49417" lon="2.50279833">
        <ele>12.0</ele>
        <time>2022-05-14T16:19:02.984Z</time>
      </trkpt>
      <trkpt lat="39.49418333" lon="2.50284833">
        <ele>13.0</ele>
        <time>2022-05-14T16:19:03.985Z</time>
      </trkpt>
      <trkpt lat="39.49419833" lon="2.50290333">
        <ele>13.0</ele>
        <time>2022-05-14T16:19:04.985Z</time>
      </trkpt>
      <trkpt lat="39.494215" lon="2.50296167">
        <ele>13.0</ele>
        <time>2022-05-14T16:19:05.985Z</time>
      </trkpt>
      <trkpt lat="39.49423333" lon="2.50302333">
        <ele>13.0</ele>
        <time>2022-05-14T16:19:06.985Z</time>
      </trkpt>
      <trkpt lat="39.49425167" lon="2.503085">
        <ele>13.0</ele>
        <time>2022-05-14T16:19:07.985Z</time>
      </trkpt>
      <trkpt lat="39.49427" lon="2.50314667">
        <ele>14.0</ele>
        <time>2022-05-14T16:19:08.984Z</time>
      </trkpt>
      <trkpt lat="39.49428833" lon="2.50320667">
        <ele>14.0</ele>
        <time>2022-05-14T16:19:09.985Z</time>
      </trkpt>
      <trkpt lat="39.49430667" lon="2.50326333">
        <ele>14.0</ele>
        <time>2022-05-14T16:19:10.985Z</time>
      </trkpt>
      <trkpt lat="39.494325" lon="2.50331667">
        <ele>14.0</ele>
        <time>2022-05-14T16:19:11.984Z</time>
      </trkpt>
      <trkpt lat="39.49434" lon="2.50337">
        <ele>14.0</ele>
        <time>2022-05-14T16:19:12.984Z</time>
      </trkpt>
      <trkpt lat="39.49435333" lon="2.50342">
        <ele>15.0</ele>
        <time>2022-05-14T16:19:13.984Z</time>
      </trkpt>
      <trkpt lat="39.49436667" lon="2.50346833">
        <ele>15.0</ele>
        <time>2022-05-14T16:19:14.985Z</time>
      </trkpt>
      <trkpt lat="39.49438333" lon="2.50351">
        <ele>15.0</ele>
        <time>2022-05-14T16:19:15.984Z</time>
      </trkpt>
      <trkpt lat="39.49439833" lon="2.50355167">
        <ele>15.0</ele>
        <time>2022-05-14T16:19:16.985Z</time>
      </trkpt>
      <trkpt lat="39.494415" lon="2.50359667">
        <ele>14.0</ele>
        <time>2022-05-14T16:19:17.984Z</time>
      </trkpt>
      <trkpt lat="39.49443" lon="2.50364167">
        <ele>15.0</ele>
        <time>2022-05-14T16:19:18.984Z</time>
      </trkpt>
      <trkpt lat="39.494445" lon="2.50369">
        <ele>14.0</ele>
        <time>2022-05-14T16:19:19.984Z</time>
      </trkpt>
      <trkpt lat="39.49446167" lon="2.50374">
        <ele>14.0</ele>
        <time>2022-05-14T16:19:20.985Z</time>
      </trkpt>
      <trkpt lat="39.49447667" lon="2.50379167">
        <ele>15.0</ele>
        <time>2022-05-14T16:19:21.985Z</time>
      </trkpt>
      <trkpt lat="39.49449167" lon="2.503845">
        <ele>15.0</ele>
        <time>2022-05-14T16:19:22.984Z</time>
      </trkpt>
      <trkpt lat="39.494505" lon="2.50389667">
        <ele>15.0</ele>
        <time>2022-05-14T16:19:23.985Z</time>
      </trkpt>
      <trkpt lat="39.49452167" lon="2.50395">
        <ele>15.0</ele>
        <time>2022-05-14T16:19:24.984Z</time>
      </trkpt>
      <trkpt lat="39.49454167" lon="2.50400333">
        <ele>15.0</ele>
        <time>2022-05-14T16:19:25.985Z</time>
      </trkpt>
      <trkpt lat="39.49456" lon="2.50405667">
        <ele>15.0</ele>
        <time>2022-05-14T16:19:26.984Z</time>
      </trkpt>
      <trkpt lat="39.494575" lon="2.50410833">
        <ele>15.0</ele>
        <time>2022-05-14T16:19:27.984Z</time>
      </trkpt>
      <trkpt lat="39.49459" lon="2.50416333">
        <ele>15.0</ele>
        <time>2022-05-14T16:19:28.984Z</time>
      </trkpt>
      <trkpt lat="39.494605" lon="2.50421667">
        <ele>15.0</ele>
        <time>2022-05-14T16:19:29.984Z</time>
      </trkpt>
      <trkpt lat="39.49462" lon="2.50426667">
        <ele>15.0</ele>
        <time>2022-05-14T16:19:30.985Z</time>
      </trkpt>
      <trkpt lat="39.49463833" lon="2.50431833">
        <ele>15.0</ele>
        <time>2022-05-14T16:19:31.985Z</time>
      </trkpt>
      <trkpt lat="39.494655" lon="2.50437333">
        <ele>15.0</ele>
        <time>2022-05-14T16:19:32.985Z</time>
      </trkpt>
      <trkpt lat="39.49467" lon="2.504425">
        <ele>15.0</ele>
        <time>2022-05-14T16:19:33.984Z</time>
      </trkpt>
      <trkpt lat="39.49468667" lon="2.50447833">
        <ele>16.0</ele>
        <time>2022-05-14T16:19:34.984Z</time>
      </trkpt>
      <trkpt lat="39.494705" lon="2.50453667">
        <ele>16.0</ele>
        <time>2022-05-14T16:19:35.985Z</time>
      </trkpt>
      <trkpt lat="39.494725" lon="2.50459333">
        <ele>16.0</ele>
        <time>2022-05-14T16:19:36.985Z</time>
      </trkpt>
      <trkpt lat="39.49474333" lon="2.50465167">
        <ele>16.0</ele>
        <time>2022-05-14T16:19:37.985Z</time>
      </trkpt>
      <trkpt lat="39.49475833" lon="2.50471">
        <ele>16.0</ele>
        <time>2022-05-14T16:19:38.984Z</time>
      </trkpt>
      <trkpt lat="39.494775" lon="2.504765">
        <ele>16.0</ele>
        <time>2022-05-14T16:19:39.985Z</time>
      </trkpt>
      <trkpt lat="39.49479" lon="2.50482167">
        <ele>16.0</ele>
        <time>2022-05-14T16:19:40.985Z</time>
      </trkpt>
      <trkpt lat="39.49480833" lon="2.50487667">
        <ele>17.0</ele>
        <time>2022-05-14T16:19:41.985Z</time>
      </trkpt>
      <trkpt lat="39.494825" lon="2.50493">
        <ele>16.0</ele>
        <time>2022-05-14T16:19:42.984Z</time>
      </trkpt>
      <trkpt lat="39.49484333" lon="2.504985">
        <ele>16.0</ele>
        <time>2022-05-14T16:19:43.984Z</time>
      </trkpt>
      <trkpt lat="39.49486" lon="2.50503833">
        <ele>16.0</ele>
        <time>2022-05-14T16:19:44.985Z</time>
      </trkpt>
      <trkpt lat="39.494875" lon="2.50509333">
        <ele>15.0</ele>
        <time>2022-05-14T16:19:45.984Z</time>
      </trkpt>
      <trkpt lat="39.49489" lon="2.50514667">
        <ele>15.0</ele>
        <time>2022-05-14T16:19:46.984Z</time>
      </trkpt>
      <trkpt lat="39.49490333" lon="2.50519333">
        <ele>15.0</ele>
        <time>2022-05-14T16:19:47.985Z</time>
      </trkpt>
      <trkpt lat="39.49492167" lon="2.505245">
        <ele>15.0</ele>
        <time>2022-05-14T16:19:48.985Z</time>
      </trkpt>
      <trkpt lat="39.49493833" lon="2.50529667">
        <ele>15.0</ele>
        <time>2022-05-14T16:19:49.985Z</time>
      </trkpt>
      <trkpt lat="39.49495667" lon="2.50534667">
        <ele>14.0</ele>
        <time>2022-05-14T16:19:50.984Z</time>
      </trkpt>
      <trkpt lat="39.49497333" lon="2.50539833">
        <ele>14.0</ele>
        <time>2022-05-14T16:19:51.984Z</time>
      </trkpt>
      <trkpt lat="39.49498833" lon="2.50544667">
        <ele>13.0</ele>
        <time>2022-05-14T16:19:52.985Z</time>
      </trkpt>
      <trkpt lat="39.495005" lon="2.50549333">
        <ele>13.0</ele>
        <time>2022-05-14T16:19:53.985Z</time>
      </trkpt>
      <trkpt lat="39.49502333" lon="2.50554167">
        <ele>12.0</ele>
        <time>2022-05-14T16:19:54.985Z</time>
      </trkpt>
      <trkpt lat="39.49503833" lon="2.50559333">
        <ele>13.0</ele>
        <time>2022-05-14T16:19:55.984Z</time>
      </trkpt>
      <trkpt lat="39.49505667" lon="2.505645">
        <ele>13.0</ele>
        <time>2022-05-14T16:19:56.985Z</time>
      </trkpt>
      <trkpt lat="39.49507167" lon="2.50569667">
        <ele>13.0</ele>
        <time>2022-05-14T16:19:57.985Z</time>
      </trkpt>
      <trkpt lat="39.49508833" lon="2.50575333">
        <ele>13.0</ele>
        <time>2022-05-14T16:19:58.985Z</time>
      </trkpt>
      <trkpt lat="39.49510333" lon="2.50580833">
        <ele>13.0</ele>
        <time>2022-05-14T16:19:59.984Z</time>
      </trkpt>
      <trkpt lat="39.49511833" lon="2.50586667">
        <ele>14.0</ele>
        <time>2022-05-14T16:20:00.985Z</time>
      </trkpt>
      <trkpt lat="39.49513" lon="2.50592333">
        <ele>14.0</ele>
        <time>2022-05-14T16:20:01.985Z</time>
      </trkpt>
      <trkpt lat="39.49514333" lon="2.50598">
        <ele>15.0</ele>
        <time>2022-05-14T16:20:02.985Z</time>
      </trkpt>
      <trkpt lat="39.49515667" lon="2.50603667">
        <ele>15.0</ele>
        <time>2022-05-14T16:20:03.984Z</time>
      </trkpt>
      <trkpt lat="39.49517333" lon="2.506095">
        <ele>15.0</ele>
        <time>2022-05-14T16:20:04.984Z</time>
      </trkpt>
      <trkpt lat="39.49519167" lon="2.50614833">
        <ele>15.0</ele>
        <time>2022-05-14T16:20:05.984Z</time>
      </trkpt>
      <trkpt lat="39.49520833" lon="2.5062">
        <ele>14.0</ele>
        <time>2022-05-14T16:20:06.984Z</time>
      </trkpt>
      <trkpt lat="39.495225" lon="2.506255">
        <ele>15.0</ele>
        <time>2022-05-14T16:20:07.985Z</time>
      </trkpt>
      <trkpt lat="39.49524" lon="2.50631">
        <ele>15.0</ele>
        <time>2022-05-14T16:20:08.985Z</time>
      </trkpt>
      <trkpt lat="39.495255" lon="2.50636333">
        <ele>15.0</ele>
        <time>2022-05-14T16:20:09.985Z</time>
      </trkpt>
      <trkpt lat="39.49527" lon="2.50641833">
        <ele>15.0</ele>
        <time>2022-05-14T16:20:10.984Z</time>
      </trkpt>
      <trkpt lat="39.49528667" lon="2.50647">
        <ele>15.0</ele>
        <time>2022-05-14T16:20:11.985Z</time>
      </trkpt>
      <trkpt lat="39.49530333" lon="2.506525">
        <ele>15.0</ele>
        <time>2022-05-14T16:20:12.985Z</time>
      </trkpt>
      <trkpt lat="39.49532167" lon="2.50657833">
        <ele>15.0</ele>
        <time>2022-05-14T16:20:13.985Z</time>
      </trkpt>
      <trkpt lat="39.49533833" lon="2.50663167">
        <ele>15.0</ele>
        <time>2022-05-14T16:20:14.985Z</time>
      </trkpt>
      <trkpt lat="39.49535667" lon="2.50668667">
        <ele>15.0</ele>
        <time>2022-05-14T16:20:15.985Z</time>
      </trkpt>
      <trkpt lat="39.49537167" lon="2.50674333">
        <ele>15.0</ele>
        <time>2022-05-14T16:20:16.985Z</time>
      </trkpt>
      <trkpt lat="39.49539" lon="2.5068">
        <ele>15.0</ele>
        <time>2022-05-14T16:20:17.985Z</time>
      </trkpt>
      <trkpt lat="39.49540667" lon="2.50685833">
        <ele>15.0</ele>
        <time>2022-05-14T16:20:18.985Z</time>
      </trkpt>
      <trkpt lat="39.495425" lon="2.50691833">
        <ele>15.0</ele>
        <time>2022-05-14T16:20:19.985Z</time>
      </trkpt>
      <trkpt lat="39.495445" lon="2.50697833">
        <ele>15.0</ele>
        <time>2022-05-14T16:20:20.985Z</time>
      </trkpt>
      <trkpt lat="39.495465" lon="2.50704333">
        <ele>15.0</ele>
        <time>2022-05-14T16:20:21.985Z</time>
      </trkpt>
      <trkpt lat="39.495485" lon="2.50711">
        <ele>15.0</ele>
        <time>2022-05-14T16:20:22.985Z</time>
      </trkpt>
      <trkpt lat="39.49550333" lon="2.50717667">
        <ele>15.0</ele>
        <time>2022-05-14T16:20:23.984Z</time>
      </trkpt>
      <trkpt lat="39.49552333" lon="2.507245">
        <ele>15.0</ele>
        <time>2022-05-14T16:20:24.985Z</time>
      </trkpt>
      <trkpt lat="39.49554333" lon="2.50731333">
        <ele>15.0</ele>
        <time>2022-05-14T16:20:25.984Z</time>
      </trkpt>
      <trkpt lat="39.49556833" lon="2.507385">
        <ele>14.0</ele>
        <time>2022-05-14T16:20:26.985Z</time>
      </trkpt>
      <trkpt lat="39.49559167" lon="2.50746">
        <ele>14.0</ele>
        <time>2022-05-14T16:20:27.984Z</time>
      </trkpt>
      <trkpt lat="39.49561667" lon="2.50753667">
        <ele>15.0</ele>
        <time>2022-05-14T16:20:28.984Z</time>
      </trkpt>
      <trkpt lat="39.49564" lon="2.507615">
        <ele>15.0</ele>
        <time>2022-05-14T16:20:29.985Z</time>
      </trkpt>
      <trkpt lat="39.49566833" lon="2.50769333">
        <ele>15.0</ele>
        <time>2022-05-14T16:20:30.984Z</time>
      </trkpt>
      <trkpt lat="39.49569833" lon="2.50776667">
        <ele>15.0</ele>
        <time>2022-05-14T16:20:31.985Z</time>
      </trkpt>
      <trkpt lat="39.49573667" lon="2.50782833">
        <ele>14.0</ele>
        <time>2022-05-14T16:20:32.984Z</time>
      </trkpt>
      <trkpt lat="39.49578333" lon="2.507875">
        <ele>13.0</ele>
        <time>2022-05-14T16:20:33.984Z</time>
      </trkpt>
      <trkpt lat="39.49583333" lon="2.50789333">
        <ele>12.0</ele>
        <time>2022-05-14T16:20:34.985Z</time>
      </trkpt>
      <trkpt lat="39.49588833" lon="2.50788833">
        <ele>12.0</ele>
        <time>2022-05-14T16:20:35.984Z</time>
      </trkpt>
      <trkpt lat="39.49594333" lon="2.50787667">
        <ele>12.0</ele>
        <time>2022-05-14T16:20:36.985Z</time>
      </trkpt>
      <trkpt lat="39.495995" lon="2.50787667">
        <ele>12.0</ele>
        <time>2022-05-14T16:20:37.984Z</time>
      </trkpt>
      <trkpt lat="39.49603833" lon="2.5079">
        <ele>12.0</ele>
        <time>2022-05-14T16:20:38.984Z</time>
      </trkpt>
      <trkpt lat="39.49607" lon="2.50793667">
        <ele>12.0</ele>
        <time>2022-05-14T16:20:39.984Z</time>
      </trkpt>
      <trkpt lat="39.49609333" lon="2.50798167">
        <ele>11.0</ele>
        <time>2022-05-14T16:20:40.985Z</time>
      </trkpt>
      <trkpt lat="39.49611" lon="2.50804167">
        <ele>11.0</ele>
        <time>2022-05-14T16:20:41.984Z</time>
      </trkpt>
      <trkpt lat="39.49613167" lon="2.50810333">
        <ele>11.0</ele>
        <time>2022-05-14T16:20:42.985Z</time>
      </trkpt>
      <trkpt lat="39.49615167" lon="2.50817167">
        <ele>11.0</ele>
        <time>2022-05-14T16:20:43.985Z</time>
      </trkpt>
      <trkpt lat="39.49615333" lon="2.50824">
        <ele>10.0</ele>
        <time>2022-05-14T16:20:44.984Z</time>
      </trkpt>
      <trkpt lat="39.49614333" lon="2.50830667">
        <ele>10.0</ele>
        <time>2022-05-14T16:20:45.985Z</time>
      </trkpt>
      <trkpt lat="39.49612333" lon="2.50835333">
        <ele>10.0</ele>
        <time>2022-05-14T16:20:46.985Z</time>
      </trkpt>
      <trkpt lat="39.496095" lon="2.50840333">
        <ele>10.0</ele>
        <time>2022-05-14T16:20:47.985Z</time>
      </trkpt>
      <trkpt lat="39.49607" lon="2.50846">
        <ele>10.0</ele>
        <time>2022-05-14T16:20:48.985Z</time>
      </trkpt>
      <trkpt lat="39.496045" lon="2.50851167">
        <ele>10.0</ele>
        <time>2022-05-14T16:20:49.985Z</time>
      </trkpt>
      <trkpt lat="39.49602333" lon="2.508565">
        <ele>10.0</ele>
        <time>2022-05-14T16:20:50.984Z</time>
      </trkpt>
      <trkpt lat="39.49600667" lon="2.50862">
        <ele>10.0</ele>
        <time>2022-05-14T16:20:51.985Z</time>
      </trkpt>
      <trkpt lat="39.496" lon="2.50867667">
        <ele>10.0</ele>
        <time>2022-05-14T16:20:52.985Z</time>
      </trkpt>
      <trkpt lat="39.49599833" lon="2.50873">
        <ele>10.0</ele>
        <time>2022-05-14T16:20:53.985Z</time>
      </trkpt>
      <trkpt lat="39.49600333" lon="2.508785">
        <ele>10.0</ele>
        <time>2022-05-14T16:20:54.984Z</time>
      </trkpt>
      <trkpt lat="39.496015" lon="2.50884167">
        <ele>10.0</ele>
        <time>2022-05-14T16:20:55.985Z</time>
      </trkpt>
      <trkpt lat="39.49602833" lon="2.50889667">
        <ele>10.0</ele>
        <time>2022-05-14T16:20:56.984Z</time>
      </trkpt>
      <trkpt lat="39.49604333" lon="2.50895167">
        <ele>10.0</ele>
        <time>2022-05-14T16:20:57.985Z</time>
      </trkpt>
      <trkpt lat="39.49606167" lon="2.50900667">
        <ele>10.0</ele>
        <time>2022-05-14T16:20:58.985Z</time>
      </trkpt>
      <trkpt lat="39.49607833" lon="2.50906">
        <ele>9.0</ele>
        <time>2022-05-14T16:20:59.984Z</time>
      </trkpt>
      <trkpt lat="39.496095" lon="2.509115">
        <ele>9.0</ele>
        <time>2022-05-14T16:21:00.985Z</time>
      </trkpt>
      <trkpt lat="39.49611167" lon="2.50917">
        <ele>10.0</ele>
        <time>2022-05-14T16:21:01.984Z</time>
      </trkpt>
      <trkpt lat="39.49612667" lon="2.509225">
        <ele>10.0</ele>
        <time>2022-05-14T16:21:02.985Z</time>
      </trkpt>
      <trkpt lat="39.49614167" lon="2.50928">
        <ele>10.0</ele>
        <time>2022-05-14T16:21:03.984Z</time>
      </trkpt>
      <trkpt lat="39.49616" lon="2.50933333">
        <ele>10.0</ele>
        <time>2022-05-14T16:21:04.984Z</time>
      </trkpt>
      <trkpt lat="39.49617833" lon="2.50938833">
        <ele>10.0</ele>
        <time>2022-05-14T16:21:05.985Z</time>
      </trkpt>
      <trkpt lat="39.49619333" lon="2.50944167">
        <ele>10.0</ele>
        <time>2022-05-14T16:21:06.985Z</time>
      </trkpt>
      <trkpt lat="39.49621167" lon="2.509495">
        <ele>9.0</ele>
        <time>2022-05-14T16:21:07.985Z</time>
      </trkpt>
      <trkpt lat="39.49623167" lon="2.50954833">
        <ele>9.0</ele>
        <time>2022-05-14T16:21:08.984Z</time>
      </trkpt>
      <trkpt lat="39.49625167" lon="2.50960333">
        <ele>10.0</ele>
        <time>2022-05-14T16:21:09.984Z</time>
      </trkpt>
      <trkpt lat="39.49627167" lon="2.509655">
        <ele>10.0</ele>
        <time>2022-05-14T16:21:10.985Z</time>
      </trkpt>
      <trkpt lat="39.49629" lon="2.50971">
        <ele>10.0</ele>
        <time>2022-05-14T16:21:11.985Z</time>
      </trkpt>
      <trkpt lat="39.49630667" lon="2.509765">
        <ele>11.0</ele>
        <time>2022-05-14T16:21:12.985Z</time>
      </trkpt>
      <trkpt lat="39.49632167" lon="2.50981833">
        <ele>11.0</ele>
        <time>2022-05-14T16:21:13.984Z</time>
      </trkpt>
      <trkpt lat="39.49633667" lon="2.509875">
        <ele>10.0</ele>
        <time>2022-05-14T16:21:14.984Z</time>
      </trkpt>
      <trkpt lat="39.49635167" lon="2.50993167">
        <ele>10.0</ele>
        <time>2022-05-14T16:21:15.984Z</time>
      </trkpt>
      <trkpt lat="39.49636667" lon="2.50999">
        <ele>10.0</ele>
        <time>2022-05-14T16:21:16.985Z</time>
      </trkpt>
      <trkpt lat="39.496385" lon="2.51004833">
        <ele>10.0</ele>
        <time>2022-05-14T16:21:17.985Z</time>
      </trkpt>
      <trkpt lat="39.49640167" lon="2.510105">
        <ele>10.0</ele>
        <time>2022-05-14T16:21:18.985Z</time>
      </trkpt>
      <trkpt lat="39.49642167" lon="2.51016167">
        <ele>10.0</ele>
        <time>2022-05-14T16:21:19.985Z</time>
      </trkpt>
      <trkpt lat="39.49644" lon="2.51021833">
        <ele>10.0</ele>
        <time>2022-05-14T16:21:20.984Z</time>
      </trkpt>
      <trkpt lat="39.49645667" lon="2.51027667">
        <ele>10.0</ele>
        <time>2022-05-14T16:21:21.985Z</time>
      </trkpt>
      <trkpt lat="39.49647333" lon="2.51033333">
        <ele>9.0</ele>
        <time>2022-05-14T16:21:22.984Z</time>
      </trkpt>
      <trkpt lat="39.49649333" lon="2.51039167">
        <ele>9.0</ele>
        <time>2022-05-14T16:21:23.985Z</time>
      </trkpt>
      <trkpt lat="39.49651167" lon="2.51045">
        <ele>9.0</ele>
        <time>2022-05-14T16:21:24.984Z</time>
      </trkpt>
      <trkpt lat="39.49653167" lon="2.51050833">
        <ele>9.0</ele>
        <time>2022-05-14T16:21:25.985Z</time>
      </trkpt>
      <trkpt lat="39.49655167" lon="2.51056667">
        <ele>9.0</ele>
        <time>2022-05-14T16:21:26.985Z</time>
      </trkpt>
      <trkpt lat="39.49657" lon="2.51063">
        <ele>9.0</ele>
        <time>2022-05-14T16:21:27.985Z</time>
      </trkpt>
      <trkpt lat="39.49658667" lon="2.51069167">
        <ele>10.0</ele>
        <time>2022-05-14T16:21:28.985Z</time>
      </trkpt>
      <trkpt lat="39.496605" lon="2.51075167">
        <ele>10.0</ele>
        <time>2022-05-14T16:21:29.985Z</time>
      </trkpt>
      <trkpt lat="39.49662167" lon="2.51081333">
        <ele>10.0</ele>
        <time>2022-05-14T16:21:30.985Z</time>
      </trkpt>
      <trkpt lat="39.49664" lon="2.510875">
        <ele>10.0</ele>
        <time>2022-05-14T16:21:31.985Z</time>
      </trkpt>
      <trkpt lat="39.49665833" lon="2.51093333">
        <ele>9.0</ele>
        <time>2022-05-14T16:21:32.984Z</time>
      </trkpt>
      <trkpt lat="39.49667833" lon="2.51099333">
        <ele>9.0</ele>
        <time>2022-05-14T16:21:33.984Z</time>
      </trkpt>
      <trkpt lat="39.49669667" lon="2.51105167">
        <ele>9.0</ele>
        <time>2022-05-14T16:21:34.984Z</time>
      </trkpt>
      <trkpt lat="39.49671667" lon="2.51111333">
        <ele>9.0</ele>
        <time>2022-05-14T16:21:35.984Z</time>
      </trkpt>
      <trkpt lat="39.496735" lon="2.51117333">
        <ele>9.0</ele>
        <time>2022-05-14T16:21:36.984Z</time>
      </trkpt>
      <trkpt lat="39.49675" lon="2.51123333">
        <ele>9.0</ele>
        <time>2022-05-14T16:21:37.984Z</time>
      </trkpt>
      <trkpt lat="39.49676667" lon="2.51129333">
        <ele>9.0</ele>
        <time>2022-05-14T16:21:38.985Z</time>
      </trkpt>
      <trkpt lat="39.49678333" lon="2.51135167">
        <ele>8.0</ele>
        <time>2022-05-14T16:21:39.984Z</time>
      </trkpt>
      <trkpt lat="39.49680167" lon="2.51141333">
        <ele>9.0</ele>
        <time>2022-05-14T16:21:40.984Z</time>
      </trkpt>
      <trkpt lat="39.49681833" lon="2.51147167">
        <ele>8.0</ele>
        <time>2022-05-14T16:21:41.984Z</time>
      </trkpt>
      <trkpt lat="39.496835" lon="2.51153">
        <ele>8.0</ele>
        <time>2022-05-14T16:21:42.985Z</time>
      </trkpt>
      <trkpt lat="39.49685" lon="2.51157833">
        <ele>8.0</ele>
        <time>2022-05-14T16:21:43.985Z</time>
      </trkpt>
      <trkpt lat="39.49686833" lon="2.51163833">
        <ele>8.0</ele>
        <time>2022-05-14T16:21:44.985Z</time>
      </trkpt>
      <trkpt lat="39.496885" lon="2.51169667">
        <ele>8.0</ele>
        <time>2022-05-14T16:21:45.985Z</time>
      </trkpt>
      <trkpt lat="39.496905" lon="2.51176667">
        <ele>8.0</ele>
        <time>2022-05-14T16:21:46.984Z</time>
      </trkpt>
      <trkpt lat="39.49692167" lon="2.51182333">
        <ele>8.0</ele>
        <time>2022-05-14T16:21:47.985Z</time>
      </trkpt>
      <trkpt lat="39.49694" lon="2.51187833">
        <ele>8.0</ele>
        <time>2022-05-14T16:21:48.985Z</time>
      </trkpt>
      <trkpt lat="39.49696" lon="2.51193">
        <ele>8.0</ele>
        <time>2022-05-14T16:21:49.984Z</time>
      </trkpt>
      <trkpt lat="39.49698333" lon="2.51198333">
        <ele>8.0</ele>
        <time>2022-05-14T16:21:50.985Z</time>
      </trkpt>
      <trkpt lat="39.497005" lon="2.512035">
        <ele>8.0</ele>
        <time>2022-05-14T16:21:51.984Z</time>
      </trkpt>
      <trkpt lat="39.49702333" lon="2.51209">
        <ele>8.0</ele>
        <time>2022-05-14T16:21:52.984Z</time>
      </trkpt>
      <trkpt lat="39.49703833" lon="2.51214667">
        <ele>8.0</ele>
        <time>2022-05-14T16:21:53.984Z</time>
      </trkpt>
      <trkpt lat="39.49705333" lon="2.512205">
        <ele>8.0</ele>
        <time>2022-05-14T16:21:54.985Z</time>
      </trkpt>
      <trkpt lat="39.49706833" lon="2.51226333">
        <ele>8.0</ele>
        <time>2022-05-14T16:21:55.985Z</time>
      </trkpt>
      <trkpt lat="39.497085" lon="2.51232167">
        <ele>8.0</ele>
        <time>2022-05-14T16:21:56.985Z</time>
      </trkpt>
      <trkpt lat="39.497105" lon="2.51238167">
        <ele>7.0</ele>
        <time>2022-05-14T16:21:57.985Z</time>
      </trkpt>
      <trkpt lat="39.497125" lon="2.51244167">
        <ele>7.0</ele>
        <time>2022-05-14T16:21:58.985Z</time>
      </trkpt>
      <trkpt lat="39.49714333" lon="2.512505">
        <ele>7.0</ele>
        <time>2022-05-14T16:21:59.985Z</time>
      </trkpt>
      <trkpt lat="39.49716333" lon="2.51256667">
        <ele>7.0</ele>
        <time>2022-05-14T16:22:00.985Z</time>
      </trkpt>
      <trkpt lat="39.49718" lon="2.51263">
        <ele>7.0</ele>
        <time>2022-05-14T16:22:01.985Z</time>
      </trkpt>
      <trkpt lat="39.49719833" lon="2.51269167">
        <ele>6.0</ele>
        <time>2022-05-14T16:22:02.984Z</time>
      </trkpt>
      <trkpt lat="39.49721667" lon="2.51275167">
        <ele>6.0</ele>
        <time>2022-05-14T16:22:03.984Z</time>
      </trkpt>
      <trkpt lat="39.49723667" lon="2.51281333">
        <ele>6.0</ele>
        <time>2022-05-14T16:22:04.984Z</time>
      </trkpt>
      <trkpt lat="39.49725333" lon="2.51287667">
        <ele>7.0</ele>
        <time>2022-05-14T16:22:05.984Z</time>
      </trkpt>
      <trkpt lat="39.49727167" lon="2.51294167">
        <ele>7.0</ele>
        <time>2022-05-14T16:22:06.985Z</time>
      </trkpt>
      <trkpt lat="39.49729167" lon="2.51300333">
        <ele>6.0</ele>
        <time>2022-05-14T16:22:07.985Z</time>
      </trkpt>
      <trkpt lat="39.49731" lon="2.513065">
        <ele>6.0</ele>
        <time>2022-05-14T16:22:08.985Z</time>
      </trkpt>
      <trkpt lat="39.49732833" lon="2.51312833">
        <ele>6.0</ele>
        <time>2022-05-14T16:22:09.984Z</time>
      </trkpt>
      <trkpt lat="39.497345" lon="2.51319">
        <ele>6.0</ele>
        <time>2022-05-14T16:22:10.984Z</time>
      </trkpt>
      <trkpt lat="39.49736167" lon="2.51325">
        <ele>6.0</ele>
        <time>2022-05-14T16:22:11.984Z</time>
      </trkpt>
      <trkpt lat="39.49738167" lon="2.51330833">
        <ele>6.0</ele>
        <time>2022-05-14T16:22:12.984Z</time>
      </trkpt>
      <trkpt lat="39.49740333" lon="2.513365">
        <ele>6.0</ele>
        <time>2022-05-14T16:22:13.985Z</time>
      </trkpt>
      <trkpt lat="39.49742667" lon="2.51342">
        <ele>6.0</ele>
        <time>2022-05-14T16:22:14.985Z</time>
      </trkpt>
      <trkpt lat="39.49744833" lon="2.513475">
        <ele>6.0</ele>
        <time>2022-05-14T16:22:15.984Z</time>
      </trkpt>
      <trkpt lat="39.49746333" lon="2.51353167">
        <ele>6.0</ele>
        <time>2022-05-14T16:22:16.985Z</time>
      </trkpt>
      <trkpt lat="39.49747333" lon="2.51358667">
        <ele>6.0</ele>
        <time>2022-05-14T16:22:17.985Z</time>
      </trkpt>
      <trkpt lat="39.49748333" lon="2.51364333">
        <ele>5.0</ele>
        <time>2022-05-14T16:22:18.985Z</time>
      </trkpt>
      <trkpt lat="39.49749667" lon="2.51369833">
        <ele>6.0</ele>
        <time>2022-05-14T16:22:19.985Z</time>
      </trkpt>
      <trkpt lat="39.49751" lon="2.51375333">
        <ele>5.0</ele>
        <time>2022-05-14T16:22:20.984Z</time>
      </trkpt>
      <trkpt lat="39.49752833" lon="2.51380667">
        <ele>5.0</ele>
        <time>2022-05-14T16:22:21.985Z</time>
      </trkpt>
      <trkpt lat="39.49754667" lon="2.51385833">
        <ele>5.0</ele>
        <time>2022-05-14T16:22:22.985Z</time>
      </trkpt>
      <trkpt lat="39.497565" lon="2.51391333">
        <ele>5.0</ele>
        <time>2022-05-14T16:22:23.985Z</time>
      </trkpt>
      <trkpt lat="39.49758333" lon="2.51397333">
        <ele>4.0</ele>
        <time>2022-05-14T16:22:24.984Z</time>
      </trkpt>
      <trkpt lat="39.4976" lon="2.51403667">
        <ele>4.0</ele>
        <time>2022-05-14T16:22:25.985Z</time>
      </trkpt>
      <trkpt lat="39.497615" lon="2.51409667">
        <ele>4.0</ele>
        <time>2022-05-14T16:22:26.984Z</time>
      </trkpt>
      <trkpt lat="39.497635" lon="2.51415667">
        <ele>4.0</ele>
        <time>2022-05-14T16:22:27.985Z</time>
      </trkpt>
      <trkpt lat="39.497655" lon="2.51421667">
        <ele>4.0</ele>
        <time>2022-05-14T16:22:28.984Z</time>
      </trkpt>
      <trkpt lat="39.49767667" lon="2.51427667">
        <ele>4.0</ele>
        <time>2022-05-14T16:22:29.985Z</time>
      </trkpt>
      <trkpt lat="39.49769833" lon="2.51433833">
        <ele>4.0</ele>
        <time>2022-05-14T16:22:30.985Z</time>
      </trkpt>
      <trkpt lat="39.49771833" lon="2.51439833">
        <ele>4.0</ele>
        <time>2022-05-14T16:22:31.985Z</time>
      </trkpt>
      <trkpt lat="39.49773833" lon="2.51446">
        <ele>4.0</ele>
        <time>2022-05-14T16:22:32.984Z</time>
      </trkpt>
      <trkpt lat="39.49775667" lon="2.51452667">
        <ele>4.0</ele>
        <time>2022-05-14T16:22:33.985Z</time>
      </trkpt>
      <trkpt lat="39.497775" lon="2.51459">
        <ele>4.0</ele>
        <time>2022-05-14T16:22:34.985Z</time>
      </trkpt>
      <trkpt lat="39.49779667" lon="2.51465167">
        <ele>5.0</ele>
        <time>2022-05-14T16:22:35.985Z</time>
      </trkpt>
      <trkpt lat="39.497815" lon="2.51471333">
        <ele>5.0</ele>
        <time>2022-05-14T16:22:36.984Z</time>
      </trkpt>
      <trkpt lat="39.49783167" lon="2.51477667">
        <ele>5.0</ele>
        <time>2022-05-14T16:22:37.984Z</time>
      </trkpt>
      <trkpt lat="39.49785" lon="2.51484">
        <ele>5.0</ele>
        <time>2022-05-14T16:22:38.984Z</time>
      </trkpt>
      <trkpt lat="39.49786833" lon="2.514905">
        <ele>5.0</ele>
        <time>2022-05-14T16:22:39.984Z</time>
      </trkpt>
      <trkpt lat="39.49788833" lon="2.51497">
        <ele>5.0</ele>
        <time>2022-05-14T16:22:40.984Z</time>
      </trkpt>
      <trkpt lat="39.49790833" lon="2.515035">
        <ele>5.0</ele>
        <time>2022-05-14T16:22:41.985Z</time>
      </trkpt>
      <trkpt lat="39.49793" lon="2.51510167">
        <ele>5.0</ele>
        <time>2022-05-14T16:22:42.984Z</time>
      </trkpt>
      <trkpt lat="39.49795" lon="2.51517333">
        <ele>5.0</ele>
        <time>2022-05-14T16:22:43.985Z</time>
      </trkpt>
      <trkpt lat="39.49796833" lon="2.51524">
        <ele>5.0</ele>
        <time>2022-05-14T16:22:44.984Z</time>
      </trkpt>
      <trkpt lat="39.49798833" lon="2.515305">
        <ele>5.0</ele>
        <time>2022-05-14T16:22:45.985Z</time>
      </trkpt>
      <trkpt lat="39.49800833" lon="2.51537">
        <ele>5.0</ele>
        <time>2022-05-14T16:22:46.984Z</time>
      </trkpt>
      <trkpt lat="39.49802833" lon="2.51543333">
        <ele>5.0</ele>
        <time>2022-05-14T16:22:47.984Z</time>
      </trkpt>
      <trkpt lat="39.49804833" lon="2.51549667">
        <ele>5.0</ele>
        <time>2022-05-14T16:22:48.984Z</time>
      </trkpt>
      <trkpt lat="39.49807" lon="2.51555833">
        <ele>4.0</ele>
        <time>2022-05-14T16:22:49.985Z</time>
      </trkpt>
      <trkpt lat="39.49809333" lon="2.51562">
        <ele>4.0</ele>
        <time>2022-05-14T16:22:50.985Z</time>
      </trkpt>
      <trkpt lat="39.49811667" lon="2.51568333">
        <ele>4.0</ele>
        <time>2022-05-14T16:22:51.984Z</time>
      </trkpt>
      <trkpt lat="39.49813833" lon="2.515745">
        <ele>4.0</ele>
        <time>2022-05-14T16:22:52.985Z</time>
      </trkpt>
      <trkpt lat="39.498155" lon="2.51581167">
        <ele>4.0</ele>
        <time>2022-05-14T16:22:53.985Z</time>
      </trkpt>
      <trkpt lat="39.49817" lon="2.51587667">
        <ele>4.0</ele>
        <time>2022-05-14T16:22:54.985Z</time>
      </trkpt>
      <trkpt lat="39.498185" lon="2.51594167">
        <ele>4.0</ele>
        <time>2022-05-14T16:22:55.985Z</time>
      </trkpt>
      <trkpt lat="39.49820167" lon="2.516005">
        <ele>4.0</ele>
        <time>2022-05-14T16:22:56.985Z</time>
      </trkpt>
      <trkpt lat="39.49822" lon="2.51606833">
        <ele>4.0</ele>
        <time>2022-05-14T16:22:57.985Z</time>
      </trkpt>
      <trkpt lat="39.49823833" lon="2.51613">
        <ele>4.0</ele>
        <time>2022-05-14T16:22:58.985Z</time>
      </trkpt>
      <trkpt lat="39.49825833" lon="2.51619167">
        <ele>4.0</ele>
        <time>2022-05-14T16:22:59.985Z</time>
      </trkpt>
      <trkpt lat="39.49827833" lon="2.51625333">
        <ele>4.0</ele>
        <time>2022-05-14T16:23:00.985Z</time>
      </trkpt>
      <trkpt lat="39.49829667" lon="2.516315">
        <ele>4.0</ele>
        <time>2022-05-14T16:23:01.985Z</time>
      </trkpt>
      <trkpt lat="39.498315" lon="2.51637667">
        <ele>4.0</ele>
        <time>2022-05-14T16:23:02.985Z</time>
      </trkpt>
      <trkpt lat="39.49833333" lon="2.51643833">
        <ele>4.0</ele>
        <time>2022-05-14T16:23:03.985Z</time>
      </trkpt>
      <trkpt lat="39.49835167" lon="2.5165">
        <ele>4.0</ele>
        <time>2022-05-14T16:23:04.985Z</time>
      </trkpt>
      <trkpt lat="39.49837167" lon="2.51656333">
        <ele>4.0</ele>
        <time>2022-05-14T16:23:05.984Z</time>
      </trkpt>
      <trkpt lat="39.49839" lon="2.51662333">
        <ele>4.0</ele>
        <time>2022-05-14T16:23:06.984Z</time>
      </trkpt>
      <trkpt lat="39.49840833" lon="2.51668667">
        <ele>4.0</ele>
        <time>2022-05-14T16:23:07.984Z</time>
      </trkpt>
      <trkpt lat="39.49842833" lon="2.51674667">
        <ele>4.0</ele>
        <time>2022-05-14T16:23:08.985Z</time>
      </trkpt>
      <trkpt lat="39.49844667" lon="2.51680833">
        <ele>4.0</ele>
        <time>2022-05-14T16:23:09.985Z</time>
      </trkpt>
      <trkpt lat="39.498465" lon="2.51687">
        <ele>4.0</ele>
        <time>2022-05-14T16:23:10.984Z</time>
      </trkpt>
      <trkpt lat="39.49848167" lon="2.51693">
        <ele>4.0</ele>
        <time>2022-05-14T16:23:11.985Z</time>
      </trkpt>
      <trkpt lat="39.49850167" lon="2.51699">
        <ele>3.0</ele>
        <time>2022-05-14T16:23:12.985Z</time>
      </trkpt>
      <trkpt lat="39.49852" lon="2.51705">
        <ele>3.0</ele>
        <time>2022-05-14T16:23:13.985Z</time>
      </trkpt>
      <trkpt lat="39.49853833" lon="2.51711">
        <ele>3.0</ele>
        <time>2022-05-14T16:23:14.985Z</time>
      </trkpt>
      <trkpt lat="39.498555" lon="2.517165">
        <ele>3.0</ele>
        <time>2022-05-14T16:23:15.985Z</time>
      </trkpt>
      <trkpt lat="39.498575" lon="2.51722167">
        <ele>4.0</ele>
        <time>2022-05-14T16:23:16.985Z</time>
      </trkpt>
      <trkpt lat="39.49859833" lon="2.51726833">
        <ele>4.0</ele>
        <time>2022-05-14T16:23:17.985Z</time>
      </trkpt>
      <trkpt lat="39.49862833" lon="2.51731">
        <ele>4.0</ele>
        <time>2022-05-14T16:23:18.985Z</time>
      </trkpt>
      <trkpt lat="39.49866167" lon="2.51734">
        <ele>4.0</ele>
        <time>2022-05-14T16:23:19.984Z</time>
      </trkpt>
      <trkpt lat="39.498695" lon="2.51737">
        <ele>4.0</ele>
        <time>2022-05-14T16:23:20.985Z</time>
      </trkpt>
      <trkpt lat="39.49872167" lon="2.517405">
        <ele>4.0</ele>
        <time>2022-05-14T16:23:21.984Z</time>
      </trkpt>
      <trkpt lat="39.49874667" lon="2.51743333">
        <ele>4.0</ele>
        <time>2022-05-14T16:23:22.985Z</time>
      </trkpt>
      <trkpt lat="39.498775" lon="2.51744833">
        <ele>4.0</ele>
        <time>2022-05-14T16:23:23.984Z</time>
      </trkpt>
      <trkpt lat="39.49880833" lon="2.51744833">
        <ele>4.0</ele>
        <time>2022-05-14T16:23:24.985Z</time>
      </trkpt>
      <trkpt lat="39.49884" lon="2.51743833">
        <ele>4.0</ele>
        <time>2022-05-14T16:23:25.985Z</time>
      </trkpt>
      <trkpt lat="39.49887167" lon="2.51742167">
        <ele>5.0</ele>
        <time>2022-05-14T16:23:26.985Z</time>
      </trkpt>
      <trkpt lat="39.49890667" lon="2.5174">
        <ele>5.0</ele>
        <time>2022-05-14T16:23:27.985Z</time>
      </trkpt>
      <trkpt lat="39.49894167" lon="2.51737667">
        <ele>5.0</ele>
        <time>2022-05-14T16:23:28.985Z</time>
      </trkpt>
      <trkpt lat="39.49897667" lon="2.51735333">
        <ele>5.0</ele>
        <time>2022-05-14T16:23:29.985Z</time>
      </trkpt>
      <trkpt lat="39.49901" lon="2.51733">
        <ele>5.0</ele>
        <time>2022-05-14T16:23:30.984Z</time>
      </trkpt>
      <trkpt lat="39.49904333" lon="2.5173">
        <ele>5.0</ele>
        <time>2022-05-14T16:23:31.985Z</time>
      </trkpt>
      <trkpt lat="39.49908" lon="2.51726833">
        <ele>5.0</ele>
        <time>2022-05-14T16:23:32.984Z</time>
      </trkpt>
      <trkpt lat="39.49911667" lon="2.51724">
        <ele>5.0</ele>
        <time>2022-05-14T16:23:33.985Z</time>
      </trkpt>
      <trkpt lat="39.499155" lon="2.51722">
        <ele>5.0</ele>
        <time>2022-05-14T16:23:34.985Z</time>
      </trkpt>
      <trkpt lat="39.4992" lon="2.51720167">
        <ele>5.0</ele>
        <time>2022-05-14T16:23:35.984Z</time>
      </trkpt>
      <trkpt lat="39.499245" lon="2.517195">
        <ele>5.0</ele>
        <time>2022-05-14T16:23:36.985Z</time>
      </trkpt>
      <trkpt lat="39.499285" lon="2.51719333">
        <ele>5.0</ele>
        <time>2022-05-14T16:23:37.985Z</time>
      </trkpt>
      <trkpt lat="39.49932333" lon="2.51720167">
        <ele>5.0</ele>
        <time>2022-05-14T16:23:38.985Z</time>
      </trkpt>
      <trkpt lat="39.49936" lon="2.51722">
        <ele>5.0</ele>
        <time>2022-05-14T16:23:39.985Z</time>
      </trkpt>
      <trkpt lat="39.499395" lon="2.51724667">
        <ele>5.0</ele>
        <time>2022-05-14T16:23:40.985Z</time>
      </trkpt>
      <trkpt lat="39.49943167" lon="2.517275">
        <ele>5.0</ele>
        <time>2022-05-14T16:23:41.984Z</time>
      </trkpt>
      <trkpt lat="39.49946667" lon="2.5173">
        <ele>4.0</ele>
        <time>2022-05-14T16:23:42.984Z</time>
      </trkpt>
      <trkpt lat="39.49950167" lon="2.51732667">
        <ele>4.0</ele>
        <time>2022-05-14T16:23:43.985Z</time>
      </trkpt>
      <trkpt lat="39.49953833" lon="2.51735333">
        <ele>4.0</ele>
        <time>2022-05-14T16:23:44.984Z</time>
      </trkpt>
      <trkpt lat="39.49957833" lon="2.51738333">
        <ele>4.0</ele>
        <time>2022-05-14T16:23:45.985Z</time>
      </trkpt>
      <trkpt lat="39.49961667" lon="2.51740833">
        <ele>5.0</ele>
        <time>2022-05-14T16:23:46.985Z</time>
      </trkpt>
      <trkpt lat="39.499655" lon="2.51742667">
        <ele>5.0</ele>
        <time>2022-05-14T16:23:47.985Z</time>
      </trkpt>
      <trkpt lat="39.499695" lon="2.51744333">
        <ele>5.0</ele>
        <time>2022-05-14T16:23:48.985Z</time>
      </trkpt>
      <trkpt lat="39.49973667" lon="2.51745667">
        <ele>5.0</ele>
        <time>2022-05-14T16:23:49.984Z</time>
      </trkpt>
      <trkpt lat="39.49977833" lon="2.51746833">
        <ele>5.0</ele>
        <time>2022-05-14T16:23:50.985Z</time>
      </trkpt>
      <trkpt lat="39.49982333" lon="2.51748">
        <ele>5.0</ele>
        <time>2022-05-14T16:23:51.984Z</time>
      </trkpt>
      <trkpt lat="39.49987" lon="2.51749333">
        <ele>5.0</ele>
        <time>2022-05-14T16:23:52.984Z</time>
      </trkpt>
      <trkpt lat="39.49991667" lon="2.5175">
        <ele>5.0</ele>
        <time>2022-05-14T16:23:53.985Z</time>
      </trkpt>
      <trkpt lat="39.499965" lon="2.5175">
        <ele>5.0</ele>
        <time>2022-05-14T16:23:54.984Z</time>
      </trkpt>
      <trkpt lat="39.50001" lon="2.51749">
        <ele>5.0</ele>
        <time>2022-05-14T16:23:55.984Z</time>
      </trkpt>
      <trkpt lat="39.50005167" lon="2.51747667">
        <ele>5.0</ele>
        <time>2022-05-14T16:23:56.984Z</time>
      </trkpt>
      <trkpt lat="39.50009333" lon="2.51746">
        <ele>5.0</ele>
        <time>2022-05-14T16:23:57.985Z</time>
      </trkpt>
      <trkpt lat="39.50013833" lon="2.51744167">
        <ele>6.0</ele>
        <time>2022-05-14T16:23:58.984Z</time>
      </trkpt>
      <trkpt lat="39.50018167" lon="2.51742333">
        <ele>6.0</ele>
        <time>2022-05-14T16:23:59.984Z</time>
      </trkpt>
      <trkpt lat="39.50022" lon="2.51740667">
        <ele>6.0</ele>
        <time>2022-05-14T16:24:00.985Z</time>
      </trkpt>
      <trkpt lat="39.50025833" lon="2.51738667">
        <ele>6.0</ele>
        <time>2022-05-14T16:24:01.985Z</time>
      </trkpt>
      <trkpt lat="39.50029833" lon="2.51736167">
        <ele>6.0</ele>
        <time>2022-05-14T16:24:02.985Z</time>
      </trkpt>
      <trkpt lat="39.50033667" lon="2.51733167">
        <ele>5.0</ele>
        <time>2022-05-14T16:24:03.985Z</time>
      </trkpt>
      <trkpt lat="39.50037833" lon="2.51730333">
        <ele>6.0</ele>
        <time>2022-05-14T16:24:04.984Z</time>
      </trkpt>
      <trkpt lat="39.50042" lon="2.517275">
        <ele>6.0</ele>
        <time>2022-05-14T16:24:05.984Z</time>
      </trkpt>
      <trkpt lat="39.50046167" lon="2.51724667">
        <ele>6.0</ele>
        <time>2022-05-14T16:24:06.985Z</time>
      </trkpt>
      <trkpt lat="39.50050167" lon="2.51722">
        <ele>6.0</ele>
        <time>2022-05-14T16:24:07.984Z</time>
      </trkpt>
      <trkpt lat="39.50054333" lon="2.51719333">
        <ele>6.0</ele>
        <time>2022-05-14T16:24:08.985Z</time>
      </trkpt>
      <trkpt lat="39.50058333" lon="2.517165">
        <ele>6.0</ele>
        <time>2022-05-14T16:24:09.985Z</time>
      </trkpt>
      <trkpt lat="39.50062333" lon="2.517135">
        <ele>5.0</ele>
        <time>2022-05-14T16:24:10.985Z</time>
      </trkpt>
      <trkpt lat="39.50066333" lon="2.51710333">
        <ele>5.0</ele>
        <time>2022-05-14T16:24:11.984Z</time>
      </trkpt>
      <trkpt lat="39.500705" lon="2.51707">
        <ele>4.0</ele>
        <time>2022-05-14T16:24:12.985Z</time>
      </trkpt>
      <trkpt lat="39.50074833" lon="2.51703667">
        <ele>4.0</ele>
        <time>2022-05-14T16:24:13.984Z</time>
      </trkpt>
      <trkpt lat="39.50079167" lon="2.51700333">
        <ele>4.0</ele>
        <time>2022-05-14T16:24:14.985Z</time>
      </trkpt>
      <trkpt lat="39.500835" lon="2.51697">
        <ele>4.0</ele>
        <time>2022-05-14T16:24:15.985Z</time>
      </trkpt>
      <trkpt lat="39.50087833" lon="2.51693667">
        <ele>3.0</ele>
        <time>2022-05-14T16:24:16.985Z</time>
      </trkpt>
      <trkpt lat="39.50092333" lon="2.516905">
        <ele>3.0</ele>
        <time>2022-05-14T16:24:17.985Z</time>
      </trkpt>
      <trkpt lat="39.50097" lon="2.516875">
        <ele>3.0</ele>
        <time>2022-05-14T16:24:18.985Z</time>
      </trkpt>
      <trkpt lat="39.501015" lon="2.51684">
        <ele>3.0</ele>
        <time>2022-05-14T16:24:19.984Z</time>
      </trkpt>
      <trkpt lat="39.50106333" lon="2.51680833">
        <ele>3.0</ele>
        <time>2022-05-14T16:24:20.985Z</time>
      </trkpt>
      <trkpt lat="39.50111167" lon="2.51678667">
        <ele>3.0</ele>
        <time>2022-05-14T16:24:21.985Z</time>
      </trkpt>
      <trkpt lat="39.50115833" lon="2.51677333">
        <ele>3.0</ele>
        <time>2022-05-14T16:24:22.984Z</time>
      </trkpt>
      <trkpt lat="39.50120333" lon="2.516775">
        <ele>3.0</ele>
        <time>2022-05-14T16:24:23.985Z</time>
      </trkpt>
      <trkpt lat="39.50125" lon="2.516785">
        <ele>3.0</ele>
        <time>2022-05-14T16:24:24.985Z</time>
      </trkpt>
      <trkpt lat="39.50129667" lon="2.51680333">
        <ele>3.0</ele>
        <time>2022-05-14T16:24:25.984Z</time>
      </trkpt>
      <trkpt lat="39.50134167" lon="2.51682333">
        <ele>3.0</ele>
        <time>2022-05-14T16:24:26.985Z</time>
      </trkpt>
      <trkpt lat="39.50138833" lon="2.51684333">
        <ele>3.0</ele>
        <time>2022-05-14T16:24:27.985Z</time>
      </trkpt>
      <trkpt lat="39.50143333" lon="2.51686667">
        <ele>2.0</ele>
        <time>2022-05-14T16:24:28.985Z</time>
      </trkpt>
      <trkpt lat="39.50148" lon="2.51689">
        <ele>2.0</ele>
        <time>2022-05-14T16:24:29.985Z</time>
      </trkpt>
      <trkpt lat="39.50152667" lon="2.516915">
        <ele>2.0</ele>
        <time>2022-05-14T16:24:30.984Z</time>
      </trkpt>
      <trkpt lat="39.50157167" lon="2.51693333">
        <ele>2.0</ele>
        <time>2022-05-14T16:24:31.985Z</time>
      </trkpt>
      <trkpt lat="39.50161667" lon="2.516955">
        <ele>2.0</ele>
        <time>2022-05-14T16:24:32.985Z</time>
      </trkpt>
      <trkpt lat="39.50166167" lon="2.516975">
        <ele>2.0</ele>
        <time>2022-05-14T16:24:33.985Z</time>
      </trkpt>
      <trkpt lat="39.5017" lon="2.516995">
        <ele>1.0</ele>
        <time>2022-05-14T16:24:34.985Z</time>
      </trkpt>
      <trkpt lat="39.50174167" lon="2.517015">
        <ele>1.0</ele>
        <time>2022-05-14T16:24:35.984Z</time>
      </trkpt>
      <trkpt lat="39.50178167" lon="2.51703167">
        <ele>1.0</ele>
        <time>2022-05-14T16:24:36.985Z</time>
      </trkpt>
      <trkpt lat="39.50182167" lon="2.51704833">
        <ele>1.0</ele>
        <time>2022-05-14T16:24:37.984Z</time>
      </trkpt>
      <trkpt lat="39.50186167" lon="2.51706167">
        <ele>1.0</ele>
        <time>2022-05-14T16:24:38.985Z</time>
      </trkpt>
      <trkpt lat="39.50189667" lon="2.51707833">
        <ele>1.0</ele>
        <time>2022-05-14T16:24:39.985Z</time>
      </trkpt>
      <trkpt lat="39.50192333" lon="2.51709667">
        <ele>1.0</ele>
        <time>2022-05-14T16:24:40.985Z</time>
      </trkpt>
      <trkpt lat="39.50194" lon="2.51712167">
        <ele>1.0</ele>
        <time>2022-05-14T16:24:41.985Z</time>
      </trkpt>
      <trkpt lat="39.50195" lon="2.51715">
        <ele>1.0</ele>
        <time>2022-05-14T16:24:42.985Z</time>
      </trkpt>
      <trkpt lat="39.50195667" lon="2.51718667">
        <ele>1.0</ele>
        <time>2022-05-14T16:24:43.985Z</time>
      </trkpt>
      <trkpt lat="39.50196667" lon="2.51723">
        <ele>1.0</ele>
        <time>2022-05-14T16:24:44.985Z</time>
      </trkpt>
      <trkpt lat="39.50197667" lon="2.51727167">
        <ele>1.0</ele>
        <time>2022-05-14T16:24:45.984Z</time>
      </trkpt>
      <trkpt lat="39.50199333" lon="2.517315">
        <ele>2.0</ele>
        <time>2022-05-14T16:24:46.984Z</time>
      </trkpt>
      <trkpt lat="39.50201833" lon="2.51735">
        <ele>2.0</ele>
        <time>2022-05-14T16:24:47.985Z</time>
      </trkpt>
      <trkpt lat="39.50204833" lon="2.51737833">
        <ele>2.0</ele>
        <time>2022-05-14T16:24:48.985Z</time>
      </trkpt>
      <trkpt lat="39.50208333" lon="2.5174">
        <ele>2.0</ele>
        <time>2022-05-14T16:24:49.984Z</time>
      </trkpt>
      <trkpt lat="39.50212" lon="2.51742167">
        <ele>2.0</ele>
        <time>2022-05-14T16:24:50.984Z</time>
      </trkpt>
      <trkpt lat="39.50216167" lon="2.51744167">
        <ele>2.0</ele>
        <time>2022-05-14T16:24:51.985Z</time>
      </trkpt>
      <trkpt lat="39.502205" lon="2.51746">
        <ele>2.0</ele>
        <time>2022-05-14T16:24:52.984Z</time>
      </trkpt>
      <trkpt lat="39.50225" lon="2.51747667">
        <ele>2.0</ele>
        <time>2022-05-14T16:24:53.985Z</time>
      </trkpt>
      <trkpt lat="39.50229667" lon="2.51749667">
        <ele>1.0</ele>
        <time>2022-05-14T16:24:54.985Z</time>
      </trkpt>
      <trkpt lat="39.50234167" lon="2.51751667">
        <ele>1.0</ele>
        <time>2022-05-14T16:24:55.984Z</time>
      </trkpt>
      <trkpt lat="39.50238833" lon="2.51753667">
        <ele>1.0</ele>
        <time>2022-05-14T16:24:56.984Z</time>
      </trkpt>
      <trkpt lat="39.502435" lon="2.51755667">
        <ele>1.0</ele>
        <time>2022-05-14T16:24:57.984Z</time>
      </trkpt>
      <trkpt lat="39.50248" lon="2.517575">
        <ele>1.0</ele>
        <time>2022-05-14T16:24:58.985Z</time>
      </trkpt>
      <trkpt lat="39.50252833" lon="2.517595">
        <ele>0.0</ele>
        <time>2022-05-14T16:24:59.985Z</time>
      </trkpt>
      <trkpt lat="39.50257667" lon="2.51761667">
        <ele>0.0</ele>
        <time>2022-05-14T16:25:00.985Z</time>
      </trkpt>
      <trkpt lat="39.50262333" lon="2.51763833">
        <ele>0.0</ele>
        <time>2022-05-14T16:25:01.984Z</time>
      </trkpt>
      <trkpt lat="39.50267" lon="2.51766">
        <ele>0.0</ele>
        <time>2022-05-14T16:25:02.985Z</time>
      </trkpt>
      <trkpt lat="39.50271667" lon="2.51768333">
        <ele>0.0</ele>
        <time>2022-05-14T16:25:03.985Z</time>
      </trkpt>
      <trkpt lat="39.50276167" lon="2.51770667">
        <ele>0.0</ele>
        <time>2022-05-14T16:25:04.985Z</time>
      </trkpt>
      <trkpt lat="39.50280667" lon="2.51773">
        <ele>0.0</ele>
        <time>2022-05-14T16:25:05.985Z</time>
      </trkpt>
      <trkpt lat="39.50285" lon="2.51775167">
        <ele>0.0</ele>
        <time>2022-05-14T16:25:06.985Z</time>
      </trkpt>
      <trkpt lat="39.502895" lon="2.51777167">
        <ele>-1.0</ele>
        <time>2022-05-14T16:25:07.985Z</time>
      </trkpt>
      <trkpt lat="39.50294167" lon="2.51779333">
        <ele>0.0</ele>
        <time>2022-05-14T16:25:08.985Z</time>
      </trkpt>
      <trkpt lat="39.50298833" lon="2.51781333">
        <ele>0.0</ele>
        <time>2022-05-14T16:25:09.985Z</time>
      </trkpt>
      <trkpt lat="39.503035" lon="2.51783667">
        <ele>0.0</ele>
        <time>2022-05-14T16:25:10.985Z</time>
      </trkpt>
      <trkpt lat="39.50308333" lon="2.51786">
        <ele>0.0</ele>
        <time>2022-05-14T16:25:11.985Z</time>
      </trkpt>
      <trkpt lat="39.50313" lon="2.51788167">
        <ele>0.0</ele>
        <time>2022-05-14T16:25:12.985Z</time>
      </trkpt>
      <trkpt lat="39.503175" lon="2.5179">
        <ele>0.0</ele>
        <time>2022-05-14T16:25:13.985Z</time>
      </trkpt>
      <trkpt lat="39.50321667" lon="2.51792">
        <ele>0.0</ele>
        <time>2022-05-14T16:25:14.984Z</time>
      </trkpt>
      <trkpt lat="39.50326167" lon="2.51794333">
        <ele>0.0</ele>
        <time>2022-05-14T16:25:15.985Z</time>
      </trkpt>
      <trkpt lat="39.50330833" lon="2.51796667">
        <ele>0.0</ele>
        <time>2022-05-14T16:25:16.984Z</time>
      </trkpt>
      <trkpt lat="39.503355" lon="2.51798833">
        <ele>0.0</ele>
        <time>2022-05-14T16:25:17.985Z</time>
      </trkpt>
      <trkpt lat="39.5034" lon="2.51801">
        <ele>0.0</ele>
        <time>2022-05-14T16:25:18.985Z</time>
      </trkpt>
      <trkpt lat="39.50344667" lon="2.51802833">
        <ele>0.0</ele>
        <time>2022-05-14T16:25:19.985Z</time>
      </trkpt>
      <trkpt lat="39.50349" lon="2.51804833">
        <ele>0.0</ele>
        <time>2022-05-14T16:25:20.985Z</time>
      </trkpt>
      <trkpt lat="39.50353333" lon="2.51806667">
        <ele>0.0</ele>
        <time>2022-05-14T16:25:21.984Z</time>
      </trkpt>
      <trkpt lat="39.503575" lon="2.518085">
        <ele>0.0</ele>
        <time>2022-05-14T16:25:22.984Z</time>
      </trkpt>
      <trkpt lat="39.50361833" lon="2.518105">
        <ele>0.0</ele>
        <time>2022-05-14T16:25:23.984Z</time>
      </trkpt>
      <trkpt lat="39.50366167" lon="2.51812667">
        <ele>0.0</ele>
        <time>2022-05-14T16:25:24.985Z</time>
      </trkpt>
      <trkpt lat="39.50370333" lon="2.51814667">
        <ele>0.0</ele>
        <time>2022-05-14T16:25:25.985Z</time>
      </trkpt>
      <trkpt lat="39.50374333" lon="2.51816667">
        <ele>0.0</ele>
        <time>2022-05-14T16:25:26.984Z</time>
      </trkpt>
      <trkpt lat="39.50378167" lon="2.51818667">
        <ele>0.0</ele>
        <time>2022-05-14T16:25:27.985Z</time>
      </trkpt>
      <trkpt lat="39.50382" lon="2.51820333">
        <ele>0.0</ele>
        <time>2022-05-14T16:25:28.985Z</time>
      </trkpt>
      <trkpt lat="39.50386167" lon="2.51822167">
        <ele>1.0</ele>
        <time>2022-05-14T16:25:29.985Z</time>
      </trkpt>
      <trkpt lat="39.50390333" lon="2.51824">
        <ele>1.0</ele>
        <time>2022-05-14T16:25:30.985Z</time>
      </trkpt>
      <trkpt lat="39.50394833" lon="2.51825833">
        <ele>1.0</ele>
        <time>2022-05-14T16:25:31.985Z</time>
      </trkpt>
      <trkpt lat="39.50399" lon="2.51827667">
        <ele>1.0</ele>
        <time>2022-05-14T16:25:32.984Z</time>
      </trkpt>
      <trkpt lat="39.50402833" lon="2.518295">
        <ele>1.0</ele>
        <time>2022-05-14T16:25:33.985Z</time>
      </trkpt>
      <trkpt lat="39.504065" lon="2.518315">
        <ele>1.0</ele>
        <time>2022-05-14T16:25:34.984Z</time>
      </trkpt>
      <trkpt lat="39.50410333" lon="2.518335">
        <ele>1.0</ele>
        <time>2022-05-14T16:25:35.985Z</time>
      </trkpt>
      <trkpt lat="39.50414167" lon="2.518355">
        <ele>1.0</ele>
        <time>2022-05-14T16:25:36.985Z</time>
      </trkpt>
      <trkpt lat="39.50418" lon="2.51837667">
        <ele>2.0</ele>
        <time>2022-05-14T16:25:37.985Z</time>
      </trkpt>
      <trkpt lat="39.50421833" lon="2.518395">
        <ele>1.0</ele>
        <time>2022-05-14T16:25:38.985Z</time>
      </trkpt>
      <trkpt lat="39.50425667" lon="2.51841167">
        <ele>1.0</ele>
        <time>2022-05-14T16:25:39.985Z</time>
      </trkpt>
      <trkpt lat="39.50429667" lon="2.51842667">
        <ele>1.0</ele>
        <time>2022-05-14T16:25:40.985Z</time>
      </trkpt>
      <trkpt lat="39.50433667" lon="2.51843833">
        <ele>1.0</ele>
        <time>2022-05-14T16:25:41.985Z</time>
      </trkpt>
      <trkpt lat="39.50437833" lon="2.518455">
        <ele>1.0</ele>
        <time>2022-05-14T16:25:42.984Z</time>
      </trkpt>
      <trkpt lat="39.50441667" lon="2.51847167">
        <ele>1.0</ele>
        <time>2022-05-14T16:25:43.985Z</time>
      </trkpt>
      <trkpt lat="39.50445833" lon="2.51849167">
        <ele>1.0</ele>
        <time>2022-05-14T16:25:44.985Z</time>
      </trkpt>
      <trkpt lat="39.5045" lon="2.51851">
        <ele>1.0</ele>
        <time>2022-05-14T16:25:45.985Z</time>
      </trkpt>
      <trkpt lat="39.50454333" lon="2.51853">
        <ele>1.0</ele>
        <time>2022-05-14T16:25:46.985Z</time>
      </trkpt>
      <trkpt lat="39.50458333" lon="2.51855">
        <ele>1.0</ele>
        <time>2022-05-14T16:25:47.985Z</time>
      </trkpt>
      <trkpt lat="39.50462333" lon="2.51856833">
        <ele>1.0</ele>
        <time>2022-05-14T16:25:48.985Z</time>
      </trkpt>
      <trkpt lat="39.50466833" lon="2.51859333">
        <ele>1.0</ele>
        <time>2022-05-14T16:25:49.985Z</time>
      </trkpt>
      <trkpt lat="39.50471" lon="2.51861833">
        <ele>1.0</ele>
        <time>2022-05-14T16:25:50.985Z</time>
      </trkpt>
      <trkpt lat="39.50475167" lon="2.51864167">
        <ele>1.0</ele>
        <time>2022-05-14T16:25:51.985Z</time>
      </trkpt>
      <trkpt lat="39.504795" lon="2.51866167">
        <ele>1.0</ele>
        <time>2022-05-14T16:25:52.985Z</time>
      </trkpt>
      <trkpt lat="39.50483833" lon="2.51868333">
        <ele>1.0</ele>
        <time>2022-05-14T16:25:53.985Z</time>
      </trkpt>
      <trkpt lat="39.50488167" lon="2.51870333">
        <ele>1.0</ele>
        <time>2022-05-14T16:25:54.984Z</time>
      </trkpt>
      <trkpt lat="39.50492333" lon="2.51872333">
        <ele>1.0</ele>
        <time>2022-05-14T16:25:55.985Z</time>
      </trkpt>
      <trkpt lat="39.50496333" lon="2.51874167">
        <ele>2.0</ele>
        <time>2022-05-14T16:25:56.985Z</time>
      </trkpt>
      <trkpt lat="39.505005" lon="2.51876333">
        <ele>2.0</ele>
        <time>2022-05-14T16:25:57.985Z</time>
      </trkpt>
      <trkpt lat="39.50504833" lon="2.518785">
        <ele>2.0</ele>
        <time>2022-05-14T16:25:58.985Z</time>
      </trkpt>
      <trkpt lat="39.50509" lon="2.51880667">
        <ele>2.0</ele>
        <time>2022-05-14T16:25:59.985Z</time>
      </trkpt>
      <trkpt lat="39.50513" lon="2.518825">
        <ele>2.0</ele>
        <time>2022-05-14T16:26:00.984Z</time>
      </trkpt>
      <trkpt lat="39.50517" lon="2.518845">
        <ele>1.0</ele>
        <time>2022-05-14T16:26:01.985Z</time>
      </trkpt>
      <trkpt lat="39.505215" lon="2.51886167">
        <ele>1.0</ele>
        <time>2022-05-14T16:26:02.985Z</time>
      </trkpt>
      <trkpt lat="39.50526" lon="2.51888">
        <ele>1.0</ele>
        <time>2022-05-14T16:26:03.985Z</time>
      </trkpt>
      <trkpt lat="39.50530667" lon="2.51889833">
        <ele>1.0</ele>
        <time>2022-05-14T16:26:04.985Z</time>
      </trkpt>
      <trkpt lat="39.50535" lon="2.51891833">
        <ele>1.0</ele>
        <time>2022-05-14T16:26:05.985Z</time>
      </trkpt>
      <trkpt lat="39.50539333" lon="2.51894167">
        <ele>1.0</ele>
        <time>2022-05-14T16:26:06.985Z</time>
      </trkpt>
      <trkpt lat="39.50543667" lon="2.51896167">
        <ele>1.0</ele>
        <time>2022-05-14T16:26:07.985Z</time>
      </trkpt>
      <trkpt lat="39.50548" lon="2.51898333">
        <ele>0.0</ele>
        <time>2022-05-14T16:26:08.985Z</time>
      </trkpt>
      <trkpt lat="39.50552333" lon="2.51900167">
        <ele>0.0</ele>
        <time>2022-05-14T16:26:09.984Z</time>
      </trkpt>
      <trkpt lat="39.50557" lon="2.51901833">
        <ele>0.0</ele>
        <time>2022-05-14T16:26:10.985Z</time>
      </trkpt>
      <trkpt lat="39.505615" lon="2.51903667">
        <ele>0.0</ele>
        <time>2022-05-14T16:26:11.984Z</time>
      </trkpt>
      <trkpt lat="39.50565667" lon="2.51905833">
        <ele>0.0</ele>
        <time>2022-05-14T16:26:12.985Z</time>
      </trkpt>
      <trkpt lat="39.5057" lon="2.51908">
        <ele>0.0</ele>
        <time>2022-05-14T16:26:13.985Z</time>
      </trkpt>
      <trkpt lat="39.50574333" lon="2.5191">
        <ele>0.0</ele>
        <time>2022-05-14T16:26:14.985Z</time>
      </trkpt>
      <trkpt lat="39.50578667" lon="2.51912">
        <ele>0.0</ele>
        <time>2022-05-14T16:26:15.985Z</time>
      </trkpt>
      <trkpt lat="39.50583333" lon="2.51914167">
        <ele>0.0</ele>
        <time>2022-05-14T16:26:16.985Z</time>
      </trkpt>
      <trkpt lat="39.50588" lon="2.51916333">
        <ele>0.0</ele>
        <time>2022-05-14T16:26:17.985Z</time>
      </trkpt>
      <trkpt lat="39.50592833" lon="2.51918167">
        <ele>1.0</ele>
        <time>2022-05-14T16:26:18.985Z</time>
      </trkpt>
      <trkpt lat="39.505975" lon="2.51920167">
        <ele>0.0</ele>
        <time>2022-05-14T16:26:19.985Z</time>
      </trkpt>
      <trkpt lat="39.50602" lon="2.51922">
        <ele>0.0</ele>
        <time>2022-05-14T16:26:20.985Z</time>
      </trkpt>
      <trkpt lat="39.506065" lon="2.51924">
        <ele>0.0</ele>
        <time>2022-05-14T16:26:21.985Z</time>
      </trkpt>
      <trkpt lat="39.50611" lon="2.51925833">
        <ele>0.0</ele>
        <time>2022-05-14T16:26:22.984Z</time>
      </trkpt>
      <trkpt lat="39.506155" lon="2.51927833">
        <ele>1.0</ele>
        <time>2022-05-14T16:26:23.985Z</time>
      </trkpt>
      <trkpt lat="39.50619833" lon="2.51929833">
        <ele>1.0</ele>
        <time>2022-05-14T16:26:24.985Z</time>
      </trkpt>
      <trkpt lat="39.50624167" lon="2.51931667">
        <ele>1.0</ele>
        <time>2022-05-14T16:26:25.985Z</time>
      </trkpt>
      <trkpt lat="39.50628667" lon="2.519335">
        <ele>1.0</ele>
        <time>2022-05-14T16:26:26.985Z</time>
      </trkpt>
      <trkpt lat="39.50633333" lon="2.51935333">
        <ele>1.0</ele>
        <time>2022-05-14T16:26:27.984Z</time>
      </trkpt>
      <trkpt lat="39.50637833" lon="2.51937">
        <ele>1.0</ele>
        <time>2022-05-14T16:26:28.985Z</time>
      </trkpt>
      <trkpt lat="39.50642167" lon="2.51938333">
        <ele>1.0</ele>
        <time>2022-05-14T16:26:29.985Z</time>
      </trkpt>
      <trkpt lat="39.50646833" lon="2.519395">
        <ele>1.0</ele>
        <time>2022-05-14T16:26:30.984Z</time>
      </trkpt>
      <trkpt lat="39.50651667" lon="2.51940833">
        <ele>2.0</ele>
        <time>2022-05-14T16:26:31.985Z</time>
      </trkpt>
      <trkpt lat="39.50656333" lon="2.51942">
        <ele>1.0</ele>
        <time>2022-05-14T16:26:32.985Z</time>
      </trkpt>
      <trkpt lat="39.50660833" lon="2.51942667">
        <ele>1.0</ele>
        <time>2022-05-14T16:26:33.985Z</time>
      </trkpt>
      <trkpt lat="39.50665333" lon="2.51943667">
        <ele>1.0</ele>
        <time>2022-05-14T16:26:34.984Z</time>
      </trkpt>
      <trkpt lat="39.50669833" lon="2.51944333">
        <ele>1.0</ele>
        <time>2022-05-14T16:26:35.985Z</time>
      </trkpt>
      <trkpt lat="39.50674333" lon="2.51944667">
        <ele>1.0</ele>
        <time>2022-05-14T16:26:36.985Z</time>
      </trkpt>
      <trkpt lat="39.50678667" lon="2.51945">
        <ele>1.0</ele>
        <time>2022-05-14T16:26:37.985Z</time>
      </trkpt>
      <trkpt lat="39.50682833" lon="2.51945667">
        <ele>1.0</ele>
        <time>2022-05-14T16:26:38.984Z</time>
      </trkpt>
      <trkpt lat="39.50687167" lon="2.51946333">
        <ele>1.0</ele>
        <time>2022-05-14T16:26:39.985Z</time>
      </trkpt>
      <trkpt lat="39.506915" lon="2.51947">
        <ele>1.0</ele>
        <time>2022-05-14T16:26:40.984Z</time>
      </trkpt>
      <trkpt lat="39.50695833" lon="2.519475">
        <ele>0.0</ele>
        <time>2022-05-14T16:26:41.985Z</time>
      </trkpt>
      <trkpt lat="39.50700333" lon="2.51948167">
        <ele>0.0</ele>
        <time>2022-05-14T16:26:42.985Z</time>
      </trkpt>
      <trkpt lat="39.50704667" lon="2.51948667">
        <ele>0.0</ele>
        <time>2022-05-14T16:26:43.985Z</time>
      </trkpt>
      <trkpt lat="39.50709" lon="2.51949333">
        <ele>0.0</ele>
        <time>2022-05-14T16:26:44.985Z</time>
      </trkpt>
      <trkpt lat="39.507135" lon="2.51950167">
        <ele>0.0</ele>
        <time>2022-05-14T16:26:45.985Z</time>
      </trkpt>
      <trkpt lat="39.50718" lon="2.519515">
        <ele>0.0</ele>
        <time>2022-05-14T16:26:46.985Z</time>
      </trkpt>
      <trkpt lat="39.50722" lon="2.51953833">
        <ele>0.0</ele>
        <time>2022-05-14T16:26:47.985Z</time>
      </trkpt>
      <trkpt lat="39.50725667" lon="2.51957167">
        <ele>0.0</ele>
        <time>2022-05-14T16:26:48.985Z</time>
      </trkpt>
      <trkpt lat="39.50728833" lon="2.51961167">
        <ele>0.0</ele>
        <time>2022-05-14T16:26:49.985Z</time>
      </trkpt>
      <trkpt lat="39.50731333" lon="2.51966">
        <ele>0.0</ele>
        <time>2022-05-14T16:26:50.985Z</time>
      </trkpt>
      <trkpt lat="39.50733" lon="2.51971333">
        <ele>1.0</ele>
        <time>2022-05-14T16:26:51.985Z</time>
      </trkpt>
      <trkpt lat="39.50734333" lon="2.51976667">
        <ele>1.0</ele>
        <time>2022-05-14T16:26:52.985Z</time>
      </trkpt>
      <trkpt lat="39.50736" lon="2.51981167">
        <ele>0.0</ele>
        <time>2022-05-14T16:26:53.985Z</time>
      </trkpt>
      <trkpt lat="39.50738333" lon="2.51984833">
        <ele>0.0</ele>
        <time>2022-05-14T16:26:54.985Z</time>
      </trkpt>
      <trkpt lat="39.50741333" lon="2.51987333">
        <ele>0.0</ele>
        <time>2022-05-14T16:26:55.985Z</time>
      </trkpt>
      <trkpt lat="39.507445" lon="2.51989167">
        <ele>0.0</ele>
        <time>2022-05-14T16:26:56.985Z</time>
      </trkpt>
      <trkpt lat="39.50748167" lon="2.51990667">
        <ele>0.0</ele>
        <time>2022-05-14T16:26:57.985Z</time>
      </trkpt>
      <trkpt lat="39.50751667" lon="2.51991167">
        <ele>0.0</ele>
        <time>2022-05-14T16:26:58.985Z</time>
      </trkpt>
      <trkpt lat="39.50755167" lon="2.51989833">
        <ele>0.0</ele>
        <time>2022-05-14T16:26:59.985Z</time>
      </trkpt>
      <trkpt lat="39.50758667" lon="2.51987333">
        <ele>0.0</ele>
        <time>2022-05-14T16:27:00.985Z</time>
      </trkpt>
      <trkpt lat="39.50762" lon="2.51984167">
        <ele>0.0</ele>
        <time>2022-05-14T16:27:01.985Z</time>
      </trkpt>
      <trkpt lat="39.50765167" lon="2.51980833">
        <ele>0.0</ele>
        <time>2022-05-14T16:27:02.985Z</time>
      </trkpt>
      <trkpt lat="39.50768667" lon="2.51977667">
        <ele>0.0</ele>
        <time>2022-05-14T16:27:03.984Z</time>
      </trkpt>
      <trkpt lat="39.50772" lon="2.51974333">
        <ele>0.0</ele>
        <time>2022-05-14T16:27:04.985Z</time>
      </trkpt>
      <trkpt lat="39.50775333" lon="2.51971">
        <ele>0.0</ele>
        <time>2022-05-14T16:27:05.985Z</time>
      </trkpt>
      <trkpt lat="39.50778667" lon="2.51967167">
        <ele>0.0</ele>
        <time>2022-05-14T16:27:06.985Z</time>
      </trkpt>
      <trkpt lat="39.50782" lon="2.51963333">
        <ele>0.0</ele>
        <time>2022-05-14T16:27:07.984Z</time>
      </trkpt>
      <trkpt lat="39.507855" lon="2.51959333">
        <ele>0.0</ele>
        <time>2022-05-14T16:27:08.985Z</time>
      </trkpt>
      <trkpt lat="39.50788833" lon="2.519555">
        <ele>0.0</ele>
        <time>2022-05-14T16:27:09.985Z</time>
      </trkpt>
      <trkpt lat="39.50792167" lon="2.519515">
        <ele>0.0</ele>
        <time>2022-05-14T16:27:10.985Z</time>
      </trkpt>
      <trkpt lat="39.50795833" lon="2.51947667">
        <ele>0.0</ele>
        <time>2022-05-14T16:27:11.985Z</time>
      </trkpt>
      <trkpt lat="39.50799333" lon="2.51943667">
        <ele>0.0</ele>
        <time>2022-05-14T16:27:12.985Z</time>
      </trkpt>
      <trkpt lat="39.50803167" lon="2.5194">
        <ele>1.0</ele>
        <time>2022-05-14T16:27:13.985Z</time>
      </trkpt>
      <trkpt lat="39.50807" lon="2.519365">
        <ele>1.0</ele>
        <time>2022-05-14T16:27:14.985Z</time>
      </trkpt>
      <trkpt lat="39.50811167" lon="2.51933167">
        <ele>1.0</ele>
        <time>2022-05-14T16:27:15.984Z</time>
      </trkpt>
      <trkpt lat="39.50815333" lon="2.5193">
        <ele>1.0</ele>
        <time>2022-05-14T16:27:16.985Z</time>
      </trkpt>
      <trkpt lat="39.50819833" lon="2.51927333">
        <ele>0.0</ele>
        <time>2022-05-14T16:27:17.985Z</time>
      </trkpt>
      <trkpt lat="39.50824333" lon="2.51925167">
        <ele>0.0</ele>
        <time>2022-05-14T16:27:18.985Z</time>
      </trkpt>
      <trkpt lat="39.50828833" lon="2.51923833">
        <ele>0.0</ele>
        <time>2022-05-14T16:27:19.985Z</time>
      </trkpt>
      <trkpt lat="39.50833333" lon="2.51922833">
        <ele>0.0</ele>
        <time>2022-05-14T16:27:20.985Z</time>
      </trkpt>
      <trkpt lat="39.50837833" lon="2.51921833">
        <ele>0.0</ele>
        <time>2022-05-14T16:27:21.985Z</time>
      </trkpt>
      <trkpt lat="39.50842167" lon="2.51920667">
        <ele>1.0</ele>
        <time>2022-05-14T16:27:22.985Z</time>
      </trkpt>
      <trkpt lat="39.508465" lon="2.519195">
        <ele>0.0</ele>
        <time>2022-05-14T16:27:23.984Z</time>
      </trkpt>
      <trkpt lat="39.50850833" lon="2.51918333">
        <ele>0.0</ele>
        <time>2022-05-14T16:27:24.985Z</time>
      </trkpt>
      <trkpt lat="39.50855167" lon="2.51917333">
        <ele>0.0</ele>
        <time>2022-05-14T16:27:25.985Z</time>
      </trkpt>
      <trkpt lat="39.50859833" lon="2.51916667">
        <ele>0.0</ele>
        <time>2022-05-14T16:27:26.985Z</time>
      </trkpt>
      <trkpt lat="39.508645" lon="2.51916">
        <ele>0.0</ele>
        <time>2022-05-14T16:27:27.985Z</time>
      </trkpt>
      <trkpt lat="39.50869167" lon="2.519155">
        <ele>0.0</ele>
        <time>2022-05-14T16:27:28.984Z</time>
      </trkpt>
      <trkpt lat="39.50873833" lon="2.51915333">
        <ele>0.0</ele>
        <time>2022-05-14T16:27:29.985Z</time>
      </trkpt>
      <trkpt lat="39.508785" lon="2.51915167">
        <ele>0.0</ele>
        <time>2022-05-14T16:27:30.985Z</time>
      </trkpt>
      <trkpt lat="39.508835" lon="2.51915">
        <ele>0.0</ele>
        <time>2022-05-14T16:27:31.985Z</time>
      </trkpt>
      <trkpt lat="39.50887167" lon="2.51914667">
        <ele>0.0</ele>
        <time>2022-05-14T16:27:32.984Z</time>
      </trkpt>
      <trkpt lat="39.508925" lon="2.519145">
        <ele>0.0</ele>
        <time>2022-05-14T16:27:33.985Z</time>
      </trkpt>
      <trkpt lat="39.50897" lon="2.519145">
        <ele>0.0</ele>
        <time>2022-05-14T16:27:34.985Z</time>
      </trkpt>
      <trkpt lat="39.50901333" lon="2.51914333">
        <ele>0.0</ele>
        <time>2022-05-14T16:27:35.985Z</time>
      </trkpt>
      <trkpt lat="39.50906" lon="2.51914167">
        <ele>0.0</ele>
        <time>2022-05-14T16:27:36.985Z</time>
      </trkpt>
      <trkpt lat="39.509105" lon="2.51914">
        <ele>0.0</ele>
        <time>2022-05-14T16:27:37.985Z</time>
      </trkpt>
      <trkpt lat="39.50914833" lon="2.51913833">
        <ele>0.0</ele>
        <time>2022-05-14T16:27:38.985Z</time>
      </trkpt>
      <trkpt lat="39.509195" lon="2.51913667">
        <ele>0.0</ele>
        <time>2022-05-14T16:27:39.985Z</time>
      </trkpt>
      <trkpt lat="39.50924167" lon="2.519135">
        <ele>0.0</ele>
        <time>2022-05-14T16:27:40.984Z</time>
      </trkpt>
      <trkpt lat="39.50928667" lon="2.51913167">
        <ele>0.0</ele>
        <time>2022-05-14T16:27:41.985Z</time>
      </trkpt>
      <trkpt lat="39.50933167" lon="2.519125">
        <ele>0.0</ele>
        <time>2022-05-14T16:27:42.985Z</time>
      </trkpt>
      <trkpt lat="39.509375" lon="2.51912">
        <ele>0.0</ele>
        <time>2022-05-14T16:27:43.985Z</time>
      </trkpt>
      <trkpt lat="39.50941833" lon="2.51911333">
        <ele>0.0</ele>
        <time>2022-05-14T16:27:44.984Z</time>
      </trkpt>
      <trkpt lat="39.50946167" lon="2.51910667">
        <ele>0.0</ele>
        <time>2022-05-14T16:27:45.985Z</time>
      </trkpt>
      <trkpt lat="39.509495" lon="2.51910167">
        <ele>0.0</ele>
        <time>2022-05-14T16:27:46.984Z</time>
      </trkpt>
      <trkpt lat="39.50955" lon="2.51909333">
        <ele>0.0</ele>
        <time>2022-05-14T16:27:47.985Z</time>
      </trkpt>
      <trkpt lat="39.50959167" lon="2.51908333">
        <ele>0.0</ele>
        <time>2022-05-14T16:27:48.985Z</time>
      </trkpt>
      <trkpt lat="39.509635" lon="2.51907333">
        <ele>0.0</ele>
        <time>2022-05-14T16:27:49.985Z</time>
      </trkpt>
      <trkpt lat="39.50967833" lon="2.51906167">
        <ele>0.0</ele>
        <time>2022-05-14T16:27:50.985Z</time>
      </trkpt>
      <trkpt lat="39.50972167" lon="2.51905">
        <ele>0.0</ele>
        <time>2022-05-14T16:27:51.985Z</time>
      </trkpt>
      <trkpt lat="39.509765" lon="2.51903667">
        <ele>0.0</ele>
        <time>2022-05-14T16:27:52.985Z</time>
      </trkpt>
      <trkpt lat="39.50980833" lon="2.51902333">
        <ele>1.0</ele>
        <time>2022-05-14T16:27:53.985Z</time>
      </trkpt>
      <trkpt lat="39.50985167" lon="2.51900833">
        <ele>2.0</ele>
        <time>2022-05-14T16:27:54.985Z</time>
      </trkpt>
      <trkpt lat="39.50989333" lon="2.518995">
        <ele>2.0</ele>
        <time>2022-05-14T16:27:55.985Z</time>
      </trkpt>
      <trkpt lat="39.50993833" lon="2.51898167">
        <ele>3.0</ele>
        <time>2022-05-14T16:27:56.985Z</time>
      </trkpt>
      <trkpt lat="39.50998333" lon="2.51896667">
        <ele>3.0</ele>
        <time>2022-05-14T16:27:57.985Z</time>
      </trkpt>
      <trkpt lat="39.51002833" lon="2.51895333">
        <ele>3.0</ele>
        <time>2022-05-14T16:27:58.985Z</time>
      </trkpt>
      <trkpt lat="39.51007167" lon="2.51893833">
        <ele>2.0</ele>
        <time>2022-05-14T16:27:59.985Z</time>
      </trkpt>
      <trkpt lat="39.51011667" lon="2.518925">
        <ele>2.0</ele>
        <time>2022-05-14T16:28:00.985Z</time>
      </trkpt>
      <trkpt lat="39.51016333" lon="2.518915">
        <ele>1.0</ele>
        <time>2022-05-14T16:28:01.985Z</time>
      </trkpt>
      <trkpt lat="39.51021" lon="2.51890667">
        <ele>1.0</ele>
        <time>2022-05-14T16:28:02.985Z</time>
      </trkpt>
      <trkpt lat="39.51025667" lon="2.51889833">
        <ele>1.0</ele>
        <time>2022-05-14T16:28:03.985Z</time>
      </trkpt>
      <trkpt lat="39.510305" lon="2.51889">
        <ele>0.0</ele>
        <time>2022-05-14T16:28:04.985Z</time>
      </trkpt>
      <trkpt lat="39.51035333" lon="2.51888">
        <ele>0.0</ele>
        <time>2022-05-14T16:28:05.985Z</time>
      </trkpt>
      <trkpt lat="39.5104" lon="2.51887">
        <ele>0.0</ele>
        <time>2022-05-14T16:28:06.985Z</time>
      </trkpt>
      <trkpt lat="39.51044667" lon="2.51886167">
        <ele>0.0</ele>
        <time>2022-05-14T16:28:07.985Z</time>
      </trkpt>
      <trkpt lat="39.51049333" lon="2.518855">
        <ele>0.0</ele>
        <time>2022-05-14T16:28:08.985Z</time>
      </trkpt>
      <trkpt lat="39.51054167" lon="2.51884833">
        <ele>0.0</ele>
        <time>2022-05-14T16:28:09.985Z</time>
      </trkpt>
      <trkpt lat="39.51059" lon="2.51884833">
        <ele>0.0</ele>
        <time>2022-05-14T16:28:10.985Z</time>
      </trkpt>
      <trkpt lat="39.51063833" lon="2.51885">
        <ele>0.0</ele>
        <time>2022-05-14T16:28:11.985Z</time>
      </trkpt>
      <trkpt lat="39.51068667" lon="2.51885667">
        <ele>0.0</ele>
        <time>2022-05-14T16:28:12.985Z</time>
      </trkpt>
      <trkpt lat="39.510735" lon="2.51886333">
        <ele>0.0</ele>
        <time>2022-05-14T16:28:13.985Z</time>
      </trkpt>
      <trkpt lat="39.51078167" lon="2.51887333">
        <ele>0.0</ele>
        <time>2022-05-14T16:28:14.985Z</time>
      </trkpt>
      <trkpt lat="39.51082667" lon="2.518885">
        <ele>0.0</ele>
        <time>2022-05-14T16:28:15.985Z</time>
      </trkpt>
      <trkpt lat="39.51087" lon="2.51889667">
        <ele>0.0</ele>
        <time>2022-05-14T16:28:16.985Z</time>
      </trkpt>
      <trkpt lat="39.510915" lon="2.51891">
        <ele>0.0</ele>
        <time>2022-05-14T16:28:17.985Z</time>
      </trkpt>
      <trkpt lat="39.51096" lon="2.51892667">
        <ele>0.0</ele>
        <time>2022-05-14T16:28:18.985Z</time>
      </trkpt>
      <trkpt lat="39.51100333" lon="2.51895">
        <ele>0.0</ele>
        <time>2022-05-14T16:28:19.984Z</time>
      </trkpt>
      <trkpt lat="39.511045" lon="2.518975">
        <ele>0.0</ele>
        <time>2022-05-14T16:28:20.985Z</time>
      </trkpt>
      <trkpt lat="39.511085" lon="2.51900333">
        <ele>0.0</ele>
        <time>2022-05-14T16:28:21.985Z</time>
      </trkpt>
      <trkpt lat="39.51112333" lon="2.519035">
        <ele>0.0</ele>
        <time>2022-05-14T16:28:22.985Z</time>
      </trkpt>
      <trkpt lat="39.51116" lon="2.51906833">
        <ele>1.0</ele>
        <time>2022-05-14T16:28:23.985Z</time>
      </trkpt>
      <trkpt lat="39.51119667" lon="2.51909833">
        <ele>1.0</ele>
        <time>2022-05-14T16:28:24.985Z</time>
      </trkpt>
      <trkpt lat="39.511235" lon="2.51912667">
        <ele>1.0</ele>
        <time>2022-05-14T16:28:25.985Z</time>
      </trkpt>
      <trkpt lat="39.51127167" lon="2.51915333">
        <ele>1.0</ele>
        <time>2022-05-14T16:28:26.985Z</time>
      </trkpt>
      <trkpt lat="39.51131167" lon="2.51917667">
        <ele>1.0</ele>
        <time>2022-05-14T16:28:27.985Z</time>
      </trkpt>
      <trkpt lat="39.51135167" lon="2.519195">
        <ele>1.0</ele>
        <time>2022-05-14T16:28:28.985Z</time>
      </trkpt>
      <trkpt lat="39.51139167" lon="2.51920833">
        <ele>1.0</ele>
        <time>2022-05-14T16:28:29.985Z</time>
      </trkpt>
      <trkpt lat="39.511435" lon="2.51922167">
        <ele>1.0</ele>
        <time>2022-05-14T16:28:30.985Z</time>
      </trkpt>
      <trkpt lat="39.51147667" lon="2.51923167">
        <ele>0.0</ele>
        <time>2022-05-14T16:28:31.985Z</time>
      </trkpt>
      <trkpt lat="39.511515" lon="2.51924333">
        <ele>0.0</ele>
        <time>2022-05-14T16:28:32.985Z</time>
      </trkpt>
      <trkpt lat="39.511555" lon="2.51925">
        <ele>0.0</ele>
        <time>2022-05-14T16:28:33.985Z</time>
      </trkpt>
      <trkpt lat="39.51159333" lon="2.51925333">
        <ele>0.0</ele>
        <time>2022-05-14T16:28:34.985Z</time>
      </trkpt>
      <trkpt lat="39.51163167" lon="2.51925167">
        <ele>0.0</ele>
        <time>2022-05-14T16:28:35.985Z</time>
      </trkpt>
      <trkpt lat="39.51167167" lon="2.51924833">
        <ele>0.0</ele>
        <time>2022-05-14T16:28:36.985Z</time>
      </trkpt>
      <trkpt lat="39.51171167" lon="2.51924167">
        <ele>0.0</ele>
        <time>2022-05-14T16:28:37.985Z</time>
      </trkpt>
      <trkpt lat="39.51175167" lon="2.51922667">
        <ele>0.0</ele>
        <time>2022-05-14T16:28:38.984Z</time>
      </trkpt>
      <trkpt lat="39.51179167" lon="2.51920667">
        <ele>0.0</ele>
        <time>2022-05-14T16:28:39.984Z</time>
      </trkpt>
      <trkpt lat="39.51183167" lon="2.51918167">
        <ele>0.0</ele>
        <time>2022-05-14T16:28:40.985Z</time>
      </trkpt>
      <trkpt lat="39.51187167" lon="2.519155">
        <ele>0.0</ele>
        <time>2022-05-14T16:28:41.984Z</time>
      </trkpt>
      <trkpt lat="39.51191" lon="2.51913">
        <ele>0.0</ele>
        <time>2022-05-14T16:28:42.985Z</time>
      </trkpt>
      <trkpt lat="39.51195167" lon="2.51910833">
        <ele>0.0</ele>
        <time>2022-05-14T16:28:43.985Z</time>
      </trkpt>
      <trkpt lat="39.51199167" lon="2.51909167">
        <ele>0.0</ele>
        <time>2022-05-14T16:28:44.984Z</time>
      </trkpt>
      <trkpt lat="39.51203167" lon="2.51907667">
        <ele>0.0</ele>
        <time>2022-05-14T16:28:45.984Z</time>
      </trkpt>
      <trkpt lat="39.512075" lon="2.51906833">
        <ele>0.0</ele>
        <time>2022-05-14T16:28:46.985Z</time>
      </trkpt>
      <trkpt lat="39.51211667" lon="2.51906333">
        <ele>0.0</ele>
        <time>2022-05-14T16:28:47.985Z</time>
      </trkpt>
      <trkpt lat="39.51216167" lon="2.51906">
        <ele>0.0</ele>
        <time>2022-05-14T16:28:48.985Z</time>
      </trkpt>
      <trkpt lat="39.512205" lon="2.51905667">
        <ele>0.0</ele>
        <time>2022-05-14T16:28:49.985Z</time>
      </trkpt>
      <trkpt lat="39.51224833" lon="2.51905667">
        <ele>0.0</ele>
        <time>2022-05-14T16:28:50.985Z</time>
      </trkpt>
      <trkpt lat="39.51229333" lon="2.51906">
        <ele>0.0</ele>
        <time>2022-05-14T16:28:51.985Z</time>
      </trkpt>
      <trkpt lat="39.512335" lon="2.519065">
        <ele>0.0</ele>
        <time>2022-05-14T16:28:52.985Z</time>
      </trkpt>
      <trkpt lat="39.51237833" lon="2.51907333">
        <ele>0.0</ele>
        <time>2022-05-14T16:28:53.985Z</time>
      </trkpt>
      <trkpt lat="39.51242" lon="2.519085">
        <ele>0.0</ele>
        <time>2022-05-14T16:28:54.984Z</time>
      </trkpt>
      <trkpt lat="39.51246167" lon="2.51909667">
        <ele>0.0</ele>
        <time>2022-05-14T16:28:55.985Z</time>
      </trkpt>
      <trkpt lat="39.5125" lon="2.519105">
        <ele>0.0</ele>
        <time>2022-05-14T16:28:56.985Z</time>
      </trkpt>
      <trkpt lat="39.51254333" lon="2.51911833">
        <ele>0.0</ele>
        <time>2022-05-14T16:28:57.985Z</time>
      </trkpt>
      <trkpt lat="39.51258333" lon="2.51913">
        <ele>0.0</ele>
        <time>2022-05-14T16:28:58.985Z</time>
      </trkpt>
      <trkpt lat="39.51262333" lon="2.51914333">
        <ele>0.0</ele>
        <time>2022-05-14T16:28:59.985Z</time>
      </trkpt>
      <trkpt lat="39.512665" lon="2.51915333">
        <ele>0.0</ele>
        <time>2022-05-14T16:29:00.985Z</time>
      </trkpt>
      <trkpt lat="39.5127" lon="2.51916167">
        <ele>0.0</ele>
        <time>2022-05-14T16:29:01.985Z</time>
      </trkpt>
      <trkpt lat="39.51273833" lon="2.51917167">
        <ele>0.0</ele>
        <time>2022-05-14T16:29:02.984Z</time>
      </trkpt>
      <trkpt lat="39.51277833" lon="2.51918167">
        <ele>1.0</ele>
        <time>2022-05-14T16:29:03.984Z</time>
      </trkpt>
      <trkpt lat="39.51281833" lon="2.51918667">
        <ele>1.0</ele>
        <time>2022-05-14T16:29:04.985Z</time>
      </trkpt>
      <trkpt lat="39.51285667" lon="2.51919167">
        <ele>1.0</ele>
        <time>2022-05-14T16:29:05.985Z</time>
      </trkpt>
      <trkpt lat="39.512895" lon="2.51919667">
        <ele>2.0</ele>
        <time>2022-05-14T16:29:06.985Z</time>
      </trkpt>
      <trkpt lat="39.51293333" lon="2.51920167">
        <ele>1.0</ele>
        <time>2022-05-14T16:29:07.984Z</time>
      </trkpt>
      <trkpt lat="39.512975" lon="2.51920667">
        <ele>1.0</ele>
        <time>2022-05-14T16:29:08.985Z</time>
      </trkpt>
      <trkpt lat="39.513015" lon="2.51921167">
        <ele>1.0</ele>
        <time>2022-05-14T16:29:09.985Z</time>
      </trkpt>
      <trkpt lat="39.51305333" lon="2.51921667">
        <ele>1.0</ele>
        <time>2022-05-14T16:29:10.985Z</time>
      </trkpt>
      <trkpt lat="39.51309333" lon="2.51922">
        <ele>1.0</ele>
        <time>2022-05-14T16:29:11.985Z</time>
      </trkpt>
      <trkpt lat="39.51313333" lon="2.519225">
        <ele>1.0</ele>
        <time>2022-05-14T16:29:12.984Z</time>
      </trkpt>
      <trkpt lat="39.51317" lon="2.51923">
        <ele>1.0</ele>
        <time>2022-05-14T16:29:13.984Z</time>
      </trkpt>
      <trkpt lat="39.51320833" lon="2.519235">
        <ele>1.0</ele>
        <time>2022-05-14T16:29:14.984Z</time>
      </trkpt>
      <trkpt lat="39.513245" lon="2.51924">
        <ele>1.0</ele>
        <time>2022-05-14T16:29:15.985Z</time>
      </trkpt>
      <trkpt lat="39.51328" lon="2.51924667">
        <ele>1.0</ele>
        <time>2022-05-14T16:29:16.984Z</time>
      </trkpt>
      <trkpt lat="39.51331667" lon="2.51925333">
        <ele>1.0</ele>
        <time>2022-05-14T16:29:17.984Z</time>
      </trkpt>
      <trkpt lat="39.513355" lon="2.51925833">
        <ele>1.0</ele>
        <time>2022-05-14T16:29:18.985Z</time>
      </trkpt>
      <trkpt lat="39.51338833" lon="2.51926333">
        <ele>1.0</ele>
        <time>2022-05-14T16:29:19.985Z</time>
      </trkpt>
      <trkpt lat="39.51342333" lon="2.51926833">
        <ele>1.0</ele>
        <time>2022-05-14T16:29:20.985Z</time>
      </trkpt>
      <trkpt lat="39.51346167" lon="2.51927833">
        <ele>2.0</ele>
        <time>2022-05-14T16:29:21.985Z</time>
      </trkpt>
      <trkpt lat="39.51349833" lon="2.51929">
        <ele>2.0</ele>
        <time>2022-05-14T16:29:22.985Z</time>
      </trkpt>
      <trkpt lat="39.51353667" lon="2.51930333">
        <ele>2.0</ele>
        <time>2022-05-14T16:29:23.985Z</time>
      </trkpt>
      <trkpt lat="39.51357167" lon="2.51931833">
        <ele>2.0</ele>
        <time>2022-05-14T16:29:24.985Z</time>
      </trkpt>
      <trkpt lat="39.513605" lon="2.51933833">
        <ele>2.0</ele>
        <time>2022-05-14T16:29:25.984Z</time>
      </trkpt>
      <trkpt lat="39.51364" lon="2.51935167">
        <ele>2.0</ele>
        <time>2022-05-14T16:29:26.985Z</time>
      </trkpt>
      <trkpt lat="39.513675" lon="2.51936">
        <ele>2.0</ele>
        <time>2022-05-14T16:29:27.984Z</time>
      </trkpt>
      <trkpt lat="39.51371333" lon="2.51936833">
        <ele>1.0</ele>
        <time>2022-05-14T16:29:28.985Z</time>
      </trkpt>
      <trkpt lat="39.51375" lon="2.51937833">
        <ele>1.0</ele>
        <time>2022-05-14T16:29:29.985Z</time>
      </trkpt>
      <trkpt lat="39.513785" lon="2.51938833">
        <ele>1.0</ele>
        <time>2022-05-14T16:29:30.984Z</time>
      </trkpt>
      <trkpt lat="39.51381833" lon="2.5194">
        <ele>1.0</ele>
        <time>2022-05-14T16:29:31.985Z</time>
      </trkpt>
      <trkpt lat="39.51384833" lon="2.51940833">
        <ele>1.0</ele>
        <time>2022-05-14T16:29:32.985Z</time>
      </trkpt>
      <trkpt lat="39.51389" lon="2.51942167">
        <ele>1.0</ele>
        <time>2022-05-14T16:29:33.984Z</time>
      </trkpt>
      <trkpt lat="39.513925" lon="2.51943">
        <ele>1.0</ele>
        <time>2022-05-14T16:29:34.985Z</time>
      </trkpt>
      <trkpt lat="39.51396167" lon="2.51943667">
        <ele>1.0</ele>
        <time>2022-05-14T16:29:35.984Z</time>
      </trkpt>
      <trkpt lat="39.51399833" lon="2.51944">
        <ele>1.0</ele>
        <time>2022-05-14T16:29:36.985Z</time>
      </trkpt>
      <trkpt lat="39.51403333" lon="2.519445">
        <ele>2.0</ele>
        <time>2022-05-14T16:29:37.984Z</time>
      </trkpt>
      <trkpt lat="39.51407167" lon="2.51945">
        <ele>2.0</ele>
        <time>2022-05-14T16:29:38.984Z</time>
      </trkpt>
      <trkpt lat="39.51411167" lon="2.51945833">
        <ele>2.0</ele>
        <time>2022-05-14T16:29:39.985Z</time>
      </trkpt>
      <trkpt lat="39.51415" lon="2.51946667">
        <ele>2.0</ele>
        <time>2022-05-14T16:29:40.985Z</time>
      </trkpt>
      <trkpt lat="39.51419167" lon="2.51947667">
        <ele>3.0</ele>
        <time>2022-05-14T16:29:41.984Z</time>
      </trkpt>
      <trkpt lat="39.51423167" lon="2.51948833">
        <ele>3.0</ele>
        <time>2022-05-14T16:29:42.984Z</time>
      </trkpt>
      <trkpt lat="39.51426833" lon="2.51949833">
        <ele>3.0</ele>
        <time>2022-05-14T16:29:43.984Z</time>
      </trkpt>
      <trkpt lat="39.51430667" lon="2.51950833">
        <ele>3.0</ele>
        <time>2022-05-14T16:29:44.985Z</time>
      </trkpt>
      <trkpt lat="39.514345" lon="2.51952">
        <ele>3.0</ele>
        <time>2022-05-14T16:29:45.985Z</time>
      </trkpt>
      <trkpt lat="39.51438333" lon="2.51953667">
        <ele>3.0</ele>
        <time>2022-05-14T16:29:46.985Z</time>
      </trkpt>
      <trkpt lat="39.51441833" lon="2.519555">
        <ele>3.0</ele>
        <time>2022-05-14T16:29:47.985Z</time>
      </trkpt>
      <trkpt lat="39.514455" lon="2.51957333">
        <ele>3.0</ele>
        <time>2022-05-14T16:29:48.984Z</time>
      </trkpt>
      <trkpt lat="39.51449" lon="2.51959">
        <ele>4.0</ele>
        <time>2022-05-14T16:29:49.985Z</time>
      </trkpt>
      <trkpt lat="39.51452667" lon="2.51960833">
        <ele>4.0</ele>
        <time>2022-05-14T16:29:50.985Z</time>
      </trkpt>
      <trkpt lat="39.51456167" lon="2.51962833">
        <ele>4.0</ele>
        <time>2022-05-14T16:29:51.984Z</time>
      </trkpt>
      <trkpt lat="39.51459833" lon="2.519645">
        <ele>4.0</ele>
        <time>2022-05-14T16:29:52.985Z</time>
      </trkpt>
      <trkpt lat="39.514635" lon="2.51966333">
        <ele>5.0</ele>
        <time>2022-05-14T16:29:53.985Z</time>
      </trkpt>
      <trkpt lat="39.51467167" lon="2.51968">
        <ele>5.0</ele>
        <time>2022-05-14T16:29:54.984Z</time>
      </trkpt>
      <trkpt lat="39.51470833" lon="2.5197">
        <ele>5.0</ele>
        <time>2022-05-14T16:29:55.985Z</time>
      </trkpt>
      <trkpt lat="39.51474333" lon="2.51971833">
        <ele>5.0</ele>
        <time>2022-05-14T16:29:56.985Z</time>
      </trkpt>
      <trkpt lat="39.51478167" lon="2.51973833">
        <ele>5.0</ele>
        <time>2022-05-14T16:29:57.984Z</time>
      </trkpt>
      <trkpt lat="39.51481833" lon="2.51975667">
        <ele>5.0</ele>
        <time>2022-05-14T16:29:58.985Z</time>
      </trkpt>
      <trkpt lat="39.514855" lon="2.519775">
        <ele>5.0</ele>
        <time>2022-05-14T16:29:59.985Z</time>
      </trkpt>
      <trkpt lat="39.51489167" lon="2.51979333">
        <ele>5.0</ele>
        <time>2022-05-14T16:30:00.985Z</time>
      </trkpt>
      <trkpt lat="39.51492833" lon="2.51981667">
        <ele>5.0</ele>
        <time>2022-05-14T16:30:01.985Z</time>
      </trkpt>
      <trkpt lat="39.514965" lon="2.51983833">
        <ele>5.0</ele>
        <time>2022-05-14T16:30:02.984Z</time>
      </trkpt>
      <trkpt lat="39.51500167" lon="2.51986">
        <ele>5.0</ele>
        <time>2022-05-14T16:30:03.984Z</time>
      </trkpt>
      <trkpt lat="39.51503833" lon="2.51988167">
        <ele>5.0</ele>
        <time>2022-05-14T16:30:04.985Z</time>
      </trkpt>
      <trkpt lat="39.51507333" lon="2.519905">
        <ele>5.0</ele>
        <time>2022-05-14T16:30:05.985Z</time>
      </trkpt>
      <trkpt lat="39.51510667" lon="2.51992833">
        <ele>5.0</ele>
        <time>2022-05-14T16:30:06.984Z</time>
      </trkpt>
      <trkpt lat="39.51513833" lon="2.51994833">
        <ele>5.0</ele>
        <time>2022-05-14T16:30:07.985Z</time>
      </trkpt>
      <trkpt lat="39.51517" lon="2.51997">
        <ele>6.0</ele>
        <time>2022-05-14T16:30:08.984Z</time>
      </trkpt>
      <trkpt lat="39.5152" lon="2.51999167">
        <ele>6.0</ele>
        <time>2022-05-14T16:30:09.985Z</time>
      </trkpt>
      <trkpt lat="39.51522" lon="2.52000833">
        <ele>6.0</ele>
        <time>2022-05-14T16:30:10.985Z</time>
      </trkpt>
      <trkpt lat="39.51525" lon="2.52003">
        <ele>6.0</ele>
        <time>2022-05-14T16:30:11.985Z</time>
      </trkpt>
      <trkpt lat="39.515275" lon="2.52004833">
        <ele>6.0</ele>
        <time>2022-05-14T16:30:12.984Z</time>
      </trkpt>
      <trkpt lat="39.51530167" lon="2.52006667">
        <ele>6.0</ele>
        <time>2022-05-14T16:30:13.985Z</time>
      </trkpt>
      <trkpt lat="39.51532833" lon="2.52008667">
        <ele>6.0</ele>
        <time>2022-05-14T16:30:14.984Z</time>
      </trkpt>
      <trkpt lat="39.51535" lon="2.52010167">
        <ele>6.0</ele>
        <time>2022-05-14T16:30:15.984Z</time>
      </trkpt>
      <trkpt lat="39.515385" lon="2.52012667">
        <ele>7.0</ele>
        <time>2022-05-14T16:30:16.985Z</time>
      </trkpt>
      <trkpt lat="39.51541167" lon="2.52014667">
        <ele>7.0</ele>
        <time>2022-05-14T16:30:17.984Z</time>
      </trkpt>
      <trkpt lat="39.515435" lon="2.52017">
        <ele>7.0</ele>
        <time>2022-05-14T16:30:18.985Z</time>
      </trkpt>
      <trkpt lat="39.51546333" lon="2.52019333">
        <ele>7.0</ele>
        <time>2022-05-14T16:30:19.985Z</time>
      </trkpt>
      <trkpt lat="39.51549167" lon="2.520215">
        <ele>7.0</ele>
        <time>2022-05-14T16:30:20.985Z</time>
      </trkpt>
      <trkpt lat="39.51552333" lon="2.520235">
        <ele>6.0</ele>
        <time>2022-05-14T16:30:21.985Z</time>
      </trkpt>
      <trkpt lat="39.51555333" lon="2.52025667">
        <ele>6.0</ele>
        <time>2022-05-14T16:30:22.985Z</time>
      </trkpt>
      <trkpt lat="39.51558167" lon="2.52027833">
        <ele>6.0</ele>
        <time>2022-05-14T16:30:23.985Z</time>
      </trkpt>
      <trkpt lat="39.51560833" lon="2.52030167">
        <ele>6.0</ele>
        <time>2022-05-14T16:30:24.985Z</time>
      </trkpt>
      <trkpt lat="39.51563667" lon="2.52032667">
        <ele>6.0</ele>
        <time>2022-05-14T16:30:25.985Z</time>
      </trkpt>
      <trkpt lat="39.515665" lon="2.52035167">
        <ele>6.0</ele>
        <time>2022-05-14T16:30:26.985Z</time>
      </trkpt>
      <trkpt lat="39.51569667" lon="2.520375">
        <ele>6.0</ele>
        <time>2022-05-14T16:30:27.984Z</time>
      </trkpt>
      <trkpt lat="39.51572833" lon="2.52040167">
        <ele>6.0</ele>
        <time>2022-05-14T16:30:28.985Z</time>
      </trkpt>
      <trkpt lat="39.51576167" lon="2.520425">
        <ele>6.0</ele>
        <time>2022-05-14T16:30:29.985Z</time>
      </trkpt>
      <trkpt lat="39.51579167" lon="2.52045">
        <ele>7.0</ele>
        <time>2022-05-14T16:30:30.985Z</time>
      </trkpt>
      <trkpt lat="39.51582" lon="2.52046833">
        <ele>7.0</ele>
        <time>2022-05-14T16:30:31.984Z</time>
      </trkpt>
      <trkpt lat="39.51585" lon="2.52048833">
        <ele>7.0</ele>
        <time>2022-05-14T16:30:32.985Z</time>
      </trkpt>
      <trkpt lat="39.51588167" lon="2.52051">
        <ele>7.0</ele>
        <time>2022-05-14T16:30:33.985Z</time>
      </trkpt>
      <trkpt lat="39.51591333" lon="2.52053167">
        <ele>7.0</ele>
        <time>2022-05-14T16:30:34.985Z</time>
      </trkpt>
      <trkpt lat="39.51594333" lon="2.52055">
        <ele>6.0</ele>
        <time>2022-05-14T16:30:35.985Z</time>
      </trkpt>
      <trkpt lat="39.51597167" lon="2.52056833">
        <ele>6.0</ele>
        <time>2022-05-14T16:30:36.984Z</time>
      </trkpt>
      <trkpt lat="39.51600333" lon="2.52058667">
        <ele>6.0</ele>
        <time>2022-05-14T16:30:37.985Z</time>
      </trkpt>
      <trkpt lat="39.516035" lon="2.52060667">
        <ele>6.0</ele>
        <time>2022-05-14T16:30:38.984Z</time>
      </trkpt>
      <trkpt lat="39.51606833" lon="2.52062667">
        <ele>7.0</ele>
        <time>2022-05-14T16:30:39.985Z</time>
      </trkpt>
      <trkpt lat="39.5161" lon="2.52065">
        <ele>7.0</ele>
        <time>2022-05-14T16:30:40.985Z</time>
      </trkpt>
      <trkpt lat="39.51613333" lon="2.52067">
        <ele>7.0</ele>
        <time>2022-05-14T16:30:41.985Z</time>
      </trkpt>
      <trkpt lat="39.51616" lon="2.520685">
        <ele>7.0</ele>
        <time>2022-05-14T16:30:42.985Z</time>
      </trkpt>
      <trkpt lat="39.5162" lon="2.52070667">
        <ele>7.0</ele>
        <time>2022-05-14T16:30:43.985Z</time>
      </trkpt>
      <trkpt lat="39.516235" lon="2.520725">
        <ele>7.0</ele>
        <time>2022-05-14T16:30:44.985Z</time>
      </trkpt>
      <trkpt lat="39.51627167" lon="2.52074167">
        <ele>7.0</ele>
        <time>2022-05-14T16:30:45.985Z</time>
      </trkpt>
      <trkpt lat="39.51630833" lon="2.52076167">
        <ele>8.0</ele>
        <time>2022-05-14T16:30:46.985Z</time>
      </trkpt>
      <trkpt lat="39.51634167" lon="2.52078167">
        <ele>8.0</ele>
        <time>2022-05-14T16:30:47.985Z</time>
      </trkpt>
      <trkpt lat="39.51637833" lon="2.52080167">
        <ele>8.0</ele>
        <time>2022-05-14T16:30:48.985Z</time>
      </trkpt>
      <trkpt lat="39.516415" lon="2.52082333">
        <ele>8.0</ele>
        <time>2022-05-14T16:30:49.984Z</time>
      </trkpt>
      <trkpt lat="39.51645167" lon="2.520845">
        <ele>8.0</ele>
        <time>2022-05-14T16:30:50.984Z</time>
      </trkpt>
      <trkpt lat="39.51649" lon="2.520865">
        <ele>8.0</ele>
        <time>2022-05-14T16:30:51.985Z</time>
      </trkpt>
      <trkpt lat="39.51652833" lon="2.52088667">
        <ele>8.0</ele>
        <time>2022-05-14T16:30:52.985Z</time>
      </trkpt>
      <trkpt lat="39.516565" lon="2.52091">
        <ele>9.0</ele>
        <time>2022-05-14T16:30:53.984Z</time>
      </trkpt>
      <trkpt lat="39.51660167" lon="2.52093333">
        <ele>9.0</ele>
        <time>2022-05-14T16:30:54.985Z</time>
      </trkpt>
      <trkpt lat="39.51663833" lon="2.52095667">
        <ele>9.0</ele>
        <time>2022-05-14T16:30:55.985Z</time>
      </trkpt>
      <trkpt lat="39.516675" lon="2.52098333">
        <ele>9.0</ele>
        <time>2022-05-14T16:30:56.985Z</time>
      </trkpt>
      <trkpt lat="39.51671333" lon="2.52100833">
        <ele>9.0</ele>
        <time>2022-05-14T16:30:57.985Z</time>
      </trkpt>
      <trkpt lat="39.51675" lon="2.521035">
        <ele>9.0</ele>
        <time>2022-05-14T16:30:58.985Z</time>
      </trkpt>
      <trkpt lat="39.51678667" lon="2.52106333">
        <ele>9.0</ele>
        <time>2022-05-14T16:30:59.985Z</time>
      </trkpt>
      <trkpt lat="39.51682167" lon="2.52109333">
        <ele>9.0</ele>
        <time>2022-05-14T16:31:00.985Z</time>
      </trkpt>
      <trkpt lat="39.51684667" lon="2.521115">
        <ele>10.0</ele>
        <time>2022-05-14T16:31:01.985Z</time>
      </trkpt>
      <trkpt lat="39.51688833" lon="2.52114833">
        <ele>10.0</ele>
        <time>2022-05-14T16:31:02.984Z</time>
      </trkpt>
      <trkpt lat="39.51692333" lon="2.52117667">
        <ele>9.0</ele>
        <time>2022-05-14T16:31:03.984Z</time>
      </trkpt>
      <trkpt lat="39.51696167" lon="2.521205">
        <ele>9.0</ele>
        <time>2022-05-14T16:31:04.984Z</time>
      </trkpt>
      <trkpt lat="39.51699667" lon="2.52123167">
        <ele>9.0</ele>
        <time>2022-05-14T16:31:05.985Z</time>
      </trkpt>
      <trkpt lat="39.51703333" lon="2.521255">
        <ele>8.0</ele>
        <time>2022-05-14T16:31:06.984Z</time>
      </trkpt>
      <trkpt lat="39.517075" lon="2.52127667">
        <ele>8.0</ele>
        <time>2022-05-14T16:31:07.985Z</time>
      </trkpt>
      <trkpt lat="39.51711667" lon="2.5213">
        <ele>7.0</ele>
        <time>2022-05-14T16:31:08.984Z</time>
      </trkpt>
      <trkpt lat="39.51715833" lon="2.52131833">
        <ele>7.0</ele>
        <time>2022-05-14T16:31:09.984Z</time>
      </trkpt>
      <trkpt lat="39.5172" lon="2.52133667">
        <ele>7.0</ele>
        <time>2022-05-14T16:31:10.985Z</time>
      </trkpt>
      <trkpt lat="39.51724167" lon="2.521355">
        <ele>7.0</ele>
        <time>2022-05-14T16:31:11.985Z</time>
      </trkpt>
      <trkpt lat="39.51728167" lon="2.52137167">
        <ele>6.0</ele>
        <time>2022-05-14T16:31:12.985Z</time>
      </trkpt>
      <trkpt lat="39.51732333" lon="2.52138667">
        <ele>6.0</ele>
        <time>2022-05-14T16:31:13.984Z</time>
      </trkpt>
      <trkpt lat="39.517365" lon="2.52140167">
        <ele>6.0</ele>
        <time>2022-05-14T16:31:14.984Z</time>
      </trkpt>
      <trkpt lat="39.51740667" lon="2.52141">
        <ele>6.0</ele>
        <time>2022-05-14T16:31:15.985Z</time>
      </trkpt>
      <trkpt lat="39.51745" lon="2.52141333">
        <ele>6.0</ele>
        <time>2022-05-14T16:31:16.985Z</time>
      </trkpt>
      <trkpt lat="39.51749333" lon="2.52141833">
        <ele>6.0</ele>
        <time>2022-05-14T16:31:17.985Z</time>
      </trkpt>
      <trkpt lat="39.51753333" lon="2.52142333">
        <ele>6.0</ele>
        <time>2022-05-14T16:31:18.984Z</time>
      </trkpt>
      <trkpt lat="39.51757333" lon="2.52143">
        <ele>6.0</ele>
        <time>2022-05-14T16:31:19.984Z</time>
      </trkpt>
      <trkpt lat="39.51761167" lon="2.52143833">
        <ele>6.0</ele>
        <time>2022-05-14T16:31:20.984Z</time>
      </trkpt>
      <trkpt lat="39.51765" lon="2.52144833">
        <ele>6.0</ele>
        <time>2022-05-14T16:31:21.985Z</time>
      </trkpt>
      <trkpt lat="39.51769" lon="2.52145833">
        <ele>6.0</ele>
        <time>2022-05-14T16:31:22.984Z</time>
      </trkpt>
      <trkpt lat="39.51772833" lon="2.521465">
        <ele>7.0</ele>
        <time>2022-05-14T16:31:23.984Z</time>
      </trkpt>
      <trkpt lat="39.51776333" lon="2.52147167">
        <ele>7.0</ele>
        <time>2022-05-14T16:31:24.985Z</time>
      </trkpt>
      <trkpt lat="39.5178" lon="2.52148">
        <ele>7.0</ele>
        <time>2022-05-14T16:31:25.985Z</time>
      </trkpt>
      <trkpt lat="39.517835" lon="2.52149">
        <ele>7.0</ele>
        <time>2022-05-14T16:31:26.984Z</time>
      </trkpt>
      <trkpt lat="39.51786833" lon="2.52149833">
        <ele>7.0</ele>
        <time>2022-05-14T16:31:27.984Z</time>
      </trkpt>
      <trkpt lat="39.517905" lon="2.52150667">
        <ele>7.0</ele>
        <time>2022-05-14T16:31:28.984Z</time>
      </trkpt>
      <trkpt lat="39.51794" lon="2.521515">
        <ele>7.0</ele>
        <time>2022-05-14T16:31:29.985Z</time>
      </trkpt>
      <trkpt lat="39.51797333" lon="2.52152333">
        <ele>7.0</ele>
        <time>2022-05-14T16:31:30.984Z</time>
      </trkpt>
      <trkpt lat="39.51800833" lon="2.52153">
        <ele>7.0</ele>
        <time>2022-05-14T16:31:31.985Z</time>
      </trkpt>
      <trkpt lat="39.51804" lon="2.521535">
        <ele>7.0</ele>
        <time>2022-05-14T16:31:32.984Z</time>
      </trkpt>
      <trkpt lat="39.51806333" lon="2.52154">
        <ele>7.0</ele>
        <time>2022-05-14T16:31:33.985Z</time>
      </trkpt>
      <trkpt lat="39.5181" lon="2.52154333">
        <ele>7.0</ele>
        <time>2022-05-14T16:31:34.984Z</time>
      </trkpt>
      <trkpt lat="39.51812833" lon="2.52154333">
        <ele>7.0</ele>
        <time>2022-05-14T16:31:35.984Z</time>
      </trkpt>
      <trkpt lat="39.51815667" lon="2.521545">
        <ele>7.0</ele>
        <time>2022-05-14T16:31:36.984Z</time>
      </trkpt>
      <trkpt lat="39.518185" lon="2.52154667">
        <ele>7.0</ele>
        <time>2022-05-14T16:31:37.985Z</time>
      </trkpt>
      <trkpt lat="39.51821167" lon="2.52155">
        <ele>7.0</ele>
        <time>2022-05-14T16:31:38.985Z</time>
      </trkpt>
      <trkpt lat="39.51824" lon="2.52155667">
        <ele>7.0</ele>
        <time>2022-05-14T16:31:39.985Z</time>
      </trkpt>
      <trkpt lat="39.51826667" lon="2.52156167">
        <ele>7.0</ele>
        <time>2022-05-14T16:31:40.985Z</time>
      </trkpt>
      <trkpt lat="39.51829333" lon="2.52156667">
        <ele>8.0</ele>
        <time>2022-05-14T16:31:41.985Z</time>
      </trkpt>
      <trkpt lat="39.51832" lon="2.52157">
        <ele>8.0</ele>
        <time>2022-05-14T16:31:42.985Z</time>
      </trkpt>
      <trkpt lat="39.51834833" lon="2.52157167">
        <ele>8.0</ele>
        <time>2022-05-14T16:31:43.985Z</time>
      </trkpt>
      <trkpt lat="39.518375" lon="2.52157667">
        <ele>8.0</ele>
        <time>2022-05-14T16:31:44.985Z</time>
      </trkpt>
      <trkpt lat="39.51840167" lon="2.52158167">
        <ele>8.0</ele>
        <time>2022-05-14T16:31:45.985Z</time>
      </trkpt>
      <trkpt lat="39.51842667" lon="2.52158667">
        <ele>8.0</ele>
        <time>2022-05-14T16:31:46.984Z</time>
      </trkpt>
      <trkpt lat="39.51845167" lon="2.52159">
        <ele>9.0</ele>
        <time>2022-05-14T16:31:47.984Z</time>
      </trkpt>
      <trkpt lat="39.518475" lon="2.521595">
        <ele>8.0</ele>
        <time>2022-05-14T16:31:48.985Z</time>
      </trkpt>
      <trkpt lat="39.5185" lon="2.52160167">
        <ele>9.0</ele>
        <time>2022-05-14T16:31:49.985Z</time>
      </trkpt>
      <trkpt lat="39.518525" lon="2.52160833">
        <ele>9.0</ele>
        <time>2022-05-14T16:31:50.984Z</time>
      </trkpt>
      <trkpt lat="39.51855167" lon="2.52161333">
        <ele>9.0</ele>
        <time>2022-05-14T16:31:51.984Z</time>
      </trkpt>
      <trkpt lat="39.51857167" lon="2.52161667">
        <ele>9.0</ele>
        <time>2022-05-14T16:31:52.985Z</time>
      </trkpt>
      <trkpt lat="39.5186" lon="2.52162333">
        <ele>9.0</ele>
        <time>2022-05-14T16:31:53.985Z</time>
      </trkpt>
      <trkpt lat="39.51863" lon="2.52163">
        <ele>9.0</ele>
        <time>2022-05-14T16:31:54.985Z</time>
      </trkpt>
      <trkpt lat="39.51865" lon="2.52163167">
        <ele>9.0</ele>
        <time>2022-05-14T16:31:55.984Z</time>
      </trkpt>
      <trkpt lat="39.51867667" lon="2.52163833">
        <ele>9.0</ele>
        <time>2022-05-14T16:31:56.984Z</time>
      </trkpt>
      <trkpt lat="39.51870833" lon="2.52164667">
        <ele>9.0</ele>
        <time>2022-05-14T16:31:57.985Z</time>
      </trkpt>
      <trkpt lat="39.51873333" lon="2.52165333">
        <ele>9.0</ele>
        <time>2022-05-14T16:31:58.984Z</time>
      </trkpt>
      <trkpt lat="39.51876167" lon="2.52166">
        <ele>9.0</ele>
        <time>2022-05-14T16:31:59.985Z</time>
      </trkpt>
      <trkpt lat="39.51878167" lon="2.521665">
        <ele>9.0</ele>
        <time>2022-05-14T16:32:00.984Z</time>
      </trkpt>
      <trkpt lat="39.51881" lon="2.52167167">
        <ele>8.0</ele>
        <time>2022-05-14T16:32:01.985Z</time>
      </trkpt>
      <trkpt lat="39.51883667" lon="2.52168">
        <ele>9.0</ele>
        <time>2022-05-14T16:32:02.985Z</time>
      </trkpt>
      <trkpt lat="39.51886333" lon="2.52168667">
        <ele>9.0</ele>
        <time>2022-05-14T16:32:03.984Z</time>
      </trkpt>
      <trkpt lat="39.51889167" lon="2.52169333">
        <ele>9.0</ele>
        <time>2022-05-14T16:32:04.985Z</time>
      </trkpt>
      <trkpt lat="39.51891" lon="2.52169833">
        <ele>9.0</ele>
        <time>2022-05-14T16:32:05.985Z</time>
      </trkpt>
      <trkpt lat="39.518935" lon="2.521705">
        <ele>9.0</ele>
        <time>2022-05-14T16:32:06.985Z</time>
      </trkpt>
      <trkpt lat="39.518965" lon="2.521715">
        <ele>10.0</ele>
        <time>2022-05-14T16:32:07.984Z</time>
      </trkpt>
      <trkpt lat="39.51898667" lon="2.521725">
        <ele>10.0</ele>
        <time>2022-05-14T16:32:08.984Z</time>
      </trkpt>
      <trkpt lat="39.51900667" lon="2.52173333">
        <ele>10.0</ele>
        <time>2022-05-14T16:32:09.984Z</time>
      </trkpt>
      <trkpt lat="39.51903" lon="2.52174167">
        <ele>10.0</ele>
        <time>2022-05-14T16:32:10.985Z</time>
      </trkpt>
      <trkpt lat="39.51905167" lon="2.52175">
        <ele>10.0</ele>
        <time>2022-05-14T16:32:11.985Z</time>
      </trkpt>
      <trkpt lat="39.51907833" lon="2.52176333">
        <ele>11.0</ele>
        <time>2022-05-14T16:32:12.985Z</time>
      </trkpt>
      <trkpt lat="39.51910667" lon="2.52178">
        <ele>11.0</ele>
        <time>2022-05-14T16:32:13.984Z</time>
      </trkpt>
      <trkpt lat="39.51912667" lon="2.52179167">
        <ele>11.0</ele>
        <time>2022-05-14T16:32:14.984Z</time>
      </trkpt>
      <trkpt lat="39.51914833" lon="2.52181">
        <ele>11.0</ele>
        <time>2022-05-14T16:32:15.985Z</time>
      </trkpt>
      <trkpt lat="39.51917333" lon="2.52183833">
        <ele>12.0</ele>
        <time>2022-05-14T16:32:16.984Z</time>
      </trkpt>
      <trkpt lat="39.51919167" lon="2.52186167">
        <ele>12.0</ele>
        <time>2022-05-14T16:32:17.985Z</time>
      </trkpt>
      <trkpt lat="39.51920833" lon="2.52188">
        <ele>12.0</ele>
        <time>2022-05-14T16:32:18.985Z</time>
      </trkpt>
      <trkpt lat="39.519225" lon="2.52190667">
        <ele>12.0</ele>
        <time>2022-05-14T16:32:19.985Z</time>
      </trkpt>
      <trkpt lat="39.51924333" lon="2.52193333">
        <ele>13.0</ele>
        <time>2022-05-14T16:32:20.984Z</time>
      </trkpt>
      <trkpt lat="39.51926333" lon="2.52196667">
        <ele>13.0</ele>
        <time>2022-05-14T16:32:21.985Z</time>
      </trkpt>
      <trkpt lat="39.519275" lon="2.52199167">
        <ele>14.0</ele>
        <time>2022-05-14T16:32:22.985Z</time>
      </trkpt>
      <trkpt lat="39.51928833" lon="2.52202333">
        <ele>14.0</ele>
        <time>2022-05-14T16:32:23.985Z</time>
      </trkpt>
      <trkpt lat="39.51930167" lon="2.52205667">
        <ele>14.0</ele>
        <time>2022-05-14T16:32:24.985Z</time>
      </trkpt>
      <trkpt lat="39.51931167" lon="2.52209167">
        <ele>15.0</ele>
        <time>2022-05-14T16:32:25.984Z</time>
      </trkpt>
      <trkpt lat="39.51932167" lon="2.52213333">
        <ele>15.0</ele>
        <time>2022-05-14T16:32:26.984Z</time>
      </trkpt>
      <trkpt lat="39.51932667" lon="2.52217167">
        <ele>15.0</ele>
        <time>2022-05-14T16:32:27.984Z</time>
      </trkpt>
      <trkpt lat="39.51933167" lon="2.52221167">
        <ele>15.0</ele>
        <time>2022-05-14T16:32:28.985Z</time>
      </trkpt>
      <trkpt lat="39.519335" lon="2.52224333">
        <ele>15.0</ele>
        <time>2022-05-14T16:32:29.985Z</time>
      </trkpt>
      <trkpt lat="39.519335" lon="2.522285">
        <ele>15.0</ele>
        <time>2022-05-14T16:32:30.984Z</time>
      </trkpt>
      <trkpt lat="39.51933333" lon="2.52233333">
        <ele>15.0</ele>
        <time>2022-05-14T16:32:31.985Z</time>
      </trkpt>
      <trkpt lat="39.51933" lon="2.522375">
        <ele>16.0</ele>
        <time>2022-05-14T16:32:32.984Z</time>
      </trkpt>
      <trkpt lat="39.51932667" lon="2.522405">
        <ele>16.0</ele>
        <time>2022-05-14T16:32:33.985Z</time>
      </trkpt>
      <trkpt lat="39.519325" lon="2.522445">
        <ele>16.0</ele>
        <time>2022-05-14T16:32:34.985Z</time>
      </trkpt>
      <trkpt lat="39.51932333" lon="2.52249333">
        <ele>15.0</ele>
        <time>2022-05-14T16:32:35.985Z</time>
      </trkpt>
      <trkpt lat="39.51932167" lon="2.52253667">
        <ele>15.0</ele>
        <time>2022-05-14T16:32:36.985Z</time>
      </trkpt>
      <trkpt lat="39.51932" lon="2.52257833">
        <ele>15.0</ele>
        <time>2022-05-14T16:32:37.985Z</time>
      </trkpt>
      <trkpt lat="39.51931833" lon="2.52261">
        <ele>15.0</ele>
        <time>2022-05-14T16:32:38.985Z</time>
      </trkpt>
      <trkpt lat="39.519315" lon="2.52264833">
        <ele>15.0</ele>
        <time>2022-05-14T16:32:39.985Z</time>
      </trkpt>
      <trkpt lat="39.51930833" lon="2.522695">
        <ele>15.0</ele>
        <time>2022-05-14T16:32:40.984Z</time>
      </trkpt>
      <trkpt lat="39.5193" lon="2.52273667">
        <ele>16.0</ele>
        <time>2022-05-14T16:32:41.984Z</time>
      </trkpt>
      <trkpt lat="39.51929333" lon="2.52277">
        <ele>16.0</ele>
        <time>2022-05-14T16:32:42.985Z</time>
      </trkpt>
      <trkpt lat="39.51928333" lon="2.52281167">
        <ele>16.0</ele>
        <time>2022-05-14T16:32:43.984Z</time>
      </trkpt>
      <trkpt lat="39.51927167" lon="2.52285">
        <ele>16.0</ele>
        <time>2022-05-14T16:32:44.984Z</time>
      </trkpt>
      <trkpt lat="39.51925833" lon="2.52289">
        <ele>16.0</ele>
        <time>2022-05-14T16:32:45.985Z</time>
      </trkpt>
      <trkpt lat="39.51924" lon="2.52293667">
        <ele>16.0</ele>
        <time>2022-05-14T16:32:46.985Z</time>
      </trkpt>
      <trkpt lat="39.51922833" lon="2.52296667">
        <ele>16.0</ele>
        <time>2022-05-14T16:32:47.985Z</time>
      </trkpt>
      <trkpt lat="39.51921333" lon="2.52300333">
        <ele>16.0</ele>
        <time>2022-05-14T16:32:48.985Z</time>
      </trkpt>
      <trkpt lat="39.51919833" lon="2.52303833">
        <ele>16.0</ele>
        <time>2022-05-14T16:32:49.985Z</time>
      </trkpt>
      <trkpt lat="39.51918" lon="2.52308">
        <ele>16.0</ele>
        <time>2022-05-14T16:32:50.985Z</time>
      </trkpt>
      <trkpt lat="39.519165" lon="2.52311167">
        <ele>16.0</ele>
        <time>2022-05-14T16:32:51.984Z</time>
      </trkpt>
      <trkpt lat="39.51915167" lon="2.52313667">
        <ele>16.0</ele>
        <time>2022-05-14T16:32:52.985Z</time>
      </trkpt>
      <trkpt lat="39.51913667" lon="2.52316667">
        <ele>17.0</ele>
        <time>2022-05-14T16:32:53.984Z</time>
      </trkpt>
      <trkpt lat="39.51911667" lon="2.52320167">
        <ele>17.0</ele>
        <time>2022-05-14T16:32:54.984Z</time>
      </trkpt>
      <trkpt lat="39.51910167" lon="2.52323">
        <ele>18.0</ele>
        <time>2022-05-14T16:32:55.984Z</time>
      </trkpt>
      <trkpt lat="39.51908667" lon="2.52326">
        <ele>18.0</ele>
        <time>2022-05-14T16:32:56.984Z</time>
      </trkpt>
      <trkpt lat="39.51908" lon="2.52328333">
        <ele>18.0</ele>
        <time>2022-05-14T16:32:57.985Z</time>
      </trkpt>
      <trkpt lat="39.51907" lon="2.52331333">
        <ele>19.0</ele>
        <time>2022-05-14T16:32:58.985Z</time>
      </trkpt>
      <trkpt lat="39.51905667" lon="2.52334833">
        <ele>19.0</ele>
        <time>2022-05-14T16:32:59.985Z</time>
      </trkpt>
      <trkpt lat="39.519045" lon="2.52337667">
        <ele>19.0</ele>
        <time>2022-05-14T16:33:00.984Z</time>
      </trkpt>
      <trkpt lat="39.51903667" lon="2.52340167">
        <ele>19.0</ele>
        <time>2022-05-14T16:33:01.985Z</time>
      </trkpt>
      <trkpt lat="39.51902833" lon="2.52343">
        <ele>19.0</ele>
        <time>2022-05-14T16:33:02.984Z</time>
      </trkpt>
      <trkpt lat="39.51902" lon="2.52345833">
        <ele>19.0</ele>
        <time>2022-05-14T16:33:03.984Z</time>
      </trkpt>
      <trkpt lat="39.51901" lon="2.52348667">
        <ele>19.0</ele>
        <time>2022-05-14T16:33:04.985Z</time>
      </trkpt>
      <trkpt lat="39.519" lon="2.523515">
        <ele>19.0</ele>
        <time>2022-05-14T16:33:05.985Z</time>
      </trkpt>
      <trkpt lat="39.51899167" lon="2.52354333">
        <ele>19.0</ele>
        <time>2022-05-14T16:33:06.985Z</time>
      </trkpt>
      <trkpt lat="39.51898333" lon="2.52357333">
        <ele>19.0</ele>
        <time>2022-05-14T16:33:07.985Z</time>
      </trkpt>
      <trkpt lat="39.518975" lon="2.52360333">
        <ele>19.0</ele>
        <time>2022-05-14T16:33:08.985Z</time>
      </trkpt>
      <trkpt lat="39.51897" lon="2.523635">
        <ele>19.0</ele>
        <time>2022-05-14T16:33:09.985Z</time>
      </trkpt>
      <trkpt lat="39.51896333" lon="2.52367">
        <ele>20.0</ele>
        <time>2022-05-14T16:33:10.984Z</time>
      </trkpt>
      <trkpt lat="39.51896" lon="2.523695">
        <ele>20.0</ele>
        <time>2022-05-14T16:33:11.985Z</time>
      </trkpt>
      <trkpt lat="39.518955" lon="2.52372667">
        <ele>20.0</ele>
        <time>2022-05-14T16:33:12.985Z</time>
      </trkpt>
      <trkpt lat="39.51895" lon="2.52376333">
        <ele>21.0</ele>
        <time>2022-05-14T16:33:13.985Z</time>
      </trkpt>
      <trkpt lat="39.51894667" lon="2.52378833">
        <ele>21.0</ele>
        <time>2022-05-14T16:33:14.984Z</time>
      </trkpt>
      <trkpt lat="39.51894" lon="2.52382667">
        <ele>21.0</ele>
        <time>2022-05-14T16:33:15.985Z</time>
      </trkpt>
      <trkpt lat="39.51893667" lon="2.52385167">
        <ele>22.0</ele>
        <time>2022-05-14T16:33:16.985Z</time>
      </trkpt>
      <trkpt lat="39.51893167" lon="2.52388333">
        <ele>22.0</ele>
        <time>2022-05-14T16:33:17.984Z</time>
      </trkpt>
      <trkpt lat="39.51893" lon="2.52391833">
        <ele>22.0</ele>
        <time>2022-05-14T16:33:18.985Z</time>
      </trkpt>
      <trkpt lat="39.51892833" lon="2.52395167">
        <ele>22.0</ele>
        <time>2022-05-14T16:33:19.984Z</time>
      </trkpt>
      <trkpt lat="39.51892667" lon="2.52397667">
        <ele>22.0</ele>
        <time>2022-05-14T16:33:20.985Z</time>
      </trkpt>
      <trkpt lat="39.518925" lon="2.524005">
        <ele>22.0</ele>
        <time>2022-05-14T16:33:21.985Z</time>
      </trkpt>
      <trkpt lat="39.51892333" lon="2.52403667">
        <ele>22.0</ele>
        <time>2022-05-14T16:33:22.985Z</time>
      </trkpt>
      <trkpt lat="39.51892333" lon="2.52407667">
        <ele>23.0</ele>
        <time>2022-05-14T16:33:23.985Z</time>
      </trkpt>
      <trkpt lat="39.51892167" lon="2.52411">
        <ele>23.0</ele>
        <time>2022-05-14T16:33:24.985Z</time>
      </trkpt>
      <trkpt lat="39.51892167" lon="2.524135">
        <ele>24.0</ele>
        <time>2022-05-14T16:33:25.984Z</time>
      </trkpt>
      <trkpt lat="39.51892167" lon="2.52416667">
        <ele>24.0</ele>
        <time>2022-05-14T16:33:26.985Z</time>
      </trkpt>
      <trkpt lat="39.51892" lon="2.52419667">
        <ele>24.0</ele>
        <time>2022-05-14T16:33:27.985Z</time>
      </trkpt>
      <trkpt lat="39.51892" lon="2.52423167">
        <ele>24.0</ele>
        <time>2022-05-14T16:33:28.985Z</time>
      </trkpt>
      <trkpt lat="39.51892167" lon="2.52426333">
        <ele>24.0</ele>
        <time>2022-05-14T16:33:29.985Z</time>
      </trkpt>
      <trkpt lat="39.51892" lon="2.52428833">
        <ele>24.0</ele>
        <time>2022-05-14T16:33:30.984Z</time>
      </trkpt>
      <trkpt lat="39.51891833" lon="2.52432333">
        <ele>25.0</ele>
        <time>2022-05-14T16:33:31.985Z</time>
      </trkpt>
      <trkpt lat="39.51891667" lon="2.524365">
        <ele>25.0</ele>
        <time>2022-05-14T16:33:32.984Z</time>
      </trkpt>
      <trkpt lat="39.518915" lon="2.52439833">
        <ele>26.0</ele>
        <time>2022-05-14T16:33:33.985Z</time>
      </trkpt>
      <trkpt lat="39.51891333" lon="2.52443">
        <ele>26.0</ele>
        <time>2022-05-14T16:33:34.984Z</time>
      </trkpt>
      <trkpt lat="39.51891167" lon="2.524455">
        <ele>26.0</ele>
        <time>2022-05-14T16:33:35.984Z</time>
      </trkpt>
      <trkpt lat="39.51890833" lon="2.52448667">
        <ele>26.0</ele>
        <time>2022-05-14T16:33:36.984Z</time>
      </trkpt>
      <trkpt lat="39.51890667" lon="2.52452333">
        <ele>26.0</ele>
        <time>2022-05-14T16:33:37.984Z</time>
      </trkpt>
      <trkpt lat="39.51890333" lon="2.524555">
        <ele>26.0</ele>
        <time>2022-05-14T16:33:38.984Z</time>
      </trkpt>
      <trkpt lat="39.51890333" lon="2.52458167">
        <ele>26.0</ele>
        <time>2022-05-14T16:33:39.984Z</time>
      </trkpt>
      <trkpt lat="39.51890167" lon="2.52461333">
        <ele>27.0</ele>
        <time>2022-05-14T16:33:40.985Z</time>
      </trkpt>
      <trkpt lat="39.5189" lon="2.52464667">
        <ele>27.0</ele>
        <time>2022-05-14T16:33:41.985Z</time>
      </trkpt>
      <trkpt lat="39.5189" lon="2.52467833">
        <ele>27.0</ele>
        <time>2022-05-14T16:33:42.985Z</time>
      </trkpt>
      <trkpt lat="39.51889833" lon="2.52471667">
        <ele>28.0</ele>
        <time>2022-05-14T16:33:43.984Z</time>
      </trkpt>
      <trkpt lat="39.518895" lon="2.52474167">
        <ele>28.0</ele>
        <time>2022-05-14T16:33:44.985Z</time>
      </trkpt>
      <trkpt lat="39.51889167" lon="2.52477333">
        <ele>28.0</ele>
        <time>2022-05-14T16:33:45.985Z</time>
      </trkpt>
      <trkpt lat="39.518885" lon="2.52480333">
        <ele>28.0</ele>
        <time>2022-05-14T16:33:46.985Z</time>
      </trkpt>
      <trkpt lat="39.51888" lon="2.524835">
        <ele>28.0</ele>
        <time>2022-05-14T16:33:47.985Z</time>
      </trkpt>
      <trkpt lat="39.518875" lon="2.52486667">
        <ele>28.0</ele>
        <time>2022-05-14T16:33:48.984Z</time>
      </trkpt>
      <trkpt lat="39.51886833" lon="2.52490167">
        <ele>28.0</ele>
        <time>2022-05-14T16:33:49.985Z</time>
      </trkpt>
      <trkpt lat="39.51886333" lon="2.52494">
        <ele>28.0</ele>
        <time>2022-05-14T16:33:50.985Z</time>
      </trkpt>
      <trkpt lat="39.51885833" lon="2.52498167">
        <ele>28.0</ele>
        <time>2022-05-14T16:33:51.985Z</time>
      </trkpt>
      <trkpt lat="39.51885167" lon="2.52502167">
        <ele>27.0</ele>
        <time>2022-05-14T16:33:52.985Z</time>
      </trkpt>
      <trkpt lat="39.51884" lon="2.52507333">
        <ele>27.0</ele>
        <time>2022-05-14T16:33:53.985Z</time>
      </trkpt>
      <trkpt lat="39.51883333" lon="2.52511167">
        <ele>27.0</ele>
        <time>2022-05-14T16:33:54.985Z</time>
      </trkpt>
      <trkpt lat="39.51882667" lon="2.52515833">
        <ele>27.0</ele>
        <time>2022-05-14T16:33:55.984Z</time>
      </trkpt>
      <trkpt lat="39.51881667" lon="2.52522">
        <ele>27.0</ele>
        <time>2022-05-14T16:33:56.984Z</time>
      </trkpt>
      <trkpt lat="39.51881167" lon="2.525275">
        <ele>27.0</ele>
        <time>2022-05-14T16:33:57.984Z</time>
      </trkpt>
      <trkpt lat="39.51881" lon="2.52533667">
        <ele>27.0</ele>
        <time>2022-05-14T16:33:58.984Z</time>
      </trkpt>
      <trkpt lat="39.51881333" lon="2.52538833">
        <ele>27.0</ele>
        <time>2022-05-14T16:33:59.985Z</time>
      </trkpt>
      <trkpt lat="39.51882" lon="2.52545833">
        <ele>27.0</ele>
        <time>2022-05-14T16:34:00.985Z</time>
      </trkpt>
      <trkpt lat="39.518835" lon="2.525535">
        <ele>27.0</ele>
        <time>2022-05-14T16:34:01.985Z</time>
      </trkpt>
      <trkpt lat="39.51886333" lon="2.52563333">
        <ele>27.0</ele>
        <time>2022-05-14T16:34:02.984Z</time>
      </trkpt>
      <trkpt lat="39.51889" lon="2.52570333">
        <ele>27.0</ele>
        <time>2022-05-14T16:34:03.985Z</time>
      </trkpt>
      <trkpt lat="39.51892667" lon="2.525795">
        <ele>27.0</ele>
        <time>2022-05-14T16:34:04.985Z</time>
      </trkpt>
      <trkpt lat="39.51896833" lon="2.52588833">
        <ele>26.0</ele>
        <time>2022-05-14T16:34:05.984Z</time>
      </trkpt>
      <trkpt lat="39.51902333" lon="2.52600833">
        <ele>26.0</ele>
        <time>2022-05-14T16:34:06.985Z</time>
      </trkpt>
      <trkpt lat="39.51907333" lon="2.526115">
        <ele>26.0</ele>
        <time>2022-05-14T16:34:07.985Z</time>
      </trkpt>
      <trkpt lat="39.519115" lon="2.526205">
        <ele>25.0</ele>
        <time>2022-05-14T16:34:08.985Z</time>
      </trkpt>
      <trkpt lat="39.51916667" lon="2.52631333">
        <ele>24.0</ele>
        <time>2022-05-14T16:34:09.985Z</time>
      </trkpt>
      <trkpt lat="39.51922" lon="2.52642">
        <ele>24.0</ele>
        <time>2022-05-14T16:34:10.985Z</time>
      </trkpt>
      <trkpt lat="39.51927833" lon="2.52654667">
        <ele>23.0</ele>
        <time>2022-05-14T16:34:11.984Z</time>
      </trkpt>
      <trkpt lat="39.519325" lon="2.52664833">
        <ele>23.0</ele>
        <time>2022-05-14T16:34:12.984Z</time>
      </trkpt>
      <trkpt lat="39.51937" lon="2.52674333">
        <ele>23.0</ele>
        <time>2022-05-14T16:34:13.984Z</time>
      </trkpt>
      <trkpt lat="39.51941167" lon="2.526835">
        <ele>22.0</ele>
        <time>2022-05-14T16:34:14.985Z</time>
      </trkpt>
      <trkpt lat="39.51945" lon="2.52692167">
        <ele>22.0</ele>
        <time>2022-05-14T16:34:15.984Z</time>
      </trkpt>
      <trkpt lat="39.51948667" lon="2.52700333">
        <ele>22.0</ele>
        <time>2022-05-14T16:34:16.984Z</time>
      </trkpt>
      <trkpt lat="39.51951833" lon="2.52708">
        <ele>22.0</ele>
        <time>2022-05-14T16:34:17.984Z</time>
      </trkpt>
      <trkpt lat="39.51955" lon="2.527155">
        <ele>22.0</ele>
        <time>2022-05-14T16:34:18.985Z</time>
      </trkpt>
      <trkpt lat="39.51958" lon="2.52722167">
        <ele>22.0</ele>
        <time>2022-05-14T16:34:19.985Z</time>
      </trkpt>
      <trkpt lat="39.51961" lon="2.527285">
        <ele>22.0</ele>
        <time>2022-05-14T16:34:20.985Z</time>
      </trkpt>
      <trkpt lat="39.51963667" lon="2.52734333">
        <ele>22.0</ele>
        <time>2022-05-14T16:34:21.984Z</time>
      </trkpt>
      <trkpt lat="39.51966167" lon="2.52739833">
        <ele>22.0</ele>
        <time>2022-05-14T16:34:22.984Z</time>
      </trkpt>
      <trkpt lat="39.519685" lon="2.52745333">
        <ele>22.0</ele>
        <time>2022-05-14T16:34:23.985Z</time>
      </trkpt>
      <trkpt lat="39.519705" lon="2.52750333">
        <ele>22.0</ele>
        <time>2022-05-14T16:34:24.985Z</time>
      </trkpt>
      <trkpt lat="39.51972667" lon="2.52754333">
        <ele>22.0</ele>
        <time>2022-05-14T16:34:25.985Z</time>
      </trkpt>
      <trkpt lat="39.51975" lon="2.52758667">
        <ele>22.0</ele>
        <time>2022-05-14T16:34:26.984Z</time>
      </trkpt>
      <trkpt lat="39.519775" lon="2.52762667">
        <ele>23.0</ele>
        <time>2022-05-14T16:34:27.984Z</time>
      </trkpt>
      <trkpt lat="39.51979667" lon="2.52766833">
        <ele>22.0</ele>
        <time>2022-05-14T16:34:28.985Z</time>
      </trkpt>
      <trkpt lat="39.51981667" lon="2.52770833">
        <ele>22.0</ele>
        <time>2022-05-14T16:34:29.985Z</time>
      </trkpt>
      <trkpt lat="39.51983333" lon="2.52774833">
        <ele>22.0</ele>
        <time>2022-05-14T16:34:30.984Z</time>
      </trkpt>
      <trkpt lat="39.51984833" lon="2.52778667">
        <ele>22.0</ele>
        <time>2022-05-14T16:34:31.985Z</time>
      </trkpt>
      <trkpt lat="39.51986" lon="2.52783">
        <ele>22.0</ele>
        <time>2022-05-14T16:34:32.984Z</time>
      </trkpt>
      <trkpt lat="39.519875" lon="2.527875">
        <ele>23.0</ele>
        <time>2022-05-14T16:34:33.984Z</time>
      </trkpt>
      <trkpt lat="39.51989" lon="2.52791833">
        <ele>24.0</ele>
        <time>2022-05-14T16:34:34.985Z</time>
      </trkpt>
      <trkpt lat="39.51990833" lon="2.52796">
        <ele>24.0</ele>
        <time>2022-05-14T16:34:35.985Z</time>
      </trkpt>
      <trkpt lat="39.51992833" lon="2.528">
        <ele>25.0</ele>
        <time>2022-05-14T16:34:36.985Z</time>
      </trkpt>
      <trkpt lat="39.51994833" lon="2.52804">
        <ele>25.0</ele>
        <time>2022-05-14T16:34:37.985Z</time>
      </trkpt>
      <trkpt lat="39.51996667" lon="2.52807833">
        <ele>25.0</ele>
        <time>2022-05-14T16:34:38.984Z</time>
      </trkpt>
      <trkpt lat="39.51998333" lon="2.52811833">
        <ele>26.0</ele>
        <time>2022-05-14T16:34:39.985Z</time>
      </trkpt>
      <trkpt lat="39.519995" lon="2.52815833">
        <ele>26.0</ele>
        <time>2022-05-14T16:34:40.985Z</time>
      </trkpt>
      <trkpt lat="39.51999833" lon="2.52819833">
        <ele>26.0</ele>
        <time>2022-05-14T16:34:41.985Z</time>
      </trkpt>
      <trkpt lat="39.51999833" lon="2.52824">
        <ele>26.0</ele>
        <time>2022-05-14T16:34:42.985Z</time>
      </trkpt>
      <trkpt lat="39.51999833" lon="2.52827833">
        <ele>26.0</ele>
        <time>2022-05-14T16:34:43.985Z</time>
      </trkpt>
      <trkpt lat="39.51999833" lon="2.52831333">
        <ele>26.0</ele>
        <time>2022-05-14T16:34:44.985Z</time>
      </trkpt>
      <trkpt lat="39.52" lon="2.52834833">
        <ele>26.0</ele>
        <time>2022-05-14T16:34:45.985Z</time>
      </trkpt>
      <trkpt lat="39.52000167" lon="2.52838">
        <ele>26.0</ele>
        <time>2022-05-14T16:34:46.985Z</time>
      </trkpt>
      <trkpt lat="39.52000333" lon="2.52841333">
        <ele>26.0</ele>
        <time>2022-05-14T16:34:47.984Z</time>
      </trkpt>
      <trkpt lat="39.52000167" lon="2.52844833">
        <ele>26.0</ele>
        <time>2022-05-14T16:34:48.984Z</time>
      </trkpt>
      <trkpt lat="39.51999833" lon="2.528485">
        <ele>27.0</ele>
        <time>2022-05-14T16:34:49.985Z</time>
      </trkpt>
      <trkpt lat="39.519995" lon="2.52850833">
        <ele>27.0</ele>
        <time>2022-05-14T16:34:50.985Z</time>
      </trkpt>
      <trkpt lat="39.51999167" lon="2.52854667">
        <ele>27.0</ele>
        <time>2022-05-14T16:34:51.985Z</time>
      </trkpt>
      <trkpt lat="39.51999333" lon="2.52857667">
        <ele>26.0</ele>
        <time>2022-05-14T16:34:52.985Z</time>
      </trkpt>
      <trkpt lat="39.51999833" lon="2.52860667">
        <ele>26.0</ele>
        <time>2022-05-14T16:34:53.984Z</time>
      </trkpt>
      <trkpt lat="39.52000333" lon="2.52863333">
        <ele>26.0</ele>
        <time>2022-05-14T16:34:54.985Z</time>
      </trkpt>
      <trkpt lat="39.52000833" lon="2.52866333">
        <ele>26.0</ele>
        <time>2022-05-14T16:34:55.985Z</time>
      </trkpt>
      <trkpt lat="39.52001167" lon="2.528695">
        <ele>27.0</ele>
        <time>2022-05-14T16:34:56.984Z</time>
      </trkpt>
      <trkpt lat="39.52001667" lon="2.528725">
        <ele>27.0</ele>
        <time>2022-05-14T16:34:57.984Z</time>
      </trkpt>
      <trkpt lat="39.52002333" lon="2.52874833">
        <ele>27.0</ele>
        <time>2022-05-14T16:34:58.985Z</time>
      </trkpt>
      <trkpt lat="39.520035" lon="2.52877">
        <ele>27.0</ele>
        <time>2022-05-14T16:34:59.985Z</time>
      </trkpt>
      <trkpt lat="39.52004333" lon="2.52879">
        <ele>26.0</ele>
        <time>2022-05-14T16:35:00.985Z</time>
      </trkpt>
      <trkpt lat="39.52005167" lon="2.52881667">
        <ele>26.0</ele>
        <time>2022-05-14T16:35:01.984Z</time>
      </trkpt>
      <trkpt lat="39.52006167" lon="2.52883833">
        <ele>26.0</ele>
        <time>2022-05-14T16:35:02.985Z</time>
      </trkpt>
      <trkpt lat="39.52007167" lon="2.52885667">
        <ele>27.0</ele>
        <time>2022-05-14T16:35:03.984Z</time>
      </trkpt>
      <trkpt lat="39.520085" lon="2.52887833">
        <ele>27.0</ele>
        <time>2022-05-14T16:35:04.985Z</time>
      </trkpt>
      <trkpt lat="39.5201" lon="2.52890333">
        <ele>28.0</ele>
        <time>2022-05-14T16:35:05.985Z</time>
      </trkpt>
      <trkpt lat="39.520115" lon="2.52892833">
        <ele>29.0</ele>
        <time>2022-05-14T16:35:06.984Z</time>
      </trkpt>
      <trkpt lat="39.52013167" lon="2.52895167">
        <ele>30.0</ele>
        <time>2022-05-14T16:35:07.985Z</time>
      </trkpt>
      <trkpt lat="39.52015" lon="2.52897167">
        <ele>30.0</ele>
        <time>2022-05-14T16:35:08.985Z</time>
      </trkpt>
      <trkpt lat="39.52017" lon="2.528985">
        <ele>30.0</ele>
        <time>2022-05-14T16:35:09.984Z</time>
      </trkpt>
      <trkpt lat="39.52019" lon="2.528995">
        <ele>30.0</ele>
        <time>2022-05-14T16:35:10.984Z</time>
      </trkpt>
      <trkpt lat="39.52021" lon="2.52900667">
        <ele>30.0</ele>
        <time>2022-05-14T16:35:11.985Z</time>
      </trkpt>
      <trkpt lat="39.52022833" lon="2.529025">
        <ele>29.0</ele>
        <time>2022-05-14T16:35:12.985Z</time>
      </trkpt>
      <trkpt lat="39.52024333" lon="2.52905167">
        <ele>30.0</ele>
        <time>2022-05-14T16:35:13.985Z</time>
      </trkpt>
      <trkpt lat="39.52026" lon="2.529075">
        <ele>30.0</ele>
        <time>2022-05-14T16:35:14.985Z</time>
      </trkpt>
      <trkpt lat="39.52027667" lon="2.52909667">
        <ele>30.0</ele>
        <time>2022-05-14T16:35:15.984Z</time>
      </trkpt>
      <trkpt lat="39.52029667" lon="2.529115">
        <ele>30.0</ele>
        <time>2022-05-14T16:35:16.985Z</time>
      </trkpt>
      <trkpt lat="39.520315" lon="2.52913333">
        <ele>31.0</ele>
        <time>2022-05-14T16:35:17.984Z</time>
      </trkpt>
      <trkpt lat="39.52033167" lon="2.52914833">
        <ele>31.0</ele>
        <time>2022-05-14T16:35:18.985Z</time>
      </trkpt>
      <trkpt lat="39.52034833" lon="2.52916">
        <ele>31.0</ele>
        <time>2022-05-14T16:35:19.985Z</time>
      </trkpt>
      <trkpt lat="39.520365" lon="2.52916833">
        <ele>31.0</ele>
        <time>2022-05-14T16:35:20.985Z</time>
      </trkpt>
      <trkpt lat="39.52038" lon="2.52917167">
        <ele>31.0</ele>
        <time>2022-05-14T16:35:21.984Z</time>
      </trkpt>
      <trkpt lat="39.520395" lon="2.52917667">
        <ele>31.0</ele>
        <time>2022-05-14T16:35:22.985Z</time>
      </trkpt>
      <trkpt lat="39.52040833" lon="2.52918833">
        <ele>32.0</ele>
        <time>2022-05-14T16:35:23.985Z</time>
      </trkpt>
      <trkpt lat="39.520415" lon="2.52920333">
        <ele>33.0</ele>
        <time>2022-05-14T16:35:24.985Z</time>
      </trkpt>
      <trkpt lat="39.520425" lon="2.52922">
        <ele>33.0</ele>
        <time>2022-05-14T16:35:25.984Z</time>
      </trkpt>
      <trkpt lat="39.52043667" lon="2.529235">
        <ele>33.0</ele>
        <time>2022-05-14T16:35:26.984Z</time>
      </trkpt>
      <trkpt lat="39.52045167" lon="2.52925">
        <ele>33.0</ele>
        <time>2022-05-14T16:35:27.984Z</time>
      </trkpt>
      <trkpt lat="39.520465" lon="2.529265">
        <ele>33.0</ele>
        <time>2022-05-14T16:35:28.985Z</time>
      </trkpt>
      <trkpt lat="39.52047333" lon="2.52927667">
        <ele>34.0</ele>
        <time>2022-05-14T16:35:29.985Z</time>
      </trkpt>
      <trkpt lat="39.52049" lon="2.52929">
        <ele>34.0</ele>
        <time>2022-05-14T16:35:30.985Z</time>
      </trkpt>
      <trkpt lat="39.52051" lon="2.52930333">
        <ele>34.0</ele>
        <time>2022-05-14T16:35:31.985Z</time>
      </trkpt>
      <trkpt lat="39.52052833" lon="2.52931667">
        <ele>33.0</ele>
        <time>2022-05-14T16:35:32.985Z</time>
      </trkpt>
      <trkpt lat="39.520545" lon="2.52933667">
        <ele>33.0</ele>
        <time>2022-05-14T16:35:33.985Z</time>
      </trkpt>
      <trkpt lat="39.52056333" lon="2.52936">
        <ele>34.0</ele>
        <time>2022-05-14T16:35:34.985Z</time>
      </trkpt>
      <trkpt lat="39.52058667" lon="2.52938333">
        <ele>34.0</ele>
        <time>2022-05-14T16:35:35.985Z</time>
      </trkpt>
      <trkpt lat="39.52061167" lon="2.529405">
        <ele>34.0</ele>
        <time>2022-05-14T16:35:36.985Z</time>
      </trkpt>
      <trkpt lat="39.52064167" lon="2.52943333">
        <ele>34.0</ele>
        <time>2022-05-14T16:35:37.985Z</time>
      </trkpt>
      <trkpt lat="39.52067167" lon="2.52946">
        <ele>34.0</ele>
        <time>2022-05-14T16:35:38.985Z</time>
      </trkpt>
      <trkpt lat="39.52070667" lon="2.52949333">
        <ele>34.0</ele>
        <time>2022-05-14T16:35:39.985Z</time>
      </trkpt>
      <trkpt lat="39.52074667" lon="2.52953167">
        <ele>34.0</ele>
        <time>2022-05-14T16:35:40.985Z</time>
      </trkpt>
      <trkpt lat="39.52079" lon="2.52957167">
        <ele>34.0</ele>
        <time>2022-05-14T16:35:41.985Z</time>
      </trkpt>
      <trkpt lat="39.52084" lon="2.52962">
        <ele>34.0</ele>
        <time>2022-05-14T16:35:42.985Z</time>
      </trkpt>
      <trkpt lat="39.52089" lon="2.52967333">
        <ele>33.0</ele>
        <time>2022-05-14T16:35:43.985Z</time>
      </trkpt>
      <trkpt lat="39.520945" lon="2.52973833">
        <ele>34.0</ele>
        <time>2022-05-14T16:35:44.984Z</time>
      </trkpt>
      <trkpt lat="39.52100167" lon="2.529805">
        <ele>34.0</ele>
        <time>2022-05-14T16:35:45.984Z</time>
      </trkpt>
      <trkpt lat="39.52105833" lon="2.52987167">
        <ele>34.0</ele>
        <time>2022-05-14T16:35:46.985Z</time>
      </trkpt>
      <trkpt lat="39.52111" lon="2.529945">
        <ele>35.0</ele>
        <time>2022-05-14T16:35:47.985Z</time>
      </trkpt>
      <trkpt lat="39.52116" lon="2.53001833">
        <ele>34.0</ele>
        <time>2022-05-14T16:35:48.985Z</time>
      </trkpt>
      <trkpt lat="39.52120667" lon="2.53009167">
        <ele>34.0</ele>
        <time>2022-05-14T16:35:49.985Z</time>
      </trkpt>
      <trkpt lat="39.52125167" lon="2.53016833">
        <ele>34.0</ele>
        <time>2022-05-14T16:35:50.984Z</time>
      </trkpt>
      <trkpt lat="39.52129333" lon="2.53024167">
        <ele>33.0</ele>
        <time>2022-05-14T16:35:51.985Z</time>
      </trkpt>
      <trkpt lat="39.52133167" lon="2.53031167">
        <ele>33.0</ele>
        <time>2022-05-14T16:35:52.985Z</time>
      </trkpt>
      <trkpt lat="39.52137" lon="2.53037667">
        <ele>33.0</ele>
        <time>2022-05-14T16:35:53.984Z</time>
      </trkpt>
      <trkpt lat="39.521405" lon="2.53043333">
        <ele>32.0</ele>
        <time>2022-05-14T16:35:54.985Z</time>
      </trkpt>
      <trkpt lat="39.52143833" lon="2.53047667">
        <ele>32.0</ele>
        <time>2022-05-14T16:35:55.984Z</time>
      </trkpt>
      <trkpt lat="39.52146833" lon="2.53049833">
        <ele>32.0</ele>
        <time>2022-05-14T16:35:56.984Z</time>
      </trkpt>
      <trkpt lat="39.52149" lon="2.53049333">
        <ele>32.0</ele>
        <time>2022-05-14T16:35:57.984Z</time>
      </trkpt>
      <trkpt lat="39.52150167" lon="2.53047667">
        <ele>31.0</ele>
        <time>2022-05-14T16:35:58.985Z</time>
      </trkpt>
      <trkpt lat="39.52151167" lon="2.53045667">
        <ele>31.0</ele>
        <time>2022-05-14T16:35:59.985Z</time>
      </trkpt>
      <trkpt lat="39.52152333" lon="2.53043333">
        <ele>31.0</ele>
        <time>2022-05-14T16:36:00.985Z</time>
      </trkpt>
      <trkpt lat="39.521535" lon="2.53041">
        <ele>31.0</ele>
        <time>2022-05-14T16:36:01.984Z</time>
      </trkpt>
      <trkpt lat="39.52155" lon="2.530375">
        <ele>31.0</ele>
        <time>2022-05-14T16:36:02.985Z</time>
      </trkpt>
      <trkpt lat="39.52155833" lon="2.53033167">
        <ele>31.0</ele>
        <time>2022-05-14T16:36:03.985Z</time>
      </trkpt>
      <trkpt lat="39.52157167" lon="2.530295">
        <ele>31.0</ele>
        <time>2022-05-14T16:36:04.984Z</time>
      </trkpt>
      <trkpt lat="39.52158" lon="2.53026333">
        <ele>31.0</ele>
        <time>2022-05-14T16:36:05.985Z</time>
      </trkpt>
      <trkpt lat="39.52159" lon="2.53023167">
        <ele>30.0</ele>
        <time>2022-05-14T16:36:06.985Z</time>
      </trkpt>
      <trkpt lat="39.52160833" lon="2.53020333">
        <ele>30.0</ele>
        <time>2022-05-14T16:36:07.984Z</time>
      </trkpt>
      <trkpt lat="39.52162833" lon="2.53018">
        <ele>29.0</ele>
        <time>2022-05-14T16:36:08.984Z</time>
      </trkpt>
      <trkpt lat="39.52165333" lon="2.53016333">
        <ele>29.0</ele>
        <time>2022-05-14T16:36:09.985Z</time>
      </trkpt>
      <trkpt lat="39.52168" lon="2.53015333">
        <ele>28.0</ele>
        <time>2022-05-14T16:36:10.985Z</time>
      </trkpt>
      <trkpt lat="39.52170833" lon="2.53014833">
        <ele>27.0</ele>
        <time>2022-05-14T16:36:11.984Z</time>
      </trkpt>
      <trkpt lat="39.52173833" lon="2.53014833">
        <ele>27.0</ele>
        <time>2022-05-14T16:36:12.985Z</time>
      </trkpt>
      <trkpt lat="39.52176833" lon="2.530155">
        <ele>27.0</ele>
        <time>2022-05-14T16:36:13.984Z</time>
      </trkpt>
      <trkpt lat="39.52179833" lon="2.530165">
        <ele>27.0</ele>
        <time>2022-05-14T16:36:14.985Z</time>
      </trkpt>
      <trkpt lat="39.52183" lon="2.53018">
        <ele>27.0</ele>
        <time>2022-05-14T16:36:15.984Z</time>
      </trkpt>
      <trkpt lat="39.52186" lon="2.53020167">
        <ele>27.0</ele>
        <time>2022-05-14T16:36:16.985Z</time>
      </trkpt>
      <trkpt lat="39.52189333" lon="2.53023167">
        <ele>26.0</ele>
        <time>2022-05-14T16:36:17.985Z</time>
      </trkpt>
      <trkpt lat="39.521925" lon="2.53026833">
        <ele>26.0</ele>
        <time>2022-05-14T16:36:18.985Z</time>
      </trkpt>
      <trkpt lat="39.52195667" lon="2.53031167">
        <ele>25.0</ele>
        <time>2022-05-14T16:36:19.984Z</time>
      </trkpt>
      <trkpt lat="39.52198" lon="2.53036333">
        <ele>25.0</ele>
        <time>2022-05-14T16:36:20.984Z</time>
      </trkpt>
      <trkpt lat="39.52200167" lon="2.53042167">
        <ele>24.0</ele>
        <time>2022-05-14T16:36:21.985Z</time>
      </trkpt>
      <trkpt lat="39.522025" lon="2.53048833">
        <ele>24.0</ele>
        <time>2022-05-14T16:36:22.985Z</time>
      </trkpt>
      <trkpt lat="39.52204833" lon="2.53056167">
        <ele>24.0</ele>
        <time>2022-05-14T16:36:23.984Z</time>
      </trkpt>
      <trkpt lat="39.52207167" lon="2.53063333">
        <ele>24.0</ele>
        <time>2022-05-14T16:36:24.985Z</time>
      </trkpt>
      <trkpt lat="39.52209833" lon="2.53070667">
        <ele>23.0</ele>
        <time>2022-05-14T16:36:25.984Z</time>
      </trkpt>
      <trkpt lat="39.522125" lon="2.53077833">
        <ele>23.0</ele>
        <time>2022-05-14T16:36:26.984Z</time>
      </trkpt>
      <trkpt lat="39.52215333" lon="2.53085167">
        <ele>23.0</ele>
        <time>2022-05-14T16:36:27.984Z</time>
      </trkpt>
      <trkpt lat="39.522185" lon="2.530925">
        <ele>22.0</ele>
        <time>2022-05-14T16:36:28.984Z</time>
      </trkpt>
      <trkpt lat="39.52221833" lon="2.53099833">
        <ele>22.0</ele>
        <time>2022-05-14T16:36:29.984Z</time>
      </trkpt>
      <trkpt lat="39.52225333" lon="2.53107333">
        <ele>22.0</ele>
        <time>2022-05-14T16:36:30.985Z</time>
      </trkpt>
      <trkpt lat="39.522295" lon="2.53115">
        <ele>21.0</ele>
        <time>2022-05-14T16:36:31.984Z</time>
      </trkpt>
      <trkpt lat="39.52233833" lon="2.53122333">
        <ele>21.0</ele>
        <time>2022-05-14T16:36:32.984Z</time>
      </trkpt>
      <trkpt lat="39.52238667" lon="2.53129833">
        <ele>21.0</ele>
        <time>2022-05-14T16:36:33.985Z</time>
      </trkpt>
      <trkpt lat="39.522435" lon="2.53137333">
        <ele>21.0</ele>
        <time>2022-05-14T16:36:34.985Z</time>
      </trkpt>
      <trkpt lat="39.52248333" lon="2.53145167">
        <ele>21.0</ele>
        <time>2022-05-14T16:36:35.984Z</time>
      </trkpt>
      <trkpt lat="39.52253333" lon="2.53153">
        <ele>20.0</ele>
        <time>2022-05-14T16:36:36.984Z</time>
      </trkpt>
      <trkpt lat="39.52258333" lon="2.53161167">
        <ele>20.0</ele>
        <time>2022-05-14T16:36:37.985Z</time>
      </trkpt>
      <trkpt lat="39.52263333" lon="2.531695">
        <ele>20.0</ele>
        <time>2022-05-14T16:36:38.985Z</time>
      </trkpt>
      <trkpt lat="39.522685" lon="2.53177833">
        <ele>19.0</ele>
        <time>2022-05-14T16:36:39.985Z</time>
      </trkpt>
      <trkpt lat="39.52273667" lon="2.53186333">
        <ele>19.0</ele>
        <time>2022-05-14T16:36:40.984Z</time>
      </trkpt>
      <trkpt lat="39.52278833" lon="2.53194833">
        <ele>18.0</ele>
        <time>2022-05-14T16:36:41.985Z</time>
      </trkpt>
      <trkpt lat="39.52284167" lon="2.532035">
        <ele>18.0</ele>
        <time>2022-05-14T16:36:42.984Z</time>
      </trkpt>
      <trkpt lat="39.52289333" lon="2.532125">
        <ele>18.0</ele>
        <time>2022-05-14T16:36:43.984Z</time>
      </trkpt>
      <trkpt lat="39.522945" lon="2.532215">
        <ele>18.0</ele>
        <time>2022-05-14T16:36:44.985Z</time>
      </trkpt>
      <trkpt lat="39.52299667" lon="2.53230667">
        <ele>18.0</ele>
        <time>2022-05-14T16:36:45.984Z</time>
      </trkpt>
      <trkpt lat="39.52305" lon="2.53239833">
        <ele>18.0</ele>
        <time>2022-05-14T16:36:46.985Z</time>
      </trkpt>
      <trkpt lat="39.52310333" lon="2.53249167">
        <ele>18.0</ele>
        <time>2022-05-14T16:36:47.984Z</time>
      </trkpt>
      <trkpt lat="39.52315833" lon="2.532585">
        <ele>17.0</ele>
        <time>2022-05-14T16:36:48.985Z</time>
      </trkpt>
      <trkpt lat="39.523215" lon="2.53267333">
        <ele>16.0</ele>
        <time>2022-05-14T16:36:49.985Z</time>
      </trkpt>
      <trkpt lat="39.52327333" lon="2.53276">
        <ele>16.0</ele>
        <time>2022-05-14T16:36:50.984Z</time>
      </trkpt>
      <trkpt lat="39.52333" lon="2.53285">
        <ele>15.0</ele>
        <time>2022-05-14T16:36:51.985Z</time>
      </trkpt>
      <trkpt lat="39.52339" lon="2.53293333">
        <ele>15.0</ele>
        <time>2022-05-14T16:36:52.984Z</time>
      </trkpt>
      <trkpt lat="39.52345" lon="2.533015">
        <ele>14.0</ele>
        <time>2022-05-14T16:36:53.985Z</time>
      </trkpt>
      <trkpt lat="39.52351" lon="2.53309167">
        <ele>13.0</ele>
        <time>2022-05-14T16:36:54.985Z</time>
      </trkpt>
      <trkpt lat="39.52356833" lon="2.53317">
        <ele>13.0</ele>
        <time>2022-05-14T16:36:55.985Z</time>
      </trkpt>
      <trkpt lat="39.52361333" lon="2.53323333">
        <ele>13.0</ele>
        <time>2022-05-14T16:36:56.985Z</time>
      </trkpt>
      <trkpt lat="39.52367833" lon="2.53332667">
        <ele>12.0</ele>
        <time>2022-05-14T16:36:57.984Z</time>
      </trkpt>
      <trkpt lat="39.52373" lon="2.53340333">
        <ele>12.0</ele>
        <time>2022-05-14T16:36:58.985Z</time>
      </trkpt>
      <trkpt lat="39.52377833" lon="2.53348">
        <ele>11.0</ele>
        <time>2022-05-14T16:36:59.985Z</time>
      </trkpt>
      <trkpt lat="39.523825" lon="2.53355833">
        <ele>11.0</ele>
        <time>2022-05-14T16:37:00.984Z</time>
      </trkpt>
      <trkpt lat="39.52387" lon="2.53363333">
        <ele>11.0</ele>
        <time>2022-05-14T16:37:01.985Z</time>
      </trkpt>
      <trkpt lat="39.52391333" lon="2.53370833">
        <ele>11.0</ele>
        <time>2022-05-14T16:37:02.984Z</time>
      </trkpt>
      <trkpt lat="39.52395667" lon="2.53378167">
        <ele>11.0</ele>
        <time>2022-05-14T16:37:03.985Z</time>
      </trkpt>
      <trkpt lat="39.52399667" lon="2.53385833">
        <ele>10.0</ele>
        <time>2022-05-14T16:37:04.984Z</time>
      </trkpt>
      <trkpt lat="39.52403667" lon="2.53393333">
        <ele>10.0</ele>
        <time>2022-05-14T16:37:05.984Z</time>
      </trkpt>
      <trkpt lat="39.52407833" lon="2.53401">
        <ele>10.0</ele>
        <time>2022-05-14T16:37:06.985Z</time>
      </trkpt>
      <trkpt lat="39.52412" lon="2.53408333">
        <ele>9.0</ele>
        <time>2022-05-14T16:37:07.984Z</time>
      </trkpt>
      <trkpt lat="39.52416" lon="2.53415833">
        <ele>9.0</ele>
        <time>2022-05-14T16:37:08.985Z</time>
      </trkpt>
      <trkpt lat="39.52419833" lon="2.53423167">
        <ele>9.0</ele>
        <time>2022-05-14T16:37:09.985Z</time>
      </trkpt>
      <trkpt lat="39.52424" lon="2.534305">
        <ele>9.0</ele>
        <time>2022-05-14T16:37:10.984Z</time>
      </trkpt>
      <trkpt lat="39.52428" lon="2.534375">
        <ele>9.0</ele>
        <time>2022-05-14T16:37:11.985Z</time>
      </trkpt>
      <trkpt lat="39.52432" lon="2.53444167">
        <ele>9.0</ele>
        <time>2022-05-14T16:37:12.985Z</time>
      </trkpt>
      <trkpt lat="39.52436333" lon="2.53450667">
        <ele>9.0</ele>
        <time>2022-05-14T16:37:13.985Z</time>
      </trkpt>
      <trkpt lat="39.52440667" lon="2.53456833">
        <ele>9.0</ele>
        <time>2022-05-14T16:37:14.985Z</time>
      </trkpt>
      <trkpt lat="39.52445167" lon="2.534625">
        <ele>9.0</ele>
        <time>2022-05-14T16:37:15.984Z</time>
      </trkpt>
      <trkpt lat="39.52449667" lon="2.53468333">
        <ele>9.0</ele>
        <time>2022-05-14T16:37:16.984Z</time>
      </trkpt>
      <trkpt lat="39.52454" lon="2.53474167">
        <ele>9.0</ele>
        <time>2022-05-14T16:37:17.984Z</time>
      </trkpt>
      <trkpt lat="39.52458167" lon="2.53480167">
        <ele>9.0</ele>
        <time>2022-05-14T16:37:18.985Z</time>
      </trkpt>
      <trkpt lat="39.52462167" lon="2.53486333">
        <ele>9.0</ele>
        <time>2022-05-14T16:37:19.985Z</time>
      </trkpt>
      <trkpt lat="39.52466167" lon="2.53492167">
        <ele>9.0</ele>
        <time>2022-05-14T16:37:20.985Z</time>
      </trkpt>
      <trkpt lat="39.52469833" lon="2.53498333">
        <ele>9.0</ele>
        <time>2022-05-14T16:37:21.985Z</time>
      </trkpt>
      <trkpt lat="39.52473833" lon="2.53504167">
        <ele>9.0</ele>
        <time>2022-05-14T16:37:22.985Z</time>
      </trkpt>
      <trkpt lat="39.52477333" lon="2.5351">
        <ele>9.0</ele>
        <time>2022-05-14T16:37:23.985Z</time>
      </trkpt>
      <trkpt lat="39.52481167" lon="2.53515833">
        <ele>8.0</ele>
        <time>2022-05-14T16:37:24.985Z</time>
      </trkpt>
      <trkpt lat="39.52484833" lon="2.53521667">
        <ele>8.0</ele>
        <time>2022-05-14T16:37:25.984Z</time>
      </trkpt>
      <trkpt lat="39.524885" lon="2.53527667">
        <ele>8.0</ele>
        <time>2022-05-14T16:37:26.985Z</time>
      </trkpt>
      <trkpt lat="39.52492" lon="2.53533667">
        <ele>7.0</ele>
        <time>2022-05-14T16:37:27.985Z</time>
      </trkpt>
      <trkpt lat="39.52495333" lon="2.535395">
        <ele>7.0</ele>
        <time>2022-05-14T16:37:28.985Z</time>
      </trkpt>
      <trkpt lat="39.524985" lon="2.53545333">
        <ele>7.0</ele>
        <time>2022-05-14T16:37:29.984Z</time>
      </trkpt>
      <trkpt lat="39.52501333" lon="2.53551333">
        <ele>7.0</ele>
        <time>2022-05-14T16:37:30.985Z</time>
      </trkpt>
      <trkpt lat="39.52504333" lon="2.53557333">
        <ele>7.0</ele>
        <time>2022-05-14T16:37:31.985Z</time>
      </trkpt>
      <trkpt lat="39.525075" lon="2.535635">
        <ele>7.0</ele>
        <time>2022-05-14T16:37:32.985Z</time>
      </trkpt>
      <trkpt lat="39.52510833" lon="2.535695">
        <ele>7.0</ele>
        <time>2022-05-14T16:37:33.985Z</time>
      </trkpt>
      <trkpt lat="39.52514333" lon="2.53575667">
        <ele>7.0</ele>
        <time>2022-05-14T16:37:34.985Z</time>
      </trkpt>
      <trkpt lat="39.525175" lon="2.535815">
        <ele>7.0</ele>
        <time>2022-05-14T16:37:35.985Z</time>
      </trkpt>
      <trkpt lat="39.52520833" lon="2.53587167">
        <ele>6.0</ele>
        <time>2022-05-14T16:37:36.984Z</time>
      </trkpt>
      <trkpt lat="39.52524333" lon="2.535925">
        <ele>6.0</ele>
        <time>2022-05-14T16:37:37.984Z</time>
      </trkpt>
      <trkpt lat="39.52527667" lon="2.535975">
        <ele>6.0</ele>
        <time>2022-05-14T16:37:38.985Z</time>
      </trkpt>
      <trkpt lat="39.52531167" lon="2.536025">
        <ele>6.0</ele>
        <time>2022-05-14T16:37:39.985Z</time>
      </trkpt>
      <trkpt lat="39.52534833" lon="2.53607167">
        <ele>6.0</ele>
        <time>2022-05-14T16:37:40.985Z</time>
      </trkpt>
      <trkpt lat="39.52538333" lon="2.53611833">
        <ele>6.0</ele>
        <time>2022-05-14T16:37:41.985Z</time>
      </trkpt>
      <trkpt lat="39.52541833" lon="2.536165">
        <ele>7.0</ele>
        <time>2022-05-14T16:37:42.984Z</time>
      </trkpt>
      <trkpt lat="39.52545167" lon="2.53620833">
        <ele>7.0</ele>
        <time>2022-05-14T16:37:43.985Z</time>
      </trkpt>
      <trkpt lat="39.52548333" lon="2.53625167">
        <ele>7.0</ele>
        <time>2022-05-14T16:37:44.984Z</time>
      </trkpt>
      <trkpt lat="39.525515" lon="2.536295">
        <ele>7.0</ele>
        <time>2022-05-14T16:37:45.984Z</time>
      </trkpt>
      <trkpt lat="39.525545" lon="2.53633833">
        <ele>7.0</ele>
        <time>2022-05-14T16:37:46.985Z</time>
      </trkpt>
      <trkpt lat="39.525575" lon="2.53638333">
        <ele>8.0</ele>
        <time>2022-05-14T16:37:47.985Z</time>
      </trkpt>
      <trkpt lat="39.525605" lon="2.53642833">
        <ele>8.0</ele>
        <time>2022-05-14T16:37:48.985Z</time>
      </trkpt>
      <trkpt lat="39.52563167" lon="2.536475">
        <ele>8.0</ele>
        <time>2022-05-14T16:37:49.985Z</time>
      </trkpt>
      <trkpt lat="39.52565667" lon="2.53652667">
        <ele>8.0</ele>
        <time>2022-05-14T16:37:50.984Z</time>
      </trkpt>
      <trkpt lat="39.52567833" lon="2.53658167">
        <ele>8.0</ele>
        <time>2022-05-14T16:37:51.985Z</time>
      </trkpt>
      <trkpt lat="39.52569333" lon="2.536625">
        <ele>7.0</ele>
        <time>2022-05-14T16:37:52.984Z</time>
      </trkpt>
      <trkpt lat="39.52571667" lon="2.53668833">
        <ele>8.0</ele>
        <time>2022-05-14T16:37:53.985Z</time>
      </trkpt>
      <trkpt lat="39.52573667" lon="2.53674">
        <ele>8.0</ele>
        <time>2022-05-14T16:37:54.985Z</time>
      </trkpt>
      <trkpt lat="39.52576167" lon="2.53679">
        <ele>8.0</ele>
        <time>2022-05-14T16:37:55.985Z</time>
      </trkpt>
      <trkpt lat="39.525785" lon="2.53683833">
        <ele>7.0</ele>
        <time>2022-05-14T16:37:56.984Z</time>
      </trkpt>
      <trkpt lat="39.52581167" lon="2.536885">
        <ele>7.0</ele>
        <time>2022-05-14T16:37:57.985Z</time>
      </trkpt>
      <trkpt lat="39.52583667" lon="2.53693333">
        <ele>7.0</ele>
        <time>2022-05-14T16:37:58.985Z</time>
      </trkpt>
      <trkpt lat="39.52586167" lon="2.53698">
        <ele>7.0</ele>
        <time>2022-05-14T16:37:59.985Z</time>
      </trkpt>
      <trkpt lat="39.52588667" lon="2.53702667">
        <ele>7.0</ele>
        <time>2022-05-14T16:38:00.985Z</time>
      </trkpt>
      <trkpt lat="39.52591333" lon="2.537075">
        <ele>7.0</ele>
        <time>2022-05-14T16:38:01.984Z</time>
      </trkpt>
      <trkpt lat="39.52594167" lon="2.53712333">
        <ele>7.0</ele>
        <time>2022-05-14T16:38:02.984Z</time>
      </trkpt>
      <trkpt lat="39.52597333" lon="2.53716833">
        <ele>7.0</ele>
        <time>2022-05-14T16:38:03.985Z</time>
      </trkpt>
      <trkpt lat="39.526005" lon="2.53721333">
        <ele>7.0</ele>
        <time>2022-05-14T16:38:04.985Z</time>
      </trkpt>
      <trkpt lat="39.526035" lon="2.53725833">
        <ele>7.0</ele>
        <time>2022-05-14T16:38:05.985Z</time>
      </trkpt>
      <trkpt lat="39.52606833" lon="2.53730167">
        <ele>7.0</ele>
        <time>2022-05-14T16:38:06.984Z</time>
      </trkpt>
      <trkpt lat="39.52609833" lon="2.53734167">
        <ele>7.0</ele>
        <time>2022-05-14T16:38:07.985Z</time>
      </trkpt>
      <trkpt lat="39.52612833" lon="2.53738">
        <ele>7.0</ele>
        <time>2022-05-14T16:38:08.984Z</time>
      </trkpt>
      <trkpt lat="39.52616167" lon="2.53741833">
        <ele>8.0</ele>
        <time>2022-05-14T16:38:09.985Z</time>
      </trkpt>
      <trkpt lat="39.52619833" lon="2.53744833">
        <ele>8.0</ele>
        <time>2022-05-14T16:38:10.985Z</time>
      </trkpt>
      <trkpt lat="39.526235" lon="2.53748">
        <ele>9.0</ele>
        <time>2022-05-14T16:38:11.985Z</time>
      </trkpt>
      <trkpt lat="39.52627167" lon="2.53750833">
        <ele>10.0</ele>
        <time>2022-05-14T16:38:12.985Z</time>
      </trkpt>
      <trkpt lat="39.52630333" lon="2.53754333">
        <ele>10.0</ele>
        <time>2022-05-14T16:38:13.985Z</time>
      </trkpt>
      <trkpt lat="39.52633333" lon="2.53757833">
        <ele>11.0</ele>
        <time>2022-05-14T16:38:14.985Z</time>
      </trkpt>
      <trkpt lat="39.52636667" lon="2.53760833">
        <ele>11.0</ele>
        <time>2022-05-14T16:38:15.985Z</time>
      </trkpt>
      <trkpt lat="39.5264" lon="2.537635">
        <ele>11.0</ele>
        <time>2022-05-14T16:38:16.985Z</time>
      </trkpt>
      <trkpt lat="39.52643333" lon="2.53766">
        <ele>10.0</ele>
        <time>2022-05-14T16:38:17.984Z</time>
      </trkpt>
      <trkpt lat="39.52646333" lon="2.537685">
        <ele>10.0</ele>
        <time>2022-05-14T16:38:18.985Z</time>
      </trkpt>
      <trkpt lat="39.526495" lon="2.53771833">
        <ele>10.0</ele>
        <time>2022-05-14T16:38:19.985Z</time>
      </trkpt>
      <trkpt lat="39.52652667" lon="2.537755">
        <ele>10.0</ele>
        <time>2022-05-14T16:38:20.985Z</time>
      </trkpt>
      <trkpt lat="39.52656" lon="2.537795">
        <ele>9.0</ele>
        <time>2022-05-14T16:38:21.984Z</time>
      </trkpt>
      <trkpt lat="39.52659167" lon="2.53783167">
        <ele>9.0</ele>
        <time>2022-05-14T16:38:22.984Z</time>
      </trkpt>
      <trkpt lat="39.52661833" lon="2.53786833">
        <ele>8.0</ele>
        <time>2022-05-14T16:38:23.985Z</time>
      </trkpt>
      <trkpt lat="39.526645" lon="2.53790333">
        <ele>8.0</ele>
        <time>2022-05-14T16:38:24.984Z</time>
      </trkpt>
      <trkpt lat="39.52667167" lon="2.53794">
        <ele>8.0</ele>
        <time>2022-05-14T16:38:25.984Z</time>
      </trkpt>
      <trkpt lat="39.52669667" lon="2.53798">
        <ele>9.0</ele>
        <time>2022-05-14T16:38:26.985Z</time>
      </trkpt>
      <trkpt lat="39.52672" lon="2.53802167">
        <ele>8.0</ele>
        <time>2022-05-14T16:38:27.984Z</time>
      </trkpt>
      <trkpt lat="39.52674167" lon="2.53806667">
        <ele>8.0</ele>
        <time>2022-05-14T16:38:28.984Z</time>
      </trkpt>
      <trkpt lat="39.52675333" lon="2.538115">
        <ele>8.0</ele>
        <time>2022-05-14T16:38:29.984Z</time>
      </trkpt>
      <trkpt lat="39.526755" lon="2.53816333">
        <ele>7.0</ele>
        <time>2022-05-14T16:38:30.985Z</time>
      </trkpt>
      <trkpt lat="39.52675167" lon="2.53821167">
        <ele>7.0</ele>
        <time>2022-05-14T16:38:31.985Z</time>
      </trkpt>
      <trkpt lat="39.52675" lon="2.53826167">
        <ele>7.0</ele>
        <time>2022-05-14T16:38:32.984Z</time>
      </trkpt>
      <trkpt lat="39.526745" lon="2.53831333">
        <ele>6.0</ele>
        <time>2022-05-14T16:38:33.984Z</time>
      </trkpt>
      <trkpt lat="39.52674167" lon="2.53836667">
        <ele>6.0</ele>
        <time>2022-05-14T16:38:34.985Z</time>
      </trkpt>
      <trkpt lat="39.52674167" lon="2.53842">
        <ele>6.0</ele>
        <time>2022-05-14T16:38:35.984Z</time>
      </trkpt>
      <trkpt lat="39.52674833" lon="2.53847333">
        <ele>5.0</ele>
        <time>2022-05-14T16:38:36.985Z</time>
      </trkpt>
      <trkpt lat="39.52676333" lon="2.53852333">
        <ele>5.0</ele>
        <time>2022-05-14T16:38:37.985Z</time>
      </trkpt>
      <trkpt lat="39.52678333" lon="2.53857167">
        <ele>4.0</ele>
        <time>2022-05-14T16:38:38.984Z</time>
      </trkpt>
      <trkpt lat="39.52680833" lon="2.53861667">
        <ele>4.0</ele>
        <time>2022-05-14T16:38:39.985Z</time>
      </trkpt>
      <trkpt lat="39.526835" lon="2.53866333">
        <ele>4.0</ele>
        <time>2022-05-14T16:38:40.985Z</time>
      </trkpt>
      <trkpt lat="39.52686167" lon="2.53870833">
        <ele>3.0</ele>
        <time>2022-05-14T16:38:41.985Z</time>
      </trkpt>
      <trkpt lat="39.52688833" lon="2.538755">
        <ele>3.0</ele>
        <time>2022-05-14T16:38:42.984Z</time>
      </trkpt>
      <trkpt lat="39.52691667" lon="2.53880167">
        <ele>3.0</ele>
        <time>2022-05-14T16:38:43.985Z</time>
      </trkpt>
      <trkpt lat="39.526945" lon="2.53884667">
        <ele>3.0</ele>
        <time>2022-05-14T16:38:44.985Z</time>
      </trkpt>
      <trkpt lat="39.52697167" lon="2.53889333">
        <ele>3.0</ele>
        <time>2022-05-14T16:38:45.985Z</time>
      </trkpt>
      <trkpt lat="39.52699833" lon="2.53893833">
        <ele>3.0</ele>
        <time>2022-05-14T16:38:46.985Z</time>
      </trkpt>
      <trkpt lat="39.52702667" lon="2.538985">
        <ele>3.0</ele>
        <time>2022-05-14T16:38:47.984Z</time>
      </trkpt>
      <trkpt lat="39.52705333" lon="2.53903167">
        <ele>4.0</ele>
        <time>2022-05-14T16:38:48.985Z</time>
      </trkpt>
      <trkpt lat="39.52708333" lon="2.53907667">
        <ele>4.0</ele>
        <time>2022-05-14T16:38:49.984Z</time>
      </trkpt>
      <trkpt lat="39.52711167" lon="2.53912333">
        <ele>5.0</ele>
        <time>2022-05-14T16:38:50.984Z</time>
      </trkpt>
      <trkpt lat="39.52713833" lon="2.53917">
        <ele>5.0</ele>
        <time>2022-05-14T16:38:51.985Z</time>
      </trkpt>
      <trkpt lat="39.52716667" lon="2.53921667">
        <ele>5.0</ele>
        <time>2022-05-14T16:38:52.985Z</time>
      </trkpt>
      <trkpt lat="39.527195" lon="2.53926333">
        <ele>5.0</ele>
        <time>2022-05-14T16:38:53.984Z</time>
      </trkpt>
      <trkpt lat="39.52722333" lon="2.53930833">
        <ele>5.0</ele>
        <time>2022-05-14T16:38:54.984Z</time>
      </trkpt>
      <trkpt lat="39.52725167" lon="2.53935333">
        <ele>6.0</ele>
        <time>2022-05-14T16:38:55.985Z</time>
      </trkpt>
      <trkpt lat="39.52727833" lon="2.53939667">
        <ele>6.0</ele>
        <time>2022-05-14T16:38:56.985Z</time>
      </trkpt>
      <trkpt lat="39.527305" lon="2.53943833">
        <ele>6.0</ele>
        <time>2022-05-14T16:38:57.985Z</time>
      </trkpt>
      <trkpt lat="39.52733167" lon="2.53948">
        <ele>6.0</ele>
        <time>2022-05-14T16:38:58.985Z</time>
      </trkpt>
      <trkpt lat="39.52735667" lon="2.53952167">
        <ele>6.0</ele>
        <time>2022-05-14T16:38:59.985Z</time>
      </trkpt>
      <trkpt lat="39.52738167" lon="2.53955667">
        <ele>5.0</ele>
        <time>2022-05-14T16:39:00.984Z</time>
      </trkpt>
      <trkpt lat="39.52740667" lon="2.53959333">
        <ele>5.0</ele>
        <time>2022-05-14T16:39:01.985Z</time>
      </trkpt>
      <trkpt lat="39.52743167" lon="2.53963167">
        <ele>5.0</ele>
        <time>2022-05-14T16:39:02.985Z</time>
      </trkpt>
      <trkpt lat="39.527455" lon="2.53967167">
        <ele>5.0</ele>
        <time>2022-05-14T16:39:03.985Z</time>
      </trkpt>
      <trkpt lat="39.52748" lon="2.53970833">
        <ele>5.0</ele>
        <time>2022-05-14T16:39:04.984Z</time>
      </trkpt>
      <trkpt lat="39.52750333" lon="2.539745">
        <ele>5.0</ele>
        <time>2022-05-14T16:39:05.985Z</time>
      </trkpt>
      <trkpt lat="39.527525" lon="2.53978167">
        <ele>5.0</ele>
        <time>2022-05-14T16:39:06.984Z</time>
      </trkpt>
      <trkpt lat="39.52754667" lon="2.53981667">
        <ele>5.0</ele>
        <time>2022-05-14T16:39:07.984Z</time>
      </trkpt>
      <trkpt lat="39.52757" lon="2.53985167">
        <ele>5.0</ele>
        <time>2022-05-14T16:39:08.985Z</time>
      </trkpt>
      <trkpt lat="39.52759333" lon="2.53988667">
        <ele>5.0</ele>
        <time>2022-05-14T16:39:09.984Z</time>
      </trkpt>
      <trkpt lat="39.527615" lon="2.53992333">
        <ele>5.0</ele>
        <time>2022-05-14T16:39:10.985Z</time>
      </trkpt>
      <trkpt lat="39.52763667" lon="2.53995833">
        <ele>5.0</ele>
        <time>2022-05-14T16:39:11.985Z</time>
      </trkpt>
      <trkpt lat="39.52765833" lon="2.53999333">
        <ele>5.0</ele>
        <time>2022-05-14T16:39:12.985Z</time>
      </trkpt>
      <trkpt lat="39.52768" lon="2.54002833">
        <ele>5.0</ele>
        <time>2022-05-14T16:39:13.985Z</time>
      </trkpt>
      <trkpt lat="39.52770167" lon="2.54006333">
        <ele>6.0</ele>
        <time>2022-05-14T16:39:14.985Z</time>
      </trkpt>
      <trkpt lat="39.52772167" lon="2.54009667">
        <ele>5.0</ele>
        <time>2022-05-14T16:39:15.984Z</time>
      </trkpt>
      <trkpt lat="39.52774333" lon="2.54013167">
        <ele>5.0</ele>
        <time>2022-05-14T16:39:16.985Z</time>
      </trkpt>
      <trkpt lat="39.52776667" lon="2.54016667">
        <ele>5.0</ele>
        <time>2022-05-14T16:39:17.984Z</time>
      </trkpt>
      <trkpt lat="39.52779" lon="2.5402">
        <ele>5.0</ele>
        <time>2022-05-14T16:39:18.985Z</time>
      </trkpt>
      <trkpt lat="39.52781167" lon="2.54023333">
        <ele>5.0</ele>
        <time>2022-05-14T16:39:19.985Z</time>
      </trkpt>
      <trkpt lat="39.52783" lon="2.54026833">
        <ele>5.0</ele>
        <time>2022-05-14T16:39:20.985Z</time>
      </trkpt>
      <trkpt lat="39.52785" lon="2.54030167">
        <ele>6.0</ele>
        <time>2022-05-14T16:39:21.984Z</time>
      </trkpt>
      <trkpt lat="39.52786833" lon="2.540335">
        <ele>6.0</ele>
        <time>2022-05-14T16:39:22.985Z</time>
      </trkpt>
      <trkpt lat="39.52788833" lon="2.54036833">
        <ele>6.0</ele>
        <time>2022-05-14T16:39:23.985Z</time>
      </trkpt>
      <trkpt lat="39.52790667" lon="2.54040167">
        <ele>7.0</ele>
        <time>2022-05-14T16:39:24.985Z</time>
      </trkpt>
      <trkpt lat="39.52792333" lon="2.54043333">
        <ele>7.0</ele>
        <time>2022-05-14T16:39:25.985Z</time>
      </trkpt>
      <trkpt lat="39.52794" lon="2.54046333">
        <ele>7.0</ele>
        <time>2022-05-14T16:39:26.984Z</time>
      </trkpt>
      <trkpt lat="39.52795667" lon="2.54049">
        <ele>7.0</ele>
        <time>2022-05-14T16:39:27.985Z</time>
      </trkpt>
      <trkpt lat="39.52797833" lon="2.54051333">
        <ele>7.0</ele>
        <time>2022-05-14T16:39:28.985Z</time>
      </trkpt>
      <trkpt lat="39.52800167" lon="2.54053667">
        <ele>7.0</ele>
        <time>2022-05-14T16:39:29.985Z</time>
      </trkpt>
      <trkpt lat="39.528025" lon="2.54056167">
        <ele>7.0</ele>
        <time>2022-05-14T16:39:30.985Z</time>
      </trkpt>
      <trkpt lat="39.52805167" lon="2.54058667">
        <ele>7.0</ele>
        <time>2022-05-14T16:39:31.984Z</time>
      </trkpt>
      <trkpt lat="39.52807333" lon="2.540615">
        <ele>8.0</ele>
        <time>2022-05-14T16:39:32.984Z</time>
      </trkpt>
      <trkpt lat="39.52809333" lon="2.54065">
        <ele>8.0</ele>
        <time>2022-05-14T16:39:33.985Z</time>
      </trkpt>
      <trkpt lat="39.52811167" lon="2.54068333">
        <ele>8.0</ele>
        <time>2022-05-14T16:39:34.984Z</time>
      </trkpt>
      <trkpt lat="39.52812833" lon="2.54071833">
        <ele>8.0</ele>
        <time>2022-05-14T16:39:35.984Z</time>
      </trkpt>
      <trkpt lat="39.52814333" lon="2.54075333">
        <ele>8.0</ele>
        <time>2022-05-14T16:39:36.984Z</time>
      </trkpt>
      <trkpt lat="39.528155" lon="2.54078667">
        <ele>9.0</ele>
        <time>2022-05-14T16:39:37.984Z</time>
      </trkpt>
      <trkpt lat="39.528165" lon="2.54082333">
        <ele>9.0</ele>
        <time>2022-05-14T16:39:38.985Z</time>
      </trkpt>
      <trkpt lat="39.52817333" lon="2.540855">
        <ele>10.0</ele>
        <time>2022-05-14T16:39:39.984Z</time>
      </trkpt>
      <trkpt lat="39.52818167" lon="2.54089">
        <ele>10.0</ele>
        <time>2022-05-14T16:39:40.985Z</time>
      </trkpt>
      <trkpt lat="39.52819" lon="2.54092667">
        <ele>10.0</ele>
        <time>2022-05-14T16:39:41.984Z</time>
      </trkpt>
      <trkpt lat="39.52819833" lon="2.54096833">
        <ele>10.0</ele>
        <time>2022-05-14T16:39:42.985Z</time>
      </trkpt>
      <trkpt lat="39.528205" lon="2.54101167">
        <ele>10.0</ele>
        <time>2022-05-14T16:39:43.985Z</time>
      </trkpt>
      <trkpt lat="39.52820833" lon="2.54105833">
        <ele>11.0</ele>
        <time>2022-05-14T16:39:44.984Z</time>
      </trkpt>
      <trkpt lat="39.52821" lon="2.54110833">
        <ele>11.0</ele>
        <time>2022-05-14T16:39:45.985Z</time>
      </trkpt>
      <trkpt lat="39.52820833" lon="2.54115833">
        <ele>12.0</ele>
        <time>2022-05-14T16:39:46.985Z</time>
      </trkpt>
      <trkpt lat="39.528205" lon="2.54121167">
        <ele>12.0</ele>
        <time>2022-05-14T16:39:47.984Z</time>
      </trkpt>
      <trkpt lat="39.52820167" lon="2.54126667">
        <ele>12.0</ele>
        <time>2022-05-14T16:39:48.985Z</time>
      </trkpt>
      <trkpt lat="39.5282" lon="2.54131167">
        <ele>12.0</ele>
        <time>2022-05-14T16:39:49.985Z</time>
      </trkpt>
      <trkpt lat="39.5282" lon="2.541375">
        <ele>12.0</ele>
        <time>2022-05-14T16:39:50.985Z</time>
      </trkpt>
      <trkpt lat="39.5282" lon="2.54142833">
        <ele>12.0</ele>
        <time>2022-05-14T16:39:51.984Z</time>
      </trkpt>
      <trkpt lat="39.5282" lon="2.54148333">
        <ele>11.0</ele>
        <time>2022-05-14T16:39:52.985Z</time>
      </trkpt>
      <trkpt lat="39.52820333" lon="2.54153833">
        <ele>11.0</ele>
        <time>2022-05-14T16:39:53.985Z</time>
      </trkpt>
      <trkpt lat="39.52820833" lon="2.541595">
        <ele>11.0</ele>
        <time>2022-05-14T16:39:54.985Z</time>
      </trkpt>
      <trkpt lat="39.52821333" lon="2.541655">
        <ele>11.0</ele>
        <time>2022-05-14T16:39:55.984Z</time>
      </trkpt>
      <trkpt lat="39.52821667" lon="2.54171833">
        <ele>11.0</ele>
        <time>2022-05-14T16:39:56.984Z</time>
      </trkpt>
      <trkpt lat="39.52822" lon="2.54178167">
        <ele>11.0</ele>
        <time>2022-05-14T16:39:57.985Z</time>
      </trkpt>
      <trkpt lat="39.528225" lon="2.54184333">
        <ele>11.0</ele>
        <time>2022-05-14T16:39:58.984Z</time>
      </trkpt>
      <trkpt lat="39.52823" lon="2.541905">
        <ele>11.0</ele>
        <time>2022-05-14T16:39:59.985Z</time>
      </trkpt>
      <trkpt lat="39.52823333" lon="2.54196667">
        <ele>11.0</ele>
        <time>2022-05-14T16:40:00.985Z</time>
      </trkpt>
      <trkpt lat="39.52823667" lon="2.54202833">
        <ele>10.0</ele>
        <time>2022-05-14T16:40:01.984Z</time>
      </trkpt>
      <trkpt lat="39.52824" lon="2.54209">
        <ele>10.0</ele>
        <time>2022-05-14T16:40:02.985Z</time>
      </trkpt>
      <trkpt lat="39.528245" lon="2.54215333">
        <ele>10.0</ele>
        <time>2022-05-14T16:40:03.985Z</time>
      </trkpt>
      <trkpt lat="39.52824833" lon="2.54221667">
        <ele>9.0</ele>
        <time>2022-05-14T16:40:04.985Z</time>
      </trkpt>
      <trkpt lat="39.52825333" lon="2.54228">
        <ele>10.0</ele>
        <time>2022-05-14T16:40:05.985Z</time>
      </trkpt>
      <trkpt lat="39.528255" lon="2.54234333">
        <ele>10.0</ele>
        <time>2022-05-14T16:40:06.985Z</time>
      </trkpt>
      <trkpt lat="39.52826" lon="2.542405">
        <ele>10.0</ele>
        <time>2022-05-14T16:40:07.985Z</time>
      </trkpt>
      <trkpt lat="39.528265" lon="2.54246833">
        <ele>10.0</ele>
        <time>2022-05-14T16:40:08.985Z</time>
      </trkpt>
      <trkpt lat="39.52826667" lon="2.54253167">
        <ele>10.0</ele>
        <time>2022-05-14T16:40:09.985Z</time>
      </trkpt>
      <trkpt lat="39.52827167" lon="2.542595">
        <ele>10.0</ele>
        <time>2022-05-14T16:40:10.985Z</time>
      </trkpt>
      <trkpt lat="39.52827333" lon="2.542655">
        <ele>10.0</ele>
        <time>2022-05-14T16:40:11.984Z</time>
      </trkpt>
      <trkpt lat="39.52827667" lon="2.54271333">
        <ele>10.0</ele>
        <time>2022-05-14T16:40:12.984Z</time>
      </trkpt>
      <trkpt lat="39.52828" lon="2.54277333">
        <ele>10.0</ele>
        <time>2022-05-14T16:40:13.984Z</time>
      </trkpt>
      <trkpt lat="39.52828333" lon="2.54283333">
        <ele>10.0</ele>
        <time>2022-05-14T16:40:14.985Z</time>
      </trkpt>
      <trkpt lat="39.52828833" lon="2.54289333">
        <ele>11.0</ele>
        <time>2022-05-14T16:40:15.985Z</time>
      </trkpt>
      <trkpt lat="39.52829167" lon="2.542955">
        <ele>10.0</ele>
        <time>2022-05-14T16:40:16.984Z</time>
      </trkpt>
      <trkpt lat="39.52829667" lon="2.54301667">
        <ele>10.0</ele>
        <time>2022-05-14T16:40:17.984Z</time>
      </trkpt>
      <trkpt lat="39.5283" lon="2.54307833">
        <ele>10.0</ele>
        <time>2022-05-14T16:40:18.984Z</time>
      </trkpt>
      <trkpt lat="39.528305" lon="2.54314">
        <ele>9.0</ele>
        <time>2022-05-14T16:40:19.985Z</time>
      </trkpt>
      <trkpt lat="39.52831" lon="2.543205">
        <ele>9.0</ele>
        <time>2022-05-14T16:40:20.985Z</time>
      </trkpt>
      <trkpt lat="39.528315" lon="2.54327">
        <ele>9.0</ele>
        <time>2022-05-14T16:40:21.984Z</time>
      </trkpt>
      <trkpt lat="39.52832167" lon="2.543335">
        <ele>9.0</ele>
        <time>2022-05-14T16:40:22.984Z</time>
      </trkpt>
      <trkpt lat="39.528325" lon="2.54339833">
        <ele>9.0</ele>
        <time>2022-05-14T16:40:23.985Z</time>
      </trkpt>
      <trkpt lat="39.52833" lon="2.543465">
        <ele>9.0</ele>
        <time>2022-05-14T16:40:24.984Z</time>
      </trkpt>
      <trkpt lat="39.528335" lon="2.54353">
        <ele>9.0</ele>
        <time>2022-05-14T16:40:25.985Z</time>
      </trkpt>
      <trkpt lat="39.52833833" lon="2.54359667">
        <ele>9.0</ele>
        <time>2022-05-14T16:40:26.984Z</time>
      </trkpt>
      <trkpt lat="39.52834333" lon="2.54366167">
        <ele>9.0</ele>
        <time>2022-05-14T16:40:27.984Z</time>
      </trkpt>
      <trkpt lat="39.52834667" lon="2.543725">
        <ele>9.0</ele>
        <time>2022-05-14T16:40:28.985Z</time>
      </trkpt>
      <trkpt lat="39.52835167" lon="2.54378833">
        <ele>9.0</ele>
        <time>2022-05-14T16:40:29.985Z</time>
      </trkpt>
      <trkpt lat="39.52835667" lon="2.54385167">
        <ele>9.0</ele>
        <time>2022-05-14T16:40:30.985Z</time>
      </trkpt>
      <trkpt lat="39.52836167" lon="2.54391167">
        <ele>9.0</ele>
        <time>2022-05-14T16:40:31.984Z</time>
      </trkpt>
      <trkpt lat="39.52836667" lon="2.54397167">
        <ele>9.0</ele>
        <time>2022-05-14T16:40:32.985Z</time>
      </trkpt>
      <trkpt lat="39.52837333" lon="2.54403167">
        <ele>10.0</ele>
        <time>2022-05-14T16:40:33.985Z</time>
      </trkpt>
      <trkpt lat="39.52837833" lon="2.54409167">
        <ele>10.0</ele>
        <time>2022-05-14T16:40:34.984Z</time>
      </trkpt>
      <trkpt lat="39.52838333" lon="2.54414667">
        <ele>11.0</ele>
        <time>2022-05-14T16:40:35.984Z</time>
      </trkpt>
      <trkpt lat="39.52838833" lon="2.54420667">
        <ele>11.0</ele>
        <time>2022-05-14T16:40:36.984Z</time>
      </trkpt>
      <trkpt lat="39.528395" lon="2.54426333">
        <ele>12.0</ele>
        <time>2022-05-14T16:40:37.984Z</time>
      </trkpt>
      <trkpt lat="39.5284" lon="2.54431833">
        <ele>12.0</ele>
        <time>2022-05-14T16:40:38.985Z</time>
      </trkpt>
      <trkpt lat="39.52840333" lon="2.54437167">
        <ele>12.0</ele>
        <time>2022-05-14T16:40:39.984Z</time>
      </trkpt>
      <trkpt lat="39.52840667" lon="2.544425">
        <ele>13.0</ele>
        <time>2022-05-14T16:40:40.984Z</time>
      </trkpt>
      <trkpt lat="39.52841167" lon="2.54447667">
        <ele>13.0</ele>
        <time>2022-05-14T16:40:41.985Z</time>
      </trkpt>
      <trkpt lat="39.52841667" lon="2.54452667">
        <ele>12.0</ele>
        <time>2022-05-14T16:40:42.984Z</time>
      </trkpt>
      <trkpt lat="39.52842" lon="2.54457833">
        <ele>12.0</ele>
        <time>2022-05-14T16:40:43.985Z</time>
      </trkpt>
      <trkpt lat="39.528425" lon="2.54462833">
        <ele>12.0</ele>
        <time>2022-05-14T16:40:44.985Z</time>
      </trkpt>
      <trkpt lat="39.52842667" lon="2.54468167">
        <ele>12.0</ele>
        <time>2022-05-14T16:40:45.985Z</time>
      </trkpt>
      <trkpt lat="39.52842667" lon="2.54468167">
        <ele>12.0</ele>
        <time>2022-05-14T16:40:46.984Z</time>
      </trkpt>
      <trkpt lat="39.52843833" lon="2.54479333">
        <ele>11.0</ele>
        <time>2022-05-14T16:40:47.984Z</time>
      </trkpt>
      <trkpt lat="39.52844333" lon="2.54484833">
        <ele>11.0</ele>
        <time>2022-05-14T16:40:48.985Z</time>
      </trkpt>
      <trkpt lat="39.52844667" lon="2.54491">
        <ele>11.0</ele>
        <time>2022-05-14T16:40:49.985Z</time>
      </trkpt>
      <trkpt lat="39.52844833" lon="2.54497">
        <ele>11.0</ele>
        <time>2022-05-14T16:40:50.984Z</time>
      </trkpt>
      <trkpt lat="39.52844833" lon="2.54503167">
        <ele>11.0</ele>
        <time>2022-05-14T16:40:51.984Z</time>
      </trkpt>
      <trkpt lat="39.52844667" lon="2.54509167">
        <ele>11.0</ele>
        <time>2022-05-14T16:40:52.984Z</time>
      </trkpt>
      <trkpt lat="39.52844667" lon="2.54515">
        <ele>11.0</ele>
        <time>2022-05-14T16:40:53.985Z</time>
      </trkpt>
      <trkpt lat="39.52844833" lon="2.54521">
        <ele>10.0</ele>
        <time>2022-05-14T16:40:54.984Z</time>
      </trkpt>
      <trkpt lat="39.52845167" lon="2.54526833">
        <ele>10.0</ele>
        <time>2022-05-14T16:40:55.984Z</time>
      </trkpt>
      <trkpt lat="39.52845667" lon="2.54532667">
        <ele>10.0</ele>
        <time>2022-05-14T16:40:56.984Z</time>
      </trkpt>
      <trkpt lat="39.52846" lon="2.545385">
        <ele>10.0</ele>
        <time>2022-05-14T16:40:57.984Z</time>
      </trkpt>
      <trkpt lat="39.52846167" lon="2.545445">
        <ele>11.0</ele>
        <time>2022-05-14T16:40:58.985Z</time>
      </trkpt>
      <trkpt lat="39.52846333" lon="2.54550333">
        <ele>11.0</ele>
        <time>2022-05-14T16:40:59.985Z</time>
      </trkpt>
      <trkpt lat="39.52846667" lon="2.54556333">
        <ele>11.0</ele>
        <time>2022-05-14T16:41:00.985Z</time>
      </trkpt>
      <trkpt lat="39.52847167" lon="2.54562167">
        <ele>11.0</ele>
        <time>2022-05-14T16:41:01.984Z</time>
      </trkpt>
      <trkpt lat="39.528475" lon="2.54567833">
        <ele>11.0</ele>
        <time>2022-05-14T16:41:02.984Z</time>
      </trkpt>
      <trkpt lat="39.52848" lon="2.545735">
        <ele>11.0</ele>
        <time>2022-05-14T16:41:03.985Z</time>
      </trkpt>
      <trkpt lat="39.52848333" lon="2.54579167">
        <ele>11.0</ele>
        <time>2022-05-14T16:41:04.985Z</time>
      </trkpt>
      <trkpt lat="39.52848667" lon="2.54584833">
        <ele>11.0</ele>
        <time>2022-05-14T16:41:05.985Z</time>
      </trkpt>
      <trkpt lat="39.52849167" lon="2.545905">
        <ele>11.0</ele>
        <time>2022-05-14T16:41:06.984Z</time>
      </trkpt>
      <trkpt lat="39.52849667" lon="2.54596167">
        <ele>11.0</ele>
        <time>2022-05-14T16:41:07.984Z</time>
      </trkpt>
      <trkpt lat="39.52850167" lon="2.54601833">
        <ele>11.0</ele>
        <time>2022-05-14T16:41:08.984Z</time>
      </trkpt>
      <trkpt lat="39.528505" lon="2.546075">
        <ele>11.0</ele>
        <time>2022-05-14T16:41:09.984Z</time>
      </trkpt>
      <trkpt lat="39.52850833" lon="2.54612667">
        <ele>11.0</ele>
        <time>2022-05-14T16:41:10.985Z</time>
      </trkpt>
      <trkpt lat="39.52851167" lon="2.54618">
        <ele>11.0</ele>
        <time>2022-05-14T16:41:11.984Z</time>
      </trkpt>
      <trkpt lat="39.52851667" lon="2.54623667">
        <ele>11.0</ele>
        <time>2022-05-14T16:41:12.985Z</time>
      </trkpt>
      <trkpt lat="39.52852" lon="2.54629167">
        <ele>11.0</ele>
        <time>2022-05-14T16:41:13.985Z</time>
      </trkpt>
      <trkpt lat="39.52852167" lon="2.54634667">
        <ele>11.0</ele>
        <time>2022-05-14T16:41:14.985Z</time>
      </trkpt>
      <trkpt lat="39.52852333" lon="2.5464">
        <ele>11.0</ele>
        <time>2022-05-14T16:41:15.984Z</time>
      </trkpt>
      <trkpt lat="39.52852667" lon="2.546455">
        <ele>11.0</ele>
        <time>2022-05-14T16:41:16.984Z</time>
      </trkpt>
      <trkpt lat="39.52853167" lon="2.54650667">
        <ele>11.0</ele>
        <time>2022-05-14T16:41:17.984Z</time>
      </trkpt>
      <trkpt lat="39.52853833" lon="2.54655833">
        <ele>11.0</ele>
        <time>2022-05-14T16:41:18.985Z</time>
      </trkpt>
      <trkpt lat="39.52854333" lon="2.54661167">
        <ele>11.0</ele>
        <time>2022-05-14T16:41:19.985Z</time>
      </trkpt>
      <trkpt lat="39.52854833" lon="2.54666333">
        <ele>11.0</ele>
        <time>2022-05-14T16:41:20.984Z</time>
      </trkpt>
      <trkpt lat="39.52855333" lon="2.54671667">
        <ele>11.0</ele>
        <time>2022-05-14T16:41:21.984Z</time>
      </trkpt>
      <trkpt lat="39.52855667" lon="2.546765">
        <ele>11.0</ele>
        <time>2022-05-14T16:41:22.984Z</time>
      </trkpt>
      <trkpt lat="39.52856167" lon="2.54681333">
        <ele>11.0</ele>
        <time>2022-05-14T16:41:23.985Z</time>
      </trkpt>
      <trkpt lat="39.528565" lon="2.54686167">
        <ele>11.0</ele>
        <time>2022-05-14T16:41:24.985Z</time>
      </trkpt>
      <trkpt lat="39.52856833" lon="2.54691167">
        <ele>12.0</ele>
        <time>2022-05-14T16:41:25.984Z</time>
      </trkpt>
      <trkpt lat="39.52857167" lon="2.54695667">
        <ele>12.0</ele>
        <time>2022-05-14T16:41:26.984Z</time>
      </trkpt>
      <trkpt lat="39.528575" lon="2.547">
        <ele>12.0</ele>
        <time>2022-05-14T16:41:27.984Z</time>
      </trkpt>
      <trkpt lat="39.52857667" lon="2.54703667">
        <ele>11.0</ele>
        <time>2022-05-14T16:41:28.984Z</time>
      </trkpt>
      <trkpt lat="39.52857333" lon="2.54707167">
        <ele>11.0</ele>
        <time>2022-05-14T16:41:29.984Z</time>
      </trkpt>
      <trkpt lat="39.52856167" lon="2.54709667">
        <ele>11.0</ele>
        <time>2022-05-14T16:41:30.984Z</time>
      </trkpt>
      <trkpt lat="39.528545" lon="2.547115">
        <ele>11.0</ele>
        <time>2022-05-14T16:41:31.984Z</time>
      </trkpt>
      <trkpt lat="39.528525" lon="2.54712333">
        <ele>11.0</ele>
        <time>2022-05-14T16:41:32.984Z</time>
      </trkpt>
      <trkpt lat="39.52850333" lon="2.54712667">
        <ele>11.0</ele>
        <time>2022-05-14T16:41:33.984Z</time>
      </trkpt>
      <trkpt lat="39.52847667" lon="2.54712833">
        <ele>11.0</ele>
        <time>2022-05-14T16:41:34.984Z</time>
      </trkpt>
      <trkpt lat="39.52845333" lon="2.54713167">
        <ele>11.0</ele>
        <time>2022-05-14T16:41:35.984Z</time>
      </trkpt>
      <trkpt lat="39.52843" lon="2.54714">
        <ele>10.0</ele>
        <time>2022-05-14T16:41:36.984Z</time>
      </trkpt>
      <trkpt lat="39.52841167" lon="2.54715833">
        <ele>10.0</ele>
        <time>2022-05-14T16:41:37.984Z</time>
      </trkpt>
      <trkpt lat="39.52839833" lon="2.54718333">
        <ele>10.0</ele>
        <time>2022-05-14T16:41:38.984Z</time>
      </trkpt>
      <trkpt lat="39.52839167" lon="2.54721667">
        <ele>10.0</ele>
        <time>2022-05-14T16:41:39.985Z</time>
      </trkpt>
      <trkpt lat="39.52838833" lon="2.54725333">
        <ele>10.0</ele>
        <time>2022-05-14T16:41:40.985Z</time>
      </trkpt>
      <trkpt lat="39.52838833" lon="2.54729667">
        <ele>11.0</ele>
        <time>2022-05-14T16:41:41.985Z</time>
      </trkpt>
      <trkpt lat="39.52839333" lon="2.54734">
        <ele>11.0</ele>
        <time>2022-05-14T16:41:42.985Z</time>
      </trkpt>
      <trkpt lat="39.52839833" lon="2.547385">
        <ele>11.0</ele>
        <time>2022-05-14T16:41:43.985Z</time>
      </trkpt>
      <trkpt lat="39.528405" lon="2.54743167">
        <ele>11.0</ele>
        <time>2022-05-14T16:41:44.985Z</time>
      </trkpt>
      <trkpt lat="39.52841167" lon="2.54747833">
        <ele>11.0</ele>
        <time>2022-05-14T16:41:45.985Z</time>
      </trkpt>
      <trkpt lat="39.528415" lon="2.547525">
        <ele>10.0</ele>
        <time>2022-05-14T16:41:46.984Z</time>
      </trkpt>
      <trkpt lat="39.52841833" lon="2.547575">
        <ele>10.0</ele>
        <time>2022-05-14T16:41:47.985Z</time>
      </trkpt>
      <trkpt lat="39.52842167" lon="2.54762333">
        <ele>10.0</ele>
        <time>2022-05-14T16:41:48.985Z</time>
      </trkpt>
      <trkpt lat="39.52842" lon="2.54767167">
        <ele>9.0</ele>
        <time>2022-05-14T16:41:49.984Z</time>
      </trkpt>
      <trkpt lat="39.52842" lon="2.54771167">
        <ele>9.0</ele>
        <time>2022-05-14T16:41:50.984Z</time>
      </trkpt>
      <trkpt lat="39.52841667" lon="2.54776333">
        <ele>9.0</ele>
        <time>2022-05-14T16:41:51.985Z</time>
      </trkpt>
      <trkpt lat="39.528415" lon="2.54782833">
        <ele>10.0</ele>
        <time>2022-05-14T16:41:52.985Z</time>
      </trkpt>
      <trkpt lat="39.528415" lon="2.54788167">
        <ele>10.0</ele>
        <time>2022-05-14T16:41:53.985Z</time>
      </trkpt>
      <trkpt lat="39.528415" lon="2.547935">
        <ele>11.0</ele>
        <time>2022-05-14T16:41:54.985Z</time>
      </trkpt>
      <trkpt lat="39.52841667" lon="2.547975">
        <ele>11.0</ele>
        <time>2022-05-14T16:41:55.985Z</time>
      </trkpt>
      <trkpt lat="39.52842" lon="2.54802667">
        <ele>10.0</ele>
        <time>2022-05-14T16:41:56.985Z</time>
      </trkpt>
      <trkpt lat="39.528425" lon="2.54808833">
        <ele>10.0</ele>
        <time>2022-05-14T16:41:57.984Z</time>
      </trkpt>
      <trkpt lat="39.52843" lon="2.54814167">
        <ele>9.0</ele>
        <time>2022-05-14T16:41:58.985Z</time>
      </trkpt>
      <trkpt lat="39.528435" lon="2.548195">
        <ele>9.0</ele>
        <time>2022-05-14T16:41:59.985Z</time>
      </trkpt>
      <trkpt lat="39.52844" lon="2.54825">
        <ele>9.0</ele>
        <time>2022-05-14T16:42:00.985Z</time>
      </trkpt>
      <trkpt lat="39.528445" lon="2.54830333">
        <ele>9.0</ele>
        <time>2022-05-14T16:42:01.985Z</time>
      </trkpt>
      <trkpt lat="39.52845" lon="2.54836">
        <ele>9.0</ele>
        <time>2022-05-14T16:42:02.985Z</time>
      </trkpt>
      <trkpt lat="39.528455" lon="2.548415">
        <ele>9.0</ele>
        <time>2022-05-14T16:42:03.985Z</time>
      </trkpt>
      <trkpt lat="39.52845833" lon="2.54847">
        <ele>8.0</ele>
        <time>2022-05-14T16:42:04.985Z</time>
      </trkpt>
      <trkpt lat="39.52846333" lon="2.548525">
        <ele>8.0</ele>
        <time>2022-05-14T16:42:05.985Z</time>
      </trkpt>
      <trkpt lat="39.52846667" lon="2.54858167">
        <ele>8.0</ele>
        <time>2022-05-14T16:42:06.985Z</time>
      </trkpt>
      <trkpt lat="39.52847333" lon="2.54864">
        <ele>8.0</ele>
        <time>2022-05-14T16:42:07.984Z</time>
      </trkpt>
      <trkpt lat="39.52847833" lon="2.54869667">
        <ele>8.0</ele>
        <time>2022-05-14T16:42:08.985Z</time>
      </trkpt>
      <trkpt lat="39.52848333" lon="2.548755">
        <ele>8.0</ele>
        <time>2022-05-14T16:42:09.984Z</time>
      </trkpt>
      <trkpt lat="39.52848833" lon="2.548815">
        <ele>9.0</ele>
        <time>2022-05-14T16:42:10.985Z</time>
      </trkpt>
      <trkpt lat="39.52849333" lon="2.54887333">
        <ele>9.0</ele>
        <time>2022-05-14T16:42:11.985Z</time>
      </trkpt>
      <trkpt lat="39.52849667" lon="2.54893167">
        <ele>9.0</ele>
        <time>2022-05-14T16:42:12.985Z</time>
      </trkpt>
      <trkpt lat="39.52850167" lon="2.54899">
        <ele>9.0</ele>
        <time>2022-05-14T16:42:13.984Z</time>
      </trkpt>
      <trkpt lat="39.52850667" lon="2.549045">
        <ele>9.0</ele>
        <time>2022-05-14T16:42:14.985Z</time>
      </trkpt>
      <trkpt lat="39.52851" lon="2.54909">
        <ele>9.0</ele>
        <time>2022-05-14T16:42:15.985Z</time>
      </trkpt>
      <trkpt lat="39.52851667" lon="2.54915833">
        <ele>10.0</ele>
        <time>2022-05-14T16:42:16.985Z</time>
      </trkpt>
      <trkpt lat="39.52852167" lon="2.54921333">
        <ele>10.0</ele>
        <time>2022-05-14T16:42:17.985Z</time>
      </trkpt>
      <trkpt lat="39.52852667" lon="2.54926667">
        <ele>10.0</ele>
        <time>2022-05-14T16:42:18.985Z</time>
      </trkpt>
      <trkpt lat="39.52853333" lon="2.54931833">
        <ele>10.0</ele>
        <time>2022-05-14T16:42:19.984Z</time>
      </trkpt>
      <trkpt lat="39.52853833" lon="2.54936833">
        <ele>10.0</ele>
        <time>2022-05-14T16:42:20.985Z</time>
      </trkpt>
      <trkpt lat="39.52854833" lon="2.54942167">
        <ele>10.0</ele>
        <time>2022-05-14T16:42:21.984Z</time>
      </trkpt>
      <trkpt lat="39.52855667" lon="2.549475">
        <ele>9.0</ele>
        <time>2022-05-14T16:42:22.984Z</time>
      </trkpt>
      <trkpt lat="39.52856833" lon="2.54953">
        <ele>9.0</ele>
        <time>2022-05-14T16:42:23.984Z</time>
      </trkpt>
      <trkpt lat="39.52858167" lon="2.54958167">
        <ele>9.0</ele>
        <time>2022-05-14T16:42:24.984Z</time>
      </trkpt>
      <trkpt lat="39.52859167" lon="2.54962167">
        <ele>9.0</ele>
        <time>2022-05-14T16:42:25.985Z</time>
      </trkpt>
      <trkpt lat="39.528605" lon="2.54968333">
        <ele>9.0</ele>
        <time>2022-05-14T16:42:26.985Z</time>
      </trkpt>
      <trkpt lat="39.52861667" lon="2.54973333">
        <ele>9.0</ele>
        <time>2022-05-14T16:42:27.984Z</time>
      </trkpt>
      <trkpt lat="39.52862667" lon="2.549785">
        <ele>9.0</ele>
        <time>2022-05-14T16:42:28.985Z</time>
      </trkpt>
      <trkpt lat="39.52863667" lon="2.549835">
        <ele>9.0</ele>
        <time>2022-05-14T16:42:29.985Z</time>
      </trkpt>
      <trkpt lat="39.52864667" lon="2.54988833">
        <ele>9.0</ele>
        <time>2022-05-14T16:42:30.984Z</time>
      </trkpt>
      <trkpt lat="39.52865667" lon="2.54994167">
        <ele>9.0</ele>
        <time>2022-05-14T16:42:31.985Z</time>
      </trkpt>
      <trkpt lat="39.528665" lon="2.54999667">
        <ele>9.0</ele>
        <time>2022-05-14T16:42:32.985Z</time>
      </trkpt>
      <trkpt lat="39.52867333" lon="2.55005167">
        <ele>10.0</ele>
        <time>2022-05-14T16:42:33.985Z</time>
      </trkpt>
      <trkpt lat="39.52868167" lon="2.55010333">
        <ele>10.0</ele>
        <time>2022-05-14T16:42:34.985Z</time>
      </trkpt>
      <trkpt lat="39.52868833" lon="2.55015667">
        <ele>10.0</ele>
        <time>2022-05-14T16:42:35.985Z</time>
      </trkpt>
      <trkpt lat="39.52869667" lon="2.55021">
        <ele>10.0</ele>
        <time>2022-05-14T16:42:36.985Z</time>
      </trkpt>
      <trkpt lat="39.52870333" lon="2.55026">
        <ele>10.0</ele>
        <time>2022-05-14T16:42:37.985Z</time>
      </trkpt>
      <trkpt lat="39.52871167" lon="2.55031167">
        <ele>10.0</ele>
        <time>2022-05-14T16:42:38.984Z</time>
      </trkpt>
      <trkpt lat="39.52871833" lon="2.550365">
        <ele>10.0</ele>
        <time>2022-05-14T16:42:39.984Z</time>
      </trkpt>
      <trkpt lat="39.52872333" lon="2.55041667">
        <ele>10.0</ele>
        <time>2022-05-14T16:42:40.985Z</time>
      </trkpt>
      <trkpt lat="39.52873" lon="2.55046667">
        <ele>10.0</ele>
        <time>2022-05-14T16:42:41.985Z</time>
      </trkpt>
      <trkpt lat="39.528735" lon="2.55052">
        <ele>10.0</ele>
        <time>2022-05-14T16:42:42.985Z</time>
      </trkpt>
      <trkpt lat="39.52874167" lon="2.55057333">
        <ele>11.0</ele>
        <time>2022-05-14T16:42:43.984Z</time>
      </trkpt>
      <trkpt lat="39.52874833" lon="2.55062333">
        <ele>11.0</ele>
        <time>2022-05-14T16:42:44.985Z</time>
      </trkpt>
      <trkpt lat="39.528755" lon="2.55067333">
        <ele>11.0</ele>
        <time>2022-05-14T16:42:45.984Z</time>
      </trkpt>
      <trkpt lat="39.52876333" lon="2.55072333">
        <ele>11.0</ele>
        <time>2022-05-14T16:42:46.985Z</time>
      </trkpt>
      <trkpt lat="39.52877333" lon="2.550775">
        <ele>10.0</ele>
        <time>2022-05-14T16:42:47.984Z</time>
      </trkpt>
      <trkpt lat="39.52878333" lon="2.550825">
        <ele>11.0</ele>
        <time>2022-05-14T16:42:48.985Z</time>
      </trkpt>
      <trkpt lat="39.52879667" lon="2.55088">
        <ele>11.0</ele>
        <time>2022-05-14T16:42:49.984Z</time>
      </trkpt>
      <trkpt lat="39.52881167" lon="2.55093167">
        <ele>11.0</ele>
        <time>2022-05-14T16:42:50.984Z</time>
      </trkpt>
      <trkpt lat="39.52882667" lon="2.55098167">
        <ele>11.0</ele>
        <time>2022-05-14T16:42:51.984Z</time>
      </trkpt>
      <trkpt lat="39.528835" lon="2.55102833">
        <ele>11.0</ele>
        <time>2022-05-14T16:42:52.985Z</time>
      </trkpt>
      <trkpt lat="39.528845" lon="2.551075">
        <ele>11.0</ele>
        <time>2022-05-14T16:42:53.984Z</time>
      </trkpt>
      <trkpt lat="39.52885833" lon="2.55112333">
        <ele>11.0</ele>
        <time>2022-05-14T16:42:54.985Z</time>
      </trkpt>
      <trkpt lat="39.52887" lon="2.55117333">
        <ele>11.0</ele>
        <time>2022-05-14T16:42:55.985Z</time>
      </trkpt>
      <trkpt lat="39.52888667" lon="2.551225">
        <ele>11.0</ele>
        <time>2022-05-14T16:42:56.985Z</time>
      </trkpt>
      <trkpt lat="39.52890167" lon="2.55127833">
        <ele>11.0</ele>
        <time>2022-05-14T16:42:57.984Z</time>
      </trkpt>
      <trkpt lat="39.528915" lon="2.55133">
        <ele>11.0</ele>
        <time>2022-05-14T16:42:58.985Z</time>
      </trkpt>
      <trkpt lat="39.52892667" lon="2.551375">
        <ele>11.0</ele>
        <time>2022-05-14T16:42:59.985Z</time>
      </trkpt>
      <trkpt lat="39.52893833" lon="2.55142167">
        <ele>11.0</ele>
        <time>2022-05-14T16:43:00.985Z</time>
      </trkpt>
      <trkpt lat="39.52894833" lon="2.55146333">
        <ele>11.0</ele>
        <time>2022-05-14T16:43:01.984Z</time>
      </trkpt>
      <trkpt lat="39.528965" lon="2.551505">
        <ele>11.0</ele>
        <time>2022-05-14T16:43:02.984Z</time>
      </trkpt>
      <trkpt lat="39.52897833" lon="2.55155167">
        <ele>11.0</ele>
        <time>2022-05-14T16:43:03.985Z</time>
      </trkpt>
      <trkpt lat="39.528995" lon="2.5516">
        <ele>11.0</ele>
        <time>2022-05-14T16:43:04.984Z</time>
      </trkpt>
      <trkpt lat="39.52900833" lon="2.55165167">
        <ele>12.0</ele>
        <time>2022-05-14T16:43:05.984Z</time>
      </trkpt>
      <trkpt lat="39.52902" lon="2.55170167">
        <ele>12.0</ele>
        <time>2022-05-14T16:43:06.985Z</time>
      </trkpt>
      <trkpt lat="39.52903333" lon="2.55175">
        <ele>12.0</ele>
        <time>2022-05-14T16:43:07.985Z</time>
      </trkpt>
      <trkpt lat="39.529045" lon="2.55179333">
        <ele>12.0</ele>
        <time>2022-05-14T16:43:08.985Z</time>
      </trkpt>
      <trkpt lat="39.529065" lon="2.55184">
        <ele>12.0</ele>
        <time>2022-05-14T16:43:09.985Z</time>
      </trkpt>
      <trkpt lat="39.52908667" lon="2.55188333">
        <ele>12.0</ele>
        <time>2022-05-14T16:43:10.985Z</time>
      </trkpt>
      <trkpt lat="39.52911" lon="2.55192667">
        <ele>12.0</ele>
        <time>2022-05-14T16:43:11.985Z</time>
      </trkpt>
      <trkpt lat="39.52913167" lon="2.55197">
        <ele>13.0</ele>
        <time>2022-05-14T16:43:12.985Z</time>
      </trkpt>
      <trkpt lat="39.529155" lon="2.55201667">
        <ele>13.0</ele>
        <time>2022-05-14T16:43:13.985Z</time>
      </trkpt>
      <trkpt lat="39.52918" lon="2.55206167">
        <ele>13.0</ele>
        <time>2022-05-14T16:43:14.984Z</time>
      </trkpt>
      <trkpt lat="39.52920333" lon="2.55210833">
        <ele>13.0</ele>
        <time>2022-05-14T16:43:15.985Z</time>
      </trkpt>
      <trkpt lat="39.52922833" lon="2.552155">
        <ele>14.0</ele>
        <time>2022-05-14T16:43:16.984Z</time>
      </trkpt>
      <trkpt lat="39.52925333" lon="2.5522">
        <ele>14.0</ele>
        <time>2022-05-14T16:43:17.985Z</time>
      </trkpt>
      <trkpt lat="39.52928" lon="2.55224667">
        <ele>14.0</ele>
        <time>2022-05-14T16:43:18.985Z</time>
      </trkpt>
      <trkpt lat="39.52930333" lon="2.55229333">
        <ele>14.0</ele>
        <time>2022-05-14T16:43:19.985Z</time>
      </trkpt>
      <trkpt lat="39.52932667" lon="2.55234167">
        <ele>13.0</ele>
        <time>2022-05-14T16:43:20.985Z</time>
      </trkpt>
      <trkpt lat="39.52935333" lon="2.55239">
        <ele>13.0</ele>
        <time>2022-05-14T16:43:21.985Z</time>
      </trkpt>
      <trkpt lat="39.52937833" lon="2.55243833">
        <ele>13.0</ele>
        <time>2022-05-14T16:43:22.984Z</time>
      </trkpt>
      <trkpt lat="39.52940333" lon="2.55248667">
        <ele>13.0</ele>
        <time>2022-05-14T16:43:23.984Z</time>
      </trkpt>
      <trkpt lat="39.52942667" lon="2.55253667">
        <ele>13.0</ele>
        <time>2022-05-14T16:43:24.984Z</time>
      </trkpt>
      <trkpt lat="39.52945" lon="2.55258667">
        <ele>13.0</ele>
        <time>2022-05-14T16:43:25.985Z</time>
      </trkpt>
      <trkpt lat="39.52947333" lon="2.552635">
        <ele>12.0</ele>
        <time>2022-05-14T16:43:26.985Z</time>
      </trkpt>
      <trkpt lat="39.529495" lon="2.552685">
        <ele>12.0</ele>
        <time>2022-05-14T16:43:27.984Z</time>
      </trkpt>
      <trkpt lat="39.52951667" lon="2.55273667">
        <ele>13.0</ele>
        <time>2022-05-14T16:43:28.984Z</time>
      </trkpt>
      <trkpt lat="39.52953833" lon="2.55278833">
        <ele>13.0</ele>
        <time>2022-05-14T16:43:29.984Z</time>
      </trkpt>
      <trkpt lat="39.52956" lon="2.55284">
        <ele>13.0</ele>
        <time>2022-05-14T16:43:30.985Z</time>
      </trkpt>
      <trkpt lat="39.529585" lon="2.55289167">
        <ele>13.0</ele>
        <time>2022-05-14T16:43:31.985Z</time>
      </trkpt>
      <trkpt lat="39.52960667" lon="2.55294">
        <ele>13.0</ele>
        <time>2022-05-14T16:43:32.984Z</time>
      </trkpt>
      <trkpt lat="39.52962833" lon="2.55299167">
        <ele>13.0</ele>
        <time>2022-05-14T16:43:33.984Z</time>
      </trkpt>
      <trkpt lat="39.52964667" lon="2.553045">
        <ele>13.0</ele>
        <time>2022-05-14T16:43:34.984Z</time>
      </trkpt>
      <trkpt lat="39.529665" lon="2.55309667">
        <ele>12.0</ele>
        <time>2022-05-14T16:43:35.984Z</time>
      </trkpt>
      <trkpt lat="39.529685" lon="2.55314833">
        <ele>12.0</ele>
        <time>2022-05-14T16:43:36.985Z</time>
      </trkpt>
      <trkpt lat="39.52970333" lon="2.55320167">
        <ele>12.0</ele>
        <time>2022-05-14T16:43:37.985Z</time>
      </trkpt>
      <trkpt lat="39.52972333" lon="2.55325667">
        <ele>12.0</ele>
        <time>2022-05-14T16:43:38.985Z</time>
      </trkpt>
      <trkpt lat="39.52974" lon="2.55331">
        <ele>13.0</ele>
        <time>2022-05-14T16:43:39.984Z</time>
      </trkpt>
      <trkpt lat="39.52976" lon="2.553365">
        <ele>13.0</ele>
        <time>2022-05-14T16:43:40.984Z</time>
      </trkpt>
      <trkpt lat="39.52977833" lon="2.55341833">
        <ele>13.0</ele>
        <time>2022-05-14T16:43:41.985Z</time>
      </trkpt>
      <trkpt lat="39.52979667" lon="2.55347167">
        <ele>13.0</ele>
        <time>2022-05-14T16:43:42.984Z</time>
      </trkpt>
      <trkpt lat="39.52981667" lon="2.553525">
        <ele>13.0</ele>
        <time>2022-05-14T16:43:43.985Z</time>
      </trkpt>
      <trkpt lat="39.529835" lon="2.55357833">
        <ele>13.0</ele>
        <time>2022-05-14T16:43:44.985Z</time>
      </trkpt>
      <trkpt lat="39.52985167" lon="2.55363167">
        <ele>13.0</ele>
        <time>2022-05-14T16:43:45.985Z</time>
      </trkpt>
      <trkpt lat="39.52987" lon="2.55368667">
        <ele>14.0</ele>
        <time>2022-05-14T16:43:46.985Z</time>
      </trkpt>
      <trkpt lat="39.52988667" lon="2.55374167">
        <ele>14.0</ele>
        <time>2022-05-14T16:43:47.984Z</time>
      </trkpt>
      <trkpt lat="39.529905" lon="2.553795">
        <ele>14.0</ele>
        <time>2022-05-14T16:43:48.985Z</time>
      </trkpt>
      <trkpt lat="39.52992167" lon="2.55385">
        <ele>14.0</ele>
        <time>2022-05-14T16:43:49.984Z</time>
      </trkpt>
      <trkpt lat="39.52993667" lon="2.55390333">
        <ele>14.0</ele>
        <time>2022-05-14T16:43:50.984Z</time>
      </trkpt>
      <trkpt lat="39.52995167" lon="2.55395833">
        <ele>14.0</ele>
        <time>2022-05-14T16:43:51.984Z</time>
      </trkpt>
      <trkpt lat="39.529965" lon="2.55401167">
        <ele>14.0</ele>
        <time>2022-05-14T16:43:52.984Z</time>
      </trkpt>
      <trkpt lat="39.52997667" lon="2.55406333">
        <ele>14.0</ele>
        <time>2022-05-14T16:43:53.984Z</time>
      </trkpt>
      <trkpt lat="39.52999167" lon="2.554115">
        <ele>14.0</ele>
        <time>2022-05-14T16:43:54.984Z</time>
      </trkpt>
      <trkpt lat="39.53000667" lon="2.554165">
        <ele>14.0</ele>
        <time>2022-05-14T16:43:55.985Z</time>
      </trkpt>
      <trkpt lat="39.53002333" lon="2.55421667">
        <ele>14.0</ele>
        <time>2022-05-14T16:43:56.985Z</time>
      </trkpt>
      <trkpt lat="39.53004167" lon="2.55426833">
        <ele>15.0</ele>
        <time>2022-05-14T16:43:57.984Z</time>
      </trkpt>
      <trkpt lat="39.53005833" lon="2.55432167">
        <ele>15.0</ele>
        <time>2022-05-14T16:43:58.984Z</time>
      </trkpt>
      <trkpt lat="39.530075" lon="2.55437167">
        <ele>16.0</ele>
        <time>2022-05-14T16:43:59.984Z</time>
      </trkpt>
      <trkpt lat="39.53009333" lon="2.55442">
        <ele>16.0</ele>
        <time>2022-05-14T16:44:00.984Z</time>
      </trkpt>
      <trkpt lat="39.53011" lon="2.55447">
        <ele>16.0</ele>
        <time>2022-05-14T16:44:01.985Z</time>
      </trkpt>
      <trkpt lat="39.53012667" lon="2.55452167">
        <ele>16.0</ele>
        <time>2022-05-14T16:44:02.985Z</time>
      </trkpt>
      <trkpt lat="39.530145" lon="2.55457167">
        <ele>17.0</ele>
        <time>2022-05-14T16:44:03.984Z</time>
      </trkpt>
      <trkpt lat="39.53016167" lon="2.55462">
        <ele>17.0</ele>
        <time>2022-05-14T16:44:04.985Z</time>
      </trkpt>
      <trkpt lat="39.53018167" lon="2.55466833">
        <ele>17.0</ele>
        <time>2022-05-14T16:44:05.984Z</time>
      </trkpt>
      <trkpt lat="39.53020167" lon="2.55471667">
        <ele>17.0</ele>
        <time>2022-05-14T16:44:06.985Z</time>
      </trkpt>
      <trkpt lat="39.53022167" lon="2.55476833">
        <ele>16.0</ele>
        <time>2022-05-14T16:44:07.984Z</time>
      </trkpt>
      <trkpt lat="39.53024" lon="2.55482167">
        <ele>16.0</ele>
        <time>2022-05-14T16:44:08.984Z</time>
      </trkpt>
      <trkpt lat="39.53025833" lon="2.55487333">
        <ele>16.0</ele>
        <time>2022-05-14T16:44:09.985Z</time>
      </trkpt>
      <trkpt lat="39.53028" lon="2.55492333">
        <ele>16.0</ele>
        <time>2022-05-14T16:44:10.985Z</time>
      </trkpt>
      <trkpt lat="39.53030167" lon="2.554975">
        <ele>16.0</ele>
        <time>2022-05-14T16:44:11.985Z</time>
      </trkpt>
      <trkpt lat="39.53032333" lon="2.555025">
        <ele>15.0</ele>
        <time>2022-05-14T16:44:12.985Z</time>
      </trkpt>
      <trkpt lat="39.53034333" lon="2.55507167">
        <ele>15.0</ele>
        <time>2022-05-14T16:44:13.984Z</time>
      </trkpt>
      <trkpt lat="39.53036667" lon="2.55512">
        <ele>15.0</ele>
        <time>2022-05-14T16:44:14.985Z</time>
      </trkpt>
      <trkpt lat="39.53038833" lon="2.555165">
        <ele>15.0</ele>
        <time>2022-05-14T16:44:15.985Z</time>
      </trkpt>
      <trkpt lat="39.53041" lon="2.55521167">
        <ele>14.0</ele>
        <time>2022-05-14T16:44:16.985Z</time>
      </trkpt>
      <trkpt lat="39.53043167" lon="2.55525667">
        <ele>14.0</ele>
        <time>2022-05-14T16:44:17.985Z</time>
      </trkpt>
      <trkpt lat="39.53045167" lon="2.55530167">
        <ele>14.0</ele>
        <time>2022-05-14T16:44:18.984Z</time>
      </trkpt>
      <trkpt lat="39.53047167" lon="2.55534667">
        <ele>14.0</ele>
        <time>2022-05-14T16:44:19.984Z</time>
      </trkpt>
      <trkpt lat="39.53049167" lon="2.55539333">
        <ele>15.0</ele>
        <time>2022-05-14T16:44:20.985Z</time>
      </trkpt>
      <trkpt lat="39.53050833" lon="2.555435">
        <ele>15.0</ele>
        <time>2022-05-14T16:44:21.984Z</time>
      </trkpt>
      <trkpt lat="39.53052667" lon="2.55547833">
        <ele>15.0</ele>
        <time>2022-05-14T16:44:22.985Z</time>
      </trkpt>
      <trkpt lat="39.53054333" lon="2.55552167">
        <ele>15.0</ele>
        <time>2022-05-14T16:44:23.985Z</time>
      </trkpt>
      <trkpt lat="39.53056333" lon="2.555565">
        <ele>15.0</ele>
        <time>2022-05-14T16:44:24.985Z</time>
      </trkpt>
      <trkpt lat="39.53058" lon="2.55561167">
        <ele>15.0</ele>
        <time>2022-05-14T16:44:25.985Z</time>
      </trkpt>
      <trkpt lat="39.53059667" lon="2.55565667">
        <ele>14.0</ele>
        <time>2022-05-14T16:44:26.984Z</time>
      </trkpt>
      <trkpt lat="39.53061333" lon="2.555705">
        <ele>14.0</ele>
        <time>2022-05-14T16:44:27.984Z</time>
      </trkpt>
      <trkpt lat="39.53063167" lon="2.55575333">
        <ele>14.0</ele>
        <time>2022-05-14T16:44:28.985Z</time>
      </trkpt>
      <trkpt lat="39.53065333" lon="2.55580333">
        <ele>14.0</ele>
        <time>2022-05-14T16:44:29.985Z</time>
      </trkpt>
      <trkpt lat="39.53067333" lon="2.55585333">
        <ele>14.0</ele>
        <time>2022-05-14T16:44:30.985Z</time>
      </trkpt>
      <trkpt lat="39.53069333" lon="2.555905">
        <ele>14.0</ele>
        <time>2022-05-14T16:44:31.985Z</time>
      </trkpt>
      <trkpt lat="39.530715" lon="2.555955">
        <ele>14.0</ele>
        <time>2022-05-14T16:44:32.985Z</time>
      </trkpt>
      <trkpt lat="39.53073667" lon="2.556005">
        <ele>13.0</ele>
        <time>2022-05-14T16:44:33.985Z</time>
      </trkpt>
      <trkpt lat="39.53075667" lon="2.556055">
        <ele>13.0</ele>
        <time>2022-05-14T16:44:34.985Z</time>
      </trkpt>
      <trkpt lat="39.530775" lon="2.55611">
        <ele>14.0</ele>
        <time>2022-05-14T16:44:35.984Z</time>
      </trkpt>
      <trkpt lat="39.530795" lon="2.55616333">
        <ele>14.0</ele>
        <time>2022-05-14T16:44:36.984Z</time>
      </trkpt>
      <trkpt lat="39.530815" lon="2.55621833">
        <ele>14.0</ele>
        <time>2022-05-14T16:44:37.984Z</time>
      </trkpt>
      <trkpt lat="39.530835" lon="2.55627167">
        <ele>14.0</ele>
        <time>2022-05-14T16:44:38.985Z</time>
      </trkpt>
      <trkpt lat="39.53085167" lon="2.55632667">
        <ele>14.0</ele>
        <time>2022-05-14T16:44:39.985Z</time>
      </trkpt>
      <trkpt lat="39.53087" lon="2.55637833">
        <ele>14.0</ele>
        <time>2022-05-14T16:44:40.985Z</time>
      </trkpt>
      <trkpt lat="39.53088667" lon="2.55643167">
        <ele>14.0</ele>
        <time>2022-05-14T16:44:41.984Z</time>
      </trkpt>
      <trkpt lat="39.53090667" lon="2.55648167">
        <ele>14.0</ele>
        <time>2022-05-14T16:44:42.985Z</time>
      </trkpt>
      <trkpt lat="39.530925" lon="2.55653333">
        <ele>13.0</ele>
        <time>2022-05-14T16:44:43.985Z</time>
      </trkpt>
      <trkpt lat="39.530945" lon="2.55658833">
        <ele>13.0</ele>
        <time>2022-05-14T16:44:44.984Z</time>
      </trkpt>
      <trkpt lat="39.53096833" lon="2.55664667">
        <ele>12.0</ele>
        <time>2022-05-14T16:44:45.985Z</time>
      </trkpt>
      <trkpt lat="39.530995" lon="2.55671">
        <ele>12.0</ele>
        <time>2022-05-14T16:44:46.985Z</time>
      </trkpt>
      <trkpt lat="39.53102167" lon="2.55677333">
        <ele>12.0</ele>
        <time>2022-05-14T16:44:47.985Z</time>
      </trkpt>
      <trkpt lat="39.53104833" lon="2.55684">
        <ele>12.0</ele>
        <time>2022-05-14T16:44:48.985Z</time>
      </trkpt>
      <trkpt lat="39.53107833" lon="2.55691">
        <ele>12.0</ele>
        <time>2022-05-14T16:44:49.985Z</time>
      </trkpt>
      <trkpt lat="39.53110833" lon="2.55698167">
        <ele>12.0</ele>
        <time>2022-05-14T16:44:50.985Z</time>
      </trkpt>
      <trkpt lat="39.53114" lon="2.557055">
        <ele>12.0</ele>
        <time>2022-05-14T16:44:51.985Z</time>
      </trkpt>
      <trkpt lat="39.53117333" lon="2.55713167">
        <ele>12.0</ele>
        <time>2022-05-14T16:44:52.985Z</time>
      </trkpt>
      <trkpt lat="39.53121" lon="2.55721">
        <ele>12.0</ele>
        <time>2022-05-14T16:44:53.984Z</time>
      </trkpt>
      <trkpt lat="39.53125" lon="2.55729167">
        <ele>12.0</ele>
        <time>2022-05-14T16:44:54.984Z</time>
      </trkpt>
      <trkpt lat="39.53129167" lon="2.55737333">
        <ele>11.0</ele>
        <time>2022-05-14T16:44:55.985Z</time>
      </trkpt>
      <trkpt lat="39.53133" lon="2.55745667">
        <ele>11.0</ele>
        <time>2022-05-14T16:44:56.985Z</time>
      </trkpt>
      <trkpt lat="39.53136667" lon="2.55754333">
        <ele>10.0</ele>
        <time>2022-05-14T16:44:57.985Z</time>
      </trkpt>
      <trkpt lat="39.53140167" lon="2.55763167">
        <ele>10.0</ele>
        <time>2022-05-14T16:44:58.984Z</time>
      </trkpt>
      <trkpt lat="39.53143667" lon="2.55772">
        <ele>9.0</ele>
        <time>2022-05-14T16:44:59.985Z</time>
      </trkpt>
      <trkpt lat="39.53146833" lon="2.557805">
        <ele>9.0</ele>
        <time>2022-05-14T16:45:00.985Z</time>
      </trkpt>
      <trkpt lat="39.53149833" lon="2.55789167">
        <ele>9.0</ele>
        <time>2022-05-14T16:45:01.985Z</time>
      </trkpt>
      <trkpt lat="39.53152833" lon="2.55797667">
        <ele>9.0</ele>
        <time>2022-05-14T16:45:02.985Z</time>
      </trkpt>
      <trkpt lat="39.53156" lon="2.55805667">
        <ele>8.0</ele>
        <time>2022-05-14T16:45:03.984Z</time>
      </trkpt>
      <trkpt lat="39.531595" lon="2.55812667">
        <ele>8.0</ele>
        <time>2022-05-14T16:45:04.985Z</time>
      </trkpt>
      <trkpt lat="39.53163167" lon="2.55818333">
        <ele>9.0</ele>
        <time>2022-05-14T16:45:05.984Z</time>
      </trkpt>
      <trkpt lat="39.53166833" lon="2.55821333">
        <ele>8.0</ele>
        <time>2022-05-14T16:45:06.985Z</time>
      </trkpt>
      <trkpt lat="39.531705" lon="2.55821833">
        <ele>8.0</ele>
        <time>2022-05-14T16:45:07.985Z</time>
      </trkpt>
      <trkpt lat="39.53174333" lon="2.55820667">
        <ele>8.0</ele>
        <time>2022-05-14T16:45:08.985Z</time>
      </trkpt>
      <trkpt lat="39.53178167" lon="2.55818333">
        <ele>8.0</ele>
        <time>2022-05-14T16:45:09.985Z</time>
      </trkpt>
      <trkpt lat="39.53182" lon="2.55815833">
        <ele>8.0</ele>
        <time>2022-05-14T16:45:10.985Z</time>
      </trkpt>
      <trkpt lat="39.53186167" lon="2.55813833">
        <ele>7.0</ele>
        <time>2022-05-14T16:45:11.985Z</time>
      </trkpt>
      <trkpt lat="39.5319" lon="2.55812833">
        <ele>7.0</ele>
        <time>2022-05-14T16:45:12.985Z</time>
      </trkpt>
      <trkpt lat="39.53193333" lon="2.55814667">
        <ele>6.0</ele>
        <time>2022-05-14T16:45:13.985Z</time>
      </trkpt>
      <trkpt lat="39.531955" lon="2.55817833">
        <ele>6.0</ele>
        <time>2022-05-14T16:45:14.984Z</time>
      </trkpt>
      <trkpt lat="39.53196667" lon="2.55822333">
        <ele>7.0</ele>
        <time>2022-05-14T16:45:15.985Z</time>
      </trkpt>
      <trkpt lat="39.53198167" lon="2.55827">
        <ele>7.0</ele>
        <time>2022-05-14T16:45:16.984Z</time>
      </trkpt>
      <trkpt lat="39.531995" lon="2.55831333">
        <ele>7.0</ele>
        <time>2022-05-14T16:45:17.985Z</time>
      </trkpt>
      <trkpt lat="39.532005" lon="2.55835333">
        <ele>7.0</ele>
        <time>2022-05-14T16:45:18.984Z</time>
      </trkpt>
      <trkpt lat="39.53202" lon="2.558395">
        <ele>7.0</ele>
        <time>2022-05-14T16:45:19.985Z</time>
      </trkpt>
      <trkpt lat="39.53203333" lon="2.55843333">
        <ele>8.0</ele>
        <time>2022-05-14T16:45:20.985Z</time>
      </trkpt>
      <trkpt lat="39.53204333" lon="2.55847">
        <ele>8.0</ele>
        <time>2022-05-14T16:45:21.985Z</time>
      </trkpt>
      <trkpt lat="39.53205667" lon="2.55849667">
        <ele>8.0</ele>
        <time>2022-05-14T16:45:22.984Z</time>
      </trkpt>
      <trkpt lat="39.53207333" lon="2.55852333">
        <ele>8.0</ele>
        <time>2022-05-14T16:45:23.985Z</time>
      </trkpt>
      <trkpt lat="39.53208667" lon="2.55855167">
        <ele>9.0</ele>
        <time>2022-05-14T16:45:24.985Z</time>
      </trkpt>
      <trkpt lat="39.53209833" lon="2.55858167">
        <ele>9.0</ele>
        <time>2022-05-14T16:45:25.985Z</time>
      </trkpt>
      <trkpt lat="39.53211167" lon="2.55861167">
        <ele>9.0</ele>
        <time>2022-05-14T16:45:26.985Z</time>
      </trkpt>
      <trkpt lat="39.53212333" lon="2.55864167">
        <ele>9.0</ele>
        <time>2022-05-14T16:45:27.985Z</time>
      </trkpt>
      <trkpt lat="39.53213833" lon="2.55867167">
        <ele>9.0</ele>
        <time>2022-05-14T16:45:28.985Z</time>
      </trkpt>
      <trkpt lat="39.532155" lon="2.558705">
        <ele>9.0</ele>
        <time>2022-05-14T16:45:29.985Z</time>
      </trkpt>
      <trkpt lat="39.53217" lon="2.55874">
        <ele>10.0</ele>
        <time>2022-05-14T16:45:30.985Z</time>
      </trkpt>
      <trkpt lat="39.53218667" lon="2.55877667">
        <ele>10.0</ele>
        <time>2022-05-14T16:45:31.985Z</time>
      </trkpt>
      <trkpt lat="39.53220167" lon="2.55881333">
        <ele>10.0</ele>
        <time>2022-05-14T16:45:32.985Z</time>
      </trkpt>
      <trkpt lat="39.532215" lon="2.55885">
        <ele>10.0</ele>
        <time>2022-05-14T16:45:33.984Z</time>
      </trkpt>
      <trkpt lat="39.53222833" lon="2.55888667">
        <ele>10.0</ele>
        <time>2022-05-14T16:45:34.984Z</time>
      </trkpt>
      <trkpt lat="39.53224167" lon="2.55892333">
        <ele>9.0</ele>
        <time>2022-05-14T16:45:35.985Z</time>
      </trkpt>
      <trkpt lat="39.53225667" lon="2.55896167">
        <ele>10.0</ele>
        <time>2022-05-14T16:45:36.985Z</time>
      </trkpt>
      <trkpt lat="39.53226833" lon="2.55899833">
        <ele>10.0</ele>
        <time>2022-05-14T16:45:37.985Z</time>
      </trkpt>
      <trkpt lat="39.53228333" lon="2.55903667">
        <ele>10.0</ele>
        <time>2022-05-14T16:45:38.985Z</time>
      </trkpt>
      <trkpt lat="39.53229667" lon="2.559075">
        <ele>10.0</ele>
        <time>2022-05-14T16:45:39.985Z</time>
      </trkpt>
      <trkpt lat="39.53230833" lon="2.55911667">
        <ele>10.0</ele>
        <time>2022-05-14T16:45:40.985Z</time>
      </trkpt>
      <trkpt lat="39.53232" lon="2.55915833">
        <ele>10.0</ele>
        <time>2022-05-14T16:45:41.984Z</time>
      </trkpt>
      <trkpt lat="39.53233" lon="2.55919667">
        <ele>11.0</ele>
        <time>2022-05-14T16:45:42.985Z</time>
      </trkpt>
      <trkpt lat="39.53234167" lon="2.55923667">
        <ele>11.0</ele>
        <time>2022-05-14T16:45:43.984Z</time>
      </trkpt>
      <trkpt lat="39.53235167" lon="2.559275">
        <ele>10.0</ele>
        <time>2022-05-14T16:45:44.985Z</time>
      </trkpt>
      <trkpt lat="39.532365" lon="2.55931667">
        <ele>10.0</ele>
        <time>2022-05-14T16:45:45.984Z</time>
      </trkpt>
      <trkpt lat="39.53238167" lon="2.55935833">
        <ele>9.0</ele>
        <time>2022-05-14T16:45:46.984Z</time>
      </trkpt>
      <trkpt lat="39.53239833" lon="2.5594">
        <ele>9.0</ele>
        <time>2022-05-14T16:45:47.984Z</time>
      </trkpt>
      <trkpt lat="39.532415" lon="2.55944167">
        <ele>9.0</ele>
        <time>2022-05-14T16:45:48.985Z</time>
      </trkpt>
      <trkpt lat="39.53243167" lon="2.559485">
        <ele>9.0</ele>
        <time>2022-05-14T16:45:49.984Z</time>
      </trkpt>
      <trkpt lat="39.53244667" lon="2.55952667">
        <ele>9.0</ele>
        <time>2022-05-14T16:45:50.985Z</time>
      </trkpt>
      <trkpt lat="39.53246167" lon="2.55957">
        <ele>9.0</ele>
        <time>2022-05-14T16:45:51.985Z</time>
      </trkpt>
      <trkpt lat="39.53248" lon="2.559615">
        <ele>9.0</ele>
        <time>2022-05-14T16:45:52.985Z</time>
      </trkpt>
      <trkpt lat="39.5325" lon="2.55966">
        <ele>9.0</ele>
        <time>2022-05-14T16:45:53.985Z</time>
      </trkpt>
      <trkpt lat="39.53252167" lon="2.559705">
        <ele>10.0</ele>
        <time>2022-05-14T16:45:54.985Z</time>
      </trkpt>
      <trkpt lat="39.532545" lon="2.55975">
        <ele>10.0</ele>
        <time>2022-05-14T16:45:55.984Z</time>
      </trkpt>
      <trkpt lat="39.53257" lon="2.55979667">
        <ele>10.0</ele>
        <time>2022-05-14T16:45:56.984Z</time>
      </trkpt>
      <trkpt lat="39.532595" lon="2.55985">
        <ele>10.0</ele>
        <time>2022-05-14T16:45:57.984Z</time>
      </trkpt>
      <trkpt lat="39.53262333" lon="2.55990167">
        <ele>10.0</ele>
        <time>2022-05-14T16:45:58.985Z</time>
      </trkpt>
      <trkpt lat="39.53265333" lon="2.559955">
        <ele>10.0</ele>
        <time>2022-05-14T16:45:59.985Z</time>
      </trkpt>
      <trkpt lat="39.53268333" lon="2.56001">
        <ele>10.0</ele>
        <time>2022-05-14T16:46:00.984Z</time>
      </trkpt>
      <trkpt lat="39.532715" lon="2.560065">
        <ele>10.0</ele>
        <time>2022-05-14T16:46:01.984Z</time>
      </trkpt>
      <trkpt lat="39.53274833" lon="2.56012333">
        <ele>9.0</ele>
        <time>2022-05-14T16:46:02.984Z</time>
      </trkpt>
      <trkpt lat="39.53278" lon="2.56018167">
        <ele>9.0</ele>
        <time>2022-05-14T16:46:03.985Z</time>
      </trkpt>
      <trkpt lat="39.53281" lon="2.56024333">
        <ele>9.0</ele>
        <time>2022-05-14T16:46:04.984Z</time>
      </trkpt>
      <trkpt lat="39.53284" lon="2.560305">
        <ele>9.0</ele>
        <time>2022-05-14T16:46:05.985Z</time>
      </trkpt>
      <trkpt lat="39.53287" lon="2.560365">
        <ele>8.0</ele>
        <time>2022-05-14T16:46:06.984Z</time>
      </trkpt>
      <trkpt lat="39.53289833" lon="2.560425">
        <ele>8.0</ele>
        <time>2022-05-14T16:46:07.985Z</time>
      </trkpt>
      <trkpt lat="39.53292333" lon="2.56048667">
        <ele>8.0</ele>
        <time>2022-05-14T16:46:08.984Z</time>
      </trkpt>
      <trkpt lat="39.53294833" lon="2.56054833">
        <ele>8.0</ele>
        <time>2022-05-14T16:46:09.984Z</time>
      </trkpt>
      <trkpt lat="39.53297167" lon="2.56060667">
        <ele>8.0</ele>
        <time>2022-05-14T16:46:10.984Z</time>
      </trkpt>
      <trkpt lat="39.532995" lon="2.56066333">
        <ele>7.0</ele>
        <time>2022-05-14T16:46:11.985Z</time>
      </trkpt>
      <trkpt lat="39.53301667" lon="2.56072">
        <ele>7.0</ele>
        <time>2022-05-14T16:46:12.984Z</time>
      </trkpt>
      <trkpt lat="39.53304" lon="2.56077167">
        <ele>7.0</ele>
        <time>2022-05-14T16:46:13.985Z</time>
      </trkpt>
      <trkpt lat="39.53306167" lon="2.56082167">
        <ele>6.0</ele>
        <time>2022-05-14T16:46:14.985Z</time>
      </trkpt>
      <trkpt lat="39.533085" lon="2.56087333">
        <ele>6.0</ele>
        <time>2022-05-14T16:46:15.985Z</time>
      </trkpt>
      <trkpt lat="39.53310333" lon="2.56092333">
        <ele>6.0</ele>
        <time>2022-05-14T16:46:16.985Z</time>
      </trkpt>
      <trkpt lat="39.53312167" lon="2.56097333">
        <ele>7.0</ele>
        <time>2022-05-14T16:46:17.984Z</time>
      </trkpt>
      <trkpt lat="39.53314" lon="2.56102">
        <ele>7.0</ele>
        <time>2022-05-14T16:46:18.985Z</time>
      </trkpt>
      <trkpt lat="39.53315833" lon="2.56106833">
        <ele>7.0</ele>
        <time>2022-05-14T16:46:19.984Z</time>
      </trkpt>
      <trkpt lat="39.53317667" lon="2.561115">
        <ele>7.0</ele>
        <time>2022-05-14T16:46:20.985Z</time>
      </trkpt>
      <trkpt lat="39.53319667" lon="2.56116333">
        <ele>7.0</ele>
        <time>2022-05-14T16:46:21.984Z</time>
      </trkpt>
      <trkpt lat="39.53321667" lon="2.56121333">
        <ele>7.0</ele>
        <time>2022-05-14T16:46:22.984Z</time>
      </trkpt>
      <trkpt lat="39.53323833" lon="2.56126167">
        <ele>7.0</ele>
        <time>2022-05-14T16:46:23.985Z</time>
      </trkpt>
      <trkpt lat="39.53325833" lon="2.56131">
        <ele>7.0</ele>
        <time>2022-05-14T16:46:24.984Z</time>
      </trkpt>
      <trkpt lat="39.53328" lon="2.56135833">
        <ele>7.0</ele>
        <time>2022-05-14T16:46:25.984Z</time>
      </trkpt>
      <trkpt lat="39.53330333" lon="2.56140667">
        <ele>7.0</ele>
        <time>2022-05-14T16:46:26.984Z</time>
      </trkpt>
      <trkpt lat="39.533325" lon="2.56145833">
        <ele>7.0</ele>
        <time>2022-05-14T16:46:27.985Z</time>
      </trkpt>
      <trkpt lat="39.53334667" lon="2.56151">
        <ele>7.0</ele>
        <time>2022-05-14T16:46:28.985Z</time>
      </trkpt>
      <trkpt lat="39.53336667" lon="2.56156167">
        <ele>7.0</ele>
        <time>2022-05-14T16:46:29.985Z</time>
      </trkpt>
      <trkpt lat="39.53338833" lon="2.561615">
        <ele>7.0</ele>
        <time>2022-05-14T16:46:30.984Z</time>
      </trkpt>
      <trkpt lat="39.53340667" lon="2.56167">
        <ele>6.0</ele>
        <time>2022-05-14T16:46:31.985Z</time>
      </trkpt>
      <trkpt lat="39.533425" lon="2.561725">
        <ele>6.0</ele>
        <time>2022-05-14T16:46:32.985Z</time>
      </trkpt>
      <trkpt lat="39.53344333" lon="2.56178333">
        <ele>6.0</ele>
        <time>2022-05-14T16:46:33.985Z</time>
      </trkpt>
      <trkpt lat="39.53346167" lon="2.56184167">
        <ele>6.0</ele>
        <time>2022-05-14T16:46:34.984Z</time>
      </trkpt>
      <trkpt lat="39.53348" lon="2.56189833">
        <ele>5.0</ele>
        <time>2022-05-14T16:46:35.985Z</time>
      </trkpt>
      <trkpt lat="39.53349833" lon="2.56195833">
        <ele>5.0</ele>
        <time>2022-05-14T16:46:36.985Z</time>
      </trkpt>
      <trkpt lat="39.53351333" lon="2.56201667">
        <ele>5.0</ele>
        <time>2022-05-14T16:46:37.985Z</time>
      </trkpt>
      <trkpt lat="39.53352833" lon="2.56207667">
        <ele>5.0</ele>
        <time>2022-05-14T16:46:38.985Z</time>
      </trkpt>
      <trkpt lat="39.53354333" lon="2.562135">
        <ele>5.0</ele>
        <time>2022-05-14T16:46:39.985Z</time>
      </trkpt>
      <trkpt lat="39.53355667" lon="2.56219167">
        <ele>6.0</ele>
        <time>2022-05-14T16:46:40.985Z</time>
      </trkpt>
      <trkpt lat="39.53357" lon="2.56224833">
        <ele>5.0</ele>
        <time>2022-05-14T16:46:41.985Z</time>
      </trkpt>
      <trkpt lat="39.53358167" lon="2.56230333">
        <ele>5.0</ele>
        <time>2022-05-14T16:46:42.985Z</time>
      </trkpt>
      <trkpt lat="39.53359167" lon="2.56236">
        <ele>5.0</ele>
        <time>2022-05-14T16:46:43.985Z</time>
      </trkpt>
      <trkpt lat="39.5336" lon="2.56241667">
        <ele>5.0</ele>
        <time>2022-05-14T16:46:44.984Z</time>
      </trkpt>
      <trkpt lat="39.53360833" lon="2.562475">
        <ele>5.0</ele>
        <time>2022-05-14T16:46:45.985Z</time>
      </trkpt>
      <trkpt lat="39.53361833" lon="2.56253167">
        <ele>5.0</ele>
        <time>2022-05-14T16:46:46.984Z</time>
      </trkpt>
      <trkpt lat="39.53362667" lon="2.56258667">
        <ele>4.0</ele>
        <time>2022-05-14T16:46:47.984Z</time>
      </trkpt>
      <trkpt lat="39.53363333" lon="2.56264167">
        <ele>4.0</ele>
        <time>2022-05-14T16:46:48.985Z</time>
      </trkpt>
      <trkpt lat="39.53364" lon="2.562695">
        <ele>4.0</ele>
        <time>2022-05-14T16:46:49.985Z</time>
      </trkpt>
      <trkpt lat="39.53364833" lon="2.56274833">
        <ele>4.0</ele>
        <time>2022-05-14T16:46:50.985Z</time>
      </trkpt>
      <trkpt lat="39.533655" lon="2.5628">
        <ele>4.0</ele>
        <time>2022-05-14T16:46:51.984Z</time>
      </trkpt>
      <trkpt lat="39.53366167" lon="2.56285167">
        <ele>4.0</ele>
        <time>2022-05-14T16:46:52.985Z</time>
      </trkpt>
      <trkpt lat="39.533665" lon="2.562905">
        <ele>4.0</ele>
        <time>2022-05-14T16:46:53.985Z</time>
      </trkpt>
      <trkpt lat="39.53366333" lon="2.56296167">
        <ele>4.0</ele>
        <time>2022-05-14T16:46:54.985Z</time>
      </trkpt>
      <trkpt lat="39.53366333" lon="2.56301833">
        <ele>5.0</ele>
        <time>2022-05-14T16:46:55.984Z</time>
      </trkpt>
      <trkpt lat="39.53366833" lon="2.56307667">
        <ele>5.0</ele>
        <time>2022-05-14T16:46:56.984Z</time>
      </trkpt>
      <trkpt lat="39.53367" lon="2.56313333">
        <ele>5.0</ele>
        <time>2022-05-14T16:46:57.985Z</time>
      </trkpt>
      <trkpt lat="39.53366667" lon="2.56319">
        <ele>6.0</ele>
        <time>2022-05-14T16:46:58.984Z</time>
      </trkpt>
      <trkpt lat="39.53366667" lon="2.56324833">
        <ele>6.0</ele>
        <time>2022-05-14T16:46:59.985Z</time>
      </trkpt>
      <trkpt lat="39.53366333" lon="2.563305">
        <ele>6.0</ele>
        <time>2022-05-14T16:47:00.985Z</time>
      </trkpt>
      <trkpt lat="39.53366" lon="2.563365">
        <ele>7.0</ele>
        <time>2022-05-14T16:47:01.984Z</time>
      </trkpt>
      <trkpt lat="39.53365667" lon="2.56342333">
        <ele>7.0</ele>
        <time>2022-05-14T16:47:02.984Z</time>
      </trkpt>
      <trkpt lat="39.53365167" lon="2.56347833">
        <ele>6.0</ele>
        <time>2022-05-14T16:47:03.985Z</time>
      </trkpt>
      <trkpt lat="39.53364833" lon="2.563535">
        <ele>6.0</ele>
        <time>2022-05-14T16:47:04.984Z</time>
      </trkpt>
      <trkpt lat="39.53364667" lon="2.56358833">
        <ele>6.0</ele>
        <time>2022-05-14T16:47:05.984Z</time>
      </trkpt>
      <trkpt lat="39.53364333" lon="2.56363833">
        <ele>5.0</ele>
        <time>2022-05-14T16:47:06.984Z</time>
      </trkpt>
      <trkpt lat="39.53364167" lon="2.56368833">
        <ele>5.0</ele>
        <time>2022-05-14T16:47:07.985Z</time>
      </trkpt>
      <trkpt lat="39.53364" lon="2.56373333">
        <ele>5.0</ele>
        <time>2022-05-14T16:47:08.984Z</time>
      </trkpt>
      <trkpt lat="39.53364" lon="2.56377833">
        <ele>5.0</ele>
        <time>2022-05-14T16:47:09.985Z</time>
      </trkpt>
      <trkpt lat="39.53364333" lon="2.56382333">
        <ele>4.0</ele>
        <time>2022-05-14T16:47:10.984Z</time>
      </trkpt>
      <trkpt lat="39.533645" lon="2.56387167">
        <ele>4.0</ele>
        <time>2022-05-14T16:47:11.985Z</time>
      </trkpt>
      <trkpt lat="39.53365167" lon="2.56391833">
        <ele>4.0</ele>
        <time>2022-05-14T16:47:12.985Z</time>
      </trkpt>
      <trkpt lat="39.53365833" lon="2.56396333">
        <ele>4.0</ele>
        <time>2022-05-14T16:47:13.984Z</time>
      </trkpt>
      <trkpt lat="39.533665" lon="2.564005">
        <ele>5.0</ele>
        <time>2022-05-14T16:47:14.984Z</time>
      </trkpt>
      <trkpt lat="39.533675" lon="2.56404833">
        <ele>5.0</ele>
        <time>2022-05-14T16:47:15.985Z</time>
      </trkpt>
      <trkpt lat="39.53368667" lon="2.56409333">
        <ele>5.0</ele>
        <time>2022-05-14T16:47:16.985Z</time>
      </trkpt>
      <trkpt lat="39.53369667" lon="2.56413667">
        <ele>5.0</ele>
        <time>2022-05-14T16:47:17.985Z</time>
      </trkpt>
      <trkpt lat="39.53370333" lon="2.56418167">
        <ele>5.0</ele>
        <time>2022-05-14T16:47:18.984Z</time>
      </trkpt>
      <trkpt lat="39.53372333" lon="2.56422333">
        <ele>5.0</ele>
        <time>2022-05-14T16:47:19.984Z</time>
      </trkpt>
      <trkpt lat="39.53375" lon="2.56426833">
        <ele>5.0</ele>
        <time>2022-05-14T16:47:20.985Z</time>
      </trkpt>
      <trkpt lat="39.53376667" lon="2.56431167">
        <ele>5.0</ele>
        <time>2022-05-14T16:47:21.985Z</time>
      </trkpt>
      <trkpt lat="39.53378167" lon="2.56435667">
        <ele>5.0</ele>
        <time>2022-05-14T16:47:22.984Z</time>
      </trkpt>
      <trkpt lat="39.53379667" lon="2.56439833">
        <ele>5.0</ele>
        <time>2022-05-14T16:47:23.985Z</time>
      </trkpt>
      <trkpt lat="39.533815" lon="2.56444167">
        <ele>5.0</ele>
        <time>2022-05-14T16:47:24.984Z</time>
      </trkpt>
      <trkpt lat="39.53383" lon="2.56448167">
        <ele>4.0</ele>
        <time>2022-05-14T16:47:25.984Z</time>
      </trkpt>
      <trkpt lat="39.53384833" lon="2.56452333">
        <ele>4.0</ele>
        <time>2022-05-14T16:47:26.985Z</time>
      </trkpt>
      <trkpt lat="39.53386667" lon="2.56456333">
        <ele>5.0</ele>
        <time>2022-05-14T16:47:27.985Z</time>
      </trkpt>
      <trkpt lat="39.53388333" lon="2.56460333">
        <ele>5.0</ele>
        <time>2022-05-14T16:47:28.985Z</time>
      </trkpt>
      <trkpt lat="39.533895" lon="2.56464667">
        <ele>6.0</ele>
        <time>2022-05-14T16:47:29.985Z</time>
      </trkpt>
      <trkpt lat="39.53390833" lon="2.56468667">
        <ele>7.0</ele>
        <time>2022-05-14T16:47:30.985Z</time>
      </trkpt>
      <trkpt lat="39.53392333" lon="2.56472667">
        <ele>7.0</ele>
        <time>2022-05-14T16:47:31.985Z</time>
      </trkpt>
      <trkpt lat="39.53393833" lon="2.56476667">
        <ele>8.0</ele>
        <time>2022-05-14T16:47:32.985Z</time>
      </trkpt>
      <trkpt lat="39.53395333" lon="2.56480667">
        <ele>9.0</ele>
        <time>2022-05-14T16:47:33.984Z</time>
      </trkpt>
      <trkpt lat="39.53396667" lon="2.56484667">
        <ele>9.0</ele>
        <time>2022-05-14T16:47:34.985Z</time>
      </trkpt>
      <trkpt lat="39.53398167" lon="2.564885">
        <ele>10.0</ele>
        <time>2022-05-14T16:47:35.984Z</time>
      </trkpt>
      <trkpt lat="39.53399833" lon="2.56492">
        <ele>10.0</ele>
        <time>2022-05-14T16:47:36.984Z</time>
      </trkpt>
      <trkpt lat="39.53401667" lon="2.56495167">
        <ele>10.0</ele>
        <time>2022-05-14T16:47:37.985Z</time>
      </trkpt>
      <trkpt lat="39.53403333" lon="2.56498333">
        <ele>10.0</ele>
        <time>2022-05-14T16:47:38.984Z</time>
      </trkpt>
      <trkpt lat="39.53404667" lon="2.56502">
        <ele>11.0</ele>
        <time>2022-05-14T16:47:39.984Z</time>
      </trkpt>
      <trkpt lat="39.53405167" lon="2.56505333">
        <ele>11.0</ele>
        <time>2022-05-14T16:47:40.984Z</time>
      </trkpt>
      <trkpt lat="39.53405" lon="2.56508833">
        <ele>11.0</ele>
        <time>2022-05-14T16:47:41.985Z</time>
      </trkpt>
      <trkpt lat="39.53404333" lon="2.56512167">
        <ele>11.0</ele>
        <time>2022-05-14T16:47:42.985Z</time>
      </trkpt>
      <trkpt lat="39.53403833" lon="2.56515167">
        <ele>12.0</ele>
        <time>2022-05-14T16:47:43.985Z</time>
      </trkpt>
      <trkpt lat="39.53403167" lon="2.565175">
        <ele>12.0</ele>
        <time>2022-05-14T16:47:44.984Z</time>
      </trkpt>
      <trkpt lat="39.53402" lon="2.56520333">
        <ele>12.0</ele>
        <time>2022-05-14T16:47:45.984Z</time>
      </trkpt>
      <trkpt lat="39.53401" lon="2.56522833">
        <ele>12.0</ele>
        <time>2022-05-14T16:47:46.984Z</time>
      </trkpt>
      <trkpt lat="39.534005" lon="2.56525667">
        <ele>12.0</ele>
        <time>2022-05-14T16:47:47.985Z</time>
      </trkpt>
      <trkpt lat="39.53399667" lon="2.56528667">
        <ele>12.0</ele>
        <time>2022-05-14T16:47:48.984Z</time>
      </trkpt>
      <trkpt lat="39.53398333" lon="2.56531667">
        <ele>12.0</ele>
        <time>2022-05-14T16:47:49.985Z</time>
      </trkpt>
      <trkpt lat="39.53396333" lon="2.56534167">
        <ele>11.0</ele>
        <time>2022-05-14T16:47:50.985Z</time>
      </trkpt>
      <trkpt lat="39.53393667" lon="2.56535333">
        <ele>11.0</ele>
        <time>2022-05-14T16:47:51.985Z</time>
      </trkpt>
      <trkpt lat="39.533905" lon="2.56536">
        <ele>11.0</ele>
        <time>2022-05-14T16:47:52.985Z</time>
      </trkpt>
      <trkpt lat="39.53387" lon="2.56536667">
        <ele>11.0</ele>
        <time>2022-05-14T16:47:53.985Z</time>
      </trkpt>
      <trkpt lat="39.53383333" lon="2.56537667">
        <ele>12.0</ele>
        <time>2022-05-14T16:47:54.984Z</time>
      </trkpt>
      <trkpt lat="39.53379833" lon="2.56539833">
        <ele>12.0</ele>
        <time>2022-05-14T16:47:55.985Z</time>
      </trkpt>
      <trkpt lat="39.53376333" lon="2.56542667">
        <ele>12.0</ele>
        <time>2022-05-14T16:47:56.984Z</time>
      </trkpt>
      <trkpt lat="39.53373333" lon="2.56546">
        <ele>12.0</ele>
        <time>2022-05-14T16:47:57.984Z</time>
      </trkpt>
      <trkpt lat="39.53371" lon="2.56549833">
        <ele>12.0</ele>
        <time>2022-05-14T16:47:58.985Z</time>
      </trkpt>
      <trkpt lat="39.53369333" lon="2.56554">
        <ele>11.0</ele>
        <time>2022-05-14T16:47:59.985Z</time>
      </trkpt>
      <trkpt lat="39.53368167" lon="2.56558333">
        <ele>11.0</ele>
        <time>2022-05-14T16:48:00.985Z</time>
      </trkpt>
      <trkpt lat="39.53367167" lon="2.56562333">
        <ele>11.0</ele>
        <time>2022-05-14T16:48:01.985Z</time>
      </trkpt>
      <trkpt lat="39.53366333" lon="2.56566333">
        <ele>10.0</ele>
        <time>2022-05-14T16:48:02.984Z</time>
      </trkpt>
      <trkpt lat="39.533655" lon="2.56569667">
        <ele>10.0</ele>
        <time>2022-05-14T16:48:03.985Z</time>
      </trkpt>
      <trkpt lat="39.533645" lon="2.565725">
        <ele>10.0</ele>
        <time>2022-05-14T16:48:04.984Z</time>
      </trkpt>
      <trkpt lat="39.53363" lon="2.56574333">
        <ele>10.0</ele>
        <time>2022-05-14T16:48:05.985Z</time>
      </trkpt>
      <trkpt lat="39.53361" lon="2.56575333">
        <ele>11.0</ele>
        <time>2022-05-14T16:48:06.984Z</time>
      </trkpt>
      <trkpt lat="39.53359167" lon="2.56575667">
        <ele>11.0</ele>
        <time>2022-05-14T16:48:07.984Z</time>
      </trkpt>
      <trkpt lat="39.53357" lon="2.56576">
        <ele>11.0</ele>
        <time>2022-05-14T16:48:08.984Z</time>
      </trkpt>
      <trkpt lat="39.53355333" lon="2.56577333">
        <ele>11.0</ele>
        <time>2022-05-14T16:48:09.984Z</time>
      </trkpt>
      <trkpt lat="39.53354167" lon="2.56579333">
        <ele>12.0</ele>
        <time>2022-05-14T16:48:10.984Z</time>
      </trkpt>
      <trkpt lat="39.533535" lon="2.56582">
        <ele>13.0</ele>
        <time>2022-05-14T16:48:11.984Z</time>
      </trkpt>
      <trkpt lat="39.53353167" lon="2.56584667">
        <ele>14.0</ele>
        <time>2022-05-14T16:48:12.985Z</time>
      </trkpt>
      <trkpt lat="39.53353" lon="2.56588167">
        <ele>15.0</ele>
        <time>2022-05-14T16:48:13.985Z</time>
      </trkpt>
      <trkpt lat="39.53353" lon="2.565905">
        <ele>15.0</ele>
        <time>2022-05-14T16:48:14.985Z</time>
      </trkpt>
      <trkpt lat="39.53353167" lon="2.56593667">
        <ele>16.0</ele>
        <time>2022-05-14T16:48:15.985Z</time>
      </trkpt>
      <trkpt lat="39.533535" lon="2.56597167">
        <ele>16.0</ele>
        <time>2022-05-14T16:48:16.984Z</time>
      </trkpt>
      <trkpt lat="39.53353667" lon="2.565995">
        <ele>16.0</ele>
        <time>2022-05-14T16:48:17.984Z</time>
      </trkpt>
      <trkpt lat="39.53354167" lon="2.56602667">
        <ele>16.0</ele>
        <time>2022-05-14T16:48:18.985Z</time>
      </trkpt>
      <trkpt lat="39.53354667" lon="2.56605667">
        <ele>16.0</ele>
        <time>2022-05-14T16:48:19.985Z</time>
      </trkpt>
      <trkpt lat="39.533545" lon="2.56609333">
        <ele>16.0</ele>
        <time>2022-05-14T16:48:20.985Z</time>
      </trkpt>
      <trkpt lat="39.53354667" lon="2.566115">
        <ele>16.0</ele>
        <time>2022-05-14T16:48:21.985Z</time>
      </trkpt>
      <trkpt lat="39.53354667" lon="2.56615333">
        <ele>16.0</ele>
        <time>2022-05-14T16:48:22.985Z</time>
      </trkpt>
      <trkpt lat="39.53354667" lon="2.56617833">
        <ele>17.0</ele>
        <time>2022-05-14T16:48:23.985Z</time>
      </trkpt>
      <trkpt lat="39.533545" lon="2.56620833">
        <ele>17.0</ele>
        <time>2022-05-14T16:48:24.985Z</time>
      </trkpt>
      <trkpt lat="39.53355" lon="2.56624667">
        <ele>18.0</ele>
        <time>2022-05-14T16:48:25.984Z</time>
      </trkpt>
      <trkpt lat="39.533555" lon="2.56628167">
        <ele>18.0</ele>
        <time>2022-05-14T16:48:26.984Z</time>
      </trkpt>
      <trkpt lat="39.53355833" lon="2.56630667">
        <ele>18.0</ele>
        <time>2022-05-14T16:48:27.985Z</time>
      </trkpt>
      <trkpt lat="39.53356" lon="2.56634167">
        <ele>18.0</ele>
        <time>2022-05-14T16:48:28.984Z</time>
      </trkpt>
      <trkpt lat="39.53356333" lon="2.56638333">
        <ele>18.0</ele>
        <time>2022-05-14T16:48:29.984Z</time>
      </trkpt>
      <trkpt lat="39.533565" lon="2.56641">
        <ele>18.0</ele>
        <time>2022-05-14T16:48:30.985Z</time>
      </trkpt>
      <trkpt lat="39.53356667" lon="2.56645">
        <ele>18.0</ele>
        <time>2022-05-14T16:48:31.985Z</time>
      </trkpt>
      <trkpt lat="39.53357333" lon="2.56647667">
        <ele>18.0</ele>
        <time>2022-05-14T16:48:32.985Z</time>
      </trkpt>
      <trkpt lat="39.53357833" lon="2.56651">
        <ele>19.0</ele>
        <time>2022-05-14T16:48:33.984Z</time>
      </trkpt>
      <trkpt lat="39.53358167" lon="2.56654833">
        <ele>19.0</ele>
        <time>2022-05-14T16:48:34.984Z</time>
      </trkpt>
      <trkpt lat="39.53358667" lon="2.566575">
        <ele>19.0</ele>
        <time>2022-05-14T16:48:35.985Z</time>
      </trkpt>
      <trkpt lat="39.53359" lon="2.56660833">
        <ele>19.0</ele>
        <time>2022-05-14T16:48:36.985Z</time>
      </trkpt>
      <trkpt lat="39.53359167" lon="2.56664333">
        <ele>19.0</ele>
        <time>2022-05-14T16:48:37.985Z</time>
      </trkpt>
      <trkpt lat="39.533595" lon="2.56668167">
        <ele>19.0</ele>
        <time>2022-05-14T16:48:38.985Z</time>
      </trkpt>
      <trkpt lat="39.53359667" lon="2.56671333">
        <ele>20.0</ele>
        <time>2022-05-14T16:48:39.985Z</time>
      </trkpt>
      <trkpt lat="39.53360167" lon="2.56674667">
        <ele>20.0</ele>
        <time>2022-05-14T16:48:40.984Z</time>
      </trkpt>
      <trkpt lat="39.533605" lon="2.56678167">
        <ele>20.0</ele>
        <time>2022-05-14T16:48:41.984Z</time>
      </trkpt>
      <trkpt lat="39.53361" lon="2.566815">
        <ele>20.0</ele>
        <time>2022-05-14T16:48:42.984Z</time>
      </trkpt>
      <trkpt lat="39.53361667" lon="2.56685333">
        <ele>20.0</ele>
        <time>2022-05-14T16:48:43.985Z</time>
      </trkpt>
      <trkpt lat="39.53362333" lon="2.56688667">
        <ele>20.0</ele>
        <time>2022-05-14T16:48:44.985Z</time>
      </trkpt>
      <trkpt lat="39.53362833" lon="2.56691333">
        <ele>21.0</ele>
        <time>2022-05-14T16:48:45.985Z</time>
      </trkpt>
      <trkpt lat="39.53363667" lon="2.56694667">
        <ele>21.0</ele>
        <time>2022-05-14T16:48:46.985Z</time>
      </trkpt>
      <trkpt lat="39.53364667" lon="2.56698833">
        <ele>22.0</ele>
        <time>2022-05-14T16:48:47.985Z</time>
      </trkpt>
      <trkpt lat="39.53364833" lon="2.567015">
        <ele>22.0</ele>
        <time>2022-05-14T16:48:48.985Z</time>
      </trkpt>
      <trkpt lat="39.53365" lon="2.56705333">
        <ele>22.0</ele>
        <time>2022-05-14T16:48:49.985Z</time>
      </trkpt>
      <trkpt lat="39.53365" lon="2.56708">
        <ele>21.0</ele>
        <time>2022-05-14T16:48:50.985Z</time>
      </trkpt>
      <trkpt lat="39.533655" lon="2.567115">
        <ele>21.0</ele>
        <time>2022-05-14T16:48:51.984Z</time>
      </trkpt>
      <trkpt lat="39.53366" lon="2.56715333">
        <ele>21.0</ele>
        <time>2022-05-14T16:48:52.985Z</time>
      </trkpt>
      <trkpt lat="39.533665" lon="2.56719">
        <ele>21.0</ele>
        <time>2022-05-14T16:48:53.985Z</time>
      </trkpt>
      <trkpt lat="39.53367167" lon="2.56721333">
        <ele>21.0</ele>
        <time>2022-05-14T16:48:54.984Z</time>
      </trkpt>
      <trkpt lat="39.53367333" lon="2.56725333">
        <ele>20.0</ele>
        <time>2022-05-14T16:48:55.984Z</time>
      </trkpt>
      <trkpt lat="39.53368167" lon="2.56729833">
        <ele>21.0</ele>
        <time>2022-05-14T16:48:56.984Z</time>
      </trkpt>
      <trkpt lat="39.53369" lon="2.56733667">
        <ele>21.0</ele>
        <time>2022-05-14T16:48:57.985Z</time>
      </trkpt>
      <trkpt lat="39.53369667" lon="2.567365">
        <ele>21.0</ele>
        <time>2022-05-14T16:48:58.984Z</time>
      </trkpt>
      <trkpt lat="39.533705" lon="2.56740167">
        <ele>21.0</ele>
        <time>2022-05-14T16:48:59.984Z</time>
      </trkpt>
      <trkpt lat="39.53371667" lon="2.56743667">
        <ele>21.0</ele>
        <time>2022-05-14T16:49:00.985Z</time>
      </trkpt>
      <trkpt lat="39.53372833" lon="2.56747">
        <ele>21.0</ele>
        <time>2022-05-14T16:49:01.984Z</time>
      </trkpt>
      <trkpt lat="39.53374" lon="2.56750833">
        <ele>21.0</ele>
        <time>2022-05-14T16:49:02.984Z</time>
      </trkpt>
      <trkpt lat="39.53374833" lon="2.567535">
        <ele>21.0</ele>
        <time>2022-05-14T16:49:03.984Z</time>
      </trkpt>
      <trkpt lat="39.53376" lon="2.567565">
        <ele>20.0</ele>
        <time>2022-05-14T16:49:04.984Z</time>
      </trkpt>
      <trkpt lat="39.53377667" lon="2.567605">
        <ele>20.0</ele>
        <time>2022-05-14T16:49:05.985Z</time>
      </trkpt>
      <trkpt lat="39.53379" lon="2.56763333">
        <ele>20.0</ele>
        <time>2022-05-14T16:49:06.984Z</time>
      </trkpt>
      <trkpt lat="39.53380167" lon="2.56765667">
        <ele>19.0</ele>
        <time>2022-05-14T16:49:07.984Z</time>
      </trkpt>
      <trkpt lat="39.533815" lon="2.567685">
        <ele>19.0</ele>
        <time>2022-05-14T16:49:08.984Z</time>
      </trkpt>
      <trkpt lat="39.53383" lon="2.56771667">
        <ele>19.0</ele>
        <time>2022-05-14T16:49:09.984Z</time>
      </trkpt>
      <trkpt lat="39.53383833" lon="2.56773833">
        <ele>19.0</ele>
        <time>2022-05-14T16:49:10.985Z</time>
      </trkpt>
      <trkpt lat="39.53385667" lon="2.56777">
        <ele>20.0</ele>
        <time>2022-05-14T16:49:11.985Z</time>
      </trkpt>
      <trkpt lat="39.53386833" lon="2.56779">
        <ele>20.0</ele>
        <time>2022-05-14T16:49:12.985Z</time>
      </trkpt>
      <trkpt lat="39.53388333" lon="2.56781667">
        <ele>20.0</ele>
        <time>2022-05-14T16:49:13.984Z</time>
      </trkpt>
      <trkpt lat="39.53390167" lon="2.56784333">
        <ele>21.0</ele>
        <time>2022-05-14T16:49:14.985Z</time>
      </trkpt>
      <trkpt lat="39.53392" lon="2.56786333">
        <ele>20.0</ele>
        <time>2022-05-14T16:49:15.984Z</time>
      </trkpt>
      <trkpt lat="39.53393167" lon="2.56787833">
        <ele>20.0</ele>
        <time>2022-05-14T16:49:16.984Z</time>
      </trkpt>
      <trkpt lat="39.53394667" lon="2.5679">
        <ele>20.0</ele>
        <time>2022-05-14T16:49:17.985Z</time>
      </trkpt>
      <trkpt lat="39.53396667" lon="2.56792667">
        <ele>19.0</ele>
        <time>2022-05-14T16:49:18.985Z</time>
      </trkpt>
      <trkpt lat="39.53398167" lon="2.567945">
        <ele>19.0</ele>
        <time>2022-05-14T16:49:19.985Z</time>
      </trkpt>
      <trkpt lat="39.533995" lon="2.56796">
        <ele>19.0</ele>
        <time>2022-05-14T16:49:20.985Z</time>
      </trkpt>
      <trkpt lat="39.53401" lon="2.56797833">
        <ele>20.0</ele>
        <time>2022-05-14T16:49:21.984Z</time>
      </trkpt>
      <trkpt lat="39.53402667" lon="2.56799167">
        <ele>20.0</ele>
        <time>2022-05-14T16:49:22.985Z</time>
      </trkpt>
      <trkpt lat="39.53403833" lon="2.56800333">
        <ele>21.0</ele>
        <time>2022-05-14T16:49:23.984Z</time>
      </trkpt>
      <trkpt lat="39.53405333" lon="2.56801167">
        <ele>21.0</ele>
        <time>2022-05-14T16:49:24.984Z</time>
      </trkpt>
      <trkpt lat="39.53407833" lon="2.56802833">
        <ele>22.0</ele>
        <time>2022-05-14T16:49:25.985Z</time>
      </trkpt>
      <trkpt lat="39.53409833" lon="2.56804333">
        <ele>21.0</ele>
        <time>2022-05-14T16:49:26.985Z</time>
      </trkpt>
      <trkpt lat="39.53412167" lon="2.568065">
        <ele>21.0</ele>
        <time>2022-05-14T16:49:27.985Z</time>
      </trkpt>
      <trkpt lat="39.53414833" lon="2.56808667">
        <ele>21.0</ele>
        <time>2022-05-14T16:49:28.985Z</time>
      </trkpt>
      <trkpt lat="39.53416833" lon="2.56809833">
        <ele>20.0</ele>
        <time>2022-05-14T16:49:29.985Z</time>
      </trkpt>
      <trkpt lat="39.53419333" lon="2.56811167">
        <ele>20.0</ele>
        <time>2022-05-14T16:49:30.985Z</time>
      </trkpt>
      <trkpt lat="39.53422" lon="2.56812667">
        <ele>19.0</ele>
        <time>2022-05-14T16:49:31.985Z</time>
      </trkpt>
      <trkpt lat="39.53425167" lon="2.56814167">
        <ele>18.0</ele>
        <time>2022-05-14T16:49:32.985Z</time>
      </trkpt>
      <trkpt lat="39.53427333" lon="2.56815667">
        <ele>18.0</ele>
        <time>2022-05-14T16:49:33.985Z</time>
      </trkpt>
      <trkpt lat="39.53430167" lon="2.56817333">
        <ele>18.0</ele>
        <time>2022-05-14T16:49:34.984Z</time>
      </trkpt>
      <trkpt lat="39.53432333" lon="2.56818167">
        <ele>18.0</ele>
        <time>2022-05-14T16:49:35.985Z</time>
      </trkpt>
      <trkpt lat="39.534355" lon="2.5682">
        <ele>18.0</ele>
        <time>2022-05-14T16:49:36.984Z</time>
      </trkpt>
      <trkpt lat="39.53438333" lon="2.56821333">
        <ele>19.0</ele>
        <time>2022-05-14T16:49:37.984Z</time>
      </trkpt>
      <trkpt lat="39.53440333" lon="2.56822167">
        <ele>19.0</ele>
        <time>2022-05-14T16:49:38.985Z</time>
      </trkpt>
      <trkpt lat="39.53442833" lon="2.56822833">
        <ele>20.0</ele>
        <time>2022-05-14T16:49:39.985Z</time>
      </trkpt>
      <trkpt lat="39.534455" lon="2.568235">
        <ele>21.0</ele>
        <time>2022-05-14T16:49:40.985Z</time>
      </trkpt>
      <trkpt lat="39.53448333" lon="2.56824667">
        <ele>22.0</ele>
        <time>2022-05-14T16:49:41.984Z</time>
      </trkpt>
      <trkpt lat="39.53451" lon="2.56826">
        <ele>22.0</ele>
        <time>2022-05-14T16:49:42.985Z</time>
      </trkpt>
      <trkpt lat="39.53453667" lon="2.56827333">
        <ele>23.0</ele>
        <time>2022-05-14T16:49:43.985Z</time>
      </trkpt>
      <trkpt lat="39.53456333" lon="2.56828667">
        <ele>23.0</ele>
        <time>2022-05-14T16:49:44.984Z</time>
      </trkpt>
      <trkpt lat="39.53459167" lon="2.56829833">
        <ele>24.0</ele>
        <time>2022-05-14T16:49:45.984Z</time>
      </trkpt>
      <trkpt lat="39.53462167" lon="2.56830833">
        <ele>24.0</ele>
        <time>2022-05-14T16:49:46.985Z</time>
      </trkpt>
      <trkpt lat="39.53465167" lon="2.56831667">
        <ele>24.0</ele>
        <time>2022-05-14T16:49:47.984Z</time>
      </trkpt>
      <trkpt lat="39.53468167" lon="2.568325">
        <ele>24.0</ele>
        <time>2022-05-14T16:49:48.984Z</time>
      </trkpt>
      <trkpt lat="39.53471167" lon="2.56833333">
        <ele>24.0</ele>
        <time>2022-05-14T16:49:49.984Z</time>
      </trkpt>
      <trkpt lat="39.53474833" lon="2.56834167">
        <ele>24.0</ele>
        <time>2022-05-14T16:49:50.984Z</time>
      </trkpt>
      <trkpt lat="39.53478" lon="2.56834833">
        <ele>24.0</ele>
        <time>2022-05-14T16:49:51.985Z</time>
      </trkpt>
      <trkpt lat="39.53481333" lon="2.56835667">
        <ele>24.0</ele>
        <time>2022-05-14T16:49:52.985Z</time>
      </trkpt>
      <trkpt lat="39.53484167" lon="2.568365">
        <ele>23.0</ele>
        <time>2022-05-14T16:49:53.984Z</time>
      </trkpt>
      <trkpt lat="39.53487833" lon="2.56837667">
        <ele>23.0</ele>
        <time>2022-05-14T16:49:54.985Z</time>
      </trkpt>
      <trkpt lat="39.53491167" lon="2.568385">
        <ele>23.0</ele>
        <time>2022-05-14T16:49:55.984Z</time>
      </trkpt>
      <trkpt lat="39.53495167" lon="2.56839667">
        <ele>23.0</ele>
        <time>2022-05-14T16:49:56.985Z</time>
      </trkpt>
      <trkpt lat="39.53498667" lon="2.56840833">
        <ele>23.0</ele>
        <time>2022-05-14T16:49:57.985Z</time>
      </trkpt>
      <trkpt lat="39.53501667" lon="2.568415">
        <ele>23.0</ele>
        <time>2022-05-14T16:49:58.984Z</time>
      </trkpt>
      <trkpt lat="39.53505333" lon="2.56842167">
        <ele>23.0</ele>
        <time>2022-05-14T16:49:59.985Z</time>
      </trkpt>
      <trkpt lat="39.53508667" lon="2.56842667">
        <ele>23.0</ele>
        <time>2022-05-14T16:50:00.985Z</time>
      </trkpt>
      <trkpt lat="39.53512833" lon="2.56843167">
        <ele>23.0</ele>
        <time>2022-05-14T16:50:01.984Z</time>
      </trkpt>
      <trkpt lat="39.53516333" lon="2.568435">
        <ele>22.0</ele>
        <time>2022-05-14T16:50:02.985Z</time>
      </trkpt>
      <trkpt lat="39.53519167" lon="2.56843667">
        <ele>22.0</ele>
        <time>2022-05-14T16:50:03.985Z</time>
      </trkpt>
      <trkpt lat="39.53522667" lon="2.56844167">
        <ele>22.0</ele>
        <time>2022-05-14T16:50:04.985Z</time>
      </trkpt>
      <trkpt lat="39.53526167" lon="2.56844667">
        <ele>22.0</ele>
        <time>2022-05-14T16:50:05.985Z</time>
      </trkpt>
      <trkpt lat="39.53529667" lon="2.56845333">
        <ele>22.0</ele>
        <time>2022-05-14T16:50:06.985Z</time>
      </trkpt>
      <trkpt lat="39.53533833" lon="2.56845833">
        <ele>22.0</ele>
        <time>2022-05-14T16:50:07.984Z</time>
      </trkpt>
      <trkpt lat="39.53536833" lon="2.56845833">
        <ele>22.0</ele>
        <time>2022-05-14T16:50:08.985Z</time>
      </trkpt>
      <trkpt lat="39.53540333" lon="2.56846333">
        <ele>22.0</ele>
        <time>2022-05-14T16:50:09.984Z</time>
      </trkpt>
      <trkpt lat="39.53543833" lon="2.56846833">
        <ele>22.0</ele>
        <time>2022-05-14T16:50:10.984Z</time>
      </trkpt>
      <trkpt lat="39.53548" lon="2.56847667">
        <ele>22.0</ele>
        <time>2022-05-14T16:50:11.984Z</time>
      </trkpt>
      <trkpt lat="39.535505" lon="2.56848167">
        <ele>22.0</ele>
        <time>2022-05-14T16:50:12.984Z</time>
      </trkpt>
      <trkpt lat="39.53554" lon="2.56848667">
        <ele>22.0</ele>
        <time>2022-05-14T16:50:13.985Z</time>
      </trkpt>
      <trkpt lat="39.535575" lon="2.56849333">
        <ele>22.0</ele>
        <time>2022-05-14T16:50:14.985Z</time>
      </trkpt>
      <trkpt lat="39.53560833" lon="2.56850167">
        <ele>23.0</ele>
        <time>2022-05-14T16:50:15.984Z</time>
      </trkpt>
      <trkpt lat="39.53564833" lon="2.56851167">
        <ele>23.0</ele>
        <time>2022-05-14T16:50:16.984Z</time>
      </trkpt>
      <trkpt lat="39.535675" lon="2.56851833">
        <ele>24.0</ele>
        <time>2022-05-14T16:50:17.985Z</time>
      </trkpt>
      <trkpt lat="39.53571" lon="2.56852833">
        <ele>24.0</ele>
        <time>2022-05-14T16:50:18.985Z</time>
      </trkpt>
      <trkpt lat="39.53574333" lon="2.56853667">
        <ele>24.0</ele>
        <time>2022-05-14T16:50:19.984Z</time>
      </trkpt>
      <trkpt lat="39.53577667" lon="2.56854833">
        <ele>24.0</ele>
        <time>2022-05-14T16:50:20.985Z</time>
      </trkpt>
      <trkpt lat="39.53581167" lon="2.568555">
        <ele>24.0</ele>
        <time>2022-05-14T16:50:21.985Z</time>
      </trkpt>
      <trkpt lat="39.53584667" lon="2.568565">
        <ele>24.0</ele>
        <time>2022-05-14T16:50:22.984Z</time>
      </trkpt>
      <trkpt lat="39.53588167" lon="2.56857333">
        <ele>24.0</ele>
        <time>2022-05-14T16:50:23.984Z</time>
      </trkpt>
      <trkpt lat="39.53591833" lon="2.56857833">
        <ele>24.0</ele>
        <time>2022-05-14T16:50:24.985Z</time>
      </trkpt>
      <trkpt lat="39.53595167" lon="2.568585">
        <ele>24.0</ele>
        <time>2022-05-14T16:50:25.985Z</time>
      </trkpt>
      <trkpt lat="39.53598667" lon="2.56859333">
        <ele>24.0</ele>
        <time>2022-05-14T16:50:26.985Z</time>
      </trkpt>
      <trkpt lat="39.53602167" lon="2.5686">
        <ele>24.0</ele>
        <time>2022-05-14T16:50:27.984Z</time>
      </trkpt>
      <trkpt lat="39.536055" lon="2.56860833">
        <ele>24.0</ele>
        <time>2022-05-14T16:50:28.985Z</time>
      </trkpt>
      <trkpt lat="39.53608833" lon="2.568615">
        <ele>25.0</ele>
        <time>2022-05-14T16:50:29.985Z</time>
      </trkpt>
      <trkpt lat="39.53612833" lon="2.56862333">
        <ele>26.0</ele>
        <time>2022-05-14T16:50:30.985Z</time>
      </trkpt>
      <trkpt lat="39.53616333" lon="2.56863333">
        <ele>27.0</ele>
        <time>2022-05-14T16:50:31.984Z</time>
      </trkpt>
      <trkpt lat="39.53619667" lon="2.56864667">
        <ele>28.0</ele>
        <time>2022-05-14T16:50:32.985Z</time>
      </trkpt>
      <trkpt lat="39.53623167" lon="2.56866">
        <ele>28.0</ele>
        <time>2022-05-14T16:50:33.985Z</time>
      </trkpt>
      <trkpt lat="39.53625833" lon="2.56867333">
        <ele>29.0</ele>
        <time>2022-05-14T16:50:34.985Z</time>
      </trkpt>
      <trkpt lat="39.53629833" lon="2.56869">
        <ele>29.0</ele>
        <time>2022-05-14T16:50:35.985Z</time>
      </trkpt>
      <trkpt lat="39.53632833" lon="2.56870667">
        <ele>29.0</ele>
        <time>2022-05-14T16:50:36.984Z</time>
      </trkpt>
      <trkpt lat="39.536355" lon="2.56872167">
        <ele>29.0</ele>
        <time>2022-05-14T16:50:37.985Z</time>
      </trkpt>
      <trkpt lat="39.536385" lon="2.56874167">
        <ele>29.0</ele>
        <time>2022-05-14T16:50:38.984Z</time>
      </trkpt>
      <trkpt lat="39.53642333" lon="2.56877">
        <ele>29.0</ele>
        <time>2022-05-14T16:50:39.985Z</time>
      </trkpt>
      <trkpt lat="39.536455" lon="2.56879167">
        <ele>29.0</ele>
        <time>2022-05-14T16:50:40.985Z</time>
      </trkpt>
      <trkpt lat="39.53648667" lon="2.56881833">
        <ele>29.0</ele>
        <time>2022-05-14T16:50:41.985Z</time>
      </trkpt>
      <trkpt lat="39.53651" lon="2.56884167">
        <ele>29.0</ele>
        <time>2022-05-14T16:50:42.985Z</time>
      </trkpt>
      <trkpt lat="39.53653833" lon="2.56887">
        <ele>29.0</ele>
        <time>2022-05-14T16:50:43.985Z</time>
      </trkpt>
      <trkpt lat="39.53657333" lon="2.56890333">
        <ele>28.0</ele>
        <time>2022-05-14T16:50:44.984Z</time>
      </trkpt>
      <trkpt lat="39.5366" lon="2.568925">
        <ele>28.0</ele>
        <time>2022-05-14T16:50:45.985Z</time>
      </trkpt>
      <trkpt lat="39.53662667" lon="2.568955">
        <ele>28.0</ele>
        <time>2022-05-14T16:50:46.985Z</time>
      </trkpt>
      <trkpt lat="39.53665333" lon="2.56898833">
        <ele>28.0</ele>
        <time>2022-05-14T16:50:47.985Z</time>
      </trkpt>
      <trkpt lat="39.53668167" lon="2.56902">
        <ele>28.0</ele>
        <time>2022-05-14T16:50:48.985Z</time>
      </trkpt>
      <trkpt lat="39.53670667" lon="2.56905">
        <ele>27.0</ele>
        <time>2022-05-14T16:50:49.985Z</time>
      </trkpt>
      <trkpt lat="39.53673333" lon="2.56908167">
        <ele>27.0</ele>
        <time>2022-05-14T16:50:50.985Z</time>
      </trkpt>
      <trkpt lat="39.53676" lon="2.56911167">
        <ele>27.0</ele>
        <time>2022-05-14T16:50:51.985Z</time>
      </trkpt>
      <trkpt lat="39.53678667" lon="2.56914167">
        <ele>26.0</ele>
        <time>2022-05-14T16:50:52.985Z</time>
      </trkpt>
      <trkpt lat="39.53681333" lon="2.56916833">
        <ele>26.0</ele>
        <time>2022-05-14T16:50:53.985Z</time>
      </trkpt>
      <trkpt lat="39.536835" lon="2.5692">
        <ele>26.0</ele>
        <time>2022-05-14T16:50:54.985Z</time>
      </trkpt>
      <trkpt lat="39.53686" lon="2.56924">
        <ele>26.0</ele>
        <time>2022-05-14T16:50:55.985Z</time>
      </trkpt>
      <trkpt lat="39.53687833" lon="2.56926667">
        <ele>27.0</ele>
        <time>2022-05-14T16:50:56.984Z</time>
      </trkpt>
      <trkpt lat="39.53689833" lon="2.5693">
        <ele>27.0</ele>
        <time>2022-05-14T16:50:57.984Z</time>
      </trkpt>
      <trkpt lat="39.53692" lon="2.56933667">
        <ele>27.0</ele>
        <time>2022-05-14T16:50:58.984Z</time>
      </trkpt>
      <trkpt lat="39.53693667" lon="2.56935833">
        <ele>27.0</ele>
        <time>2022-05-14T16:50:59.985Z</time>
      </trkpt>
      <trkpt lat="39.53695333" lon="2.56939">
        <ele>27.0</ele>
        <time>2022-05-14T16:51:00.985Z</time>
      </trkpt>
      <trkpt lat="39.53697" lon="2.56942">
        <ele>27.0</ele>
        <time>2022-05-14T16:51:01.984Z</time>
      </trkpt>
      <trkpt lat="39.53698833" lon="2.56945">
        <ele>27.0</ele>
        <time>2022-05-14T16:51:02.985Z</time>
      </trkpt>
      <trkpt lat="39.53700167" lon="2.56948333">
        <ele>27.0</ele>
        <time>2022-05-14T16:51:03.985Z</time>
      </trkpt>
      <trkpt lat="39.53701667" lon="2.56951833">
        <ele>27.0</ele>
        <time>2022-05-14T16:51:04.985Z</time>
      </trkpt>
      <trkpt lat="39.53703167" lon="2.56955667">
        <ele>28.0</ele>
        <time>2022-05-14T16:51:05.985Z</time>
      </trkpt>
      <trkpt lat="39.53704167" lon="2.569595">
        <ele>28.0</ele>
        <time>2022-05-14T16:51:06.985Z</time>
      </trkpt>
      <trkpt lat="39.53705" lon="2.56963">
        <ele>28.0</ele>
        <time>2022-05-14T16:51:07.985Z</time>
      </trkpt>
      <trkpt lat="39.53706" lon="2.56966667">
        <ele>27.0</ele>
        <time>2022-05-14T16:51:08.984Z</time>
      </trkpt>
      <trkpt lat="39.537065" lon="2.56971167">
        <ele>27.0</ele>
        <time>2022-05-14T16:51:09.985Z</time>
      </trkpt>
      <trkpt lat="39.53706833" lon="2.56975167">
        <ele>28.0</ele>
        <time>2022-05-14T16:51:10.984Z</time>
      </trkpt>
      <trkpt lat="39.53707333" lon="2.56979833">
        <ele>28.0</ele>
        <time>2022-05-14T16:51:11.985Z</time>
      </trkpt>
      <trkpt lat="39.53706667" lon="2.56982667">
        <ele>29.0</ele>
        <time>2022-05-14T16:51:12.985Z</time>
      </trkpt>
      <trkpt lat="39.53706167" lon="2.569865">
        <ele>29.0</ele>
        <time>2022-05-14T16:51:13.985Z</time>
      </trkpt>
      <trkpt lat="39.53705667" lon="2.5699">
        <ele>29.0</ele>
        <time>2022-05-14T16:51:14.985Z</time>
      </trkpt>
      <trkpt lat="39.53705" lon="2.56993167">
        <ele>29.0</ele>
        <time>2022-05-14T16:51:15.985Z</time>
      </trkpt>
      <trkpt lat="39.53704333" lon="2.569965">
        <ele>30.0</ele>
        <time>2022-05-14T16:51:16.985Z</time>
      </trkpt>
      <trkpt lat="39.53703167" lon="2.56999833">
        <ele>30.0</ele>
        <time>2022-05-14T16:51:17.985Z</time>
      </trkpt>
      <trkpt lat="39.537015" lon="2.57003167">
        <ele>30.0</ele>
        <time>2022-05-14T16:51:18.985Z</time>
      </trkpt>
      <trkpt lat="39.53700333" lon="2.57006333">
        <ele>31.0</ele>
        <time>2022-05-14T16:51:19.985Z</time>
      </trkpt>
      <trkpt lat="39.53698833" lon="2.570095">
        <ele>31.0</ele>
        <time>2022-05-14T16:51:20.985Z</time>
      </trkpt>
      <trkpt lat="39.53697333" lon="2.570125">
        <ele>32.0</ele>
        <time>2022-05-14T16:51:21.984Z</time>
      </trkpt>
      <trkpt lat="39.53695667" lon="2.57015667">
        <ele>32.0</ele>
        <time>2022-05-14T16:51:22.985Z</time>
      </trkpt>
      <trkpt lat="39.53694" lon="2.570185">
        <ele>32.0</ele>
        <time>2022-05-14T16:51:23.984Z</time>
      </trkpt>
      <trkpt lat="39.53692167" lon="2.57021167">
        <ele>31.0</ele>
        <time>2022-05-14T16:51:24.984Z</time>
      </trkpt>
      <trkpt lat="39.53690333" lon="2.57023833">
        <ele>31.0</ele>
        <time>2022-05-14T16:51:25.985Z</time>
      </trkpt>
      <trkpt lat="39.536885" lon="2.57026167">
        <ele>31.0</ele>
        <time>2022-05-14T16:51:26.985Z</time>
      </trkpt>
      <trkpt lat="39.53686333" lon="2.57028333">
        <ele>31.0</ele>
        <time>2022-05-14T16:51:27.985Z</time>
      </trkpt>
      <trkpt lat="39.53684" lon="2.57030667">
        <ele>31.0</ele>
        <time>2022-05-14T16:51:28.984Z</time>
      </trkpt>
      <trkpt lat="39.53681667" lon="2.57033">
        <ele>31.0</ele>
        <time>2022-05-14T16:51:29.984Z</time>
      </trkpt>
      <trkpt lat="39.53679333" lon="2.570355">
        <ele>32.0</ele>
        <time>2022-05-14T16:51:30.985Z</time>
      </trkpt>
      <trkpt lat="39.53676833" lon="2.570375">
        <ele>32.0</ele>
        <time>2022-05-14T16:51:31.985Z</time>
      </trkpt>
      <trkpt lat="39.53674333" lon="2.57039167">
        <ele>32.0</ele>
        <time>2022-05-14T16:51:32.985Z</time>
      </trkpt>
      <trkpt lat="39.53671833" lon="2.57040833">
        <ele>33.0</ele>
        <time>2022-05-14T16:51:33.985Z</time>
      </trkpt>
      <trkpt lat="39.53669" lon="2.57042333">
        <ele>33.0</ele>
        <time>2022-05-14T16:51:34.985Z</time>
      </trkpt>
      <trkpt lat="39.53666667" lon="2.57043333">
        <ele>33.0</ele>
        <time>2022-05-14T16:51:35.985Z</time>
      </trkpt>
      <trkpt lat="39.53663833" lon="2.57044167">
        <ele>34.0</ele>
        <time>2022-05-14T16:51:36.985Z</time>
      </trkpt>
      <trkpt lat="39.53661333" lon="2.570455">
        <ele>34.0</ele>
        <time>2022-05-14T16:51:37.985Z</time>
      </trkpt>
      <trkpt lat="39.53658667" lon="2.57046833">
        <ele>35.0</ele>
        <time>2022-05-14T16:51:38.985Z</time>
      </trkpt>
      <trkpt lat="39.536565" lon="2.57048167">
        <ele>35.0</ele>
        <time>2022-05-14T16:51:39.985Z</time>
      </trkpt>
      <trkpt lat="39.53653667" lon="2.57049333">
        <ele>36.0</ele>
        <time>2022-05-14T16:51:40.984Z</time>
      </trkpt>
      <trkpt lat="39.53651" lon="2.57048667">
        <ele>36.0</ele>
        <time>2022-05-14T16:51:41.984Z</time>
      </trkpt>
      <trkpt lat="39.536485" lon="2.57049">
        <ele>36.0</ele>
        <time>2022-05-14T16:51:42.985Z</time>
      </trkpt>
      <trkpt lat="39.53645333" lon="2.57050333">
        <ele>36.0</ele>
        <time>2022-05-14T16:51:43.984Z</time>
      </trkpt>
      <trkpt lat="39.53642333" lon="2.57051333">
        <ele>36.0</ele>
        <time>2022-05-14T16:51:44.985Z</time>
      </trkpt>
      <trkpt lat="39.53639667" lon="2.57052667">
        <ele>36.0</ele>
        <time>2022-05-14T16:51:45.984Z</time>
      </trkpt>
      <trkpt lat="39.53637" lon="2.57053833">
        <ele>36.0</ele>
        <time>2022-05-14T16:51:46.984Z</time>
      </trkpt>
      <trkpt lat="39.536345" lon="2.57054667">
        <ele>37.0</ele>
        <time>2022-05-14T16:51:47.985Z</time>
      </trkpt>
      <trkpt lat="39.53632" lon="2.57056">
        <ele>37.0</ele>
        <time>2022-05-14T16:51:48.985Z</time>
      </trkpt>
      <trkpt lat="39.53629" lon="2.57056333">
        <ele>37.0</ele>
        <time>2022-05-14T16:51:49.984Z</time>
      </trkpt>
      <trkpt lat="39.53626333" lon="2.57056333">
        <ele>37.0</ele>
        <time>2022-05-14T16:51:50.985Z</time>
      </trkpt>
      <trkpt lat="39.53623833" lon="2.57057">
        <ele>37.0</ele>
        <time>2022-05-14T16:51:51.985Z</time>
      </trkpt>
      <trkpt lat="39.53621833" lon="2.57058333">
        <ele>36.0</ele>
        <time>2022-05-14T16:51:52.985Z</time>
      </trkpt>
      <trkpt lat="39.536195" lon="2.570595">
        <ele>37.0</ele>
        <time>2022-05-14T16:51:53.985Z</time>
      </trkpt>
      <trkpt lat="39.53617333" lon="2.57060333">
        <ele>37.0</ele>
        <time>2022-05-14T16:51:54.985Z</time>
      </trkpt>
      <trkpt lat="39.53614833" lon="2.5706">
        <ele>37.0</ele>
        <time>2022-05-14T16:51:55.985Z</time>
      </trkpt>
      <trkpt lat="39.53612333" lon="2.57060167">
        <ele>36.0</ele>
        <time>2022-05-14T16:51:56.985Z</time>
      </trkpt>
      <trkpt lat="39.5361" lon="2.57060833">
        <ele>36.0</ele>
        <time>2022-05-14T16:51:57.985Z</time>
      </trkpt>
      <trkpt lat="39.536075" lon="2.57062">
        <ele>36.0</ele>
        <time>2022-05-14T16:51:58.984Z</time>
      </trkpt>
      <trkpt lat="39.53605333" lon="2.57063">
        <ele>36.0</ele>
        <time>2022-05-14T16:51:59.985Z</time>
      </trkpt>
      <trkpt lat="39.53603" lon="2.57064">
        <ele>35.0</ele>
        <time>2022-05-14T16:52:00.984Z</time>
      </trkpt>
      <trkpt lat="39.53600667" lon="2.570645">
        <ele>35.0</ele>
        <time>2022-05-14T16:52:01.985Z</time>
      </trkpt>
      <trkpt lat="39.535985" lon="2.57065333">
        <ele>35.0</ele>
        <time>2022-05-14T16:52:02.985Z</time>
      </trkpt>
      <trkpt lat="39.53596" lon="2.570665">
        <ele>36.0</ele>
        <time>2022-05-14T16:52:03.985Z</time>
      </trkpt>
      <trkpt lat="39.53592667" lon="2.570685">
        <ele>36.0</ele>
        <time>2022-05-14T16:52:04.984Z</time>
      </trkpt>
      <trkpt lat="39.53590167" lon="2.57070167">
        <ele>37.0</ele>
        <time>2022-05-14T16:52:05.984Z</time>
      </trkpt>
      <trkpt lat="39.53588833" lon="2.57072">
        <ele>37.0</ele>
        <time>2022-05-14T16:52:06.984Z</time>
      </trkpt>
      <trkpt lat="39.535865" lon="2.57072667">
        <ele>38.0</ele>
        <time>2022-05-14T16:52:07.984Z</time>
      </trkpt>
      <trkpt lat="39.53584167" lon="2.57073167">
        <ele>38.0</ele>
        <time>2022-05-14T16:52:08.985Z</time>
      </trkpt>
      <trkpt lat="39.53581333" lon="2.570735">
        <ele>39.0</ele>
        <time>2022-05-14T16:52:09.985Z</time>
      </trkpt>
      <trkpt lat="39.53579" lon="2.570745">
        <ele>39.0</ele>
        <time>2022-05-14T16:52:10.985Z</time>
      </trkpt>
      <trkpt lat="39.53576333" lon="2.57075833">
        <ele>39.0</ele>
        <time>2022-05-14T16:52:11.985Z</time>
      </trkpt>
      <trkpt lat="39.53574333" lon="2.57077">
        <ele>39.0</ele>
        <time>2022-05-14T16:52:12.984Z</time>
      </trkpt>
      <trkpt lat="39.53572333" lon="2.57078167">
        <ele>40.0</ele>
        <time>2022-05-14T16:52:13.984Z</time>
      </trkpt>
      <trkpt lat="39.53570333" lon="2.5708">
        <ele>40.0</ele>
        <time>2022-05-14T16:52:14.985Z</time>
      </trkpt>
      <trkpt lat="39.53568667" lon="2.570815">
        <ele>40.0</ele>
        <time>2022-05-14T16:52:15.985Z</time>
      </trkpt>
      <trkpt lat="39.53567167" lon="2.57083">
        <ele>40.0</ele>
        <time>2022-05-14T16:52:16.985Z</time>
      </trkpt>
      <trkpt lat="39.53565667" lon="2.570845">
        <ele>40.0</ele>
        <time>2022-05-14T16:52:17.984Z</time>
      </trkpt>
      <trkpt lat="39.53564333" lon="2.570865">
        <ele>40.0</ele>
        <time>2022-05-14T16:52:18.985Z</time>
      </trkpt>
      <trkpt lat="39.53563167" lon="2.57088">
        <ele>40.0</ele>
        <time>2022-05-14T16:52:19.984Z</time>
      </trkpt>
      <trkpt lat="39.53561833" lon="2.57089833">
        <ele>40.0</ele>
        <time>2022-05-14T16:52:20.984Z</time>
      </trkpt>
      <trkpt lat="39.53560667" lon="2.57091167">
        <ele>40.0</ele>
        <time>2022-05-14T16:52:21.984Z</time>
      </trkpt>
      <trkpt lat="39.53559" lon="2.570925">
        <ele>40.0</ele>
        <time>2022-05-14T16:52:22.985Z</time>
      </trkpt>
      <trkpt lat="39.53557333" lon="2.57094">
        <ele>40.0</ele>
        <time>2022-05-14T16:52:23.985Z</time>
      </trkpt>
      <trkpt lat="39.535555" lon="2.57095833">
        <ele>41.0</ele>
        <time>2022-05-14T16:52:24.985Z</time>
      </trkpt>
      <trkpt lat="39.53553667" lon="2.57096833">
        <ele>41.0</ele>
        <time>2022-05-14T16:52:25.985Z</time>
      </trkpt>
      <trkpt lat="39.53552" lon="2.57099">
        <ele>42.0</ele>
        <time>2022-05-14T16:52:26.984Z</time>
      </trkpt>
      <trkpt lat="39.53550333" lon="2.57100833">
        <ele>42.0</ele>
        <time>2022-05-14T16:52:27.985Z</time>
      </trkpt>
      <trkpt lat="39.535485" lon="2.57103">
        <ele>42.0</ele>
        <time>2022-05-14T16:52:28.985Z</time>
      </trkpt>
      <trkpt lat="39.53546833" lon="2.57105">
        <ele>43.0</ele>
        <time>2022-05-14T16:52:29.985Z</time>
      </trkpt>
      <trkpt lat="39.53545167" lon="2.57106833">
        <ele>43.0</ele>
        <time>2022-05-14T16:52:30.985Z</time>
      </trkpt>
      <trkpt lat="39.53543167" lon="2.57108833">
        <ele>43.0</ele>
        <time>2022-05-14T16:52:31.984Z</time>
      </trkpt>
      <trkpt lat="39.535415" lon="2.57111">
        <ele>42.0</ele>
        <time>2022-05-14T16:52:32.985Z</time>
      </trkpt>
      <trkpt lat="39.53540333" lon="2.57113167">
        <ele>42.0</ele>
        <time>2022-05-14T16:52:33.985Z</time>
      </trkpt>
      <trkpt lat="39.53539333" lon="2.571155">
        <ele>42.0</ele>
        <time>2022-05-14T16:52:34.984Z</time>
      </trkpt>
      <trkpt lat="39.535385" lon="2.57118">
        <ele>42.0</ele>
        <time>2022-05-14T16:52:35.985Z</time>
      </trkpt>
      <trkpt lat="39.53537333" lon="2.57120333">
        <ele>43.0</ele>
        <time>2022-05-14T16:52:36.985Z</time>
      </trkpt>
      <trkpt lat="39.53535833" lon="2.57122667">
        <ele>43.0</ele>
        <time>2022-05-14T16:52:37.984Z</time>
      </trkpt>
      <trkpt lat="39.535345" lon="2.57125">
        <ele>43.0</ele>
        <time>2022-05-14T16:52:38.985Z</time>
      </trkpt>
      <trkpt lat="39.53532833" lon="2.57127333">
        <ele>42.0</ele>
        <time>2022-05-14T16:52:39.985Z</time>
      </trkpt>
      <trkpt lat="39.53531167" lon="2.57129333">
        <ele>42.0</ele>
        <time>2022-05-14T16:52:40.984Z</time>
      </trkpt>
      <trkpt lat="39.53531" lon="2.57132333">
        <ele>42.0</ele>
        <time>2022-05-14T16:52:41.984Z</time>
      </trkpt>
      <trkpt lat="39.53531833" lon="2.57135333">
        <ele>42.0</ele>
        <time>2022-05-14T16:52:42.984Z</time>
      </trkpt>
      <trkpt lat="39.535325" lon="2.57138833">
        <ele>42.0</ele>
        <time>2022-05-14T16:52:43.985Z</time>
      </trkpt>
      <trkpt lat="39.53532833" lon="2.57142667">
        <ele>42.0</ele>
        <time>2022-05-14T16:52:44.985Z</time>
      </trkpt>
      <trkpt lat="39.53531833" lon="2.57146">
        <ele>42.0</ele>
        <time>2022-05-14T16:52:45.984Z</time>
      </trkpt>
      <trkpt lat="39.53530167" lon="2.57149167">
        <ele>42.0</ele>
        <time>2022-05-14T16:52:46.985Z</time>
      </trkpt>
      <trkpt lat="39.53528" lon="2.571525">
        <ele>43.0</ele>
        <time>2022-05-14T16:52:47.984Z</time>
      </trkpt>
      <trkpt lat="39.535255" lon="2.57156833">
        <ele>43.0</ele>
        <time>2022-05-14T16:52:48.984Z</time>
      </trkpt>
      <trkpt lat="39.53525" lon="2.57160333">
        <ele>43.0</ele>
        <time>2022-05-14T16:52:49.985Z</time>
      </trkpt>
      <trkpt lat="39.53524167" lon="2.571635">
        <ele>43.0</ele>
        <time>2022-05-14T16:52:50.985Z</time>
      </trkpt>
      <trkpt lat="39.53523167" lon="2.57166833">
        <ele>44.0</ele>
        <time>2022-05-14T16:52:51.985Z</time>
      </trkpt>
      <trkpt lat="39.53522167" lon="2.5717">
        <ele>43.0</ele>
        <time>2022-05-14T16:52:52.985Z</time>
      </trkpt>
      <trkpt lat="39.53521833" lon="2.57173333">
        <ele>44.0</ele>
        <time>2022-05-14T16:52:53.985Z</time>
      </trkpt>
      <trkpt lat="39.53521333" lon="2.57177">
        <ele>44.0</ele>
        <time>2022-05-14T16:52:54.985Z</time>
      </trkpt>
      <trkpt lat="39.535205" lon="2.57180833">
        <ele>44.0</ele>
        <time>2022-05-14T16:52:55.984Z</time>
      </trkpt>
      <trkpt lat="39.53519667" lon="2.57185">
        <ele>44.0</ele>
        <time>2022-05-14T16:52:56.984Z</time>
      </trkpt>
      <trkpt lat="39.53519167" lon="2.57188833">
        <ele>43.0</ele>
        <time>2022-05-14T16:52:57.984Z</time>
      </trkpt>
      <trkpt lat="39.53519" lon="2.57193167">
        <ele>43.0</ele>
        <time>2022-05-14T16:52:58.984Z</time>
      </trkpt>
      <trkpt lat="39.53518833" lon="2.57197333">
        <ele>42.0</ele>
        <time>2022-05-14T16:52:59.985Z</time>
      </trkpt>
      <trkpt lat="39.535185" lon="2.57201167">
        <ele>41.0</ele>
        <time>2022-05-14T16:53:00.985Z</time>
      </trkpt>
      <trkpt lat="39.53518" lon="2.572055">
        <ele>40.0</ele>
        <time>2022-05-14T16:53:01.985Z</time>
      </trkpt>
      <trkpt lat="39.53517667" lon="2.57209833">
        <ele>40.0</ele>
        <time>2022-05-14T16:53:02.985Z</time>
      </trkpt>
      <trkpt lat="39.53517" lon="2.57212833">
        <ele>39.0</ele>
        <time>2022-05-14T16:53:03.984Z</time>
      </trkpt>
      <trkpt lat="39.535165" lon="2.57216167">
        <ele>39.0</ele>
        <time>2022-05-14T16:53:04.985Z</time>
      </trkpt>
      <trkpt lat="39.53516167" lon="2.572195">
        <ele>39.0</ele>
        <time>2022-05-14T16:53:05.985Z</time>
      </trkpt>
      <trkpt lat="39.53515833" lon="2.57222333">
        <ele>39.0</ele>
        <time>2022-05-14T16:53:06.985Z</time>
      </trkpt>
      <trkpt lat="39.53515667" lon="2.57224667">
        <ele>40.0</ele>
        <time>2022-05-14T16:53:07.985Z</time>
      </trkpt>
      <trkpt lat="39.53516" lon="2.57226167">
        <ele>40.0</ele>
        <time>2022-05-14T16:53:08.985Z</time>
      </trkpt>
      <trkpt lat="39.53516833" lon="2.572275">
        <ele>39.0</ele>
        <time>2022-05-14T16:53:09.985Z</time>
      </trkpt>
      <trkpt lat="39.53518167" lon="2.572285">
        <ele>39.0</ele>
        <time>2022-05-14T16:53:10.984Z</time>
      </trkpt>
      <trkpt lat="39.53519667" lon="2.57229">
        <ele>38.0</ele>
        <time>2022-05-14T16:53:11.984Z</time>
      </trkpt>
      <trkpt lat="39.53521333" lon="2.572295">
        <ele>38.0</ele>
        <time>2022-05-14T16:53:12.984Z</time>
      </trkpt>
      <trkpt lat="39.53522667" lon="2.57230667">
        <ele>37.0</ele>
        <time>2022-05-14T16:53:13.984Z</time>
      </trkpt>
      <trkpt lat="39.53523667" lon="2.57232">
        <ele>38.0</ele>
        <time>2022-05-14T16:53:14.985Z</time>
      </trkpt>
      <trkpt lat="39.53524667" lon="2.572335">
        <ele>38.0</ele>
        <time>2022-05-14T16:53:15.985Z</time>
      </trkpt>
      <trkpt lat="39.53525333" lon="2.572355">
        <ele>38.0</ele>
        <time>2022-05-14T16:53:16.984Z</time>
      </trkpt>
      <trkpt lat="39.53525833" lon="2.572375">
        <ele>37.0</ele>
        <time>2022-05-14T16:53:17.985Z</time>
      </trkpt>
      <trkpt lat="39.53526167" lon="2.5724">
        <ele>38.0</ele>
        <time>2022-05-14T16:53:18.984Z</time>
      </trkpt>
      <trkpt lat="39.53526333" lon="2.57242667">
        <ele>38.0</ele>
        <time>2022-05-14T16:53:19.985Z</time>
      </trkpt>
      <trkpt lat="39.53526333" lon="2.572455">
        <ele>38.0</ele>
        <time>2022-05-14T16:53:20.985Z</time>
      </trkpt>
      <trkpt lat="39.53526" lon="2.57248667">
        <ele>39.0</ele>
        <time>2022-05-14T16:53:21.984Z</time>
      </trkpt>
      <trkpt lat="39.53525667" lon="2.57251333">
        <ele>39.0</ele>
        <time>2022-05-14T16:53:22.985Z</time>
      </trkpt>
      <trkpt lat="39.535255" lon="2.57254333">
        <ele>40.0</ele>
        <time>2022-05-14T16:53:23.985Z</time>
      </trkpt>
      <trkpt lat="39.53525" lon="2.57257">
        <ele>41.0</ele>
        <time>2022-05-14T16:53:24.984Z</time>
      </trkpt>
      <trkpt lat="39.53524667" lon="2.5726">
        <ele>41.0</ele>
        <time>2022-05-14T16:53:25.985Z</time>
      </trkpt>
      <trkpt lat="39.53524" lon="2.57262667">
        <ele>42.0</ele>
        <time>2022-05-14T16:53:26.984Z</time>
      </trkpt>
      <trkpt lat="39.53523333" lon="2.57265167">
        <ele>42.0</ele>
        <time>2022-05-14T16:53:27.984Z</time>
      </trkpt>
      <trkpt lat="39.53522833" lon="2.57267167">
        <ele>42.0</ele>
        <time>2022-05-14T16:53:28.985Z</time>
      </trkpt>
      <trkpt lat="39.53522167" lon="2.57269">
        <ele>43.0</ele>
        <time>2022-05-14T16:53:29.984Z</time>
      </trkpt>
      <trkpt lat="39.53521833" lon="2.57271">
        <ele>43.0</ele>
        <time>2022-05-14T16:53:30.984Z</time>
      </trkpt>
      <trkpt lat="39.53521167" lon="2.57273333">
        <ele>42.0</ele>
        <time>2022-05-14T16:53:31.985Z</time>
      </trkpt>
      <trkpt lat="39.53520167" lon="2.57276167">
        <ele>42.0</ele>
        <time>2022-05-14T16:53:32.985Z</time>
      </trkpt>
      <trkpt lat="39.53519167" lon="2.57279667">
        <ele>41.0</ele>
        <time>2022-05-14T16:53:33.985Z</time>
      </trkpt>
      <trkpt lat="39.53518" lon="2.57283333">
        <ele>41.0</ele>
        <time>2022-05-14T16:53:34.985Z</time>
      </trkpt>
      <trkpt lat="39.53516333" lon="2.57286667">
        <ele>41.0</ele>
        <time>2022-05-14T16:53:35.985Z</time>
      </trkpt>
      <trkpt lat="39.53514167" lon="2.57289333">
        <ele>41.0</ele>
        <time>2022-05-14T16:53:36.985Z</time>
      </trkpt>
      <trkpt lat="39.53512" lon="2.57291833">
        <ele>40.0</ele>
        <time>2022-05-14T16:53:37.985Z</time>
      </trkpt>
      <trkpt lat="39.53510333" lon="2.57295">
        <ele>40.0</ele>
        <time>2022-05-14T16:53:38.984Z</time>
      </trkpt>
      <trkpt lat="39.53508833" lon="2.57299">
        <ele>40.0</ele>
        <time>2022-05-14T16:53:39.985Z</time>
      </trkpt>
      <trkpt lat="39.535075" lon="2.57304">
        <ele>40.0</ele>
        <time>2022-05-14T16:53:40.985Z</time>
      </trkpt>
      <trkpt lat="39.53506333" lon="2.57309667">
        <ele>40.0</ele>
        <time>2022-05-14T16:53:41.984Z</time>
      </trkpt>
      <trkpt lat="39.53505" lon="2.57316167">
        <ele>40.0</ele>
        <time>2022-05-14T16:53:42.985Z</time>
      </trkpt>
      <trkpt lat="39.53503667" lon="2.573225">
        <ele>39.0</ele>
        <time>2022-05-14T16:53:43.985Z</time>
      </trkpt>
      <trkpt lat="39.53502333" lon="2.57329">
        <ele>39.0</ele>
        <time>2022-05-14T16:53:44.985Z</time>
      </trkpt>
      <trkpt lat="39.53501167" lon="2.57335667">
        <ele>39.0</ele>
        <time>2022-05-14T16:53:45.985Z</time>
      </trkpt>
      <trkpt lat="39.535005" lon="2.57342">
        <ele>38.0</ele>
        <time>2022-05-14T16:53:46.985Z</time>
      </trkpt>
      <trkpt lat="39.535" lon="2.57348833">
        <ele>37.0</ele>
        <time>2022-05-14T16:53:47.985Z</time>
      </trkpt>
      <trkpt lat="39.535" lon="2.57355667">
        <ele>37.0</ele>
        <time>2022-05-14T16:53:48.984Z</time>
      </trkpt>
      <trkpt lat="39.53501" lon="2.57361833">
        <ele>37.0</ele>
        <time>2022-05-14T16:53:49.985Z</time>
      </trkpt>
      <trkpt lat="39.53503" lon="2.573675">
        <ele>37.0</ele>
        <time>2022-05-14T16:53:50.984Z</time>
      </trkpt>
      <trkpt lat="39.53506" lon="2.57372">
        <ele>36.0</ele>
        <time>2022-05-14T16:53:51.985Z</time>
      </trkpt>
      <trkpt lat="39.5351" lon="2.57375667">
        <ele>35.0</ele>
        <time>2022-05-14T16:53:52.985Z</time>
      </trkpt>
      <trkpt lat="39.535145" lon="2.57378167">
        <ele>34.0</ele>
        <time>2022-05-14T16:53:53.985Z</time>
      </trkpt>
      <trkpt lat="39.53519833" lon="2.57379833">
        <ele>34.0</ele>
        <time>2022-05-14T16:53:54.985Z</time>
      </trkpt>
      <trkpt lat="39.535255" lon="2.57380833">
        <ele>33.0</ele>
        <time>2022-05-14T16:53:55.984Z</time>
      </trkpt>
      <trkpt lat="39.53532" lon="2.57381667">
        <ele>32.0</ele>
        <time>2022-05-14T16:53:56.985Z</time>
      </trkpt>
      <trkpt lat="39.53538667" lon="2.57381">
        <ele>32.0</ele>
        <time>2022-05-14T16:53:57.984Z</time>
      </trkpt>
      <trkpt lat="39.53545833" lon="2.57380167">
        <ele>31.0</ele>
        <time>2022-05-14T16:53:58.984Z</time>
      </trkpt>
      <trkpt lat="39.535525" lon="2.57380333">
        <ele>31.0</ele>
        <time>2022-05-14T16:53:59.985Z</time>
      </trkpt>
      <trkpt lat="39.53559667" lon="2.573805">
        <ele>30.0</ele>
        <time>2022-05-14T16:54:00.984Z</time>
      </trkpt>
      <trkpt lat="39.53567333" lon="2.57380833">
        <ele>30.0</ele>
        <time>2022-05-14T16:54:01.984Z</time>
      </trkpt>
      <trkpt lat="39.53575" lon="2.57381333">
        <ele>30.0</ele>
        <time>2022-05-14T16:54:02.985Z</time>
      </trkpt>
      <trkpt lat="39.535825" lon="2.57381333">
        <ele>30.0</ele>
        <time>2022-05-14T16:54:03.984Z</time>
      </trkpt>
      <trkpt lat="39.53590667" lon="2.57381167">
        <ele>29.0</ele>
        <time>2022-05-14T16:54:04.985Z</time>
      </trkpt>
      <trkpt lat="39.53598333" lon="2.57381167">
        <ele>29.0</ele>
        <time>2022-05-14T16:54:05.985Z</time>
      </trkpt>
      <trkpt lat="39.53606167" lon="2.57381667">
        <ele>29.0</ele>
        <time>2022-05-14T16:54:06.984Z</time>
      </trkpt>
      <trkpt lat="39.53614" lon="2.57382833">
        <ele>28.0</ele>
        <time>2022-05-14T16:54:07.985Z</time>
      </trkpt>
      <trkpt lat="39.53622167" lon="2.57385167">
        <ele>28.0</ele>
        <time>2022-05-14T16:54:08.985Z</time>
      </trkpt>
      <trkpt lat="39.53630167" lon="2.57387833">
        <ele>28.0</ele>
        <time>2022-05-14T16:54:09.984Z</time>
      </trkpt>
      <trkpt lat="39.53638" lon="2.57391">
        <ele>28.0</ele>
        <time>2022-05-14T16:54:10.984Z</time>
      </trkpt>
      <trkpt lat="39.53644833" lon="2.57394833">
        <ele>27.0</ele>
        <time>2022-05-14T16:54:11.985Z</time>
      </trkpt>
      <trkpt lat="39.53651833" lon="2.57399167">
        <ele>27.0</ele>
        <time>2022-05-14T16:54:12.984Z</time>
      </trkpt>
      <trkpt lat="39.53658167" lon="2.574045">
        <ele>26.0</ele>
        <time>2022-05-14T16:54:13.984Z</time>
      </trkpt>
      <trkpt lat="39.53664" lon="2.57409333">
        <ele>26.0</ele>
        <time>2022-05-14T16:54:14.985Z</time>
      </trkpt>
      <trkpt lat="39.53669833" lon="2.57414333">
        <ele>25.0</ele>
        <time>2022-05-14T16:54:15.985Z</time>
      </trkpt>
      <trkpt lat="39.536755" lon="2.57420667">
        <ele>24.0</ele>
        <time>2022-05-14T16:54:16.984Z</time>
      </trkpt>
      <trkpt lat="39.536815" lon="2.57427667">
        <ele>24.0</ele>
        <time>2022-05-14T16:54:17.984Z</time>
      </trkpt>
      <trkpt lat="39.53687667" lon="2.57435">
        <ele>23.0</ele>
        <time>2022-05-14T16:54:18.985Z</time>
      </trkpt>
      <trkpt lat="39.53694167" lon="2.57443">
        <ele>22.0</ele>
        <time>2022-05-14T16:54:19.984Z</time>
      </trkpt>
      <trkpt lat="39.53700833" lon="2.574515">
        <ele>22.0</ele>
        <time>2022-05-14T16:54:20.985Z</time>
      </trkpt>
      <trkpt lat="39.53707667" lon="2.57461">
        <ele>21.0</ele>
        <time>2022-05-14T16:54:21.985Z</time>
      </trkpt>
      <trkpt lat="39.53714" lon="2.57470667">
        <ele>20.0</ele>
        <time>2022-05-14T16:54:22.984Z</time>
      </trkpt>
      <trkpt lat="39.53720333" lon="2.57480333">
        <ele>20.0</ele>
        <time>2022-05-14T16:54:23.985Z</time>
      </trkpt>
      <trkpt lat="39.53726667" lon="2.574895">
        <ele>19.0</ele>
        <time>2022-05-14T16:54:24.985Z</time>
      </trkpt>
      <trkpt lat="39.537325" lon="2.57498">
        <ele>19.0</ele>
        <time>2022-05-14T16:54:25.984Z</time>
      </trkpt>
      <trkpt lat="39.53738" lon="2.57506">
        <ele>18.0</ele>
        <time>2022-05-14T16:54:26.985Z</time>
      </trkpt>
      <trkpt lat="39.537435" lon="2.57514">
        <ele>18.0</ele>
        <time>2022-05-14T16:54:27.985Z</time>
      </trkpt>
      <trkpt lat="39.53748667" lon="2.57521833">
        <ele>18.0</ele>
        <time>2022-05-14T16:54:28.985Z</time>
      </trkpt>
      <trkpt lat="39.53753" lon="2.57529667">
        <ele>18.0</ele>
        <time>2022-05-14T16:54:29.985Z</time>
      </trkpt>
      <trkpt lat="39.53757333" lon="2.57536833">
        <ele>18.0</ele>
        <time>2022-05-14T16:54:30.984Z</time>
      </trkpt>
      <trkpt lat="39.53761333" lon="2.57543833">
        <ele>18.0</ele>
        <time>2022-05-14T16:54:31.985Z</time>
      </trkpt>
      <trkpt lat="39.53765667" lon="2.57551">
        <ele>17.0</ele>
        <time>2022-05-14T16:54:32.985Z</time>
      </trkpt>
      <trkpt lat="39.537695" lon="2.57558">
        <ele>17.0</ele>
        <time>2022-05-14T16:54:33.984Z</time>
      </trkpt>
      <trkpt lat="39.53773167" lon="2.57564667">
        <ele>17.0</ele>
        <time>2022-05-14T16:54:34.985Z</time>
      </trkpt>
      <trkpt lat="39.53777" lon="2.57571167">
        <ele>17.0</ele>
        <time>2022-05-14T16:54:35.985Z</time>
      </trkpt>
      <trkpt lat="39.53780667" lon="2.57577">
        <ele>16.0</ele>
        <time>2022-05-14T16:54:36.984Z</time>
      </trkpt>
      <trkpt lat="39.53783833" lon="2.57582667">
        <ele>16.0</ele>
        <time>2022-05-14T16:54:37.985Z</time>
      </trkpt>
      <trkpt lat="39.53787167" lon="2.57588667">
        <ele>16.0</ele>
        <time>2022-05-14T16:54:38.985Z</time>
      </trkpt>
      <trkpt lat="39.53790333" lon="2.575945">
        <ele>15.0</ele>
        <time>2022-05-14T16:54:39.985Z</time>
      </trkpt>
      <trkpt lat="39.53793" lon="2.57600333">
        <ele>15.0</ele>
        <time>2022-05-14T16:54:40.985Z</time>
      </trkpt>
      <trkpt lat="39.53796167" lon="2.576065">
        <ele>15.0</ele>
        <time>2022-05-14T16:54:41.985Z</time>
      </trkpt>
      <trkpt lat="39.53798833" lon="2.57611333">
        <ele>15.0</ele>
        <time>2022-05-14T16:54:42.985Z</time>
      </trkpt>
      <trkpt lat="39.53800667" lon="2.57615">
        <ele>15.0</ele>
        <time>2022-05-14T16:54:43.984Z</time>
      </trkpt>
      <trkpt lat="39.538035" lon="2.57620167">
        <ele>15.0</ele>
        <time>2022-05-14T16:54:44.985Z</time>
      </trkpt>
      <trkpt lat="39.53807" lon="2.576255">
        <ele>15.0</ele>
        <time>2022-05-14T16:54:45.985Z</time>
      </trkpt>
      <trkpt lat="39.53809667" lon="2.57629833">
        <ele>16.0</ele>
        <time>2022-05-14T16:54:46.984Z</time>
      </trkpt>
      <trkpt lat="39.53812" lon="2.57633167">
        <ele>16.0</ele>
        <time>2022-05-14T16:54:47.985Z</time>
      </trkpt>
      <trkpt lat="39.53814667" lon="2.57637">
        <ele>17.0</ele>
        <time>2022-05-14T16:54:48.984Z</time>
      </trkpt>
      <trkpt lat="39.53817333" lon="2.57640833">
        <ele>17.0</ele>
        <time>2022-05-14T16:54:49.985Z</time>
      </trkpt>
      <trkpt lat="39.53820167" lon="2.57645">
        <ele>17.0</ele>
        <time>2022-05-14T16:54:50.984Z</time>
      </trkpt>
      <trkpt lat="39.53822333" lon="2.57649667">
        <ele>18.0</ele>
        <time>2022-05-14T16:54:51.985Z</time>
      </trkpt>
      <trkpt lat="39.53824667" lon="2.57654833">
        <ele>18.0</ele>
        <time>2022-05-14T16:54:52.985Z</time>
      </trkpt>
      <trkpt lat="39.53826833" lon="2.576595">
        <ele>18.0</ele>
        <time>2022-05-14T16:54:53.985Z</time>
      </trkpt>
      <trkpt lat="39.53829" lon="2.57664167">
        <ele>18.0</ele>
        <time>2022-05-14T16:54:54.985Z</time>
      </trkpt>
      <trkpt lat="39.53831667" lon="2.57669167">
        <ele>18.0</ele>
        <time>2022-05-14T16:54:55.985Z</time>
      </trkpt>
      <trkpt lat="39.53833833" lon="2.57673333">
        <ele>19.0</ele>
        <time>2022-05-14T16:54:56.985Z</time>
      </trkpt>
      <trkpt lat="39.53835667" lon="2.57677667">
        <ele>19.0</ele>
        <time>2022-05-14T16:54:57.984Z</time>
      </trkpt>
      <trkpt lat="39.53838" lon="2.57681833">
        <ele>19.0</ele>
        <time>2022-05-14T16:54:58.985Z</time>
      </trkpt>
      <trkpt lat="39.53839833" lon="2.57685333">
        <ele>19.0</ele>
        <time>2022-05-14T16:54:59.984Z</time>
      </trkpt>
      <trkpt lat="39.53842333" lon="2.57688667">
        <ele>19.0</ele>
        <time>2022-05-14T16:55:00.984Z</time>
      </trkpt>
      <trkpt lat="39.53845" lon="2.57692">
        <ele>19.0</ele>
        <time>2022-05-14T16:55:01.984Z</time>
      </trkpt>
      <trkpt lat="39.53847167" lon="2.57695167">
        <ele>18.0</ele>
        <time>2022-05-14T16:55:02.985Z</time>
      </trkpt>
      <trkpt lat="39.53849333" lon="2.57698833">
        <ele>18.0</ele>
        <time>2022-05-14T16:55:03.985Z</time>
      </trkpt>
      <trkpt lat="39.53851" lon="2.57702833">
        <ele>18.0</ele>
        <time>2022-05-14T16:55:04.984Z</time>
      </trkpt>
      <trkpt lat="39.53853167" lon="2.57706333">
        <ele>18.0</ele>
        <time>2022-05-14T16:55:05.985Z</time>
      </trkpt>
      <trkpt lat="39.53855333" lon="2.57709833">
        <ele>18.0</ele>
        <time>2022-05-14T16:55:06.985Z</time>
      </trkpt>
      <trkpt lat="39.53857167" lon="2.57713167">
        <ele>18.0</ele>
        <time>2022-05-14T16:55:07.984Z</time>
      </trkpt>
      <trkpt lat="39.53859167" lon="2.57716667">
        <ele>18.0</ele>
        <time>2022-05-14T16:55:08.984Z</time>
      </trkpt>
      <trkpt lat="39.538615" lon="2.57720167">
        <ele>19.0</ele>
        <time>2022-05-14T16:55:09.985Z</time>
      </trkpt>
      <trkpt lat="39.53863833" lon="2.57723167">
        <ele>19.0</ele>
        <time>2022-05-14T16:55:10.985Z</time>
      </trkpt>
      <trkpt lat="39.53866167" lon="2.577265">
        <ele>19.0</ele>
        <time>2022-05-14T16:55:11.985Z</time>
      </trkpt>
      <trkpt lat="39.53868" lon="2.57729333">
        <ele>19.0</ele>
        <time>2022-05-14T16:55:12.985Z</time>
      </trkpt>
      <trkpt lat="39.53869167" lon="2.57732167">
        <ele>20.0</ele>
        <time>2022-05-14T16:55:13.984Z</time>
      </trkpt>
      <trkpt lat="39.53870667" lon="2.57735167">
        <ele>20.0</ele>
        <time>2022-05-14T16:55:14.984Z</time>
      </trkpt>
      <trkpt lat="39.53872833" lon="2.57738">
        <ele>20.0</ele>
        <time>2022-05-14T16:55:15.985Z</time>
      </trkpt>
      <trkpt lat="39.53874833" lon="2.57740333">
        <ele>21.0</ele>
        <time>2022-05-14T16:55:16.985Z</time>
      </trkpt>
      <trkpt lat="39.538765" lon="2.577425">
        <ele>21.0</ele>
        <time>2022-05-14T16:55:17.985Z</time>
      </trkpt>
      <trkpt lat="39.53878667" lon="2.57745">
        <ele>20.0</ele>
        <time>2022-05-14T16:55:18.985Z</time>
      </trkpt>
      <trkpt lat="39.538805" lon="2.57747167">
        <ele>20.0</ele>
        <time>2022-05-14T16:55:19.985Z</time>
      </trkpt>
      <trkpt lat="39.53882" lon="2.57749833">
        <ele>20.0</ele>
        <time>2022-05-14T16:55:20.985Z</time>
      </trkpt>
      <trkpt lat="39.53884" lon="2.57752167">
        <ele>21.0</ele>
        <time>2022-05-14T16:55:21.985Z</time>
      </trkpt>
      <trkpt lat="39.53885333" lon="2.57754333">
        <ele>21.0</ele>
        <time>2022-05-14T16:55:22.985Z</time>
      </trkpt>
      <trkpt lat="39.53887" lon="2.57757167">
        <ele>21.0</ele>
        <time>2022-05-14T16:55:23.985Z</time>
      </trkpt>
      <trkpt lat="39.53888667" lon="2.57759667">
        <ele>22.0</ele>
        <time>2022-05-14T16:55:24.985Z</time>
      </trkpt>
      <trkpt lat="39.53890333" lon="2.57762167">
        <ele>22.0</ele>
        <time>2022-05-14T16:55:25.985Z</time>
      </trkpt>
      <trkpt lat="39.53892" lon="2.57764333">
        <ele>22.0</ele>
        <time>2022-05-14T16:55:26.985Z</time>
      </trkpt>
      <trkpt lat="39.53893333" lon="2.57766167">
        <ele>22.0</ele>
        <time>2022-05-14T16:55:27.985Z</time>
      </trkpt>
      <trkpt lat="39.53895" lon="2.57768833">
        <ele>22.0</ele>
        <time>2022-05-14T16:55:28.984Z</time>
      </trkpt>
      <trkpt lat="39.53896333" lon="2.57771667">
        <ele>22.0</ele>
        <time>2022-05-14T16:55:29.984Z</time>
      </trkpt>
      <trkpt lat="39.53898667" lon="2.57774667">
        <ele>22.0</ele>
        <time>2022-05-14T16:55:30.985Z</time>
      </trkpt>
      <trkpt lat="39.53900833" lon="2.577775">
        <ele>22.0</ele>
        <time>2022-05-14T16:55:31.984Z</time>
      </trkpt>
      <trkpt lat="39.53902333" lon="2.5778">
        <ele>22.0</ele>
        <time>2022-05-14T16:55:32.985Z</time>
      </trkpt>
      <trkpt lat="39.53903833" lon="2.57782667">
        <ele>22.0</ele>
        <time>2022-05-14T16:55:33.985Z</time>
      </trkpt>
      <trkpt lat="39.53904667" lon="2.577855">
        <ele>22.0</ele>
        <time>2022-05-14T16:55:34.985Z</time>
      </trkpt>
      <trkpt lat="39.53906167" lon="2.577885">
        <ele>23.0</ele>
        <time>2022-05-14T16:55:35.985Z</time>
      </trkpt>
      <trkpt lat="39.53907667" lon="2.57791333">
        <ele>23.0</ele>
        <time>2022-05-14T16:55:36.984Z</time>
      </trkpt>
      <trkpt lat="39.53909167" lon="2.57795167">
        <ele>23.0</ele>
        <time>2022-05-14T16:55:37.985Z</time>
      </trkpt>
      <trkpt lat="39.53910833" lon="2.57798167">
        <ele>23.0</ele>
        <time>2022-05-14T16:55:38.985Z</time>
      </trkpt>
      <trkpt lat="39.539125" lon="2.57800833">
        <ele>23.0</ele>
        <time>2022-05-14T16:55:39.985Z</time>
      </trkpt>
      <trkpt lat="39.53913333" lon="2.57804167">
        <ele>24.0</ele>
        <time>2022-05-14T16:55:40.985Z</time>
      </trkpt>
      <trkpt lat="39.53914667" lon="2.57807">
        <ele>24.0</ele>
        <time>2022-05-14T16:55:41.984Z</time>
      </trkpt>
      <trkpt lat="39.53916333" lon="2.578105">
        <ele>24.0</ele>
        <time>2022-05-14T16:55:42.984Z</time>
      </trkpt>
      <trkpt lat="39.53916667" lon="2.57814">
        <ele>25.0</ele>
        <time>2022-05-14T16:55:43.984Z</time>
      </trkpt>
      <trkpt lat="39.53917" lon="2.57817833">
        <ele>25.0</ele>
        <time>2022-05-14T16:55:44.984Z</time>
      </trkpt>
      <trkpt lat="39.53916667" lon="2.57821">
        <ele>25.0</ele>
        <time>2022-05-14T16:55:45.985Z</time>
      </trkpt>
      <trkpt lat="39.53917667" lon="2.57824667">
        <ele>25.0</ele>
        <time>2022-05-14T16:55:46.984Z</time>
      </trkpt>
      <trkpt lat="39.539185" lon="2.57828333">
        <ele>25.0</ele>
        <time>2022-05-14T16:55:47.984Z</time>
      </trkpt>
      <trkpt lat="39.53919333" lon="2.57831833">
        <ele>25.0</ele>
        <time>2022-05-14T16:55:48.985Z</time>
      </trkpt>
      <trkpt lat="39.53920167" lon="2.57835333">
        <ele>25.0</ele>
        <time>2022-05-14T16:55:49.984Z</time>
      </trkpt>
      <trkpt lat="39.53921167" lon="2.57838667">
        <ele>26.0</ele>
        <time>2022-05-14T16:55:50.985Z</time>
      </trkpt>
      <trkpt lat="39.53922" lon="2.57841167">
        <ele>25.0</ele>
        <time>2022-05-14T16:55:51.985Z</time>
      </trkpt>
      <trkpt lat="39.53923167" lon="2.57844">
        <ele>25.0</ele>
        <time>2022-05-14T16:55:52.984Z</time>
      </trkpt>
      <trkpt lat="39.53924667" lon="2.57847">
        <ele>25.0</ele>
        <time>2022-05-14T16:55:53.985Z</time>
      </trkpt>
      <trkpt lat="39.53925667" lon="2.57850333">
        <ele>25.0</ele>
        <time>2022-05-14T16:55:54.985Z</time>
      </trkpt>
      <trkpt lat="39.53926667" lon="2.57853833">
        <ele>25.0</ele>
        <time>2022-05-14T16:55:55.985Z</time>
      </trkpt>
      <trkpt lat="39.53927167" lon="2.57857333">
        <ele>25.0</ele>
        <time>2022-05-14T16:55:56.985Z</time>
      </trkpt>
      <trkpt lat="39.53928167" lon="2.57860833">
        <ele>24.0</ele>
        <time>2022-05-14T16:55:57.985Z</time>
      </trkpt>
      <trkpt lat="39.53929" lon="2.578645">
        <ele>24.0</ele>
        <time>2022-05-14T16:55:58.985Z</time>
      </trkpt>
      <trkpt lat="39.53930333" lon="2.57868167">
        <ele>24.0</ele>
        <time>2022-05-14T16:55:59.984Z</time>
      </trkpt>
      <trkpt lat="39.53931" lon="2.57871167">
        <ele>23.0</ele>
        <time>2022-05-14T16:56:00.984Z</time>
      </trkpt>
      <trkpt lat="39.53931833" lon="2.57874">
        <ele>22.0</ele>
        <time>2022-05-14T16:56:01.985Z</time>
      </trkpt>
      <trkpt lat="39.53932833" lon="2.57877167">
        <ele>22.0</ele>
        <time>2022-05-14T16:56:02.984Z</time>
      </trkpt>
      <trkpt lat="39.53933667" lon="2.578805">
        <ele>22.0</ele>
        <time>2022-05-14T16:56:03.985Z</time>
      </trkpt>
      <trkpt lat="39.539345" lon="2.57883833">
        <ele>22.0</ele>
        <time>2022-05-14T16:56:04.984Z</time>
      </trkpt>
      <trkpt lat="39.53935" lon="2.57887333">
        <ele>22.0</ele>
        <time>2022-05-14T16:56:05.985Z</time>
      </trkpt>
      <trkpt lat="39.539355" lon="2.57890167">
        <ele>22.0</ele>
        <time>2022-05-14T16:56:06.985Z</time>
      </trkpt>
      <trkpt lat="39.53936" lon="2.57892833">
        <ele>22.0</ele>
        <time>2022-05-14T16:56:07.985Z</time>
      </trkpt>
      <trkpt lat="39.53936" lon="2.57895333">
        <ele>22.0</ele>
        <time>2022-05-14T16:56:08.985Z</time>
      </trkpt>
      <trkpt lat="39.53936667" lon="2.57898667">
        <ele>22.0</ele>
        <time>2022-05-14T16:56:09.985Z</time>
      </trkpt>
      <trkpt lat="39.53937167" lon="2.57902667">
        <ele>22.0</ele>
        <time>2022-05-14T16:56:10.985Z</time>
      </trkpt>
      <trkpt lat="39.539375" lon="2.57907">
        <ele>22.0</ele>
        <time>2022-05-14T16:56:11.985Z</time>
      </trkpt>
      <trkpt lat="39.53937667" lon="2.57911">
        <ele>23.0</ele>
        <time>2022-05-14T16:56:12.985Z</time>
      </trkpt>
      <trkpt lat="39.53938333" lon="2.579155">
        <ele>23.0</ele>
        <time>2022-05-14T16:56:13.985Z</time>
      </trkpt>
      <trkpt lat="39.53939" lon="2.57919167">
        <ele>23.0</ele>
        <time>2022-05-14T16:56:14.985Z</time>
      </trkpt>
      <trkpt lat="39.5394" lon="2.57920833">
        <ele>24.0</ele>
        <time>2022-05-14T16:56:15.985Z</time>
      </trkpt>
      <trkpt lat="39.53941667" lon="2.57921667">
        <ele>24.0</ele>
        <time>2022-05-14T16:56:16.985Z</time>
      </trkpt>
      <trkpt lat="39.53942833" lon="2.57921667">
        <ele>25.0</ele>
        <time>2022-05-14T16:56:17.984Z</time>
      </trkpt>
      <trkpt lat="39.53943833" lon="2.57920167">
        <ele>25.0</ele>
        <time>2022-05-14T16:56:18.985Z</time>
      </trkpt>
      <trkpt lat="39.53944167" lon="2.57918">
        <ele>25.0</ele>
        <time>2022-05-14T16:56:19.985Z</time>
      </trkpt>
      <trkpt lat="39.539445" lon="2.579155">
        <ele>25.0</ele>
        <time>2022-05-14T16:56:20.984Z</time>
      </trkpt>
      <trkpt lat="39.53945167" lon="2.57913167">
        <ele>25.0</ele>
        <time>2022-05-14T16:56:21.984Z</time>
      </trkpt>
      <trkpt lat="39.53945833" lon="2.579105">
        <ele>25.0</ele>
        <time>2022-05-14T16:56:22.985Z</time>
      </trkpt>
      <trkpt lat="39.539465" lon="2.57907333">
        <ele>25.0</ele>
        <time>2022-05-14T16:56:23.984Z</time>
      </trkpt>
      <trkpt lat="39.53947" lon="2.57904167">
        <ele>26.0</ele>
        <time>2022-05-14T16:56:24.984Z</time>
      </trkpt>
      <trkpt lat="39.53948333" lon="2.579015">
        <ele>26.0</ele>
        <time>2022-05-14T16:56:25.985Z</time>
      </trkpt>
      <trkpt lat="39.53949833" lon="2.579005">
        <ele>26.0</ele>
        <time>2022-05-14T16:56:26.985Z</time>
      </trkpt>
      <trkpt lat="39.53951833" lon="2.57901">
        <ele>27.0</ele>
        <time>2022-05-14T16:56:27.984Z</time>
      </trkpt>
      <trkpt lat="39.53953333" lon="2.57902167">
        <ele>28.0</ele>
        <time>2022-05-14T16:56:28.985Z</time>
      </trkpt>
      <trkpt lat="39.53954" lon="2.57905">
        <ele>28.0</ele>
        <time>2022-05-14T16:56:29.984Z</time>
      </trkpt>
      <trkpt lat="39.53955167" lon="2.57907333">
        <ele>29.0</ele>
        <time>2022-05-14T16:56:30.985Z</time>
      </trkpt>
      <trkpt lat="39.53955667" lon="2.57909833">
        <ele>29.0</ele>
        <time>2022-05-14T16:56:31.985Z</time>
      </trkpt>
      <trkpt lat="39.53956167" lon="2.57912167">
        <ele>29.0</ele>
        <time>2022-05-14T16:56:32.985Z</time>
      </trkpt>
      <trkpt lat="39.53956667" lon="2.57914833">
        <ele>29.0</ele>
        <time>2022-05-14T16:56:33.985Z</time>
      </trkpt>
      <trkpt lat="39.53956833" lon="2.57917167">
        <ele>29.0</ele>
        <time>2022-05-14T16:56:34.985Z</time>
      </trkpt>
      <trkpt lat="39.53957" lon="2.57919667">
        <ele>29.0</ele>
        <time>2022-05-14T16:56:35.984Z</time>
      </trkpt>
      <trkpt lat="39.53956833" lon="2.579225">
        <ele>29.0</ele>
        <time>2022-05-14T16:56:36.984Z</time>
      </trkpt>
      <trkpt lat="39.53957167" lon="2.57925667">
        <ele>29.0</ele>
        <time>2022-05-14T16:56:37.984Z</time>
      </trkpt>
      <trkpt lat="39.539575" lon="2.57928333">
        <ele>29.0</ele>
        <time>2022-05-14T16:56:38.985Z</time>
      </trkpt>
      <trkpt lat="39.53957333" lon="2.57930667">
        <ele>29.0</ele>
        <time>2022-05-14T16:56:39.985Z</time>
      </trkpt>
      <trkpt lat="39.53957667" lon="2.57933">
        <ele>29.0</ele>
        <time>2022-05-14T16:56:40.985Z</time>
      </trkpt>
      <trkpt lat="39.53957667" lon="2.57935">
        <ele>29.0</ele>
        <time>2022-05-14T16:56:41.985Z</time>
      </trkpt>
      <trkpt lat="39.53958167" lon="2.579375">
        <ele>30.0</ele>
        <time>2022-05-14T16:56:42.984Z</time>
      </trkpt>
      <trkpt lat="39.53957" lon="2.57939667">
        <ele>30.0</ele>
        <time>2022-05-14T16:56:43.984Z</time>
      </trkpt>
      <trkpt lat="39.53956667" lon="2.57941833">
        <ele>30.0</ele>
        <time>2022-05-14T16:56:44.985Z</time>
      </trkpt>
      <trkpt lat="39.53956167" lon="2.57945167">
        <ele>30.0</ele>
        <time>2022-05-14T16:56:45.984Z</time>
      </trkpt>
      <trkpt lat="39.539555" lon="2.57947833">
        <ele>31.0</ele>
        <time>2022-05-14T16:56:46.984Z</time>
      </trkpt>
      <trkpt lat="39.539545" lon="2.57951167">
        <ele>31.0</ele>
        <time>2022-05-14T16:56:47.984Z</time>
      </trkpt>
      <trkpt lat="39.53954667" lon="2.579545">
        <ele>32.0</ele>
        <time>2022-05-14T16:56:48.984Z</time>
      </trkpt>
      <trkpt lat="39.53954833" lon="2.57957167">
        <ele>33.0</ele>
        <time>2022-05-14T16:56:49.984Z</time>
      </trkpt>
      <trkpt lat="39.53954667" lon="2.57959667">
        <ele>34.0</ele>
        <time>2022-05-14T16:56:50.985Z</time>
      </trkpt>
      <trkpt lat="39.539545" lon="2.579625">
        <ele>34.0</ele>
        <time>2022-05-14T16:56:51.984Z</time>
      </trkpt>
      <trkpt lat="39.53954167" lon="2.57965333">
        <ele>34.0</ele>
        <time>2022-05-14T16:56:52.985Z</time>
      </trkpt>
      <trkpt lat="39.53953667" lon="2.57968">
        <ele>34.0</ele>
        <time>2022-05-14T16:56:53.984Z</time>
      </trkpt>
      <trkpt lat="39.53953667" lon="2.5797">
        <ele>34.0</ele>
        <time>2022-05-14T16:56:54.985Z</time>
      </trkpt>
      <trkpt lat="39.53953833" lon="2.57972167">
        <ele>33.0</ele>
        <time>2022-05-14T16:56:55.985Z</time>
      </trkpt>
      <trkpt lat="39.53953833" lon="2.57974667">
        <ele>32.0</ele>
        <time>2022-05-14T16:56:56.984Z</time>
      </trkpt>
      <trkpt lat="39.53953667" lon="2.579775">
        <ele>32.0</ele>
        <time>2022-05-14T16:56:57.984Z</time>
      </trkpt>
      <trkpt lat="39.53953667" lon="2.5798">
        <ele>32.0</ele>
        <time>2022-05-14T16:56:58.984Z</time>
      </trkpt>
      <trkpt lat="39.53953333" lon="2.57982833">
        <ele>32.0</ele>
        <time>2022-05-14T16:56:59.984Z</time>
      </trkpt>
      <trkpt lat="39.53953333" lon="2.579855">
        <ele>31.0</ele>
        <time>2022-05-14T16:57:00.985Z</time>
      </trkpt>
      <trkpt lat="39.539535" lon="2.57988333">
        <ele>31.0</ele>
        <time>2022-05-14T16:57:01.985Z</time>
      </trkpt>
      <trkpt lat="39.53953" lon="2.57991">
        <ele>31.0</ele>
        <time>2022-05-14T16:57:02.985Z</time>
      </trkpt>
      <trkpt lat="39.53953" lon="2.57993833">
        <ele>32.0</ele>
        <time>2022-05-14T16:57:03.985Z</time>
      </trkpt>
      <trkpt lat="39.53953" lon="2.57996833">
        <ele>32.0</ele>
        <time>2022-05-14T16:57:04.985Z</time>
      </trkpt>
      <trkpt lat="39.53953" lon="2.57999667">
        <ele>33.0</ele>
        <time>2022-05-14T16:57:05.984Z</time>
      </trkpt>
      <trkpt lat="39.53953167" lon="2.580025">
        <ele>33.0</ele>
        <time>2022-05-14T16:57:06.985Z</time>
      </trkpt>
      <trkpt lat="39.53953" lon="2.58005333">
        <ele>33.0</ele>
        <time>2022-05-14T16:57:07.985Z</time>
      </trkpt>
      <trkpt lat="39.53952833" lon="2.58008333">
        <ele>33.0</ele>
        <time>2022-05-14T16:57:08.985Z</time>
      </trkpt>
      <trkpt lat="39.53952833" lon="2.58011333">
        <ele>33.0</ele>
        <time>2022-05-14T16:57:09.984Z</time>
      </trkpt>
      <trkpt lat="39.53953167" lon="2.58014333">
        <ele>33.0</ele>
        <time>2022-05-14T16:57:10.985Z</time>
      </trkpt>
      <trkpt lat="39.53953333" lon="2.580175">
        <ele>33.0</ele>
        <time>2022-05-14T16:57:11.985Z</time>
      </trkpt>
      <trkpt lat="39.53953667" lon="2.580205">
        <ele>33.0</ele>
        <time>2022-05-14T16:57:12.984Z</time>
      </trkpt>
      <trkpt lat="39.53953833" lon="2.58023667">
        <ele>32.0</ele>
        <time>2022-05-14T16:57:13.984Z</time>
      </trkpt>
      <trkpt lat="39.53954" lon="2.58027">
        <ele>32.0</ele>
        <time>2022-05-14T16:57:14.985Z</time>
      </trkpt>
      <trkpt lat="39.53954333" lon="2.580305">
        <ele>32.0</ele>
        <time>2022-05-14T16:57:15.985Z</time>
      </trkpt>
      <trkpt lat="39.539545" lon="2.58033667">
        <ele>32.0</ele>
        <time>2022-05-14T16:57:16.984Z</time>
      </trkpt>
      <trkpt lat="39.53954667" lon="2.58037">
        <ele>32.0</ele>
        <time>2022-05-14T16:57:17.985Z</time>
      </trkpt>
      <trkpt lat="39.53954667" lon="2.580405">
        <ele>32.0</ele>
        <time>2022-05-14T16:57:18.984Z</time>
      </trkpt>
      <trkpt lat="39.539545" lon="2.58043833">
        <ele>32.0</ele>
        <time>2022-05-14T16:57:19.984Z</time>
      </trkpt>
      <trkpt lat="39.53954333" lon="2.58047333">
        <ele>32.0</ele>
        <time>2022-05-14T16:57:20.984Z</time>
      </trkpt>
      <trkpt lat="39.539545" lon="2.58050833">
        <ele>32.0</ele>
        <time>2022-05-14T16:57:21.984Z</time>
      </trkpt>
      <trkpt lat="39.53954667" lon="2.580545">
        <ele>33.0</ele>
        <time>2022-05-14T16:57:22.984Z</time>
      </trkpt>
      <trkpt lat="39.53954833" lon="2.58058833">
        <ele>33.0</ele>
        <time>2022-05-14T16:57:23.985Z</time>
      </trkpt>
      <trkpt lat="39.53955" lon="2.58061667">
        <ele>33.0</ele>
        <time>2022-05-14T16:57:24.984Z</time>
      </trkpt>
      <trkpt lat="39.53955333" lon="2.58065333">
        <ele>33.0</ele>
        <time>2022-05-14T16:57:25.985Z</time>
      </trkpt>
      <trkpt lat="39.53956" lon="2.58069">
        <ele>33.0</ele>
        <time>2022-05-14T16:57:26.985Z</time>
      </trkpt>
      <trkpt lat="39.53956667" lon="2.58072667">
        <ele>33.0</ele>
        <time>2022-05-14T16:57:27.984Z</time>
      </trkpt>
      <trkpt lat="39.53957833" lon="2.580765">
        <ele>33.0</ele>
        <time>2022-05-14T16:57:28.985Z</time>
      </trkpt>
      <trkpt lat="39.53959167" lon="2.580805">
        <ele>33.0</ele>
        <time>2022-05-14T16:57:29.985Z</time>
      </trkpt>
      <trkpt lat="39.53960167" lon="2.58084333">
        <ele>33.0</ele>
        <time>2022-05-14T16:57:30.985Z</time>
      </trkpt>
      <trkpt lat="39.53961333" lon="2.580885">
        <ele>33.0</ele>
        <time>2022-05-14T16:57:31.985Z</time>
      </trkpt>
      <trkpt lat="39.53962667" lon="2.58093">
        <ele>33.0</ele>
        <time>2022-05-14T16:57:32.985Z</time>
      </trkpt>
      <trkpt lat="39.53964167" lon="2.58097833">
        <ele>33.0</ele>
        <time>2022-05-14T16:57:33.985Z</time>
      </trkpt>
      <trkpt lat="39.53965167" lon="2.58102833">
        <ele>32.0</ele>
        <time>2022-05-14T16:57:34.985Z</time>
      </trkpt>
      <trkpt lat="39.53966333" lon="2.58106833">
        <ele>32.0</ele>
        <time>2022-05-14T16:57:35.984Z</time>
      </trkpt>
      <trkpt lat="39.53968167" lon="2.58111833">
        <ele>31.0</ele>
        <time>2022-05-14T16:57:36.985Z</time>
      </trkpt>
      <trkpt lat="39.53970167" lon="2.581155">
        <ele>31.0</ele>
        <time>2022-05-14T16:57:37.985Z</time>
      </trkpt>
      <trkpt lat="39.53971333" lon="2.58119667">
        <ele>30.0</ele>
        <time>2022-05-14T16:57:38.984Z</time>
      </trkpt>
      <trkpt lat="39.53972833" lon="2.58124">
        <ele>31.0</ele>
        <time>2022-05-14T16:57:39.984Z</time>
      </trkpt>
      <trkpt lat="39.53974667" lon="2.58129">
        <ele>31.0</ele>
        <time>2022-05-14T16:57:40.984Z</time>
      </trkpt>
      <trkpt lat="39.539765" lon="2.58133167">
        <ele>32.0</ele>
        <time>2022-05-14T16:57:41.985Z</time>
      </trkpt>
      <trkpt lat="39.53978667" lon="2.58137333">
        <ele>32.0</ele>
        <time>2022-05-14T16:57:42.984Z</time>
      </trkpt>
      <trkpt lat="39.53980667" lon="2.58141833">
        <ele>32.0</ele>
        <time>2022-05-14T16:57:43.985Z</time>
      </trkpt>
      <trkpt lat="39.53982667" lon="2.58146">
        <ele>33.0</ele>
        <time>2022-05-14T16:57:44.985Z</time>
      </trkpt>
      <trkpt lat="39.53984667" lon="2.5815">
        <ele>33.0</ele>
        <time>2022-05-14T16:57:45.985Z</time>
      </trkpt>
      <trkpt lat="39.53987167" lon="2.58155167">
        <ele>33.0</ele>
        <time>2022-05-14T16:57:46.984Z</time>
      </trkpt>
      <trkpt lat="39.53989333" lon="2.581595">
        <ele>34.0</ele>
        <time>2022-05-14T16:57:47.985Z</time>
      </trkpt>
      <trkpt lat="39.539915" lon="2.58164">
        <ele>34.0</ele>
        <time>2022-05-14T16:57:48.984Z</time>
      </trkpt>
      <trkpt lat="39.53993167" lon="2.58167667">
        <ele>34.0</ele>
        <time>2022-05-14T16:57:49.985Z</time>
      </trkpt>
      <trkpt lat="39.53995333" lon="2.58172167">
        <ele>35.0</ele>
        <time>2022-05-14T16:57:50.985Z</time>
      </trkpt>
      <trkpt lat="39.53997833" lon="2.581765">
        <ele>35.0</ele>
        <time>2022-05-14T16:57:51.985Z</time>
      </trkpt>
      <trkpt lat="39.54" lon="2.58180833">
        <ele>34.0</ele>
        <time>2022-05-14T16:57:52.984Z</time>
      </trkpt>
      <trkpt lat="39.54002" lon="2.58185333">
        <ele>34.0</ele>
        <time>2022-05-14T16:57:53.984Z</time>
      </trkpt>
      <trkpt lat="39.54004" lon="2.58189833">
        <ele>33.0</ele>
        <time>2022-05-14T16:57:54.985Z</time>
      </trkpt>
      <trkpt lat="39.54005833" lon="2.58194333">
        <ele>32.0</ele>
        <time>2022-05-14T16:57:55.984Z</time>
      </trkpt>
      <trkpt lat="39.54007833" lon="2.58199167">
        <ele>32.0</ele>
        <time>2022-05-14T16:57:56.984Z</time>
      </trkpt>
      <trkpt lat="39.5401" lon="2.58203667">
        <ele>32.0</ele>
        <time>2022-05-14T16:57:57.984Z</time>
      </trkpt>
      <trkpt lat="39.540115" lon="2.58205833">
        <ele>32.0</ele>
        <time>2022-05-14T16:57:58.985Z</time>
      </trkpt>
      <trkpt lat="39.540135" lon="2.58208167">
        <ele>32.0</ele>
        <time>2022-05-14T16:57:59.985Z</time>
      </trkpt>
      <trkpt lat="39.540155" lon="2.58211167">
        <ele>32.0</ele>
        <time>2022-05-14T16:58:00.984Z</time>
      </trkpt>
      <trkpt lat="39.54017" lon="2.58215167">
        <ele>32.0</ele>
        <time>2022-05-14T16:58:01.985Z</time>
      </trkpt>
      <trkpt lat="39.540185" lon="2.58220167">
        <ele>32.0</ele>
        <time>2022-05-14T16:58:02.984Z</time>
      </trkpt>
      <trkpt lat="39.5402" lon="2.58225667">
        <ele>32.0</ele>
        <time>2022-05-14T16:58:03.984Z</time>
      </trkpt>
      <trkpt lat="39.54021833" lon="2.58231">
        <ele>33.0</ele>
        <time>2022-05-14T16:58:04.984Z</time>
      </trkpt>
      <trkpt lat="39.54023667" lon="2.58236333">
        <ele>33.0</ele>
        <time>2022-05-14T16:58:05.984Z</time>
      </trkpt>
      <trkpt lat="39.54025" lon="2.58241333">
        <ele>33.0</ele>
        <time>2022-05-14T16:58:06.985Z</time>
      </trkpt>
      <trkpt lat="39.540265" lon="2.58246167">
        <ele>34.0</ele>
        <time>2022-05-14T16:58:07.985Z</time>
      </trkpt>
      <trkpt lat="39.54028167" lon="2.582505">
        <ele>34.0</ele>
        <time>2022-05-14T16:58:08.984Z</time>
      </trkpt>
      <trkpt lat="39.5403" lon="2.58254667">
        <ele>34.0</ele>
        <time>2022-05-14T16:58:09.985Z</time>
      </trkpt>
      <trkpt lat="39.54032167" lon="2.58259">
        <ele>34.0</ele>
        <time>2022-05-14T16:58:10.985Z</time>
      </trkpt>
      <trkpt lat="39.54034" lon="2.58263167">
        <ele>34.0</ele>
        <time>2022-05-14T16:58:11.984Z</time>
      </trkpt>
      <trkpt lat="39.54036167" lon="2.58267">
        <ele>34.0</ele>
        <time>2022-05-14T16:58:12.985Z</time>
      </trkpt>
      <trkpt lat="39.54038333" lon="2.58270667">
        <ele>34.0</ele>
        <time>2022-05-14T16:58:13.984Z</time>
      </trkpt>
      <trkpt lat="39.54040667" lon="2.582745">
        <ele>33.0</ele>
        <time>2022-05-14T16:58:14.985Z</time>
      </trkpt>
      <trkpt lat="39.54043" lon="2.58278333">
        <ele>33.0</ele>
        <time>2022-05-14T16:58:15.985Z</time>
      </trkpt>
      <trkpt lat="39.54045" lon="2.58282">
        <ele>33.0</ele>
        <time>2022-05-14T16:58:16.985Z</time>
      </trkpt>
      <trkpt lat="39.54047333" lon="2.58285333">
        <ele>33.0</ele>
        <time>2022-05-14T16:58:17.985Z</time>
      </trkpt>
      <trkpt lat="39.540495" lon="2.582885">
        <ele>33.0</ele>
        <time>2022-05-14T16:58:18.984Z</time>
      </trkpt>
      <trkpt lat="39.54052" lon="2.58291667">
        <ele>33.0</ele>
        <time>2022-05-14T16:58:19.985Z</time>
      </trkpt>
      <trkpt lat="39.54054333" lon="2.58295">
        <ele>33.0</ele>
        <time>2022-05-14T16:58:20.984Z</time>
      </trkpt>
      <trkpt lat="39.540565" lon="2.58298333">
        <ele>33.0</ele>
        <time>2022-05-14T16:58:21.985Z</time>
      </trkpt>
      <trkpt lat="39.54058167" lon="2.58302">
        <ele>33.0</ele>
        <time>2022-05-14T16:58:22.985Z</time>
      </trkpt>
      <trkpt lat="39.54059333" lon="2.58306167">
        <ele>33.0</ele>
        <time>2022-05-14T16:58:23.985Z</time>
      </trkpt>
      <trkpt lat="39.54059833" lon="2.5831">
        <ele>33.0</ele>
        <time>2022-05-14T16:58:24.985Z</time>
      </trkpt>
      <trkpt lat="39.54059333" lon="2.58313333">
        <ele>33.0</ele>
        <time>2022-05-14T16:58:25.985Z</time>
      </trkpt>
      <trkpt lat="39.540585" lon="2.58316167">
        <ele>33.0</ele>
        <time>2022-05-14T16:58:26.985Z</time>
      </trkpt>
      <trkpt lat="39.54056833" lon="2.583185">
        <ele>34.0</ele>
        <time>2022-05-14T16:58:27.985Z</time>
      </trkpt>
      <trkpt lat="39.54055167" lon="2.58321">
        <ele>34.0</ele>
        <time>2022-05-14T16:58:28.985Z</time>
      </trkpt>
      <trkpt lat="39.54053333" lon="2.58323667">
        <ele>34.0</ele>
        <time>2022-05-14T16:58:29.984Z</time>
      </trkpt>
      <trkpt lat="39.54051167" lon="2.583265">
        <ele>34.0</ele>
        <time>2022-05-14T16:58:30.984Z</time>
      </trkpt>
      <trkpt lat="39.54049167" lon="2.583295">
        <ele>34.0</ele>
        <time>2022-05-14T16:58:31.985Z</time>
      </trkpt>
      <trkpt lat="39.540475" lon="2.583325">
        <ele>35.0</ele>
        <time>2022-05-14T16:58:32.984Z</time>
      </trkpt>
      <trkpt lat="39.54046167" lon="2.58335667">
        <ele>35.0</ele>
        <time>2022-05-14T16:58:33.984Z</time>
      </trkpt>
      <trkpt lat="39.540455" lon="2.58339333">
        <ele>35.0</ele>
        <time>2022-05-14T16:58:34.984Z</time>
      </trkpt>
      <trkpt lat="39.540455" lon="2.583435">
        <ele>35.0</ele>
        <time>2022-05-14T16:58:35.984Z</time>
      </trkpt>
      <trkpt lat="39.54045833" lon="2.583485">
        <ele>35.0</ele>
        <time>2022-05-14T16:58:36.985Z</time>
      </trkpt>
      <trkpt lat="39.54046167" lon="2.58351667">
        <ele>36.0</ele>
        <time>2022-05-14T16:58:37.985Z</time>
      </trkpt>
      <trkpt lat="39.540465" lon="2.58356333">
        <ele>36.0</ele>
        <time>2022-05-14T16:58:38.985Z</time>
      </trkpt>
      <trkpt lat="39.540465" lon="2.58359333">
        <ele>36.0</ele>
        <time>2022-05-14T16:58:39.985Z</time>
      </trkpt>
      <trkpt lat="39.54047" lon="2.58362833">
        <ele>36.0</ele>
        <time>2022-05-14T16:58:40.984Z</time>
      </trkpt>
      <trkpt lat="39.54047833" lon="2.58366">
        <ele>36.0</ele>
        <time>2022-05-14T16:58:41.985Z</time>
      </trkpt>
      <trkpt lat="39.54049167" lon="2.58369667">
        <ele>36.0</ele>
        <time>2022-05-14T16:58:42.984Z</time>
      </trkpt>
      <trkpt lat="39.54051" lon="2.58372833">
        <ele>36.0</ele>
        <time>2022-05-14T16:58:43.985Z</time>
      </trkpt>
      <trkpt lat="39.54053" lon="2.583755">
        <ele>36.0</ele>
        <time>2022-05-14T16:58:44.985Z</time>
      </trkpt>
      <trkpt lat="39.540555" lon="2.583785">
        <ele>36.0</ele>
        <time>2022-05-14T16:58:45.984Z</time>
      </trkpt>
      <trkpt lat="39.54058" lon="2.58381667">
        <ele>36.0</ele>
        <time>2022-05-14T16:58:46.985Z</time>
      </trkpt>
      <trkpt lat="39.54061333" lon="2.58384833">
        <ele>36.0</ele>
        <time>2022-05-14T16:58:47.984Z</time>
      </trkpt>
      <trkpt lat="39.54064167" lon="2.583865">
        <ele>35.0</ele>
        <time>2022-05-14T16:58:48.985Z</time>
      </trkpt>
      <trkpt lat="39.540675" lon="2.58387667">
        <ele>35.0</ele>
        <time>2022-05-14T16:58:49.985Z</time>
      </trkpt>
      <trkpt lat="39.54070667" lon="2.58388">
        <ele>35.0</ele>
        <time>2022-05-14T16:58:50.984Z</time>
      </trkpt>
      <trkpt lat="39.54074167" lon="2.583885">
        <ele>35.0</ele>
        <time>2022-05-14T16:58:51.984Z</time>
      </trkpt>
      <trkpt lat="39.54077667" lon="2.58388167">
        <ele>35.0</ele>
        <time>2022-05-14T16:58:52.984Z</time>
      </trkpt>
      <trkpt lat="39.54081167" lon="2.58387833">
        <ele>35.0</ele>
        <time>2022-05-14T16:58:53.985Z</time>
      </trkpt>
      <trkpt lat="39.540845" lon="2.58387">
        <ele>35.0</ele>
        <time>2022-05-14T16:58:54.985Z</time>
      </trkpt>
      <trkpt lat="39.54087667" lon="2.58385667">
        <ele>36.0</ele>
        <time>2022-05-14T16:58:55.984Z</time>
      </trkpt>
      <trkpt lat="39.54091" lon="2.583845">
        <ele>36.0</ele>
        <time>2022-05-14T16:58:56.985Z</time>
      </trkpt>
      <trkpt lat="39.54094167" lon="2.58384333">
        <ele>37.0</ele>
        <time>2022-05-14T16:58:57.984Z</time>
      </trkpt>
      <trkpt lat="39.540975" lon="2.58385167">
        <ele>37.0</ele>
        <time>2022-05-14T16:58:58.984Z</time>
      </trkpt>
      <trkpt lat="39.54100333" lon="2.58386667">
        <ele>37.0</ele>
        <time>2022-05-14T16:58:59.984Z</time>
      </trkpt>
      <trkpt lat="39.54103" lon="2.58388167">
        <ele>37.0</ele>
        <time>2022-05-14T16:59:00.985Z</time>
      </trkpt>
      <trkpt lat="39.54105667" lon="2.58389833">
        <ele>37.0</ele>
        <time>2022-05-14T16:59:01.985Z</time>
      </trkpt>
      <trkpt lat="39.54108333" lon="2.583915">
        <ele>37.0</ele>
        <time>2022-05-14T16:59:02.984Z</time>
      </trkpt>
      <trkpt lat="39.54111" lon="2.58393333">
        <ele>37.0</ele>
        <time>2022-05-14T16:59:03.984Z</time>
      </trkpt>
      <trkpt lat="39.54113667" lon="2.58394833">
        <ele>36.0</ele>
        <time>2022-05-14T16:59:04.985Z</time>
      </trkpt>
      <trkpt lat="39.54116" lon="2.583955">
        <ele>36.0</ele>
        <time>2022-05-14T16:59:05.985Z</time>
      </trkpt>
      <trkpt lat="39.54118833" lon="2.58395667">
        <ele>36.0</ele>
        <time>2022-05-14T16:59:06.984Z</time>
      </trkpt>
      <trkpt lat="39.54122" lon="2.58395167">
        <ele>36.0</ele>
        <time>2022-05-14T16:59:07.984Z</time>
      </trkpt>
      <trkpt lat="39.54125333" lon="2.58395">
        <ele>36.0</ele>
        <time>2022-05-14T16:59:08.985Z</time>
      </trkpt>
      <trkpt lat="39.54128333" lon="2.58395833">
        <ele>36.0</ele>
        <time>2022-05-14T16:59:09.984Z</time>
      </trkpt>
      <trkpt lat="39.54131167" lon="2.58397333">
        <ele>37.0</ele>
        <time>2022-05-14T16:59:10.984Z</time>
      </trkpt>
      <trkpt lat="39.54133667" lon="2.58399333">
        <ele>37.0</ele>
        <time>2022-05-14T16:59:11.985Z</time>
      </trkpt>
      <trkpt lat="39.54136" lon="2.58401167">
        <ele>38.0</ele>
        <time>2022-05-14T16:59:12.984Z</time>
      </trkpt>
      <trkpt lat="39.541385" lon="2.58402833">
        <ele>38.0</ele>
        <time>2022-05-14T16:59:13.984Z</time>
      </trkpt>
      <trkpt lat="39.54140833" lon="2.584045">
        <ele>38.0</ele>
        <time>2022-05-14T16:59:14.985Z</time>
      </trkpt>
      <trkpt lat="39.54143" lon="2.58406167">
        <ele>38.0</ele>
        <time>2022-05-14T16:59:15.984Z</time>
      </trkpt>
      <trkpt lat="39.54145167" lon="2.58407833">
        <ele>38.0</ele>
        <time>2022-05-14T16:59:16.985Z</time>
      </trkpt>
      <trkpt lat="39.541475" lon="2.58409167">
        <ele>38.0</ele>
        <time>2022-05-14T16:59:17.985Z</time>
      </trkpt>
      <trkpt lat="39.541495" lon="2.584105">
        <ele>38.0</ele>
        <time>2022-05-14T16:59:18.985Z</time>
      </trkpt>
      <trkpt lat="39.54151667" lon="2.58412333">
        <ele>38.0</ele>
        <time>2022-05-14T16:59:19.985Z</time>
      </trkpt>
      <trkpt lat="39.54153667" lon="2.58414333">
        <ele>39.0</ele>
        <time>2022-05-14T16:59:20.984Z</time>
      </trkpt>
      <trkpt lat="39.54156" lon="2.58416">
        <ele>39.0</ele>
        <time>2022-05-14T16:59:21.984Z</time>
      </trkpt>
      <trkpt lat="39.54158" lon="2.584175">
        <ele>39.0</ele>
        <time>2022-05-14T16:59:22.985Z</time>
      </trkpt>
      <trkpt lat="39.5416" lon="2.58419167">
        <ele>39.0</ele>
        <time>2022-05-14T16:59:23.984Z</time>
      </trkpt>
      <trkpt lat="39.54162333" lon="2.58420667">
        <ele>40.0</ele>
        <time>2022-05-14T16:59:24.985Z</time>
      </trkpt>
      <trkpt lat="39.541645" lon="2.58422167">
        <ele>40.0</ele>
        <time>2022-05-14T16:59:25.984Z</time>
      </trkpt>
      <trkpt lat="39.54166667" lon="2.584235">
        <ele>40.0</ele>
        <time>2022-05-14T16:59:26.985Z</time>
      </trkpt>
      <trkpt lat="39.54169" lon="2.58425">
        <ele>40.0</ele>
        <time>2022-05-14T16:59:27.984Z</time>
      </trkpt>
      <trkpt lat="39.54171167" lon="2.58426333">
        <ele>40.0</ele>
        <time>2022-05-14T16:59:28.985Z</time>
      </trkpt>
      <trkpt lat="39.54173333" lon="2.58428">
        <ele>40.0</ele>
        <time>2022-05-14T16:59:29.985Z</time>
      </trkpt>
      <trkpt lat="39.541755" lon="2.584295">
        <ele>40.0</ele>
        <time>2022-05-14T16:59:30.984Z</time>
      </trkpt>
      <trkpt lat="39.54177833" lon="2.58430667">
        <ele>40.0</ele>
        <time>2022-05-14T16:59:31.985Z</time>
      </trkpt>
      <trkpt lat="39.54179833" lon="2.58432167">
        <ele>41.0</ele>
        <time>2022-05-14T16:59:32.985Z</time>
      </trkpt>
      <trkpt lat="39.54181667" lon="2.58433667">
        <ele>41.0</ele>
        <time>2022-05-14T16:59:33.984Z</time>
      </trkpt>
      <trkpt lat="39.54183333" lon="2.58435167">
        <ele>42.0</ele>
        <time>2022-05-14T16:59:34.984Z</time>
      </trkpt>
      <trkpt lat="39.54185333" lon="2.584365">
        <ele>43.0</ele>
        <time>2022-05-14T16:59:35.985Z</time>
      </trkpt>
      <trkpt lat="39.54187667" lon="2.58438">
        <ele>43.0</ele>
        <time>2022-05-14T16:59:36.984Z</time>
      </trkpt>
      <trkpt lat="39.54190667" lon="2.58439667">
        <ele>44.0</ele>
        <time>2022-05-14T16:59:37.984Z</time>
      </trkpt>
      <trkpt lat="39.541935" lon="2.584415">
        <ele>44.0</ele>
        <time>2022-05-14T16:59:38.985Z</time>
      </trkpt>
      <trkpt lat="39.54196167" lon="2.584435">
        <ele>44.0</ele>
        <time>2022-05-14T16:59:39.984Z</time>
      </trkpt>
      <trkpt lat="39.54199167" lon="2.58445667">
        <ele>44.0</ele>
        <time>2022-05-14T16:59:40.985Z</time>
      </trkpt>
      <trkpt lat="39.542025" lon="2.58448">
        <ele>44.0</ele>
        <time>2022-05-14T16:59:41.985Z</time>
      </trkpt>
      <trkpt lat="39.54205833" lon="2.58450333">
        <ele>44.0</ele>
        <time>2022-05-14T16:59:42.985Z</time>
      </trkpt>
      <trkpt lat="39.54209333" lon="2.58453">
        <ele>43.0</ele>
        <time>2022-05-14T16:59:43.985Z</time>
      </trkpt>
      <trkpt lat="39.54213167" lon="2.58455333">
        <ele>43.0</ele>
        <time>2022-05-14T16:59:44.984Z</time>
      </trkpt>
      <trkpt lat="39.54217167" lon="2.58457667">
        <ele>43.0</ele>
        <time>2022-05-14T16:59:45.985Z</time>
      </trkpt>
      <trkpt lat="39.54221167" lon="2.5846">
        <ele>42.0</ele>
        <time>2022-05-14T16:59:46.984Z</time>
      </trkpt>
      <trkpt lat="39.542255" lon="2.584625">
        <ele>42.0</ele>
        <time>2022-05-14T16:59:47.985Z</time>
      </trkpt>
      <trkpt lat="39.54230167" lon="2.58465">
        <ele>42.0</ele>
        <time>2022-05-14T16:59:48.984Z</time>
      </trkpt>
      <trkpt lat="39.54234833" lon="2.58468">
        <ele>42.0</ele>
        <time>2022-05-14T16:59:49.985Z</time>
      </trkpt>
      <trkpt lat="39.54239833" lon="2.584715">
        <ele>42.0</ele>
        <time>2022-05-14T16:59:50.984Z</time>
      </trkpt>
      <trkpt lat="39.54245167" lon="2.584755">
        <ele>42.0</ele>
        <time>2022-05-14T16:59:51.984Z</time>
      </trkpt>
      <trkpt lat="39.54250333" lon="2.58479833">
        <ele>42.0</ele>
        <time>2022-05-14T16:59:52.984Z</time>
      </trkpt>
      <trkpt lat="39.54255833" lon="2.58484833">
        <ele>41.0</ele>
        <time>2022-05-14T16:59:53.984Z</time>
      </trkpt>
      <trkpt lat="39.542615" lon="2.5849">
        <ele>41.0</ele>
        <time>2022-05-14T16:59:54.984Z</time>
      </trkpt>
      <trkpt lat="39.54267333" lon="2.58495833">
        <ele>41.0</ele>
        <time>2022-05-14T16:59:55.985Z</time>
      </trkpt>
      <trkpt lat="39.542735" lon="2.58502333">
        <ele>42.0</ele>
        <time>2022-05-14T16:59:56.984Z</time>
      </trkpt>
      <trkpt lat="39.5428" lon="2.585095">
        <ele>42.0</ele>
        <time>2022-05-14T16:59:57.984Z</time>
      </trkpt>
      <trkpt lat="39.54285833" lon="2.58517667">
        <ele>42.0</ele>
        <time>2022-05-14T16:59:58.985Z</time>
      </trkpt>
      <trkpt lat="39.54291" lon="2.58527333">
        <ele>42.0</ele>
        <time>2022-05-14T16:59:59.985Z</time>
      </trkpt>
      <trkpt lat="39.54295667" lon="2.58537333">
        <ele>41.0</ele>
        <time>2022-05-14T17:00:00.984Z</time>
      </trkpt>
      <trkpt lat="39.54299833" lon="2.58548333">
        <ele>40.0</ele>
        <time>2022-05-14T17:00:01.985Z</time>
      </trkpt>
      <trkpt lat="39.54303333" lon="2.585605">
        <ele>39.0</ele>
        <time>2022-05-14T17:00:02.985Z</time>
      </trkpt>
      <trkpt lat="39.54305833" lon="2.58573167">
        <ele>38.0</ele>
        <time>2022-05-14T17:00:03.984Z</time>
      </trkpt>
      <trkpt lat="39.54307333" lon="2.58586167">
        <ele>37.0</ele>
        <time>2022-05-14T17:00:04.984Z</time>
      </trkpt>
      <trkpt lat="39.54307833" lon="2.58599167">
        <ele>36.0</ele>
        <time>2022-05-14T17:00:05.984Z</time>
      </trkpt>
      <trkpt lat="39.54307167" lon="2.58612333">
        <ele>35.0</ele>
        <time>2022-05-14T17:00:06.985Z</time>
      </trkpt>
      <trkpt lat="39.54305833" lon="2.586255">
        <ele>34.0</ele>
        <time>2022-05-14T17:00:07.985Z</time>
      </trkpt>
      <trkpt lat="39.54303667" lon="2.58637667">
        <ele>33.0</ele>
        <time>2022-05-14T17:00:08.984Z</time>
      </trkpt>
      <trkpt lat="39.543025" lon="2.58649333">
        <ele>32.0</ele>
        <time>2022-05-14T17:00:09.985Z</time>
      </trkpt>
      <trkpt lat="39.54302" lon="2.586615">
        <ele>31.0</ele>
        <time>2022-05-14T17:00:10.985Z</time>
      </trkpt>
      <trkpt lat="39.543025" lon="2.58672667">
        <ele>31.0</ele>
        <time>2022-05-14T17:00:11.985Z</time>
      </trkpt>
      <trkpt lat="39.54303" lon="2.58684">
        <ele>30.0</ele>
        <time>2022-05-14T17:00:12.985Z</time>
      </trkpt>
      <trkpt lat="39.543025" lon="2.58695">
        <ele>29.0</ele>
        <time>2022-05-14T17:00:13.985Z</time>
      </trkpt>
      <trkpt lat="39.54302167" lon="2.587065">
        <ele>28.0</ele>
        <time>2022-05-14T17:00:14.985Z</time>
      </trkpt>
      <trkpt lat="39.54302" lon="2.58717833">
        <ele>28.0</ele>
        <time>2022-05-14T17:00:15.985Z</time>
      </trkpt>
      <trkpt lat="39.54302" lon="2.58728167">
        <ele>28.0</ele>
        <time>2022-05-14T17:00:16.985Z</time>
      </trkpt>
      <trkpt lat="39.54301333" lon="2.58737833">
        <ele>28.0</ele>
        <time>2022-05-14T17:00:17.985Z</time>
      </trkpt>
      <trkpt lat="39.54301167" lon="2.58746667">
        <ele>27.0</ele>
        <time>2022-05-14T17:00:18.985Z</time>
      </trkpt>
      <trkpt lat="39.54301" lon="2.58755833">
        <ele>26.0</ele>
        <time>2022-05-14T17:00:19.985Z</time>
      </trkpt>
      <trkpt lat="39.543005" lon="2.58764667">
        <ele>26.0</ele>
        <time>2022-05-14T17:00:20.985Z</time>
      </trkpt>
      <trkpt lat="39.54300167" lon="2.58773167">
        <ele>25.0</ele>
        <time>2022-05-14T17:00:21.985Z</time>
      </trkpt>
      <trkpt lat="39.542995" lon="2.58782333">
        <ele>25.0</ele>
        <time>2022-05-14T17:00:22.985Z</time>
      </trkpt>
      <trkpt lat="39.54299167" lon="2.587915">
        <ele>24.0</ele>
        <time>2022-05-14T17:00:23.984Z</time>
      </trkpt>
      <trkpt lat="39.54299" lon="2.58800167">
        <ele>23.0</ele>
        <time>2022-05-14T17:00:24.984Z</time>
      </trkpt>
      <trkpt lat="39.54299" lon="2.58809">
        <ele>22.0</ele>
        <time>2022-05-14T17:00:25.985Z</time>
      </trkpt>
      <trkpt lat="39.54299" lon="2.58818333">
        <ele>22.0</ele>
        <time>2022-05-14T17:00:26.985Z</time>
      </trkpt>
      <trkpt lat="39.54299333" lon="2.588275">
        <ele>21.0</ele>
        <time>2022-05-14T17:00:27.985Z</time>
      </trkpt>
      <trkpt lat="39.54299167" lon="2.58837167">
        <ele>21.0</ele>
        <time>2022-05-14T17:00:28.984Z</time>
      </trkpt>
      <trkpt lat="39.54298833" lon="2.58846833">
        <ele>21.0</ele>
        <time>2022-05-14T17:00:29.985Z</time>
      </trkpt>
      <trkpt lat="39.542985" lon="2.58856167">
        <ele>20.0</ele>
        <time>2022-05-14T17:00:30.985Z</time>
      </trkpt>
      <trkpt lat="39.54298333" lon="2.58866167">
        <ele>20.0</ele>
        <time>2022-05-14T17:00:31.984Z</time>
      </trkpt>
      <trkpt lat="39.54298167" lon="2.58876333">
        <ele>19.0</ele>
        <time>2022-05-14T17:00:32.985Z</time>
      </trkpt>
      <trkpt lat="39.54297667" lon="2.58885833">
        <ele>19.0</ele>
        <time>2022-05-14T17:00:33.985Z</time>
      </trkpt>
      <trkpt lat="39.54296833" lon="2.58895">
        <ele>18.0</ele>
        <time>2022-05-14T17:00:34.985Z</time>
      </trkpt>
      <trkpt lat="39.54295833" lon="2.58904167">
        <ele>18.0</ele>
        <time>2022-05-14T17:00:35.985Z</time>
      </trkpt>
      <trkpt lat="39.54295" lon="2.58913333">
        <ele>17.0</ele>
        <time>2022-05-14T17:00:36.985Z</time>
      </trkpt>
      <trkpt lat="39.542945" lon="2.58924167">
        <ele>17.0</ele>
        <time>2022-05-14T17:00:37.984Z</time>
      </trkpt>
      <trkpt lat="39.542945" lon="2.58933667">
        <ele>16.0</ele>
        <time>2022-05-14T17:00:38.985Z</time>
      </trkpt>
      <trkpt lat="39.54295" lon="2.58943333">
        <ele>15.0</ele>
        <time>2022-05-14T17:00:39.985Z</time>
      </trkpt>
      <trkpt lat="39.54295833" lon="2.5895">
        <ele>15.0</ele>
        <time>2022-05-14T17:00:40.985Z</time>
      </trkpt>
      <trkpt lat="39.54295667" lon="2.5896">
        <ele>14.0</ele>
        <time>2022-05-14T17:00:41.985Z</time>
      </trkpt>
      <trkpt lat="39.542955" lon="2.58972167">
        <ele>14.0</ele>
        <time>2022-05-14T17:00:42.985Z</time>
      </trkpt>
      <trkpt lat="39.54296" lon="2.58982833">
        <ele>14.0</ele>
        <time>2022-05-14T17:00:43.985Z</time>
      </trkpt>
      <trkpt lat="39.54296167" lon="2.58993333">
        <ele>14.0</ele>
        <time>2022-05-14T17:00:44.984Z</time>
      </trkpt>
      <trkpt lat="39.54295833" lon="2.59002333">
        <ele>14.0</ele>
        <time>2022-05-14T17:00:45.984Z</time>
      </trkpt>
      <trkpt lat="39.54295667" lon="2.59014833">
        <ele>14.0</ele>
        <time>2022-05-14T17:00:46.985Z</time>
      </trkpt>
      <trkpt lat="39.54295167" lon="2.59025667">
        <ele>13.0</ele>
        <time>2022-05-14T17:00:47.985Z</time>
      </trkpt>
      <trkpt lat="39.54295167" lon="2.59037">
        <ele>14.0</ele>
        <time>2022-05-14T17:00:48.985Z</time>
      </trkpt>
      <trkpt lat="39.54294833" lon="2.59046">
        <ele>14.0</ele>
        <time>2022-05-14T17:00:49.985Z</time>
      </trkpt>
      <trkpt lat="39.54294833" lon="2.59046">
        <ele>14.0</ele>
        <time>2022-05-14T17:00:50.984Z</time>
      </trkpt>
      <trkpt lat="39.54295" lon="2.59065333">
        <ele>14.0</ele>
        <time>2022-05-14T17:00:51.985Z</time>
      </trkpt>
      <trkpt lat="39.54295333" lon="2.590745">
        <ele>13.0</ele>
        <time>2022-05-14T17:00:52.985Z</time>
      </trkpt>
      <trkpt lat="39.54295833" lon="2.59085167">
        <ele>13.0</ele>
        <time>2022-05-14T17:00:53.984Z</time>
      </trkpt>
      <trkpt lat="39.54297" lon="2.59095167">
        <ele>13.0</ele>
        <time>2022-05-14T17:00:54.984Z</time>
      </trkpt>
      <trkpt lat="39.542985" lon="2.59104833">
        <ele>12.0</ele>
        <time>2022-05-14T17:00:55.985Z</time>
      </trkpt>
      <trkpt lat="39.54301" lon="2.59114">
        <ele>12.0</ele>
        <time>2022-05-14T17:00:56.984Z</time>
      </trkpt>
      <trkpt lat="39.54303333" lon="2.59122833">
        <ele>11.0</ele>
        <time>2022-05-14T17:00:57.985Z</time>
      </trkpt>
      <trkpt lat="39.54305667" lon="2.591315">
        <ele>11.0</ele>
        <time>2022-05-14T17:00:58.985Z</time>
      </trkpt>
      <trkpt lat="39.54308167" lon="2.59141167">
        <ele>10.0</ele>
        <time>2022-05-14T17:00:59.985Z</time>
      </trkpt>
      <trkpt lat="39.54310667" lon="2.5915">
        <ele>10.0</ele>
        <time>2022-05-14T17:01:00.985Z</time>
      </trkpt>
      <trkpt lat="39.54313333" lon="2.59158167">
        <ele>10.0</ele>
        <time>2022-05-14T17:01:01.984Z</time>
      </trkpt>
      <trkpt lat="39.543155" lon="2.591675">
        <ele>10.0</ele>
        <time>2022-05-14T17:01:02.985Z</time>
      </trkpt>
      <trkpt lat="39.543185" lon="2.591755">
        <ele>10.0</ele>
        <time>2022-05-14T17:01:03.985Z</time>
      </trkpt>
      <trkpt lat="39.54320667" lon="2.591835">
        <ele>9.0</ele>
        <time>2022-05-14T17:01:04.984Z</time>
      </trkpt>
      <trkpt lat="39.54323" lon="2.591915">
        <ele>8.0</ele>
        <time>2022-05-14T17:01:05.985Z</time>
      </trkpt>
      <trkpt lat="39.54325167" lon="2.592">
        <ele>8.0</ele>
        <time>2022-05-14T17:01:06.985Z</time>
      </trkpt>
      <trkpt lat="39.543275" lon="2.59209">
        <ele>8.0</ele>
        <time>2022-05-14T17:01:07.985Z</time>
      </trkpt>
      <trkpt lat="39.543295" lon="2.59218333">
        <ele>8.0</ele>
        <time>2022-05-14T17:01:08.985Z</time>
      </trkpt>
      <trkpt lat="39.543315" lon="2.59228">
        <ele>9.0</ele>
        <time>2022-05-14T17:01:09.985Z</time>
      </trkpt>
      <trkpt lat="39.54334" lon="2.59237667">
        <ele>9.0</ele>
        <time>2022-05-14T17:01:10.984Z</time>
      </trkpt>
      <trkpt lat="39.54335833" lon="2.59246333">
        <ele>10.0</ele>
        <time>2022-05-14T17:01:11.985Z</time>
      </trkpt>
      <trkpt lat="39.54338" lon="2.59255">
        <ele>10.0</ele>
        <time>2022-05-14T17:01:12.984Z</time>
      </trkpt>
      <trkpt lat="39.54340333" lon="2.59263167">
        <ele>11.0</ele>
        <time>2022-05-14T17:01:13.985Z</time>
      </trkpt>
      <trkpt lat="39.543425" lon="2.592715">
        <ele>11.0</ele>
        <time>2022-05-14T17:01:14.985Z</time>
      </trkpt>
      <trkpt lat="39.543445" lon="2.59279667">
        <ele>11.0</ele>
        <time>2022-05-14T17:01:15.985Z</time>
      </trkpt>
      <trkpt lat="39.54345667" lon="2.59288">
        <ele>11.0</ele>
        <time>2022-05-14T17:01:16.985Z</time>
      </trkpt>
      <trkpt lat="39.54347333" lon="2.59296333">
        <ele>10.0</ele>
        <time>2022-05-14T17:01:17.985Z</time>
      </trkpt>
      <trkpt lat="39.54349167" lon="2.59305">
        <ele>10.0</ele>
        <time>2022-05-14T17:01:18.985Z</time>
      </trkpt>
      <trkpt lat="39.54351" lon="2.59313">
        <ele>10.0</ele>
        <time>2022-05-14T17:01:19.985Z</time>
      </trkpt>
      <trkpt lat="39.54352667" lon="2.59321667">
        <ele>9.0</ele>
        <time>2022-05-14T17:01:20.985Z</time>
      </trkpt>
      <trkpt lat="39.54354333" lon="2.593295">
        <ele>9.0</ele>
        <time>2022-05-14T17:01:21.985Z</time>
      </trkpt>
      <trkpt lat="39.54357" lon="2.59336">
        <ele>9.0</ele>
        <time>2022-05-14T17:01:22.984Z</time>
      </trkpt>
      <trkpt lat="39.543585" lon="2.593425">
        <ele>9.0</ele>
        <time>2022-05-14T17:01:23.985Z</time>
      </trkpt>
      <trkpt lat="39.54359333" lon="2.59348">
        <ele>9.0</ele>
        <time>2022-05-14T17:01:24.985Z</time>
      </trkpt>
      <trkpt lat="39.543585" lon="2.59352">
        <ele>9.0</ele>
        <time>2022-05-14T17:01:25.985Z</time>
      </trkpt>
      <trkpt lat="39.54357333" lon="2.59356167">
        <ele>8.0</ele>
        <time>2022-05-14T17:01:26.985Z</time>
      </trkpt>
      <trkpt lat="39.54356667" lon="2.59360833">
        <ele>8.0</ele>
        <time>2022-05-14T17:01:27.985Z</time>
      </trkpt>
      <trkpt lat="39.543575" lon="2.59365167">
        <ele>8.0</ele>
        <time>2022-05-14T17:01:28.985Z</time>
      </trkpt>
      <trkpt lat="39.54360333" lon="2.59369167">
        <ele>8.0</ele>
        <time>2022-05-14T17:01:29.985Z</time>
      </trkpt>
      <trkpt lat="39.543635" lon="2.59372167">
        <ele>7.0</ele>
        <time>2022-05-14T17:01:30.985Z</time>
      </trkpt>
      <trkpt lat="39.54367833" lon="2.59372833">
        <ele>7.0</ele>
        <time>2022-05-14T17:01:31.984Z</time>
      </trkpt>
      <trkpt lat="39.543725" lon="2.59373">
        <ele>6.0</ele>
        <time>2022-05-14T17:01:32.984Z</time>
      </trkpt>
      <trkpt lat="39.54377167" lon="2.59373667">
        <ele>6.0</ele>
        <time>2022-05-14T17:01:33.985Z</time>
      </trkpt>
      <trkpt lat="39.54383333" lon="2.593765">
        <ele>6.0</ele>
        <time>2022-05-14T17:01:34.985Z</time>
      </trkpt>
      <trkpt lat="39.54387167" lon="2.59378833">
        <ele>6.0</ele>
        <time>2022-05-14T17:01:35.985Z</time>
      </trkpt>
      <trkpt lat="39.54392167" lon="2.59382">
        <ele>6.0</ele>
        <time>2022-05-14T17:01:36.984Z</time>
      </trkpt>
      <trkpt lat="39.54397833" lon="2.59387">
        <ele>5.0</ele>
        <time>2022-05-14T17:01:37.984Z</time>
      </trkpt>
      <trkpt lat="39.54403" lon="2.59391167">
        <ele>5.0</ele>
        <time>2022-05-14T17:01:38.984Z</time>
      </trkpt>
      <trkpt lat="39.54406833" lon="2.59395">
        <ele>4.0</ele>
        <time>2022-05-14T17:01:39.985Z</time>
      </trkpt>
      <trkpt lat="39.54412" lon="2.59399833">
        <ele>4.0</ele>
        <time>2022-05-14T17:01:40.985Z</time>
      </trkpt>
      <trkpt lat="39.54417333" lon="2.59404667">
        <ele>4.0</ele>
        <time>2022-05-14T17:01:41.985Z</time>
      </trkpt>
      <trkpt lat="39.54422667" lon="2.59409833">
        <ele>3.0</ele>
        <time>2022-05-14T17:01:42.985Z</time>
      </trkpt>
      <trkpt lat="39.54429" lon="2.59415833">
        <ele>3.0</ele>
        <time>2022-05-14T17:01:43.984Z</time>
      </trkpt>
      <trkpt lat="39.54434333" lon="2.594215">
        <ele>2.0</ele>
        <time>2022-05-14T17:01:44.985Z</time>
      </trkpt>
      <trkpt lat="39.544385" lon="2.594265">
        <ele>3.0</ele>
        <time>2022-05-14T17:01:45.985Z</time>
      </trkpt>
      <trkpt lat="39.54443167" lon="2.59432667">
        <ele>3.0</ele>
        <time>2022-05-14T17:01:46.985Z</time>
      </trkpt>
      <trkpt lat="39.54448333" lon="2.59440333">
        <ele>3.0</ele>
        <time>2022-05-14T17:01:47.985Z</time>
      </trkpt>
      <trkpt lat="39.54451667" lon="2.59445833">
        <ele>4.0</ele>
        <time>2022-05-14T17:01:48.984Z</time>
      </trkpt>
      <trkpt lat="39.544555" lon="2.59451833">
        <ele>4.0</ele>
        <time>2022-05-14T17:01:49.985Z</time>
      </trkpt>
      <trkpt lat="39.54459167" lon="2.59458167">
        <ele>4.0</ele>
        <time>2022-05-14T17:01:50.984Z</time>
      </trkpt>
      <trkpt lat="39.544625" lon="2.59464333">
        <ele>4.0</ele>
        <time>2022-05-14T17:01:51.984Z</time>
      </trkpt>
      <trkpt lat="39.54465667" lon="2.594705">
        <ele>4.0</ele>
        <time>2022-05-14T17:01:52.985Z</time>
      </trkpt>
      <trkpt lat="39.54468833" lon="2.59476667">
        <ele>3.0</ele>
        <time>2022-05-14T17:01:53.985Z</time>
      </trkpt>
      <trkpt lat="39.54472" lon="2.59482667">
        <ele>3.0</ele>
        <time>2022-05-14T17:01:54.985Z</time>
      </trkpt>
      <trkpt lat="39.54475" lon="2.594885">
        <ele>3.0</ele>
        <time>2022-05-14T17:01:55.985Z</time>
      </trkpt>
      <trkpt lat="39.54478167" lon="2.59494">
        <ele>3.0</ele>
        <time>2022-05-14T17:01:56.984Z</time>
      </trkpt>
      <trkpt lat="39.54481167" lon="2.59499667">
        <ele>3.0</ele>
        <time>2022-05-14T17:01:57.985Z</time>
      </trkpt>
      <trkpt lat="39.54484" lon="2.59505">
        <ele>3.0</ele>
        <time>2022-05-14T17:01:58.984Z</time>
      </trkpt>
      <trkpt lat="39.54487" lon="2.59510833">
        <ele>3.0</ele>
        <time>2022-05-14T17:01:59.985Z</time>
      </trkpt>
      <trkpt lat="39.54489667" lon="2.59516167">
        <ele>2.0</ele>
        <time>2022-05-14T17:02:00.985Z</time>
      </trkpt>
      <trkpt lat="39.54492" lon="2.59521333">
        <ele>2.0</ele>
        <time>2022-05-14T17:02:01.984Z</time>
      </trkpt>
      <trkpt lat="39.54494167" lon="2.59526333">
        <ele>2.0</ele>
        <time>2022-05-14T17:02:02.985Z</time>
      </trkpt>
      <trkpt lat="39.54496833" lon="2.59530667">
        <ele>2.0</ele>
        <time>2022-05-14T17:02:03.985Z</time>
      </trkpt>
      <trkpt lat="39.54499333" lon="2.595355">
        <ele>2.0</ele>
        <time>2022-05-14T17:02:04.985Z</time>
      </trkpt>
      <trkpt lat="39.54502167" lon="2.59539833">
        <ele>2.0</ele>
        <time>2022-05-14T17:02:05.984Z</time>
      </trkpt>
      <trkpt lat="39.545045" lon="2.59544833">
        <ele>1.0</ele>
        <time>2022-05-14T17:02:06.984Z</time>
      </trkpt>
      <trkpt lat="39.54506667" lon="2.59549667">
        <ele>1.0</ele>
        <time>2022-05-14T17:02:07.985Z</time>
      </trkpt>
      <trkpt lat="39.54509333" lon="2.59554167">
        <ele>1.0</ele>
        <time>2022-05-14T17:02:08.985Z</time>
      </trkpt>
      <trkpt lat="39.54512167" lon="2.59558">
        <ele>0.0</ele>
        <time>2022-05-14T17:02:09.985Z</time>
      </trkpt>
      <trkpt lat="39.54515333" lon="2.59562">
        <ele>0.0</ele>
        <time>2022-05-14T17:02:10.985Z</time>
      </trkpt>
      <trkpt lat="39.54519" lon="2.595655">
        <ele>0.0</ele>
        <time>2022-05-14T17:02:11.985Z</time>
      </trkpt>
      <trkpt lat="39.54523" lon="2.59568167">
        <ele>0.0</ele>
        <time>2022-05-14T17:02:12.985Z</time>
      </trkpt>
      <trkpt lat="39.54526667" lon="2.59570333">
        <ele>0.0</ele>
        <time>2022-05-14T17:02:13.985Z</time>
      </trkpt>
      <trkpt lat="39.54530333" lon="2.59572333">
        <ele>0.0</ele>
        <time>2022-05-14T17:02:14.985Z</time>
      </trkpt>
      <trkpt lat="39.545335" lon="2.59574167">
        <ele>0.0</ele>
        <time>2022-05-14T17:02:15.985Z</time>
      </trkpt>
      <trkpt lat="39.54536167" lon="2.59575833">
        <ele>0.0</ele>
        <time>2022-05-14T17:02:16.984Z</time>
      </trkpt>
      <trkpt lat="39.54538" lon="2.59576833">
        <ele>0.0</ele>
        <time>2022-05-14T17:02:17.984Z</time>
      </trkpt>
      <trkpt lat="39.54539333" lon="2.59577667">
        <ele>0.0</ele>
        <time>2022-05-14T17:02:18.984Z</time>
      </trkpt>
      <trkpt lat="39.54539833" lon="2.59578333">
        <ele>-1.0</ele>
        <time>2022-05-14T17:02:19.984Z</time>
      </trkpt>
      <trkpt lat="39.54543667" lon="2.59578667">
        <ele>7.0</ele>
        <time>2022-05-14T17:03:27.627Z</time>
      </trkpt>
      <trkpt lat="39.54547" lon="2.59579">
        <ele>7.0</ele>
        <time>2022-05-14T17:03:28.627Z</time>
      </trkpt>
      <trkpt lat="39.54550833" lon="2.59579333">
        <ele>7.0</ele>
        <time>2022-05-14T17:03:29.626Z</time>
      </trkpt>
      <trkpt lat="39.54554667" lon="2.59579167">
        <ele>6.0</ele>
        <time>2022-05-14T17:03:30.627Z</time>
      </trkpt>
      <trkpt lat="39.54559167" lon="2.59578167">
        <ele>6.0</ele>
        <time>2022-05-14T17:03:31.627Z</time>
      </trkpt>
      <trkpt lat="39.545635" lon="2.59576833">
        <ele>6.0</ele>
        <time>2022-05-14T17:03:32.627Z</time>
      </trkpt>
      <trkpt lat="39.54567833" lon="2.59575167">
        <ele>6.0</ele>
        <time>2022-05-14T17:03:33.627Z</time>
      </trkpt>
      <trkpt lat="39.54572" lon="2.59572667">
        <ele>5.0</ele>
        <time>2022-05-14T17:03:34.627Z</time>
      </trkpt>
      <trkpt lat="39.54575833" lon="2.59570167">
        <ele>5.0</ele>
        <time>2022-05-14T17:03:35.626Z</time>
      </trkpt>
      <trkpt lat="39.54579833" lon="2.59567667">
        <ele>4.0</ele>
        <time>2022-05-14T17:03:36.627Z</time>
      </trkpt>
      <trkpt lat="39.54584" lon="2.59565333">
        <ele>4.0</ele>
        <time>2022-05-14T17:03:37.627Z</time>
      </trkpt>
      <trkpt lat="39.54588" lon="2.59562667">
        <ele>4.0</ele>
        <time>2022-05-14T17:03:38.627Z</time>
      </trkpt>
      <trkpt lat="39.54591667" lon="2.59559667">
        <ele>3.0</ele>
        <time>2022-05-14T17:03:39.626Z</time>
      </trkpt>
      <trkpt lat="39.54595333" lon="2.59556833">
        <ele>3.0</ele>
        <time>2022-05-14T17:03:40.626Z</time>
      </trkpt>
      <trkpt lat="39.54598833" lon="2.59553667">
        <ele>2.0</ele>
        <time>2022-05-14T17:03:41.626Z</time>
      </trkpt>
      <trkpt lat="39.54602333" lon="2.59550333">
        <ele>2.0</ele>
        <time>2022-05-14T17:03:42.626Z</time>
      </trkpt>
      <trkpt lat="39.54605333" lon="2.59547">
        <ele>1.0</ele>
        <time>2022-05-14T17:03:43.627Z</time>
      </trkpt>
      <trkpt lat="39.54608333" lon="2.595435">
        <ele>1.0</ele>
        <time>2022-05-14T17:03:44.627Z</time>
      </trkpt>
      <trkpt lat="39.546115" lon="2.5954">
        <ele>1.0</ele>
        <time>2022-05-14T17:03:45.627Z</time>
      </trkpt>
      <trkpt lat="39.54615" lon="2.59536833">
        <ele>1.0</ele>
        <time>2022-05-14T17:03:46.626Z</time>
      </trkpt>
      <trkpt lat="39.54618167" lon="2.59534">
        <ele>1.0</ele>
        <time>2022-05-14T17:03:47.627Z</time>
      </trkpt>
      <trkpt lat="39.54621333" lon="2.59531667">
        <ele>1.0</ele>
        <time>2022-05-14T17:03:48.627Z</time>
      </trkpt>
      <trkpt lat="39.54624167" lon="2.59529667">
        <ele>2.0</ele>
        <time>2022-05-14T17:03:49.626Z</time>
      </trkpt>
      <trkpt lat="39.54627" lon="2.59527167">
        <ele>2.0</ele>
        <time>2022-05-14T17:03:50.626Z</time>
      </trkpt>
      <trkpt lat="39.546305" lon="2.59524167">
        <ele>2.0</ele>
        <time>2022-05-14T17:03:51.627Z</time>
      </trkpt>
      <trkpt lat="39.54632667" lon="2.59522333">
        <ele>2.0</ele>
        <time>2022-05-14T17:03:52.627Z</time>
      </trkpt>
      <trkpt lat="39.54635167" lon="2.59519667">
        <ele>3.0</ele>
        <time>2022-05-14T17:03:53.626Z</time>
      </trkpt>
      <trkpt lat="39.546375" lon="2.595175">
        <ele>3.0</ele>
        <time>2022-05-14T17:03:54.627Z</time>
      </trkpt>
      <trkpt lat="39.5464" lon="2.59515167">
        <ele>3.0</ele>
        <time>2022-05-14T17:03:55.627Z</time>
      </trkpt>
      <trkpt lat="39.54642833" lon="2.59513167">
        <ele>4.0</ele>
        <time>2022-05-14T17:03:56.626Z</time>
      </trkpt>
      <trkpt lat="39.546455" lon="2.59511333">
        <ele>4.0</ele>
        <time>2022-05-14T17:03:57.627Z</time>
      </trkpt>
      <trkpt lat="39.54648333" lon="2.595095">
        <ele>5.0</ele>
        <time>2022-05-14T17:03:58.626Z</time>
      </trkpt>
      <trkpt lat="39.54651333" lon="2.59507833">
        <ele>5.0</ele>
        <time>2022-05-14T17:03:59.627Z</time>
      </trkpt>
      <trkpt lat="39.54654333" lon="2.59506333">
        <ele>5.0</ele>
        <time>2022-05-14T17:04:00.626Z</time>
      </trkpt>
      <trkpt lat="39.54657" lon="2.59505">
        <ele>5.0</ele>
        <time>2022-05-14T17:04:01.626Z</time>
      </trkpt>
      <trkpt lat="39.54659667" lon="2.59503833">
        <ele>5.0</ele>
        <time>2022-05-14T17:04:02.627Z</time>
      </trkpt>
      <trkpt lat="39.54662333" lon="2.59503">
        <ele>5.0</ele>
        <time>2022-05-14T17:04:03.626Z</time>
      </trkpt>
      <trkpt lat="39.54665167" lon="2.59502167">
        <ele>4.0</ele>
        <time>2022-05-14T17:04:04.627Z</time>
      </trkpt>
      <trkpt lat="39.54668333" lon="2.59501333">
        <ele>3.0</ele>
        <time>2022-05-14T17:04:05.627Z</time>
      </trkpt>
      <trkpt lat="39.54671833" lon="2.59501333">
        <ele>3.0</ele>
        <time>2022-05-14T17:04:06.626Z</time>
      </trkpt>
      <trkpt lat="39.54675167" lon="2.59501667">
        <ele>2.0</ele>
        <time>2022-05-14T17:04:07.626Z</time>
      </trkpt>
      <trkpt lat="39.54678333" lon="2.59502333">
        <ele>2.0</ele>
        <time>2022-05-14T17:04:08.627Z</time>
      </trkpt>
      <trkpt lat="39.54681667" lon="2.59503167">
        <ele>2.0</ele>
        <time>2022-05-14T17:04:09.627Z</time>
      </trkpt>
      <trkpt lat="39.54684833" lon="2.59504333">
        <ele>1.0</ele>
        <time>2022-05-14T17:04:10.627Z</time>
      </trkpt>
      <trkpt lat="39.54688333" lon="2.59506">
        <ele>1.0</ele>
        <time>2022-05-14T17:04:11.627Z</time>
      </trkpt>
      <trkpt lat="39.54691833" lon="2.59507833">
        <ele>0.0</ele>
        <time>2022-05-14T17:04:12.627Z</time>
      </trkpt>
      <trkpt lat="39.54695333" lon="2.59509833">
        <ele>0.0</ele>
        <time>2022-05-14T17:04:13.626Z</time>
      </trkpt>
      <trkpt lat="39.546985" lon="2.595125">
        <ele>0.0</ele>
        <time>2022-05-14T17:04:14.627Z</time>
      </trkpt>
      <trkpt lat="39.547015" lon="2.59515333">
        <ele>0.0</ele>
        <time>2022-05-14T17:04:15.627Z</time>
      </trkpt>
      <trkpt lat="39.54704333" lon="2.59518333">
        <ele>0.0</ele>
        <time>2022-05-14T17:04:16.626Z</time>
      </trkpt>
      <trkpt lat="39.54707167" lon="2.595215">
        <ele>1.0</ele>
        <time>2022-05-14T17:04:17.626Z</time>
      </trkpt>
      <trkpt lat="39.54709833" lon="2.59524833">
        <ele>1.0</ele>
        <time>2022-05-14T17:04:18.626Z</time>
      </trkpt>
      <trkpt lat="39.54711833" lon="2.595285">
        <ele>1.0</ele>
        <time>2022-05-14T17:04:19.627Z</time>
      </trkpt>
      <trkpt lat="39.54713333" lon="2.59532667">
        <ele>1.0</ele>
        <time>2022-05-14T17:04:20.627Z</time>
      </trkpt>
      <trkpt lat="39.54715" lon="2.59536667">
        <ele>2.0</ele>
        <time>2022-05-14T17:04:21.627Z</time>
      </trkpt>
      <trkpt lat="39.54716667" lon="2.59540333">
        <ele>2.0</ele>
        <time>2022-05-14T17:04:22.627Z</time>
      </trkpt>
      <trkpt lat="39.54718167" lon="2.59544">
        <ele>3.0</ele>
        <time>2022-05-14T17:04:23.627Z</time>
      </trkpt>
      <trkpt lat="39.54719833" lon="2.59547833">
        <ele>3.0</ele>
        <time>2022-05-14T17:04:24.627Z</time>
      </trkpt>
      <trkpt lat="39.547215" lon="2.595515">
        <ele>3.0</ele>
        <time>2022-05-14T17:04:25.626Z</time>
      </trkpt>
      <trkpt lat="39.54723167" lon="2.59555">
        <ele>4.0</ele>
        <time>2022-05-14T17:04:26.627Z</time>
      </trkpt>
      <trkpt lat="39.54725" lon="2.59558333">
        <ele>4.0</ele>
        <time>2022-05-14T17:04:27.627Z</time>
      </trkpt>
      <trkpt lat="39.54726667" lon="2.59562">
        <ele>4.0</ele>
        <time>2022-05-14T17:04:28.627Z</time>
      </trkpt>
      <trkpt lat="39.54728333" lon="2.59565667">
        <ele>4.0</ele>
        <time>2022-05-14T17:04:29.627Z</time>
      </trkpt>
      <trkpt lat="39.54730167" lon="2.59569333">
        <ele>4.0</ele>
        <time>2022-05-14T17:04:30.627Z</time>
      </trkpt>
      <trkpt lat="39.54731667" lon="2.59573167">
        <ele>4.0</ele>
        <time>2022-05-14T17:04:31.627Z</time>
      </trkpt>
      <trkpt lat="39.54733333" lon="2.59576667">
        <ele>4.0</ele>
        <time>2022-05-14T17:04:32.627Z</time>
      </trkpt>
      <trkpt lat="39.54735333" lon="2.5958">
        <ele>3.0</ele>
        <time>2022-05-14T17:04:33.626Z</time>
      </trkpt>
      <trkpt lat="39.54737333" lon="2.59583167">
        <ele>3.0</ele>
        <time>2022-05-14T17:04:34.627Z</time>
      </trkpt>
      <trkpt lat="39.54739333" lon="2.59587833">
        <ele>4.0</ele>
        <time>2022-05-14T17:04:35.626Z</time>
      </trkpt>
      <trkpt lat="39.54740833" lon="2.59592167">
        <ele>4.0</ele>
        <time>2022-05-14T17:04:36.626Z</time>
      </trkpt>
      <trkpt lat="39.54742833" lon="2.59596667">
        <ele>5.0</ele>
        <time>2022-05-14T17:04:37.627Z</time>
      </trkpt>
      <trkpt lat="39.54744333" lon="2.59600667">
        <ele>5.0</ele>
        <time>2022-05-14T17:04:38.627Z</time>
      </trkpt>
      <trkpt lat="39.54745833" lon="2.596045">
        <ele>5.0</ele>
        <time>2022-05-14T17:04:39.627Z</time>
      </trkpt>
      <trkpt lat="39.54747667" lon="2.59608">
        <ele>5.0</ele>
        <time>2022-05-14T17:04:40.627Z</time>
      </trkpt>
      <trkpt lat="39.54749167" lon="2.596115">
        <ele>5.0</ele>
        <time>2022-05-14T17:04:41.627Z</time>
      </trkpt>
      <trkpt lat="39.54750167" lon="2.59614833">
        <ele>5.0</ele>
        <time>2022-05-14T17:04:42.626Z</time>
      </trkpt>
      <trkpt lat="39.54751667" lon="2.59617833">
        <ele>5.0</ele>
        <time>2022-05-14T17:04:43.627Z</time>
      </trkpt>
      <trkpt lat="39.547535" lon="2.596215">
        <ele>6.0</ele>
        <time>2022-05-14T17:04:44.626Z</time>
      </trkpt>
      <trkpt lat="39.547555" lon="2.59625667">
        <ele>6.0</ele>
        <time>2022-05-14T17:04:45.627Z</time>
      </trkpt>
      <trkpt lat="39.54757833" lon="2.59630833">
        <ele>7.0</ele>
        <time>2022-05-14T17:04:46.627Z</time>
      </trkpt>
      <trkpt lat="39.54759333" lon="2.59634333">
        <ele>7.0</ele>
        <time>2022-05-14T17:04:47.627Z</time>
      </trkpt>
      <trkpt lat="39.54761" lon="2.596385">
        <ele>7.0</ele>
        <time>2022-05-14T17:04:48.627Z</time>
      </trkpt>
      <trkpt lat="39.54762667" lon="2.59642833">
        <ele>7.0</ele>
        <time>2022-05-14T17:04:49.626Z</time>
      </trkpt>
      <trkpt lat="39.54765667" lon="2.59645833">
        <ele>6.0</ele>
        <time>2022-05-14T17:04:50.626Z</time>
      </trkpt>
      <trkpt lat="39.54768167" lon="2.596495">
        <ele>6.0</ele>
        <time>2022-05-14T17:04:51.627Z</time>
      </trkpt>
      <trkpt lat="39.547705" lon="2.59652833">
        <ele>6.0</ele>
        <time>2022-05-14T17:04:52.626Z</time>
      </trkpt>
      <trkpt lat="39.54772333" lon="2.59656333">
        <ele>6.0</ele>
        <time>2022-05-14T17:04:53.627Z</time>
      </trkpt>
      <trkpt lat="39.54774" lon="2.596595">
        <ele>6.0</ele>
        <time>2022-05-14T17:04:54.626Z</time>
      </trkpt>
      <trkpt lat="39.54776" lon="2.59662667">
        <ele>6.0</ele>
        <time>2022-05-14T17:04:55.627Z</time>
      </trkpt>
      <trkpt lat="39.54778167" lon="2.59665833">
        <ele>6.0</ele>
        <time>2022-05-14T17:04:56.627Z</time>
      </trkpt>
      <trkpt lat="39.54780667" lon="2.59668833">
        <ele>6.0</ele>
        <time>2022-05-14T17:04:57.627Z</time>
      </trkpt>
      <trkpt lat="39.54783333" lon="2.59671667">
        <ele>7.0</ele>
        <time>2022-05-14T17:04:58.626Z</time>
      </trkpt>
      <trkpt lat="39.54786667" lon="2.59674333">
        <ele>7.0</ele>
        <time>2022-05-14T17:04:59.626Z</time>
      </trkpt>
      <trkpt lat="39.54790333" lon="2.59676833">
        <ele>6.0</ele>
        <time>2022-05-14T17:05:00.627Z</time>
      </trkpt>
      <trkpt lat="39.54793833" lon="2.59679">
        <ele>7.0</ele>
        <time>2022-05-14T17:05:01.626Z</time>
      </trkpt>
      <trkpt lat="39.54797333" lon="2.59680833">
        <ele>7.0</ele>
        <time>2022-05-14T17:05:02.627Z</time>
      </trkpt>
      <trkpt lat="39.54801167" lon="2.59681833">
        <ele>7.0</ele>
        <time>2022-05-14T17:05:03.627Z</time>
      </trkpt>
      <trkpt lat="39.54805167" lon="2.59683">
        <ele>7.0</ele>
        <time>2022-05-14T17:05:04.626Z</time>
      </trkpt>
      <trkpt lat="39.54809667" lon="2.59684167">
        <ele>7.0</ele>
        <time>2022-05-14T17:05:05.627Z</time>
      </trkpt>
      <trkpt lat="39.54814167" lon="2.59685167">
        <ele>7.0</ele>
        <time>2022-05-14T17:05:06.626Z</time>
      </trkpt>
      <trkpt lat="39.54819" lon="2.59686167">
        <ele>6.0</ele>
        <time>2022-05-14T17:05:07.627Z</time>
      </trkpt>
      <trkpt lat="39.54824" lon="2.59687333">
        <ele>6.0</ele>
        <time>2022-05-14T17:05:08.627Z</time>
      </trkpt>
      <trkpt lat="39.548295" lon="2.596885">
        <ele>6.0</ele>
        <time>2022-05-14T17:05:09.627Z</time>
      </trkpt>
      <trkpt lat="39.54834833" lon="2.59689667">
        <ele>6.0</ele>
        <time>2022-05-14T17:05:10.626Z</time>
      </trkpt>
      <trkpt lat="39.54841" lon="2.59691">
        <ele>6.0</ele>
        <time>2022-05-14T17:05:11.626Z</time>
      </trkpt>
      <trkpt lat="39.54846167" lon="2.59692167">
        <ele>7.0</ele>
        <time>2022-05-14T17:05:12.626Z</time>
      </trkpt>
      <trkpt lat="39.54851" lon="2.59693167">
        <ele>7.0</ele>
        <time>2022-05-14T17:05:13.627Z</time>
      </trkpt>
      <trkpt lat="39.54855833" lon="2.59694333">
        <ele>7.0</ele>
        <time>2022-05-14T17:05:14.627Z</time>
      </trkpt>
      <trkpt lat="39.54860833" lon="2.59695">
        <ele>8.0</ele>
        <time>2022-05-14T17:05:15.627Z</time>
      </trkpt>
      <trkpt lat="39.54865667" lon="2.59695667">
        <ele>9.0</ele>
        <time>2022-05-14T17:05:16.627Z</time>
      </trkpt>
      <trkpt lat="39.54870333" lon="2.59696667">
        <ele>10.0</ele>
        <time>2022-05-14T17:05:17.626Z</time>
      </trkpt>
      <trkpt lat="39.54874667" lon="2.596975">
        <ele>9.0</ele>
        <time>2022-05-14T17:05:18.627Z</time>
      </trkpt>
      <trkpt lat="39.54878833" lon="2.59697833">
        <ele>9.0</ele>
        <time>2022-05-14T17:05:19.627Z</time>
      </trkpt>
      <trkpt lat="39.54883" lon="2.59698333">
        <ele>8.0</ele>
        <time>2022-05-14T17:05:20.626Z</time>
      </trkpt>
      <trkpt lat="39.54887" lon="2.59698667">
        <ele>8.0</ele>
        <time>2022-05-14T17:05:21.627Z</time>
      </trkpt>
      <trkpt lat="39.54890333" lon="2.596995">
        <ele>7.0</ele>
        <time>2022-05-14T17:05:22.627Z</time>
      </trkpt>
      <trkpt lat="39.54893667" lon="2.597">
        <ele>7.0</ele>
        <time>2022-05-14T17:05:23.627Z</time>
      </trkpt>
      <trkpt lat="39.54897167" lon="2.597">
        <ele>7.0</ele>
        <time>2022-05-14T17:05:24.627Z</time>
      </trkpt>
      <trkpt lat="39.549" lon="2.597">
        <ele>7.0</ele>
        <time>2022-05-14T17:05:25.627Z</time>
      </trkpt>
      <trkpt lat="39.54902333" lon="2.59700167">
        <ele>7.0</ele>
        <time>2022-05-14T17:05:26.626Z</time>
      </trkpt>
      <trkpt lat="39.54903" lon="2.59699833">
        <ele>7.0</ele>
        <time>2022-05-14T17:05:27.627Z</time>
      </trkpt>
      <trkpt lat="39.549045" lon="2.59699667">
        <ele>6.0</ele>
        <time>2022-05-14T17:05:28.627Z</time>
      </trkpt>
      <trkpt lat="39.549065" lon="2.59699333">
        <ele>6.0</ele>
        <time>2022-05-14T17:05:29.627Z</time>
      </trkpt>
      <trkpt lat="39.54908667" lon="2.59699833">
        <ele>5.0</ele>
        <time>2022-05-14T17:05:30.627Z</time>
      </trkpt>
      <trkpt lat="39.54911333" lon="2.59701">
        <ele>5.0</ele>
        <time>2022-05-14T17:05:31.626Z</time>
      </trkpt>
      <trkpt lat="39.54914333" lon="2.59702833">
        <ele>5.0</ele>
        <time>2022-05-14T17:05:32.627Z</time>
      </trkpt>
      <trkpt lat="39.54917833" lon="2.59705167">
        <ele>5.0</ele>
        <time>2022-05-14T17:05:33.627Z</time>
      </trkpt>
      <trkpt lat="39.54921833" lon="2.59707833">
        <ele>4.0</ele>
        <time>2022-05-14T17:05:34.626Z</time>
      </trkpt>
      <trkpt lat="39.54925667" lon="2.59711333">
        <ele>4.0</ele>
        <time>2022-05-14T17:05:35.627Z</time>
      </trkpt>
      <trkpt lat="39.54929667" lon="2.59715">
        <ele>4.0</ele>
        <time>2022-05-14T17:05:36.626Z</time>
      </trkpt>
      <trkpt lat="39.549335" lon="2.59719">
        <ele>4.0</ele>
        <time>2022-05-14T17:05:37.627Z</time>
      </trkpt>
      <trkpt lat="39.54937167" lon="2.59722833">
        <ele>4.0</ele>
        <time>2022-05-14T17:05:38.627Z</time>
      </trkpt>
      <trkpt lat="39.54941333" lon="2.597265">
        <ele>3.0</ele>
        <time>2022-05-14T17:05:39.626Z</time>
      </trkpt>
      <trkpt lat="39.54945333" lon="2.59730167">
        <ele>3.0</ele>
        <time>2022-05-14T17:05:40.626Z</time>
      </trkpt>
      <trkpt lat="39.54949333" lon="2.59734">
        <ele>3.0</ele>
        <time>2022-05-14T17:05:41.627Z</time>
      </trkpt>
      <trkpt lat="39.54953" lon="2.59738167">
        <ele>3.0</ele>
        <time>2022-05-14T17:05:42.627Z</time>
      </trkpt>
      <trkpt lat="39.54956833" lon="2.59742167">
        <ele>3.0</ele>
        <time>2022-05-14T17:05:43.627Z</time>
      </trkpt>
      <trkpt lat="39.54961" lon="2.59746">
        <ele>2.0</ele>
        <time>2022-05-14T17:05:44.627Z</time>
      </trkpt>
      <trkpt lat="39.54965" lon="2.59750167">
        <ele>2.0</ele>
        <time>2022-05-14T17:05:45.627Z</time>
      </trkpt>
      <trkpt lat="39.54968833" lon="2.59754667">
        <ele>2.0</ele>
        <time>2022-05-14T17:05:46.626Z</time>
      </trkpt>
      <trkpt lat="39.54972667" lon="2.59759333">
        <ele>3.0</ele>
        <time>2022-05-14T17:05:47.627Z</time>
      </trkpt>
      <trkpt lat="39.549765" lon="2.59764333">
        <ele>3.0</ele>
        <time>2022-05-14T17:05:48.627Z</time>
      </trkpt>
      <trkpt lat="39.54980167" lon="2.59769333">
        <ele>3.0</ele>
        <time>2022-05-14T17:05:49.626Z</time>
      </trkpt>
      <trkpt lat="39.549845" lon="2.597755">
        <ele>3.0</ele>
        <time>2022-05-14T17:05:50.626Z</time>
      </trkpt>
      <trkpt lat="39.54987167" lon="2.5978">
        <ele>3.0</ele>
        <time>2022-05-14T17:05:51.627Z</time>
      </trkpt>
      <trkpt lat="39.54990167" lon="2.59785833">
        <ele>3.0</ele>
        <time>2022-05-14T17:05:52.626Z</time>
      </trkpt>
      <trkpt lat="39.54993167" lon="2.59791667">
        <ele>3.0</ele>
        <time>2022-05-14T17:05:53.627Z</time>
      </trkpt>
      <trkpt lat="39.54996167" lon="2.597975">
        <ele>2.0</ele>
        <time>2022-05-14T17:05:54.626Z</time>
      </trkpt>
      <trkpt lat="39.54999167" lon="2.59803333">
        <ele>2.0</ele>
        <time>2022-05-14T17:05:55.627Z</time>
      </trkpt>
      <trkpt lat="39.55002" lon="2.59809167">
        <ele>2.0</ele>
        <time>2022-05-14T17:05:56.627Z</time>
      </trkpt>
      <trkpt lat="39.55005" lon="2.59814833">
        <ele>2.0</ele>
        <time>2022-05-14T17:05:57.627Z</time>
      </trkpt>
      <trkpt lat="39.55007833" lon="2.59820667">
        <ele>2.0</ele>
        <time>2022-05-14T17:05:58.627Z</time>
      </trkpt>
      <trkpt lat="39.55010667" lon="2.59826333">
        <ele>2.0</ele>
        <time>2022-05-14T17:05:59.627Z</time>
      </trkpt>
      <trkpt lat="39.550135" lon="2.59832">
        <ele>2.0</ele>
        <time>2022-05-14T17:06:00.627Z</time>
      </trkpt>
      <trkpt lat="39.55016333" lon="2.59837667">
        <ele>2.0</ele>
        <time>2022-05-14T17:06:01.626Z</time>
      </trkpt>
      <trkpt lat="39.55019167" lon="2.59843333">
        <ele>1.0</ele>
        <time>2022-05-14T17:06:02.626Z</time>
      </trkpt>
      <trkpt lat="39.55022" lon="2.59849">
        <ele>1.0</ele>
        <time>2022-05-14T17:06:03.627Z</time>
      </trkpt>
      <trkpt lat="39.550245" lon="2.598545">
        <ele>1.0</ele>
        <time>2022-05-14T17:06:04.627Z</time>
      </trkpt>
      <trkpt lat="39.55027167" lon="2.5986">
        <ele>1.0</ele>
        <time>2022-05-14T17:06:05.627Z</time>
      </trkpt>
      <trkpt lat="39.55029833" lon="2.59865167">
        <ele>1.0</ele>
        <time>2022-05-14T17:06:06.626Z</time>
      </trkpt>
      <trkpt lat="39.55032667" lon="2.598705">
        <ele>1.0</ele>
        <time>2022-05-14T17:06:07.626Z</time>
      </trkpt>
      <trkpt lat="39.55035333" lon="2.59875833">
        <ele>1.0</ele>
        <time>2022-05-14T17:06:08.627Z</time>
      </trkpt>
      <trkpt lat="39.55038167" lon="2.59881">
        <ele>1.0</ele>
        <time>2022-05-14T17:06:09.627Z</time>
      </trkpt>
      <trkpt lat="39.55041167" lon="2.59886">
        <ele>0.0</ele>
        <time>2022-05-14T17:06:10.626Z</time>
      </trkpt>
      <trkpt lat="39.55044" lon="2.59891">
        <ele>0.0</ele>
        <time>2022-05-14T17:06:11.626Z</time>
      </trkpt>
      <trkpt lat="39.55046833" lon="2.59896167">
        <ele>1.0</ele>
        <time>2022-05-14T17:06:12.627Z</time>
      </trkpt>
      <trkpt lat="39.55049667" lon="2.599015">
        <ele>1.0</ele>
        <time>2022-05-14T17:06:13.627Z</time>
      </trkpt>
      <trkpt lat="39.55052667" lon="2.599065">
        <ele>1.0</ele>
        <time>2022-05-14T17:06:14.626Z</time>
      </trkpt>
      <trkpt lat="39.55055833" lon="2.59912667">
        <ele>1.0</ele>
        <time>2022-05-14T17:06:15.626Z</time>
      </trkpt>
      <trkpt lat="39.55057833" lon="2.59916667">
        <ele>2.0</ele>
        <time>2022-05-14T17:06:16.626Z</time>
      </trkpt>
      <trkpt lat="39.550605" lon="2.599215">
        <ele>2.0</ele>
        <time>2022-05-14T17:06:17.627Z</time>
      </trkpt>
      <trkpt lat="39.55062833" lon="2.599265">
        <ele>2.0</ele>
        <time>2022-05-14T17:06:18.627Z</time>
      </trkpt>
      <trkpt lat="39.55065333" lon="2.59931333">
        <ele>3.0</ele>
        <time>2022-05-14T17:06:19.627Z</time>
      </trkpt>
      <trkpt lat="39.55068" lon="2.59936">
        <ele>3.0</ele>
        <time>2022-05-14T17:06:20.627Z</time>
      </trkpt>
      <trkpt lat="39.55070833" lon="2.599405">
        <ele>4.0</ele>
        <time>2022-05-14T17:06:21.627Z</time>
      </trkpt>
      <trkpt lat="39.55073167" lon="2.59945">
        <ele>4.0</ele>
        <time>2022-05-14T17:06:22.627Z</time>
      </trkpt>
      <trkpt lat="39.55075833" lon="2.59949667">
        <ele>4.0</ele>
        <time>2022-05-14T17:06:23.626Z</time>
      </trkpt>
      <trkpt lat="39.55078333" lon="2.59954167">
        <ele>4.0</ele>
        <time>2022-05-14T17:06:24.626Z</time>
      </trkpt>
      <trkpt lat="39.55081167" lon="2.59959833">
        <ele>4.0</ele>
        <time>2022-05-14T17:06:25.627Z</time>
      </trkpt>
      <trkpt lat="39.55082833" lon="2.599635">
        <ele>4.0</ele>
        <time>2022-05-14T17:06:26.627Z</time>
      </trkpt>
      <trkpt lat="39.55085333" lon="2.59967833">
        <ele>4.0</ele>
        <time>2022-05-14T17:06:27.627Z</time>
      </trkpt>
      <trkpt lat="39.55087667" lon="2.599725">
        <ele>4.0</ele>
        <time>2022-05-14T17:06:28.627Z</time>
      </trkpt>
      <trkpt lat="39.5509" lon="2.59977">
        <ele>4.0</ele>
        <time>2022-05-14T17:06:29.627Z</time>
      </trkpt>
      <trkpt lat="39.55092333" lon="2.599815">
        <ele>4.0</ele>
        <time>2022-05-14T17:06:30.627Z</time>
      </trkpt>
      <trkpt lat="39.55094833" lon="2.59986">
        <ele>4.0</ele>
        <time>2022-05-14T17:06:31.627Z</time>
      </trkpt>
      <trkpt lat="39.550975" lon="2.599905">
        <ele>4.0</ele>
        <time>2022-05-14T17:06:32.627Z</time>
      </trkpt>
      <trkpt lat="39.55100667" lon="2.59994833">
        <ele>4.0</ele>
        <time>2022-05-14T17:06:33.627Z</time>
      </trkpt>
      <trkpt lat="39.55103333" lon="2.59999">
        <ele>5.0</ele>
        <time>2022-05-14T17:06:34.627Z</time>
      </trkpt>
      <trkpt lat="39.551065" lon="2.60002667">
        <ele>5.0</ele>
        <time>2022-05-14T17:06:35.626Z</time>
      </trkpt>
      <trkpt lat="39.55109833" lon="2.60006333">
        <ele>5.0</ele>
        <time>2022-05-14T17:06:36.627Z</time>
      </trkpt>
      <trkpt lat="39.55113667" lon="2.60009833">
        <ele>6.0</ele>
        <time>2022-05-14T17:06:37.627Z</time>
      </trkpt>
      <trkpt lat="39.55117333" lon="2.60012667">
        <ele>7.0</ele>
        <time>2022-05-14T17:06:38.626Z</time>
      </trkpt>
      <trkpt lat="39.551205" lon="2.60015833">
        <ele>7.0</ele>
        <time>2022-05-14T17:06:39.627Z</time>
      </trkpt>
      <trkpt lat="39.55124833" lon="2.60019333">
        <ele>7.0</ele>
        <time>2022-05-14T17:06:40.627Z</time>
      </trkpt>
      <trkpt lat="39.55127833" lon="2.60021833">
        <ele>7.0</ele>
        <time>2022-05-14T17:06:41.627Z</time>
      </trkpt>
      <trkpt lat="39.551315" lon="2.60024333">
        <ele>7.0</ele>
        <time>2022-05-14T17:06:42.627Z</time>
      </trkpt>
      <trkpt lat="39.55136" lon="2.60028">
        <ele>6.0</ele>
        <time>2022-05-14T17:06:43.627Z</time>
      </trkpt>
      <trkpt lat="39.551395" lon="2.60030833">
        <ele>6.0</ele>
        <time>2022-05-14T17:06:44.626Z</time>
      </trkpt>
      <trkpt lat="39.55142167" lon="2.600335">
        <ele>6.0</ele>
        <time>2022-05-14T17:06:45.627Z</time>
      </trkpt>
      <trkpt lat="39.55145333" lon="2.60037">
        <ele>6.0</ele>
        <time>2022-05-14T17:06:46.627Z</time>
      </trkpt>
      <trkpt lat="39.55148333" lon="2.60040833">
        <ele>5.0</ele>
        <time>2022-05-14T17:06:47.627Z</time>
      </trkpt>
      <trkpt lat="39.55151167" lon="2.60044833">
        <ele>5.0</ele>
        <time>2022-05-14T17:06:48.627Z</time>
      </trkpt>
      <trkpt lat="39.551535" lon="2.60049167">
        <ele>6.0</ele>
        <time>2022-05-14T17:06:49.626Z</time>
      </trkpt>
      <trkpt lat="39.55156333" lon="2.60053333">
        <ele>6.0</ele>
        <time>2022-05-14T17:06:50.626Z</time>
      </trkpt>
      <trkpt lat="39.55158667" lon="2.60057833">
        <ele>6.0</ele>
        <time>2022-05-14T17:06:51.627Z</time>
      </trkpt>
      <trkpt lat="39.55161" lon="2.600625">
        <ele>6.0</ele>
        <time>2022-05-14T17:06:52.627Z</time>
      </trkpt>
      <trkpt lat="39.55163" lon="2.60067333">
        <ele>7.0</ele>
        <time>2022-05-14T17:06:53.626Z</time>
      </trkpt>
      <trkpt lat="39.55165167" lon="2.60071667">
        <ele>7.0</ele>
        <time>2022-05-14T17:06:54.627Z</time>
      </trkpt>
      <trkpt lat="39.551665" lon="2.60076667">
        <ele>7.0</ele>
        <time>2022-05-14T17:06:55.627Z</time>
      </trkpt>
      <trkpt lat="39.55168333" lon="2.600815">
        <ele>8.0</ele>
        <time>2022-05-14T17:06:56.627Z</time>
      </trkpt>
      <trkpt lat="39.55170167" lon="2.60086333">
        <ele>8.0</ele>
        <time>2022-05-14T17:06:57.626Z</time>
      </trkpt>
      <trkpt lat="39.55172167" lon="2.60090833">
        <ele>8.0</ele>
        <time>2022-05-14T17:06:58.627Z</time>
      </trkpt>
      <trkpt lat="39.55174167" lon="2.60095167">
        <ele>9.0</ele>
        <time>2022-05-14T17:06:59.626Z</time>
      </trkpt>
      <trkpt lat="39.55176" lon="2.600995">
        <ele>10.0</ele>
        <time>2022-05-14T17:07:00.627Z</time>
      </trkpt>
      <trkpt lat="39.55177667" lon="2.60104">
        <ele>11.0</ele>
        <time>2022-05-14T17:07:01.627Z</time>
      </trkpt>
      <trkpt lat="39.55179167" lon="2.60108167">
        <ele>11.0</ele>
        <time>2022-05-14T17:07:02.626Z</time>
      </trkpt>
      <trkpt lat="39.55180333" lon="2.60112">
        <ele>11.0</ele>
        <time>2022-05-14T17:07:03.626Z</time>
      </trkpt>
      <trkpt lat="39.551815" lon="2.60115833">
        <ele>11.0</ele>
        <time>2022-05-14T17:07:04.626Z</time>
      </trkpt>
      <trkpt lat="39.55182667" lon="2.60119">
        <ele>11.0</ele>
        <time>2022-05-14T17:07:05.627Z</time>
      </trkpt>
      <trkpt lat="39.55184" lon="2.60122167">
        <ele>11.0</ele>
        <time>2022-05-14T17:07:06.627Z</time>
      </trkpt>
      <trkpt lat="39.551855" lon="2.601255">
        <ele>11.0</ele>
        <time>2022-05-14T17:07:07.626Z</time>
      </trkpt>
      <trkpt lat="39.55187333" lon="2.60129">
        <ele>11.0</ele>
        <time>2022-05-14T17:07:08.627Z</time>
      </trkpt>
      <trkpt lat="39.55188833" lon="2.601325">
        <ele>11.0</ele>
        <time>2022-05-14T17:07:09.627Z</time>
      </trkpt>
      <trkpt lat="39.55189667" lon="2.601355">
        <ele>12.0</ele>
        <time>2022-05-14T17:07:10.627Z</time>
      </trkpt>
      <trkpt lat="39.55190333" lon="2.601385">
        <ele>12.0</ele>
        <time>2022-05-14T17:07:11.627Z</time>
      </trkpt>
      <trkpt lat="39.55191167" lon="2.60141333">
        <ele>12.0</ele>
        <time>2022-05-14T17:07:12.627Z</time>
      </trkpt>
      <trkpt lat="39.55191833" lon="2.60144167">
        <ele>12.0</ele>
        <time>2022-05-14T17:07:13.627Z</time>
      </trkpt>
      <trkpt lat="39.55192833" lon="2.601465">
        <ele>12.0</ele>
        <time>2022-05-14T17:07:14.627Z</time>
      </trkpt>
      <trkpt lat="39.55193833" lon="2.60149">
        <ele>12.0</ele>
        <time>2022-05-14T17:07:15.627Z</time>
      </trkpt>
      <trkpt lat="39.55195" lon="2.60151667">
        <ele>12.0</ele>
        <time>2022-05-14T17:07:16.627Z</time>
      </trkpt>
      <trkpt lat="39.55196333" lon="2.601545">
        <ele>13.0</ele>
        <time>2022-05-14T17:07:17.626Z</time>
      </trkpt>
      <trkpt lat="39.55197667" lon="2.60157167">
        <ele>13.0</ele>
        <time>2022-05-14T17:07:18.626Z</time>
      </trkpt>
      <trkpt lat="39.55199167" lon="2.601605">
        <ele>12.0</ele>
        <time>2022-05-14T17:07:19.627Z</time>
      </trkpt>
      <trkpt lat="39.55200667" lon="2.601645">
        <ele>13.0</ele>
        <time>2022-05-14T17:07:20.627Z</time>
      </trkpt>
      <trkpt lat="39.55202167" lon="2.60168833">
        <ele>13.0</ele>
        <time>2022-05-14T17:07:21.627Z</time>
      </trkpt>
      <trkpt lat="39.55203667" lon="2.60172833">
        <ele>13.0</ele>
        <time>2022-05-14T17:07:22.626Z</time>
      </trkpt>
      <trkpt lat="39.55205167" lon="2.60176667">
        <ele>13.0</ele>
        <time>2022-05-14T17:07:23.627Z</time>
      </trkpt>
      <trkpt lat="39.55206833" lon="2.6018">
        <ele>12.0</ele>
        <time>2022-05-14T17:07:24.627Z</time>
      </trkpt>
      <trkpt lat="39.552085" lon="2.60184">
        <ele>12.0</ele>
        <time>2022-05-14T17:07:25.627Z</time>
      </trkpt>
      <trkpt lat="39.55210167" lon="2.60188">
        <ele>12.0</ele>
        <time>2022-05-14T17:07:26.627Z</time>
      </trkpt>
      <trkpt lat="39.55211833" lon="2.60191833">
        <ele>12.0</ele>
        <time>2022-05-14T17:07:27.627Z</time>
      </trkpt>
      <trkpt lat="39.552135" lon="2.60195833">
        <ele>12.0</ele>
        <time>2022-05-14T17:07:28.627Z</time>
      </trkpt>
      <trkpt lat="39.55215167" lon="2.60199833">
        <ele>13.0</ele>
        <time>2022-05-14T17:07:29.627Z</time>
      </trkpt>
      <trkpt lat="39.55216833" lon="2.60203833">
        <ele>13.0</ele>
        <time>2022-05-14T17:07:30.627Z</time>
      </trkpt>
      <trkpt lat="39.55218333" lon="2.60207833">
        <ele>13.0</ele>
        <time>2022-05-14T17:07:31.626Z</time>
      </trkpt>
      <trkpt lat="39.5522" lon="2.60212833">
        <ele>14.0</ele>
        <time>2022-05-14T17:07:32.626Z</time>
      </trkpt>
      <trkpt lat="39.55221167" lon="2.60216333">
        <ele>14.0</ele>
        <time>2022-05-14T17:07:33.627Z</time>
      </trkpt>
      <trkpt lat="39.552225" lon="2.6022">
        <ele>14.0</ele>
        <time>2022-05-14T17:07:34.626Z</time>
      </trkpt>
      <trkpt lat="39.55223667" lon="2.60223333">
        <ele>14.0</ele>
        <time>2022-05-14T17:07:35.627Z</time>
      </trkpt>
      <trkpt lat="39.552245" lon="2.60226">
        <ele>14.0</ele>
        <time>2022-05-14T17:07:36.627Z</time>
      </trkpt>
      <trkpt lat="39.55226333" lon="2.602295">
        <ele>14.0</ele>
        <time>2022-05-14T17:07:37.627Z</time>
      </trkpt>
      <trkpt lat="39.55227667" lon="2.60232833">
        <ele>14.0</ele>
        <time>2022-05-14T17:07:38.627Z</time>
      </trkpt>
      <trkpt lat="39.55229" lon="2.602355">
        <ele>14.0</ele>
        <time>2022-05-14T17:07:39.627Z</time>
      </trkpt>
      <trkpt lat="39.552305" lon="2.60238833">
        <ele>14.0</ele>
        <time>2022-05-14T17:07:40.627Z</time>
      </trkpt>
      <trkpt lat="39.552325" lon="2.60243167">
        <ele>14.0</ele>
        <time>2022-05-14T17:07:41.626Z</time>
      </trkpt>
      <trkpt lat="39.55234167" lon="2.60247167">
        <ele>15.0</ele>
        <time>2022-05-14T17:07:42.626Z</time>
      </trkpt>
      <trkpt lat="39.55235833" lon="2.602515">
        <ele>15.0</ele>
        <time>2022-05-14T17:07:43.627Z</time>
      </trkpt>
      <trkpt lat="39.552375" lon="2.60255167">
        <ele>15.0</ele>
        <time>2022-05-14T17:07:44.626Z</time>
      </trkpt>
      <trkpt lat="39.552395" lon="2.60260167">
        <ele>15.0</ele>
        <time>2022-05-14T17:07:45.626Z</time>
      </trkpt>
      <trkpt lat="39.55241667" lon="2.602655">
        <ele>16.0</ele>
        <time>2022-05-14T17:07:46.626Z</time>
      </trkpt>
      <trkpt lat="39.55244333" lon="2.60272667">
        <ele>16.0</ele>
        <time>2022-05-14T17:07:47.627Z</time>
      </trkpt>
      <trkpt lat="39.55247" lon="2.60279">
        <ele>16.0</ele>
        <time>2022-05-14T17:07:48.626Z</time>
      </trkpt>
      <trkpt lat="39.55249" lon="2.602845">
        <ele>16.0</ele>
        <time>2022-05-14T17:07:49.627Z</time>
      </trkpt>
      <trkpt lat="39.55252167" lon="2.60292667">
        <ele>16.0</ele>
        <time>2022-05-14T17:07:50.627Z</time>
      </trkpt>
      <trkpt lat="39.55254333" lon="2.60299">
        <ele>16.0</ele>
        <time>2022-05-14T17:07:51.627Z</time>
      </trkpt>
      <trkpt lat="39.55257" lon="2.60308833">
        <ele>16.0</ele>
        <time>2022-05-14T17:07:52.627Z</time>
      </trkpt>
      <trkpt lat="39.55258333" lon="2.60315833">
        <ele>16.0</ele>
        <time>2022-05-14T17:07:53.626Z</time>
      </trkpt>
      <trkpt lat="39.552595" lon="2.603245">
        <ele>16.0</ele>
        <time>2022-05-14T17:07:54.627Z</time>
      </trkpt>
      <trkpt lat="39.55260167" lon="2.603355">
        <ele>16.0</ele>
        <time>2022-05-14T17:07:55.626Z</time>
      </trkpt>
      <trkpt lat="39.55259833" lon="2.60344833">
        <ele>16.0</ele>
        <time>2022-05-14T17:07:56.626Z</time>
      </trkpt>
      <trkpt lat="39.55259333" lon="2.60354333">
        <ele>16.0</ele>
        <time>2022-05-14T17:07:57.627Z</time>
      </trkpt>
      <trkpt lat="39.55258833" lon="2.60361667">
        <ele>15.0</ele>
        <time>2022-05-14T17:07:58.627Z</time>
      </trkpt>
      <trkpt lat="39.55257833" lon="2.60373333">
        <ele>14.0</ele>
        <time>2022-05-14T17:07:59.626Z</time>
      </trkpt>
      <trkpt lat="39.55257" lon="2.60382667">
        <ele>14.0</ele>
        <time>2022-05-14T17:08:00.627Z</time>
      </trkpt>
      <trkpt lat="39.55256" lon="2.60392333">
        <ele>13.0</ele>
        <time>2022-05-14T17:08:01.627Z</time>
      </trkpt>
      <trkpt lat="39.55255" lon="2.60400667">
        <ele>12.0</ele>
        <time>2022-05-14T17:08:02.627Z</time>
      </trkpt>
      <trkpt lat="39.55254" lon="2.60410833">
        <ele>12.0</ele>
        <time>2022-05-14T17:08:03.627Z</time>
      </trkpt>
      <trkpt lat="39.55253667" lon="2.60422167">
        <ele>11.0</ele>
        <time>2022-05-14T17:08:04.626Z</time>
      </trkpt>
      <trkpt lat="39.55253167" lon="2.60431833">
        <ele>10.0</ele>
        <time>2022-05-14T17:08:05.627Z</time>
      </trkpt>
      <trkpt lat="39.552535" lon="2.60441833">
        <ele>10.0</ele>
        <time>2022-05-14T17:08:06.627Z</time>
      </trkpt>
      <trkpt lat="39.55254167" lon="2.604495">
        <ele>9.0</ele>
        <time>2022-05-14T17:08:07.627Z</time>
      </trkpt>
      <trkpt lat="39.55256667" lon="2.604605">
        <ele>9.0</ele>
        <time>2022-05-14T17:08:08.626Z</time>
      </trkpt>
      <trkpt lat="39.55259667" lon="2.60467833">
        <ele>8.0</ele>
        <time>2022-05-14T17:08:09.627Z</time>
      </trkpt>
      <trkpt lat="39.55264333" lon="2.60475667">
        <ele>8.0</ele>
        <time>2022-05-14T17:08:10.626Z</time>
      </trkpt>
      <trkpt lat="39.55270167" lon="2.60482667">
        <ele>7.0</ele>
        <time>2022-05-14T17:08:11.626Z</time>
      </trkpt>
      <trkpt lat="39.55277" lon="2.60488">
        <ele>7.0</ele>
        <time>2022-05-14T17:08:12.626Z</time>
      </trkpt>
      <trkpt lat="39.552855" lon="2.60492667">
        <ele>7.0</ele>
        <time>2022-05-14T17:08:13.627Z</time>
      </trkpt>
      <trkpt lat="39.55293167" lon="2.60494667">
        <ele>7.0</ele>
        <time>2022-05-14T17:08:14.627Z</time>
      </trkpt>
      <trkpt lat="39.553005" lon="2.60495833">
        <ele>7.0</ele>
        <time>2022-05-14T17:08:15.627Z</time>
      </trkpt>
      <trkpt lat="39.553065" lon="2.60495833">
        <ele>7.0</ele>
        <time>2022-05-14T17:08:16.627Z</time>
      </trkpt>
      <trkpt lat="39.553135" lon="2.60496167">
        <ele>7.0</ele>
        <time>2022-05-14T17:08:17.627Z</time>
      </trkpt>
      <trkpt lat="39.55321333" lon="2.60496333">
        <ele>6.0</ele>
        <time>2022-05-14T17:08:18.626Z</time>
      </trkpt>
      <trkpt lat="39.55327833" lon="2.60495833">
        <ele>6.0</ele>
        <time>2022-05-14T17:08:19.626Z</time>
      </trkpt>
      <trkpt lat="39.55332833" lon="2.60495333">
        <ele>6.0</ele>
        <time>2022-05-14T17:08:20.627Z</time>
      </trkpt>
      <trkpt lat="39.55340833" lon="2.60493667">
        <ele>6.0</ele>
        <time>2022-05-14T17:08:21.626Z</time>
      </trkpt>
      <trkpt lat="39.55349667" lon="2.60493167">
        <ele>6.0</ele>
        <time>2022-05-14T17:08:22.627Z</time>
      </trkpt>
      <trkpt lat="39.55356167" lon="2.60494667">
        <ele>6.0</ele>
        <time>2022-05-14T17:08:23.627Z</time>
      </trkpt>
      <trkpt lat="39.55361667" lon="2.60497333">
        <ele>6.0</ele>
        <time>2022-05-14T17:08:24.626Z</time>
      </trkpt>
      <trkpt lat="39.55368" lon="2.60501333">
        <ele>6.0</ele>
        <time>2022-05-14T17:08:25.627Z</time>
      </trkpt>
      <trkpt lat="39.55375167" lon="2.60507833">
        <ele>6.0</ele>
        <time>2022-05-14T17:08:26.626Z</time>
      </trkpt>
      <trkpt lat="39.55379667" lon="2.60514667">
        <ele>6.0</ele>
        <time>2022-05-14T17:08:27.627Z</time>
      </trkpt>
      <trkpt lat="39.55382333" lon="2.605225">
        <ele>6.0</ele>
        <time>2022-05-14T17:08:28.627Z</time>
      </trkpt>
      <trkpt lat="39.55383167" lon="2.60529">
        <ele>5.0</ele>
        <time>2022-05-14T17:08:29.627Z</time>
      </trkpt>
      <trkpt lat="39.55383667" lon="2.60537">
        <ele>5.0</ele>
        <time>2022-05-14T17:08:30.627Z</time>
      </trkpt>
      <trkpt lat="39.55383667" lon="2.605445">
        <ele>5.0</ele>
        <time>2022-05-14T17:08:31.627Z</time>
      </trkpt>
      <trkpt lat="39.55382667" lon="2.605515">
        <ele>5.0</ele>
        <time>2022-05-14T17:08:32.627Z</time>
      </trkpt>
      <trkpt lat="39.55380167" lon="2.60557667">
        <ele>4.0</ele>
        <time>2022-05-14T17:08:33.626Z</time>
      </trkpt>
      <trkpt lat="39.55377167" lon="2.60563833">
        <ele>3.0</ele>
        <time>2022-05-14T17:08:34.627Z</time>
      </trkpt>
      <trkpt lat="39.55374667" lon="2.60567667">
        <ele>3.0</ele>
        <time>2022-05-14T17:08:35.627Z</time>
      </trkpt>
      <trkpt lat="39.55372" lon="2.60572833">
        <ele>2.0</ele>
        <time>2022-05-14T17:08:36.627Z</time>
      </trkpt>
      <trkpt lat="39.55369667" lon="2.60577333">
        <ele>3.0</ele>
        <time>2022-05-14T17:08:37.627Z</time>
      </trkpt>
      <trkpt lat="39.55367167" lon="2.60581833">
        <ele>3.0</ele>
        <time>2022-05-14T17:08:38.627Z</time>
      </trkpt>
      <trkpt lat="39.55365167" lon="2.60586">
        <ele>3.0</ele>
        <time>2022-05-14T17:08:39.627Z</time>
      </trkpt>
      <trkpt lat="39.55363" lon="2.60589833">
        <ele>3.0</ele>
        <time>2022-05-14T17:08:40.626Z</time>
      </trkpt>
      <trkpt lat="39.55361333" lon="2.60594">
        <ele>4.0</ele>
        <time>2022-05-14T17:08:41.627Z</time>
      </trkpt>
      <trkpt lat="39.553595" lon="2.60598">
        <ele>4.0</ele>
        <time>2022-05-14T17:08:42.627Z</time>
      </trkpt>
      <trkpt lat="39.553575" lon="2.60601667">
        <ele>4.0</ele>
        <time>2022-05-14T17:08:43.627Z</time>
      </trkpt>
      <trkpt lat="39.553555" lon="2.60605333">
        <ele>4.0</ele>
        <time>2022-05-14T17:08:44.627Z</time>
      </trkpt>
      <trkpt lat="39.55353333" lon="2.60609">
        <ele>4.0</ele>
        <time>2022-05-14T17:08:45.627Z</time>
      </trkpt>
      <trkpt lat="39.55351333" lon="2.60612167">
        <ele>4.0</ele>
        <time>2022-05-14T17:08:46.627Z</time>
      </trkpt>
      <trkpt lat="39.55349" lon="2.60615667">
        <ele>5.0</ele>
        <time>2022-05-14T17:08:47.627Z</time>
      </trkpt>
      <trkpt lat="39.55346667" lon="2.60618833">
        <ele>6.0</ele>
        <time>2022-05-14T17:08:48.627Z</time>
      </trkpt>
      <trkpt lat="39.553445" lon="2.60621833">
        <ele>6.0</ele>
        <time>2022-05-14T17:08:49.627Z</time>
      </trkpt>
      <trkpt lat="39.55342167" lon="2.60624833">
        <ele>6.0</ele>
        <time>2022-05-14T17:08:50.626Z</time>
      </trkpt>
      <trkpt lat="39.55339667" lon="2.60627667">
        <ele>6.0</ele>
        <time>2022-05-14T17:08:51.627Z</time>
      </trkpt>
      <trkpt lat="39.55337333" lon="2.60630667">
        <ele>7.0</ele>
        <time>2022-05-14T17:08:52.627Z</time>
      </trkpt>
      <trkpt lat="39.55334833" lon="2.60633167">
        <ele>7.0</ele>
        <time>2022-05-14T17:08:53.627Z</time>
      </trkpt>
      <trkpt lat="39.55332" lon="2.60635667">
        <ele>8.0</ele>
        <time>2022-05-14T17:08:54.626Z</time>
      </trkpt>
      <trkpt lat="39.55329667" lon="2.60638833">
        <ele>8.0</ele>
        <time>2022-05-14T17:08:55.627Z</time>
      </trkpt>
      <trkpt lat="39.55327667" lon="2.60640833">
        <ele>9.0</ele>
        <time>2022-05-14T17:08:56.627Z</time>
      </trkpt>
      <trkpt lat="39.55326" lon="2.60643667">
        <ele>9.0</ele>
        <time>2022-05-14T17:08:57.626Z</time>
      </trkpt>
      <trkpt lat="39.55324" lon="2.60646833">
        <ele>8.0</ele>
        <time>2022-05-14T17:08:58.627Z</time>
      </trkpt>
      <trkpt lat="39.553215" lon="2.60650167">
        <ele>8.0</ele>
        <time>2022-05-14T17:08:59.626Z</time>
      </trkpt>
      <trkpt lat="39.55318333" lon="2.60652833">
        <ele>8.0</ele>
        <time>2022-05-14T17:09:00.626Z</time>
      </trkpt>
      <trkpt lat="39.55315333" lon="2.60655667">
        <ele>7.0</ele>
        <time>2022-05-14T17:09:01.626Z</time>
      </trkpt>
      <trkpt lat="39.55312333" lon="2.60658667">
        <ele>7.0</ele>
        <time>2022-05-14T17:09:02.627Z</time>
      </trkpt>
      <trkpt lat="39.5531" lon="2.60661333">
        <ele>8.0</ele>
        <time>2022-05-14T17:09:03.627Z</time>
      </trkpt>
      <trkpt lat="39.55307333" lon="2.60664167">
        <ele>8.0</ele>
        <time>2022-05-14T17:09:04.626Z</time>
      </trkpt>
      <trkpt lat="39.55304667" lon="2.60667">
        <ele>8.0</ele>
        <time>2022-05-14T17:09:05.626Z</time>
      </trkpt>
      <trkpt lat="39.55302167" lon="2.606705">
        <ele>9.0</ele>
        <time>2022-05-14T17:09:06.626Z</time>
      </trkpt>
      <trkpt lat="39.55299667" lon="2.60673833">
        <ele>9.0</ele>
        <time>2022-05-14T17:09:07.627Z</time>
      </trkpt>
      <trkpt lat="39.552975" lon="2.60677333">
        <ele>9.0</ele>
        <time>2022-05-14T17:09:08.626Z</time>
      </trkpt>
      <trkpt lat="39.55295667" lon="2.60681">
        <ele>10.0</ele>
        <time>2022-05-14T17:09:09.627Z</time>
      </trkpt>
      <trkpt lat="39.55293833" lon="2.60685167">
        <ele>10.0</ele>
        <time>2022-05-14T17:09:10.626Z</time>
      </trkpt>
      <trkpt lat="39.55292333" lon="2.60689">
        <ele>11.0</ele>
        <time>2022-05-14T17:09:11.626Z</time>
      </trkpt>
      <trkpt lat="39.55291" lon="2.60692833">
        <ele>10.0</ele>
        <time>2022-05-14T17:09:12.627Z</time>
      </trkpt>
      <trkpt lat="39.5529" lon="2.60696667">
        <ele>10.0</ele>
        <time>2022-05-14T17:09:13.627Z</time>
      </trkpt>
      <trkpt lat="39.55289" lon="2.60700833">
        <ele>10.0</ele>
        <time>2022-05-14T17:09:14.627Z</time>
      </trkpt>
      <trkpt lat="39.552885" lon="2.60705">
        <ele>10.0</ele>
        <time>2022-05-14T17:09:15.626Z</time>
      </trkpt>
      <trkpt lat="39.55288" lon="2.60709333">
        <ele>10.0</ele>
        <time>2022-05-14T17:09:16.627Z</time>
      </trkpt>
      <trkpt lat="39.55287167" lon="2.607135">
        <ele>10.0</ele>
        <time>2022-05-14T17:09:17.626Z</time>
      </trkpt>
      <trkpt lat="39.552865" lon="2.60717833">
        <ele>10.0</ele>
        <time>2022-05-14T17:09:18.627Z</time>
      </trkpt>
      <trkpt lat="39.55285667" lon="2.60722167">
        <ele>10.0</ele>
        <time>2022-05-14T17:09:19.627Z</time>
      </trkpt>
      <trkpt lat="39.55285167" lon="2.60726167">
        <ele>10.0</ele>
        <time>2022-05-14T17:09:20.627Z</time>
      </trkpt>
      <trkpt lat="39.55284667" lon="2.60730667">
        <ele>11.0</ele>
        <time>2022-05-14T17:09:21.627Z</time>
      </trkpt>
      <trkpt lat="39.55284333" lon="2.60735">
        <ele>11.0</ele>
        <time>2022-05-14T17:09:22.626Z</time>
      </trkpt>
      <trkpt lat="39.55283667" lon="2.60739167">
        <ele>10.0</ele>
        <time>2022-05-14T17:09:23.627Z</time>
      </trkpt>
      <trkpt lat="39.55283167" lon="2.60743667">
        <ele>11.0</ele>
        <time>2022-05-14T17:09:24.627Z</time>
      </trkpt>
      <trkpt lat="39.55282667" lon="2.60748">
        <ele>11.0</ele>
        <time>2022-05-14T17:09:25.626Z</time>
      </trkpt>
      <trkpt lat="39.55282" lon="2.607525">
        <ele>11.0</ele>
        <time>2022-05-14T17:09:26.626Z</time>
      </trkpt>
      <trkpt lat="39.55281333" lon="2.60757">
        <ele>12.0</ele>
        <time>2022-05-14T17:09:27.626Z</time>
      </trkpt>
      <trkpt lat="39.55280833" lon="2.60761333">
        <ele>12.0</ele>
        <time>2022-05-14T17:09:28.627Z</time>
      </trkpt>
      <trkpt lat="39.55280167" lon="2.60765833">
        <ele>13.0</ele>
        <time>2022-05-14T17:09:29.626Z</time>
      </trkpt>
      <trkpt lat="39.552795" lon="2.60770333">
        <ele>13.0</ele>
        <time>2022-05-14T17:09:30.626Z</time>
      </trkpt>
      <trkpt lat="39.55279" lon="2.60774833">
        <ele>14.0</ele>
        <time>2022-05-14T17:09:31.627Z</time>
      </trkpt>
      <trkpt lat="39.552785" lon="2.60779333">
        <ele>14.0</ele>
        <time>2022-05-14T17:09:32.627Z</time>
      </trkpt>
      <trkpt lat="39.55278" lon="2.60784">
        <ele>15.0</ele>
        <time>2022-05-14T17:09:33.626Z</time>
      </trkpt>
      <trkpt lat="39.55277333" lon="2.60788167">
        <ele>15.0</ele>
        <time>2022-05-14T17:09:34.627Z</time>
      </trkpt>
      <trkpt lat="39.55275833" lon="2.60792667">
        <ele>15.0</ele>
        <time>2022-05-14T17:09:35.627Z</time>
      </trkpt>
      <trkpt lat="39.55274333" lon="2.60797">
        <ele>16.0</ele>
        <time>2022-05-14T17:09:36.627Z</time>
      </trkpt>
      <trkpt lat="39.55272333" lon="2.60801">
        <ele>16.0</ele>
        <time>2022-05-14T17:09:37.627Z</time>
      </trkpt>
      <trkpt lat="39.55269833" lon="2.60804833">
        <ele>16.0</ele>
        <time>2022-05-14T17:09:38.627Z</time>
      </trkpt>
      <trkpt lat="39.55267167" lon="2.60808">
        <ele>16.0</ele>
        <time>2022-05-14T17:09:39.627Z</time>
      </trkpt>
      <trkpt lat="39.552645" lon="2.60811167">
        <ele>15.0</ele>
        <time>2022-05-14T17:09:40.627Z</time>
      </trkpt>
      <trkpt lat="39.55261667" lon="2.60814167">
        <ele>15.0</ele>
        <time>2022-05-14T17:09:41.627Z</time>
      </trkpt>
      <trkpt lat="39.55258333" lon="2.60817333">
        <ele>14.0</ele>
        <time>2022-05-14T17:09:42.627Z</time>
      </trkpt>
      <trkpt lat="39.55255167" lon="2.60820167">
        <ele>14.0</ele>
        <time>2022-05-14T17:09:43.627Z</time>
      </trkpt>
      <trkpt lat="39.55251833" lon="2.60821667">
        <ele>14.0</ele>
        <time>2022-05-14T17:09:44.626Z</time>
      </trkpt>
      <trkpt lat="39.55248167" lon="2.60823833">
        <ele>13.0</ele>
        <time>2022-05-14T17:09:45.627Z</time>
      </trkpt>
      <trkpt lat="39.552445" lon="2.60825">
        <ele>13.0</ele>
        <time>2022-05-14T17:09:46.627Z</time>
      </trkpt>
      <trkpt lat="39.55240667" lon="2.60826167">
        <ele>13.0</ele>
        <time>2022-05-14T17:09:47.627Z</time>
      </trkpt>
      <trkpt lat="39.55236667" lon="2.60827">
        <ele>13.0</ele>
        <time>2022-05-14T17:09:48.627Z</time>
      </trkpt>
      <trkpt lat="39.55232833" lon="2.608285">
        <ele>13.0</ele>
        <time>2022-05-14T17:09:49.627Z</time>
      </trkpt>
      <trkpt lat="39.55229" lon="2.60830167">
        <ele>12.0</ele>
        <time>2022-05-14T17:09:50.627Z</time>
      </trkpt>
      <trkpt lat="39.55225167" lon="2.60831833">
        <ele>12.0</ele>
        <time>2022-05-14T17:09:51.627Z</time>
      </trkpt>
      <trkpt lat="39.552215" lon="2.60833833">
        <ele>12.0</ele>
        <time>2022-05-14T17:09:52.627Z</time>
      </trkpt>
      <trkpt lat="39.55218" lon="2.60836167">
        <ele>12.0</ele>
        <time>2022-05-14T17:09:53.627Z</time>
      </trkpt>
      <trkpt lat="39.552145" lon="2.608385">
        <ele>11.0</ele>
        <time>2022-05-14T17:09:54.627Z</time>
      </trkpt>
      <trkpt lat="39.55211167" lon="2.60841667">
        <ele>11.0</ele>
        <time>2022-05-14T17:09:55.627Z</time>
      </trkpt>
      <trkpt lat="39.55207833" lon="2.608445">
        <ele>11.0</ele>
        <time>2022-05-14T17:09:56.626Z</time>
      </trkpt>
      <trkpt lat="39.55204333" lon="2.60847">
        <ele>10.0</ele>
        <time>2022-05-14T17:09:57.627Z</time>
      </trkpt>
      <trkpt lat="39.55201333" lon="2.608495">
        <ele>10.0</ele>
        <time>2022-05-14T17:09:58.627Z</time>
      </trkpt>
      <trkpt lat="39.55198667" lon="2.60852333">
        <ele>10.0</ele>
        <time>2022-05-14T17:09:59.627Z</time>
      </trkpt>
      <trkpt lat="39.55196" lon="2.60855333">
        <ele>11.0</ele>
        <time>2022-05-14T17:10:00.627Z</time>
      </trkpt>
      <trkpt lat="39.551935" lon="2.60858333">
        <ele>11.0</ele>
        <time>2022-05-14T17:10:01.627Z</time>
      </trkpt>
      <trkpt lat="39.55190333" lon="2.60861833">
        <ele>11.0</ele>
        <time>2022-05-14T17:10:02.627Z</time>
      </trkpt>
      <trkpt lat="39.55188333" lon="2.60864333">
        <ele>12.0</ele>
        <time>2022-05-14T17:10:03.627Z</time>
      </trkpt>
      <trkpt lat="39.551855" lon="2.60867167">
        <ele>12.0</ele>
        <time>2022-05-14T17:10:04.627Z</time>
      </trkpt>
      <trkpt lat="39.55182167" lon="2.60870333">
        <ele>12.0</ele>
        <time>2022-05-14T17:10:05.626Z</time>
      </trkpt>
      <trkpt lat="39.55178833" lon="2.60873333">
        <ele>12.0</ele>
        <time>2022-05-14T17:10:06.627Z</time>
      </trkpt>
      <trkpt lat="39.55175333" lon="2.60876333">
        <ele>13.0</ele>
        <time>2022-05-14T17:10:07.627Z</time>
      </trkpt>
      <trkpt lat="39.55172167" lon="2.60879667">
        <ele>13.0</ele>
        <time>2022-05-14T17:10:08.627Z</time>
      </trkpt>
      <trkpt lat="39.55168833" lon="2.60883167">
        <ele>13.0</ele>
        <time>2022-05-14T17:10:09.627Z</time>
      </trkpt>
      <trkpt lat="39.55166" lon="2.60887">
        <ele>13.0</ele>
        <time>2022-05-14T17:10:10.627Z</time>
      </trkpt>
      <trkpt lat="39.55163167" lon="2.60890667">
        <ele>12.0</ele>
        <time>2022-05-14T17:10:11.626Z</time>
      </trkpt>
      <trkpt lat="39.55160667" lon="2.608945">
        <ele>12.0</ele>
        <time>2022-05-14T17:10:12.626Z</time>
      </trkpt>
      <trkpt lat="39.55158" lon="2.608985">
        <ele>12.0</ele>
        <time>2022-05-14T17:10:13.627Z</time>
      </trkpt>
      <trkpt lat="39.55156" lon="2.60902333">
        <ele>12.0</ele>
        <time>2022-05-14T17:10:14.627Z</time>
      </trkpt>
      <trkpt lat="39.55153833" lon="2.60906167">
        <ele>11.0</ele>
        <time>2022-05-14T17:10:15.627Z</time>
      </trkpt>
      <trkpt lat="39.55152" lon="2.60910667">
        <ele>10.0</ele>
        <time>2022-05-14T17:10:16.627Z</time>
      </trkpt>
      <trkpt lat="39.55150333" lon="2.60915333">
        <ele>10.0</ele>
        <time>2022-05-14T17:10:17.627Z</time>
      </trkpt>
      <trkpt lat="39.55148667" lon="2.6092">
        <ele>10.0</ele>
        <time>2022-05-14T17:10:18.627Z</time>
      </trkpt>
      <trkpt lat="39.55147333" lon="2.60925">
        <ele>10.0</ele>
        <time>2022-05-14T17:10:19.627Z</time>
      </trkpt>
      <trkpt lat="39.551465" lon="2.60930167">
        <ele>10.0</ele>
        <time>2022-05-14T17:10:20.627Z</time>
      </trkpt>
      <trkpt lat="39.55145167" lon="2.60935">
        <ele>11.0</ele>
        <time>2022-05-14T17:10:21.626Z</time>
      </trkpt>
      <trkpt lat="39.55143833" lon="2.60940333">
        <ele>11.0</ele>
        <time>2022-05-14T17:10:22.627Z</time>
      </trkpt>
      <trkpt lat="39.55143" lon="2.60945">
        <ele>11.0</ele>
        <time>2022-05-14T17:10:23.627Z</time>
      </trkpt>
      <trkpt lat="39.55142" lon="2.609495">
        <ele>11.0</ele>
        <time>2022-05-14T17:10:24.627Z</time>
      </trkpt>
      <trkpt lat="39.55140833" lon="2.60954667">
        <ele>12.0</ele>
        <time>2022-05-14T17:10:25.627Z</time>
      </trkpt>
      <trkpt lat="39.55139667" lon="2.60959833">
        <ele>13.0</ele>
        <time>2022-05-14T17:10:26.627Z</time>
      </trkpt>
      <trkpt lat="39.55138667" lon="2.60964333">
        <ele>13.0</ele>
        <time>2022-05-14T17:10:27.627Z</time>
      </trkpt>
      <trkpt lat="39.55137667" lon="2.60968833">
        <ele>13.0</ele>
        <time>2022-05-14T17:10:28.627Z</time>
      </trkpt>
      <trkpt lat="39.55136667" lon="2.60973">
        <ele>14.0</ele>
        <time>2022-05-14T17:10:29.627Z</time>
      </trkpt>
      <trkpt lat="39.55135333" lon="2.609775">
        <ele>14.0</ele>
        <time>2022-05-14T17:10:30.627Z</time>
      </trkpt>
      <trkpt lat="39.55134167" lon="2.60981667">
        <ele>14.0</ele>
        <time>2022-05-14T17:10:31.626Z</time>
      </trkpt>
      <trkpt lat="39.55133" lon="2.60985667">
        <ele>14.0</ele>
        <time>2022-05-14T17:10:32.627Z</time>
      </trkpt>
      <trkpt lat="39.55131833" lon="2.60989667">
        <ele>15.0</ele>
        <time>2022-05-14T17:10:33.627Z</time>
      </trkpt>
      <trkpt lat="39.55130667" lon="2.60993833">
        <ele>15.0</ele>
        <time>2022-05-14T17:10:34.627Z</time>
      </trkpt>
      <trkpt lat="39.551295" lon="2.60998167">
        <ele>16.0</ele>
        <time>2022-05-14T17:10:35.627Z</time>
      </trkpt>
      <trkpt lat="39.55128167" lon="2.61002167">
        <ele>16.0</ele>
        <time>2022-05-14T17:10:36.627Z</time>
      </trkpt>
      <trkpt lat="39.55126833" lon="2.61006">
        <ele>15.0</ele>
        <time>2022-05-14T17:10:37.627Z</time>
      </trkpt>
      <trkpt lat="39.551255" lon="2.61010167">
        <ele>15.0</ele>
        <time>2022-05-14T17:10:38.627Z</time>
      </trkpt>
      <trkpt lat="39.55124333" lon="2.61014333">
        <ele>15.0</ele>
        <time>2022-05-14T17:10:39.627Z</time>
      </trkpt>
      <trkpt lat="39.55123167" lon="2.610185">
        <ele>15.0</ele>
        <time>2022-05-14T17:10:40.627Z</time>
      </trkpt>
      <trkpt lat="39.55122167" lon="2.61022667">
        <ele>15.0</ele>
        <time>2022-05-14T17:10:41.626Z</time>
      </trkpt>
      <trkpt lat="39.55121333" lon="2.61026667">
        <ele>15.0</ele>
        <time>2022-05-14T17:10:42.627Z</time>
      </trkpt>
      <trkpt lat="39.55120167" lon="2.61030667">
        <ele>15.0</ele>
        <time>2022-05-14T17:10:43.627Z</time>
      </trkpt>
      <trkpt lat="39.55119167" lon="2.61034833">
        <ele>15.0</ele>
        <time>2022-05-14T17:10:44.626Z</time>
      </trkpt>
      <trkpt lat="39.55118167" lon="2.61039">
        <ele>15.0</ele>
        <time>2022-05-14T17:10:45.626Z</time>
      </trkpt>
      <trkpt lat="39.551175" lon="2.61043167">
        <ele>16.0</ele>
        <time>2022-05-14T17:10:46.627Z</time>
      </trkpt>
      <trkpt lat="39.55117" lon="2.61047667">
        <ele>16.0</ele>
        <time>2022-05-14T17:10:47.627Z</time>
      </trkpt>
      <trkpt lat="39.55116167" lon="2.61052">
        <ele>17.0</ele>
        <time>2022-05-14T17:10:48.627Z</time>
      </trkpt>
      <trkpt lat="39.55115667" lon="2.61056333">
        <ele>17.0</ele>
        <time>2022-05-14T17:10:49.627Z</time>
      </trkpt>
      <trkpt lat="39.55115167" lon="2.61060833">
        <ele>18.0</ele>
        <time>2022-05-14T17:10:50.627Z</time>
      </trkpt>
      <trkpt lat="39.55115167" lon="2.61065">
        <ele>19.0</ele>
        <time>2022-05-14T17:10:51.627Z</time>
      </trkpt>
      <trkpt lat="39.55115167" lon="2.61069">
        <ele>19.0</ele>
        <time>2022-05-14T17:10:52.627Z</time>
      </trkpt>
      <trkpt lat="39.551155" lon="2.610725">
        <ele>19.0</ele>
        <time>2022-05-14T17:10:53.627Z</time>
      </trkpt>
      <trkpt lat="39.55115667" lon="2.61076167">
        <ele>19.0</ele>
        <time>2022-05-14T17:10:54.626Z</time>
      </trkpt>
      <trkpt lat="39.55116167" lon="2.610795">
        <ele>18.0</ele>
        <time>2022-05-14T17:10:55.627Z</time>
      </trkpt>
      <trkpt lat="39.55117" lon="2.61082833">
        <ele>18.0</ele>
        <time>2022-05-14T17:10:56.626Z</time>
      </trkpt>
      <trkpt lat="39.55118" lon="2.61086333">
        <ele>18.0</ele>
        <time>2022-05-14T17:10:57.627Z</time>
      </trkpt>
      <trkpt lat="39.55119833" lon="2.61089667">
        <ele>18.0</ele>
        <time>2022-05-14T17:10:58.627Z</time>
      </trkpt>
      <trkpt lat="39.55121833" lon="2.61093333">
        <ele>18.0</ele>
        <time>2022-05-14T17:10:59.627Z</time>
      </trkpt>
      <trkpt lat="39.55123833" lon="2.61097">
        <ele>19.0</ele>
        <time>2022-05-14T17:11:00.627Z</time>
      </trkpt>
      <trkpt lat="39.55126167" lon="2.61100667">
        <ele>19.0</ele>
        <time>2022-05-14T17:11:01.627Z</time>
      </trkpt>
      <trkpt lat="39.55128667" lon="2.61104167">
        <ele>19.0</ele>
        <time>2022-05-14T17:11:02.627Z</time>
      </trkpt>
      <trkpt lat="39.55131167" lon="2.611075">
        <ele>19.0</ele>
        <time>2022-05-14T17:11:03.627Z</time>
      </trkpt>
      <trkpt lat="39.55133667" lon="2.61110667">
        <ele>19.0</ele>
        <time>2022-05-14T17:11:04.627Z</time>
      </trkpt>
      <trkpt lat="39.551365" lon="2.61113833">
        <ele>20.0</ele>
        <time>2022-05-14T17:11:05.627Z</time>
      </trkpt>
      <trkpt lat="39.55139167" lon="2.61117">
        <ele>20.0</ele>
        <time>2022-05-14T17:11:06.627Z</time>
      </trkpt>
      <trkpt lat="39.55142" lon="2.61120167">
        <ele>20.0</ele>
        <time>2022-05-14T17:11:07.627Z</time>
      </trkpt>
      <trkpt lat="39.55144833" lon="2.61123167">
        <ele>21.0</ele>
        <time>2022-05-14T17:11:08.627Z</time>
      </trkpt>
      <trkpt lat="39.55147667" lon="2.61126333">
        <ele>21.0</ele>
        <time>2022-05-14T17:11:09.626Z</time>
      </trkpt>
      <trkpt lat="39.551505" lon="2.611295">
        <ele>20.0</ele>
        <time>2022-05-14T17:11:10.626Z</time>
      </trkpt>
      <trkpt lat="39.55153333" lon="2.61132667">
        <ele>20.0</ele>
        <time>2022-05-14T17:11:11.627Z</time>
      </trkpt>
      <trkpt lat="39.55156167" lon="2.61136">
        <ele>20.0</ele>
        <time>2022-05-14T17:11:12.627Z</time>
      </trkpt>
      <trkpt lat="39.55158667" lon="2.61139667">
        <ele>20.0</ele>
        <time>2022-05-14T17:11:13.627Z</time>
      </trkpt>
      <trkpt lat="39.55161167" lon="2.61143333">
        <ele>20.0</ele>
        <time>2022-05-14T17:11:14.626Z</time>
      </trkpt>
      <trkpt lat="39.551635" lon="2.611475">
        <ele>21.0</ele>
        <time>2022-05-14T17:11:15.627Z</time>
      </trkpt>
      <trkpt lat="39.55166" lon="2.61151667">
        <ele>21.0</ele>
        <time>2022-05-14T17:11:16.626Z</time>
      </trkpt>
      <trkpt lat="39.55168167" lon="2.61156167">
        <ele>21.0</ele>
        <time>2022-05-14T17:11:17.626Z</time>
      </trkpt>
      <trkpt lat="39.55170333" lon="2.61160833">
        <ele>21.0</ele>
        <time>2022-05-14T17:11:18.627Z</time>
      </trkpt>
      <trkpt lat="39.551725" lon="2.61165833">
        <ele>22.0</ele>
        <time>2022-05-14T17:11:19.626Z</time>
      </trkpt>
      <trkpt lat="39.551745" lon="2.61171333">
        <ele>22.0</ele>
        <time>2022-05-14T17:11:20.626Z</time>
      </trkpt>
      <trkpt lat="39.55176833" lon="2.61177">
        <ele>22.0</ele>
        <time>2022-05-14T17:11:21.627Z</time>
      </trkpt>
      <trkpt lat="39.55178833" lon="2.61182833">
        <ele>22.0</ele>
        <time>2022-05-14T17:11:22.627Z</time>
      </trkpt>
      <trkpt lat="39.551805" lon="2.61189667">
        <ele>22.0</ele>
        <time>2022-05-14T17:11:23.627Z</time>
      </trkpt>
      <trkpt lat="39.55182" lon="2.611965">
        <ele>21.0</ele>
        <time>2022-05-14T17:11:24.626Z</time>
      </trkpt>
      <trkpt lat="39.55183833" lon="2.61203667">
        <ele>22.0</ele>
        <time>2022-05-14T17:11:25.627Z</time>
      </trkpt>
      <trkpt lat="39.551855" lon="2.61211167">
        <ele>22.0</ele>
        <time>2022-05-14T17:11:26.627Z</time>
      </trkpt>
      <trkpt lat="39.55187167" lon="2.61219167">
        <ele>23.0</ele>
        <time>2022-05-14T17:11:27.627Z</time>
      </trkpt>
      <trkpt lat="39.55188667" lon="2.61227333">
        <ele>23.0</ele>
        <time>2022-05-14T17:11:28.627Z</time>
      </trkpt>
      <trkpt lat="39.551905" lon="2.612355">
        <ele>23.0</ele>
        <time>2022-05-14T17:11:29.627Z</time>
      </trkpt>
      <trkpt lat="39.55192167" lon="2.61244167">
        <ele>23.0</ele>
        <time>2022-05-14T17:11:30.627Z</time>
      </trkpt>
      <trkpt lat="39.55193667" lon="2.61253333">
        <ele>22.0</ele>
        <time>2022-05-14T17:11:31.626Z</time>
      </trkpt>
      <trkpt lat="39.55195" lon="2.61263">
        <ele>22.0</ele>
        <time>2022-05-14T17:11:32.627Z</time>
      </trkpt>
      <trkpt lat="39.55196667" lon="2.61272833">
        <ele>22.0</ele>
        <time>2022-05-14T17:11:33.627Z</time>
      </trkpt>
      <trkpt lat="39.55198333" lon="2.61283">
        <ele>22.0</ele>
        <time>2022-05-14T17:11:34.626Z</time>
      </trkpt>
      <trkpt lat="39.55200167" lon="2.61293">
        <ele>22.0</ele>
        <time>2022-05-14T17:11:35.627Z</time>
      </trkpt>
      <trkpt lat="39.55202" lon="2.61303667">
        <ele>22.0</ele>
        <time>2022-05-14T17:11:36.627Z</time>
      </trkpt>
      <trkpt lat="39.55203833" lon="2.613145">
        <ele>21.0</ele>
        <time>2022-05-14T17:11:37.627Z</time>
      </trkpt>
      <trkpt lat="39.55206" lon="2.61325333">
        <ele>21.0</ele>
        <time>2022-05-14T17:11:38.627Z</time>
      </trkpt>
      <trkpt lat="39.55208333" lon="2.613365">
        <ele>20.0</ele>
        <time>2022-05-14T17:11:39.627Z</time>
      </trkpt>
      <trkpt lat="39.55211167" lon="2.6135">
        <ele>20.0</ele>
        <time>2022-05-14T17:11:40.627Z</time>
      </trkpt>
      <trkpt lat="39.55212833" lon="2.61359167">
        <ele>19.0</ele>
        <time>2022-05-14T17:11:41.627Z</time>
      </trkpt>
      <trkpt lat="39.55215667" lon="2.61372833">
        <ele>18.0</ele>
        <time>2022-05-14T17:11:42.627Z</time>
      </trkpt>
      <trkpt lat="39.55217333" lon="2.613825">
        <ele>17.0</ele>
        <time>2022-05-14T17:11:43.627Z</time>
      </trkpt>
      <trkpt lat="39.552195" lon="2.61396833">
        <ele>16.0</ele>
        <time>2022-05-14T17:11:44.627Z</time>
      </trkpt>
      <trkpt lat="39.55221" lon="2.61408667">
        <ele>15.0</ele>
        <time>2022-05-14T17:11:45.626Z</time>
      </trkpt>
      <trkpt lat="39.55222333" lon="2.61420833">
        <ele>14.0</ele>
        <time>2022-05-14T17:11:46.626Z</time>
      </trkpt>
      <trkpt lat="39.55223167" lon="2.61430833">
        <ele>14.0</ele>
        <time>2022-05-14T17:11:47.627Z</time>
      </trkpt>
      <trkpt lat="39.55223833" lon="2.61443">
        <ele>14.0</ele>
        <time>2022-05-14T17:11:48.627Z</time>
      </trkpt>
      <trkpt lat="39.55223833" lon="2.61455">
        <ele>14.0</ele>
        <time>2022-05-14T17:11:49.626Z</time>
      </trkpt>
      <trkpt lat="39.55224" lon="2.61466667">
        <ele>14.0</ele>
        <time>2022-05-14T17:11:50.626Z</time>
      </trkpt>
      <trkpt lat="39.55224" lon="2.61477667">
        <ele>14.0</ele>
        <time>2022-05-14T17:11:51.626Z</time>
      </trkpt>
      <trkpt lat="39.552235" lon="2.61488667">
        <ele>13.0</ele>
        <time>2022-05-14T17:11:52.627Z</time>
      </trkpt>
      <trkpt lat="39.552225" lon="2.61499333">
        <ele>13.0</ele>
        <time>2022-05-14T17:11:53.626Z</time>
      </trkpt>
      <trkpt lat="39.552215" lon="2.61509833">
        <ele>13.0</ele>
        <time>2022-05-14T17:11:54.626Z</time>
      </trkpt>
      <trkpt lat="39.55220667" lon="2.6152">
        <ele>14.0</ele>
        <time>2022-05-14T17:11:55.627Z</time>
      </trkpt>
      <trkpt lat="39.55219833" lon="2.61530333">
        <ele>14.0</ele>
        <time>2022-05-14T17:11:56.626Z</time>
      </trkpt>
      <trkpt lat="39.55218833" lon="2.61540667">
        <ele>14.0</ele>
        <time>2022-05-14T17:11:57.627Z</time>
      </trkpt>
      <trkpt lat="39.55218167" lon="2.615515">
        <ele>14.0</ele>
        <time>2022-05-14T17:11:58.627Z</time>
      </trkpt>
      <trkpt lat="39.55217667" lon="2.61562667">
        <ele>13.0</ele>
        <time>2022-05-14T17:11:59.627Z</time>
      </trkpt>
      <trkpt lat="39.552175" lon="2.61574333">
        <ele>13.0</ele>
        <time>2022-05-14T17:12:00.627Z</time>
      </trkpt>
      <trkpt lat="39.552175" lon="2.61586167">
        <ele>12.0</ele>
        <time>2022-05-14T17:12:01.626Z</time>
      </trkpt>
      <trkpt lat="39.55217333" lon="2.61598167">
        <ele>12.0</ele>
        <time>2022-05-14T17:12:02.627Z</time>
      </trkpt>
      <trkpt lat="39.55216667" lon="2.61610167">
        <ele>11.0</ele>
        <time>2022-05-14T17:12:03.627Z</time>
      </trkpt>
      <trkpt lat="39.55215333" lon="2.61621833">
        <ele>11.0</ele>
        <time>2022-05-14T17:12:04.627Z</time>
      </trkpt>
      <trkpt lat="39.55213167" lon="2.61633">
        <ele>10.0</ele>
        <time>2022-05-14T17:12:05.627Z</time>
      </trkpt>
      <trkpt lat="39.552105" lon="2.61643">
        <ele>10.0</ele>
        <time>2022-05-14T17:12:06.627Z</time>
      </trkpt>
      <trkpt lat="39.55208167" lon="2.61652">
        <ele>9.0</ele>
        <time>2022-05-14T17:12:07.627Z</time>
      </trkpt>
      <trkpt lat="39.55206167" lon="2.61660167">
        <ele>8.0</ele>
        <time>2022-05-14T17:12:08.627Z</time>
      </trkpt>
      <trkpt lat="39.55204667" lon="2.61667">
        <ele>8.0</ele>
        <time>2022-05-14T17:12:09.626Z</time>
      </trkpt>
      <trkpt lat="39.55202833" lon="2.61672167">
        <ele>7.0</ele>
        <time>2022-05-14T17:12:10.626Z</time>
      </trkpt>
      <trkpt lat="39.55201" lon="2.61675667">
        <ele>7.0</ele>
        <time>2022-05-14T17:12:11.627Z</time>
      </trkpt>
      <trkpt lat="39.55199" lon="2.61678167">
        <ele>7.0</ele>
        <time>2022-05-14T17:12:12.627Z</time>
      </trkpt>
      <trkpt lat="39.55197333" lon="2.61680333">
        <ele>6.0</ele>
        <time>2022-05-14T17:12:13.627Z</time>
      </trkpt>
      <trkpt lat="39.551955" lon="2.61682833">
        <ele>6.0</ele>
        <time>2022-05-14T17:12:14.627Z</time>
      </trkpt>
      <trkpt lat="39.551935" lon="2.61685333">
        <ele>6.0</ele>
        <time>2022-05-14T17:12:15.627Z</time>
      </trkpt>
      <trkpt lat="39.55191333" lon="2.616875">
        <ele>6.0</ele>
        <time>2022-05-14T17:12:16.626Z</time>
      </trkpt>
      <trkpt lat="39.55189333" lon="2.6169">
        <ele>6.0</ele>
        <time>2022-05-14T17:12:17.627Z</time>
      </trkpt>
      <trkpt lat="39.55186833" lon="2.616925">
        <ele>6.0</ele>
        <time>2022-05-14T17:12:18.627Z</time>
      </trkpt>
      <trkpt lat="39.55184333" lon="2.61695167">
        <ele>6.0</ele>
        <time>2022-05-14T17:12:19.626Z</time>
      </trkpt>
      <trkpt lat="39.55181833" lon="2.61697833">
        <ele>6.0</ele>
        <time>2022-05-14T17:12:20.627Z</time>
      </trkpt>
      <trkpt lat="39.55179167" lon="2.61700833">
        <ele>6.0</ele>
        <time>2022-05-14T17:12:21.627Z</time>
      </trkpt>
      <trkpt lat="39.55176167" lon="2.61703833">
        <ele>6.0</ele>
        <time>2022-05-14T17:12:22.627Z</time>
      </trkpt>
      <trkpt lat="39.55173167" lon="2.61706833">
        <ele>6.0</ele>
        <time>2022-05-14T17:12:23.627Z</time>
      </trkpt>
      <trkpt lat="39.55169833" lon="2.6171">
        <ele>6.0</ele>
        <time>2022-05-14T17:12:24.626Z</time>
      </trkpt>
      <trkpt lat="39.55166667" lon="2.61713333">
        <ele>7.0</ele>
        <time>2022-05-14T17:12:25.626Z</time>
      </trkpt>
      <trkpt lat="39.55163167" lon="2.61716833">
        <ele>7.0</ele>
        <time>2022-05-14T17:12:26.627Z</time>
      </trkpt>
      <trkpt lat="39.55159833" lon="2.61720333">
        <ele>8.0</ele>
        <time>2022-05-14T17:12:27.627Z</time>
      </trkpt>
      <trkpt lat="39.55156333" lon="2.61723833">
        <ele>8.0</ele>
        <time>2022-05-14T17:12:28.627Z</time>
      </trkpt>
      <trkpt lat="39.55152833" lon="2.61727333">
        <ele>8.0</ele>
        <time>2022-05-14T17:12:29.627Z</time>
      </trkpt>
      <trkpt lat="39.55149333" lon="2.61730833">
        <ele>8.0</ele>
        <time>2022-05-14T17:12:30.626Z</time>
      </trkpt>
      <trkpt lat="39.55146167" lon="2.617345">
        <ele>7.0</ele>
        <time>2022-05-14T17:12:31.626Z</time>
      </trkpt>
      <trkpt lat="39.55143" lon="2.61738167">
        <ele>7.0</ele>
        <time>2022-05-14T17:12:32.626Z</time>
      </trkpt>
      <trkpt lat="39.55139833" lon="2.61741667">
        <ele>7.0</ele>
        <time>2022-05-14T17:12:33.626Z</time>
      </trkpt>
      <trkpt lat="39.55136667" lon="2.617455">
        <ele>6.0</ele>
        <time>2022-05-14T17:12:34.627Z</time>
      </trkpt>
      <trkpt lat="39.551335" lon="2.617495">
        <ele>5.0</ele>
        <time>2022-05-14T17:12:35.627Z</time>
      </trkpt>
      <trkpt lat="39.55130333" lon="2.61754167">
        <ele>4.0</ele>
        <time>2022-05-14T17:12:36.627Z</time>
      </trkpt>
      <trkpt lat="39.55127" lon="2.61758667">
        <ele>4.0</ele>
        <time>2022-05-14T17:12:37.627Z</time>
      </trkpt>
      <trkpt lat="39.55124" lon="2.61763167">
        <ele>3.0</ele>
        <time>2022-05-14T17:12:38.627Z</time>
      </trkpt>
      <trkpt lat="39.55121" lon="2.61768167">
        <ele>4.0</ele>
        <time>2022-05-14T17:12:39.626Z</time>
      </trkpt>
      <trkpt lat="39.55117833" lon="2.61773167">
        <ele>4.0</ele>
        <time>2022-05-14T17:12:40.626Z</time>
      </trkpt>
      <trkpt lat="39.55114833" lon="2.61778">
        <ele>3.0</ele>
        <time>2022-05-14T17:12:41.626Z</time>
      </trkpt>
      <trkpt lat="39.55112167" lon="2.617825">
        <ele>3.0</ele>
        <time>2022-05-14T17:12:42.627Z</time>
      </trkpt>
      <trkpt lat="39.5511" lon="2.617865">
        <ele>4.0</ele>
        <time>2022-05-14T17:12:43.626Z</time>
      </trkpt>
      <trkpt lat="39.55108333" lon="2.61789833">
        <ele>5.0</ele>
        <time>2022-05-14T17:12:44.627Z</time>
      </trkpt>
      <trkpt lat="39.55106833" lon="2.61792667">
        <ele>5.0</ele>
        <time>2022-05-14T17:12:45.627Z</time>
      </trkpt>
      <trkpt lat="39.551055" lon="2.61795333">
        <ele>5.0</ele>
        <time>2022-05-14T17:12:46.626Z</time>
      </trkpt>
      <trkpt lat="39.55103667" lon="2.61798">
        <ele>4.0</ele>
        <time>2022-05-14T17:12:47.627Z</time>
      </trkpt>
      <trkpt lat="39.55101833" lon="2.61801">
        <ele>3.0</ele>
        <time>2022-05-14T17:12:48.627Z</time>
      </trkpt>
      <trkpt lat="39.551" lon="2.61804333">
        <ele>3.0</ele>
        <time>2022-05-14T17:12:49.627Z</time>
      </trkpt>
      <trkpt lat="39.55098167" lon="2.61808167">
        <ele>3.0</ele>
        <time>2022-05-14T17:12:50.626Z</time>
      </trkpt>
      <trkpt lat="39.55096333" lon="2.618125">
        <ele>3.0</ele>
        <time>2022-05-14T17:12:51.626Z</time>
      </trkpt>
      <trkpt lat="39.55094333" lon="2.61817167">
        <ele>3.0</ele>
        <time>2022-05-14T17:12:52.626Z</time>
      </trkpt>
      <trkpt lat="39.55092333" lon="2.61822">
        <ele>3.0</ele>
        <time>2022-05-14T17:12:53.627Z</time>
      </trkpt>
      <trkpt lat="39.550905" lon="2.61827">
        <ele>3.0</ele>
        <time>2022-05-14T17:12:54.627Z</time>
      </trkpt>
      <trkpt lat="39.55088667" lon="2.61831667">
        <ele>2.0</ele>
        <time>2022-05-14T17:12:55.627Z</time>
      </trkpt>
      <trkpt lat="39.55087333" lon="2.61836667">
        <ele>2.0</ele>
        <time>2022-05-14T17:12:56.627Z</time>
      </trkpt>
      <trkpt lat="39.55086333" lon="2.61840833">
        <ele>2.0</ele>
        <time>2022-05-14T17:12:57.627Z</time>
      </trkpt>
      <trkpt lat="39.55085" lon="2.61844333">
        <ele>2.0</ele>
        <time>2022-05-14T17:12:58.627Z</time>
      </trkpt>
      <trkpt lat="39.55083167" lon="2.61847333">
        <ele>1.0</ele>
        <time>2022-05-14T17:12:59.627Z</time>
      </trkpt>
      <trkpt lat="39.55081167" lon="2.61850333">
        <ele>1.0</ele>
        <time>2022-05-14T17:13:00.627Z</time>
      </trkpt>
      <trkpt lat="39.55079167" lon="2.61853333">
        <ele>2.0</ele>
        <time>2022-05-14T17:13:01.627Z</time>
      </trkpt>
      <trkpt lat="39.55077" lon="2.61856">
        <ele>2.0</ele>
        <time>2022-05-14T17:13:02.627Z</time>
      </trkpt>
      <trkpt lat="39.55074667" lon="2.61858">
        <ele>2.0</ele>
        <time>2022-05-14T17:13:03.627Z</time>
      </trkpt>
      <trkpt lat="39.55072167" lon="2.61860167">
        <ele>3.0</ele>
        <time>2022-05-14T17:13:04.626Z</time>
      </trkpt>
      <trkpt lat="39.55069167" lon="2.61862">
        <ele>3.0</ele>
        <time>2022-05-14T17:13:05.627Z</time>
      </trkpt>
      <trkpt lat="39.55066333" lon="2.618635">
        <ele>3.0</ele>
        <time>2022-05-14T17:13:06.626Z</time>
      </trkpt>
      <trkpt lat="39.55063333" lon="2.61865167">
        <ele>3.0</ele>
        <time>2022-05-14T17:13:07.627Z</time>
      </trkpt>
      <trkpt lat="39.55060167" lon="2.61867167">
        <ele>4.0</ele>
        <time>2022-05-14T17:13:08.627Z</time>
      </trkpt>
      <trkpt lat="39.55057333" lon="2.618695">
        <ele>4.0</ele>
        <time>2022-05-14T17:13:09.627Z</time>
      </trkpt>
      <trkpt lat="39.550545" lon="2.61872167">
        <ele>4.0</ele>
        <time>2022-05-14T17:13:10.627Z</time>
      </trkpt>
      <trkpt lat="39.55052333" lon="2.61875333">
        <ele>4.0</ele>
        <time>2022-05-14T17:13:11.626Z</time>
      </trkpt>
      <trkpt lat="39.55050667" lon="2.61878667">
        <ele>3.0</ele>
        <time>2022-05-14T17:13:12.627Z</time>
      </trkpt>
      <trkpt lat="39.55049333" lon="2.61881833">
        <ele>3.0</ele>
        <time>2022-05-14T17:13:13.627Z</time>
      </trkpt>
      <trkpt lat="39.55047167" lon="2.618865">
        <ele>3.0</ele>
        <time>2022-05-14T17:13:14.627Z</time>
      </trkpt>
      <trkpt lat="39.55045667" lon="2.618905">
        <ele>3.0</ele>
        <time>2022-05-14T17:13:15.627Z</time>
      </trkpt>
      <trkpt lat="39.55045333" lon="2.61894">
        <ele>2.0</ele>
        <time>2022-05-14T17:13:16.626Z</time>
      </trkpt>
      <trkpt lat="39.550465" lon="2.61897167">
        <ele>2.0</ele>
        <time>2022-05-14T17:13:17.627Z</time>
      </trkpt>
      <trkpt lat="39.55048167" lon="2.619">
        <ele>1.0</ele>
        <time>2022-05-14T17:13:18.627Z</time>
      </trkpt>
      <trkpt lat="39.5505" lon="2.61903">
        <ele>1.0</ele>
        <time>2022-05-14T17:13:19.627Z</time>
      </trkpt>
      <trkpt lat="39.55051833" lon="2.61906333">
        <ele>0.0</ele>
        <time>2022-05-14T17:13:20.626Z</time>
      </trkpt>
      <trkpt lat="39.550535" lon="2.61909833">
        <ele>0.0</ele>
        <time>2022-05-14T17:13:21.627Z</time>
      </trkpt>
      <trkpt lat="39.55055333" lon="2.61913">
        <ele>0.0</ele>
        <time>2022-05-14T17:13:22.627Z</time>
      </trkpt>
      <trkpt lat="39.55057" lon="2.61916333">
        <ele>0.0</ele>
        <time>2022-05-14T17:13:23.627Z</time>
      </trkpt>
      <trkpt lat="39.55058333" lon="2.61919667">
        <ele>0.0</ele>
        <time>2022-05-14T17:13:24.626Z</time>
      </trkpt>
      <trkpt lat="39.55059833" lon="2.619235">
        <ele>0.0</ele>
        <time>2022-05-14T17:13:25.626Z</time>
      </trkpt>
      <trkpt lat="39.55061333" lon="2.61927">
        <ele>0.0</ele>
        <time>2022-05-14T17:13:26.627Z</time>
      </trkpt>
      <trkpt lat="39.55063" lon="2.61930667">
        <ele>0.0</ele>
        <time>2022-05-14T17:13:27.627Z</time>
      </trkpt>
      <trkpt lat="39.55064167" lon="2.61934333">
        <ele>0.0</ele>
        <time>2022-05-14T17:13:28.627Z</time>
      </trkpt>
      <trkpt lat="39.55065" lon="2.61938333">
        <ele>0.0</ele>
        <time>2022-05-14T17:13:29.626Z</time>
      </trkpt>
      <trkpt lat="39.55066" lon="2.619415">
        <ele>0.0</ele>
        <time>2022-05-14T17:13:30.627Z</time>
      </trkpt>
      <trkpt lat="39.550665" lon="2.61945167">
        <ele>0.0</ele>
        <time>2022-05-14T17:13:31.627Z</time>
      </trkpt>
      <trkpt lat="39.55067667" lon="2.61948833">
        <ele>0.0</ele>
        <time>2022-05-14T17:13:32.627Z</time>
      </trkpt>
      <trkpt lat="39.55068333" lon="2.61952167">
        <ele>0.0</ele>
        <time>2022-05-14T17:13:33.627Z</time>
      </trkpt>
      <trkpt lat="39.55067667" lon="2.619555">
        <ele>0.0</ele>
        <time>2022-05-14T17:13:34.627Z</time>
      </trkpt>
      <trkpt lat="39.55067167" lon="2.61959333">
        <ele>0.0</ele>
        <time>2022-05-14T17:13:35.627Z</time>
      </trkpt>
      <trkpt lat="39.550665" lon="2.61963">
        <ele>0.0</ele>
        <time>2022-05-14T17:13:36.627Z</time>
      </trkpt>
      <trkpt lat="39.55066333" lon="2.61966667">
        <ele>0.0</ele>
        <time>2022-05-14T17:13:37.627Z</time>
      </trkpt>
      <trkpt lat="39.55066" lon="2.61971">
        <ele>0.0</ele>
        <time>2022-05-14T17:13:38.626Z</time>
      </trkpt>
      <trkpt lat="39.55065667" lon="2.61975167">
        <ele>0.0</ele>
        <time>2022-05-14T17:13:39.626Z</time>
      </trkpt>
      <trkpt lat="39.550655" lon="2.61979667">
        <ele>0.0</ele>
        <time>2022-05-14T17:13:40.627Z</time>
      </trkpt>
      <trkpt lat="39.550655" lon="2.61984333">
        <ele>0.0</ele>
        <time>2022-05-14T17:13:41.627Z</time>
      </trkpt>
      <trkpt lat="39.55065167" lon="2.61989333">
        <ele>0.0</ele>
        <time>2022-05-14T17:13:42.627Z</time>
      </trkpt>
      <trkpt lat="39.55064667" lon="2.61994667">
        <ele>0.0</ele>
        <time>2022-05-14T17:13:43.627Z</time>
      </trkpt>
      <trkpt lat="39.55063833" lon="2.61999833">
        <ele>-1.0</ele>
        <time>2022-05-14T17:13:44.627Z</time>
      </trkpt>
      <trkpt lat="39.55062833" lon="2.62005">
        <ele>0.0</ele>
        <time>2022-05-14T17:13:45.627Z</time>
      </trkpt>
      <trkpt lat="39.55062167" lon="2.62010333">
        <ele>0.0</ele>
        <time>2022-05-14T17:13:46.627Z</time>
      </trkpt>
      <trkpt lat="39.55061333" lon="2.62016">
        <ele>0.0</ele>
        <time>2022-05-14T17:13:47.627Z</time>
      </trkpt>
      <trkpt lat="39.55060333" lon="2.62021667">
        <ele>0.0</ele>
        <time>2022-05-14T17:13:48.627Z</time>
      </trkpt>
      <trkpt lat="39.550595" lon="2.620275">
        <ele>0.0</ele>
        <time>2022-05-14T17:13:49.626Z</time>
      </trkpt>
      <trkpt lat="39.55058667" lon="2.62033667">
        <ele>0.0</ele>
        <time>2022-05-14T17:13:50.626Z</time>
      </trkpt>
      <trkpt lat="39.55057833" lon="2.62039667">
        <ele>-2.0</ele>
        <time>2022-05-14T17:13:51.627Z</time>
      </trkpt>
      <trkpt lat="39.55057167" lon="2.62045833">
        <ele>0.0</ele>
        <time>2022-05-14T17:13:52.627Z</time>
      </trkpt>
      <trkpt lat="39.55056333" lon="2.62052167">
        <ele>-2.0</ele>
        <time>2022-05-14T17:13:53.627Z</time>
      </trkpt>
      <trkpt lat="39.55055667" lon="2.62058667">
        <ele>0.0</ele>
        <time>2022-05-14T17:13:54.627Z</time>
      </trkpt>
      <trkpt lat="39.55054833" lon="2.62065333">
        <ele>0.0</ele>
        <time>2022-05-14T17:13:55.627Z</time>
      </trkpt>
      <trkpt lat="39.55054167" lon="2.62072333">
        <ele>-1.0</ele>
        <time>2022-05-14T17:13:56.626Z</time>
      </trkpt>
      <trkpt lat="39.55053" lon="2.62079333">
        <ele>0.0</ele>
        <time>2022-05-14T17:13:57.626Z</time>
      </trkpt>
      <trkpt lat="39.55051333" lon="2.62086167">
        <ele>0.0</ele>
        <time>2022-05-14T17:13:58.626Z</time>
      </trkpt>
      <trkpt lat="39.55049333" lon="2.62092667">
        <ele>0.0</ele>
        <time>2022-05-14T17:13:59.626Z</time>
      </trkpt>
      <trkpt lat="39.55047333" lon="2.62098833">
        <ele>0.0</ele>
        <time>2022-05-14T17:14:00.626Z</time>
      </trkpt>
      <trkpt lat="39.550455" lon="2.62105">
        <ele>0.0</ele>
        <time>2022-05-14T17:14:01.627Z</time>
      </trkpt>
      <trkpt lat="39.55043333" lon="2.62111333">
        <ele>0.0</ele>
        <time>2022-05-14T17:14:02.626Z</time>
      </trkpt>
      <trkpt lat="39.55041" lon="2.62118">
        <ele>0.0</ele>
        <time>2022-05-14T17:14:03.627Z</time>
      </trkpt>
      <trkpt lat="39.55038667" lon="2.62124167">
        <ele>-1.0</ele>
        <time>2022-05-14T17:14:04.627Z</time>
      </trkpt>
      <trkpt lat="39.55036667" lon="2.62130167">
        <ele>-1.0</ele>
        <time>2022-05-14T17:14:05.627Z</time>
      </trkpt>
      <trkpt lat="39.55034833" lon="2.62135167">
        <ele>-2.0</ele>
        <time>2022-05-14T17:14:06.626Z</time>
      </trkpt>
      <trkpt lat="39.55032833" lon="2.62140167">
        <ele>-2.0</ele>
        <time>2022-05-14T17:14:07.627Z</time>
      </trkpt>
      <trkpt lat="39.55030833" lon="2.621455">
        <ele>-4.0</ele>
        <time>2022-05-14T17:14:08.627Z</time>
      </trkpt>
      <trkpt lat="39.55028833" lon="2.62150667">
        <ele>-3.0</ele>
        <time>2022-05-14T17:14:09.627Z</time>
      </trkpt>
      <trkpt lat="39.55027" lon="2.62155">
        <ele>-3.0</ele>
        <time>2022-05-14T17:14:10.627Z</time>
      </trkpt>
      <trkpt lat="39.55025167" lon="2.62159333">
        <ele>-3.0</ele>
        <time>2022-05-14T17:14:11.627Z</time>
      </trkpt>
      <trkpt lat="39.55023667" lon="2.62163833">
        <ele>-4.0</ele>
        <time>2022-05-14T17:14:12.627Z</time>
      </trkpt>
      <trkpt lat="39.55022" lon="2.62168333">
        <ele>-4.0</ele>
        <time>2022-05-14T17:14:13.627Z</time>
      </trkpt>
      <trkpt lat="39.550205" lon="2.62173">
        <ele>-4.0</ele>
        <time>2022-05-14T17:14:14.627Z</time>
      </trkpt>
      <trkpt lat="39.55019" lon="2.621775">
        <ele>-4.0</ele>
        <time>2022-05-14T17:14:15.627Z</time>
      </trkpt>
      <trkpt lat="39.55017667" lon="2.62182">
        <ele>-4.0</ele>
        <time>2022-05-14T17:14:16.627Z</time>
      </trkpt>
      <trkpt lat="39.55016333" lon="2.621865">
        <ele>-4.0</ele>
        <time>2022-05-14T17:14:17.627Z</time>
      </trkpt>
      <trkpt lat="39.550155" lon="2.62191">
        <ele>-4.0</ele>
        <time>2022-05-14T17:14:18.627Z</time>
      </trkpt>
      <trkpt lat="39.55015" lon="2.62195667">
        <ele>-6.0</ele>
        <time>2022-05-14T17:14:19.627Z</time>
      </trkpt>
      <trkpt lat="39.55014667" lon="2.62200833">
        <ele>-4.0</ele>
        <time>2022-05-14T17:14:20.627Z</time>
      </trkpt>
      <trkpt lat="39.55014667" lon="2.62205833">
        <ele>-4.0</ele>
        <time>2022-05-14T17:14:21.627Z</time>
      </trkpt>
      <trkpt lat="39.550145" lon="2.62210667">
        <ele>-4.0</ele>
        <time>2022-05-14T17:14:22.627Z</time>
      </trkpt>
      <trkpt lat="39.55014333" lon="2.62215333">
        <ele>-4.0</ele>
        <time>2022-05-14T17:14:23.627Z</time>
      </trkpt>
      <trkpt lat="39.55014167" lon="2.6222">
        <ele>-5.0</ele>
        <time>2022-05-14T17:14:24.627Z</time>
      </trkpt>
      <trkpt lat="39.55014167" lon="2.622245">
        <ele>-3.0</ele>
        <time>2022-05-14T17:14:25.627Z</time>
      </trkpt>
      <trkpt lat="39.55014333" lon="2.62229">
        <ele>-3.0</ele>
        <time>2022-05-14T17:14:26.626Z</time>
      </trkpt>
      <trkpt lat="39.55014667" lon="2.622335">
        <ele>-3.0</ele>
        <time>2022-05-14T17:14:27.627Z</time>
      </trkpt>
      <trkpt lat="39.550145" lon="2.62237833">
        <ele>-3.0</ele>
        <time>2022-05-14T17:14:28.626Z</time>
      </trkpt>
      <trkpt lat="39.55014833" lon="2.62242">
        <ele>-3.0</ele>
        <time>2022-05-14T17:14:29.627Z</time>
      </trkpt>
      <trkpt lat="39.55015" lon="2.62245833">
        <ele>-3.0</ele>
        <time>2022-05-14T17:14:30.626Z</time>
      </trkpt>
      <trkpt lat="39.55015167" lon="2.62249833">
        <ele>-3.0</ele>
        <time>2022-05-14T17:14:31.627Z</time>
      </trkpt>
      <trkpt lat="39.55015333" lon="2.62254167">
        <ele>-3.0</ele>
        <time>2022-05-14T17:14:32.627Z</time>
      </trkpt>
      <trkpt lat="39.550155" lon="2.62258667">
        <ele>-3.0</ele>
        <time>2022-05-14T17:14:33.627Z</time>
      </trkpt>
      <trkpt lat="39.55015667" lon="2.62262333">
        <ele>-3.0</ele>
        <time>2022-05-14T17:14:34.626Z</time>
      </trkpt>
      <trkpt lat="39.55015833" lon="2.62267833">
        <ele>-4.0</ele>
        <time>2022-05-14T17:14:35.626Z</time>
      </trkpt>
      <trkpt lat="39.55016" lon="2.622725">
        <ele>-2.0</ele>
        <time>2022-05-14T17:14:36.627Z</time>
      </trkpt>
      <trkpt lat="39.55016167" lon="2.62276833">
        <ele>-2.0</ele>
        <time>2022-05-14T17:14:37.627Z</time>
      </trkpt>
      <trkpt lat="39.55016167" lon="2.62280833">
        <ele>-2.0</ele>
        <time>2022-05-14T17:14:38.626Z</time>
      </trkpt>
      <trkpt lat="39.55016167" lon="2.62284833">
        <ele>-2.0</ele>
        <time>2022-05-14T17:14:39.627Z</time>
      </trkpt>
      <trkpt lat="39.55016333" lon="2.62288833">
        <ele>-2.0</ele>
        <time>2022-05-14T17:14:40.627Z</time>
      </trkpt>
      <trkpt lat="39.55016667" lon="2.62292667">
        <ele>-2.0</ele>
        <time>2022-05-14T17:14:41.627Z</time>
      </trkpt>
      <trkpt lat="39.55016833" lon="2.62295833">
        <ele>-2.0</ele>
        <time>2022-05-14T17:14:42.626Z</time>
      </trkpt>
      <trkpt lat="39.55017" lon="2.62299">
        <ele>-1.0</ele>
        <time>2022-05-14T17:14:43.627Z</time>
      </trkpt>
      <trkpt lat="39.55017" lon="2.62301">
        <ele>-1.0</ele>
        <time>2022-05-14T17:14:44.627Z</time>
      </trkpt>
      <trkpt lat="39.55017167" lon="2.62303833">
        <ele>0.0</ele>
        <time>2022-05-14T17:14:45.627Z</time>
      </trkpt>
      <trkpt lat="39.550175" lon="2.62306">
        <ele>0.0</ele>
        <time>2022-05-14T17:14:46.627Z</time>
      </trkpt>
      <trkpt lat="39.550175" lon="2.623075">
        <ele>0.0</ele>
        <time>2022-05-14T17:14:47.627Z</time>
      </trkpt>
      <trkpt lat="39.55017833" lon="2.62309333">
        <ele>-1.0</ele>
        <time>2022-05-14T17:14:48.627Z</time>
      </trkpt>
      <trkpt lat="39.55018167" lon="2.62311167">
        <ele>0.0</ele>
        <time>2022-05-14T17:14:49.627Z</time>
      </trkpt>
      <trkpt lat="39.55018167" lon="2.623125">
        <ele>0.0</ele>
        <time>2022-05-14T17:14:50.626Z</time>
      </trkpt>
      <trkpt lat="39.55017833" lon="2.623135">
        <ele>0.0</ele>
        <time>2022-05-14T17:14:51.627Z</time>
      </trkpt>
      <trkpt lat="39.55017833" lon="2.62314667">
        <ele>0.0</ele>
        <time>2022-05-14T17:14:52.627Z</time>
      </trkpt>
      <trkpt lat="39.55017833" lon="2.62315833">
        <ele>0.0</ele>
        <time>2022-05-14T17:14:53.626Z</time>
      </trkpt>
      <trkpt lat="39.55017667" lon="2.62317833">
        <ele>-1.0</ele>
        <time>2022-05-14T17:14:54.627Z</time>
      </trkpt>
      <trkpt lat="39.55018" lon="2.62319833">
        <ele>0.0</ele>
        <time>2022-05-14T17:14:55.626Z</time>
      </trkpt>
      <trkpt lat="39.55018" lon="2.62322333">
        <ele>0.0</ele>
        <time>2022-05-14T17:14:56.626Z</time>
      </trkpt>
      <trkpt lat="39.55018667" lon="2.62325833">
        <ele>0.0</ele>
        <time>2022-05-14T17:14:57.626Z</time>
      </trkpt>
      <trkpt lat="39.55019167" lon="2.62329833">
        <ele>0.0</ele>
        <time>2022-05-14T17:14:58.626Z</time>
      </trkpt>
      <trkpt lat="39.5502" lon="2.62334333">
        <ele>0.0</ele>
        <time>2022-05-14T17:14:59.627Z</time>
      </trkpt>
      <trkpt lat="39.55021" lon="2.62339">
        <ele>0.0</ele>
        <time>2022-05-14T17:15:00.627Z</time>
      </trkpt>
      <trkpt lat="39.55022" lon="2.623435">
        <ele>0.0</ele>
        <time>2022-05-14T17:15:01.627Z</time>
      </trkpt>
      <trkpt lat="39.55023333" lon="2.62348167">
        <ele>0.0</ele>
        <time>2022-05-14T17:15:02.627Z</time>
      </trkpt>
      <trkpt lat="39.55024833" lon="2.62352833">
        <ele>-1.0</ele>
        <time>2022-05-14T17:15:03.627Z</time>
      </trkpt>
      <trkpt lat="39.55026167" lon="2.62357333">
        <ele>-1.0</ele>
        <time>2022-05-14T17:15:04.627Z</time>
      </trkpt>
      <trkpt lat="39.55027667" lon="2.62361833">
        <ele>-1.0</ele>
        <time>2022-05-14T17:15:05.627Z</time>
      </trkpt>
      <trkpt lat="39.55029333" lon="2.623655">
        <ele>-1.0</ele>
        <time>2022-05-14T17:15:06.627Z</time>
      </trkpt>
      <trkpt lat="39.55031833" lon="2.62370667">
        <ele>-1.0</ele>
        <time>2022-05-14T17:15:07.627Z</time>
      </trkpt>
      <trkpt lat="39.550345" lon="2.62375">
        <ele>-1.0</ele>
        <time>2022-05-14T17:15:08.627Z</time>
      </trkpt>
      <trkpt lat="39.55037167" lon="2.62379167">
        <ele>-1.0</ele>
        <time>2022-05-14T17:15:09.627Z</time>
      </trkpt>
      <trkpt lat="39.55039833" lon="2.623835">
        <ele>-1.0</ele>
        <time>2022-05-14T17:15:10.627Z</time>
      </trkpt>
      <trkpt lat="39.55042833" lon="2.62387667">
        <ele>-2.0</ele>
        <time>2022-05-14T17:15:11.627Z</time>
      </trkpt>
      <trkpt lat="39.55046" lon="2.62391667">
        <ele>-2.0</ele>
        <time>2022-05-14T17:15:12.627Z</time>
      </trkpt>
      <trkpt lat="39.55049167" lon="2.623955">
        <ele>-1.0</ele>
        <time>2022-05-14T17:15:13.627Z</time>
      </trkpt>
      <trkpt lat="39.55052333" lon="2.62399167">
        <ele>-1.0</ele>
        <time>2022-05-14T17:15:14.626Z</time>
      </trkpt>
      <trkpt lat="39.55055833" lon="2.62402667">
        <ele>-1.0</ele>
        <time>2022-05-14T17:15:15.627Z</time>
      </trkpt>
      <trkpt lat="39.55059667" lon="2.62406">
        <ele>-1.0</ele>
        <time>2022-05-14T17:15:16.626Z</time>
      </trkpt>
      <trkpt lat="39.55063667" lon="2.62409">
        <ele>-1.0</ele>
        <time>2022-05-14T17:15:17.626Z</time>
      </trkpt>
      <trkpt lat="39.55068" lon="2.62412">
        <ele>-1.0</ele>
        <time>2022-05-14T17:15:18.627Z</time>
      </trkpt>
      <trkpt lat="39.550725" lon="2.624145">
        <ele>-1.0</ele>
        <time>2022-05-14T17:15:19.627Z</time>
      </trkpt>
      <trkpt lat="39.55076833" lon="2.62416833">
        <ele>-1.0</ele>
        <time>2022-05-14T17:15:20.626Z</time>
      </trkpt>
      <trkpt lat="39.550815" lon="2.62419167">
        <ele>-1.0</ele>
        <time>2022-05-14T17:15:21.626Z</time>
      </trkpt>
      <trkpt lat="39.55085167" lon="2.62420833">
        <ele>-1.0</ele>
        <time>2022-05-14T17:15:22.627Z</time>
      </trkpt>
      <trkpt lat="39.55090833" lon="2.62423">
        <ele>-1.0</ele>
        <time>2022-05-14T17:15:23.627Z</time>
      </trkpt>
      <trkpt lat="39.55095667" lon="2.62424667">
        <ele>-1.0</ele>
        <time>2022-05-14T17:15:24.626Z</time>
      </trkpt>
      <trkpt lat="39.551005" lon="2.62426167">
        <ele>-1.0</ele>
        <time>2022-05-14T17:15:25.626Z</time>
      </trkpt>
      <trkpt lat="39.55105333" lon="2.624275">
        <ele>-2.0</ele>
        <time>2022-05-14T17:15:26.627Z</time>
      </trkpt>
      <trkpt lat="39.55110333" lon="2.62428833">
        <ele>-2.0</ele>
        <time>2022-05-14T17:15:27.627Z</time>
      </trkpt>
      <trkpt lat="39.55115167" lon="2.62430667">
        <ele>-2.0</ele>
        <time>2022-05-14T17:15:28.626Z</time>
      </trkpt>
      <trkpt lat="39.5512" lon="2.62432667">
        <ele>-2.0</ele>
        <time>2022-05-14T17:15:29.627Z</time>
      </trkpt>
      <trkpt lat="39.551245" lon="2.62434833">
        <ele>-2.0</ele>
        <time>2022-05-14T17:15:30.626Z</time>
      </trkpt>
      <trkpt lat="39.55128833" lon="2.62437333">
        <ele>-2.0</ele>
        <time>2022-05-14T17:15:31.626Z</time>
      </trkpt>
      <trkpt lat="39.55133" lon="2.62440333">
        <ele>-1.0</ele>
        <time>2022-05-14T17:15:32.627Z</time>
      </trkpt>
      <trkpt lat="39.55137167" lon="2.62444">
        <ele>-1.0</ele>
        <time>2022-05-14T17:15:33.627Z</time>
      </trkpt>
      <trkpt lat="39.55141" lon="2.62448">
        <ele>-1.0</ele>
        <time>2022-05-14T17:15:34.627Z</time>
      </trkpt>
      <trkpt lat="39.55144667" lon="2.62452167">
        <ele>-1.0</ele>
        <time>2022-05-14T17:15:35.627Z</time>
      </trkpt>
      <trkpt lat="39.55148" lon="2.624565">
        <ele>-1.0</ele>
        <time>2022-05-14T17:15:36.627Z</time>
      </trkpt>
      <trkpt lat="39.55151167" lon="2.62460833">
        <ele>-2.0</ele>
        <time>2022-05-14T17:15:37.627Z</time>
      </trkpt>
      <trkpt lat="39.55154833" lon="2.624645">
        <ele>-3.0</ele>
        <time>2022-05-14T17:15:38.626Z</time>
      </trkpt>
      <trkpt lat="39.55159" lon="2.62467167">
        <ele>-1.0</ele>
        <time>2022-05-14T17:15:39.627Z</time>
      </trkpt>
      <trkpt lat="39.55163167" lon="2.62469167">
        <ele>-2.0</ele>
        <time>2022-05-14T17:15:40.626Z</time>
      </trkpt>
      <trkpt lat="39.55167167" lon="2.624705">
        <ele>-2.0</ele>
        <time>2022-05-14T17:15:41.627Z</time>
      </trkpt>
      <trkpt lat="39.55170667" lon="2.62471333">
        <ele>-3.0</ele>
        <time>2022-05-14T17:15:42.627Z</time>
      </trkpt>
      <trkpt lat="39.551735" lon="2.62470833">
        <ele>-4.0</ele>
        <time>2022-05-14T17:15:43.627Z</time>
      </trkpt>
      <trkpt lat="39.551755" lon="2.62468833">
        <ele>-2.0</ele>
        <time>2022-05-14T17:15:44.627Z</time>
      </trkpt>
      <trkpt lat="39.551775" lon="2.62466333">
        <ele>-2.0</ele>
        <time>2022-05-14T17:15:45.627Z</time>
      </trkpt>
      <trkpt lat="39.55179" lon="2.62463667">
        <ele>-2.0</ele>
        <time>2022-05-14T17:15:46.626Z</time>
      </trkpt>
      <trkpt lat="39.55180333" lon="2.62460333">
        <ele>-1.0</ele>
        <time>2022-05-14T17:15:47.626Z</time>
      </trkpt>
      <trkpt lat="39.55181333" lon="2.62456333">
        <ele>-1.0</ele>
        <time>2022-05-14T17:15:48.626Z</time>
      </trkpt>
      <trkpt lat="39.55182" lon="2.62451667">
        <ele>-1.0</ele>
        <time>2022-05-14T17:15:49.627Z</time>
      </trkpt>
      <trkpt lat="39.551825" lon="2.62446667">
        <ele>0.0</ele>
        <time>2022-05-14T17:15:50.626Z</time>
      </trkpt>
      <trkpt lat="39.551835" lon="2.62441667">
        <ele>0.0</ele>
        <time>2022-05-14T17:15:51.626Z</time>
      </trkpt>
      <trkpt lat="39.55185" lon="2.62437">
        <ele>-1.0</ele>
        <time>2022-05-14T17:15:52.627Z</time>
      </trkpt>
      <trkpt lat="39.55187333" lon="2.62432833">
        <ele>0.0</ele>
        <time>2022-05-14T17:15:53.626Z</time>
      </trkpt>
      <trkpt lat="39.5519" lon="2.624295">
        <ele>0.0</ele>
        <time>2022-05-14T17:15:54.627Z</time>
      </trkpt>
      <trkpt lat="39.55193167" lon="2.62426333">
        <ele>0.0</ele>
        <time>2022-05-14T17:15:55.627Z</time>
      </trkpt>
      <trkpt lat="39.551965" lon="2.62423833">
        <ele>0.0</ele>
        <time>2022-05-14T17:15:56.627Z</time>
      </trkpt>
      <trkpt lat="39.55199833" lon="2.62422">
        <ele>0.0</ele>
        <time>2022-05-14T17:15:57.627Z</time>
      </trkpt>
      <trkpt lat="39.55203333" lon="2.62420167">
        <ele>0.0</ele>
        <time>2022-05-14T17:15:58.627Z</time>
      </trkpt>
      <trkpt lat="39.55206667" lon="2.624185">
        <ele>0.0</ele>
        <time>2022-05-14T17:15:59.626Z</time>
      </trkpt>
      <trkpt lat="39.55210333" lon="2.62416833">
        <ele>-1.0</ele>
        <time>2022-05-14T17:16:00.627Z</time>
      </trkpt>
      <trkpt lat="39.55213667" lon="2.624155">
        <ele>0.0</ele>
        <time>2022-05-14T17:16:01.626Z</time>
      </trkpt>
      <trkpt lat="39.55217" lon="2.624145">
        <ele>0.0</ele>
        <time>2022-05-14T17:16:02.627Z</time>
      </trkpt>
      <trkpt lat="39.552205" lon="2.62413333">
        <ele>0.0</ele>
        <time>2022-05-14T17:16:03.627Z</time>
      </trkpt>
      <trkpt lat="39.55224" lon="2.62412167">
        <ele>0.0</ele>
        <time>2022-05-14T17:16:04.626Z</time>
      </trkpt>
      <trkpt lat="39.552275" lon="2.62411">
        <ele>-2.0</ele>
        <time>2022-05-14T17:16:05.627Z</time>
      </trkpt>
      <trkpt lat="39.55230833" lon="2.62410167">
        <ele>-1.0</ele>
        <time>2022-05-14T17:16:06.627Z</time>
      </trkpt>
      <trkpt lat="39.552345" lon="2.62409">
        <ele>-1.0</ele>
        <time>2022-05-14T17:16:07.626Z</time>
      </trkpt>
      <trkpt lat="39.55238333" lon="2.62407667">
        <ele>-1.0</ele>
        <time>2022-05-14T17:16:08.627Z</time>
      </trkpt>
      <trkpt lat="39.552425" lon="2.62406833">
        <ele>-1.0</ele>
        <time>2022-05-14T17:16:09.627Z</time>
      </trkpt>
      <trkpt lat="39.55246833" lon="2.62406">
        <ele>-2.0</ele>
        <time>2022-05-14T17:16:10.627Z</time>
      </trkpt>
      <trkpt lat="39.55251333" lon="2.62405">
        <ele>-2.0</ele>
        <time>2022-05-14T17:16:11.627Z</time>
      </trkpt>
      <trkpt lat="39.55255833" lon="2.62404">
        <ele>-2.0</ele>
        <time>2022-05-14T17:16:12.627Z</time>
      </trkpt>
      <trkpt lat="39.552605" lon="2.62402667">
        <ele>-2.0</ele>
        <time>2022-05-14T17:16:13.627Z</time>
      </trkpt>
      <trkpt lat="39.55265" lon="2.62401167">
        <ele>-2.0</ele>
        <time>2022-05-14T17:16:14.626Z</time>
      </trkpt>
      <trkpt lat="39.55269667" lon="2.62399833">
        <ele>-4.0</ele>
        <time>2022-05-14T17:16:15.627Z</time>
      </trkpt>
      <trkpt lat="39.55274167" lon="2.62398667">
        <ele>-2.0</ele>
        <time>2022-05-14T17:16:16.627Z</time>
      </trkpt>
      <trkpt lat="39.55278667" lon="2.62397333">
        <ele>-2.0</ele>
        <time>2022-05-14T17:16:17.627Z</time>
      </trkpt>
      <trkpt lat="39.55283" lon="2.62395833">
        <ele>-2.0</ele>
        <time>2022-05-14T17:16:18.626Z</time>
      </trkpt>
      <trkpt lat="39.55287667" lon="2.62394833">
        <ele>-2.0</ele>
        <time>2022-05-14T17:16:19.627Z</time>
      </trkpt>
      <trkpt lat="39.55291833" lon="2.62393833">
        <ele>-2.0</ele>
        <time>2022-05-14T17:16:20.626Z</time>
      </trkpt>
      <trkpt lat="39.55295833" lon="2.62392833">
        <ele>-2.0</ele>
        <time>2022-05-14T17:16:21.626Z</time>
      </trkpt>
      <trkpt lat="39.553" lon="2.62392">
        <ele>-2.0</ele>
        <time>2022-05-14T17:16:22.626Z</time>
      </trkpt>
      <trkpt lat="39.55303833" lon="2.62390833">
        <ele>-4.0</ele>
        <time>2022-05-14T17:16:23.626Z</time>
      </trkpt>
      <trkpt lat="39.55307833" lon="2.62389833">
        <ele>-3.0</ele>
        <time>2022-05-14T17:16:24.627Z</time>
      </trkpt>
      <trkpt lat="39.55311667" lon="2.62389">
        <ele>-3.0</ele>
        <time>2022-05-14T17:16:25.627Z</time>
      </trkpt>
      <trkpt lat="39.553155" lon="2.62388333">
        <ele>-2.0</ele>
        <time>2022-05-14T17:16:26.627Z</time>
      </trkpt>
      <trkpt lat="39.55319167" lon="2.62388167">
        <ele>-2.0</ele>
        <time>2022-05-14T17:16:27.627Z</time>
      </trkpt>
      <trkpt lat="39.55322167" lon="2.62389167">
        <ele>-2.0</ele>
        <time>2022-05-14T17:16:28.626Z</time>
      </trkpt>
      <trkpt lat="39.55324" lon="2.623905">
        <ele>-2.0</ele>
        <time>2022-05-14T17:16:29.627Z</time>
      </trkpt>
      <trkpt lat="39.55324833" lon="2.62391833">
        <ele>-2.0</ele>
        <time>2022-05-14T17:16:30.627Z</time>
      </trkpt>
      <trkpt lat="39.55325833" lon="2.62393667">
        <ele>-1.0</ele>
        <time>2022-05-14T17:16:31.626Z</time>
      </trkpt>
      <trkpt lat="39.55327333" lon="2.623955">
        <ele>-1.0</ele>
        <time>2022-05-14T17:16:32.627Z</time>
      </trkpt>
      <trkpt lat="39.55328833" lon="2.62396833">
        <ele>-1.0</ele>
        <time>2022-05-14T17:16:33.627Z</time>
      </trkpt>
      <trkpt lat="39.55330667" lon="2.62396833">
        <ele>-2.0</ele>
        <time>2022-05-14T17:16:34.627Z</time>
      </trkpt>
      <trkpt lat="39.55332833" lon="2.62395667">
        <ele>0.0</ele>
        <time>2022-05-14T17:16:35.626Z</time>
      </trkpt>
      <trkpt lat="39.55335667" lon="2.62394">
        <ele>0.0</ele>
        <time>2022-05-14T17:16:36.627Z</time>
      </trkpt>
      <trkpt lat="39.55338667" lon="2.623925">
        <ele>0.0</ele>
        <time>2022-05-14T17:16:37.627Z</time>
      </trkpt>
      <trkpt lat="39.55341833" lon="2.623915">
        <ele>0.0</ele>
        <time>2022-05-14T17:16:38.627Z</time>
      </trkpt>
      <trkpt lat="39.55345" lon="2.62390667">
        <ele>0.0</ele>
        <time>2022-05-14T17:16:39.626Z</time>
      </trkpt>
      <trkpt lat="39.553485" lon="2.62389833">
        <ele>-1.0</ele>
        <time>2022-05-14T17:16:40.626Z</time>
      </trkpt>
      <trkpt lat="39.55352" lon="2.62389">
        <ele>-1.0</ele>
        <time>2022-05-14T17:16:41.626Z</time>
      </trkpt>
      <trkpt lat="39.553555" lon="2.62388667">
        <ele>-3.0</ele>
        <time>2022-05-14T17:16:42.627Z</time>
      </trkpt>
      <trkpt lat="39.55358833" lon="2.623885">
        <ele>-2.0</ele>
        <time>2022-05-14T17:16:43.627Z</time>
      </trkpt>
      <trkpt lat="39.55362333" lon="2.62388833">
        <ele>-2.0</ele>
        <time>2022-05-14T17:16:44.627Z</time>
      </trkpt>
      <trkpt lat="39.55365667" lon="2.62389333">
        <ele>-2.0</ele>
        <time>2022-05-14T17:16:45.627Z</time>
      </trkpt>
      <trkpt lat="39.55368333" lon="2.623905">
        <ele>-2.0</ele>
        <time>2022-05-14T17:16:46.627Z</time>
      </trkpt>
      <trkpt lat="39.55371167" lon="2.62391167">
        <ele>-2.0</ele>
        <time>2022-05-14T17:16:47.627Z</time>
      </trkpt>
      <trkpt lat="39.55372667" lon="2.62390833">
        <ele>-2.0</ele>
        <time>2022-05-14T17:16:48.626Z</time>
      </trkpt>
      <trkpt lat="39.55374333" lon="2.62390333">
        <ele>-2.0</ele>
        <time>2022-05-14T17:16:49.627Z</time>
      </trkpt>
      <trkpt lat="39.55377167" lon="2.62390667">
        <ele>-2.0</ele>
        <time>2022-05-14T17:16:50.627Z</time>
      </trkpt>
      <trkpt lat="39.55380833" lon="2.62392167">
        <ele>-2.0</ele>
        <time>2022-05-14T17:16:51.627Z</time>
      </trkpt>
      <trkpt lat="39.55384833" lon="2.62394">
        <ele>-2.0</ele>
        <time>2022-05-14T17:16:52.627Z</time>
      </trkpt>
      <trkpt lat="39.55389" lon="2.62396">
        <ele>-2.0</ele>
        <time>2022-05-14T17:16:53.627Z</time>
      </trkpt>
      <trkpt lat="39.55393667" lon="2.62398">
        <ele>-2.0</ele>
        <time>2022-05-14T17:16:54.627Z</time>
      </trkpt>
      <trkpt lat="39.55397833" lon="2.62400167">
        <ele>-2.0</ele>
        <time>2022-05-14T17:16:55.626Z</time>
      </trkpt>
      <trkpt lat="39.55401167" lon="2.62402">
        <ele>-2.0</ele>
        <time>2022-05-14T17:16:56.627Z</time>
      </trkpt>
      <trkpt lat="39.55406167" lon="2.624045">
        <ele>-2.0</ele>
        <time>2022-05-14T17:16:57.627Z</time>
      </trkpt>
      <trkpt lat="39.5541" lon="2.624065">
        <ele>-2.0</ele>
        <time>2022-05-14T17:16:58.627Z</time>
      </trkpt>
      <trkpt lat="39.55413833" lon="2.62408167">
        <ele>-2.0</ele>
        <time>2022-05-14T17:16:59.627Z</time>
      </trkpt>
      <trkpt lat="39.55418167" lon="2.62409">
        <ele>-2.0</ele>
        <time>2022-05-14T17:17:00.626Z</time>
      </trkpt>
      <trkpt lat="39.55422833" lon="2.62409667">
        <ele>-2.0</ele>
        <time>2022-05-14T17:17:01.627Z</time>
      </trkpt>
      <trkpt lat="39.55427333" lon="2.62410333">
        <ele>-2.0</ele>
        <time>2022-05-14T17:17:02.627Z</time>
      </trkpt>
      <trkpt lat="39.55432" lon="2.62410667">
        <ele>-2.0</ele>
        <time>2022-05-14T17:17:03.627Z</time>
      </trkpt>
      <trkpt lat="39.55435667" lon="2.62411">
        <ele>-2.0</ele>
        <time>2022-05-14T17:17:04.626Z</time>
      </trkpt>
      <trkpt lat="39.55439833" lon="2.62412167">
        <ele>-2.0</ele>
        <time>2022-05-14T17:17:05.627Z</time>
      </trkpt>
      <trkpt lat="39.55444167" lon="2.62413667">
        <ele>-2.0</ele>
        <time>2022-05-14T17:17:06.626Z</time>
      </trkpt>
      <trkpt lat="39.554485" lon="2.62415667">
        <ele>-2.0</ele>
        <time>2022-05-14T17:17:07.627Z</time>
      </trkpt>
      <trkpt lat="39.55452833" lon="2.62417833">
        <ele>-2.0</ele>
        <time>2022-05-14T17:17:08.627Z</time>
      </trkpt>
      <trkpt lat="39.554575" lon="2.62420833">
        <ele>-1.0</ele>
        <time>2022-05-14T17:17:09.626Z</time>
      </trkpt>
      <trkpt lat="39.55462167" lon="2.62424333">
        <ele>-1.0</ele>
        <time>2022-05-14T17:17:10.627Z</time>
      </trkpt>
      <trkpt lat="39.554665" lon="2.62427667">
        <ele>-1.0</ele>
        <time>2022-05-14T17:17:11.627Z</time>
      </trkpt>
      <trkpt lat="39.55471333" lon="2.62431667">
        <ele>-1.0</ele>
        <time>2022-05-14T17:17:12.627Z</time>
      </trkpt>
      <trkpt lat="39.55475833" lon="2.624355">
        <ele>-1.0</ele>
        <time>2022-05-14T17:17:13.627Z</time>
      </trkpt>
      <trkpt lat="39.55480667" lon="2.624385">
        <ele>-1.0</ele>
        <time>2022-05-14T17:17:14.627Z</time>
      </trkpt>
      <trkpt lat="39.55485333" lon="2.62441333">
        <ele>-2.0</ele>
        <time>2022-05-14T17:17:15.627Z</time>
      </trkpt>
      <trkpt lat="39.55490167" lon="2.62444167">
        <ele>-2.0</ele>
        <time>2022-05-14T17:17:16.627Z</time>
      </trkpt>
      <trkpt lat="39.55495167" lon="2.62447167">
        <ele>-4.0</ele>
        <time>2022-05-14T17:17:17.627Z</time>
      </trkpt>
      <trkpt lat="39.55499667" lon="2.62450333">
        <ele>-4.0</ele>
        <time>2022-05-14T17:17:18.627Z</time>
      </trkpt>
      <trkpt lat="39.55504333" lon="2.62453">
        <ele>-2.0</ele>
        <time>2022-05-14T17:17:19.627Z</time>
      </trkpt>
      <trkpt lat="39.55509333" lon="2.62456">
        <ele>-2.0</ele>
        <time>2022-05-14T17:17:20.627Z</time>
      </trkpt>
      <trkpt lat="39.55514167" lon="2.62458667">
        <ele>-2.0</ele>
        <time>2022-05-14T17:17:21.627Z</time>
      </trkpt>
      <trkpt lat="39.55519" lon="2.62461333">
        <ele>-2.0</ele>
        <time>2022-05-14T17:17:22.626Z</time>
      </trkpt>
      <trkpt lat="39.55523667" lon="2.62464167">
        <ele>-2.0</ele>
        <time>2022-05-14T17:17:23.627Z</time>
      </trkpt>
      <trkpt lat="39.55528333" lon="2.62467">
        <ele>-2.0</ele>
        <time>2022-05-14T17:17:24.626Z</time>
      </trkpt>
      <trkpt lat="39.55533" lon="2.6247">
        <ele>-2.0</ele>
        <time>2022-05-14T17:17:25.627Z</time>
      </trkpt>
      <trkpt lat="39.55537667" lon="2.62472833">
        <ele>-2.0</ele>
        <time>2022-05-14T17:17:26.626Z</time>
      </trkpt>
      <trkpt lat="39.55542333" lon="2.62475833">
        <ele>-2.0</ele>
        <time>2022-05-14T17:17:27.627Z</time>
      </trkpt>
      <trkpt lat="39.55546667" lon="2.62478833">
        <ele>-2.0</ele>
        <time>2022-05-14T17:17:28.627Z</time>
      </trkpt>
      <trkpt lat="39.55551167" lon="2.624815">
        <ele>-2.0</ele>
        <time>2022-05-14T17:17:29.627Z</time>
      </trkpt>
      <trkpt lat="39.55555833" lon="2.62484333">
        <ele>-2.0</ele>
        <time>2022-05-14T17:17:30.627Z</time>
      </trkpt>
      <trkpt lat="39.55560667" lon="2.62487">
        <ele>-2.0</ele>
        <time>2022-05-14T17:17:31.626Z</time>
      </trkpt>
      <trkpt lat="39.55565333" lon="2.6249">
        <ele>-2.0</ele>
        <time>2022-05-14T17:17:32.627Z</time>
      </trkpt>
      <trkpt lat="39.55569833" lon="2.62493167">
        <ele>-2.0</ele>
        <time>2022-05-14T17:17:33.626Z</time>
      </trkpt>
      <trkpt lat="39.555745" lon="2.62496167">
        <ele>-3.0</ele>
        <time>2022-05-14T17:17:34.627Z</time>
      </trkpt>
      <trkpt lat="39.55579333" lon="2.62499167">
        <ele>-3.0</ele>
        <time>2022-05-14T17:17:35.626Z</time>
      </trkpt>
      <trkpt lat="39.55584167" lon="2.62502">
        <ele>-3.0</ele>
        <time>2022-05-14T17:17:36.627Z</time>
      </trkpt>
      <trkpt lat="39.55589167" lon="2.62505">
        <ele>-3.0</ele>
        <time>2022-05-14T17:17:37.627Z</time>
      </trkpt>
      <trkpt lat="39.55594" lon="2.62508">
        <ele>-3.0</ele>
        <time>2022-05-14T17:17:38.627Z</time>
      </trkpt>
      <trkpt lat="39.55598833" lon="2.62511">
        <ele>-3.0</ele>
        <time>2022-05-14T17:17:39.627Z</time>
      </trkpt>
      <trkpt lat="39.55604" lon="2.62513667">
        <ele>-3.0</ele>
        <time>2022-05-14T17:17:40.627Z</time>
      </trkpt>
      <trkpt lat="39.55609333" lon="2.625165">
        <ele>-3.0</ele>
        <time>2022-05-14T17:17:41.627Z</time>
      </trkpt>
      <trkpt lat="39.556145" lon="2.625195">
        <ele>-3.0</ele>
        <time>2022-05-14T17:17:42.626Z</time>
      </trkpt>
      <trkpt lat="39.55619667" lon="2.62522333">
        <ele>-3.0</ele>
        <time>2022-05-14T17:17:43.626Z</time>
      </trkpt>
      <trkpt lat="39.55624333" lon="2.625255">
        <ele>-3.0</ele>
        <time>2022-05-14T17:17:44.627Z</time>
      </trkpt>
      <trkpt lat="39.55629" lon="2.62528833">
        <ele>-3.0</ele>
        <time>2022-05-14T17:17:45.626Z</time>
      </trkpt>
      <trkpt lat="39.55634167" lon="2.62531667">
        <ele>-4.0</ele>
        <time>2022-05-14T17:17:46.627Z</time>
      </trkpt>
      <trkpt lat="39.556395" lon="2.62534333">
        <ele>-4.0</ele>
        <time>2022-05-14T17:17:47.627Z</time>
      </trkpt>
      <trkpt lat="39.55645" lon="2.62537">
        <ele>-2.0</ele>
        <time>2022-05-14T17:17:48.627Z</time>
      </trkpt>
      <trkpt lat="39.55650167" lon="2.62539667">
        <ele>-2.0</ele>
        <time>2022-05-14T17:17:49.626Z</time>
      </trkpt>
      <trkpt lat="39.55655" lon="2.625425">
        <ele>-2.0</ele>
        <time>2022-05-14T17:17:50.627Z</time>
      </trkpt>
      <trkpt lat="39.55659833" lon="2.625455">
        <ele>-4.0</ele>
        <time>2022-05-14T17:17:51.627Z</time>
      </trkpt>
      <trkpt lat="39.55664167" lon="2.62547667">
        <ele>-3.0</ele>
        <time>2022-05-14T17:17:52.626Z</time>
      </trkpt>
      <trkpt lat="39.55669833" lon="2.62551167">
        <ele>-4.0</ele>
        <time>2022-05-14T17:17:53.627Z</time>
      </trkpt>
      <trkpt lat="39.556745" lon="2.62554833">
        <ele>-2.0</ele>
        <time>2022-05-14T17:17:54.627Z</time>
      </trkpt>
      <trkpt lat="39.55679333" lon="2.625585">
        <ele>-2.0</ele>
        <time>2022-05-14T17:17:55.627Z</time>
      </trkpt>
      <trkpt lat="39.55684667" lon="2.62562">
        <ele>-2.0</ele>
        <time>2022-05-14T17:17:56.626Z</time>
      </trkpt>
      <trkpt lat="39.5569" lon="2.62565">
        <ele>-2.0</ele>
        <time>2022-05-14T17:17:57.626Z</time>
      </trkpt>
      <trkpt lat="39.55695667" lon="2.62568167">
        <ele>-2.0</ele>
        <time>2022-05-14T17:17:58.627Z</time>
      </trkpt>
      <trkpt lat="39.55701167" lon="2.625715">
        <ele>-3.0</ele>
        <time>2022-05-14T17:17:59.627Z</time>
      </trkpt>
      <trkpt lat="39.55706333" lon="2.625745">
        <ele>-3.0</ele>
        <time>2022-05-14T17:18:00.626Z</time>
      </trkpt>
      <trkpt lat="39.55711667" lon="2.62577333">
        <ele>-3.0</ele>
        <time>2022-05-14T17:18:01.627Z</time>
      </trkpt>
      <trkpt lat="39.55717" lon="2.62580333">
        <ele>-3.0</ele>
        <time>2022-05-14T17:18:02.627Z</time>
      </trkpt>
      <trkpt lat="39.55722167" lon="2.62583">
        <ele>-3.0</ele>
        <time>2022-05-14T17:18:03.627Z</time>
      </trkpt>
      <trkpt lat="39.557275" lon="2.62586333">
        <ele>-3.0</ele>
        <time>2022-05-14T17:18:04.626Z</time>
      </trkpt>
      <trkpt lat="39.55731833" lon="2.62589167">
        <ele>-2.0</ele>
        <time>2022-05-14T17:18:05.626Z</time>
      </trkpt>
      <trkpt lat="39.55738167" lon="2.62593167">
        <ele>-2.0</ele>
        <time>2022-05-14T17:18:06.627Z</time>
      </trkpt>
      <trkpt lat="39.55744" lon="2.62595667">
        <ele>-2.0</ele>
        <time>2022-05-14T17:18:07.627Z</time>
      </trkpt>
      <trkpt lat="39.557495" lon="2.62598667">
        <ele>-2.0</ele>
        <time>2022-05-14T17:18:08.627Z</time>
      </trkpt>
      <trkpt lat="39.557535" lon="2.62601667">
        <ele>-2.0</ele>
        <time>2022-05-14T17:18:09.627Z</time>
      </trkpt>
      <trkpt lat="39.55760167" lon="2.62605667">
        <ele>-2.0</ele>
        <time>2022-05-14T17:18:10.626Z</time>
      </trkpt>
      <trkpt lat="39.557645" lon="2.62608667">
        <ele>-2.0</ele>
        <time>2022-05-14T17:18:11.627Z</time>
      </trkpt>
      <trkpt lat="39.55771333" lon="2.626125">
        <ele>-2.0</ele>
        <time>2022-05-14T17:18:12.627Z</time>
      </trkpt>
      <trkpt lat="39.55776667" lon="2.626155">
        <ele>-4.0</ele>
        <time>2022-05-14T17:18:13.626Z</time>
      </trkpt>
      <trkpt lat="39.55781833" lon="2.62618167">
        <ele>-3.0</ele>
        <time>2022-05-14T17:18:14.627Z</time>
      </trkpt>
      <trkpt lat="39.55786833" lon="2.62621">
        <ele>-3.0</ele>
        <time>2022-05-14T17:18:15.626Z</time>
      </trkpt>
      <trkpt lat="39.55791833" lon="2.62623833">
        <ele>-3.0</ele>
        <time>2022-05-14T17:18:16.626Z</time>
      </trkpt>
      <trkpt lat="39.55797" lon="2.62626833">
        <ele>-3.0</ele>
        <time>2022-05-14T17:18:17.627Z</time>
      </trkpt>
      <trkpt lat="39.55801667" lon="2.62629667">
        <ele>-3.0</ele>
        <time>2022-05-14T17:18:18.627Z</time>
      </trkpt>
      <trkpt lat="39.55806333" lon="2.62632667">
        <ele>-3.0</ele>
        <time>2022-05-14T17:18:19.626Z</time>
      </trkpt>
      <trkpt lat="39.55810833" lon="2.62635333">
        <ele>-3.0</ele>
        <time>2022-05-14T17:18:20.626Z</time>
      </trkpt>
      <trkpt lat="39.55815167" lon="2.62638">
        <ele>-3.0</ele>
        <time>2022-05-14T17:18:21.627Z</time>
      </trkpt>
      <trkpt lat="39.55819833" lon="2.626405">
        <ele>-3.0</ele>
        <time>2022-05-14T17:18:22.627Z</time>
      </trkpt>
      <trkpt lat="39.55823833" lon="2.62643167">
        <ele>-3.0</ele>
        <time>2022-05-14T17:18:23.627Z</time>
      </trkpt>
      <trkpt lat="39.55828" lon="2.626455">
        <ele>-3.0</ele>
        <time>2022-05-14T17:18:24.627Z</time>
      </trkpt>
      <trkpt lat="39.55832333" lon="2.626475">
        <ele>-4.0</ele>
        <time>2022-05-14T17:18:25.627Z</time>
      </trkpt>
      <trkpt lat="39.55836667" lon="2.62649167">
        <ele>-2.0</ele>
        <time>2022-05-14T17:18:26.626Z</time>
      </trkpt>
      <trkpt lat="39.55840667" lon="2.62650833">
        <ele>-2.0</ele>
        <time>2022-05-14T17:18:27.626Z</time>
      </trkpt>
      <trkpt lat="39.55844667" lon="2.62652667">
        <ele>-2.0</ele>
        <time>2022-05-14T17:18:28.627Z</time>
      </trkpt>
      <trkpt lat="39.55848667" lon="2.62654167">
        <ele>-2.0</ele>
        <time>2022-05-14T17:18:29.626Z</time>
      </trkpt>
      <trkpt lat="39.55852833" lon="2.626555">
        <ele>-3.0</ele>
        <time>2022-05-14T17:18:30.627Z</time>
      </trkpt>
      <trkpt lat="39.55857" lon="2.62656667">
        <ele>-1.0</ele>
        <time>2022-05-14T17:18:31.627Z</time>
      </trkpt>
      <trkpt lat="39.55860833" lon="2.62658167">
        <ele>-1.0</ele>
        <time>2022-05-14T17:18:32.627Z</time>
      </trkpt>
      <trkpt lat="39.55864833" lon="2.62659667">
        <ele>-1.0</ele>
        <time>2022-05-14T17:18:33.626Z</time>
      </trkpt>
      <trkpt lat="39.558685" lon="2.62661333">
        <ele>-1.0</ele>
        <time>2022-05-14T17:18:34.626Z</time>
      </trkpt>
      <trkpt lat="39.558725" lon="2.62662833">
        <ele>-1.0</ele>
        <time>2022-05-14T17:18:35.627Z</time>
      </trkpt>
      <trkpt lat="39.558765" lon="2.62663667">
        <ele>0.0</ele>
        <time>2022-05-14T17:18:36.627Z</time>
      </trkpt>
      <trkpt lat="39.55880333" lon="2.62664667">
        <ele>0.0</ele>
        <time>2022-05-14T17:18:37.627Z</time>
      </trkpt>
      <trkpt lat="39.558845" lon="2.626655">
        <ele>0.0</ele>
        <time>2022-05-14T17:18:38.627Z</time>
      </trkpt>
      <trkpt lat="39.55888833" lon="2.62666167">
        <ele>0.0</ele>
        <time>2022-05-14T17:18:39.627Z</time>
      </trkpt>
      <trkpt lat="39.558935" lon="2.62666167">
        <ele>0.0</ele>
        <time>2022-05-14T17:18:40.626Z</time>
      </trkpt>
      <trkpt lat="39.55897667" lon="2.62666667">
        <ele>0.0</ele>
        <time>2022-05-14T17:18:41.627Z</time>
      </trkpt>
      <trkpt lat="39.55901667" lon="2.62667667">
        <ele>0.0</ele>
        <time>2022-05-14T17:18:42.627Z</time>
      </trkpt>
      <trkpt lat="39.55904833" lon="2.62668833">
        <ele>0.0</ele>
        <time>2022-05-14T17:18:43.626Z</time>
      </trkpt>
      <trkpt lat="39.559105" lon="2.62669667">
        <ele>0.0</ele>
        <time>2022-05-14T17:18:44.626Z</time>
      </trkpt>
      <trkpt lat="39.55915167" lon="2.6267">
        <ele>0.0</ele>
        <time>2022-05-14T17:18:45.626Z</time>
      </trkpt>
      <trkpt lat="39.55919333" lon="2.62670833">
        <ele>-1.0</ele>
        <time>2022-05-14T17:18:46.627Z</time>
      </trkpt>
      <trkpt lat="39.55922667" lon="2.62672">
        <ele>-1.0</ele>
        <time>2022-05-14T17:18:47.626Z</time>
      </trkpt>
      <trkpt lat="39.55925333" lon="2.62673">
        <ele>-1.0</ele>
        <time>2022-05-14T17:18:48.627Z</time>
      </trkpt>
      <trkpt lat="39.55930167" lon="2.62673667">
        <ele>-3.0</ele>
        <time>2022-05-14T17:18:49.627Z</time>
      </trkpt>
      <trkpt lat="39.55934" lon="2.62674333">
        <ele>-2.0</ele>
        <time>2022-05-14T17:18:50.626Z</time>
      </trkpt>
      <trkpt lat="39.55938167" lon="2.62674833">
        <ele>-2.0</ele>
        <time>2022-05-14T17:18:51.627Z</time>
      </trkpt>
      <trkpt lat="39.55942333" lon="2.62675667">
        <ele>-2.0</ele>
        <time>2022-05-14T17:18:52.626Z</time>
      </trkpt>
      <trkpt lat="39.55946167" lon="2.626765">
        <ele>-1.0</ele>
        <time>2022-05-14T17:18:53.627Z</time>
      </trkpt>
      <trkpt lat="39.5595" lon="2.62677333">
        <ele>-1.0</ele>
        <time>2022-05-14T17:18:54.627Z</time>
      </trkpt>
      <trkpt lat="39.55953833" lon="2.62678167">
        <ele>-1.0</ele>
        <time>2022-05-14T17:18:55.627Z</time>
      </trkpt>
      <trkpt lat="39.55956667" lon="2.62678667">
        <ele>-1.0</ele>
        <time>2022-05-14T17:18:56.626Z</time>
      </trkpt>
      <trkpt lat="39.55961167" lon="2.62679">
        <ele>-1.0</ele>
        <time>2022-05-14T17:18:57.627Z</time>
      </trkpt>
      <trkpt lat="39.55965167" lon="2.62679333">
        <ele>-2.0</ele>
        <time>2022-05-14T17:18:58.627Z</time>
      </trkpt>
      <trkpt lat="39.55969167" lon="2.62679833">
        <ele>-4.0</ele>
        <time>2022-05-14T17:18:59.626Z</time>
      </trkpt>
      <trkpt lat="39.55973167" lon="2.62680667">
        <ele>-3.0</ele>
        <time>2022-05-14T17:19:00.627Z</time>
      </trkpt>
      <trkpt lat="39.55976833" lon="2.62681833">
        <ele>-3.0</ele>
        <time>2022-05-14T17:19:01.626Z</time>
      </trkpt>
      <trkpt lat="39.55980167" lon="2.626835">
        <ele>-3.0</ele>
        <time>2022-05-14T17:19:02.626Z</time>
      </trkpt>
      <trkpt lat="39.559845" lon="2.62684833">
        <ele>-3.0</ele>
        <time>2022-05-14T17:19:03.627Z</time>
      </trkpt>
      <trkpt lat="39.559885" lon="2.62685833">
        <ele>-3.0</ele>
        <time>2022-05-14T17:19:04.627Z</time>
      </trkpt>
      <trkpt lat="39.559925" lon="2.62687333">
        <ele>-2.0</ele>
        <time>2022-05-14T17:19:05.627Z</time>
      </trkpt>
      <trkpt lat="39.55996667" lon="2.62688333">
        <ele>-2.0</ele>
        <time>2022-05-14T17:19:06.626Z</time>
      </trkpt>
      <trkpt lat="39.56001" lon="2.626895">
        <ele>-3.0</ele>
        <time>2022-05-14T17:19:07.626Z</time>
      </trkpt>
      <trkpt lat="39.560055" lon="2.62691333">
        <ele>-3.0</ele>
        <time>2022-05-14T17:19:08.627Z</time>
      </trkpt>
      <trkpt lat="39.56010167" lon="2.62693667">
        <ele>-4.0</ele>
        <time>2022-05-14T17:19:09.626Z</time>
      </trkpt>
      <trkpt lat="39.56014833" lon="2.62695667">
        <ele>-4.0</ele>
        <time>2022-05-14T17:19:10.627Z</time>
      </trkpt>
      <trkpt lat="39.56019667" lon="2.62697167">
        <ele>-4.0</ele>
        <time>2022-05-14T17:19:11.626Z</time>
      </trkpt>
      <trkpt lat="39.560245" lon="2.62698833">
        <ele>-4.0</ele>
        <time>2022-05-14T17:19:12.627Z</time>
      </trkpt>
      <trkpt lat="39.56029" lon="2.627">
        <ele>-5.0</ele>
        <time>2022-05-14T17:19:13.626Z</time>
      </trkpt>
      <trkpt lat="39.56033333" lon="2.62701333">
        <ele>-5.0</ele>
        <time>2022-05-14T17:19:14.626Z</time>
      </trkpt>
      <trkpt lat="39.56037833" lon="2.627025">
        <ele>-5.0</ele>
        <time>2022-05-14T17:19:15.627Z</time>
      </trkpt>
      <trkpt lat="39.56041167" lon="2.62703833">
        <ele>-5.0</ele>
        <time>2022-05-14T17:19:16.626Z</time>
      </trkpt>
      <trkpt lat="39.560465" lon="2.627055">
        <ele>-6.0</ele>
        <time>2022-05-14T17:19:17.627Z</time>
      </trkpt>
      <trkpt lat="39.56051167" lon="2.62706667">
        <ele>-4.0</ele>
        <time>2022-05-14T17:19:18.626Z</time>
      </trkpt>
      <trkpt lat="39.56055833" lon="2.62707833">
        <ele>-4.0</ele>
        <time>2022-05-14T17:19:19.627Z</time>
      </trkpt>
      <trkpt lat="39.56060167" lon="2.62709333">
        <ele>-4.0</ele>
        <time>2022-05-14T17:19:20.627Z</time>
      </trkpt>
      <trkpt lat="39.560645" lon="2.627105">
        <ele>-4.0</ele>
        <time>2022-05-14T17:19:21.627Z</time>
      </trkpt>
      <trkpt lat="39.56068667" lon="2.62711833">
        <ele>-6.0</ele>
        <time>2022-05-14T17:19:22.626Z</time>
      </trkpt>
      <trkpt lat="39.56073" lon="2.62713">
        <ele>-5.0</ele>
        <time>2022-05-14T17:19:23.627Z</time>
      </trkpt>
      <trkpt lat="39.56077167" lon="2.62714333">
        <ele>-5.0</ele>
        <time>2022-05-14T17:19:24.626Z</time>
      </trkpt>
      <trkpt lat="39.560815" lon="2.627155">
        <ele>-5.0</ele>
        <time>2022-05-14T17:19:25.626Z</time>
      </trkpt>
      <trkpt lat="39.56086167" lon="2.62716667">
        <ele>-5.0</ele>
        <time>2022-05-14T17:19:26.626Z</time>
      </trkpt>
      <trkpt lat="39.56091" lon="2.62718167">
        <ele>-7.0</ele>
        <time>2022-05-14T17:19:27.626Z</time>
      </trkpt>
      <trkpt lat="39.560955" lon="2.6272">
        <ele>-5.0</ele>
        <time>2022-05-14T17:19:28.626Z</time>
      </trkpt>
      <trkpt lat="39.561" lon="2.627215">
        <ele>-5.0</ele>
        <time>2022-05-14T17:19:29.626Z</time>
      </trkpt>
      <trkpt lat="39.56104667" lon="2.62722833">
        <ele>-5.0</ele>
        <time>2022-05-14T17:19:30.626Z</time>
      </trkpt>
      <trkpt lat="39.561095" lon="2.62724">
        <ele>-5.0</ele>
        <time>2022-05-14T17:19:31.627Z</time>
      </trkpt>
      <trkpt lat="39.56114167" lon="2.62725333">
        <ele>-5.0</ele>
        <time>2022-05-14T17:19:32.627Z</time>
      </trkpt>
      <trkpt lat="39.56118667" lon="2.62726667">
        <ele>-5.0</ele>
        <time>2022-05-14T17:19:33.626Z</time>
      </trkpt>
      <trkpt lat="39.56123333" lon="2.627275">
        <ele>-5.0</ele>
        <time>2022-05-14T17:19:34.626Z</time>
      </trkpt>
      <trkpt lat="39.56128167" lon="2.62728">
        <ele>-5.0</ele>
        <time>2022-05-14T17:19:35.627Z</time>
      </trkpt>
      <trkpt lat="39.56133" lon="2.627285">
        <ele>-5.0</ele>
        <time>2022-05-14T17:19:36.627Z</time>
      </trkpt>
      <trkpt lat="39.56137333" lon="2.62729667">
        <ele>-4.0</ele>
        <time>2022-05-14T17:19:37.627Z</time>
      </trkpt>
      <trkpt lat="39.56141167" lon="2.62731333">
        <ele>-4.0</ele>
        <time>2022-05-14T17:19:38.627Z</time>
      </trkpt>
      <trkpt lat="39.56145167" lon="2.627335">
        <ele>-4.0</ele>
        <time>2022-05-14T17:19:39.627Z</time>
      </trkpt>
      <trkpt lat="39.56148833" lon="2.62735333">
        <ele>-4.0</ele>
        <time>2022-05-14T17:19:40.626Z</time>
      </trkpt>
      <trkpt lat="39.56152333" lon="2.62737">
        <ele>-4.0</ele>
        <time>2022-05-14T17:19:41.627Z</time>
      </trkpt>
      <trkpt lat="39.56156167" lon="2.627385">
        <ele>-4.0</ele>
        <time>2022-05-14T17:19:42.627Z</time>
      </trkpt>
      <trkpt lat="39.5616" lon="2.62739667">
        <ele>-5.0</ele>
        <time>2022-05-14T17:19:43.626Z</time>
      </trkpt>
      <trkpt lat="39.561635" lon="2.62741333">
        <ele>-3.0</ele>
        <time>2022-05-14T17:19:44.627Z</time>
      </trkpt>
      <trkpt lat="39.561675" lon="2.62742667">
        <ele>-3.0</ele>
        <time>2022-05-14T17:19:45.626Z</time>
      </trkpt>
      <trkpt lat="39.561715" lon="2.62744">
        <ele>-3.0</ele>
        <time>2022-05-14T17:19:46.627Z</time>
      </trkpt>
      <trkpt lat="39.561755" lon="2.62745333">
        <ele>-3.0</ele>
        <time>2022-05-14T17:19:47.627Z</time>
      </trkpt>
      <trkpt lat="39.5618" lon="2.627465">
        <ele>-3.0</ele>
        <time>2022-05-14T17:19:48.627Z</time>
      </trkpt>
      <trkpt lat="39.561845" lon="2.62747833">
        <ele>-3.0</ele>
        <time>2022-05-14T17:19:49.626Z</time>
      </trkpt>
      <trkpt lat="39.56189" lon="2.62749167">
        <ele>-3.0</ele>
        <time>2022-05-14T17:19:50.626Z</time>
      </trkpt>
      <trkpt lat="39.561935" lon="2.62750333">
        <ele>-3.0</ele>
        <time>2022-05-14T17:19:51.627Z</time>
      </trkpt>
      <trkpt lat="39.56198" lon="2.62751833">
        <ele>-3.0</ele>
        <time>2022-05-14T17:19:52.626Z</time>
      </trkpt>
      <trkpt lat="39.56202333" lon="2.62752833">
        <ele>-3.0</ele>
        <time>2022-05-14T17:19:53.627Z</time>
      </trkpt>
      <trkpt lat="39.56207167" lon="2.62753667">
        <ele>-3.0</ele>
        <time>2022-05-14T17:19:54.626Z</time>
      </trkpt>
      <trkpt lat="39.56211833" lon="2.62754167">
        <ele>-3.0</ele>
        <time>2022-05-14T17:19:55.626Z</time>
      </trkpt>
      <trkpt lat="39.56216667" lon="2.62754667">
        <ele>-4.0</ele>
        <time>2022-05-14T17:19:56.626Z</time>
      </trkpt>
      <trkpt lat="39.562215" lon="2.627555">
        <ele>-4.0</ele>
        <time>2022-05-14T17:19:57.627Z</time>
      </trkpt>
      <trkpt lat="39.56226333" lon="2.627565">
        <ele>-3.0</ele>
        <time>2022-05-14T17:19:58.627Z</time>
      </trkpt>
      <trkpt lat="39.56230833" lon="2.62758167">
        <ele>-3.0</ele>
        <time>2022-05-14T17:19:59.627Z</time>
      </trkpt>
      <trkpt lat="39.56235667" lon="2.62759333">
        <ele>-3.0</ele>
        <time>2022-05-14T17:20:00.627Z</time>
      </trkpt>
      <trkpt lat="39.56240333" lon="2.627605">
        <ele>-5.0</ele>
        <time>2022-05-14T17:20:01.627Z</time>
      </trkpt>
      <trkpt lat="39.56245" lon="2.62761833">
        <ele>-4.0</ele>
        <time>2022-05-14T17:20:02.627Z</time>
      </trkpt>
      <trkpt lat="39.562495" lon="2.62763167">
        <ele>-4.0</ele>
        <time>2022-05-14T17:20:03.626Z</time>
      </trkpt>
      <trkpt lat="39.56254167" lon="2.62765333">
        <ele>-4.0</ele>
        <time>2022-05-14T17:20:04.627Z</time>
      </trkpt>
      <trkpt lat="39.56258833" lon="2.62767667">
        <ele>-4.0</ele>
        <time>2022-05-14T17:20:05.627Z</time>
      </trkpt>
      <trkpt lat="39.562635" lon="2.627695">
        <ele>-5.0</ele>
        <time>2022-05-14T17:20:06.626Z</time>
      </trkpt>
      <trkpt lat="39.56268333" lon="2.62771167">
        <ele>-5.0</ele>
        <time>2022-05-14T17:20:07.627Z</time>
      </trkpt>
      <trkpt lat="39.56273167" lon="2.62773">
        <ele>-4.0</ele>
        <time>2022-05-14T17:20:08.627Z</time>
      </trkpt>
      <trkpt lat="39.56277667" lon="2.62774667">
        <ele>-4.0</ele>
        <time>2022-05-14T17:20:09.626Z</time>
      </trkpt>
      <trkpt lat="39.56282333" lon="2.627765">
        <ele>-4.0</ele>
        <time>2022-05-14T17:20:10.626Z</time>
      </trkpt>
      <trkpt lat="39.56287" lon="2.627785">
        <ele>-4.0</ele>
        <time>2022-05-14T17:20:11.626Z</time>
      </trkpt>
      <trkpt lat="39.56291333" lon="2.62780167">
        <ele>-5.0</ele>
        <time>2022-05-14T17:20:12.627Z</time>
      </trkpt>
      <trkpt lat="39.562955" lon="2.62782167">
        <ele>-3.0</ele>
        <time>2022-05-14T17:20:13.626Z</time>
      </trkpt>
      <trkpt lat="39.563" lon="2.62784">
        <ele>-3.0</ele>
        <time>2022-05-14T17:20:14.627Z</time>
      </trkpt>
      <trkpt lat="39.56304667" lon="2.62786">
        <ele>-3.0</ele>
        <time>2022-05-14T17:20:15.626Z</time>
      </trkpt>
      <trkpt lat="39.56309167" lon="2.62788">
        <ele>-3.0</ele>
        <time>2022-05-14T17:20:16.627Z</time>
      </trkpt>
      <trkpt lat="39.56313833" lon="2.6279">
        <ele>-3.0</ele>
        <time>2022-05-14T17:20:17.627Z</time>
      </trkpt>
      <trkpt lat="39.56318167" lon="2.62791667">
        <ele>-3.0</ele>
        <time>2022-05-14T17:20:18.626Z</time>
      </trkpt>
      <trkpt lat="39.563225" lon="2.627935">
        <ele>-3.0</ele>
        <time>2022-05-14T17:20:19.627Z</time>
      </trkpt>
      <trkpt lat="39.56326667" lon="2.62795667">
        <ele>-3.0</ele>
        <time>2022-05-14T17:20:20.627Z</time>
      </trkpt>
      <trkpt lat="39.56330167" lon="2.62797167">
        <ele>-3.0</ele>
        <time>2022-05-14T17:20:21.627Z</time>
      </trkpt>
      <trkpt lat="39.56335167" lon="2.62799333">
        <ele>-3.0</ele>
        <time>2022-05-14T17:20:22.627Z</time>
      </trkpt>
      <trkpt lat="39.56339167" lon="2.62801">
        <ele>-3.0</ele>
        <time>2022-05-14T17:20:23.627Z</time>
      </trkpt>
      <trkpt lat="39.56343167" lon="2.62802667">
        <ele>-5.0</ele>
        <time>2022-05-14T17:20:24.627Z</time>
      </trkpt>
      <trkpt lat="39.56347167" lon="2.62804">
        <ele>-4.0</ele>
        <time>2022-05-14T17:20:25.627Z</time>
      </trkpt>
      <trkpt lat="39.56351167" lon="2.62804833">
        <ele>-4.0</ele>
        <time>2022-05-14T17:20:26.627Z</time>
      </trkpt>
      <trkpt lat="39.56355333" lon="2.62805333">
        <ele>-4.0</ele>
        <time>2022-05-14T17:20:27.627Z</time>
      </trkpt>
      <trkpt lat="39.56359667" lon="2.62806">
        <ele>-4.0</ele>
        <time>2022-05-14T17:20:28.626Z</time>
      </trkpt>
      <trkpt lat="39.56363833" lon="2.62807">
        <ele>-6.0</ele>
        <time>2022-05-14T17:20:29.626Z</time>
      </trkpt>
      <trkpt lat="39.56368167" lon="2.62808167">
        <ele>-6.0</ele>
        <time>2022-05-14T17:20:30.627Z</time>
      </trkpt>
      <trkpt lat="39.563725" lon="2.62809833">
        <ele>-4.0</ele>
        <time>2022-05-14T17:20:31.627Z</time>
      </trkpt>
      <trkpt lat="39.56377" lon="2.62811333">
        <ele>-6.0</ele>
        <time>2022-05-14T17:20:32.626Z</time>
      </trkpt>
      <trkpt lat="39.56381833" lon="2.62812833">
        <ele>-6.0</ele>
        <time>2022-05-14T17:20:33.627Z</time>
      </trkpt>
      <trkpt lat="39.56386333" lon="2.62815">
        <ele>-4.0</ele>
        <time>2022-05-14T17:20:34.627Z</time>
      </trkpt>
      <trkpt lat="39.56390833" lon="2.62817">
        <ele>-4.0</ele>
        <time>2022-05-14T17:20:35.627Z</time>
      </trkpt>
      <trkpt lat="39.56395333" lon="2.62819">
        <ele>-3.0</ele>
        <time>2022-05-14T17:20:36.626Z</time>
      </trkpt>
      <trkpt lat="39.564" lon="2.62820833">
        <ele>-3.0</ele>
        <time>2022-05-14T17:20:37.627Z</time>
      </trkpt>
      <trkpt lat="39.564045" lon="2.628225">
        <ele>-3.0</ele>
        <time>2022-05-14T17:20:38.627Z</time>
      </trkpt>
      <trkpt lat="39.56409167" lon="2.62824167">
        <ele>-3.0</ele>
        <time>2022-05-14T17:20:39.627Z</time>
      </trkpt>
      <trkpt lat="39.56413833" lon="2.62826">
        <ele>-3.0</ele>
        <time>2022-05-14T17:20:40.627Z</time>
      </trkpt>
      <trkpt lat="39.56418333" lon="2.62827833">
        <ele>-5.0</ele>
        <time>2022-05-14T17:20:41.626Z</time>
      </trkpt>
      <trkpt lat="39.56422833" lon="2.62829667">
        <ele>-4.0</ele>
        <time>2022-05-14T17:20:42.626Z</time>
      </trkpt>
      <trkpt lat="39.56427167" lon="2.628315">
        <ele>-4.0</ele>
        <time>2022-05-14T17:20:43.627Z</time>
      </trkpt>
      <trkpt lat="39.564315" lon="2.62833333">
        <ele>-4.0</ele>
        <time>2022-05-14T17:20:44.626Z</time>
      </trkpt>
      <trkpt lat="39.56436" lon="2.62835">
        <ele>-5.0</ele>
        <time>2022-05-14T17:20:45.626Z</time>
      </trkpt>
      <trkpt lat="39.56440667" lon="2.62836667">
        <ele>-3.0</ele>
        <time>2022-05-14T17:20:46.627Z</time>
      </trkpt>
      <trkpt lat="39.56444833" lon="2.62838333">
        <ele>-3.0</ele>
        <time>2022-05-14T17:20:47.627Z</time>
      </trkpt>
      <trkpt lat="39.56449167" lon="2.62840333">
        <ele>-3.0</ele>
        <time>2022-05-14T17:20:48.627Z</time>
      </trkpt>
      <trkpt lat="39.564535" lon="2.62842333">
        <ele>-3.0</ele>
        <time>2022-05-14T17:20:49.627Z</time>
      </trkpt>
      <trkpt lat="39.56457667" lon="2.62844167">
        <ele>-2.0</ele>
        <time>2022-05-14T17:20:50.627Z</time>
      </trkpt>
      <trkpt lat="39.56461833" lon="2.62846">
        <ele>-2.0</ele>
        <time>2022-05-14T17:20:51.627Z</time>
      </trkpt>
      <trkpt lat="39.56466" lon="2.62848">
        <ele>-2.0</ele>
        <time>2022-05-14T17:20:52.627Z</time>
      </trkpt>
      <trkpt lat="39.56470167" lon="2.6285">
        <ele>-3.0</ele>
        <time>2022-05-14T17:20:53.626Z</time>
      </trkpt>
      <trkpt lat="39.564745" lon="2.62852">
        <ele>-1.0</ele>
        <time>2022-05-14T17:20:54.627Z</time>
      </trkpt>
      <trkpt lat="39.56478833" lon="2.62853667">
        <ele>-1.0</ele>
        <time>2022-05-14T17:20:55.627Z</time>
      </trkpt>
      <trkpt lat="39.56483167" lon="2.62855333">
        <ele>-1.0</ele>
        <time>2022-05-14T17:20:56.627Z</time>
      </trkpt>
      <trkpt lat="39.564875" lon="2.62857167">
        <ele>-1.0</ele>
        <time>2022-05-14T17:20:57.626Z</time>
      </trkpt>
      <trkpt lat="39.56492" lon="2.62858833">
        <ele>-1.0</ele>
        <time>2022-05-14T17:20:58.626Z</time>
      </trkpt>
      <trkpt lat="39.56496167" lon="2.628605">
        <ele>-1.0</ele>
        <time>2022-05-14T17:20:59.627Z</time>
      </trkpt>
      <trkpt lat="39.565005" lon="2.62862333">
        <ele>-1.0</ele>
        <time>2022-05-14T17:21:00.627Z</time>
      </trkpt>
      <trkpt lat="39.56504833" lon="2.62864333">
        <ele>-1.0</ele>
        <time>2022-05-14T17:21:01.627Z</time>
      </trkpt>
      <trkpt lat="39.56509333" lon="2.62866167">
        <ele>-1.0</ele>
        <time>2022-05-14T17:21:02.626Z</time>
      </trkpt>
      <trkpt lat="39.56514" lon="2.62867667">
        <ele>-1.0</ele>
        <time>2022-05-14T17:21:03.626Z</time>
      </trkpt>
      <trkpt lat="39.56518667" lon="2.628695">
        <ele>-2.0</ele>
        <time>2022-05-14T17:21:04.626Z</time>
      </trkpt>
      <trkpt lat="39.56523167" lon="2.62871667">
        <ele>-2.0</ele>
        <time>2022-05-14T17:21:05.626Z</time>
      </trkpt>
      <trkpt lat="39.56528" lon="2.628735">
        <ele>-2.0</ele>
        <time>2022-05-14T17:21:06.626Z</time>
      </trkpt>
      <trkpt lat="39.565325" lon="2.62875333">
        <ele>-2.0</ele>
        <time>2022-05-14T17:21:07.627Z</time>
      </trkpt>
      <trkpt lat="39.56537167" lon="2.62877167">
        <ele>-3.0</ele>
        <time>2022-05-14T17:21:08.627Z</time>
      </trkpt>
      <trkpt lat="39.56541833" lon="2.62879167">
        <ele>-3.0</ele>
        <time>2022-05-14T17:21:09.627Z</time>
      </trkpt>
      <trkpt lat="39.565465" lon="2.62881167">
        <ele>-3.0</ele>
        <time>2022-05-14T17:21:10.627Z</time>
      </trkpt>
      <trkpt lat="39.56551333" lon="2.62882833">
        <ele>-3.0</ele>
        <time>2022-05-14T17:21:11.626Z</time>
      </trkpt>
      <trkpt lat="39.56556" lon="2.628845">
        <ele>-3.0</ele>
        <time>2022-05-14T17:21:12.627Z</time>
      </trkpt>
      <trkpt lat="39.56560667" lon="2.62886">
        <ele>-4.0</ele>
        <time>2022-05-14T17:21:13.626Z</time>
      </trkpt>
      <trkpt lat="39.56565167" lon="2.62888">
        <ele>-3.0</ele>
        <time>2022-05-14T17:21:14.627Z</time>
      </trkpt>
      <trkpt lat="39.565695" lon="2.62889833">
        <ele>-3.0</ele>
        <time>2022-05-14T17:21:15.627Z</time>
      </trkpt>
      <trkpt lat="39.56574" lon="2.62891667">
        <ele>-3.0</ele>
        <time>2022-05-14T17:21:16.627Z</time>
      </trkpt>
      <trkpt lat="39.565785" lon="2.62893667">
        <ele>-3.0</ele>
        <time>2022-05-14T17:21:17.626Z</time>
      </trkpt>
      <trkpt lat="39.56583333" lon="2.628955">
        <ele>-3.0</ele>
        <time>2022-05-14T17:21:18.627Z</time>
      </trkpt>
      <trkpt lat="39.56587833" lon="2.628975">
        <ele>-3.0</ele>
        <time>2022-05-14T17:21:19.626Z</time>
      </trkpt>
      <trkpt lat="39.56592333" lon="2.628995">
        <ele>-3.0</ele>
        <time>2022-05-14T17:21:20.627Z</time>
      </trkpt>
      <trkpt lat="39.56596667" lon="2.62901667">
        <ele>-3.0</ele>
        <time>2022-05-14T17:21:21.627Z</time>
      </trkpt>
      <trkpt lat="39.56600667" lon="2.62903833">
        <ele>-3.0</ele>
        <time>2022-05-14T17:21:22.627Z</time>
      </trkpt>
      <trkpt lat="39.56604667" lon="2.62906">
        <ele>-3.0</ele>
        <time>2022-05-14T17:21:23.627Z</time>
      </trkpt>
      <trkpt lat="39.566085" lon="2.62908333">
        <ele>-2.0</ele>
        <time>2022-05-14T17:21:24.626Z</time>
      </trkpt>
      <trkpt lat="39.56612333" lon="2.629105">
        <ele>-2.0</ele>
        <time>2022-05-14T17:21:25.627Z</time>
      </trkpt>
      <trkpt lat="39.56616333" lon="2.62913">
        <ele>-2.0</ele>
        <time>2022-05-14T17:21:26.627Z</time>
      </trkpt>
      <trkpt lat="39.56620167" lon="2.62915333">
        <ele>-2.0</ele>
        <time>2022-05-14T17:21:27.626Z</time>
      </trkpt>
      <trkpt lat="39.56624333" lon="2.62918">
        <ele>-2.0</ele>
        <time>2022-05-14T17:21:28.627Z</time>
      </trkpt>
      <trkpt lat="39.56628167" lon="2.62920667">
        <ele>-2.0</ele>
        <time>2022-05-14T17:21:29.627Z</time>
      </trkpt>
      <trkpt lat="39.56632167" lon="2.62923333">
        <ele>-2.0</ele>
        <time>2022-05-14T17:21:30.626Z</time>
      </trkpt>
      <trkpt lat="39.56636" lon="2.62926">
        <ele>-2.0</ele>
        <time>2022-05-14T17:21:31.626Z</time>
      </trkpt>
      <trkpt lat="39.566395" lon="2.629285">
        <ele>-2.0</ele>
        <time>2022-05-14T17:21:32.627Z</time>
      </trkpt>
      <trkpt lat="39.56643167" lon="2.62931167">
        <ele>-2.0</ele>
        <time>2022-05-14T17:21:33.627Z</time>
      </trkpt>
      <trkpt lat="39.56646667" lon="2.62933833">
        <ele>-2.0</ele>
        <time>2022-05-14T17:21:34.627Z</time>
      </trkpt>
      <trkpt lat="39.5665" lon="2.629365">
        <ele>-2.0</ele>
        <time>2022-05-14T17:21:35.626Z</time>
      </trkpt>
      <trkpt lat="39.56653" lon="2.62939667">
        <ele>-2.0</ele>
        <time>2022-05-14T17:21:36.626Z</time>
      </trkpt>
      <trkpt lat="39.56655167" lon="2.629435">
        <ele>-2.0</ele>
        <time>2022-05-14T17:21:37.626Z</time>
      </trkpt>
      <trkpt lat="39.56656" lon="2.62947833">
        <ele>-2.0</ele>
        <time>2022-05-14T17:21:38.627Z</time>
      </trkpt>
      <trkpt lat="39.56656167" lon="2.62952">
        <ele>-1.0</ele>
        <time>2022-05-14T17:21:39.626Z</time>
      </trkpt>
      <trkpt lat="39.56657" lon="2.62956">
        <ele>-1.0</ele>
        <time>2022-05-14T17:21:40.626Z</time>
      </trkpt>
      <trkpt lat="39.56658167" lon="2.62959833">
        <ele>-1.0</ele>
        <time>2022-05-14T17:21:41.627Z</time>
      </trkpt>
      <trkpt lat="39.56660167" lon="2.62963333">
        <ele>-1.0</ele>
        <time>2022-05-14T17:21:42.627Z</time>
      </trkpt>
      <trkpt lat="39.566625" lon="2.62966833">
        <ele>-1.0</ele>
        <time>2022-05-14T17:21:43.627Z</time>
      </trkpt>
      <trkpt lat="39.56665167" lon="2.6297">
        <ele>-1.0</ele>
        <time>2022-05-14T17:21:44.626Z</time>
      </trkpt>
      <trkpt lat="39.56667833" lon="2.629735">
        <ele>-1.0</ele>
        <time>2022-05-14T17:21:45.626Z</time>
      </trkpt>
      <trkpt lat="39.56670833" lon="2.62976833">
        <ele>-1.0</ele>
        <time>2022-05-14T17:21:46.627Z</time>
      </trkpt>
      <trkpt lat="39.56674167" lon="2.62979667">
        <ele>-1.0</ele>
        <time>2022-05-14T17:21:47.627Z</time>
      </trkpt>
      <trkpt lat="39.566775" lon="2.62982833">
        <ele>-2.0</ele>
        <time>2022-05-14T17:21:48.626Z</time>
      </trkpt>
      <trkpt lat="39.566805" lon="2.62986">
        <ele>-2.0</ele>
        <time>2022-05-14T17:21:49.627Z</time>
      </trkpt>
      <trkpt lat="39.56684" lon="2.62989">
        <ele>-2.0</ele>
        <time>2022-05-14T17:21:50.627Z</time>
      </trkpt>
      <trkpt lat="39.56687667" lon="2.629925">
        <ele>-2.0</ele>
        <time>2022-05-14T17:21:51.627Z</time>
      </trkpt>
      <trkpt lat="39.56691" lon="2.629965">
        <ele>-3.0</ele>
        <time>2022-05-14T17:21:52.627Z</time>
      </trkpt>
      <trkpt lat="39.566945" lon="2.63000167">
        <ele>-2.0</ele>
        <time>2022-05-14T17:21:53.627Z</time>
      </trkpt>
      <trkpt lat="39.56697833" lon="2.63004">
        <ele>-2.0</ele>
        <time>2022-05-14T17:21:54.627Z</time>
      </trkpt>
      <trkpt lat="39.56701667" lon="2.63008">
        <ele>-4.0</ele>
        <time>2022-05-14T17:21:55.626Z</time>
      </trkpt>
      <trkpt lat="39.56704833" lon="2.63011833">
        <ele>-3.0</ele>
        <time>2022-05-14T17:21:56.627Z</time>
      </trkpt>
      <trkpt lat="39.56707833" lon="2.63016167">
        <ele>-3.0</ele>
        <time>2022-05-14T17:21:57.627Z</time>
      </trkpt>
      <trkpt lat="39.56710667" lon="2.63020167">
        <ele>-3.0</ele>
        <time>2022-05-14T17:21:58.627Z</time>
      </trkpt>
      <trkpt lat="39.56713667" lon="2.63023833">
        <ele>-4.0</ele>
        <time>2022-05-14T17:21:59.627Z</time>
      </trkpt>
      <trkpt lat="39.56716167" lon="2.630265">
        <ele>-4.0</ele>
        <time>2022-05-14T17:22:00.626Z</time>
      </trkpt>
      <trkpt lat="39.5672" lon="2.63030167">
        <ele>-4.0</ele>
        <time>2022-05-14T17:22:01.626Z</time>
      </trkpt>
      <trkpt lat="39.56723" lon="2.63032667">
        <ele>-4.0</ele>
        <time>2022-05-14T17:22:02.627Z</time>
      </trkpt>
      <trkpt lat="39.56725833" lon="2.63034">
        <ele>-4.0</ele>
        <time>2022-05-14T17:22:03.627Z</time>
      </trkpt>
      <trkpt lat="39.567285" lon="2.63034667">
        <ele>-4.0</ele>
        <time>2022-05-14T17:22:04.627Z</time>
      </trkpt>
      <trkpt lat="39.56731167" lon="2.630355">
        <ele>-4.0</ele>
        <time>2022-05-14T17:22:05.627Z</time>
      </trkpt>
      <trkpt lat="39.56733833" lon="2.63037">
        <ele>-4.0</ele>
        <time>2022-05-14T17:22:06.627Z</time>
      </trkpt>
      <trkpt lat="39.567365" lon="2.63039333">
        <ele>-4.0</ele>
        <time>2022-05-14T17:22:07.626Z</time>
      </trkpt>
      <trkpt lat="39.56739333" lon="2.630415">
        <ele>-4.0</ele>
        <time>2022-05-14T17:22:08.626Z</time>
      </trkpt>
      <trkpt lat="39.567425" lon="2.630435">
        <ele>-4.0</ele>
        <time>2022-05-14T17:22:09.626Z</time>
      </trkpt>
      <trkpt lat="39.56745833" lon="2.63044833">
        <ele>-4.0</ele>
        <time>2022-05-14T17:22:10.627Z</time>
      </trkpt>
      <trkpt lat="39.56749333" lon="2.63046167">
        <ele>-4.0</ele>
        <time>2022-05-14T17:22:11.626Z</time>
      </trkpt>
      <trkpt lat="39.567525" lon="2.630485">
        <ele>-4.0</ele>
        <time>2022-05-14T17:22:12.626Z</time>
      </trkpt>
      <trkpt lat="39.56755833" lon="2.63051333">
        <ele>-4.0</ele>
        <time>2022-05-14T17:22:13.626Z</time>
      </trkpt>
      <trkpt lat="39.56759" lon="2.63054333">
        <ele>-5.0</ele>
        <time>2022-05-14T17:22:14.627Z</time>
      </trkpt>
      <trkpt lat="39.56761833" lon="2.63057833">
        <ele>-5.0</ele>
        <time>2022-05-14T17:22:15.626Z</time>
      </trkpt>
      <trkpt lat="39.56764667" lon="2.63061">
        <ele>-5.0</ele>
        <time>2022-05-14T17:22:16.627Z</time>
      </trkpt>
      <trkpt lat="39.56767167" lon="2.63064">
        <ele>-5.0</ele>
        <time>2022-05-14T17:22:17.627Z</time>
      </trkpt>
      <trkpt lat="39.567695" lon="2.63067">
        <ele>-5.0</ele>
        <time>2022-05-14T17:22:18.627Z</time>
      </trkpt>
      <trkpt lat="39.56771833" lon="2.63070167">
        <ele>-4.0</ele>
        <time>2022-05-14T17:22:19.626Z</time>
      </trkpt>
      <trkpt lat="39.56774167" lon="2.63073167">
        <ele>-4.0</ele>
        <time>2022-05-14T17:22:20.626Z</time>
      </trkpt>
      <trkpt lat="39.56776333" lon="2.63076167">
        <ele>-4.0</ele>
        <time>2022-05-14T17:22:21.626Z</time>
      </trkpt>
      <trkpt lat="39.56778833" lon="2.63079">
        <ele>-4.0</ele>
        <time>2022-05-14T17:22:22.627Z</time>
      </trkpt>
      <trkpt lat="39.56781333" lon="2.63081333">
        <ele>-4.0</ele>
        <time>2022-05-14T17:22:23.627Z</time>
      </trkpt>
      <trkpt lat="39.567835" lon="2.630845">
        <ele>-4.0</ele>
        <time>2022-05-14T17:22:24.627Z</time>
      </trkpt>
      <trkpt lat="39.56785" lon="2.63087667">
        <ele>-4.0</ele>
        <time>2022-05-14T17:22:25.626Z</time>
      </trkpt>
      <trkpt lat="39.56786667" lon="2.63091167">
        <ele>-4.0</ele>
        <time>2022-05-14T17:22:26.627Z</time>
      </trkpt>
      <trkpt lat="39.56787833" lon="2.63095">
        <ele>-6.0</ele>
        <time>2022-05-14T17:22:27.627Z</time>
      </trkpt>
      <trkpt lat="39.56789333" lon="2.63098667">
        <ele>-5.0</ele>
        <time>2022-05-14T17:22:28.627Z</time>
      </trkpt>
      <trkpt lat="39.567915" lon="2.631025">
        <ele>-5.0</ele>
        <time>2022-05-14T17:22:29.627Z</time>
      </trkpt>
      <trkpt lat="39.567935" lon="2.631065">
        <ele>-5.0</ele>
        <time>2022-05-14T17:22:30.627Z</time>
      </trkpt>
      <trkpt lat="39.56795667" lon="2.631105">
        <ele>-5.0</ele>
        <time>2022-05-14T17:22:31.627Z</time>
      </trkpt>
      <trkpt lat="39.56798333" lon="2.63114667">
        <ele>-5.0</ele>
        <time>2022-05-14T17:22:32.627Z</time>
      </trkpt>
      <trkpt lat="39.56801167" lon="2.63119">
        <ele>-4.0</ele>
        <time>2022-05-14T17:22:33.627Z</time>
      </trkpt>
      <trkpt lat="39.56804167" lon="2.63123333">
        <ele>-3.0</ele>
        <time>2022-05-14T17:22:34.627Z</time>
      </trkpt>
      <trkpt lat="39.56807" lon="2.63127833">
        <ele>-3.0</ele>
        <time>2022-05-14T17:22:35.626Z</time>
      </trkpt>
      <trkpt lat="39.568095" lon="2.63132167">
        <ele>-3.0</ele>
        <time>2022-05-14T17:22:36.627Z</time>
      </trkpt>
      <trkpt lat="39.56811833" lon="2.631365">
        <ele>-3.0</ele>
        <time>2022-05-14T17:22:37.627Z</time>
      </trkpt>
      <trkpt lat="39.56814333" lon="2.63140667">
        <ele>-3.0</ele>
        <time>2022-05-14T17:22:38.627Z</time>
      </trkpt>
      <trkpt lat="39.568165" lon="2.63144833">
        <ele>-3.0</ele>
        <time>2022-05-14T17:22:39.627Z</time>
      </trkpt>
      <trkpt lat="39.56818833" lon="2.63149">
        <ele>-3.0</ele>
        <time>2022-05-14T17:22:40.626Z</time>
      </trkpt>
      <trkpt lat="39.56820667" lon="2.63153333">
        <ele>-3.0</ele>
        <time>2022-05-14T17:22:41.627Z</time>
      </trkpt>
      <trkpt lat="39.568225" lon="2.63158167">
        <ele>-3.0</ele>
        <time>2022-05-14T17:22:42.627Z</time>
      </trkpt>
      <trkpt lat="39.56824167" lon="2.63163">
        <ele>-3.0</ele>
        <time>2022-05-14T17:22:43.626Z</time>
      </trkpt>
      <trkpt lat="39.56826" lon="2.63167667">
        <ele>-4.0</ele>
        <time>2022-05-14T17:22:44.627Z</time>
      </trkpt>
      <trkpt lat="39.568275" lon="2.631725">
        <ele>-4.0</ele>
        <time>2022-05-14T17:22:45.627Z</time>
      </trkpt>
      <trkpt lat="39.56828833" lon="2.63177667">
        <ele>-4.0</ele>
        <time>2022-05-14T17:22:46.627Z</time>
      </trkpt>
      <trkpt lat="39.56829833" lon="2.63183">
        <ele>-4.0</ele>
        <time>2022-05-14T17:22:47.627Z</time>
      </trkpt>
      <trkpt lat="39.56831167" lon="2.63188167">
        <ele>-4.0</ele>
        <time>2022-05-14T17:22:48.627Z</time>
      </trkpt>
      <trkpt lat="39.568325" lon="2.631935">
        <ele>-4.0</ele>
        <time>2022-05-14T17:22:49.627Z</time>
      </trkpt>
      <trkpt lat="39.56834" lon="2.63199">
        <ele>-4.0</ele>
        <time>2022-05-14T17:22:50.627Z</time>
      </trkpt>
      <trkpt lat="39.56835667" lon="2.63204833">
        <ele>-4.0</ele>
        <time>2022-05-14T17:22:51.626Z</time>
      </trkpt>
      <trkpt lat="39.56837333" lon="2.632105">
        <ele>-4.0</ele>
        <time>2022-05-14T17:22:52.627Z</time>
      </trkpt>
      <trkpt lat="39.56838833" lon="2.63216333">
        <ele>-4.0</ele>
        <time>2022-05-14T17:22:53.627Z</time>
      </trkpt>
      <trkpt lat="39.568405" lon="2.63222">
        <ele>-4.0</ele>
        <time>2022-05-14T17:22:54.626Z</time>
      </trkpt>
      <trkpt lat="39.56841833" lon="2.632275">
        <ele>-4.0</ele>
        <time>2022-05-14T17:22:55.627Z</time>
      </trkpt>
      <trkpt lat="39.56843167" lon="2.63233">
        <ele>-4.0</ele>
        <time>2022-05-14T17:22:56.627Z</time>
      </trkpt>
      <trkpt lat="39.568445" lon="2.63238333">
        <ele>-4.0</ele>
        <time>2022-05-14T17:22:57.627Z</time>
      </trkpt>
      <trkpt lat="39.56845667" lon="2.63243833">
        <ele>-4.0</ele>
        <time>2022-05-14T17:22:58.626Z</time>
      </trkpt>
      <trkpt lat="39.56846833" lon="2.632495">
        <ele>-4.0</ele>
        <time>2022-05-14T17:22:59.627Z</time>
      </trkpt>
      <trkpt lat="39.56848" lon="2.63255167">
        <ele>-4.0</ele>
        <time>2022-05-14T17:23:00.627Z</time>
      </trkpt>
      <trkpt lat="39.568485" lon="2.63261167">
        <ele>-5.0</ele>
        <time>2022-05-14T17:23:01.627Z</time>
      </trkpt>
      <trkpt lat="39.56848667" lon="2.63267333">
        <ele>-3.0</ele>
        <time>2022-05-14T17:23:02.627Z</time>
      </trkpt>
      <trkpt lat="39.56849" lon="2.63273333">
        <ele>-3.0</ele>
        <time>2022-05-14T17:23:03.627Z</time>
      </trkpt>
      <trkpt lat="39.56849833" lon="2.63279333">
        <ele>-3.0</ele>
        <time>2022-05-14T17:23:04.627Z</time>
      </trkpt>
      <trkpt lat="39.56850833" lon="2.63285667">
        <ele>-3.0</ele>
        <time>2022-05-14T17:23:05.627Z</time>
      </trkpt>
      <trkpt lat="39.56851833" lon="2.63292">
        <ele>-3.0</ele>
        <time>2022-05-14T17:23:06.626Z</time>
      </trkpt>
      <trkpt lat="39.56852833" lon="2.63298167">
        <ele>-3.0</ele>
        <time>2022-05-14T17:23:07.627Z</time>
      </trkpt>
      <trkpt lat="39.56853833" lon="2.63304167">
        <ele>-3.0</ele>
        <time>2022-05-14T17:23:08.627Z</time>
      </trkpt>
      <trkpt lat="39.56854667" lon="2.63310333">
        <ele>-4.0</ele>
        <time>2022-05-14T17:23:09.627Z</time>
      </trkpt>
      <trkpt lat="39.568555" lon="2.63316667">
        <ele>-4.0</ele>
        <time>2022-05-14T17:23:10.627Z</time>
      </trkpt>
      <trkpt lat="39.56856167" lon="2.63323">
        <ele>-4.0</ele>
        <time>2022-05-14T17:23:11.626Z</time>
      </trkpt>
      <trkpt lat="39.568565" lon="2.63328">
        <ele>-4.0</ele>
        <time>2022-05-14T17:23:12.627Z</time>
      </trkpt>
      <trkpt lat="39.56857333" lon="2.633355">
        <ele>-4.0</ele>
        <time>2022-05-14T17:23:13.627Z</time>
      </trkpt>
      <trkpt lat="39.56857833" lon="2.633415">
        <ele>-4.0</ele>
        <time>2022-05-14T17:23:14.626Z</time>
      </trkpt>
      <trkpt lat="39.56858333" lon="2.63347667">
        <ele>-4.0</ele>
        <time>2022-05-14T17:23:15.627Z</time>
      </trkpt>
      <trkpt lat="39.56858833" lon="2.63353667">
        <ele>-4.0</ele>
        <time>2022-05-14T17:23:16.627Z</time>
      </trkpt>
      <trkpt lat="39.56859333" lon="2.63358667">
        <ele>-4.0</ele>
        <time>2022-05-14T17:23:17.626Z</time>
      </trkpt>
      <trkpt lat="39.56859667" lon="2.63366">
        <ele>-5.0</ele>
        <time>2022-05-14T17:23:18.626Z</time>
      </trkpt>
      <trkpt lat="39.56860167" lon="2.63372167">
        <ele>-6.0</ele>
        <time>2022-05-14T17:23:19.627Z</time>
      </trkpt>
      <trkpt lat="39.56860833" lon="2.63378167">
        <ele>-4.0</ele>
        <time>2022-05-14T17:23:20.627Z</time>
      </trkpt>
      <trkpt lat="39.56861333" lon="2.63384">
        <ele>-4.0</ele>
        <time>2022-05-14T17:23:21.627Z</time>
      </trkpt>
      <trkpt lat="39.56861833" lon="2.63389833">
        <ele>-4.0</ele>
        <time>2022-05-14T17:23:22.627Z</time>
      </trkpt>
      <trkpt lat="39.56862167" lon="2.633955">
        <ele>-6.0</ele>
        <time>2022-05-14T17:23:23.627Z</time>
      </trkpt>
      <trkpt lat="39.568625" lon="2.63401333">
        <ele>-5.0</ele>
        <time>2022-05-14T17:23:24.626Z</time>
      </trkpt>
      <trkpt lat="39.56862333" lon="2.63407167">
        <ele>-4.0</ele>
        <time>2022-05-14T17:23:25.627Z</time>
      </trkpt>
      <trkpt lat="39.56862" lon="2.63412833">
        <ele>-6.0</ele>
        <time>2022-05-14T17:23:26.627Z</time>
      </trkpt>
      <trkpt lat="39.56862" lon="2.63418">
        <ele>-5.0</ele>
        <time>2022-05-14T17:23:27.626Z</time>
      </trkpt>
      <trkpt lat="39.56862" lon="2.63423167">
        <ele>-5.0</ele>
        <time>2022-05-14T17:23:28.627Z</time>
      </trkpt>
      <trkpt lat="39.56862333" lon="2.63428333">
        <ele>-5.0</ele>
        <time>2022-05-14T17:23:29.627Z</time>
      </trkpt>
      <trkpt lat="39.56862667" lon="2.634335">
        <ele>-5.0</ele>
        <time>2022-05-14T17:23:30.627Z</time>
      </trkpt>
      <trkpt lat="39.56863167" lon="2.63439167">
        <ele>-5.0</ele>
        <time>2022-05-14T17:23:31.627Z</time>
      </trkpt>
      <trkpt lat="39.568635" lon="2.63445">
        <ele>-5.0</ele>
        <time>2022-05-14T17:23:32.627Z</time>
      </trkpt>
      <trkpt lat="39.56864167" lon="2.63451">
        <ele>-7.0</ele>
        <time>2022-05-14T17:23:33.627Z</time>
      </trkpt>
      <trkpt lat="39.56864667" lon="2.63457">
        <ele>-5.0</ele>
        <time>2022-05-14T17:23:34.627Z</time>
      </trkpt>
      <trkpt lat="39.56865" lon="2.63462167">
        <ele>-5.0</ele>
        <time>2022-05-14T17:23:35.626Z</time>
      </trkpt>
      <trkpt lat="39.56865333" lon="2.63467">
        <ele>-6.0</ele>
        <time>2022-05-14T17:23:36.627Z</time>
      </trkpt>
      <trkpt lat="39.56865667" lon="2.63471833">
        <ele>-6.0</ele>
        <time>2022-05-14T17:23:37.626Z</time>
      </trkpt>
      <trkpt lat="39.56865833" lon="2.63476667">
        <ele>-6.0</ele>
        <time>2022-05-14T17:23:38.627Z</time>
      </trkpt>
      <trkpt lat="39.56866167" lon="2.634815">
        <ele>-6.0</ele>
        <time>2022-05-14T17:23:39.626Z</time>
      </trkpt>
      <trkpt lat="39.56866333" lon="2.63486167">
        <ele>-6.0</ele>
        <time>2022-05-14T17:23:40.627Z</time>
      </trkpt>
      <trkpt lat="39.568665" lon="2.6349">
        <ele>-6.0</ele>
        <time>2022-05-14T17:23:41.627Z</time>
      </trkpt>
      <trkpt lat="39.56866667" lon="2.634955">
        <ele>-6.0</ele>
        <time>2022-05-14T17:23:42.627Z</time>
      </trkpt>
      <trkpt lat="39.568665" lon="2.635">
        <ele>-6.0</ele>
        <time>2022-05-14T17:23:43.626Z</time>
      </trkpt>
      <trkpt lat="39.56865833" lon="2.635045">
        <ele>-6.0</ele>
        <time>2022-05-14T17:23:44.627Z</time>
      </trkpt>
      <trkpt lat="39.56865" lon="2.63507833">
        <ele>-6.0</ele>
        <time>2022-05-14T17:23:45.627Z</time>
      </trkpt>
      <trkpt lat="39.56863333" lon="2.63512167">
        <ele>-5.0</ele>
        <time>2022-05-14T17:23:46.627Z</time>
      </trkpt>
      <trkpt lat="39.568615" lon="2.63515167">
        <ele>-4.0</ele>
        <time>2022-05-14T17:23:47.626Z</time>
      </trkpt>
      <trkpt lat="39.5686" lon="2.63518333">
        <ele>-5.0</ele>
        <time>2022-05-14T17:23:48.627Z</time>
      </trkpt>
      <trkpt lat="39.56859167" lon="2.63521833">
        <ele>-4.0</ele>
        <time>2022-05-14T17:23:49.627Z</time>
      </trkpt>
      <trkpt lat="39.56859167" lon="2.63525667">
        <ele>-4.0</ele>
        <time>2022-05-14T17:23:50.627Z</time>
      </trkpt>
      <trkpt lat="39.568595" lon="2.63529">
        <ele>-4.0</ele>
        <time>2022-05-14T17:23:51.626Z</time>
      </trkpt>
      <trkpt lat="39.568605" lon="2.63534333">
        <ele>-4.0</ele>
        <time>2022-05-14T17:23:52.627Z</time>
      </trkpt>
      <trkpt lat="39.56861667" lon="2.63538833">
        <ele>-4.0</ele>
        <time>2022-05-14T17:23:53.626Z</time>
      </trkpt>
      <trkpt lat="39.56862833" lon="2.63542333">
        <ele>-4.0</ele>
        <time>2022-05-14T17:23:54.627Z</time>
      </trkpt>
      <trkpt lat="39.56864667" lon="2.63547833">
        <ele>-4.0</ele>
        <time>2022-05-14T17:23:55.627Z</time>
      </trkpt>
      <trkpt lat="39.56866333" lon="2.63552333">
        <ele>-4.0</ele>
        <time>2022-05-14T17:23:56.626Z</time>
      </trkpt>
      <trkpt lat="39.56867667" lon="2.63557">
        <ele>-4.0</ele>
        <time>2022-05-14T17:23:57.626Z</time>
      </trkpt>
      <trkpt lat="39.56869" lon="2.63561667">
        <ele>-5.0</ele>
        <time>2022-05-14T17:23:58.627Z</time>
      </trkpt>
      <trkpt lat="39.56870333" lon="2.63566333">
        <ele>-3.0</ele>
        <time>2022-05-14T17:23:59.627Z</time>
      </trkpt>
      <trkpt lat="39.56871667" lon="2.63571167">
        <ele>-3.0</ele>
        <time>2022-05-14T17:24:00.627Z</time>
      </trkpt>
      <trkpt lat="39.56872833" lon="2.635755">
        <ele>-5.0</ele>
        <time>2022-05-14T17:24:01.626Z</time>
      </trkpt>
      <trkpt lat="39.56873833" lon="2.63579833">
        <ele>-4.0</ele>
        <time>2022-05-14T17:24:02.626Z</time>
      </trkpt>
      <trkpt lat="39.56874833" lon="2.63584167">
        <ele>-4.0</ele>
        <time>2022-05-14T17:24:03.626Z</time>
      </trkpt>
      <trkpt lat="39.56875667" lon="2.63587833">
        <ele>-4.0</ele>
        <time>2022-05-14T17:24:04.626Z</time>
      </trkpt>
      <trkpt lat="39.56876833" lon="2.635925">
        <ele>-4.0</ele>
        <time>2022-05-14T17:24:05.627Z</time>
      </trkpt>
      <trkpt lat="39.56878" lon="2.63598">
        <ele>-4.0</ele>
        <time>2022-05-14T17:24:06.627Z</time>
      </trkpt>
      <trkpt lat="39.56878833" lon="2.63602667">
        <ele>-5.0</ele>
        <time>2022-05-14T17:24:07.627Z</time>
      </trkpt>
      <trkpt lat="39.56879667" lon="2.63607667">
        <ele>-5.0</ele>
        <time>2022-05-14T17:24:08.627Z</time>
      </trkpt>
      <trkpt lat="39.56880333" lon="2.63611667">
        <ele>-5.0</ele>
        <time>2022-05-14T17:24:09.627Z</time>
      </trkpt>
      <trkpt lat="39.56881167" lon="2.63617833">
        <ele>-5.0</ele>
        <time>2022-05-14T17:24:10.627Z</time>
      </trkpt>
      <trkpt lat="39.56881667" lon="2.63623833">
        <ele>-5.0</ele>
        <time>2022-05-14T17:24:11.627Z</time>
      </trkpt>
      <trkpt lat="39.56882167" lon="2.63629333">
        <ele>-5.0</ele>
        <time>2022-05-14T17:24:12.626Z</time>
      </trkpt>
      <trkpt lat="39.56882667" lon="2.63634">
        <ele>-6.0</ele>
        <time>2022-05-14T17:24:13.627Z</time>
      </trkpt>
      <trkpt lat="39.568835" lon="2.63640833">
        <ele>-6.0</ele>
        <time>2022-05-14T17:24:14.627Z</time>
      </trkpt>
      <trkpt lat="39.56884167" lon="2.63646667">
        <ele>-6.0</ele>
        <time>2022-05-14T17:24:15.627Z</time>
      </trkpt>
      <trkpt lat="39.568845" lon="2.63652667">
        <ele>-7.0</ele>
        <time>2022-05-14T17:24:16.626Z</time>
      </trkpt>
      <trkpt lat="39.56884667" lon="2.63658833">
        <ele>-7.0</ele>
        <time>2022-05-14T17:24:17.627Z</time>
      </trkpt>
      <trkpt lat="39.56885" lon="2.63663333">
        <ele>-9.0</ele>
        <time>2022-05-14T17:24:18.627Z</time>
      </trkpt>
      <trkpt lat="39.568855" lon="2.63668833">
        <ele>-8.0</ele>
        <time>2022-05-14T17:24:19.627Z</time>
      </trkpt>
      <trkpt lat="39.56886" lon="2.63675833">
        <ele>-8.0</ele>
        <time>2022-05-14T17:24:20.627Z</time>
      </trkpt>
      <trkpt lat="39.56886333" lon="2.63682">
        <ele>-8.0</ele>
        <time>2022-05-14T17:24:21.626Z</time>
      </trkpt>
      <trkpt lat="39.568865" lon="2.63687333">
        <ele>-8.0</ele>
        <time>2022-05-14T17:24:22.627Z</time>
      </trkpt>
      <trkpt lat="39.56886833" lon="2.636935">
        <ele>-7.0</ele>
        <time>2022-05-14T17:24:23.626Z</time>
      </trkpt>
      <trkpt lat="39.56887333" lon="2.63699667">
        <ele>-6.0</ele>
        <time>2022-05-14T17:24:24.627Z</time>
      </trkpt>
      <trkpt lat="39.56887667" lon="2.63706">
        <ele>-5.0</ele>
        <time>2022-05-14T17:24:25.627Z</time>
      </trkpt>
      <trkpt lat="39.56888333" lon="2.63712167">
        <ele>-4.0</ele>
        <time>2022-05-14T17:24:26.627Z</time>
      </trkpt>
      <trkpt lat="39.56889" lon="2.63718667">
        <ele>-4.0</ele>
        <time>2022-05-14T17:24:27.627Z</time>
      </trkpt>
      <trkpt lat="39.56890167" lon="2.637265">
        <ele>-3.0</ele>
        <time>2022-05-14T17:24:28.627Z</time>
      </trkpt>
      <trkpt lat="39.56890833" lon="2.63732667">
        <ele>-3.0</ele>
        <time>2022-05-14T17:24:29.626Z</time>
      </trkpt>
      <trkpt lat="39.56891333" lon="2.63739167">
        <ele>-3.0</ele>
        <time>2022-05-14T17:24:30.627Z</time>
      </trkpt>
      <trkpt lat="39.568915" lon="2.63745667">
        <ele>-3.0</ele>
        <time>2022-05-14T17:24:31.627Z</time>
      </trkpt>
      <trkpt lat="39.56890833" lon="2.63752333">
        <ele>-3.0</ele>
        <time>2022-05-14T17:24:32.627Z</time>
      </trkpt>
      <trkpt lat="39.56890667" lon="2.63759167">
        <ele>-3.0</ele>
        <time>2022-05-14T17:24:33.627Z</time>
      </trkpt>
      <trkpt lat="39.56890667" lon="2.63765667">
        <ele>-3.0</ele>
        <time>2022-05-14T17:24:34.627Z</time>
      </trkpt>
      <trkpt lat="39.56891" lon="2.63771667">
        <ele>-3.0</ele>
        <time>2022-05-14T17:24:35.627Z</time>
      </trkpt>
      <trkpt lat="39.56891333" lon="2.63777667">
        <ele>-3.0</ele>
        <time>2022-05-14T17:24:36.626Z</time>
      </trkpt>
      <trkpt lat="39.56891667" lon="2.63783333">
        <ele>-5.0</ele>
        <time>2022-05-14T17:24:37.627Z</time>
      </trkpt>
      <trkpt lat="39.56891667" lon="2.63788667">
        <ele>-3.0</ele>
        <time>2022-05-14T17:24:38.627Z</time>
      </trkpt>
      <trkpt lat="39.56892" lon="2.63796333">
        <ele>-3.0</ele>
        <time>2022-05-14T17:24:39.626Z</time>
      </trkpt>
      <trkpt lat="39.56892167" lon="2.63802833">
        <ele>-3.0</ele>
        <time>2022-05-14T17:24:40.627Z</time>
      </trkpt>
      <trkpt lat="39.56892167" lon="2.638095">
        <ele>-3.0</ele>
        <time>2022-05-14T17:24:41.627Z</time>
      </trkpt>
      <trkpt lat="39.56892333" lon="2.63814833">
        <ele>-3.0</ele>
        <time>2022-05-14T17:24:42.627Z</time>
      </trkpt>
      <trkpt lat="39.56892667" lon="2.638225">
        <ele>-3.0</ele>
        <time>2022-05-14T17:24:43.626Z</time>
      </trkpt>
      <trkpt lat="39.56892667" lon="2.63829333">
        <ele>-3.0</ele>
        <time>2022-05-14T17:24:44.626Z</time>
      </trkpt>
      <trkpt lat="39.56892667" lon="2.63836">
        <ele>-3.0</ele>
        <time>2022-05-14T17:24:45.627Z</time>
      </trkpt>
      <trkpt lat="39.56892833" lon="2.63842667">
        <ele>-5.0</ele>
        <time>2022-05-14T17:24:46.627Z</time>
      </trkpt>
      <trkpt lat="39.56892833" lon="2.63847667">
        <ele>-4.0</ele>
        <time>2022-05-14T17:24:47.626Z</time>
      </trkpt>
      <trkpt lat="39.56893" lon="2.63855167">
        <ele>-4.0</ele>
        <time>2022-05-14T17:24:48.627Z</time>
      </trkpt>
      <trkpt lat="39.56893" lon="2.63861333">
        <ele>-4.0</ele>
        <time>2022-05-14T17:24:49.626Z</time>
      </trkpt>
      <trkpt lat="39.56893" lon="2.63867167">
        <ele>-4.0</ele>
        <time>2022-05-14T17:24:50.627Z</time>
      </trkpt>
      <trkpt lat="39.56893167" lon="2.63872333">
        <ele>-4.0</ele>
        <time>2022-05-14T17:24:51.626Z</time>
      </trkpt>
      <trkpt lat="39.568935" lon="2.63877667">
        <ele>-4.0</ele>
        <time>2022-05-14T17:24:52.626Z</time>
      </trkpt>
      <trkpt lat="39.56894333" lon="2.63881667">
        <ele>-4.0</ele>
        <time>2022-05-14T17:24:53.626Z</time>
      </trkpt>
      <trkpt lat="39.56895333" lon="2.63886833">
        <ele>-5.0</ele>
        <time>2022-05-14T17:24:54.627Z</time>
      </trkpt>
      <trkpt lat="39.56896167" lon="2.638935">
        <ele>-5.0</ele>
        <time>2022-05-14T17:24:55.627Z</time>
      </trkpt>
      <trkpt lat="39.56896333" lon="2.63898333">
        <ele>-4.0</ele>
        <time>2022-05-14T17:24:56.627Z</time>
      </trkpt>
      <trkpt lat="39.56896667" lon="2.63903667">
        <ele>-4.0</ele>
        <time>2022-05-14T17:24:57.626Z</time>
      </trkpt>
      <trkpt lat="39.568975" lon="2.63910167">
        <ele>-4.0</ele>
        <time>2022-05-14T17:24:58.626Z</time>
      </trkpt>
      <trkpt lat="39.568985" lon="2.63914333">
        <ele>-4.0</ele>
        <time>2022-05-14T17:24:59.627Z</time>
      </trkpt>
      <trkpt lat="39.56900333" lon="2.63919333">
        <ele>-4.0</ele>
        <time>2022-05-14T17:25:00.627Z</time>
      </trkpt>
      <trkpt lat="39.56902833" lon="2.63923833">
        <ele>-4.0</ele>
        <time>2022-05-14T17:25:01.627Z</time>
      </trkpt>
      <trkpt lat="39.56905833" lon="2.63928167">
        <ele>-5.0</ele>
        <time>2022-05-14T17:25:02.626Z</time>
      </trkpt>
      <trkpt lat="39.56909" lon="2.63933">
        <ele>-3.0</ele>
        <time>2022-05-14T17:25:03.626Z</time>
      </trkpt>
      <trkpt lat="39.56911833" lon="2.63937">
        <ele>-3.0</ele>
        <time>2022-05-14T17:25:04.626Z</time>
      </trkpt>
      <trkpt lat="39.569145" lon="2.63940667">
        <ele>-3.0</ele>
        <time>2022-05-14T17:25:05.626Z</time>
      </trkpt>
      <trkpt lat="39.56916667" lon="2.63943333">
        <ele>-3.0</ele>
        <time>2022-05-14T17:25:06.627Z</time>
      </trkpt>
      <trkpt lat="39.56919667" lon="2.639465">
        <ele>-3.0</ele>
        <time>2022-05-14T17:25:07.626Z</time>
      </trkpt>
      <trkpt lat="39.56922333" lon="2.63949333">
        <ele>-2.0</ele>
        <time>2022-05-14T17:25:08.627Z</time>
      </trkpt>
      <trkpt lat="39.56924667" lon="2.639525">
        <ele>-2.0</ele>
        <time>2022-05-14T17:25:09.627Z</time>
      </trkpt>
      <trkpt lat="39.56926167" lon="2.63957">
        <ele>-2.0</ele>
        <time>2022-05-14T17:25:10.627Z</time>
      </trkpt>
      <trkpt lat="39.56926833" lon="2.63960167">
        <ele>-2.0</ele>
        <time>2022-05-14T17:25:11.627Z</time>
      </trkpt>
      <trkpt lat="39.56927167" lon="2.63963833">
        <ele>-3.0</ele>
        <time>2022-05-14T17:25:12.627Z</time>
      </trkpt>
      <trkpt lat="39.569285" lon="2.639675">
        <ele>-3.0</ele>
        <time>2022-05-14T17:25:13.627Z</time>
      </trkpt>
      <trkpt lat="39.56930333" lon="2.63968833">
        <ele>-3.0</ele>
        <time>2022-05-14T17:25:14.626Z</time>
      </trkpt>
      <trkpt lat="39.569325" lon="2.63969667">
        <ele>-4.0</ele>
        <time>2022-05-14T17:25:15.627Z</time>
      </trkpt>
      <trkpt lat="39.56934333" lon="2.63969833">
        <ele>-4.0</ele>
        <time>2022-05-14T17:25:16.627Z</time>
      </trkpt>
      <trkpt lat="39.56936667" lon="2.63969333">
        <ele>-4.0</ele>
        <time>2022-05-14T17:25:17.627Z</time>
      </trkpt>
      <trkpt lat="39.5694" lon="2.63968667">
        <ele>-4.0</ele>
        <time>2022-05-14T17:25:18.626Z</time>
      </trkpt>
      <trkpt lat="39.56942667" lon="2.63968">
        <ele>-4.0</ele>
        <time>2022-05-14T17:25:19.626Z</time>
      </trkpt>
      <trkpt lat="39.56945833" lon="2.63967667">
        <ele>-4.0</ele>
        <time>2022-05-14T17:25:20.627Z</time>
      </trkpt>
      <trkpt lat="39.56948167" lon="2.63967333">
        <ele>-5.0</ele>
        <time>2022-05-14T17:25:21.627Z</time>
      </trkpt>
      <trkpt lat="39.56951333" lon="2.63966833">
        <ele>-5.0</ele>
        <time>2022-05-14T17:25:22.627Z</time>
      </trkpt>
      <trkpt lat="39.56954" lon="2.63967167">
        <ele>-5.0</ele>
        <time>2022-05-14T17:25:23.627Z</time>
      </trkpt>
      <trkpt lat="39.569565" lon="2.63969167">
        <ele>-5.0</ele>
        <time>2022-05-14T17:25:24.626Z</time>
      </trkpt>
      <trkpt lat="39.56958" lon="2.63971333">
        <ele>-5.0</ele>
        <time>2022-05-14T17:25:25.627Z</time>
      </trkpt>
      <trkpt lat="39.56959833" lon="2.63973833">
        <ele>-5.0</ele>
        <time>2022-05-14T17:25:26.627Z</time>
      </trkpt>
      <trkpt lat="39.56962" lon="2.63976333">
        <ele>-4.0</ele>
        <time>2022-05-14T17:25:27.627Z</time>
      </trkpt>
      <trkpt lat="39.56964167" lon="2.639785">
        <ele>-4.0</ele>
        <time>2022-05-14T17:25:28.626Z</time>
      </trkpt>
      <trkpt lat="39.56966333" lon="2.63981167">
        <ele>-4.0</ele>
        <time>2022-05-14T17:25:29.626Z</time>
      </trkpt>
      <trkpt lat="39.56967667" lon="2.63982667">
        <ele>-4.0</ele>
        <time>2022-05-14T17:25:30.627Z</time>
      </trkpt>
      <trkpt lat="39.56969667" lon="2.63984">
        <ele>-4.0</ele>
        <time>2022-05-14T17:25:31.627Z</time>
      </trkpt>
      <trkpt lat="39.56972167" lon="2.639855">
        <ele>-4.0</ele>
        <time>2022-05-14T17:25:32.627Z</time>
      </trkpt>
      <trkpt lat="39.56974667" lon="2.63987167">
        <ele>-3.0</ele>
        <time>2022-05-14T17:25:33.627Z</time>
      </trkpt>
      <trkpt lat="39.56976833" lon="2.63988667">
        <ele>-3.0</ele>
        <time>2022-05-14T17:25:34.627Z</time>
      </trkpt>
      <trkpt lat="39.569785" lon="2.639895">
        <ele>-4.0</ele>
        <time>2022-05-14T17:25:35.627Z</time>
      </trkpt>
      <trkpt lat="39.569805" lon="2.63991167">
        <ele>-2.0</ele>
        <time>2022-05-14T17:25:36.627Z</time>
      </trkpt>
      <trkpt lat="39.56982833" lon="2.63993167">
        <ele>-2.0</ele>
        <time>2022-05-14T17:25:37.626Z</time>
      </trkpt>
      <trkpt lat="39.56984833" lon="2.63994833">
        <ele>-2.0</ele>
        <time>2022-05-14T17:25:38.627Z</time>
      </trkpt>
      <trkpt lat="39.56987167" lon="2.639965">
        <ele>-1.0</ele>
        <time>2022-05-14T17:25:39.626Z</time>
      </trkpt>
      <trkpt lat="39.56989" lon="2.63997667">
        <ele>0.0</ele>
        <time>2022-05-14T17:25:40.627Z</time>
      </trkpt>
      <trkpt lat="39.56991333" lon="2.63999167">
        <ele>0.0</ele>
        <time>2022-05-14T17:25:41.627Z</time>
      </trkpt>
      <trkpt lat="39.56994167" lon="2.64001333">
        <ele>0.0</ele>
        <time>2022-05-14T17:25:42.626Z</time>
      </trkpt>
      <trkpt lat="39.56996833" lon="2.64003667">
        <ele>0.0</ele>
        <time>2022-05-14T17:25:43.627Z</time>
      </trkpt>
      <trkpt lat="39.56999" lon="2.64005167">
        <ele>0.0</ele>
        <time>2022-05-14T17:25:44.627Z</time>
      </trkpt>
      <trkpt lat="39.570015" lon="2.640075">
        <ele>1.0</ele>
        <time>2022-05-14T17:25:45.627Z</time>
      </trkpt>
      <trkpt lat="39.57004167" lon="2.64009667">
        <ele>1.0</ele>
        <time>2022-05-14T17:25:46.627Z</time>
      </trkpt>
      <trkpt lat="39.570065" lon="2.64012167">
        <ele>1.0</ele>
        <time>2022-05-14T17:25:47.626Z</time>
      </trkpt>
      <trkpt lat="39.57008333" lon="2.64014167">
        <ele>1.0</ele>
        <time>2022-05-14T17:25:48.626Z</time>
      </trkpt>
      <trkpt lat="39.57010167" lon="2.64015667">
        <ele>2.0</ele>
        <time>2022-05-14T17:25:49.626Z</time>
      </trkpt>
      <trkpt lat="39.57012167" lon="2.64017167">
        <ele>1.0</ele>
        <time>2022-05-14T17:25:50.626Z</time>
      </trkpt>
      <trkpt lat="39.57014167" lon="2.64019333">
        <ele>1.0</ele>
        <time>2022-05-14T17:25:51.627Z</time>
      </trkpt>
      <trkpt lat="39.57016167" lon="2.640215">
        <ele>1.0</ele>
        <time>2022-05-14T17:25:52.627Z</time>
      </trkpt>
      <trkpt lat="39.57018" lon="2.64023833">
        <ele>1.0</ele>
        <time>2022-05-14T17:25:53.627Z</time>
      </trkpt>
      <trkpt lat="39.570195" lon="2.64025833">
        <ele>1.0</ele>
        <time>2022-05-14T17:25:54.627Z</time>
      </trkpt>
      <trkpt lat="39.57021833" lon="2.64028333">
        <ele>2.0</ele>
        <time>2022-05-14T17:25:55.627Z</time>
      </trkpt>
      <trkpt lat="39.57024667" lon="2.64031167">
        <ele>3.0</ele>
        <time>2022-05-14T17:25:56.626Z</time>
      </trkpt>
      <trkpt lat="39.57027" lon="2.640335">
        <ele>4.0</ele>
        <time>2022-05-14T17:25:57.627Z</time>
      </trkpt>
      <trkpt lat="39.57029" lon="2.64035">
        <ele>4.0</ele>
        <time>2022-05-14T17:25:58.627Z</time>
      </trkpt>
      <trkpt lat="39.570325" lon="2.640365">
        <ele>4.0</ele>
        <time>2022-05-14T17:25:59.626Z</time>
      </trkpt>
      <trkpt lat="39.57035333" lon="2.64039833">
        <ele>5.0</ele>
        <time>2022-05-14T17:26:00.627Z</time>
      </trkpt>
      <trkpt lat="39.57037667" lon="2.64042333">
        <ele>5.0</ele>
        <time>2022-05-14T17:26:01.627Z</time>
      </trkpt>
      <trkpt lat="39.57039833" lon="2.64044833">
        <ele>5.0</ele>
        <time>2022-05-14T17:26:02.626Z</time>
      </trkpt>
      <trkpt lat="39.57041667" lon="2.64046333">
        <ele>4.0</ele>
        <time>2022-05-14T17:26:03.626Z</time>
      </trkpt>
      <trkpt lat="39.570445" lon="2.64047833">
        <ele>4.0</ele>
        <time>2022-05-14T17:26:04.626Z</time>
      </trkpt>
      <trkpt lat="39.570475" lon="2.64050167">
        <ele>5.0</ele>
        <time>2022-05-14T17:26:05.627Z</time>
      </trkpt>
      <trkpt lat="39.57049667" lon="2.64052333">
        <ele>5.0</ele>
        <time>2022-05-14T17:26:06.626Z</time>
      </trkpt>
      <trkpt lat="39.57052167" lon="2.64054667">
        <ele>5.0</ele>
        <time>2022-05-14T17:26:07.627Z</time>
      </trkpt>
      <trkpt lat="39.57053833" lon="2.64057">
        <ele>5.0</ele>
        <time>2022-05-14T17:26:08.626Z</time>
      </trkpt>
      <trkpt lat="39.57056333" lon="2.64059667">
        <ele>5.0</ele>
        <time>2022-05-14T17:26:09.626Z</time>
      </trkpt>
      <trkpt lat="39.57059" lon="2.64061833">
        <ele>5.0</ele>
        <time>2022-05-14T17:26:10.627Z</time>
      </trkpt>
      <trkpt lat="39.57062" lon="2.64064667">
        <ele>5.0</ele>
        <time>2022-05-14T17:26:11.626Z</time>
      </trkpt>
      <trkpt lat="39.57063833" lon="2.64066333">
        <ele>5.0</ele>
        <time>2022-05-14T17:26:12.627Z</time>
      </trkpt>
      <trkpt lat="39.570665" lon="2.640685">
        <ele>5.0</ele>
        <time>2022-05-14T17:26:13.626Z</time>
      </trkpt>
      <trkpt lat="39.57069333" lon="2.64070833">
        <ele>4.0</ele>
        <time>2022-05-14T17:26:14.627Z</time>
      </trkpt>
      <trkpt lat="39.57071667" lon="2.64073">
        <ele>4.0</ele>
        <time>2022-05-14T17:26:15.626Z</time>
      </trkpt>
      <trkpt lat="39.57074167" lon="2.64074833">
        <ele>4.0</ele>
        <time>2022-05-14T17:26:16.626Z</time>
      </trkpt>
      <trkpt lat="39.57076333" lon="2.64076833">
        <ele>5.0</ele>
        <time>2022-05-14T17:26:17.627Z</time>
      </trkpt>
      <trkpt lat="39.57078667" lon="2.64079167">
        <ele>6.0</ele>
        <time>2022-05-14T17:26:18.626Z</time>
      </trkpt>
      <trkpt lat="39.570815" lon="2.64081667">
        <ele>6.0</ele>
        <time>2022-05-14T17:26:19.627Z</time>
      </trkpt>
      <trkpt lat="39.57084" lon="2.64083667">
        <ele>6.0</ele>
        <time>2022-05-14T17:26:20.627Z</time>
      </trkpt>
      <trkpt lat="39.57086" lon="2.640855">
        <ele>7.0</ele>
        <time>2022-05-14T17:26:21.627Z</time>
      </trkpt>
      <trkpt lat="39.57087667" lon="2.64086833">
        <ele>7.0</ele>
        <time>2022-05-14T17:26:22.626Z</time>
      </trkpt>
      <trkpt lat="39.570895" lon="2.64089">
        <ele>7.0</ele>
        <time>2022-05-14T17:26:23.626Z</time>
      </trkpt>
      <trkpt lat="39.57091333" lon="2.64091333">
        <ele>7.0</ele>
        <time>2022-05-14T17:26:24.626Z</time>
      </trkpt>
      <trkpt lat="39.57094" lon="2.64094">
        <ele>7.0</ele>
        <time>2022-05-14T17:26:25.626Z</time>
      </trkpt>
      <trkpt lat="39.57095833" lon="2.64095833">
        <ele>7.0</ele>
        <time>2022-05-14T17:26:26.626Z</time>
      </trkpt>
      <trkpt lat="39.57098167" lon="2.64098167">
        <ele>7.0</ele>
        <time>2022-05-14T17:26:27.626Z</time>
      </trkpt>
      <trkpt lat="39.57100833" lon="2.64100833">
        <ele>7.0</ele>
        <time>2022-05-14T17:26:28.627Z</time>
      </trkpt>
      <trkpt lat="39.57103167" lon="2.64103">
        <ele>7.0</ele>
        <time>2022-05-14T17:26:29.626Z</time>
      </trkpt>
      <trkpt lat="39.57105333" lon="2.641055">
        <ele>7.0</ele>
        <time>2022-05-14T17:26:30.626Z</time>
      </trkpt>
      <trkpt lat="39.57106833" lon="2.64107333">
        <ele>7.0</ele>
        <time>2022-05-14T17:26:31.627Z</time>
      </trkpt>
      <trkpt lat="39.57108667" lon="2.64109667">
        <ele>7.0</ele>
        <time>2022-05-14T17:26:32.626Z</time>
      </trkpt>
      <trkpt lat="39.57112" lon="2.64111833">
        <ele>7.0</ele>
        <time>2022-05-14T17:26:33.626Z</time>
      </trkpt>
      <trkpt lat="39.57114333" lon="2.64113667">
        <ele>6.0</ele>
        <time>2022-05-14T17:26:34.626Z</time>
      </trkpt>
      <trkpt lat="39.571165" lon="2.64115333">
        <ele>6.0</ele>
        <time>2022-05-14T17:26:35.626Z</time>
      </trkpt>
      <trkpt lat="39.57118167" lon="2.64116667">
        <ele>7.0</ele>
        <time>2022-05-14T17:26:36.627Z</time>
      </trkpt>
      <trkpt lat="39.571205" lon="2.64119">
        <ele>7.0</ele>
        <time>2022-05-14T17:26:37.626Z</time>
      </trkpt>
      <trkpt lat="39.57121667" lon="2.641205">
        <ele>7.0</ele>
        <time>2022-05-14T17:26:38.626Z</time>
      </trkpt>
      <trkpt lat="39.571235" lon="2.641225">
        <ele>7.0</ele>
        <time>2022-05-14T17:26:39.626Z</time>
      </trkpt>
      <trkpt lat="39.57125" lon="2.64124">
        <ele>7.0</ele>
        <time>2022-05-14T17:26:40.626Z</time>
      </trkpt>
      <trkpt lat="39.57127333" lon="2.64126333">
        <ele>7.0</ele>
        <time>2022-05-14T17:26:41.626Z</time>
      </trkpt>
      <trkpt lat="39.57130333" lon="2.64129">
        <ele>8.0</ele>
        <time>2022-05-14T17:26:42.627Z</time>
      </trkpt>
      <trkpt lat="39.57132667" lon="2.64131333">
        <ele>8.0</ele>
        <time>2022-05-14T17:26:43.626Z</time>
      </trkpt>
      <trkpt lat="39.57134833" lon="2.64133833">
        <ele>9.0</ele>
        <time>2022-05-14T17:26:44.626Z</time>
      </trkpt>
      <trkpt lat="39.571365" lon="2.64135667">
        <ele>9.0</ele>
        <time>2022-05-14T17:26:45.626Z</time>
      </trkpt>
      <trkpt lat="39.57138833" lon="2.64138167">
        <ele>9.0</ele>
        <time>2022-05-14T17:26:46.626Z</time>
      </trkpt>
      <trkpt lat="39.571415" lon="2.64141">
        <ele>9.0</ele>
        <time>2022-05-14T17:26:47.626Z</time>
      </trkpt>
      <trkpt lat="39.571435" lon="2.64143667">
        <ele>9.0</ele>
        <time>2022-05-14T17:26:48.626Z</time>
      </trkpt>
      <trkpt lat="39.571455" lon="2.64145667">
        <ele>9.0</ele>
        <time>2022-05-14T17:26:49.626Z</time>
      </trkpt>
      <trkpt lat="39.571485" lon="2.64148">
        <ele>9.0</ele>
        <time>2022-05-14T17:26:50.626Z</time>
      </trkpt>
      <trkpt lat="39.57151333" lon="2.6415">
        <ele>10.0</ele>
        <time>2022-05-14T17:26:51.626Z</time>
      </trkpt>
      <trkpt lat="39.57155333" lon="2.641515">
        <ele>10.0</ele>
        <time>2022-05-14T17:26:52.627Z</time>
      </trkpt>
      <trkpt lat="39.57158" lon="2.641525">
        <ele>10.0</ele>
        <time>2022-05-14T17:26:53.626Z</time>
      </trkpt>
      <trkpt lat="39.57161333" lon="2.641535">
        <ele>11.0</ele>
        <time>2022-05-14T17:26:54.626Z</time>
      </trkpt>
      <trkpt lat="39.571645" lon="2.64154167">
        <ele>11.0</ele>
        <time>2022-05-14T17:26:55.626Z</time>
      </trkpt>
      <trkpt lat="39.571685" lon="2.64155">
        <ele>11.0</ele>
        <time>2022-05-14T17:26:56.627Z</time>
      </trkpt>
      <trkpt lat="39.571715" lon="2.64155333">
        <ele>11.0</ele>
        <time>2022-05-14T17:26:57.627Z</time>
      </trkpt>
      <trkpt lat="39.57175" lon="2.64155833">
        <ele>11.0</ele>
        <time>2022-05-14T17:26:58.627Z</time>
      </trkpt>
      <trkpt lat="39.57178333" lon="2.641565">
        <ele>11.0</ele>
        <time>2022-05-14T17:26:59.627Z</time>
      </trkpt>
      <trkpt lat="39.57182" lon="2.64157167">
        <ele>11.0</ele>
        <time>2022-05-14T17:27:00.626Z</time>
      </trkpt>
      <trkpt lat="39.57186333" lon="2.64157833">
        <ele>11.0</ele>
        <time>2022-05-14T17:27:01.627Z</time>
      </trkpt>
      <trkpt lat="39.57190167" lon="2.64158333">
        <ele>11.0</ele>
        <time>2022-05-14T17:27:02.627Z</time>
      </trkpt>
      <trkpt lat="39.57193333" lon="2.64158833">
        <ele>11.0</ele>
        <time>2022-05-14T17:27:03.627Z</time>
      </trkpt>
      <trkpt lat="39.57197" lon="2.64159833">
        <ele>11.0</ele>
        <time>2022-05-14T17:27:04.627Z</time>
      </trkpt>
      <trkpt lat="39.572005" lon="2.64160667">
        <ele>11.0</ele>
        <time>2022-05-14T17:27:05.627Z</time>
      </trkpt>
      <trkpt lat="39.57204" lon="2.64161167">
        <ele>10.0</ele>
        <time>2022-05-14T17:27:06.627Z</time>
      </trkpt>
      <trkpt lat="39.57207833" lon="2.64161667">
        <ele>10.0</ele>
        <time>2022-05-14T17:27:07.627Z</time>
      </trkpt>
      <trkpt lat="39.57211667" lon="2.641625">
        <ele>10.0</ele>
        <time>2022-05-14T17:27:08.627Z</time>
      </trkpt>
      <trkpt lat="39.572155" lon="2.64163333">
        <ele>10.0</ele>
        <time>2022-05-14T17:27:09.627Z</time>
      </trkpt>
      <trkpt lat="39.5722" lon="2.64164167">
        <ele>10.0</ele>
        <time>2022-05-14T17:27:10.627Z</time>
      </trkpt>
      <trkpt lat="39.572235" lon="2.64164833">
        <ele>10.0</ele>
        <time>2022-05-14T17:27:11.627Z</time>
      </trkpt>
      <trkpt lat="39.57227167" lon="2.641655">
        <ele>11.0</ele>
        <time>2022-05-14T17:27:12.627Z</time>
      </trkpt>
      <trkpt lat="39.57229667" lon="2.64166167">
        <ele>11.0</ele>
        <time>2022-05-14T17:27:13.627Z</time>
      </trkpt>
      <trkpt lat="39.57233167" lon="2.64166833">
        <ele>11.0</ele>
        <time>2022-05-14T17:27:14.627Z</time>
      </trkpt>
      <trkpt lat="39.57235167" lon="2.64167167">
        <ele>11.0</ele>
        <time>2022-05-14T17:27:15.627Z</time>
      </trkpt>
      <trkpt lat="39.57238" lon="2.64167667">
        <ele>11.0</ele>
        <time>2022-05-14T17:27:16.627Z</time>
      </trkpt>
      <trkpt lat="39.57240667" lon="2.64168167">
        <ele>10.0</ele>
        <time>2022-05-14T17:27:17.627Z</time>
      </trkpt>
      <trkpt lat="39.57243167" lon="2.64168667">
        <ele>10.0</ele>
        <time>2022-05-14T17:27:18.627Z</time>
      </trkpt>
      <trkpt lat="39.57245833" lon="2.64169">
        <ele>10.0</ele>
        <time>2022-05-14T17:27:19.627Z</time>
      </trkpt>
      <trkpt lat="39.57248333" lon="2.641695">
        <ele>9.0</ele>
        <time>2022-05-14T17:27:20.626Z</time>
      </trkpt>
      <trkpt lat="39.57251167" lon="2.64169833">
        <ele>9.0</ele>
        <time>2022-05-14T17:27:21.627Z</time>
      </trkpt>
      <trkpt lat="39.57253167" lon="2.64170333">
        <ele>9.0</ele>
        <time>2022-05-14T17:27:22.627Z</time>
      </trkpt>
      <trkpt lat="39.57254667" lon="2.64170333">
        <ele>10.0</ele>
        <time>2022-05-14T17:27:23.626Z</time>
      </trkpt>
      <trkpt lat="39.57255333" lon="2.64170333">
        <ele>9.0</ele>
        <time>2022-05-14T17:27:24.627Z</time>
      </trkpt>
      <trkpt lat="39.57255667" lon="2.64170333">
        <ele>9.0</ele>
        <time>2022-05-14T17:27:25.627Z</time>
      </trkpt>
      <trkpt lat="39.57256" lon="2.64170333">
        <ele>9.0</ele>
        <time>2022-05-14T17:27:26.626Z</time>
      </trkpt>
      <trkpt lat="39.57256" lon="2.64170333">
        <ele>9.0</ele>
        <time>2022-05-14T17:27:27.627Z</time>
      </trkpt>
      <trkpt lat="39.57255833" lon="2.641705">
        <ele>10.0</ele>
        <time>2022-05-14T17:27:28.627Z</time>
      </trkpt>
      <trkpt lat="39.57255833" lon="2.64170167">
        <ele>11.0</ele>
        <time>2022-05-14T17:27:29.627Z</time>
      </trkpt>
      <trkpt lat="39.57255333" lon="2.64170167">
        <ele>12.0</ele>
        <time>2022-05-14T17:27:30.627Z</time>
      </trkpt>
      <trkpt lat="39.57254667" lon="2.64170167">
        <ele>12.0</ele>
        <time>2022-05-14T17:27:31.626Z</time>
      </trkpt>
      <trkpt lat="39.57254333" lon="2.6417">
        <ele>13.0</ele>
        <time>2022-05-14T17:27:32.627Z</time>
      </trkpt>
      <trkpt lat="39.57254" lon="2.6417">
        <ele>13.0</ele>
        <time>2022-05-14T17:27:33.627Z</time>
      </trkpt>
      <trkpt lat="39.57253667" lon="2.64170167">
        <ele>14.0</ele>
        <time>2022-05-14T17:27:34.627Z</time>
      </trkpt>
      <trkpt lat="39.57253333" lon="2.64170333">
        <ele>15.0</ele>
        <time>2022-05-14T17:27:35.626Z</time>
      </trkpt>
      <trkpt lat="39.57253333" lon="2.64170333">
        <ele>16.0</ele>
        <time>2022-05-14T17:27:36.627Z</time>
      </trkpt>
      <trkpt lat="39.57253333" lon="2.64170333">
        <ele>17.0</ele>
        <time>2022-05-14T17:27:37.626Z</time>
      </trkpt>
      <trkpt lat="39.57253333" lon="2.64170333">
        <ele>18.0</ele>
        <time>2022-05-14T17:27:38.627Z</time>
      </trkpt>
      <trkpt lat="39.57253333" lon="2.64170333">
        <ele>19.0</ele>
        <time>2022-05-14T17:27:39.627Z</time>
      </trkpt>
      <trkpt lat="39.57253333" lon="2.64170333">
        <ele>20.0</ele>
        <time>2022-05-14T17:27:40.627Z</time>
      </trkpt>
      <trkpt lat="39.57253333" lon="2.64170333">
        <ele>21.0</ele>
        <time>2022-05-14T17:27:41.626Z</time>
      </trkpt>
      <trkpt lat="39.57253333" lon="2.64170333">
        <ele>22.0</ele>
        <time>2022-05-14T17:27:42.626Z</time>
      </trkpt>
      <trkpt lat="39.572535" lon="2.64170333">
        <ele>22.0</ele>
        <time>2022-05-14T17:27:43.627Z</time>
      </trkpt>
      <trkpt lat="39.572535" lon="2.64170333">
        <ele>23.0</ele>
        <time>2022-05-14T17:27:44.627Z</time>
      </trkpt>
      <trkpt lat="39.57253667" lon="2.64170167">
        <ele>24.0</ele>
        <time>2022-05-14T17:27:45.626Z</time>
      </trkpt>
      <trkpt lat="39.57253667" lon="2.64170167">
        <ele>24.0</ele>
        <time>2022-05-14T17:27:46.626Z</time>
      </trkpt>
      <trkpt lat="39.57253667" lon="2.64170167">
        <ele>24.0</ele>
        <time>2022-05-14T17:27:47.627Z</time>
      </trkpt>
      <trkpt lat="39.57253667" lon="2.64170167">
        <ele>24.0</ele>
        <time>2022-05-14T17:27:48.627Z</time>
      </trkpt>
      <trkpt lat="39.57254" lon="2.64170167">
        <ele>24.0</ele>
        <time>2022-05-14T17:27:49.626Z</time>
      </trkpt>
      <trkpt lat="39.57254" lon="2.64170167">
        <ele>24.0</ele>
        <time>2022-05-14T17:27:50.627Z</time>
      </trkpt>
      <trkpt lat="39.57254" lon="2.64170167">
        <ele>24.0</ele>
        <time>2022-05-14T17:27:51.627Z</time>
      </trkpt>
      <trkpt lat="39.57254" lon="2.64170167">
        <ele>24.0</ele>
        <time>2022-05-14T17:27:52.626Z</time>
      </trkpt>
      <trkpt lat="39.57254167" lon="2.64170167">
        <ele>24.0</ele>
        <time>2022-05-14T17:27:53.626Z</time>
      </trkpt>
      <trkpt lat="39.57254167" lon="2.64170167">
        <ele>24.0</ele>
        <time>2022-05-14T17:27:54.627Z</time>
      </trkpt>
      <trkpt lat="39.57254167" lon="2.64170167">
        <ele>24.0</ele>
        <time>2022-05-14T17:27:55.627Z</time>
      </trkpt>
      <trkpt lat="39.57254333" lon="2.64170167">
        <ele>23.0</ele>
        <time>2022-05-14T17:27:56.627Z</time>
      </trkpt>
      <trkpt lat="39.57254333" lon="2.64170167">
        <ele>23.0</ele>
        <time>2022-05-14T17:27:57.627Z</time>
      </trkpt>
      <trkpt lat="39.57254333" lon="2.64170167">
        <ele>23.0</ele>
        <time>2022-05-14T17:27:58.627Z</time>
      </trkpt>
      <trkpt lat="39.57254333" lon="2.64170167">
        <ele>23.0</ele>
        <time>2022-05-14T17:27:59.627Z</time>
      </trkpt>
      <trkpt lat="39.57254333" lon="2.64170167">
        <ele>23.0</ele>
        <time>2022-05-14T17:28:00.627Z</time>
      </trkpt>
      <trkpt lat="39.57254333" lon="2.64170167">
        <ele>23.0</ele>
        <time>2022-05-14T17:28:01.626Z</time>
      </trkpt>
      <trkpt lat="39.57254333" lon="2.64170333">
        <ele>23.0</ele>
        <time>2022-05-14T17:28:02.627Z</time>
      </trkpt>
      <trkpt lat="39.57254333" lon="2.64170333">
        <ele>22.0</ele>
        <time>2022-05-14T17:28:03.626Z</time>
      </trkpt>
      <trkpt lat="39.57254333" lon="2.64170833">
        <ele>22.0</ele>
        <time>2022-05-14T17:28:04.627Z</time>
      </trkpt>
      <trkpt lat="39.57254833" lon="2.64171">
        <ele>22.0</ele>
        <time>2022-05-14T17:28:05.626Z</time>
      </trkpt>
      <trkpt lat="39.572575" lon="2.641715">
        <ele>22.0</ele>
        <time>2022-05-14T17:28:06.627Z</time>
      </trkpt>
      <trkpt lat="39.57260667" lon="2.64172">
        <ele>22.0</ele>
        <time>2022-05-14T17:28:07.627Z</time>
      </trkpt>
      <trkpt lat="39.57264167" lon="2.64173">
        <ele>22.0</ele>
        <time>2022-05-14T17:28:08.627Z</time>
      </trkpt>
      <trkpt lat="39.57268" lon="2.64173833">
        <ele>21.0</ele>
        <time>2022-05-14T17:28:09.627Z</time>
      </trkpt>
      <trkpt lat="39.57271833" lon="2.64175333">
        <ele>21.0</ele>
        <time>2022-05-14T17:28:10.627Z</time>
      </trkpt>
      <trkpt lat="39.57275833" lon="2.64176833">
        <ele>21.0</ele>
        <time>2022-05-14T17:28:11.627Z</time>
      </trkpt>
      <trkpt lat="39.57280167" lon="2.64178">
        <ele>20.0</ele>
        <time>2022-05-14T17:28:12.627Z</time>
      </trkpt>
      <trkpt lat="39.572845" lon="2.64179333">
        <ele>20.0</ele>
        <time>2022-05-14T17:28:13.627Z</time>
      </trkpt>
      <trkpt lat="39.57289" lon="2.641805">
        <ele>19.0</ele>
        <time>2022-05-14T17:28:14.627Z</time>
      </trkpt>
      <trkpt lat="39.57292667" lon="2.64181333">
        <ele>19.0</ele>
        <time>2022-05-14T17:28:15.627Z</time>
      </trkpt>
      <trkpt lat="39.572965" lon="2.64181833">
        <ele>19.0</ele>
        <time>2022-05-14T17:28:16.627Z</time>
      </trkpt>
      <trkpt lat="39.57300333" lon="2.641825">
        <ele>19.0</ele>
        <time>2022-05-14T17:28:17.627Z</time>
      </trkpt>
      <trkpt lat="39.57304" lon="2.64182833">
        <ele>19.0</ele>
        <time>2022-05-14T17:28:18.627Z</time>
      </trkpt>
      <trkpt lat="39.57308" lon="2.64183">
        <ele>19.0</ele>
        <time>2022-05-14T17:28:19.627Z</time>
      </trkpt>
      <trkpt lat="39.57311833" lon="2.64183333">
        <ele>19.0</ele>
        <time>2022-05-14T17:28:20.627Z</time>
      </trkpt>
      <trkpt lat="39.57315667" lon="2.641835">
        <ele>19.0</ele>
        <time>2022-05-14T17:28:21.627Z</time>
      </trkpt>
      <trkpt lat="39.57319167" lon="2.641845">
        <ele>19.0</ele>
        <time>2022-05-14T17:28:22.627Z</time>
      </trkpt>
      <trkpt lat="39.57322667" lon="2.64186167">
        <ele>18.0</ele>
        <time>2022-05-14T17:28:23.627Z</time>
      </trkpt>
      <trkpt lat="39.57325833" lon="2.64188833">
        <ele>18.0</ele>
        <time>2022-05-14T17:28:24.627Z</time>
      </trkpt>
      <trkpt lat="39.57328667" lon="2.64192333">
        <ele>18.0</ele>
        <time>2022-05-14T17:28:25.627Z</time>
      </trkpt>
      <trkpt lat="39.57331333" lon="2.64196333">
        <ele>17.0</ele>
        <time>2022-05-14T17:28:26.626Z</time>
      </trkpt>
      <trkpt lat="39.57334" lon="2.64200333">
        <ele>17.0</ele>
        <time>2022-05-14T17:28:27.627Z</time>
      </trkpt>
      <trkpt lat="39.57336667" lon="2.64204333">
        <ele>17.0</ele>
        <time>2022-05-14T17:28:28.627Z</time>
      </trkpt>
      <trkpt lat="39.57339333" lon="2.64208667">
        <ele>17.0</ele>
        <time>2022-05-14T17:28:29.627Z</time>
      </trkpt>
      <trkpt lat="39.57342" lon="2.64213">
        <ele>17.0</ele>
        <time>2022-05-14T17:28:30.627Z</time>
      </trkpt>
      <trkpt lat="39.573445" lon="2.64217167">
        <ele>17.0</ele>
        <time>2022-05-14T17:28:31.627Z</time>
      </trkpt>
      <trkpt lat="39.57347" lon="2.64221333">
        <ele>17.0</ele>
        <time>2022-05-14T17:28:32.627Z</time>
      </trkpt>
      <trkpt lat="39.573495" lon="2.64225667">
        <ele>17.0</ele>
        <time>2022-05-14T17:28:33.627Z</time>
      </trkpt>
      <trkpt lat="39.57352" lon="2.64229833">
        <ele>17.0</ele>
        <time>2022-05-14T17:28:34.627Z</time>
      </trkpt>
      <trkpt lat="39.573545" lon="2.64234">
        <ele>17.0</ele>
        <time>2022-05-14T17:28:35.627Z</time>
      </trkpt>
      <trkpt lat="39.57356833" lon="2.64238167">
        <ele>16.0</ele>
        <time>2022-05-14T17:28:36.626Z</time>
      </trkpt>
      <trkpt lat="39.573595" lon="2.64242167">
        <ele>16.0</ele>
        <time>2022-05-14T17:28:37.627Z</time>
      </trkpt>
      <trkpt lat="39.57361833" lon="2.64246333">
        <ele>16.0</ele>
        <time>2022-05-14T17:28:38.627Z</time>
      </trkpt>
      <trkpt lat="39.573645" lon="2.64250333">
        <ele>16.0</ele>
        <time>2022-05-14T17:28:39.627Z</time>
      </trkpt>
      <trkpt lat="39.57367" lon="2.64254167">
        <ele>16.0</ele>
        <time>2022-05-14T17:28:40.626Z</time>
      </trkpt>
      <trkpt lat="39.57369167" lon="2.64258167">
        <ele>16.0</ele>
        <time>2022-05-14T17:28:41.626Z</time>
      </trkpt>
      <trkpt lat="39.57371667" lon="2.64262333">
        <ele>16.0</ele>
        <time>2022-05-14T17:28:42.627Z</time>
      </trkpt>
      <trkpt lat="39.57373833" lon="2.64266333">
        <ele>16.0</ele>
        <time>2022-05-14T17:28:43.626Z</time>
      </trkpt>
      <trkpt lat="39.57376" lon="2.64270667">
        <ele>16.0</ele>
        <time>2022-05-14T17:28:44.627Z</time>
      </trkpt>
      <trkpt lat="39.57378167" lon="2.64275">
        <ele>17.0</ele>
        <time>2022-05-14T17:28:45.626Z</time>
      </trkpt>
      <trkpt lat="39.573805" lon="2.64279333">
        <ele>18.0</ele>
        <time>2022-05-14T17:28:46.626Z</time>
      </trkpt>
      <trkpt lat="39.57382833" lon="2.64283333">
        <ele>18.0</ele>
        <time>2022-05-14T17:28:47.627Z</time>
      </trkpt>
      <trkpt lat="39.57385" lon="2.64288">
        <ele>18.0</ele>
        <time>2022-05-14T17:28:48.627Z</time>
      </trkpt>
      <trkpt lat="39.57387167" lon="2.64292667">
        <ele>19.0</ele>
        <time>2022-05-14T17:28:49.627Z</time>
      </trkpt>
      <trkpt lat="39.57389667" lon="2.64296667">
        <ele>18.0</ele>
        <time>2022-05-14T17:28:50.626Z</time>
      </trkpt>
      <trkpt lat="39.57392" lon="2.64301">
        <ele>18.0</ele>
        <time>2022-05-14T17:28:51.627Z</time>
      </trkpt>
      <trkpt lat="39.573945" lon="2.64305">
        <ele>18.0</ele>
        <time>2022-05-14T17:28:52.627Z</time>
      </trkpt>
      <trkpt lat="39.57396667" lon="2.643095">
        <ele>17.0</ele>
        <time>2022-05-14T17:28:53.627Z</time>
      </trkpt>
      <trkpt lat="39.57399167" lon="2.643145">
        <ele>17.0</ele>
        <time>2022-05-14T17:28:54.627Z</time>
      </trkpt>
      <trkpt lat="39.57401333" lon="2.643195">
        <ele>17.0</ele>
        <time>2022-05-14T17:28:55.627Z</time>
      </trkpt>
      <trkpt lat="39.574035" lon="2.643235">
        <ele>17.0</ele>
        <time>2022-05-14T17:28:56.627Z</time>
      </trkpt>
      <trkpt lat="39.57406667" lon="2.64326333">
        <ele>17.0</ele>
        <time>2022-05-14T17:28:57.627Z</time>
      </trkpt>
      <trkpt lat="39.57409167" lon="2.64330333">
        <ele>17.0</ele>
        <time>2022-05-14T17:28:58.627Z</time>
      </trkpt>
      <trkpt lat="39.57411833" lon="2.64334333">
        <ele>18.0</ele>
        <time>2022-05-14T17:28:59.627Z</time>
      </trkpt>
      <trkpt lat="39.57414167" lon="2.64338833">
        <ele>18.0</ele>
        <time>2022-05-14T17:29:00.626Z</time>
      </trkpt>
      <trkpt lat="39.57416833" lon="2.64342167">
        <ele>18.0</ele>
        <time>2022-05-14T17:29:01.627Z</time>
      </trkpt>
      <trkpt lat="39.57420167" lon="2.643465">
        <ele>18.0</ele>
        <time>2022-05-14T17:29:02.627Z</time>
      </trkpt>
      <trkpt lat="39.57422" lon="2.64350833">
        <ele>17.0</ele>
        <time>2022-05-14T17:29:03.627Z</time>
      </trkpt>
      <trkpt lat="39.57425" lon="2.64354667">
        <ele>17.0</ele>
        <time>2022-05-14T17:29:04.627Z</time>
      </trkpt>
      <trkpt lat="39.57428333" lon="2.64357">
        <ele>17.0</ele>
        <time>2022-05-14T17:29:05.626Z</time>
      </trkpt>
      <trkpt lat="39.57431833" lon="2.643585">
        <ele>16.0</ele>
        <time>2022-05-14T17:29:06.627Z</time>
      </trkpt>
      <trkpt lat="39.574345" lon="2.6436">
        <ele>16.0</ele>
        <time>2022-05-14T17:29:07.627Z</time>
      </trkpt>
      <trkpt lat="39.57438667" lon="2.643625">
        <ele>17.0</ele>
        <time>2022-05-14T17:29:08.627Z</time>
      </trkpt>
      <trkpt lat="39.574425" lon="2.643645">
        <ele>17.0</ele>
        <time>2022-05-14T17:29:09.627Z</time>
      </trkpt>
      <trkpt lat="39.57446333" lon="2.64366">
        <ele>17.0</ele>
        <time>2022-05-14T17:29:10.626Z</time>
      </trkpt>
      <trkpt lat="39.57451" lon="2.64367">
        <ele>17.0</ele>
        <time>2022-05-14T17:29:11.626Z</time>
      </trkpt>
      <trkpt lat="39.57454167" lon="2.64367833">
        <ele>17.0</ele>
        <time>2022-05-14T17:29:12.626Z</time>
      </trkpt>
      <trkpt lat="39.57458833" lon="2.64369167">
        <ele>16.0</ele>
        <time>2022-05-14T17:29:13.627Z</time>
      </trkpt>
      <trkpt lat="39.57462667" lon="2.64370333">
        <ele>16.0</ele>
        <time>2022-05-14T17:29:14.627Z</time>
      </trkpt>
      <trkpt lat="39.57466667" lon="2.64371667">
        <ele>16.0</ele>
        <time>2022-05-14T17:29:15.627Z</time>
      </trkpt>
      <trkpt lat="39.57470667" lon="2.64373">
        <ele>16.0</ele>
        <time>2022-05-14T17:29:16.626Z</time>
      </trkpt>
      <trkpt lat="39.57474667" lon="2.64374333">
        <ele>16.0</ele>
        <time>2022-05-14T17:29:17.627Z</time>
      </trkpt>
      <trkpt lat="39.574785" lon="2.64375833">
        <ele>16.0</ele>
        <time>2022-05-14T17:29:18.627Z</time>
      </trkpt>
      <trkpt lat="39.57482" lon="2.64377333">
        <ele>16.0</ele>
        <time>2022-05-14T17:29:19.627Z</time>
      </trkpt>
      <trkpt lat="39.57485833" lon="2.643785">
        <ele>16.0</ele>
        <time>2022-05-14T17:29:20.626Z</time>
      </trkpt>
      <trkpt lat="39.57489833" lon="2.64379667">
        <ele>16.0</ele>
        <time>2022-05-14T17:29:21.627Z</time>
      </trkpt>
      <trkpt lat="39.57493833" lon="2.64380667">
        <ele>17.0</ele>
        <time>2022-05-14T17:29:22.627Z</time>
      </trkpt>
      <trkpt lat="39.57497833" lon="2.64382167">
        <ele>17.0</ele>
        <time>2022-05-14T17:29:23.627Z</time>
      </trkpt>
      <trkpt lat="39.57502" lon="2.64384">
        <ele>18.0</ele>
        <time>2022-05-14T17:29:24.627Z</time>
      </trkpt>
      <trkpt lat="39.57506167" lon="2.64385833">
        <ele>18.0</ele>
        <time>2022-05-14T17:29:25.627Z</time>
      </trkpt>
      <trkpt lat="39.57510167" lon="2.64387333">
        <ele>19.0</ele>
        <time>2022-05-14T17:29:26.627Z</time>
      </trkpt>
      <trkpt lat="39.575145" lon="2.64388667">
        <ele>19.0</ele>
        <time>2022-05-14T17:29:27.627Z</time>
      </trkpt>
      <trkpt lat="39.57518167" lon="2.64389667">
        <ele>19.0</ele>
        <time>2022-05-14T17:29:28.626Z</time>
      </trkpt>
      <trkpt lat="39.57522" lon="2.64390333">
        <ele>18.0</ele>
        <time>2022-05-14T17:29:29.627Z</time>
      </trkpt>
      <trkpt lat="39.57525833" lon="2.64391833">
        <ele>18.0</ele>
        <time>2022-05-14T17:29:30.626Z</time>
      </trkpt>
      <trkpt lat="39.57529667" lon="2.643935">
        <ele>18.0</ele>
        <time>2022-05-14T17:29:31.627Z</time>
      </trkpt>
      <trkpt lat="39.57533667" lon="2.64394667">
        <ele>18.0</ele>
        <time>2022-05-14T17:29:32.627Z</time>
      </trkpt>
      <trkpt lat="39.57536667" lon="2.643955">
        <ele>18.0</ele>
        <time>2022-05-14T17:29:33.627Z</time>
      </trkpt>
      <trkpt lat="39.57541" lon="2.64396833">
        <ele>18.0</ele>
        <time>2022-05-14T17:29:34.627Z</time>
      </trkpt>
      <trkpt lat="39.57545167" lon="2.64397667">
        <ele>18.0</ele>
        <time>2022-05-14T17:29:35.627Z</time>
      </trkpt>
      <trkpt lat="39.57549" lon="2.64398833">
        <ele>18.0</ele>
        <time>2022-05-14T17:29:36.627Z</time>
      </trkpt>
      <trkpt lat="39.57552667" lon="2.64400167">
        <ele>18.0</ele>
        <time>2022-05-14T17:29:37.627Z</time>
      </trkpt>
      <trkpt lat="39.57555167" lon="2.64401333">
        <ele>18.0</ele>
        <time>2022-05-14T17:29:38.627Z</time>
      </trkpt>
      <trkpt lat="39.57557833" lon="2.644025">
        <ele>18.0</ele>
        <time>2022-05-14T17:29:39.627Z</time>
      </trkpt>
      <trkpt lat="39.57559333" lon="2.64403333">
        <ele>18.0</ele>
        <time>2022-05-14T17:29:40.627Z</time>
      </trkpt>
      <trkpt lat="39.57560333" lon="2.64404167">
        <ele>17.0</ele>
        <time>2022-05-14T17:29:41.627Z</time>
      </trkpt>
      <trkpt lat="39.57560833" lon="2.64404333">
        <ele>17.0</ele>
        <time>2022-05-14T17:29:42.626Z</time>
      </trkpt>
      <trkpt lat="39.57561167" lon="2.64404667">
        <ele>17.0</ele>
        <time>2022-05-14T17:29:43.627Z</time>
      </trkpt>
      <trkpt lat="39.575615" lon="2.64405">
        <ele>18.0</ele>
        <time>2022-05-14T17:29:44.627Z</time>
      </trkpt>
      <trkpt lat="39.57561667" lon="2.64405333">
        <ele>18.0</ele>
        <time>2022-05-14T17:29:45.626Z</time>
      </trkpt>
      <trkpt lat="39.57561667" lon="2.64405333">
        <ele>17.0</ele>
        <time>2022-05-14T17:29:46.627Z</time>
      </trkpt>
      <trkpt lat="39.57562333" lon="2.64405167">
        <ele>17.0</ele>
        <time>2022-05-14T17:29:47.627Z</time>
      </trkpt>
      <trkpt lat="39.57561833" lon="2.64405333">
        <ele>17.0</ele>
        <time>2022-05-14T17:29:48.627Z</time>
      </trkpt>
      <trkpt lat="39.57561167" lon="2.64406">
        <ele>17.0</ele>
        <time>2022-05-14T17:29:49.627Z</time>
      </trkpt>
      <trkpt lat="39.57561167" lon="2.64406">
        <ele>16.0</ele>
        <time>2022-05-14T17:29:50.627Z</time>
      </trkpt>
      <trkpt lat="39.57561167" lon="2.64406167">
        <ele>16.0</ele>
        <time>2022-05-14T17:29:51.627Z</time>
      </trkpt>
      <trkpt lat="39.575625" lon="2.64405167">
        <ele>16.0</ele>
        <time>2022-05-14T17:29:52.627Z</time>
      </trkpt>
      <trkpt lat="39.57563167" lon="2.64405333">
        <ele>17.0</ele>
        <time>2022-05-14T17:29:53.627Z</time>
      </trkpt>
      <trkpt lat="39.57564167" lon="2.64405">
        <ele>17.0</ele>
        <time>2022-05-14T17:29:54.627Z</time>
      </trkpt>
      <trkpt lat="39.57565" lon="2.64406833">
        <ele>17.0</ele>
        <time>2022-05-14T17:29:55.627Z</time>
      </trkpt>
      <trkpt lat="39.57567" lon="2.64407833">
        <ele>18.0</ele>
        <time>2022-05-14T17:29:56.627Z</time>
      </trkpt>
      <trkpt lat="39.57569" lon="2.64409">
        <ele>18.0</ele>
        <time>2022-05-14T17:29:57.626Z</time>
      </trkpt>
      <trkpt lat="39.57572" lon="2.644095">
        <ele>19.0</ele>
        <time>2022-05-14T17:29:58.627Z</time>
      </trkpt>
      <trkpt lat="39.57575667" lon="2.64410167">
        <ele>19.0</ele>
        <time>2022-05-14T17:29:59.627Z</time>
      </trkpt>
      <trkpt lat="39.57579333" lon="2.64410667">
        <ele>19.0</ele>
        <time>2022-05-14T17:30:00.627Z</time>
      </trkpt>
      <trkpt lat="39.57583" lon="2.64410667">
        <ele>20.0</ele>
        <time>2022-05-14T17:30:01.627Z</time>
      </trkpt>
      <trkpt lat="39.575865" lon="2.64410333">
        <ele>20.0</ele>
        <time>2022-05-14T17:30:02.626Z</time>
      </trkpt>
      <trkpt lat="39.57589667" lon="2.644105">
        <ele>20.0</ele>
        <time>2022-05-14T17:30:03.627Z</time>
      </trkpt>
      <trkpt lat="39.57592833" lon="2.64410833">
        <ele>19.0</ele>
        <time>2022-05-14T17:30:04.626Z</time>
      </trkpt>
      <trkpt lat="39.57596" lon="2.64411333">
        <ele>19.0</ele>
        <time>2022-05-14T17:30:05.627Z</time>
      </trkpt>
      <trkpt lat="39.57599167" lon="2.64411167">
        <ele>19.0</ele>
        <time>2022-05-14T17:30:06.627Z</time>
      </trkpt>
      <trkpt lat="39.57601667" lon="2.64410833">
        <ele>18.0</ele>
        <time>2022-05-14T17:30:07.627Z</time>
      </trkpt>
      <trkpt lat="39.57603667" lon="2.64410167">
        <ele>17.0</ele>
        <time>2022-05-14T17:30:08.627Z</time>
      </trkpt>
      <trkpt lat="39.57605167" lon="2.64409333">
        <ele>17.0</ele>
        <time>2022-05-14T17:30:09.626Z</time>
      </trkpt>
      <trkpt lat="39.576065" lon="2.64409">
        <ele>16.0</ele>
        <time>2022-05-14T17:30:10.626Z</time>
      </trkpt>
      <trkpt lat="39.57607333" lon="2.644085">
        <ele>16.0</ele>
        <time>2022-05-14T17:30:11.627Z</time>
      </trkpt>
      <trkpt lat="39.57607333" lon="2.64408667">
        <ele>15.0</ele>
        <time>2022-05-14T17:30:12.626Z</time>
      </trkpt>
      <trkpt lat="39.576075" lon="2.64408667">
        <ele>15.0</ele>
        <time>2022-05-14T17:30:13.626Z</time>
      </trkpt>
      <trkpt lat="39.57607333" lon="2.64409">
        <ele>15.0</ele>
        <time>2022-05-14T17:30:14.626Z</time>
      </trkpt>
      <trkpt lat="39.57607167" lon="2.64409333">
        <ele>14.0</ele>
        <time>2022-05-14T17:30:15.626Z</time>
      </trkpt>
      <trkpt lat="39.57607167" lon="2.64409333">
        <ele>15.0</ele>
        <time>2022-05-14T17:30:16.626Z</time>
      </trkpt>
      <trkpt lat="39.57607333" lon="2.64409">
        <ele>15.0</ele>
        <time>2022-05-14T17:30:17.626Z</time>
      </trkpt>
      <trkpt lat="39.57607333" lon="2.64408833">
        <ele>15.0</ele>
        <time>2022-05-14T17:30:18.627Z</time>
      </trkpt>
      <trkpt lat="39.57608167" lon="2.644085">
        <ele>15.0</ele>
        <time>2022-05-14T17:30:19.627Z</time>
      </trkpt>
      <trkpt lat="39.576085" lon="2.64408">
        <ele>15.0</ele>
        <time>2022-05-14T17:30:20.626Z</time>
      </trkpt>
      <trkpt lat="39.576085" lon="2.64407833">
        <ele>14.0</ele>
        <time>2022-05-14T17:30:21.626Z</time>
      </trkpt>
      <trkpt lat="39.57608833" lon="2.64407833">
        <ele>14.0</ele>
        <time>2022-05-14T17:30:22.626Z</time>
      </trkpt>
      <trkpt lat="39.57609" lon="2.64407833">
        <ele>14.0</ele>
        <time>2022-05-14T17:30:23.627Z</time>
      </trkpt>
      <trkpt lat="39.57609" lon="2.64407833">
        <ele>14.0</ele>
        <time>2022-05-14T17:30:24.627Z</time>
      </trkpt>
      <trkpt lat="39.57609" lon="2.64407833">
        <ele>14.0</ele>
        <time>2022-05-14T17:30:25.627Z</time>
      </trkpt>
      <trkpt lat="39.57609" lon="2.64407833">
        <ele>15.0</ele>
        <time>2022-05-14T17:30:26.627Z</time>
      </trkpt>
      <trkpt lat="39.57609" lon="2.64407833">
        <ele>15.0</ele>
        <time>2022-05-14T17:30:27.627Z</time>
      </trkpt>
      <trkpt lat="39.57609" lon="2.64407833">
        <ele>15.0</ele>
        <time>2022-05-14T17:30:28.627Z</time>
      </trkpt>
      <trkpt lat="39.57609" lon="2.64407833">
        <ele>15.0</ele>
        <time>2022-05-14T17:30:29.627Z</time>
      </trkpt>
      <trkpt lat="39.57609" lon="2.64407833">
        <ele>16.0</ele>
        <time>2022-05-14T17:30:30.627Z</time>
      </trkpt>
      <trkpt lat="39.57609" lon="2.64407833">
        <ele>16.0</ele>
        <time>2022-05-14T17:30:31.627Z</time>
      </trkpt>
      <trkpt lat="39.57609" lon="2.64407833">
        <ele>16.0</ele>
        <time>2022-05-14T17:30:32.627Z</time>
      </trkpt>
      <trkpt lat="39.57608833" lon="2.64408">
        <ele>16.0</ele>
        <time>2022-05-14T17:30:33.627Z</time>
      </trkpt>
      <trkpt lat="39.57608667" lon="2.64408">
        <ele>16.0</ele>
        <time>2022-05-14T17:30:34.627Z</time>
      </trkpt>
      <trkpt lat="39.57608667" lon="2.64408333">
        <ele>16.0</ele>
        <time>2022-05-14T17:30:35.627Z</time>
      </trkpt>
      <trkpt lat="39.576085" lon="2.644085">
        <ele>16.0</ele>
        <time>2022-05-14T17:30:36.627Z</time>
      </trkpt>
      <trkpt lat="39.57608167" lon="2.644085">
        <ele>16.0</ele>
        <time>2022-05-14T17:30:37.626Z</time>
      </trkpt>
      <trkpt lat="39.57607833" lon="2.644085">
        <ele>16.0</ele>
        <time>2022-05-14T17:30:38.627Z</time>
      </trkpt>
      <trkpt lat="39.57607833" lon="2.64408667">
        <ele>16.0</ele>
        <time>2022-05-14T17:30:39.627Z</time>
      </trkpt>
      <trkpt lat="39.57607833" lon="2.64408667">
        <ele>17.0</ele>
        <time>2022-05-14T17:30:40.627Z</time>
      </trkpt>
      <trkpt lat="39.57607667" lon="2.64408833">
        <ele>17.0</ele>
        <time>2022-05-14T17:30:41.626Z</time>
      </trkpt>
      <trkpt lat="39.576075" lon="2.64408833">
        <ele>17.0</ele>
        <time>2022-05-14T17:30:42.627Z</time>
      </trkpt>
      <trkpt lat="39.576075" lon="2.64409">
        <ele>17.0</ele>
        <time>2022-05-14T17:30:43.627Z</time>
      </trkpt>
      <trkpt lat="39.576075" lon="2.64409">
        <ele>17.0</ele>
        <time>2022-05-14T17:30:44.627Z</time>
      </trkpt>
      <trkpt lat="39.576075" lon="2.64409">
        <ele>17.0</ele>
        <time>2022-05-14T17:30:45.627Z</time>
      </trkpt>
      <trkpt lat="39.576075" lon="2.64409">
        <ele>17.0</ele>
        <time>2022-05-14T17:30:46.627Z</time>
      </trkpt>
      <trkpt lat="39.576075" lon="2.64409167">
        <ele>17.0</ele>
        <time>2022-05-14T17:30:47.626Z</time>
      </trkpt>
      <trkpt lat="39.576075" lon="2.64409167">
        <ele>17.0</ele>
        <time>2022-05-14T17:30:48.627Z</time>
      </trkpt>
      <trkpt lat="39.576075" lon="2.64409333">
        <ele>17.0</ele>
        <time>2022-05-14T17:30:49.626Z</time>
      </trkpt>
      <trkpt lat="39.57607333" lon="2.64409333">
        <ele>17.0</ele>
        <time>2022-05-14T17:30:50.626Z</time>
      </trkpt>
      <trkpt lat="39.57607333" lon="2.64409333">
        <ele>16.0</ele>
        <time>2022-05-14T17:30:51.626Z</time>
      </trkpt>
      <trkpt lat="39.57607333" lon="2.64409333">
        <ele>16.0</ele>
        <time>2022-05-14T17:30:52.627Z</time>
      </trkpt>
      <trkpt lat="39.57607333" lon="2.64409667">
        <ele>16.0</ele>
        <time>2022-05-14T17:30:53.627Z</time>
      </trkpt>
      <trkpt lat="39.57607333" lon="2.64409833">
        <ele>16.0</ele>
        <time>2022-05-14T17:30:54.627Z</time>
      </trkpt>
      <trkpt lat="39.57607333" lon="2.6441">
        <ele>16.0</ele>
        <time>2022-05-14T17:30:55.627Z</time>
      </trkpt>
      <trkpt lat="39.57607333" lon="2.6441">
        <ele>16.0</ele>
        <time>2022-05-14T17:30:56.627Z</time>
      </trkpt>
      <trkpt lat="39.57607333" lon="2.6441">
        <ele>16.0</ele>
        <time>2022-05-14T17:30:57.627Z</time>
      </trkpt>
      <trkpt lat="39.57607333" lon="2.64410167">
        <ele>16.0</ele>
        <time>2022-05-14T17:30:58.627Z</time>
      </trkpt>
      <trkpt lat="39.57607333" lon="2.64410333">
        <ele>16.0</ele>
        <time>2022-05-14T17:30:59.627Z</time>
      </trkpt>
      <trkpt lat="39.57607333" lon="2.64410333">
        <ele>16.0</ele>
        <time>2022-05-14T17:31:00.627Z</time>
      </trkpt>
      <trkpt lat="39.576075" lon="2.644105">
        <ele>16.0</ele>
        <time>2022-05-14T17:31:01.626Z</time>
      </trkpt>
      <trkpt lat="39.576075" lon="2.644105">
        <ele>16.0</ele>
        <time>2022-05-14T17:31:02.627Z</time>
      </trkpt>
      <trkpt lat="39.57607333" lon="2.644105">
        <ele>16.0</ele>
        <time>2022-05-14T17:31:03.627Z</time>
      </trkpt>
      <trkpt lat="39.57607333" lon="2.644105">
        <ele>16.0</ele>
        <time>2022-05-14T17:31:04.627Z</time>
      </trkpt>
      <trkpt lat="39.57607333" lon="2.644105">
        <ele>16.0</ele>
        <time>2022-05-14T17:31:05.627Z</time>
      </trkpt>
      <trkpt lat="39.57607333" lon="2.64410667">
        <ele>16.0</ele>
        <time>2022-05-14T17:31:06.627Z</time>
      </trkpt>
      <trkpt lat="39.57607333" lon="2.64410667">
        <ele>16.0</ele>
        <time>2022-05-14T17:31:07.627Z</time>
      </trkpt>
      <trkpt lat="39.57607333" lon="2.64410667">
        <ele>16.0</ele>
        <time>2022-05-14T17:31:08.627Z</time>
      </trkpt>
      <trkpt lat="39.57607333" lon="2.64410667">
        <ele>16.0</ele>
        <time>2022-05-14T17:31:09.627Z</time>
      </trkpt>
      <trkpt lat="39.57607333" lon="2.64410667">
        <ele>16.0</ele>
        <time>2022-05-14T17:31:10.627Z</time>
      </trkpt>
      <trkpt lat="39.57607333" lon="2.64410667">
        <ele>16.0</ele>
        <time>2022-05-14T17:31:11.627Z</time>
      </trkpt>
      <trkpt lat="39.576075" lon="2.644105">
        <ele>16.0</ele>
        <time>2022-05-14T17:31:12.626Z</time>
      </trkpt>
      <trkpt lat="39.57609333" lon="2.64410167">
        <ele>16.0</ele>
        <time>2022-05-14T17:31:13.627Z</time>
      </trkpt>
      <trkpt lat="39.57611667" lon="2.64409667">
        <ele>16.0</ele>
        <time>2022-05-14T17:31:14.626Z</time>
      </trkpt>
      <trkpt lat="39.57614" lon="2.644095">
        <ele>16.0</ele>
        <time>2022-05-14T17:31:15.626Z</time>
      </trkpt>
      <trkpt lat="39.57615833" lon="2.64409167">
        <ele>15.0</ele>
        <time>2022-05-14T17:31:16.626Z</time>
      </trkpt>
      <trkpt lat="39.57618" lon="2.64408667">
        <ele>15.0</ele>
        <time>2022-05-14T17:31:17.627Z</time>
      </trkpt>
      <trkpt lat="39.57619833" lon="2.64408">
        <ele>15.0</ele>
        <time>2022-05-14T17:31:18.627Z</time>
      </trkpt>
      <trkpt lat="39.57622" lon="2.64407">
        <ele>15.0</ele>
        <time>2022-05-14T17:31:19.627Z</time>
      </trkpt>
      <trkpt lat="39.576235" lon="2.64406833">
        <ele>14.0</ele>
        <time>2022-05-14T17:31:20.626Z</time>
      </trkpt>
      <trkpt lat="39.57624333" lon="2.64406833">
        <ele>14.0</ele>
        <time>2022-05-14T17:31:21.627Z</time>
      </trkpt>
      <trkpt lat="39.57624667" lon="2.644065">
        <ele>13.0</ele>
        <time>2022-05-14T17:31:22.626Z</time>
      </trkpt>
      <trkpt lat="39.57625" lon="2.64406">
        <ele>13.0</ele>
        <time>2022-05-14T17:31:23.627Z</time>
      </trkpt>
      <trkpt lat="39.57624667" lon="2.64406167">
        <ele>12.0</ele>
        <time>2022-05-14T17:31:24.626Z</time>
      </trkpt>
      <trkpt lat="39.57624333" lon="2.64406167">
        <ele>11.0</ele>
        <time>2022-05-14T17:31:25.627Z</time>
      </trkpt>
      <trkpt lat="39.57624333" lon="2.644065">
        <ele>10.0</ele>
        <time>2022-05-14T17:31:26.627Z</time>
      </trkpt>
      <trkpt lat="39.57624167" lon="2.644065">
        <ele>10.0</ele>
        <time>2022-05-14T17:31:27.626Z</time>
      </trkpt>
      <trkpt lat="39.57624" lon="2.64406667">
        <ele>10.0</ele>
        <time>2022-05-14T17:31:28.627Z</time>
      </trkpt>
      <trkpt lat="39.576245" lon="2.644065">
        <ele>9.0</ele>
        <time>2022-05-14T17:31:29.627Z</time>
      </trkpt>
      <trkpt lat="39.57624667" lon="2.64406167">
        <ele>9.0</ele>
        <time>2022-05-14T17:31:30.627Z</time>
      </trkpt>
      <trkpt lat="39.57625167" lon="2.644065">
        <ele>9.0</ele>
        <time>2022-05-14T17:31:31.626Z</time>
      </trkpt>
      <trkpt lat="39.57626167" lon="2.64406167">
        <ele>9.0</ele>
        <time>2022-05-14T17:31:32.626Z</time>
      </trkpt>
      <trkpt lat="39.57627667" lon="2.64407167">
        <ele>10.0</ele>
        <time>2022-05-14T17:31:33.627Z</time>
      </trkpt>
      <trkpt lat="39.57629333" lon="2.64407333">
        <ele>10.0</ele>
        <time>2022-05-14T17:31:34.627Z</time>
      </trkpt>
      <trkpt lat="39.57632167" lon="2.64407167">
        <ele>11.0</ele>
        <time>2022-05-14T17:31:35.626Z</time>
      </trkpt>
      <trkpt lat="39.57635" lon="2.64406667">
        <ele>11.0</ele>
        <time>2022-05-14T17:31:36.627Z</time>
      </trkpt>
      <trkpt lat="39.57638167" lon="2.64405667">
        <ele>12.0</ele>
        <time>2022-05-14T17:31:37.627Z</time>
      </trkpt>
      <trkpt lat="39.57641333" lon="2.64404">
        <ele>12.0</ele>
        <time>2022-05-14T17:31:38.627Z</time>
      </trkpt>
      <trkpt lat="39.57644167" lon="2.64402167">
        <ele>13.0</ele>
        <time>2022-05-14T17:31:39.627Z</time>
      </trkpt>
      <trkpt lat="39.57647" lon="2.64399833">
        <ele>13.0</ele>
        <time>2022-05-14T17:31:40.626Z</time>
      </trkpt>
      <trkpt lat="39.57649667" lon="2.64398333">
        <ele>13.0</ele>
        <time>2022-05-14T17:31:41.626Z</time>
      </trkpt>
      <trkpt lat="39.57652833" lon="2.64397833">
        <ele>13.0</ele>
        <time>2022-05-14T17:31:42.627Z</time>
      </trkpt>
      <trkpt lat="39.57656333" lon="2.643975">
        <ele>14.0</ele>
        <time>2022-05-14T17:31:43.626Z</time>
      </trkpt>
      <trkpt lat="39.57659667" lon="2.64397333">
        <ele>14.0</ele>
        <time>2022-05-14T17:31:44.627Z</time>
      </trkpt>
      <trkpt lat="39.57662833" lon="2.64396833">
        <ele>14.0</ele>
        <time>2022-05-14T17:31:45.627Z</time>
      </trkpt>
      <trkpt lat="39.57666" lon="2.64396667">
        <ele>14.0</ele>
        <time>2022-05-14T17:31:46.627Z</time>
      </trkpt>
      <trkpt lat="39.57669667" lon="2.643965">
        <ele>14.0</ele>
        <time>2022-05-14T17:31:47.627Z</time>
      </trkpt>
      <trkpt lat="39.57673" lon="2.64396333">
        <ele>14.0</ele>
        <time>2022-05-14T17:31:48.627Z</time>
      </trkpt>
      <trkpt lat="39.576765" lon="2.643965">
        <ele>14.0</ele>
        <time>2022-05-14T17:31:49.627Z</time>
      </trkpt>
      <trkpt lat="39.57680333" lon="2.64396167">
        <ele>14.0</ele>
        <time>2022-05-14T17:31:50.627Z</time>
      </trkpt>
      <trkpt lat="39.57684167" lon="2.64396">
        <ele>13.0</ele>
        <time>2022-05-14T17:31:51.627Z</time>
      </trkpt>
      <trkpt lat="39.57687833" lon="2.64396">
        <ele>13.0</ele>
        <time>2022-05-14T17:31:52.627Z</time>
      </trkpt>
      <trkpt lat="39.57691333" lon="2.64396167">
        <ele>13.0</ele>
        <time>2022-05-14T17:31:53.627Z</time>
      </trkpt>
      <trkpt lat="39.57695167" lon="2.64396167">
        <ele>13.0</ele>
        <time>2022-05-14T17:31:54.627Z</time>
      </trkpt>
      <trkpt lat="39.57699333" lon="2.64396333">
        <ele>13.0</ele>
        <time>2022-05-14T17:31:55.626Z</time>
      </trkpt>
      <trkpt lat="39.57703167" lon="2.64396167">
        <ele>14.0</ele>
        <time>2022-05-14T17:31:56.627Z</time>
      </trkpt>
      <trkpt lat="39.577065" lon="2.64395833">
        <ele>14.0</ele>
        <time>2022-05-14T17:31:57.627Z</time>
      </trkpt>
      <trkpt lat="39.5771" lon="2.64395333">
        <ele>14.0</ele>
        <time>2022-05-14T17:31:58.627Z</time>
      </trkpt>
      <trkpt lat="39.57714" lon="2.64395167">
        <ele>14.0</ele>
        <time>2022-05-14T17:31:59.626Z</time>
      </trkpt>
      <trkpt lat="39.57718" lon="2.64395">
        <ele>14.0</ele>
        <time>2022-05-14T17:32:00.627Z</time>
      </trkpt>
      <trkpt lat="39.57722167" lon="2.64394833">
        <ele>14.0</ele>
        <time>2022-05-14T17:32:01.626Z</time>
      </trkpt>
      <trkpt lat="39.577265" lon="2.64394833">
        <ele>14.0</ele>
        <time>2022-05-14T17:32:02.627Z</time>
      </trkpt>
      <trkpt lat="39.57730667" lon="2.64394667">
        <ele>14.0</ele>
        <time>2022-05-14T17:32:03.627Z</time>
      </trkpt>
      <trkpt lat="39.57734833" lon="2.64394833">
        <ele>14.0</ele>
        <time>2022-05-14T17:32:04.627Z</time>
      </trkpt>
      <trkpt lat="39.57739" lon="2.64394833">
        <ele>14.0</ele>
        <time>2022-05-14T17:32:05.626Z</time>
      </trkpt>
      <trkpt lat="39.57743333" lon="2.64395">
        <ele>15.0</ele>
        <time>2022-05-14T17:32:06.627Z</time>
      </trkpt>
      <trkpt lat="39.577475" lon="2.64395167">
        <ele>15.0</ele>
        <time>2022-05-14T17:32:07.627Z</time>
      </trkpt>
      <trkpt lat="39.577515" lon="2.64395">
        <ele>15.0</ele>
        <time>2022-05-14T17:32:08.627Z</time>
      </trkpt>
      <trkpt lat="39.57755833" lon="2.64394833">
        <ele>15.0</ele>
        <time>2022-05-14T17:32:09.627Z</time>
      </trkpt>
      <trkpt lat="39.57760167" lon="2.643945">
        <ele>15.0</ele>
        <time>2022-05-14T17:32:10.627Z</time>
      </trkpt>
      <trkpt lat="39.57764" lon="2.64393667">
        <ele>15.0</ele>
        <time>2022-05-14T17:32:11.627Z</time>
      </trkpt>
      <trkpt lat="39.577675" lon="2.64392167">
        <ele>15.0</ele>
        <time>2022-05-14T17:32:12.626Z</time>
      </trkpt>
      <trkpt lat="39.57771" lon="2.643905">
        <ele>15.0</ele>
        <time>2022-05-14T17:32:13.627Z</time>
      </trkpt>
      <trkpt lat="39.57774167" lon="2.643885">
        <ele>14.0</ele>
        <time>2022-05-14T17:32:14.627Z</time>
      </trkpt>
      <trkpt lat="39.577775" lon="2.643865">
        <ele>14.0</ele>
        <time>2022-05-14T17:32:15.627Z</time>
      </trkpt>
      <trkpt lat="39.577805" lon="2.64384">
        <ele>14.0</ele>
        <time>2022-05-14T17:32:16.627Z</time>
      </trkpt>
      <trkpt lat="39.57783667" lon="2.64381833">
        <ele>13.0</ele>
        <time>2022-05-14T17:32:17.627Z</time>
      </trkpt>
      <trkpt lat="39.57787167" lon="2.64379167">
        <ele>14.0</ele>
        <time>2022-05-14T17:32:18.626Z</time>
      </trkpt>
      <trkpt lat="39.57790333" lon="2.64377">
        <ele>14.0</ele>
        <time>2022-05-14T17:32:19.627Z</time>
      </trkpt>
      <trkpt lat="39.57793833" lon="2.643745">
        <ele>14.0</ele>
        <time>2022-05-14T17:32:20.626Z</time>
      </trkpt>
      <trkpt lat="39.577975" lon="2.64371833">
        <ele>14.0</ele>
        <time>2022-05-14T17:32:21.627Z</time>
      </trkpt>
      <trkpt lat="39.57801" lon="2.64369333">
        <ele>14.0</ele>
        <time>2022-05-14T17:32:22.627Z</time>
      </trkpt>
      <trkpt lat="39.57804667" lon="2.64366667">
        <ele>13.0</ele>
        <time>2022-05-14T17:32:23.627Z</time>
      </trkpt>
      <trkpt lat="39.57808167" lon="2.64363833">
        <ele>13.0</ele>
        <time>2022-05-14T17:32:24.626Z</time>
      </trkpt>
      <trkpt lat="39.57811167" lon="2.64360833">
        <ele>12.0</ele>
        <time>2022-05-14T17:32:25.626Z</time>
      </trkpt>
      <trkpt lat="39.57814667" lon="2.643585">
        <ele>12.0</ele>
        <time>2022-05-14T17:32:26.627Z</time>
      </trkpt>
      <trkpt lat="39.578185" lon="2.64355667">
        <ele>12.0</ele>
        <time>2022-05-14T17:32:27.626Z</time>
      </trkpt>
      <trkpt lat="39.57822333" lon="2.643525">
        <ele>12.0</ele>
        <time>2022-05-14T17:32:28.627Z</time>
      </trkpt>
      <trkpt lat="39.57826167" lon="2.64349667">
        <ele>12.0</ele>
        <time>2022-05-14T17:32:29.627Z</time>
      </trkpt>
      <trkpt lat="39.57829833" lon="2.64347">
        <ele>12.0</ele>
        <time>2022-05-14T17:32:30.626Z</time>
      </trkpt>
      <trkpt lat="39.578335" lon="2.64344333">
        <ele>11.0</ele>
        <time>2022-05-14T17:32:31.627Z</time>
      </trkpt>
      <trkpt lat="39.57837167" lon="2.64341833">
        <ele>11.0</ele>
        <time>2022-05-14T17:32:32.626Z</time>
      </trkpt>
      <trkpt lat="39.57841" lon="2.64339">
        <ele>11.0</ele>
        <time>2022-05-14T17:32:33.627Z</time>
      </trkpt>
      <trkpt lat="39.57844833" lon="2.64336167">
        <ele>12.0</ele>
        <time>2022-05-14T17:32:34.627Z</time>
      </trkpt>
      <trkpt lat="39.57848667" lon="2.643335">
        <ele>12.0</ele>
        <time>2022-05-14T17:32:35.627Z</time>
      </trkpt>
      <trkpt lat="39.57852167" lon="2.64330667">
        <ele>12.0</ele>
        <time>2022-05-14T17:32:36.626Z</time>
      </trkpt>
      <trkpt lat="39.57855833" lon="2.64327833">
        <ele>12.0</ele>
        <time>2022-05-14T17:32:37.627Z</time>
      </trkpt>
      <trkpt lat="39.57859" lon="2.643255">
        <ele>12.0</ele>
        <time>2022-05-14T17:32:38.627Z</time>
      </trkpt>
      <trkpt lat="39.578635" lon="2.64321833">
        <ele>12.0</ele>
        <time>2022-05-14T17:32:39.626Z</time>
      </trkpt>
      <trkpt lat="39.57867333" lon="2.64319">
        <ele>12.0</ele>
        <time>2022-05-14T17:32:40.626Z</time>
      </trkpt>
      <trkpt lat="39.57871" lon="2.64316">
        <ele>12.0</ele>
        <time>2022-05-14T17:32:41.627Z</time>
      </trkpt>
      <trkpt lat="39.57875" lon="2.64313">
        <ele>13.0</ele>
        <time>2022-05-14T17:32:42.627Z</time>
      </trkpt>
      <trkpt lat="39.57878833" lon="2.64310333">
        <ele>13.0</ele>
        <time>2022-05-14T17:32:43.627Z</time>
      </trkpt>
      <trkpt lat="39.57882667" lon="2.643075">
        <ele>13.0</ele>
        <time>2022-05-14T17:32:44.627Z</time>
      </trkpt>
      <trkpt lat="39.57886667" lon="2.64304667">
        <ele>13.0</ele>
        <time>2022-05-14T17:32:45.627Z</time>
      </trkpt>
      <trkpt lat="39.578905" lon="2.64301667">
        <ele>13.0</ele>
        <time>2022-05-14T17:32:46.627Z</time>
      </trkpt>
      <trkpt lat="39.57894333" lon="2.64299">
        <ele>12.0</ele>
        <time>2022-05-14T17:32:47.627Z</time>
      </trkpt>
      <trkpt lat="39.57898167" lon="2.64296">
        <ele>12.0</ele>
        <time>2022-05-14T17:32:48.626Z</time>
      </trkpt>
      <trkpt lat="39.57902" lon="2.64293">
        <ele>12.0</ele>
        <time>2022-05-14T17:32:49.627Z</time>
      </trkpt>
      <trkpt lat="39.579055" lon="2.64290167">
        <ele>11.0</ele>
        <time>2022-05-14T17:32:50.627Z</time>
      </trkpt>
      <trkpt lat="39.579095" lon="2.64286667">
        <ele>11.0</ele>
        <time>2022-05-14T17:32:51.626Z</time>
      </trkpt>
      <trkpt lat="39.57912167" lon="2.64284167">
        <ele>11.0</ele>
        <time>2022-05-14T17:32:52.627Z</time>
      </trkpt>
      <trkpt lat="39.579155" lon="2.64281">
        <ele>10.0</ele>
        <time>2022-05-14T17:32:53.627Z</time>
      </trkpt>
      <trkpt lat="39.57919167" lon="2.64278">
        <ele>10.0</ele>
        <time>2022-05-14T17:32:54.627Z</time>
      </trkpt>
      <trkpt lat="39.57923167" lon="2.64275333">
        <ele>9.0</ele>
        <time>2022-05-14T17:32:55.627Z</time>
      </trkpt>
      <trkpt lat="39.57926833" lon="2.642725">
        <ele>9.0</ele>
        <time>2022-05-14T17:32:56.627Z</time>
      </trkpt>
      <trkpt lat="39.57931" lon="2.64270167">
        <ele>9.0</ele>
        <time>2022-05-14T17:32:57.627Z</time>
      </trkpt>
      <trkpt lat="39.57935" lon="2.64267667">
        <ele>9.0</ele>
        <time>2022-05-14T17:32:58.627Z</time>
      </trkpt>
      <trkpt lat="39.57939" lon="2.64265">
        <ele>9.0</ele>
        <time>2022-05-14T17:32:59.627Z</time>
      </trkpt>
      <trkpt lat="39.57943833" lon="2.64261667">
        <ele>9.0</ele>
        <time>2022-05-14T17:33:00.627Z</time>
      </trkpt>
      <trkpt lat="39.57947167" lon="2.642595">
        <ele>8.0</ele>
        <time>2022-05-14T17:33:01.627Z</time>
      </trkpt>
      <trkpt lat="39.57951167" lon="2.642565">
        <ele>8.0</ele>
        <time>2022-05-14T17:33:02.626Z</time>
      </trkpt>
      <trkpt lat="39.57955333" lon="2.64253167">
        <ele>7.0</ele>
        <time>2022-05-14T17:33:03.627Z</time>
      </trkpt>
      <trkpt lat="39.57959333" lon="2.64250167">
        <ele>7.0</ele>
        <time>2022-05-14T17:33:04.627Z</time>
      </trkpt>
      <trkpt lat="39.57963333" lon="2.64247167">
        <ele>7.0</ele>
        <time>2022-05-14T17:33:05.626Z</time>
      </trkpt>
      <trkpt lat="39.579675" lon="2.64244">
        <ele>7.0</ele>
        <time>2022-05-14T17:33:06.627Z</time>
      </trkpt>
      <trkpt lat="39.579715" lon="2.64241">
        <ele>7.0</ele>
        <time>2022-05-14T17:33:07.627Z</time>
      </trkpt>
      <trkpt lat="39.579755" lon="2.64238167">
        <ele>8.0</ele>
        <time>2022-05-14T17:33:08.626Z</time>
      </trkpt>
      <trkpt lat="39.579795" lon="2.64235">
        <ele>8.0</ele>
        <time>2022-05-14T17:33:09.627Z</time>
      </trkpt>
      <trkpt lat="39.57983167" lon="2.64232167">
        <ele>8.0</ele>
        <time>2022-05-14T17:33:10.626Z</time>
      </trkpt>
      <trkpt lat="39.57987167" lon="2.642295">
        <ele>8.0</ele>
        <time>2022-05-14T17:33:11.627Z</time>
      </trkpt>
      <trkpt lat="39.57991167" lon="2.64227">
        <ele>9.0</ele>
        <time>2022-05-14T17:33:12.626Z</time>
      </trkpt>
      <trkpt lat="39.57995167" lon="2.64224833">
        <ele>9.0</ele>
        <time>2022-05-14T17:33:13.626Z</time>
      </trkpt>
      <trkpt lat="39.57999" lon="2.64222667">
        <ele>9.0</ele>
        <time>2022-05-14T17:33:14.627Z</time>
      </trkpt>
      <trkpt lat="39.58003" lon="2.64220833">
        <ele>9.0</ele>
        <time>2022-05-14T17:33:15.627Z</time>
      </trkpt>
      <trkpt lat="39.58007" lon="2.64220333">
        <ele>10.0</ele>
        <time>2022-05-14T17:33:16.627Z</time>
      </trkpt>
      <trkpt lat="39.58011" lon="2.64220167">
        <ele>10.0</ele>
        <time>2022-05-14T17:33:17.626Z</time>
      </trkpt>
      <trkpt lat="39.58014667" lon="2.64220333">
        <ele>11.0</ele>
        <time>2022-05-14T17:33:18.627Z</time>
      </trkpt>
      <trkpt lat="39.58018667" lon="2.642205">
        <ele>11.0</ele>
        <time>2022-05-14T17:33:19.627Z</time>
      </trkpt>
      <trkpt lat="39.58021167" lon="2.64222167">
        <ele>11.0</ele>
        <time>2022-05-14T17:33:20.627Z</time>
      </trkpt>
      <trkpt lat="39.58024833" lon="2.64225167">
        <ele>11.0</ele>
        <time>2022-05-14T17:33:21.627Z</time>
      </trkpt>
      <trkpt lat="39.58028" lon="2.64229">
        <ele>10.0</ele>
        <time>2022-05-14T17:33:22.627Z</time>
      </trkpt>
      <trkpt lat="39.580315" lon="2.64231667">
        <ele>10.0</ele>
        <time>2022-05-14T17:33:23.627Z</time>
      </trkpt>
      <trkpt lat="39.58035167" lon="2.64233667">
        <ele>10.0</ele>
        <time>2022-05-14T17:33:24.627Z</time>
      </trkpt>
      <trkpt lat="39.58038667" lon="2.642345">
        <ele>10.0</ele>
        <time>2022-05-14T17:33:25.627Z</time>
      </trkpt>
      <trkpt lat="39.58042167" lon="2.64235833">
        <ele>10.0</ele>
        <time>2022-05-14T17:33:26.627Z</time>
      </trkpt>
      <trkpt lat="39.58045167" lon="2.64238167">
        <ele>10.0</ele>
        <time>2022-05-14T17:33:27.627Z</time>
      </trkpt>
      <trkpt lat="39.58047833" lon="2.64241667">
        <ele>10.0</ele>
        <time>2022-05-14T17:33:28.627Z</time>
      </trkpt>
      <trkpt lat="39.58050333" lon="2.64245833">
        <ele>11.0</ele>
        <time>2022-05-14T17:33:29.627Z</time>
      </trkpt>
      <trkpt lat="39.58053" lon="2.642505">
        <ele>11.0</ele>
        <time>2022-05-14T17:33:30.627Z</time>
      </trkpt>
      <trkpt lat="39.58055667" lon="2.64255167">
        <ele>12.0</ele>
        <time>2022-05-14T17:33:31.626Z</time>
      </trkpt>
      <trkpt lat="39.58058167" lon="2.642605">
        <ele>13.0</ele>
        <time>2022-05-14T17:33:32.626Z</time>
      </trkpt>
      <trkpt lat="39.580605" lon="2.64265667">
        <ele>13.0</ele>
        <time>2022-05-14T17:33:33.626Z</time>
      </trkpt>
      <trkpt lat="39.58063167" lon="2.64270833">
        <ele>14.0</ele>
        <time>2022-05-14T17:33:34.627Z</time>
      </trkpt>
      <trkpt lat="39.58065833" lon="2.642755">
        <ele>14.0</ele>
        <time>2022-05-14T17:33:35.626Z</time>
      </trkpt>
      <trkpt lat="39.580685" lon="2.64280333">
        <ele>13.0</ele>
        <time>2022-05-14T17:33:36.627Z</time>
      </trkpt>
      <trkpt lat="39.58071167" lon="2.64285167">
        <ele>14.0</ele>
        <time>2022-05-14T17:33:37.627Z</time>
      </trkpt>
      <trkpt lat="39.58074" lon="2.64289833">
        <ele>14.0</ele>
        <time>2022-05-14T17:33:38.627Z</time>
      </trkpt>
      <trkpt lat="39.58076333" lon="2.642945">
        <ele>14.0</ele>
        <time>2022-05-14T17:33:39.627Z</time>
      </trkpt>
      <trkpt lat="39.58079" lon="2.64299167">
        <ele>14.0</ele>
        <time>2022-05-14T17:33:40.627Z</time>
      </trkpt>
      <trkpt lat="39.580815" lon="2.64304">
        <ele>14.0</ele>
        <time>2022-05-14T17:33:41.627Z</time>
      </trkpt>
      <trkpt lat="39.58084" lon="2.64309">
        <ele>14.0</ele>
        <time>2022-05-14T17:33:42.626Z</time>
      </trkpt>
      <trkpt lat="39.58086667" lon="2.64313667">
        <ele>14.0</ele>
        <time>2022-05-14T17:33:43.627Z</time>
      </trkpt>
      <trkpt lat="39.58089333" lon="2.643185">
        <ele>14.0</ele>
        <time>2022-05-14T17:33:44.627Z</time>
      </trkpt>
      <trkpt lat="39.58091667" lon="2.64323333">
        <ele>14.0</ele>
        <time>2022-05-14T17:33:45.627Z</time>
      </trkpt>
      <trkpt lat="39.58094" lon="2.64328">
        <ele>14.0</ele>
        <time>2022-05-14T17:33:46.627Z</time>
      </trkpt>
      <trkpt lat="39.58096333" lon="2.64333">
        <ele>14.0</ele>
        <time>2022-05-14T17:33:47.626Z</time>
      </trkpt>
      <trkpt lat="39.58098667" lon="2.64337667">
        <ele>14.0</ele>
        <time>2022-05-14T17:33:48.627Z</time>
      </trkpt>
      <trkpt lat="39.58101333" lon="2.64342333">
        <ele>14.0</ele>
        <time>2022-05-14T17:33:49.627Z</time>
      </trkpt>
      <trkpt lat="39.58103833" lon="2.64347">
        <ele>15.0</ele>
        <time>2022-05-14T17:33:50.627Z</time>
      </trkpt>
      <trkpt lat="39.58106333" lon="2.64351833">
        <ele>15.0</ele>
        <time>2022-05-14T17:33:51.627Z</time>
      </trkpt>
      <trkpt lat="39.58108833" lon="2.64356167">
        <ele>15.0</ele>
        <time>2022-05-14T17:33:52.627Z</time>
      </trkpt>
      <trkpt lat="39.581115" lon="2.64360333">
        <ele>15.0</ele>
        <time>2022-05-14T17:33:53.627Z</time>
      </trkpt>
      <trkpt lat="39.58114" lon="2.643645">
        <ele>15.0</ele>
        <time>2022-05-14T17:33:54.627Z</time>
      </trkpt>
      <trkpt lat="39.581165" lon="2.64369">
        <ele>15.0</ele>
        <time>2022-05-14T17:33:55.627Z</time>
      </trkpt>
      <trkpt lat="39.58118833" lon="2.64373333">
        <ele>15.0</ele>
        <time>2022-05-14T17:33:56.627Z</time>
      </trkpt>
      <trkpt lat="39.58121833" lon="2.64376167">
        <ele>15.0</ele>
        <time>2022-05-14T17:33:57.627Z</time>
      </trkpt>
      <trkpt lat="39.58124667" lon="2.64379167">
        <ele>14.0</ele>
        <time>2022-05-14T17:33:58.627Z</time>
      </trkpt>
      <trkpt lat="39.58127167" lon="2.64383167">
        <ele>14.0</ele>
        <time>2022-05-14T17:33:59.626Z</time>
      </trkpt>
      <trkpt lat="39.58129333" lon="2.64387833">
        <ele>14.0</ele>
        <time>2022-05-14T17:34:00.627Z</time>
      </trkpt>
      <trkpt lat="39.58131333" lon="2.64391833">
        <ele>13.0</ele>
        <time>2022-05-14T17:34:01.627Z</time>
      </trkpt>
      <trkpt lat="39.58133833" lon="2.64396">
        <ele>13.0</ele>
        <time>2022-05-14T17:34:02.627Z</time>
      </trkpt>
      <trkpt lat="39.581365" lon="2.64401167">
        <ele>13.0</ele>
        <time>2022-05-14T17:34:03.627Z</time>
      </trkpt>
      <trkpt lat="39.58138833" lon="2.64406">
        <ele>13.0</ele>
        <time>2022-05-14T17:34:04.627Z</time>
      </trkpt>
      <trkpt lat="39.58141167" lon="2.644095">
        <ele>13.0</ele>
        <time>2022-05-14T17:34:05.627Z</time>
      </trkpt>
      <trkpt lat="39.581435" lon="2.64414167">
        <ele>13.0</ele>
        <time>2022-05-14T17:34:06.626Z</time>
      </trkpt>
      <trkpt lat="39.581455" lon="2.64419167">
        <ele>13.0</ele>
        <time>2022-05-14T17:34:07.627Z</time>
      </trkpt>
      <trkpt lat="39.58147833" lon="2.64423833">
        <ele>13.0</ele>
        <time>2022-05-14T17:34:08.627Z</time>
      </trkpt>
      <trkpt lat="39.58149833" lon="2.64427833">
        <ele>14.0</ele>
        <time>2022-05-14T17:34:09.627Z</time>
      </trkpt>
      <trkpt lat="39.58151333" lon="2.64431833">
        <ele>14.0</ele>
        <time>2022-05-14T17:34:10.627Z</time>
      </trkpt>
      <trkpt lat="39.58151167" lon="2.64435833">
        <ele>14.0</ele>
        <time>2022-05-14T17:34:11.626Z</time>
      </trkpt>
      <trkpt lat="39.58150333" lon="2.6444">
        <ele>15.0</ele>
        <time>2022-05-14T17:34:12.627Z</time>
      </trkpt>
      <trkpt lat="39.58149833" lon="2.64444">
        <ele>16.0</ele>
        <time>2022-05-14T17:34:13.627Z</time>
      </trkpt>
      <trkpt lat="39.58150167" lon="2.64448167">
        <ele>16.0</ele>
        <time>2022-05-14T17:34:14.626Z</time>
      </trkpt>
      <trkpt lat="39.58150833" lon="2.644525">
        <ele>16.0</ele>
        <time>2022-05-14T17:34:15.627Z</time>
      </trkpt>
      <trkpt lat="39.58151333" lon="2.644565">
        <ele>16.0</ele>
        <time>2022-05-14T17:34:16.626Z</time>
      </trkpt>
      <trkpt lat="39.58151" lon="2.64460833">
        <ele>16.0</ele>
        <time>2022-05-14T17:34:17.627Z</time>
      </trkpt>
      <trkpt lat="39.58149833" lon="2.64465">
        <ele>16.0</ele>
        <time>2022-05-14T17:34:18.627Z</time>
      </trkpt>
      <trkpt lat="39.58147833" lon="2.64468667">
        <ele>16.0</ele>
        <time>2022-05-14T17:34:19.627Z</time>
      </trkpt>
      <trkpt lat="39.58145667" lon="2.64472333">
        <ele>15.0</ele>
        <time>2022-05-14T17:34:20.626Z</time>
      </trkpt>
      <trkpt lat="39.58143167" lon="2.64475667">
        <ele>15.0</ele>
        <time>2022-05-14T17:34:21.627Z</time>
      </trkpt>
      <trkpt lat="39.58140833" lon="2.644785">
        <ele>15.0</ele>
        <time>2022-05-14T17:34:22.626Z</time>
      </trkpt>
      <trkpt lat="39.58139" lon="2.64480667">
        <ele>14.0</ele>
        <time>2022-05-14T17:34:23.626Z</time>
      </trkpt>
      <trkpt lat="39.58138" lon="2.64482">
        <ele>14.0</ele>
        <time>2022-05-14T17:34:24.626Z</time>
      </trkpt>
      <trkpt lat="39.58138" lon="2.644825">
        <ele>14.0</ele>
        <time>2022-05-14T17:34:25.626Z</time>
      </trkpt>
      <trkpt lat="39.58137833" lon="2.64482833">
        <ele>14.0</ele>
        <time>2022-05-14T17:34:26.627Z</time>
      </trkpt>
      <trkpt lat="39.58138" lon="2.64483333">
        <ele>15.0</ele>
        <time>2022-05-14T17:34:27.626Z</time>
      </trkpt>
      <trkpt lat="39.581385" lon="2.64484167">
        <ele>15.0</ele>
        <time>2022-05-14T17:34:28.627Z</time>
      </trkpt>
      <trkpt lat="39.581395" lon="2.64485167">
        <ele>14.0</ele>
        <time>2022-05-14T17:34:29.627Z</time>
      </trkpt>
      <trkpt lat="39.58140833" lon="2.644865">
        <ele>14.0</ele>
        <time>2022-05-14T17:34:30.626Z</time>
      </trkpt>
      <trkpt lat="39.58142167" lon="2.64488833">
        <ele>15.0</ele>
        <time>2022-05-14T17:34:31.627Z</time>
      </trkpt>
      <trkpt lat="39.58143" lon="2.64492">
        <ele>15.0</ele>
        <time>2022-05-14T17:34:32.627Z</time>
      </trkpt>
      <trkpt lat="39.58142833" lon="2.64495833">
        <ele>15.0</ele>
        <time>2022-05-14T17:34:33.627Z</time>
      </trkpt>
      <trkpt lat="39.581415" lon="2.64499667">
        <ele>14.0</ele>
        <time>2022-05-14T17:34:34.627Z</time>
      </trkpt>
      <trkpt lat="39.58139667" lon="2.645035">
        <ele>14.0</ele>
        <time>2022-05-14T17:34:35.627Z</time>
      </trkpt>
      <trkpt lat="39.58137333" lon="2.645065">
        <ele>14.0</ele>
        <time>2022-05-14T17:34:36.627Z</time>
      </trkpt>
      <trkpt lat="39.58134667" lon="2.6451">
        <ele>13.0</ele>
        <time>2022-05-14T17:34:37.627Z</time>
      </trkpt>
      <trkpt lat="39.581325" lon="2.64513">
        <ele>13.0</ele>
        <time>2022-05-14T17:34:38.627Z</time>
      </trkpt>
      <trkpt lat="39.5813" lon="2.645165">
        <ele>13.0</ele>
        <time>2022-05-14T17:34:39.627Z</time>
      </trkpt>
      <trkpt lat="39.58127667" lon="2.64520167">
        <ele>13.0</ele>
        <time>2022-05-14T17:34:40.626Z</time>
      </trkpt>
      <trkpt lat="39.58124667" lon="2.64523833">
        <ele>13.0</ele>
        <time>2022-05-14T17:34:41.626Z</time>
      </trkpt>
      <trkpt lat="39.58122" lon="2.64527833">
        <ele>13.0</ele>
        <time>2022-05-14T17:34:42.627Z</time>
      </trkpt>
      <trkpt lat="39.58119" lon="2.64531667">
        <ele>13.0</ele>
        <time>2022-05-14T17:34:43.627Z</time>
      </trkpt>
      <trkpt lat="39.58116" lon="2.64536">
        <ele>13.0</ele>
        <time>2022-05-14T17:34:44.627Z</time>
      </trkpt>
      <trkpt lat="39.58113" lon="2.64540167">
        <ele>14.0</ele>
        <time>2022-05-14T17:34:45.626Z</time>
      </trkpt>
      <trkpt lat="39.5811" lon="2.64544333">
        <ele>14.0</ele>
        <time>2022-05-14T17:34:46.627Z</time>
      </trkpt>
      <trkpt lat="39.58107" lon="2.645485">
        <ele>14.0</ele>
        <time>2022-05-14T17:34:47.626Z</time>
      </trkpt>
      <trkpt lat="39.58103833" lon="2.64552833">
        <ele>14.0</ele>
        <time>2022-05-14T17:34:48.627Z</time>
      </trkpt>
      <trkpt lat="39.58100833" lon="2.64557333">
        <ele>15.0</ele>
        <time>2022-05-14T17:34:49.627Z</time>
      </trkpt>
      <trkpt lat="39.58097833" lon="2.64562">
        <ele>15.0</ele>
        <time>2022-05-14T17:34:50.627Z</time>
      </trkpt>
      <trkpt lat="39.58094667" lon="2.645665">
        <ele>16.0</ele>
        <time>2022-05-14T17:34:51.627Z</time>
      </trkpt>
      <trkpt lat="39.580915" lon="2.64571">
        <ele>16.0</ele>
        <time>2022-05-14T17:34:52.627Z</time>
      </trkpt>
      <trkpt lat="39.580885" lon="2.64575667">
        <ele>15.0</ele>
        <time>2022-05-14T17:34:53.627Z</time>
      </trkpt>
      <trkpt lat="39.58085667" lon="2.64580667">
        <ele>16.0</ele>
        <time>2022-05-14T17:34:54.626Z</time>
      </trkpt>
      <trkpt lat="39.58083" lon="2.64586">
        <ele>15.0</ele>
        <time>2022-05-14T17:34:55.627Z</time>
      </trkpt>
      <trkpt lat="39.58080667" lon="2.64591167">
        <ele>15.0</ele>
        <time>2022-05-14T17:34:56.627Z</time>
      </trkpt>
      <trkpt lat="39.580785" lon="2.645965">
        <ele>15.0</ele>
        <time>2022-05-14T17:34:57.627Z</time>
      </trkpt>
      <trkpt lat="39.580765" lon="2.64601667">
        <ele>15.0</ele>
        <time>2022-05-14T17:34:58.627Z</time>
      </trkpt>
      <trkpt lat="39.58074833" lon="2.64606667">
        <ele>15.0</ele>
        <time>2022-05-14T17:34:59.627Z</time>
      </trkpt>
      <trkpt lat="39.58072833" lon="2.64611667">
        <ele>15.0</ele>
        <time>2022-05-14T17:35:00.627Z</time>
      </trkpt>
      <trkpt lat="39.58070833" lon="2.64616667">
        <ele>15.0</ele>
        <time>2022-05-14T17:35:01.627Z</time>
      </trkpt>
      <trkpt lat="39.58068833" lon="2.64622">
        <ele>16.0</ele>
        <time>2022-05-14T17:35:02.627Z</time>
      </trkpt>
      <trkpt lat="39.58066833" lon="2.64627667">
        <ele>16.0</ele>
        <time>2022-05-14T17:35:03.627Z</time>
      </trkpt>
      <trkpt lat="39.58064667" lon="2.64633333">
        <ele>17.0</ele>
        <time>2022-05-14T17:35:04.626Z</time>
      </trkpt>
      <trkpt lat="39.580625" lon="2.64639">
        <ele>17.0</ele>
        <time>2022-05-14T17:35:05.626Z</time>
      </trkpt>
      <trkpt lat="39.58060167" lon="2.64644833">
        <ele>18.0</ele>
        <time>2022-05-14T17:35:06.627Z</time>
      </trkpt>
      <trkpt lat="39.580575" lon="2.64650833">
        <ele>18.0</ele>
        <time>2022-05-14T17:35:07.626Z</time>
      </trkpt>
      <trkpt lat="39.58055333" lon="2.64656333">
        <ele>19.0</ele>
        <time>2022-05-14T17:35:08.627Z</time>
      </trkpt>
      <trkpt lat="39.58053" lon="2.64661833">
        <ele>20.0</ele>
        <time>2022-05-14T17:35:09.627Z</time>
      </trkpt>
      <trkpt lat="39.58050667" lon="2.64667333">
        <ele>21.0</ele>
        <time>2022-05-14T17:35:10.626Z</time>
      </trkpt>
      <trkpt lat="39.58048167" lon="2.64673">
        <ele>21.0</ele>
        <time>2022-05-14T17:35:11.627Z</time>
      </trkpt>
      <trkpt lat="39.58045667" lon="2.64678833">
        <ele>22.0</ele>
        <time>2022-05-14T17:35:12.626Z</time>
      </trkpt>
      <trkpt lat="39.58043333" lon="2.64684">
        <ele>22.0</ele>
        <time>2022-05-14T17:35:13.627Z</time>
      </trkpt>
      <trkpt lat="39.580415" lon="2.64689167">
        <ele>23.0</ele>
        <time>2022-05-14T17:35:14.627Z</time>
      </trkpt>
      <trkpt lat="39.5804" lon="2.64694167">
        <ele>24.0</ele>
        <time>2022-05-14T17:35:15.627Z</time>
      </trkpt>
      <trkpt lat="39.58037833" lon="2.646995">
        <ele>24.0</ele>
        <time>2022-05-14T17:35:16.627Z</time>
      </trkpt>
      <trkpt lat="39.58035333" lon="2.64704667">
        <ele>25.0</ele>
        <time>2022-05-14T17:35:17.627Z</time>
      </trkpt>
      <trkpt lat="39.58032667" lon="2.64709667">
        <ele>25.0</ele>
        <time>2022-05-14T17:35:18.627Z</time>
      </trkpt>
      <trkpt lat="39.580305" lon="2.64714667">
        <ele>26.0</ele>
        <time>2022-05-14T17:35:19.627Z</time>
      </trkpt>
      <trkpt lat="39.580285" lon="2.64718833">
        <ele>26.0</ele>
        <time>2022-05-14T17:35:20.626Z</time>
      </trkpt>
      <trkpt lat="39.580265" lon="2.64723167">
        <ele>25.0</ele>
        <time>2022-05-14T17:35:21.627Z</time>
      </trkpt>
      <trkpt lat="39.58024333" lon="2.64727833">
        <ele>25.0</ele>
        <time>2022-05-14T17:35:22.627Z</time>
      </trkpt>
      <trkpt lat="39.58022167" lon="2.64731833">
        <ele>25.0</ele>
        <time>2022-05-14T17:35:23.627Z</time>
      </trkpt>
      <trkpt lat="39.58020667" lon="2.647355">
        <ele>25.0</ele>
        <time>2022-05-14T17:35:24.627Z</time>
      </trkpt>
      <trkpt lat="39.58020667" lon="2.647385">
        <ele>25.0</ele>
        <time>2022-05-14T17:35:25.627Z</time>
      </trkpt>
      <trkpt lat="39.58021167" lon="2.64741167">
        <ele>25.0</ele>
        <time>2022-05-14T17:35:26.626Z</time>
      </trkpt>
      <trkpt lat="39.580225" lon="2.64743333">
        <ele>25.0</ele>
        <time>2022-05-14T17:35:27.627Z</time>
      </trkpt>
      <trkpt lat="39.58024167" lon="2.64745167">
        <ele>25.0</ele>
        <time>2022-05-14T17:35:28.627Z</time>
      </trkpt>
      <trkpt lat="39.58026" lon="2.64747333">
        <ele>25.0</ele>
        <time>2022-05-14T17:35:29.627Z</time>
      </trkpt>
      <trkpt lat="39.580275" lon="2.64751333">
        <ele>26.0</ele>
        <time>2022-05-14T17:35:30.627Z</time>
      </trkpt>
      <trkpt lat="39.58028333" lon="2.64754">
        <ele>26.0</ele>
        <time>2022-05-14T17:35:31.626Z</time>
      </trkpt>
      <trkpt lat="39.58029" lon="2.64756">
        <ele>26.0</ele>
        <time>2022-05-14T17:35:32.627Z</time>
      </trkpt>
      <trkpt lat="39.58029" lon="2.64756833">
        <ele>27.0</ele>
        <time>2022-05-14T17:35:33.626Z</time>
      </trkpt>
      <trkpt lat="39.58028667" lon="2.64756667">
        <ele>27.0</ele>
        <time>2022-05-14T17:35:34.627Z</time>
      </trkpt>
      <trkpt lat="39.58028333" lon="2.64755833">
        <ele>27.0</ele>
        <time>2022-05-14T17:35:35.627Z</time>
      </trkpt>
      <trkpt lat="39.58028333" lon="2.64754667">
        <ele>27.0</ele>
        <time>2022-05-14T17:35:36.626Z</time>
      </trkpt>
      <trkpt lat="39.580285" lon="2.64754167">
        <ele>27.0</ele>
        <time>2022-05-14T17:35:37.627Z</time>
      </trkpt>
      <trkpt lat="39.58029" lon="2.647535">
        <ele>27.0</ele>
        <time>2022-05-14T17:35:38.627Z</time>
      </trkpt>
      <trkpt lat="39.58028833" lon="2.647525">
        <ele>27.0</ele>
        <time>2022-05-14T17:35:39.626Z</time>
      </trkpt>
      <trkpt lat="39.58029" lon="2.64752667">
        <ele>27.0</ele>
        <time>2022-05-14T17:35:40.627Z</time>
      </trkpt>
      <trkpt lat="39.58028833" lon="2.64753167">
        <ele>27.0</ele>
        <time>2022-05-14T17:35:41.627Z</time>
      </trkpt>
      <trkpt lat="39.58028333" lon="2.64753">
        <ele>27.0</ele>
        <time>2022-05-14T17:35:42.627Z</time>
      </trkpt>
      <trkpt lat="39.58028" lon="2.64752">
        <ele>27.0</ele>
        <time>2022-05-14T17:35:43.627Z</time>
      </trkpt>
      <trkpt lat="39.58028" lon="2.64752333">
        <ele>27.0</ele>
        <time>2022-05-14T17:35:44.627Z</time>
      </trkpt>
      <trkpt lat="39.580285" lon="2.647525">
        <ele>27.0</ele>
        <time>2022-05-14T17:35:45.627Z</time>
      </trkpt>
      <trkpt lat="39.58029" lon="2.647525">
        <ele>26.0</ele>
        <time>2022-05-14T17:35:46.627Z</time>
      </trkpt>
      <trkpt lat="39.58029" lon="2.64753167">
        <ele>25.0</ele>
        <time>2022-05-14T17:35:47.627Z</time>
      </trkpt>
      <trkpt lat="39.58029" lon="2.64753167">
        <ele>25.0</ele>
        <time>2022-05-14T17:35:48.626Z</time>
      </trkpt>
      <trkpt lat="39.58029" lon="2.64753167">
        <ele>24.0</ele>
        <time>2022-05-14T17:35:49.627Z</time>
      </trkpt>
      <trkpt lat="39.58029" lon="2.64753167">
        <ele>24.0</ele>
        <time>2022-05-14T17:35:50.627Z</time>
      </trkpt>
      <trkpt lat="39.58029" lon="2.64753167">
        <ele>24.0</ele>
        <time>2022-05-14T17:35:51.627Z</time>
      </trkpt>
      <trkpt lat="39.58029" lon="2.64753167">
        <ele>23.0</ele>
        <time>2022-05-14T17:35:52.626Z</time>
      </trkpt>
      <trkpt lat="39.58029" lon="2.64753167">
        <ele>23.0</ele>
        <time>2022-05-14T17:35:53.626Z</time>
      </trkpt>
      <trkpt lat="39.58029" lon="2.64753167">
        <ele>23.0</ele>
        <time>2022-05-14T17:35:54.626Z</time>
      </trkpt>
      <trkpt lat="39.58029" lon="2.64753167">
        <ele>23.0</ele>
        <time>2022-05-14T17:35:55.627Z</time>
      </trkpt>
      <trkpt lat="39.58029333" lon="2.647535">
        <ele>23.0</ele>
        <time>2022-05-14T17:35:56.626Z</time>
      </trkpt>
      <trkpt lat="39.580325" lon="2.64754833">
        <ele>23.0</ele>
        <time>2022-05-14T17:35:57.627Z</time>
      </trkpt>
      <trkpt lat="39.58035833" lon="2.64758167">
        <ele>23.0</ele>
        <time>2022-05-14T17:35:58.626Z</time>
      </trkpt>
      <trkpt lat="39.58038667" lon="2.64762">
        <ele>22.0</ele>
        <time>2022-05-14T17:35:59.626Z</time>
      </trkpt>
      <trkpt lat="39.58040333" lon="2.64766833">
        <ele>22.0</ele>
        <time>2022-05-14T17:36:00.626Z</time>
      </trkpt>
      <trkpt lat="39.58042167" lon="2.64771333">
        <ele>22.0</ele>
        <time>2022-05-14T17:36:01.627Z</time>
      </trkpt>
      <trkpt lat="39.580435" lon="2.64776">
        <ele>22.0</ele>
        <time>2022-05-14T17:36:02.627Z</time>
      </trkpt>
      <trkpt lat="39.58045" lon="2.647805">
        <ele>22.0</ele>
        <time>2022-05-14T17:36:03.627Z</time>
      </trkpt>
      <trkpt lat="39.58046333" lon="2.64785667">
        <ele>22.0</ele>
        <time>2022-05-14T17:36:04.627Z</time>
      </trkpt>
      <trkpt lat="39.58047667" lon="2.647905">
        <ele>22.0</ele>
        <time>2022-05-14T17:36:05.627Z</time>
      </trkpt>
      <trkpt lat="39.58049" lon="2.64795167">
        <ele>23.0</ele>
        <time>2022-05-14T17:36:06.627Z</time>
      </trkpt>
      <trkpt lat="39.580505" lon="2.64799833">
        <ele>23.0</ele>
        <time>2022-05-14T17:36:07.627Z</time>
      </trkpt>
      <trkpt lat="39.58052333" lon="2.64804333">
        <ele>24.0</ele>
        <time>2022-05-14T17:36:08.627Z</time>
      </trkpt>
      <trkpt lat="39.58054" lon="2.64809">
        <ele>24.0</ele>
        <time>2022-05-14T17:36:09.626Z</time>
      </trkpt>
      <trkpt lat="39.580555" lon="2.64814">
        <ele>25.0</ele>
        <time>2022-05-14T17:36:10.627Z</time>
      </trkpt>
      <trkpt lat="39.58056667" lon="2.64819">
        <ele>25.0</ele>
        <time>2022-05-14T17:36:11.626Z</time>
      </trkpt>
      <trkpt lat="39.58057833" lon="2.648245">
        <ele>25.0</ele>
        <time>2022-05-14T17:36:12.627Z</time>
      </trkpt>
      <trkpt lat="39.58059167" lon="2.6483">
        <ele>26.0</ele>
        <time>2022-05-14T17:36:13.626Z</time>
      </trkpt>
      <trkpt lat="39.58060167" lon="2.64835667">
        <ele>26.0</ele>
        <time>2022-05-14T17:36:14.626Z</time>
      </trkpt>
      <trkpt lat="39.58061167" lon="2.64841167">
        <ele>26.0</ele>
        <time>2022-05-14T17:36:15.626Z</time>
      </trkpt>
      <trkpt lat="39.58062" lon="2.64847">
        <ele>27.0</ele>
        <time>2022-05-14T17:36:16.626Z</time>
      </trkpt>
      <trkpt lat="39.580635" lon="2.64853">
        <ele>27.0</ele>
        <time>2022-05-14T17:36:17.627Z</time>
      </trkpt>
      <trkpt lat="39.58064667" lon="2.64859">
        <ele>28.0</ele>
        <time>2022-05-14T17:36:18.627Z</time>
      </trkpt>
      <trkpt lat="39.58065833" lon="2.64864667">
        <ele>28.0</ele>
        <time>2022-05-14T17:36:19.627Z</time>
      </trkpt>
      <trkpt lat="39.58066667" lon="2.64869833">
        <ele>29.0</ele>
        <time>2022-05-14T17:36:20.627Z</time>
      </trkpt>
      <trkpt lat="39.58067833" lon="2.64874667">
        <ele>28.0</ele>
        <time>2022-05-14T17:36:21.627Z</time>
      </trkpt>
      <trkpt lat="39.58069333" lon="2.64879333">
        <ele>28.0</ele>
        <time>2022-05-14T17:36:22.627Z</time>
      </trkpt>
      <trkpt lat="39.58070667" lon="2.64884333">
        <ele>27.0</ele>
        <time>2022-05-14T17:36:23.627Z</time>
      </trkpt>
      <trkpt lat="39.58072667" lon="2.64888833">
        <ele>27.0</ele>
        <time>2022-05-14T17:36:24.627Z</time>
      </trkpt>
      <trkpt lat="39.58075" lon="2.648935">
        <ele>26.0</ele>
        <time>2022-05-14T17:36:25.627Z</time>
      </trkpt>
      <trkpt lat="39.58077" lon="2.64898333">
        <ele>26.0</ele>
        <time>2022-05-14T17:36:26.626Z</time>
      </trkpt>
      <trkpt lat="39.58078667" lon="2.64904833">
        <ele>26.0</ele>
        <time>2022-05-14T17:36:27.626Z</time>
      </trkpt>
      <trkpt lat="39.58078833" lon="2.64910167">
        <ele>26.0</ele>
        <time>2022-05-14T17:36:28.627Z</time>
      </trkpt>
      <trkpt lat="39.580795" lon="2.649145">
        <ele>26.0</ele>
        <time>2022-05-14T17:36:29.627Z</time>
      </trkpt>
      <trkpt lat="39.580795" lon="2.64919333">
        <ele>26.0</ele>
        <time>2022-05-14T17:36:30.626Z</time>
      </trkpt>
      <trkpt lat="39.58080833" lon="2.649235">
        <ele>25.0</ele>
        <time>2022-05-14T17:36:31.626Z</time>
      </trkpt>
      <trkpt lat="39.58082" lon="2.64928">
        <ele>25.0</ele>
        <time>2022-05-14T17:36:32.627Z</time>
      </trkpt>
      <trkpt lat="39.58082833" lon="2.64933333">
        <ele>25.0</ele>
        <time>2022-05-14T17:36:33.627Z</time>
      </trkpt>
      <trkpt lat="39.58084833" lon="2.64938167">
        <ele>25.0</ele>
        <time>2022-05-14T17:36:34.627Z</time>
      </trkpt>
      <trkpt lat="39.58085167" lon="2.64942833">
        <ele>25.0</ele>
        <time>2022-05-14T17:36:35.626Z</time>
      </trkpt>
      <trkpt lat="39.58085833" lon="2.64946833">
        <ele>25.0</ele>
        <time>2022-05-14T17:36:36.626Z</time>
      </trkpt>
      <trkpt lat="39.58086667" lon="2.64951333">
        <ele>25.0</ele>
        <time>2022-05-14T17:36:37.627Z</time>
      </trkpt>
      <trkpt lat="39.58087667" lon="2.64956167">
        <ele>26.0</ele>
        <time>2022-05-14T17:36:38.627Z</time>
      </trkpt>
      <trkpt lat="39.58089" lon="2.64961">
        <ele>26.0</ele>
        <time>2022-05-14T17:36:39.627Z</time>
      </trkpt>
      <trkpt lat="39.58090667" lon="2.64966167">
        <ele>26.0</ele>
        <time>2022-05-14T17:36:40.627Z</time>
      </trkpt>
      <trkpt lat="39.58091833" lon="2.64971">
        <ele>26.0</ele>
        <time>2022-05-14T17:36:41.627Z</time>
      </trkpt>
      <trkpt lat="39.58093167" lon="2.64976167">
        <ele>26.0</ele>
        <time>2022-05-14T17:36:42.627Z</time>
      </trkpt>
      <trkpt lat="39.58095" lon="2.64982">
        <ele>26.0</ele>
        <time>2022-05-14T17:36:43.627Z</time>
      </trkpt>
      <trkpt lat="39.58096167" lon="2.64987667">
        <ele>26.0</ele>
        <time>2022-05-14T17:36:44.627Z</time>
      </trkpt>
      <trkpt lat="39.58097667" lon="2.64993333">
        <ele>26.0</ele>
        <time>2022-05-14T17:36:45.627Z</time>
      </trkpt>
      <trkpt lat="39.580995" lon="2.64999">
        <ele>26.0</ele>
        <time>2022-05-14T17:36:46.627Z</time>
      </trkpt>
      <trkpt lat="39.58101" lon="2.65004833">
        <ele>26.0</ele>
        <time>2022-05-14T17:36:47.627Z</time>
      </trkpt>
      <trkpt lat="39.58102333" lon="2.65010167">
        <ele>25.0</ele>
        <time>2022-05-14T17:36:48.627Z</time>
      </trkpt>
      <trkpt lat="39.58104167" lon="2.65016">
        <ele>25.0</ele>
        <time>2022-05-14T17:36:49.627Z</time>
      </trkpt>
      <trkpt lat="39.58106" lon="2.65021833">
        <ele>25.0</ele>
        <time>2022-05-14T17:36:50.627Z</time>
      </trkpt>
      <trkpt lat="39.58107333" lon="2.65028167">
        <ele>25.0</ele>
        <time>2022-05-14T17:36:51.627Z</time>
      </trkpt>
      <trkpt lat="39.58108667" lon="2.65034">
        <ele>25.0</ele>
        <time>2022-05-14T17:36:52.626Z</time>
      </trkpt>
      <trkpt lat="39.581105" lon="2.65039833">
        <ele>25.0</ele>
        <time>2022-05-14T17:36:53.627Z</time>
      </trkpt>
      <trkpt lat="39.58112833" lon="2.65046667">
        <ele>25.0</ele>
        <time>2022-05-14T17:36:54.626Z</time>
      </trkpt>
      <trkpt lat="39.58113667" lon="2.65053">
        <ele>25.0</ele>
        <time>2022-05-14T17:36:55.626Z</time>
      </trkpt>
      <trkpt lat="39.58114667" lon="2.65058333">
        <ele>25.0</ele>
        <time>2022-05-14T17:36:56.627Z</time>
      </trkpt>
      <trkpt lat="39.58116" lon="2.65065333">
        <ele>25.0</ele>
        <time>2022-05-14T17:36:57.627Z</time>
      </trkpt>
      <trkpt lat="39.58117" lon="2.65070333">
        <ele>25.0</ele>
        <time>2022-05-14T17:36:58.627Z</time>
      </trkpt>
      <trkpt lat="39.58118" lon="2.65074667">
        <ele>25.0</ele>
        <time>2022-05-14T17:36:59.627Z</time>
      </trkpt>
      <trkpt lat="39.58118833" lon="2.65080667">
        <ele>25.0</ele>
        <time>2022-05-14T17:37:00.627Z</time>
      </trkpt>
      <trkpt lat="39.58120167" lon="2.65086667">
        <ele>25.0</ele>
        <time>2022-05-14T17:37:01.627Z</time>
      </trkpt>
      <trkpt lat="39.58121167" lon="2.65092167">
        <ele>25.0</ele>
        <time>2022-05-14T17:37:02.627Z</time>
      </trkpt>
      <trkpt lat="39.58121833" lon="2.65097667">
        <ele>25.0</ele>
        <time>2022-05-14T17:37:03.627Z</time>
      </trkpt>
      <trkpt lat="39.58122667" lon="2.65103333">
        <ele>25.0</ele>
        <time>2022-05-14T17:37:04.627Z</time>
      </trkpt>
      <trkpt lat="39.58124833" lon="2.65109333">
        <ele>24.0</ele>
        <time>2022-05-14T17:37:05.627Z</time>
      </trkpt>
      <trkpt lat="39.58126333" lon="2.651155">
        <ele>24.0</ele>
        <time>2022-05-14T17:37:06.626Z</time>
      </trkpt>
      <trkpt lat="39.581275" lon="2.65122167">
        <ele>25.0</ele>
        <time>2022-05-14T17:37:07.627Z</time>
      </trkpt>
      <trkpt lat="39.58129" lon="2.65128667">
        <ele>25.0</ele>
        <time>2022-05-14T17:37:08.627Z</time>
      </trkpt>
      <trkpt lat="39.58130333" lon="2.65134833">
        <ele>25.0</ele>
        <time>2022-05-14T17:37:09.627Z</time>
      </trkpt>
      <trkpt lat="39.58131167" lon="2.65141">
        <ele>25.0</ele>
        <time>2022-05-14T17:37:10.627Z</time>
      </trkpt>
      <trkpt lat="39.581335" lon="2.65146333">
        <ele>26.0</ele>
        <time>2022-05-14T17:37:11.626Z</time>
      </trkpt>
      <trkpt lat="39.581355" lon="2.65153">
        <ele>26.0</ele>
        <time>2022-05-14T17:37:12.626Z</time>
      </trkpt>
      <trkpt lat="39.58137667" lon="2.65157833">
        <ele>26.0</ele>
        <time>2022-05-14T17:37:13.627Z</time>
      </trkpt>
      <trkpt lat="39.58140167" lon="2.65163667">
        <ele>26.0</ele>
        <time>2022-05-14T17:37:14.626Z</time>
      </trkpt>
      <trkpt lat="39.58141833" lon="2.65171">
        <ele>26.0</ele>
        <time>2022-05-14T17:37:15.627Z</time>
      </trkpt>
      <trkpt lat="39.58143167" lon="2.65177333">
        <ele>27.0</ele>
        <time>2022-05-14T17:37:16.627Z</time>
      </trkpt>
      <trkpt lat="39.58143667" lon="2.65182333">
        <ele>27.0</ele>
        <time>2022-05-14T17:37:17.627Z</time>
      </trkpt>
      <trkpt lat="39.58145667" lon="2.65188667">
        <ele>27.0</ele>
        <time>2022-05-14T17:37:18.627Z</time>
      </trkpt>
      <trkpt lat="39.58147" lon="2.65196333">
        <ele>27.0</ele>
        <time>2022-05-14T17:37:19.627Z</time>
      </trkpt>
      <trkpt lat="39.58148167" lon="2.65200667">
        <ele>28.0</ele>
        <time>2022-05-14T17:37:20.626Z</time>
      </trkpt>
      <trkpt lat="39.58149667" lon="2.652085">
        <ele>28.0</ele>
        <time>2022-05-14T17:37:21.626Z</time>
      </trkpt>
      <trkpt lat="39.58150833" lon="2.65213667">
        <ele>29.0</ele>
        <time>2022-05-14T17:37:22.627Z</time>
      </trkpt>
      <trkpt lat="39.58152667" lon="2.65219167">
        <ele>29.0</ele>
        <time>2022-05-14T17:37:23.627Z</time>
      </trkpt>
      <trkpt lat="39.58154667" lon="2.65224833">
        <ele>30.0</ele>
        <time>2022-05-14T17:37:24.627Z</time>
      </trkpt>
      <trkpt lat="39.581565" lon="2.652315">
        <ele>30.0</ele>
        <time>2022-05-14T17:37:25.627Z</time>
      </trkpt>
      <trkpt lat="39.58157167" lon="2.65236">
        <ele>30.0</ele>
        <time>2022-05-14T17:37:26.627Z</time>
      </trkpt>
      <trkpt lat="39.58157667" lon="2.65242">
        <ele>30.0</ele>
        <time>2022-05-14T17:37:27.627Z</time>
      </trkpt>
      <trkpt lat="39.58157667" lon="2.65247333">
        <ele>30.0</ele>
        <time>2022-05-14T17:37:28.627Z</time>
      </trkpt>
      <trkpt lat="39.581575" lon="2.652525">
        <ele>30.0</ele>
        <time>2022-05-14T17:37:29.627Z</time>
      </trkpt>
      <trkpt lat="39.58156167" lon="2.65257">
        <ele>30.0</ele>
        <time>2022-05-14T17:37:30.627Z</time>
      </trkpt>
      <trkpt lat="39.581555" lon="2.652615">
        <ele>30.0</ele>
        <time>2022-05-14T17:37:31.627Z</time>
      </trkpt>
      <trkpt lat="39.58155" lon="2.652645">
        <ele>30.0</ele>
        <time>2022-05-14T17:37:32.627Z</time>
      </trkpt>
      <trkpt lat="39.58154833" lon="2.65267167">
        <ele>29.0</ele>
        <time>2022-05-14T17:37:33.627Z</time>
      </trkpt>
      <trkpt lat="39.58156" lon="2.65269167">
        <ele>29.0</ele>
        <time>2022-05-14T17:37:34.627Z</time>
      </trkpt>
      <trkpt lat="39.581575" lon="2.65269833">
        <ele>28.0</ele>
        <time>2022-05-14T17:37:35.626Z</time>
      </trkpt>
      <trkpt lat="39.58159167" lon="2.65270667">
        <ele>28.0</ele>
        <time>2022-05-14T17:37:36.627Z</time>
      </trkpt>
      <trkpt lat="39.58160833" lon="2.65271333">
        <ele>28.0</ele>
        <time>2022-05-14T17:37:37.627Z</time>
      </trkpt>
      <trkpt lat="39.58163" lon="2.65272">
        <ele>28.0</ele>
        <time>2022-05-14T17:37:38.627Z</time>
      </trkpt>
      <trkpt lat="39.58165333" lon="2.65272833">
        <ele>28.0</ele>
        <time>2022-05-14T17:37:39.627Z</time>
      </trkpt>
      <trkpt lat="39.58167833" lon="2.652735">
        <ele>29.0</ele>
        <time>2022-05-14T17:37:40.627Z</time>
      </trkpt>
      <trkpt lat="39.58171" lon="2.65274167">
        <ele>29.0</ele>
        <time>2022-05-14T17:37:41.627Z</time>
      </trkpt>
      <trkpt lat="39.581745" lon="2.65275167">
        <ele>29.0</ele>
        <time>2022-05-14T17:37:42.626Z</time>
      </trkpt>
      <trkpt lat="39.58178333" lon="2.65275833">
        <ele>30.0</ele>
        <time>2022-05-14T17:37:43.627Z</time>
      </trkpt>
      <trkpt lat="39.58183167" lon="2.65274833">
        <ele>30.0</ele>
        <time>2022-05-14T17:37:44.627Z</time>
      </trkpt>
      <trkpt lat="39.58186833" lon="2.65273">
        <ele>31.0</ele>
        <time>2022-05-14T17:37:45.627Z</time>
      </trkpt>
      <trkpt lat="39.58190833" lon="2.65271">
        <ele>31.0</ele>
        <time>2022-05-14T17:37:46.626Z</time>
      </trkpt>
      <trkpt lat="39.58194167" lon="2.65269833">
        <ele>32.0</ele>
        <time>2022-05-14T17:37:47.626Z</time>
      </trkpt>
      <trkpt lat="39.58198667" lon="2.65269333">
        <ele>33.0</ele>
        <time>2022-05-14T17:37:48.627Z</time>
      </trkpt>
      <trkpt lat="39.58201667" lon="2.65269333">
        <ele>33.0</ele>
        <time>2022-05-14T17:37:49.627Z</time>
      </trkpt>
      <trkpt lat="39.58205333" lon="2.65268833">
        <ele>34.0</ele>
        <time>2022-05-14T17:37:50.627Z</time>
      </trkpt>
      <trkpt lat="39.58208" lon="2.6527">
        <ele>35.0</ele>
        <time>2022-05-14T17:37:51.627Z</time>
      </trkpt>
      <trkpt lat="39.5821" lon="2.65271333">
        <ele>35.0</ele>
        <time>2022-05-14T17:37:52.627Z</time>
      </trkpt>
      <trkpt lat="39.58211333" lon="2.65273">
        <ele>35.0</ele>
        <time>2022-05-14T17:37:53.626Z</time>
      </trkpt>
      <trkpt lat="39.58212667" lon="2.65274667">
        <ele>35.0</ele>
        <time>2022-05-14T17:37:54.627Z</time>
      </trkpt>
      <trkpt lat="39.58213333" lon="2.652765">
        <ele>36.0</ele>
        <time>2022-05-14T17:37:55.627Z</time>
      </trkpt>
      <trkpt lat="39.58213833" lon="2.65277667">
        <ele>36.0</ele>
        <time>2022-05-14T17:37:56.627Z</time>
      </trkpt>
      <trkpt lat="39.58214" lon="2.65278333">
        <ele>37.0</ele>
        <time>2022-05-14T17:37:57.627Z</time>
      </trkpt>
      <trkpt lat="39.58212833" lon="2.65279333">
        <ele>38.0</ele>
        <time>2022-05-14T17:37:58.626Z</time>
      </trkpt>
      <trkpt lat="39.58210833" lon="2.65281">
        <ele>38.0</ele>
        <time>2022-05-14T17:37:59.627Z</time>
      </trkpt>
      <trkpt lat="39.58209167" lon="2.65283167">
        <ele>39.0</ele>
        <time>2022-05-14T17:38:00.627Z</time>
      </trkpt>
      <trkpt lat="39.58207667" lon="2.652855">
        <ele>40.0</ele>
        <time>2022-05-14T17:38:01.627Z</time>
      </trkpt>
      <trkpt lat="39.58205667" lon="2.65289333">
        <ele>41.0</ele>
        <time>2022-05-14T17:38:02.627Z</time>
      </trkpt>
      <trkpt lat="39.58204333" lon="2.65293167">
        <ele>42.0</ele>
        <time>2022-05-14T17:38:03.627Z</time>
      </trkpt>
      <trkpt lat="39.58203333" lon="2.652965">
        <ele>43.0</ele>
        <time>2022-05-14T17:38:04.627Z</time>
      </trkpt>
      <trkpt lat="39.58202" lon="2.65300833">
        <ele>44.0</ele>
        <time>2022-05-14T17:38:05.627Z</time>
      </trkpt>
      <trkpt lat="39.58200333" lon="2.65305333">
        <ele>45.0</ele>
        <time>2022-05-14T17:38:06.626Z</time>
      </trkpt>
      <trkpt lat="39.58199" lon="2.6531">
        <ele>46.0</ele>
        <time>2022-05-14T17:38:07.627Z</time>
      </trkpt>
      <trkpt lat="39.58196667" lon="2.65314667">
        <ele>46.0</ele>
        <time>2022-05-14T17:38:08.627Z</time>
      </trkpt>
      <trkpt lat="39.581945" lon="2.653195">
        <ele>47.0</ele>
        <time>2022-05-14T17:38:09.626Z</time>
      </trkpt>
      <trkpt lat="39.58192167" lon="2.65324333">
        <ele>48.0</ele>
        <time>2022-05-14T17:38:10.627Z</time>
      </trkpt>
      <trkpt lat="39.58189833" lon="2.65329333">
        <ele>49.0</ele>
        <time>2022-05-14T17:38:11.627Z</time>
      </trkpt>
      <trkpt lat="39.58187833" lon="2.65334167">
        <ele>49.0</ele>
        <time>2022-05-14T17:38:12.627Z</time>
      </trkpt>
      <trkpt lat="39.58185667" lon="2.65339833">
        <ele>49.0</ele>
        <time>2022-05-14T17:38:13.627Z</time>
      </trkpt>
      <trkpt lat="39.58183667" lon="2.65345833">
        <ele>49.0</ele>
        <time>2022-05-14T17:38:14.627Z</time>
      </trkpt>
      <trkpt lat="39.58182" lon="2.65351">
        <ele>48.0</ele>
        <time>2022-05-14T17:38:15.626Z</time>
      </trkpt>
      <trkpt lat="39.581805" lon="2.65356833">
        <ele>47.0</ele>
        <time>2022-05-14T17:38:16.627Z</time>
      </trkpt>
      <trkpt lat="39.5818" lon="2.65362">
        <ele>47.0</ele>
        <time>2022-05-14T17:38:17.626Z</time>
      </trkpt>
      <trkpt lat="39.581785" lon="2.65368">
        <ele>46.0</ele>
        <time>2022-05-14T17:38:18.626Z</time>
      </trkpt>
      <trkpt lat="39.58177167" lon="2.65373667">
        <ele>46.0</ele>
        <time>2022-05-14T17:38:19.627Z</time>
      </trkpt>
      <trkpt lat="39.58176167" lon="2.65379167">
        <ele>45.0</ele>
        <time>2022-05-14T17:38:20.626Z</time>
      </trkpt>
      <trkpt lat="39.58174667" lon="2.65386167">
        <ele>45.0</ele>
        <time>2022-05-14T17:38:21.626Z</time>
      </trkpt>
      <trkpt lat="39.58173" lon="2.653925">
        <ele>44.0</ele>
        <time>2022-05-14T17:38:22.627Z</time>
      </trkpt>
      <trkpt lat="39.58170833" lon="2.65398833">
        <ele>43.0</ele>
        <time>2022-05-14T17:38:23.627Z</time>
      </trkpt>
      <trkpt lat="39.58169667" lon="2.65404833">
        <ele>43.0</ele>
        <time>2022-05-14T17:38:24.627Z</time>
      </trkpt>
      <trkpt lat="39.58165667" lon="2.654115">
        <ele>42.0</ele>
        <time>2022-05-14T17:38:25.627Z</time>
      </trkpt>
      <trkpt lat="39.58162167" lon="2.65417167">
        <ele>41.0</ele>
        <time>2022-05-14T17:38:26.627Z</time>
      </trkpt>
      <trkpt lat="39.58159667" lon="2.65423">
        <ele>40.0</ele>
        <time>2022-05-14T17:38:27.626Z</time>
      </trkpt>
      <trkpt lat="39.58157333" lon="2.654285">
        <ele>39.0</ele>
        <time>2022-05-14T17:38:28.627Z</time>
      </trkpt>
      <trkpt lat="39.58155167" lon="2.65434167">
        <ele>38.0</ele>
        <time>2022-05-14T17:38:29.627Z</time>
      </trkpt>
      <trkpt lat="39.58153" lon="2.65439">
        <ele>37.0</ele>
        <time>2022-05-14T17:38:30.627Z</time>
      </trkpt>
      <trkpt lat="39.58150333" lon="2.65444167">
        <ele>37.0</ele>
        <time>2022-05-14T17:38:31.627Z</time>
      </trkpt>
      <trkpt lat="39.58148" lon="2.65449667">
        <ele>36.0</ele>
        <time>2022-05-14T17:38:32.627Z</time>
      </trkpt>
      <trkpt lat="39.581455" lon="2.654555">
        <ele>35.0</ele>
        <time>2022-05-14T17:38:33.627Z</time>
      </trkpt>
      <trkpt lat="39.58143333" lon="2.65460667">
        <ele>34.0</ele>
        <time>2022-05-14T17:38:34.627Z</time>
      </trkpt>
      <trkpt lat="39.58140833" lon="2.65466167">
        <ele>34.0</ele>
        <time>2022-05-14T17:38:35.626Z</time>
      </trkpt>
      <trkpt lat="39.58139" lon="2.65471667">
        <ele>33.0</ele>
        <time>2022-05-14T17:38:36.627Z</time>
      </trkpt>
      <trkpt lat="39.58137667" lon="2.65477333">
        <ele>33.0</ele>
        <time>2022-05-14T17:38:37.627Z</time>
      </trkpt>
      <trkpt lat="39.581365" lon="2.65484167">
        <ele>33.0</ele>
        <time>2022-05-14T17:38:38.627Z</time>
      </trkpt>
      <trkpt lat="39.58135167" lon="2.65490667">
        <ele>32.0</ele>
        <time>2022-05-14T17:38:39.627Z</time>
      </trkpt>
      <trkpt lat="39.58133167" lon="2.65496">
        <ele>32.0</ele>
        <time>2022-05-14T17:38:40.627Z</time>
      </trkpt>
      <trkpt lat="39.58131833" lon="2.655015">
        <ele>32.0</ele>
        <time>2022-05-14T17:38:41.626Z</time>
      </trkpt>
      <trkpt lat="39.58130833" lon="2.65507833">
        <ele>33.0</ele>
        <time>2022-05-14T17:38:42.627Z</time>
      </trkpt>
      <trkpt lat="39.5813" lon="2.655125">
        <ele>33.0</ele>
        <time>2022-05-14T17:38:43.627Z</time>
      </trkpt>
      <trkpt lat="39.58129333" lon="2.65516167">
        <ele>34.0</ele>
        <time>2022-05-14T17:38:44.627Z</time>
      </trkpt>
      <trkpt lat="39.581285" lon="2.65519167">
        <ele>34.0</ele>
        <time>2022-05-14T17:38:45.627Z</time>
      </trkpt>
      <trkpt lat="39.58127667" lon="2.65520667">
        <ele>35.0</ele>
        <time>2022-05-14T17:38:46.627Z</time>
      </trkpt>
      <trkpt lat="39.58126" lon="2.65521167">
        <ele>35.0</ele>
        <time>2022-05-14T17:38:47.626Z</time>
      </trkpt>
      <trkpt lat="39.58124167" lon="2.655215">
        <ele>34.0</ele>
        <time>2022-05-14T17:38:48.626Z</time>
      </trkpt>
    </trkseg>
  </trk>
</gpx>
